<?xml version='1.0' encoding='UTF-8'?><gpx version="1.1" creator="JPX - https://github.com/jenetics/jpx" xmlns="http://www.topografix.com/GPX/1/1"><trk><trkseg><trkpt lat="43.0810533" lon="12.505303"><ele>198.0</ele><time>2026-04-05T13:15:07.424Z</time></trkpt><trkpt lat="43.0809402" lon="12.5052351"><ele>198.0</ele><time>2026-04-05T13:15:09.424Z</time></trkpt><trkpt lat="43.080874" lon="12.5052092"><ele>198.0</ele><time>2026-04-05T13:15:10.424Z</time></trkpt><trkpt lat="43.0807596" lon="12.5051481"><ele>198.0</ele><time>2026-04-05T13:15:12.424Z</time></trkpt><trkpt lat="43.0806946" lon="12.5051194"><ele>198.0</ele><time>2026-04-05T13:15:13.424Z</time></trkpt><trkpt lat="43.0806318" lon="12.5050874"><ele>198.33333333333334</ele><time>2026-04-05T13:15:14.424Z</time></trkpt><trkpt lat="43.0805648" lon="12.505052"><ele>198.66666666666669</ele><time>2026-04-05T13:15:15.424Z</time></trkpt><trkpt lat="43.0804916" lon="12.5050157"><ele>199.0</ele><time>2026-04-05T13:15:16.424Z</time></trkpt><trkpt lat="43.0804194" lon="12.5049809"><ele>199.33333333333334</ele><time>2026-04-05T13:15:17.424Z</time></trkpt><trkpt lat="43.0803485" lon="12.5049427"><ele>199.66666666666669</ele><time>2026-04-05T13:15:18.424Z</time></trkpt><trkpt lat="43.0802722" lon="12.5049054"><ele>200.0</ele><time>2026-04-05T13:15:19.424Z</time></trkpt><trkpt lat="43.0801905" lon="12.5048651"><ele>200.00000000000003</ele><time>2026-04-05T13:15:20.424Z</time></trkpt><trkpt lat="43.0801075" lon="12.5048265"><ele>200.0</ele><time>2026-04-05T13:15:21.424Z</time></trkpt><trkpt lat="43.0800245" lon="12.5047891"><ele>200.0</ele><time>2026-04-05T13:15:22.424Z</time></trkpt><trkpt lat="43.0799433" lon="12.5047481"><ele>200.0</ele><time>2026-04-05T13:15:23.424Z</time></trkpt><trkpt lat="43.0798606" lon="12.5047173"><ele>200.00000000000003</ele><time>2026-04-05T13:15:24.423Z</time></trkpt><trkpt lat="43.0797752" lon="12.5046844"><ele>200.0</ele><time>2026-04-05T13:15:25.424Z</time></trkpt><trkpt lat="43.0796962" lon="12.5046424"><ele>200.00000000000003</ele><time>2026-04-05T13:15:26.423Z</time></trkpt><trkpt lat="43.0796189" lon="12.5046008"><ele>200.0</ele><time>2026-04-05T13:15:27.424Z</time></trkpt><trkpt lat="43.0795385" lon="12.5045654"><ele>200.0</ele><time>2026-04-05T13:15:28.424Z</time></trkpt><trkpt lat="43.0794652" lon="12.5045353"><ele>200.0</ele><time>2026-04-05T13:15:29.424Z</time></trkpt><trkpt lat="43.0793991" lon="12.5045026"><ele>200.00000000000003</ele><time>2026-04-05T13:15:30.423Z</time></trkpt><trkpt lat="43.0793181" lon="12.5044567"><ele>200.0</ele><time>2026-04-05T13:15:32.424Z</time></trkpt><trkpt lat="43.0792494" lon="12.5044149"><ele>200.00000000000003</ele><time>2026-04-05T13:15:34.424Z</time></trkpt><trkpt lat="43.0791644" lon="12.5044083"><ele>200.0</ele><time>2026-04-05T13:15:38.424Z</time></trkpt><trkpt lat="43.0790913" lon="12.5044469"><ele>200.0</ele><time>2026-04-05T13:15:41.423Z</time></trkpt><trkpt lat="43.0790702" lon="12.5045674"><ele>200.0</ele><time>2026-04-05T13:15:45.424Z</time></trkpt><trkpt lat="43.0790801" lon="12.5047297"><ele>200.00000000000003</ele><time>2026-04-05T13:15:47.423Z</time></trkpt><trkpt lat="43.0790882" lon="12.5048227"><ele>200.0</ele><time>2026-04-05T13:15:48.424Z</time></trkpt><trkpt lat="43.0790932" lon="12.5049159"><ele>199.83333333333334</ele><time>2026-04-05T13:15:49.424Z</time></trkpt><trkpt lat="43.0790981" lon="12.505016"><ele>199.66666666666669</ele><time>2026-04-05T13:15:50.424Z</time></trkpt><trkpt lat="43.0790881" lon="12.5051274"><ele>199.5</ele><time>2026-04-05T13:15:51.424Z</time></trkpt><trkpt lat="43.0790871" lon="12.5052546"><ele>199.33333333333331</ele><time>2026-04-05T13:15:52.423Z</time></trkpt><trkpt lat="43.0790849" lon="12.5053796"><ele>199.16666666666666</ele><time>2026-04-05T13:15:53.423Z</time></trkpt><trkpt lat="43.0790846" lon="12.5055079"><ele>199.0</ele><time>2026-04-05T13:15:54.424Z</time></trkpt><trkpt lat="43.0790845" lon="12.5056381"><ele>198.79999999999998</ele><time>2026-04-05T13:15:55.424Z</time></trkpt><trkpt lat="43.0790824" lon="12.5057625"><ele>198.6</ele><time>2026-04-05T13:15:56.424Z</time></trkpt><trkpt lat="43.079075" lon="12.5058895"><ele>198.4</ele><time>2026-04-05T13:15:57.423Z</time></trkpt><trkpt lat="43.0790745" lon="12.5060175"><ele>198.2</ele><time>2026-04-05T13:15:58.424Z</time></trkpt><trkpt lat="43.0790676" lon="12.5061534"><ele>198.0</ele><time>2026-04-05T13:15:59.424Z</time></trkpt><trkpt lat="43.0790571" lon="12.5062984"><ele>197.8</ele><time>2026-04-05T13:16:00.424Z</time></trkpt><trkpt lat="43.0790497" lon="12.5064431"><ele>197.60000000000002</ele><time>2026-04-05T13:16:01.424Z</time></trkpt><trkpt lat="43.0790406" lon="12.5065992"><ele>197.39999999999998</ele><time>2026-04-05T13:16:02.423Z</time></trkpt><trkpt lat="43.0790358" lon="12.5067549"><ele>197.2</ele><time>2026-04-05T13:16:03.424Z</time></trkpt><trkpt lat="43.0790253" lon="12.5069069"><ele>197.0</ele><time>2026-04-05T13:16:04.423Z</time></trkpt><trkpt lat="43.0790144" lon="12.5070699"><ele>197.0</ele><time>2026-04-05T13:16:05.424Z</time></trkpt><trkpt lat="43.0790072" lon="12.5072381"><ele>197.0</ele><time>2026-04-05T13:16:06.423Z</time></trkpt><trkpt lat="43.079" lon="12.5074158"><ele>197.0</ele><time>2026-04-05T13:16:07.424Z</time></trkpt><trkpt lat="43.0789996" lon="12.5075934"><ele>197.0</ele><time>2026-04-05T13:16:08.424Z</time></trkpt><trkpt lat="43.0789992" lon="12.5077483"><ele>197.0</ele><time>2026-04-05T13:16:09.424Z</time></trkpt><trkpt lat="43.0789837" lon="12.5079045"><ele>197.0</ele><time>2026-04-05T13:16:10.424Z</time></trkpt><trkpt lat="43.0789727" lon="12.5080621"><ele>197.0</ele><time>2026-04-05T13:16:11.424Z</time></trkpt><trkpt lat="43.0789646" lon="12.5082093"><ele>197.0</ele><time>2026-04-05T13:16:12.423Z</time></trkpt><trkpt lat="43.0789464" lon="12.5083723"><ele>197.25</ele><time>2026-04-05T13:16:13.423Z</time></trkpt><trkpt lat="43.0789438" lon="12.5085416"><ele>197.5</ele><time>2026-04-05T13:16:14.424Z</time></trkpt><trkpt lat="43.0789274" lon="12.5087007"><ele>197.75</ele><time>2026-04-05T13:16:15.423Z</time></trkpt><trkpt lat="43.078916" lon="12.50885"><ele>198.0</ele><time>2026-04-05T13:16:16.424Z</time></trkpt><trkpt lat="43.0788904" lon="12.5089901"><ele>197.66666666666666</ele><time>2026-04-05T13:16:17.423Z</time></trkpt><trkpt lat="43.0788465" lon="12.5091094"><ele>197.33333333333331</ele><time>2026-04-05T13:16:18.424Z</time></trkpt><trkpt lat="43.0787998" lon="12.5092057"><ele>197.0</ele><time>2026-04-05T13:16:19.424Z</time></trkpt><trkpt lat="43.0787452" lon="12.5092743"><ele>196.66666666666666</ele><time>2026-04-05T13:16:20.424Z</time></trkpt><trkpt lat="43.0786818" lon="12.5093359"><ele>196.33333333333331</ele><time>2026-04-05T13:16:21.424Z</time></trkpt><trkpt lat="43.0786007" lon="12.5093747"><ele>196.0</ele><time>2026-04-05T13:16:22.424Z</time></trkpt><trkpt lat="43.0785275" lon="12.5094214"><ele>195.99999999999997</ele><time>2026-04-05T13:16:23.423Z</time></trkpt><trkpt lat="43.0784804" lon="12.5094887"><ele>196.0</ele><time>2026-04-05T13:16:24.424Z</time></trkpt><trkpt lat="43.0784354" lon="12.5095652"><ele>196.0</ele><time>2026-04-05T13:16:25.424Z</time></trkpt><trkpt lat="43.078439" lon="12.5096519"><ele>196.0</ele><time>2026-04-05T13:16:26.424Z</time></trkpt><trkpt lat="43.0784707" lon="12.5098056"><ele>195.99999999999997</ele><time>2026-04-05T13:16:28.424Z</time></trkpt><trkpt lat="43.0785426" lon="12.5098694"><ele>196.0</ele><time>2026-04-05T13:16:29.424Z</time></trkpt><trkpt lat="43.0786077" lon="12.5099353"><ele>196.0</ele><time>2026-04-05T13:16:30.423Z</time></trkpt><trkpt lat="43.0786814" lon="12.5100015"><ele>196.0</ele><time>2026-04-05T13:16:31.423Z</time></trkpt><trkpt lat="43.0787472" lon="12.5100992"><ele>196.0</ele><time>2026-04-05T13:16:32.423Z</time></trkpt><trkpt lat="43.0787932" lon="12.5102199"><ele>196.0</ele><time>2026-04-05T13:16:33.424Z</time></trkpt><trkpt lat="43.0788111" lon="12.510362"><ele>196.0</ele><time>2026-04-05T13:16:34.424Z</time></trkpt><trkpt lat="43.0788238" lon="12.510515"><ele>196.0</ele><time>2026-04-05T13:16:35.424Z</time></trkpt><trkpt lat="43.0788325" lon="12.5106639"><ele>196.0</ele><time>2026-04-05T13:16:36.423Z</time></trkpt><trkpt lat="43.0788311" lon="12.5108067"><ele>196.0</ele><time>2026-04-05T13:16:37.424Z</time></trkpt><trkpt lat="43.078827" lon="12.510955"><ele>196.0</ele><time>2026-04-05T13:16:38.423Z</time></trkpt><trkpt lat="43.0788174" lon="12.511109"><ele>196.0</ele><time>2026-04-05T13:16:39.423Z</time></trkpt><trkpt lat="43.0788059" lon="12.5112679"><ele>196.25</ele><time>2026-04-05T13:16:40.424Z</time></trkpt><trkpt lat="43.0787932" lon="12.5114304"><ele>196.5</ele><time>2026-04-05T13:16:41.424Z</time></trkpt><trkpt lat="43.0787924" lon="12.5115981"><ele>196.75</ele><time>2026-04-05T13:16:42.424Z</time></trkpt><trkpt lat="43.0787736" lon="12.5117724"><ele>197.0</ele><time>2026-04-05T13:16:43.424Z</time></trkpt><trkpt lat="43.0787639" lon="12.5119276"><ele>197.0</ele><time>2026-04-05T13:16:44.424Z</time></trkpt><trkpt lat="43.0787537" lon="12.5120681"><ele>197.0</ele><time>2026-04-05T13:16:45.424Z</time></trkpt><trkpt lat="43.0787423" lon="12.5122209"><ele>197.0</ele><time>2026-04-05T13:16:46.423Z</time></trkpt><trkpt lat="43.0787314" lon="12.5123764"><ele>197.0</ele><time>2026-04-05T13:16:47.423Z</time></trkpt><trkpt lat="43.078731" lon="12.5125299"><ele>197.0</ele><time>2026-04-05T13:16:48.424Z</time></trkpt><trkpt lat="43.0787273" lon="12.5126851"><ele>197.0</ele><time>2026-04-05T13:16:49.424Z</time></trkpt><trkpt lat="43.0787132" lon="12.5128484"><ele>197.0</ele><time>2026-04-05T13:16:50.424Z</time></trkpt><trkpt lat="43.0786859" lon="12.5130129"><ele>197.0</ele><time>2026-04-05T13:16:51.424Z</time></trkpt><trkpt lat="43.0786817" lon="12.5131796"><ele>197.0</ele><time>2026-04-05T13:16:52.424Z</time></trkpt><trkpt lat="43.0786783" lon="12.5133529"><ele>197.0</ele><time>2026-04-05T13:16:53.424Z</time></trkpt><trkpt lat="43.0786727" lon="12.5135125"><ele>197.0</ele><time>2026-04-05T13:16:54.424Z</time></trkpt><trkpt lat="43.0786211" lon="12.5136605"><ele>197.0</ele><time>2026-04-05T13:16:55.424Z</time></trkpt><trkpt lat="43.0785601" lon="12.513778"><ele>197.0</ele><time>2026-04-05T13:16:56.423Z</time></trkpt><trkpt lat="43.0784982" lon="12.5138964"><ele>197.0</ele><time>2026-04-05T13:16:57.424Z</time></trkpt><trkpt lat="43.0784362" lon="12.5140191"><ele>197.0</ele><time>2026-04-05T13:16:58.423Z</time></trkpt><trkpt lat="43.0784036" lon="12.5141468"><ele>197.0</ele><time>2026-04-05T13:16:59.424Z</time></trkpt><trkpt lat="43.0783794" lon="12.5142932"><ele>197.0</ele><time>2026-04-05T13:17:00.424Z</time></trkpt><trkpt lat="43.0784042" lon="12.5144229"><ele>197.0</ele><time>2026-04-05T13:17:01.423Z</time></trkpt><trkpt lat="43.0784362" lon="12.51455"><ele>197.0</ele><time>2026-04-05T13:17:02.424Z</time></trkpt><trkpt lat="43.0785098" lon="12.5146818"><ele>197.0</ele><time>2026-04-05T13:17:03.423Z</time></trkpt><trkpt lat="43.0785581" lon="12.5148091"><ele>197.0</ele><time>2026-04-05T13:17:04.424Z</time></trkpt><trkpt lat="43.0785962" lon="12.5149533"><ele>197.0</ele><time>2026-04-05T13:17:05.423Z</time></trkpt><trkpt lat="43.0786215" lon="12.515105"><ele>197.0</ele><time>2026-04-05T13:17:06.423Z</time></trkpt><trkpt lat="43.0785938" lon="12.5152738"><ele>197.25</ele><time>2026-04-05T13:17:07.423Z</time></trkpt><trkpt lat="43.078586" lon="12.5154422"><ele>197.5</ele><time>2026-04-05T13:17:08.424Z</time></trkpt><trkpt lat="43.078575" lon="12.5156173"><ele>197.75</ele><time>2026-04-05T13:17:09.424Z</time></trkpt><trkpt lat="43.0785675" lon="12.5157961"><ele>198.0</ele><time>2026-04-05T13:17:10.424Z</time></trkpt><trkpt lat="43.0785568" lon="12.5159799"><ele>198.0</ele><time>2026-04-05T13:17:11.424Z</time></trkpt><trkpt lat="43.0785494" lon="12.5161677"><ele>198.0</ele><time>2026-04-05T13:17:12.423Z</time></trkpt><trkpt lat="43.0785413" lon="12.5163695"><ele>198.0</ele><time>2026-04-05T13:17:13.423Z</time></trkpt><trkpt lat="43.078531" lon="12.5165707"><ele>198.0</ele><time>2026-04-05T13:17:14.424Z</time></trkpt><trkpt lat="43.0785204" lon="12.516765"><ele>198.0</ele><time>2026-04-05T13:17:15.424Z</time></trkpt><trkpt lat="43.0785103" lon="12.5169534"><ele>198.0</ele><time>2026-04-05T13:17:16.424Z</time></trkpt><trkpt lat="43.0784975" lon="12.5171477"><ele>198.0</ele><time>2026-04-05T13:17:17.423Z</time></trkpt><trkpt lat="43.0784941" lon="12.5173392"><ele>198.0</ele><time>2026-04-05T13:17:18.424Z</time></trkpt><trkpt lat="43.0784961" lon="12.5175353"><ele>198.0</ele><time>2026-04-05T13:17:19.423Z</time></trkpt><trkpt lat="43.0784828" lon="12.5177451"><ele>198.0</ele><time>2026-04-05T13:17:20.424Z</time></trkpt><trkpt lat="43.0784773" lon="12.5179597"><ele>198.0</ele><time>2026-04-05T13:17:21.423Z</time></trkpt><trkpt lat="43.0784534" lon="12.5181782"><ele>198.0</ele><time>2026-04-05T13:17:22.424Z</time></trkpt><trkpt lat="43.0784293" lon="12.5183954"><ele>198.0</ele><time>2026-04-05T13:17:23.424Z</time></trkpt><trkpt lat="43.0784105" lon="12.5186188"><ele>198.0</ele><time>2026-04-05T13:17:24.424Z</time></trkpt><trkpt lat="43.078403" lon="12.5188303"><ele>198.0</ele><time>2026-04-05T13:17:25.423Z</time></trkpt><trkpt lat="43.0783938" lon="12.5190611"><ele>198.0</ele><time>2026-04-05T13:17:26.424Z</time></trkpt><trkpt lat="43.078385" lon="12.5192815"><ele>198.0</ele><time>2026-04-05T13:17:27.424Z</time></trkpt><trkpt lat="43.0783832" lon="12.5195047"><ele>198.0</ele><time>2026-04-05T13:17:28.424Z</time></trkpt><trkpt lat="43.0783692" lon="12.519745"><ele>198.0</ele><time>2026-04-05T13:17:29.424Z</time></trkpt><trkpt lat="43.0783523" lon="12.5199774"><ele>198.0</ele><time>2026-04-05T13:17:30.424Z</time></trkpt><trkpt lat="43.0783372" lon="12.5202134"><ele>198.33333333333331</ele><time>2026-04-05T13:17:31.424Z</time></trkpt><trkpt lat="43.0783179" lon="12.5204389"><ele>198.66666666666666</ele><time>2026-04-05T13:17:32.423Z</time></trkpt><trkpt lat="43.0783061" lon="12.5206696"><ele>199.0</ele><time>2026-04-05T13:17:33.423Z</time></trkpt><trkpt lat="43.0782894" lon="12.5209051"><ele>199.0</ele><time>2026-04-05T13:17:34.424Z</time></trkpt><trkpt lat="43.0782753" lon="12.5211346"><ele>199.0</ele><time>2026-04-05T13:17:35.424Z</time></trkpt><trkpt lat="43.0782589" lon="12.521366"><ele>199.0</ele><time>2026-04-05T13:17:36.423Z</time></trkpt><trkpt lat="43.0782453" lon="12.5215887"><ele>198.66666666666666</ele><time>2026-04-05T13:17:37.424Z</time></trkpt><trkpt lat="43.0782307" lon="12.5218136"><ele>198.33333333333331</ele><time>2026-04-05T13:17:38.424Z</time></trkpt><trkpt lat="43.0782185" lon="12.522037"><ele>198.0</ele><time>2026-04-05T13:17:39.424Z</time></trkpt><trkpt lat="43.0782142" lon="12.5222564"><ele>198.0</ele><time>2026-04-05T13:17:40.424Z</time></trkpt><trkpt lat="43.0782058" lon="12.5224793"><ele>198.0</ele><time>2026-04-05T13:17:41.423Z</time></trkpt><trkpt lat="43.0781914" lon="12.5227065"><ele>198.0</ele><time>2026-04-05T13:17:42.424Z</time></trkpt><trkpt lat="43.0781771" lon="12.5229329"><ele>198.33333333333331</ele><time>2026-04-05T13:17:43.423Z</time></trkpt><trkpt lat="43.07816" lon="12.5231536"><ele>198.66666666666666</ele><time>2026-04-05T13:17:44.423Z</time></trkpt><trkpt lat="43.0781512" lon="12.5233801"><ele>199.0</ele><time>2026-04-05T13:17:45.424Z</time></trkpt><trkpt lat="43.0781374" lon="12.5236102"><ele>199.0</ele><time>2026-04-05T13:17:46.424Z</time></trkpt><trkpt lat="43.0781246" lon="12.5238346"><ele>199.0</ele><time>2026-04-05T13:17:47.424Z</time></trkpt><trkpt lat="43.0781112" lon="12.5240633"><ele>199.0</ele><time>2026-04-05T13:17:48.423Z</time></trkpt><trkpt lat="43.0780997" lon="12.5242809"><ele>199.0</ele><time>2026-04-05T13:17:49.424Z</time></trkpt><trkpt lat="43.0780921" lon="12.5245004"><ele>199.0</ele><time>2026-04-05T13:17:50.423Z</time></trkpt><trkpt lat="43.0780845" lon="12.5247235"><ele>199.0</ele><time>2026-04-05T13:17:51.424Z</time></trkpt><trkpt lat="43.0780751" lon="12.5249447"><ele>199.0</ele><time>2026-04-05T13:17:52.424Z</time></trkpt><trkpt lat="43.0780659" lon="12.5251658"><ele>199.0</ele><time>2026-04-05T13:17:53.424Z</time></trkpt><trkpt lat="43.0780552" lon="12.5253923"><ele>199.0</ele><time>2026-04-05T13:17:54.423Z</time></trkpt><trkpt lat="43.0780377" lon="12.5256241"><ele>199.0</ele><time>2026-04-05T13:17:55.424Z</time></trkpt><trkpt lat="43.0780267" lon="12.5258514"><ele>199.0</ele><time>2026-04-05T13:17:56.424Z</time></trkpt><trkpt lat="43.0780271" lon="12.5260779"><ele>199.0</ele><time>2026-04-05T13:17:57.424Z</time></trkpt><trkpt lat="43.0780071" lon="12.5263094"><ele>199.0</ele><time>2026-04-05T13:17:58.423Z</time></trkpt><trkpt lat="43.0779903" lon="12.5265422"><ele>199.0</ele><time>2026-04-05T13:17:59.424Z</time></trkpt><trkpt lat="43.0779791" lon="12.5267725"><ele>199.0</ele><time>2026-04-05T13:18:00.424Z</time></trkpt><trkpt lat="43.0779648" lon="12.5270038"><ele>198.66666666666666</ele><time>2026-04-05T13:18:01.423Z</time></trkpt><trkpt lat="43.0779501" lon="12.5272293"><ele>198.33333333333331</ele><time>2026-04-05T13:18:02.424Z</time></trkpt><trkpt lat="43.0779405" lon="12.5274566"><ele>198.0</ele><time>2026-04-05T13:18:03.423Z</time></trkpt><trkpt lat="43.0779327" lon="12.5276858"><ele>198.33333333333331</ele><time>2026-04-05T13:18:04.424Z</time></trkpt><trkpt lat="43.0779165" lon="12.5279113"><ele>198.66666666666666</ele><time>2026-04-05T13:18:05.424Z</time></trkpt><trkpt lat="43.0779084" lon="12.5281411"><ele>199.0</ele><time>2026-04-05T13:18:06.424Z</time></trkpt><trkpt lat="43.0778991" lon="12.5283645"><ele>199.0</ele><time>2026-04-05T13:18:07.424Z</time></trkpt><trkpt lat="43.0778888" lon="12.5285988"><ele>199.0</ele><time>2026-04-05T13:18:08.424Z</time></trkpt><trkpt lat="43.0778806" lon="12.5288324"><ele>199.0</ele><time>2026-04-05T13:18:09.424Z</time></trkpt><trkpt lat="43.0778678" lon="12.5290649"><ele>198.66666666666666</ele><time>2026-04-05T13:18:10.424Z</time></trkpt><trkpt lat="43.077861" lon="12.5292883"><ele>198.33333333333331</ele><time>2026-04-05T13:18:11.423Z</time></trkpt><trkpt lat="43.0778545" lon="12.52953"><ele>198.0</ele><time>2026-04-05T13:18:12.423Z</time></trkpt><trkpt lat="43.0778472" lon="12.5297663"><ele>198.0</ele><time>2026-04-05T13:18:13.424Z</time></trkpt><trkpt lat="43.0778331" lon="12.5300004"><ele>198.0</ele><time>2026-04-05T13:18:14.424Z</time></trkpt><trkpt lat="43.0778183" lon="12.5302368"><ele>198.0</ele><time>2026-04-05T13:18:15.423Z</time></trkpt><trkpt lat="43.0778" lon="12.5304639"><ele>198.0</ele><time>2026-04-05T13:18:16.424Z</time></trkpt><trkpt lat="43.0777885" lon="12.530696"><ele>198.0</ele><time>2026-04-05T13:18:17.424Z</time></trkpt><trkpt lat="43.0777771" lon="12.5309298"><ele>198.0</ele><time>2026-04-05T13:18:18.424Z</time></trkpt><trkpt lat="43.0777581" lon="12.5311581"><ele>198.0</ele><time>2026-04-05T13:18:19.424Z</time></trkpt><trkpt lat="43.0777508" lon="12.5313926"><ele>198.0</ele><time>2026-04-05T13:18:20.424Z</time></trkpt><trkpt lat="43.0777321" lon="12.5316282"><ele>198.0</ele><time>2026-04-05T13:18:21.424Z</time></trkpt><trkpt lat="43.0777164" lon="12.5318596"><ele>198.0</ele><time>2026-04-05T13:18:22.424Z</time></trkpt><trkpt lat="43.0777029" lon="12.5320912"><ele>198.0</ele><time>2026-04-05T13:18:23.424Z</time></trkpt><trkpt lat="43.0776911" lon="12.5323252"><ele>198.0</ele><time>2026-04-05T13:18:24.424Z</time></trkpt><trkpt lat="43.077675" lon="12.5325573"><ele>198.0</ele><time>2026-04-05T13:18:25.423Z</time></trkpt><trkpt lat="43.0776602" lon="12.5327957"><ele>198.0</ele><time>2026-04-05T13:18:26.423Z</time></trkpt><trkpt lat="43.0776417" lon="12.5330347"><ele>198.0</ele><time>2026-04-05T13:18:27.423Z</time></trkpt><trkpt lat="43.0776264" lon="12.5332719"><ele>198.33333333333331</ele><time>2026-04-05T13:18:28.424Z</time></trkpt><trkpt lat="43.0776143" lon="12.5335181"><ele>198.66666666666666</ele><time>2026-04-05T13:18:29.424Z</time></trkpt><trkpt lat="43.0776028" lon="12.5337568"><ele>199.0</ele><time>2026-04-05T13:18:30.424Z</time></trkpt><trkpt lat="43.0775941" lon="12.5339958"><ele>199.66666666666666</ele><time>2026-04-05T13:18:31.423Z</time></trkpt><trkpt lat="43.0775882" lon="12.5342353"><ele>200.33333333333331</ele><time>2026-04-05T13:18:32.424Z</time></trkpt><trkpt lat="43.0775795" lon="12.5344729"><ele>201.0</ele><time>2026-04-05T13:18:33.423Z</time></trkpt><trkpt lat="43.077569" lon="12.5347101"><ele>201.0</ele><time>2026-04-05T13:18:34.424Z</time></trkpt><trkpt lat="43.0775523" lon="12.534951"><ele>201.0</ele><time>2026-04-05T13:18:35.424Z</time></trkpt><trkpt lat="43.0775378" lon="12.5351889"><ele>201.0</ele><time>2026-04-05T13:18:36.423Z</time></trkpt><trkpt lat="43.0775261" lon="12.5354257"><ele>201.0</ele><time>2026-04-05T13:18:37.423Z</time></trkpt><trkpt lat="43.0775183" lon="12.5356593"><ele>201.0</ele><time>2026-04-05T13:18:38.423Z</time></trkpt><trkpt lat="43.0774956" lon="12.5358966"><ele>201.0</ele><time>2026-04-05T13:18:39.424Z</time></trkpt><trkpt lat="43.0774848" lon="12.536121"><ele>200.33333333333331</ele><time>2026-04-05T13:18:40.424Z</time></trkpt><trkpt lat="43.0774679" lon="12.5363465"><ele>199.66666666666666</ele><time>2026-04-05T13:18:41.424Z</time></trkpt><trkpt lat="43.0774533" lon="12.5365679"><ele>199.0</ele><time>2026-04-05T13:18:42.423Z</time></trkpt><trkpt lat="43.077441" lon="12.5367924"><ele>199.0</ele><time>2026-04-05T13:18:43.424Z</time></trkpt><trkpt lat="43.0774268" lon="12.5370123"><ele>199.0</ele><time>2026-04-05T13:18:44.424Z</time></trkpt><trkpt lat="43.0774015" lon="12.5372199"><ele>199.0</ele><time>2026-04-05T13:18:45.424Z</time></trkpt><trkpt lat="43.0773626" lon="12.5374123"><ele>199.0</ele><time>2026-04-05T13:18:46.424Z</time></trkpt><trkpt lat="43.0773121" lon="12.537612"><ele>199.0</ele><time>2026-04-05T13:18:47.423Z</time></trkpt><trkpt lat="43.0772706" lon="12.537818"><ele>199.0</ele><time>2026-04-05T13:18:48.423Z</time></trkpt><trkpt lat="43.077224" lon="12.5380292"><ele>199.0</ele><time>2026-04-05T13:18:49.424Z</time></trkpt><trkpt lat="43.0771896" lon="12.5382369"><ele>199.0</ele><time>2026-04-05T13:18:50.424Z</time></trkpt><trkpt lat="43.0771501" lon="12.5384459"><ele>199.0</ele><time>2026-04-05T13:18:51.423Z</time></trkpt><trkpt lat="43.0771134" lon="12.538653"><ele>199.33333333333331</ele><time>2026-04-05T13:18:52.423Z</time></trkpt><trkpt lat="43.0770853" lon="12.5388549"><ele>199.66666666666669</ele><time>2026-04-05T13:18:53.424Z</time></trkpt><trkpt lat="43.0770472" lon="12.5390646"><ele>200.0</ele><time>2026-04-05T13:18:54.424Z</time></trkpt><trkpt lat="43.0770114" lon="12.5392702"><ele>200.0</ele><time>2026-04-05T13:18:55.424Z</time></trkpt><trkpt lat="43.0769803" lon="12.5394728"><ele>200.0</ele><time>2026-04-05T13:18:56.424Z</time></trkpt><trkpt lat="43.0769521" lon="12.5396634"><ele>200.0</ele><time>2026-04-05T13:18:57.424Z</time></trkpt><trkpt lat="43.0769185" lon="12.5398452"><ele>200.0</ele><time>2026-04-05T13:18:58.424Z</time></trkpt><trkpt lat="43.0768872" lon="12.5400324"><ele>200.0</ele><time>2026-04-05T13:18:59.424Z</time></trkpt><trkpt lat="43.0768613" lon="12.5402188"><ele>200.0</ele><time>2026-04-05T13:19:00.423Z</time></trkpt><trkpt lat="43.0768412" lon="12.5403936"><ele>200.0</ele><time>2026-04-05T13:19:01.424Z</time></trkpt><trkpt lat="43.0768127" lon="12.5405661"><ele>200.0</ele><time>2026-04-05T13:19:02.424Z</time></trkpt><trkpt lat="43.0767917" lon="12.5407321"><ele>200.2</ele><time>2026-04-05T13:19:03.424Z</time></trkpt><trkpt lat="43.0767687" lon="12.5408767"><ele>200.4</ele><time>2026-04-05T13:19:04.423Z</time></trkpt><trkpt lat="43.0767492" lon="12.5410185"><ele>200.60000000000002</ele><time>2026-04-05T13:19:05.424Z</time></trkpt><trkpt lat="43.0767289" lon="12.5411489"><ele>200.8</ele><time>2026-04-05T13:19:06.423Z</time></trkpt><trkpt lat="43.0767075" lon="12.5412612"><ele>201.0</ele><time>2026-04-05T13:19:07.423Z</time></trkpt><trkpt lat="43.0766883" lon="12.5413616"><ele>201.0</ele><time>2026-04-05T13:19:08.424Z</time></trkpt><trkpt lat="43.0766438" lon="12.5414833"><ele>201.0</ele><time>2026-04-05T13:19:10.424Z</time></trkpt><trkpt lat="43.076588" lon="12.5415487"><ele>201.0</ele><time>2026-04-05T13:19:12.424Z</time></trkpt><trkpt lat="43.0765441" lon="12.5416321"><ele>201.0</ele><time>2026-04-05T13:19:15.424Z</time></trkpt><trkpt lat="43.0765228" lon="12.5417343"><ele>201.0</ele><time>2026-04-05T13:23:06.424Z</time></trkpt><trkpt lat="43.0765188" lon="12.5418288"><ele>201.0</ele><time>2026-04-05T13:23:08.424Z</time></trkpt><trkpt lat="43.076554" lon="12.5419273"><ele>201.16666666666666</ele><time>2026-04-05T13:23:10.424Z</time></trkpt><trkpt lat="43.0765802" lon="12.5420265"><ele>201.33333333333331</ele><time>2026-04-05T13:23:17.424Z</time></trkpt><trkpt lat="43.0765753" lon="12.5421896"><ele>201.5</ele><time>2026-04-05T13:23:19.424Z</time></trkpt><trkpt lat="43.0765574" lon="12.5423"><ele>201.66666666666666</ele><time>2026-04-05T13:23:20.424Z</time></trkpt><trkpt lat="43.0765403" lon="12.5424072"><ele>201.83333333333331</ele><time>2026-04-05T13:23:21.424Z</time></trkpt><trkpt lat="43.0765185" lon="12.5425146"><ele>202.0</ele><time>2026-04-05T13:23:22.423Z</time></trkpt><trkpt lat="43.0765104" lon="12.5426235"><ele>202.0</ele><time>2026-04-05T13:23:23.424Z</time></trkpt><trkpt lat="43.0764951" lon="12.5427181"><ele>202.0</ele><time>2026-04-05T13:23:24.423Z</time></trkpt><trkpt lat="43.0764712" lon="12.5428069"><ele>202.0</ele><time>2026-04-05T13:23:25.423Z</time></trkpt><trkpt lat="43.07645" lon="12.5428924"><ele>202.0</ele><time>2026-04-05T13:23:26.423Z</time></trkpt><trkpt lat="43.0763995" lon="12.5430143"><ele>202.0</ele><time>2026-04-05T13:23:28.423Z</time></trkpt><trkpt lat="43.0763494" lon="12.5430709"><ele>202.0</ele><time>2026-04-05T13:23:29.424Z</time></trkpt><trkpt lat="43.076293" lon="12.5431192"><ele>202.0</ele><time>2026-04-05T13:23:30.424Z</time></trkpt><trkpt lat="43.0762225" lon="12.5431241"><ele>201.99999999999997</ele><time>2026-04-05T13:23:31.424Z</time></trkpt><trkpt lat="43.0761511" lon="12.5431116"><ele>202.0</ele><time>2026-04-05T13:23:32.423Z</time></trkpt><trkpt lat="43.0760821" lon="12.5430706"><ele>202.0</ele><time>2026-04-05T13:23:33.424Z</time></trkpt><trkpt lat="43.0760143" lon="12.5430184"><ele>202.0</ele><time>2026-04-05T13:23:34.424Z</time></trkpt><trkpt lat="43.0759405" lon="12.5429641"><ele>201.99999999999997</ele><time>2026-04-05T13:23:35.423Z</time></trkpt><trkpt lat="43.0758542" lon="12.5429066"><ele>202.0</ele><time>2026-04-05T13:23:36.424Z</time></trkpt><trkpt lat="43.0757637" lon="12.5428527"><ele>202.0</ele><time>2026-04-05T13:23:37.423Z</time></trkpt><trkpt lat="43.0756687" lon="12.5427828"><ele>202.0</ele><time>2026-04-05T13:23:38.424Z</time></trkpt><trkpt lat="43.075577" lon="12.5427192"><ele>202.0</ele><time>2026-04-05T13:23:39.424Z</time></trkpt><trkpt lat="43.0754895" lon="12.5426497"><ele>202.0</ele><time>2026-04-05T13:23:40.423Z</time></trkpt><trkpt lat="43.075405" lon="12.5425741"><ele>202.0</ele><time>2026-04-05T13:23:41.423Z</time></trkpt><trkpt lat="43.0753105" lon="12.5425082"><ele>202.0</ele><time>2026-04-05T13:23:42.424Z</time></trkpt><trkpt lat="43.0752187" lon="12.5424332"><ele>202.0</ele><time>2026-04-05T13:23:43.424Z</time></trkpt><trkpt lat="43.0751155" lon="12.5423588"><ele>202.0</ele><time>2026-04-05T13:23:44.424Z</time></trkpt><trkpt lat="43.0750142" lon="12.5422798"><ele>202.0</ele><time>2026-04-05T13:23:45.423Z</time></trkpt><trkpt lat="43.074918" lon="12.5421888"><ele>201.75</ele><time>2026-04-05T13:23:46.424Z</time></trkpt><trkpt lat="43.0748141" lon="12.5421092"><ele>201.5</ele><time>2026-04-05T13:23:47.424Z</time></trkpt><trkpt lat="43.0747092" lon="12.5420253"><ele>201.25</ele><time>2026-04-05T13:23:48.424Z</time></trkpt><trkpt lat="43.0746032" lon="12.5419482"><ele>201.0</ele><time>2026-04-05T13:23:49.424Z</time></trkpt><trkpt lat="43.0745004" lon="12.5418797"><ele>201.0</ele><time>2026-04-05T13:23:50.423Z</time></trkpt><trkpt lat="43.0744046" lon="12.5418088"><ele>201.0</ele><time>2026-04-05T13:23:51.423Z</time></trkpt><trkpt lat="43.0743199" lon="12.5417312"><ele>201.0</ele><time>2026-04-05T13:23:52.423Z</time></trkpt><trkpt lat="43.0742384" lon="12.5416584"><ele>201.0</ele><time>2026-04-05T13:23:53.423Z</time></trkpt><trkpt lat="43.0741612" lon="12.5415903"><ele>201.0</ele><time>2026-04-05T13:23:54.423Z</time></trkpt><trkpt lat="43.0740853" lon="12.5415222"><ele>200.4</ele><time>2026-04-05T13:23:55.423Z</time></trkpt><trkpt lat="43.0740018" lon="12.5414518"><ele>199.8</ele><time>2026-04-05T13:23:56.423Z</time></trkpt><trkpt lat="43.0739113" lon="12.5413705"><ele>199.20000000000002</ele><time>2026-04-05T13:23:57.424Z</time></trkpt><trkpt lat="43.0738194" lon="12.5412886"><ele>198.60000000000002</ele><time>2026-04-05T13:23:58.424Z</time></trkpt><trkpt lat="43.073709" lon="12.541205"><ele>198.0</ele><time>2026-04-05T13:23:59.423Z</time></trkpt><trkpt lat="43.0736034" lon="12.541132"><ele>198.0</ele><time>2026-04-05T13:24:00.424Z</time></trkpt><trkpt lat="43.073495" lon="12.5410395"><ele>198.0</ele><time>2026-04-05T13:24:01.423Z</time></trkpt><trkpt lat="43.0733822" lon="12.5409484"><ele>198.0</ele><time>2026-04-05T13:24:02.424Z</time></trkpt><trkpt lat="43.0732615" lon="12.5408492"><ele>198.0</ele><time>2026-04-05T13:24:03.424Z</time></trkpt><trkpt lat="43.0731463" lon="12.5407428"><ele>197.75</ele><time>2026-04-05T13:24:04.424Z</time></trkpt><trkpt lat="43.0730296" lon="12.5406506"><ele>197.5</ele><time>2026-04-05T13:24:05.423Z</time></trkpt><trkpt lat="43.0729137" lon="12.5405527"><ele>197.25</ele><time>2026-04-05T13:24:06.424Z</time></trkpt><trkpt lat="43.072796" lon="12.5404594"><ele>197.0</ele><time>2026-04-05T13:24:07.424Z</time></trkpt><trkpt lat="43.072683" lon="12.5403589"><ele>196.75</ele><time>2026-04-05T13:24:08.424Z</time></trkpt><trkpt lat="43.0725692" lon="12.5402667"><ele>196.5</ele><time>2026-04-05T13:24:09.423Z</time></trkpt><trkpt lat="43.0724583" lon="12.540185"><ele>196.25</ele><time>2026-04-05T13:24:10.424Z</time></trkpt><trkpt lat="43.0723441" lon="12.5400939"><ele>196.0</ele><time>2026-04-05T13:24:11.424Z</time></trkpt><trkpt lat="43.0722262" lon="12.5400078"><ele>196.0</ele><time>2026-04-05T13:24:12.423Z</time></trkpt><trkpt lat="43.0721157" lon="12.5399124"><ele>196.0</ele><time>2026-04-05T13:24:13.424Z</time></trkpt><trkpt lat="43.0720065" lon="12.5398185"><ele>196.0</ele><time>2026-04-05T13:24:14.424Z</time></trkpt><trkpt lat="43.0718917" lon="12.539727"><ele>196.0</ele><time>2026-04-05T13:24:15.424Z</time></trkpt><trkpt lat="43.071785" lon="12.5396323"><ele>196.20000000000002</ele><time>2026-04-05T13:24:16.424Z</time></trkpt><trkpt lat="43.0716779" lon="12.5395405"><ele>196.4</ele><time>2026-04-05T13:24:17.424Z</time></trkpt><trkpt lat="43.071584" lon="12.5394715"><ele>196.6</ele><time>2026-04-05T13:24:18.424Z</time></trkpt><trkpt lat="43.0715131" lon="12.5394125"><ele>196.8</ele><time>2026-04-05T13:24:19.424Z</time></trkpt><trkpt lat="43.0714484" lon="12.5393558"><ele>197.0</ele><time>2026-04-05T13:24:20.424Z</time></trkpt><trkpt lat="43.0713849" lon="12.5393005"><ele>197.00000000000003</ele><time>2026-04-05T13:24:21.424Z</time></trkpt><trkpt lat="43.0713122" lon="12.539247"><ele>197.0</ele><time>2026-04-05T13:24:22.424Z</time></trkpt><trkpt lat="43.0712508" lon="12.5391846"><ele>197.0</ele><time>2026-04-05T13:24:23.424Z</time></trkpt><trkpt lat="43.0711842" lon="12.5391302"><ele>197.0</ele><time>2026-04-05T13:24:24.424Z</time></trkpt><trkpt lat="43.071113" lon="12.5390702"><ele>197.00000000000003</ele><time>2026-04-05T13:24:25.423Z</time></trkpt><trkpt lat="43.0710403" lon="12.5389991"><ele>197.0</ele><time>2026-04-05T13:24:26.423Z</time></trkpt><trkpt lat="43.0709554" lon="12.5389277"><ele>197.0</ele><time>2026-04-05T13:24:27.424Z</time></trkpt><trkpt lat="43.0708693" lon="12.5388465"><ele>197.0</ele><time>2026-04-05T13:24:28.424Z</time></trkpt><trkpt lat="43.0707799" lon="12.5387605"><ele>197.0</ele><time>2026-04-05T13:24:29.424Z</time></trkpt><trkpt lat="43.0706812" lon="12.538677"><ele>197.0</ele><time>2026-04-05T13:24:30.424Z</time></trkpt><trkpt lat="43.0705896" lon="12.5385818"><ele>197.0</ele><time>2026-04-05T13:24:31.424Z</time></trkpt><trkpt lat="43.0704926" lon="12.5385081"><ele>197.2</ele><time>2026-04-05T13:24:32.424Z</time></trkpt><trkpt lat="43.0703997" lon="12.5384228"><ele>197.39999999999998</ele><time>2026-04-05T13:24:33.423Z</time></trkpt><trkpt lat="43.0703067" lon="12.5383462"><ele>197.60000000000002</ele><time>2026-04-05T13:24:34.424Z</time></trkpt><trkpt lat="43.070224" lon="12.5382759"><ele>197.8</ele><time>2026-04-05T13:24:35.424Z</time></trkpt><trkpt lat="43.0701608" lon="12.5381878"><ele>198.0</ele><time>2026-04-05T13:24:36.424Z</time></trkpt><trkpt lat="43.0701156" lon="12.5380965"><ele>198.0</ele><time>2026-04-05T13:24:37.424Z</time></trkpt><trkpt lat="43.0700738" lon="12.537992"><ele>198.0</ele><time>2026-04-05T13:24:38.424Z</time></trkpt><trkpt lat="43.0700278" lon="12.5379093"><ele>198.0</ele><time>2026-04-05T13:24:39.424Z</time></trkpt><trkpt lat="43.0699689" lon="12.537827"><ele>198.0</ele><time>2026-04-05T13:24:40.423Z</time></trkpt><trkpt lat="43.0698982" lon="12.5377813"><ele>198.0</ele><time>2026-04-05T13:24:41.423Z</time></trkpt><trkpt lat="43.0698285" lon="12.5377374"><ele>198.0</ele><time>2026-04-05T13:24:42.424Z</time></trkpt><trkpt lat="43.0697328" lon="12.5377497"><ele>198.0</ele><time>2026-04-05T13:24:43.423Z</time></trkpt><trkpt lat="43.0696398" lon="12.5377385"><ele>198.0</ele><time>2026-04-05T13:24:44.424Z</time></trkpt><trkpt lat="43.0695488" lon="12.5377002"><ele>198.0</ele><time>2026-04-05T13:24:45.423Z</time></trkpt><trkpt lat="43.0694622" lon="12.5376433"><ele>198.0</ele><time>2026-04-05T13:24:46.423Z</time></trkpt><trkpt lat="43.0693769" lon="12.5375738"><ele>198.0</ele><time>2026-04-05T13:24:47.424Z</time></trkpt><trkpt lat="43.0692862" lon="12.5375064"><ele>198.0</ele><time>2026-04-05T13:24:48.423Z</time></trkpt><trkpt lat="43.0692014" lon="12.5374426"><ele>198.0</ele><time>2026-04-05T13:24:49.424Z</time></trkpt><trkpt lat="43.0691336" lon="12.5373788"><ele>198.0</ele><time>2026-04-05T13:24:50.424Z</time></trkpt><trkpt lat="43.0690734" lon="12.5373411"><ele>198.0</ele><time>2026-04-05T13:24:51.424Z</time></trkpt><trkpt lat="43.0689904" lon="12.5372793"><ele>198.0</ele><time>2026-04-05T13:24:53.424Z</time></trkpt><trkpt lat="43.0688969" lon="12.5372031"><ele>198.0</ele><time>2026-04-05T13:24:55.424Z</time></trkpt><trkpt lat="43.0688281" lon="12.5371481"><ele>197.83333333333334</ele><time>2026-04-05T13:24:56.424Z</time></trkpt><trkpt lat="43.0687709" lon="12.5370818"><ele>197.66666666666669</ele><time>2026-04-05T13:24:57.424Z</time></trkpt><trkpt lat="43.0687088" lon="12.5370223"><ele>197.5</ele><time>2026-04-05T13:24:58.424Z</time></trkpt><trkpt lat="43.0686296" lon="12.5369605"><ele>197.33333333333334</ele><time>2026-04-05T13:24:59.424Z</time></trkpt><trkpt lat="43.0685537" lon="12.5368865"><ele>197.16666666666669</ele><time>2026-04-05T13:25:00.423Z</time></trkpt><trkpt lat="43.0684721" lon="12.5368188"><ele>197.0</ele><time>2026-04-05T13:25:01.423Z</time></trkpt><trkpt lat="43.0683804" lon="12.5367358"><ele>197.0</ele><time>2026-04-05T13:25:02.424Z</time></trkpt><trkpt lat="43.068289" lon="12.5366544"><ele>197.0</ele><time>2026-04-05T13:25:03.423Z</time></trkpt><trkpt lat="43.0681933" lon="12.5365856"><ele>197.0</ele><time>2026-04-05T13:25:04.424Z</time></trkpt><trkpt lat="43.0681001" lon="12.5365123"><ele>197.0</ele><time>2026-04-05T13:25:05.424Z</time></trkpt><trkpt lat="43.0680075" lon="12.5364509"><ele>197.0</ele><time>2026-04-05T13:25:06.424Z</time></trkpt><trkpt lat="43.0679117" lon="12.5364046"><ele>197.0</ele><time>2026-04-05T13:25:07.423Z</time></trkpt><trkpt lat="43.0678202" lon="12.5363527"><ele>197.0</ele><time>2026-04-05T13:25:08.424Z</time></trkpt><trkpt lat="43.0677088" lon="12.536354"><ele>197.0</ele><time>2026-04-05T13:25:09.424Z</time></trkpt><trkpt lat="43.0676016" lon="12.5363776"><ele>197.0</ele><time>2026-04-05T13:25:10.424Z</time></trkpt><trkpt lat="43.0675046" lon="12.5364367"><ele>197.0</ele><time>2026-04-05T13:25:11.423Z</time></trkpt><trkpt lat="43.0674182" lon="12.5365162"><ele>197.0</ele><time>2026-04-05T13:25:12.424Z</time></trkpt><trkpt lat="43.0673326" lon="12.5366037"><ele>197.0</ele><time>2026-04-05T13:25:13.423Z</time></trkpt><trkpt lat="43.0672529" lon="12.5367092"><ele>197.0</ele><time>2026-04-05T13:25:14.423Z</time></trkpt><trkpt lat="43.0671763" lon="12.5368069"><ele>197.0</ele><time>2026-04-05T13:25:15.424Z</time></trkpt><trkpt lat="43.0671072" lon="12.5368978"><ele>197.0</ele><time>2026-04-05T13:25:16.423Z</time></trkpt><trkpt lat="43.0670458" lon="12.5369712"><ele>197.00000000000003</ele><time>2026-04-05T13:25:17.424Z</time></trkpt><trkpt lat="43.0669841" lon="12.5370395"><ele>197.0</ele><time>2026-04-05T13:25:18.424Z</time></trkpt><trkpt lat="43.0669248" lon="12.5371046"><ele>197.0</ele><time>2026-04-05T13:25:19.424Z</time></trkpt><trkpt lat="43.066863" lon="12.5371403"><ele>197.0</ele><time>2026-04-05T13:25:20.423Z</time></trkpt><trkpt lat="43.0667992" lon="12.5371626"><ele>197.00000000000003</ele><time>2026-04-05T13:25:21.424Z</time></trkpt><trkpt lat="43.0666834" lon="12.537086"><ele>197.0</ele><time>2026-04-05T13:25:23.424Z</time></trkpt><trkpt lat="43.0666487" lon="12.5370134"><ele>196.8</ele><time>2026-04-05T13:25:24.423Z</time></trkpt><trkpt lat="43.0665928" lon="12.5368494"><ele>196.6</ele><time>2026-04-05T13:25:26.424Z</time></trkpt><trkpt lat="43.0665657" lon="12.5367223"><ele>196.4</ele><time>2026-04-05T13:25:27.424Z</time></trkpt><trkpt lat="43.0665368" lon="12.5365967"><ele>196.20000000000002</ele><time>2026-04-05T13:25:28.423Z</time></trkpt><trkpt lat="43.0665135" lon="12.5364768"><ele>196.0</ele><time>2026-04-05T13:25:29.424Z</time></trkpt><trkpt lat="43.0665312" lon="12.5363129"><ele>195.60000000000002</ele><time>2026-04-05T13:25:30.423Z</time></trkpt><trkpt lat="43.0665495" lon="12.5361644"><ele>195.2</ele><time>2026-04-05T13:25:31.424Z</time></trkpt><trkpt lat="43.066569" lon="12.536024"><ele>194.8</ele><time>2026-04-05T13:25:32.423Z</time></trkpt><trkpt lat="43.0665804" lon="12.5358942"><ele>194.39999999999998</ele><time>2026-04-05T13:25:33.424Z</time></trkpt><trkpt lat="43.0665923" lon="12.5357767"><ele>194.0</ele><time>2026-04-05T13:25:34.424Z</time></trkpt><trkpt lat="43.0666013" lon="12.5356662"><ele>194.00000000000003</ele><time>2026-04-05T13:25:35.424Z</time></trkpt><trkpt lat="43.0666109" lon="12.5355684"><ele>194.0</ele><time>2026-04-05T13:25:36.424Z</time></trkpt><trkpt lat="43.066625" lon="12.5354844"><ele>194.0</ele><time>2026-04-05T13:25:37.423Z</time></trkpt><trkpt lat="43.0666473" lon="12.5353961"><ele>194.0</ele><time>2026-04-05T13:25:38.424Z</time></trkpt><trkpt lat="43.0666747" lon="12.5353135"><ele>194.00000000000003</ele><time>2026-04-05T13:25:39.424Z</time></trkpt><trkpt lat="43.0667091" lon="12.5351526"><ele>194.0</ele><time>2026-04-05T13:25:41.424Z</time></trkpt><trkpt lat="43.0666632" lon="12.5350475"><ele>194.2</ele><time>2026-04-05T13:25:43.424Z</time></trkpt><trkpt lat="43.066551" lon="12.5350037"><ele>194.39999999999998</ele><time>2026-04-05T13:25:45.424Z</time></trkpt><trkpt lat="43.066432" lon="12.5350737"><ele>194.6</ele><time>2026-04-05T13:25:47.423Z</time></trkpt><trkpt lat="43.0663621" lon="12.5351086"><ele>194.8</ele><time>2026-04-05T13:25:48.424Z</time></trkpt><trkpt lat="43.0662896" lon="12.5351456"><ele>195.0</ele><time>2026-04-05T13:25:49.424Z</time></trkpt><trkpt lat="43.0661989" lon="12.5351444"><ele>195.0</ele><time>2026-04-05T13:25:50.424Z</time></trkpt><trkpt lat="43.06609" lon="12.5351394"><ele>195.0</ele><time>2026-04-05T13:25:51.424Z</time></trkpt><trkpt lat="43.0659707" lon="12.5351448"><ele>195.0</ele><time>2026-04-05T13:25:52.424Z</time></trkpt><trkpt lat="43.0658474" lon="12.5351595"><ele>195.0</ele><time>2026-04-05T13:25:53.424Z</time></trkpt><trkpt lat="43.065734" lon="12.5351693"><ele>194.75</ele><time>2026-04-05T13:25:54.424Z</time></trkpt><trkpt lat="43.0656151" lon="12.5351767"><ele>194.5</ele><time>2026-04-05T13:25:55.424Z</time></trkpt><trkpt lat="43.0654936" lon="12.5351908"><ele>194.25</ele><time>2026-04-05T13:25:56.424Z</time></trkpt><trkpt lat="43.0653703" lon="12.5352162"><ele>194.0</ele><time>2026-04-05T13:25:57.424Z</time></trkpt><trkpt lat="43.0652488" lon="12.5352363"><ele>194.0</ele><time>2026-04-05T13:25:58.424Z</time></trkpt><trkpt lat="43.0651211" lon="12.5352572"><ele>194.0</ele><time>2026-04-05T13:25:59.424Z</time></trkpt><trkpt lat="43.0649955" lon="12.5353024"><ele>194.0</ele><time>2026-04-05T13:26:00.424Z</time></trkpt><trkpt lat="43.0648772" lon="12.5353611"><ele>194.0</ele><time>2026-04-05T13:26:01.423Z</time></trkpt><trkpt lat="43.0647756" lon="12.5354632"><ele>193.5</ele><time>2026-04-05T13:26:02.424Z</time></trkpt><trkpt lat="43.0647018" lon="12.5356023"><ele>193.0</ele><time>2026-04-05T13:26:03.424Z</time></trkpt><trkpt lat="43.0646554" lon="12.5357517"><ele>192.5</ele><time>2026-04-05T13:26:04.424Z</time></trkpt><trkpt lat="43.0646458" lon="12.5359093"><ele>192.0</ele><time>2026-04-05T13:26:05.424Z</time></trkpt><trkpt lat="43.0646657" lon="12.5360628"><ele>192.0</ele><time>2026-04-05T13:26:06.424Z</time></trkpt><trkpt lat="43.0647176" lon="12.5362184"><ele>192.0</ele><time>2026-04-05T13:26:07.423Z</time></trkpt><trkpt lat="43.0648021" lon="12.5363439"><ele>192.0</ele><time>2026-04-05T13:26:08.423Z</time></trkpt><trkpt lat="43.0648927" lon="12.5364586"><ele>192.0</ele><time>2026-04-05T13:26:09.424Z</time></trkpt><trkpt lat="43.0650025" lon="12.5365653"><ele>192.5</ele><time>2026-04-05T13:26:10.424Z</time></trkpt><trkpt lat="43.0650885" lon="12.5366889"><ele>193.0</ele><time>2026-04-05T13:26:11.424Z</time></trkpt><trkpt lat="43.0651703" lon="12.5368196"><ele>193.5</ele><time>2026-04-05T13:26:12.424Z</time></trkpt><trkpt lat="43.0652058" lon="12.5369918"><ele>194.0</ele><time>2026-04-05T13:26:13.424Z</time></trkpt><trkpt lat="43.0652352" lon="12.5371652"><ele>194.0</ele><time>2026-04-05T13:26:14.424Z</time></trkpt><trkpt lat="43.0652661" lon="12.53734"><ele>194.0</ele><time>2026-04-05T13:26:15.424Z</time></trkpt><trkpt lat="43.0652976" lon="12.5375173"><ele>194.0</ele><time>2026-04-05T13:26:16.424Z</time></trkpt><trkpt lat="43.0653416" lon="12.5376909"><ele>194.0</ele><time>2026-04-05T13:26:17.424Z</time></trkpt><trkpt lat="43.0654238" lon="12.5378449"><ele>194.0</ele><time>2026-04-05T13:26:18.424Z</time></trkpt><trkpt lat="43.0655064" lon="12.5379849"><ele>194.0</ele><time>2026-04-05T13:26:19.424Z</time></trkpt><trkpt lat="43.0655815" lon="12.5381458"><ele>194.0</ele><time>2026-04-05T13:26:20.424Z</time></trkpt><trkpt lat="43.0656252" lon="12.5383308"><ele>194.0</ele><time>2026-04-05T13:26:21.423Z</time></trkpt><trkpt lat="43.0656388" lon="12.5385114"><ele>194.0</ele><time>2026-04-05T13:26:22.424Z</time></trkpt><trkpt lat="43.0656165" lon="12.5386927"><ele>194.0</ele><time>2026-04-05T13:26:23.423Z</time></trkpt><trkpt lat="43.0655617" lon="12.5388644"><ele>194.0</ele><time>2026-04-05T13:26:24.424Z</time></trkpt><trkpt lat="43.0654901" lon="12.5390376"><ele>194.0</ele><time>2026-04-05T13:26:25.424Z</time></trkpt><trkpt lat="43.0654199" lon="12.5392143"><ele>193.66666666666669</ele><time>2026-04-05T13:26:26.424Z</time></trkpt><trkpt lat="43.0653413" lon="12.5394003"><ele>193.33333333333331</ele><time>2026-04-05T13:26:27.424Z</time></trkpt><trkpt lat="43.0652667" lon="12.5395988"><ele>193.0</ele><time>2026-04-05T13:26:28.423Z</time></trkpt><trkpt lat="43.0651814" lon="12.5397987"><ele>193.66666666666666</ele><time>2026-04-05T13:26:29.424Z</time></trkpt><trkpt lat="43.0650931" lon="12.5399962"><ele>194.33333333333331</ele><time>2026-04-05T13:26:30.424Z</time></trkpt><trkpt lat="43.0649956" lon="12.5402028"><ele>195.0</ele><time>2026-04-05T13:26:31.424Z</time></trkpt><trkpt lat="43.0649017" lon="12.5404131"><ele>195.0</ele><time>2026-04-05T13:26:32.424Z</time></trkpt><trkpt lat="43.0648053" lon="12.5406252"><ele>195.0</ele><time>2026-04-05T13:26:33.424Z</time></trkpt><trkpt lat="43.0647089" lon="12.5408496"><ele>195.0</ele><time>2026-04-05T13:26:34.423Z</time></trkpt><trkpt lat="43.0646037" lon="12.5410774"><ele>194.33333333333331</ele><time>2026-04-05T13:26:35.423Z</time></trkpt><trkpt lat="43.0644966" lon="12.5413269"><ele>193.66666666666666</ele><time>2026-04-05T13:26:36.424Z</time></trkpt><trkpt lat="43.064389" lon="12.5415632"><ele>193.0</ele><time>2026-04-05T13:26:37.423Z</time></trkpt><trkpt lat="43.0642782" lon="12.5418009"><ele>193.0</ele><time>2026-04-05T13:26:38.424Z</time></trkpt><trkpt lat="43.0641718" lon="12.5420496"><ele>193.0</ele><time>2026-04-05T13:26:39.423Z</time></trkpt><trkpt lat="43.0640564" lon="12.5422984"><ele>193.0</ele><time>2026-04-05T13:26:40.424Z</time></trkpt><trkpt lat="43.0639414" lon="12.5425532"><ele>192.0</ele><time>2026-04-05T13:26:41.423Z</time></trkpt><trkpt lat="43.0638283" lon="12.542799"><ele>191.0</ele><time>2026-04-05T13:26:42.423Z</time></trkpt><trkpt lat="43.0637183" lon="12.5430471"><ele>190.0</ele><time>2026-04-05T13:26:43.424Z</time></trkpt><trkpt lat="43.0636048" lon="12.5433096"><ele>190.0</ele><time>2026-04-05T13:26:44.424Z</time></trkpt><trkpt lat="43.0634847" lon="12.5435575"><ele>190.0</ele><time>2026-04-05T13:26:45.423Z</time></trkpt><trkpt lat="43.0633716" lon="12.543804"><ele>190.0</ele><time>2026-04-05T13:26:46.424Z</time></trkpt><trkpt lat="43.0632611" lon="12.5440501"><ele>191.0</ele><time>2026-04-05T13:26:47.424Z</time></trkpt><trkpt lat="43.0631363" lon="12.5443079"><ele>192.0</ele><time>2026-04-05T13:26:48.424Z</time></trkpt><trkpt lat="43.063021" lon="12.5445658"><ele>193.0</ele><time>2026-04-05T13:26:49.423Z</time></trkpt><trkpt lat="43.0629045" lon="12.5448212"><ele>193.0</ele><time>2026-04-05T13:26:50.424Z</time></trkpt><trkpt lat="43.0627936" lon="12.5450839"><ele>193.0</ele><time>2026-04-05T13:26:51.423Z</time></trkpt><trkpt lat="43.0626763" lon="12.5453448"><ele>193.0</ele><time>2026-04-05T13:26:52.423Z</time></trkpt><trkpt lat="43.0625561" lon="12.5456079"><ele>193.0</ele><time>2026-04-05T13:26:53.424Z</time></trkpt><trkpt lat="43.0624441" lon="12.5458578"><ele>193.0</ele><time>2026-04-05T13:26:54.423Z</time></trkpt><trkpt lat="43.0623302" lon="12.5461252"><ele>193.0</ele><time>2026-04-05T13:26:55.424Z</time></trkpt><trkpt lat="43.0622152" lon="12.5463924"><ele>193.33333333333331</ele><time>2026-04-05T13:26:56.424Z</time></trkpt><trkpt lat="43.0620951" lon="12.5466544"><ele>193.66666666666669</ele><time>2026-04-05T13:26:57.424Z</time></trkpt><trkpt lat="43.0619787" lon="12.5469139"><ele>194.0</ele><time>2026-04-05T13:26:58.424Z</time></trkpt><trkpt lat="43.0618613" lon="12.5471721"><ele>194.0</ele><time>2026-04-05T13:26:59.424Z</time></trkpt><trkpt lat="43.0617397" lon="12.5474293"><ele>194.0</ele><time>2026-04-05T13:27:00.424Z</time></trkpt><trkpt lat="43.0616216" lon="12.547693"><ele>195.0</ele><time>2026-04-05T13:27:01.424Z</time></trkpt><trkpt lat="43.0615053" lon="12.5479428"><ele>196.0</ele><time>2026-04-05T13:27:02.424Z</time></trkpt><trkpt lat="43.0613852" lon="12.5481964"><ele>197.0</ele><time>2026-04-05T13:27:03.424Z</time></trkpt><trkpt lat="43.0612676" lon="12.5484555"><ele>197.0</ele><time>2026-04-05T13:27:04.423Z</time></trkpt><trkpt lat="43.0611639" lon="12.5487015"><ele>197.0</ele><time>2026-04-05T13:27:05.423Z</time></trkpt><trkpt lat="43.0610556" lon="12.5489611"><ele>197.0</ele><time>2026-04-05T13:27:06.424Z</time></trkpt><trkpt lat="43.0609455" lon="12.549218"><ele>196.66666666666669</ele><time>2026-04-05T13:27:07.424Z</time></trkpt><trkpt lat="43.0608356" lon="12.54948"><ele>196.33333333333331</ele><time>2026-04-05T13:27:08.424Z</time></trkpt><trkpt lat="43.0607291" lon="12.5497484"><ele>196.0</ele><time>2026-04-05T13:27:09.424Z</time></trkpt><trkpt lat="43.060623" lon="12.5500217"><ele>196.0</ele><time>2026-04-05T13:27:10.424Z</time></trkpt><trkpt lat="43.0605177" lon="12.5502966"><ele>196.0</ele><time>2026-04-05T13:27:11.424Z</time></trkpt><trkpt lat="43.0604136" lon="12.5505731"><ele>196.5</ele><time>2026-04-05T13:27:12.424Z</time></trkpt><trkpt lat="43.0603037" lon="12.5508521"><ele>197.0</ele><time>2026-04-05T13:27:13.424Z</time></trkpt><trkpt lat="43.0601944" lon="12.5511325"><ele>198.0</ele><time>2026-04-05T13:27:14.423Z</time></trkpt><trkpt lat="43.0600881" lon="12.551424"><ele>199.0</ele><time>2026-04-05T13:27:15.424Z</time></trkpt><trkpt lat="43.0599779" lon="12.5517061"><ele>199.0</ele><time>2026-04-05T13:27:16.424Z</time></trkpt><trkpt lat="43.0598786" lon="12.5519799"><ele>199.0</ele><time>2026-04-05T13:27:17.424Z</time></trkpt><trkpt lat="43.0597657" lon="12.5522578"><ele>198.5</ele><time>2026-04-05T13:27:18.424Z</time></trkpt><trkpt lat="43.0596602" lon="12.5525316"><ele>198.0</ele><time>2026-04-05T13:27:19.423Z</time></trkpt><trkpt lat="43.0595523" lon="12.552819"><ele>198.0</ele><time>2026-04-05T13:27:20.423Z</time></trkpt><trkpt lat="43.0594452" lon="12.5531066"><ele>198.0</ele><time>2026-04-05T13:27:21.423Z</time></trkpt><trkpt lat="43.0593438" lon="12.5533928"><ele>198.0</ele><time>2026-04-05T13:27:22.424Z</time></trkpt><trkpt lat="43.059234" lon="12.553672"><ele>198.0</ele><time>2026-04-05T13:27:23.424Z</time></trkpt><trkpt lat="43.0591296" lon="12.55395"><ele>198.5</ele><time>2026-04-05T13:27:24.423Z</time></trkpt><trkpt lat="43.0590188" lon="12.5542303"><ele>199.0</ele><time>2026-04-05T13:27:25.424Z</time></trkpt><trkpt lat="43.0589145" lon="12.5545034"><ele>199.5</ele><time>2026-04-05T13:27:26.424Z</time></trkpt><trkpt lat="43.0588121" lon="12.5547844"><ele>200.0</ele><time>2026-04-05T13:27:27.424Z</time></trkpt><trkpt lat="43.058705" lon="12.5550709"><ele>200.0</ele><time>2026-04-05T13:27:28.424Z</time></trkpt><trkpt lat="43.0586002" lon="12.5553458"><ele>200.0</ele><time>2026-04-05T13:27:29.424Z</time></trkpt><trkpt lat="43.0584912" lon="12.5556276"><ele>200.5</ele><time>2026-04-05T13:27:30.424Z</time></trkpt><trkpt lat="43.0583813" lon="12.5559101"><ele>201.0</ele><time>2026-04-05T13:27:31.424Z</time></trkpt><trkpt lat="43.0582723" lon="12.5562015"><ele>201.0</ele><time>2026-04-05T13:27:32.423Z</time></trkpt><trkpt lat="43.0581685" lon="12.5564902"><ele>201.0</ele><time>2026-04-05T13:27:33.424Z</time></trkpt><trkpt lat="43.058058" lon="12.5567776"><ele>201.5</ele><time>2026-04-05T13:27:34.423Z</time></trkpt><trkpt lat="43.057946" lon="12.5570673"><ele>202.0</ele><time>2026-04-05T13:27:35.424Z</time></trkpt><trkpt lat="43.0578343" lon="12.5573575"><ele>202.0</ele><time>2026-04-05T13:27:36.424Z</time></trkpt><trkpt lat="43.0577231" lon="12.5576517"><ele>202.0</ele><time>2026-04-05T13:27:37.424Z</time></trkpt><trkpt lat="43.057615" lon="12.5579369"><ele>202.0</ele><time>2026-04-05T13:27:38.424Z</time></trkpt><trkpt lat="43.0574973" lon="12.5582224"><ele>202.0</ele><time>2026-04-05T13:27:39.424Z</time></trkpt><trkpt lat="43.0573899" lon="12.5585136"><ele>202.0</ele><time>2026-04-05T13:27:40.423Z</time></trkpt><trkpt lat="43.0572742" lon="12.5588057"><ele>202.0</ele><time>2026-04-05T13:27:41.424Z</time></trkpt><trkpt lat="43.0571596" lon="12.5590958"><ele>202.0</ele><time>2026-04-05T13:27:42.423Z</time></trkpt><trkpt lat="43.0570425" lon="12.5593864"><ele>202.0</ele><time>2026-04-05T13:27:43.424Z</time></trkpt><trkpt lat="43.0569287" lon="12.5596878"><ele>203.0</ele><time>2026-04-05T13:27:44.424Z</time></trkpt><trkpt lat="43.0568067" lon="12.5599822"><ele>204.0</ele><time>2026-04-05T13:27:45.423Z</time></trkpt><trkpt lat="43.0566782" lon="12.5602723"><ele>204.0</ele><time>2026-04-05T13:27:46.424Z</time></trkpt><trkpt lat="43.0565572" lon="12.5605683"><ele>204.0</ele><time>2026-04-05T13:27:47.423Z</time></trkpt><trkpt lat="43.0564395" lon="12.5608678"><ele>204.0</ele><time>2026-04-05T13:27:48.424Z</time></trkpt><trkpt lat="43.0563143" lon="12.5611628"><ele>204.0</ele><time>2026-04-05T13:27:49.424Z</time></trkpt><trkpt lat="43.0561923" lon="12.5614623"><ele>203.5</ele><time>2026-04-05T13:27:50.424Z</time></trkpt><trkpt lat="43.0560716" lon="12.5617665"><ele>203.0</ele><time>2026-04-05T13:27:51.423Z</time></trkpt><trkpt lat="43.0559428" lon="12.5620785"><ele>203.0</ele><time>2026-04-05T13:27:52.424Z</time></trkpt><trkpt lat="43.0558199" lon="12.5623743"><ele>203.0</ele><time>2026-04-05T13:27:53.424Z</time></trkpt><trkpt lat="43.0557021" lon="12.5626608"><ele>203.5</ele><time>2026-04-05T13:27:54.424Z</time></trkpt><trkpt lat="43.0555774" lon="12.5629662"><ele>204.0</ele><time>2026-04-05T13:27:55.424Z</time></trkpt><trkpt lat="43.0554537" lon="12.563264"><ele>204.0</ele><time>2026-04-05T13:27:56.424Z</time></trkpt><trkpt lat="43.0553294" lon="12.5635548"><ele>204.0</ele><time>2026-04-05T13:27:57.424Z</time></trkpt><trkpt lat="43.0552083" lon="12.5638584"><ele>204.0</ele><time>2026-04-05T13:27:58.423Z</time></trkpt><trkpt lat="43.0550936" lon="12.5641591"><ele>204.0</ele><time>2026-04-05T13:27:59.424Z</time></trkpt><trkpt lat="43.0549708" lon="12.5644435"><ele>204.5</ele><time>2026-04-05T13:28:00.424Z</time></trkpt><trkpt lat="43.0548435" lon="12.5647412"><ele>205.0</ele><time>2026-04-05T13:28:01.423Z</time></trkpt><trkpt lat="43.0547204" lon="12.5650266"><ele>205.0</ele><time>2026-04-05T13:28:02.423Z</time></trkpt><trkpt lat="43.0545993" lon="12.5653116"><ele>205.0</ele><time>2026-04-05T13:28:03.424Z</time></trkpt><trkpt lat="43.0544868" lon="12.565592"><ele>205.0</ele><time>2026-04-05T13:28:04.423Z</time></trkpt><trkpt lat="43.0543638" lon="12.5658743"><ele>205.0</ele><time>2026-04-05T13:28:05.423Z</time></trkpt><trkpt lat="43.0542474" lon="12.5661643"><ele>204.5</ele><time>2026-04-05T13:28:06.424Z</time></trkpt><trkpt lat="43.0541302" lon="12.566455"><ele>204.0</ele><time>2026-04-05T13:28:07.424Z</time></trkpt><trkpt lat="43.0540116" lon="12.5667395"><ele>204.5</ele><time>2026-04-05T13:28:08.424Z</time></trkpt><trkpt lat="43.0538912" lon="12.5670294"><ele>205.0</ele><time>2026-04-05T13:28:09.424Z</time></trkpt><trkpt lat="43.0537697" lon="12.5673271"><ele>205.0</ele><time>2026-04-05T13:28:10.423Z</time></trkpt><trkpt lat="43.0536501" lon="12.5676183"><ele>205.0</ele><time>2026-04-05T13:28:11.423Z</time></trkpt><trkpt lat="43.0535309" lon="12.5679199"><ele>205.5</ele><time>2026-04-05T13:28:12.424Z</time></trkpt><trkpt lat="43.0534048" lon="12.5682131"><ele>206.0</ele><time>2026-04-05T13:28:13.424Z</time></trkpt><trkpt lat="43.0532793" lon="12.5684964"><ele>205.5</ele><time>2026-04-05T13:28:14.424Z</time></trkpt><trkpt lat="43.0531584" lon="12.5687908"><ele>205.0</ele><time>2026-04-05T13:28:15.424Z</time></trkpt><trkpt lat="43.0530562" lon="12.569092"><ele>205.0</ele><time>2026-04-05T13:28:16.423Z</time></trkpt><trkpt lat="43.0529636" lon="12.5693963"><ele>205.0</ele><time>2026-04-05T13:28:17.424Z</time></trkpt><trkpt lat="43.0528881" lon="12.5697147"><ele>205.0</ele><time>2026-04-05T13:28:18.424Z</time></trkpt><trkpt lat="43.0528177" lon="12.5700293"><ele>205.0</ele><time>2026-04-05T13:28:19.423Z</time></trkpt><trkpt lat="43.0527648" lon="12.5703609"><ele>204.5</ele><time>2026-04-05T13:28:20.423Z</time></trkpt><trkpt lat="43.0527235" lon="12.5706835"><ele>204.0</ele><time>2026-04-05T13:28:21.424Z</time></trkpt><trkpt lat="43.052694" lon="12.571008"><ele>205.0</ele><time>2026-04-05T13:28:22.424Z</time></trkpt><trkpt lat="43.0526792" lon="12.5713361"><ele>206.0</ele><time>2026-04-05T13:28:23.424Z</time></trkpt><trkpt lat="43.0526725" lon="12.5716712"><ele>206.0</ele><time>2026-04-05T13:28:24.424Z</time></trkpt><trkpt lat="43.0526757" lon="12.5720004"><ele>206.0</ele><time>2026-04-05T13:28:25.424Z</time></trkpt><trkpt lat="43.0526855" lon="12.5723316"><ele>207.0</ele><time>2026-04-05T13:28:26.423Z</time></trkpt><trkpt lat="43.0526987" lon="12.572656"><ele>208.0</ele><time>2026-04-05T13:28:27.424Z</time></trkpt><trkpt lat="43.0527093" lon="12.5729914"><ele>208.5</ele><time>2026-04-05T13:28:28.424Z</time></trkpt><trkpt lat="43.0527215" lon="12.5733261"><ele>209.0</ele><time>2026-04-05T13:28:29.424Z</time></trkpt><trkpt lat="43.0527311" lon="12.5736514"><ele>209.0</ele><time>2026-04-05T13:28:30.424Z</time></trkpt><trkpt lat="43.0527425" lon="12.5739833"><ele>209.0</ele><time>2026-04-05T13:28:31.424Z</time></trkpt><trkpt lat="43.0527498" lon="12.5743046"><ele>208.5</ele><time>2026-04-05T13:28:32.424Z</time></trkpt><trkpt lat="43.0527632" lon="12.574639"><ele>208.0</ele><time>2026-04-05T13:28:33.424Z</time></trkpt><trkpt lat="43.0527757" lon="12.574974"><ele>208.0</ele><time>2026-04-05T13:28:34.423Z</time></trkpt><trkpt lat="43.0527941" lon="12.5753036"><ele>208.0</ele><time>2026-04-05T13:28:35.424Z</time></trkpt><trkpt lat="43.052812" lon="12.5756329"><ele>208.5</ele><time>2026-04-05T13:28:36.423Z</time></trkpt><trkpt lat="43.0528284" lon="12.575962"><ele>209.0</ele><time>2026-04-05T13:28:37.423Z</time></trkpt><trkpt lat="43.0528418" lon="12.5762907"><ele>209.0</ele><time>2026-04-05T13:28:38.424Z</time></trkpt><trkpt lat="43.0528592" lon="12.5766196"><ele>209.0</ele><time>2026-04-05T13:28:39.424Z</time></trkpt><trkpt lat="43.0528703" lon="12.576957"><ele>209.0</ele><time>2026-04-05T13:28:40.424Z</time></trkpt><trkpt lat="43.0528845" lon="12.5772822"><ele>209.0</ele><time>2026-04-05T13:28:41.424Z</time></trkpt><trkpt lat="43.0528999" lon="12.5776047"><ele>209.5</ele><time>2026-04-05T13:28:42.423Z</time></trkpt><trkpt lat="43.0529127" lon="12.577929"><ele>210.0</ele><time>2026-04-05T13:28:43.423Z</time></trkpt><trkpt lat="43.0529251" lon="12.5782572"><ele>210.0</ele><time>2026-04-05T13:28:44.424Z</time></trkpt><trkpt lat="43.0529414" lon="12.5785921"><ele>210.0</ele><time>2026-04-05T13:28:45.423Z</time></trkpt><trkpt lat="43.0529482" lon="12.5789231"><ele>210.0</ele><time>2026-04-05T13:28:46.424Z</time></trkpt><trkpt lat="43.0529653" lon="12.5792592"><ele>210.0</ele><time>2026-04-05T13:28:47.423Z</time></trkpt><trkpt lat="43.0529806" lon="12.5795884"><ele>210.0</ele><time>2026-04-05T13:28:48.424Z</time></trkpt><trkpt lat="43.0529911" lon="12.5799221"><ele>210.0</ele><time>2026-04-05T13:28:49.424Z</time></trkpt><trkpt lat="43.0529907" lon="12.5802573"><ele>210.0</ele><time>2026-04-05T13:28:50.424Z</time></trkpt><trkpt lat="43.0529785" lon="12.5805823"><ele>210.0</ele><time>2026-04-05T13:28:51.423Z</time></trkpt><trkpt lat="43.0529581" lon="12.5809024"><ele>211.5</ele><time>2026-04-05T13:28:52.424Z</time></trkpt><trkpt lat="43.0529255" lon="12.5812268"><ele>213.0</ele><time>2026-04-05T13:28:53.424Z</time></trkpt><trkpt lat="43.0528779" lon="12.5815362"><ele>213.0</ele><time>2026-04-05T13:28:54.424Z</time></trkpt><trkpt lat="43.0528172" lon="12.5818443"><ele>213.0</ele><time>2026-04-05T13:28:55.424Z</time></trkpt><trkpt lat="43.0527617" lon="12.5821504"><ele>213.0</ele><time>2026-04-05T13:28:56.424Z</time></trkpt><trkpt lat="43.0527021" lon="12.5824578"><ele>213.0</ele><time>2026-04-05T13:28:57.424Z</time></trkpt><trkpt lat="43.0526322" lon="12.5827639"><ele>212.5</ele><time>2026-04-05T13:28:58.423Z</time></trkpt><trkpt lat="43.0525605" lon="12.583065"><ele>212.0</ele><time>2026-04-05T13:28:59.423Z</time></trkpt><trkpt lat="43.052487" lon="12.5833784"><ele>212.0</ele><time>2026-04-05T13:29:00.424Z</time></trkpt><trkpt lat="43.0524041" lon="12.5836929"><ele>212.0</ele><time>2026-04-05T13:29:01.423Z</time></trkpt><trkpt lat="43.0523281" lon="12.5839985"><ele>212.0</ele><time>2026-04-05T13:29:02.424Z</time></trkpt><trkpt lat="43.0522471" lon="12.5843083"><ele>212.0</ele><time>2026-04-05T13:29:03.424Z</time></trkpt><trkpt lat="43.0521643" lon="12.5846204"><ele>213.0</ele><time>2026-04-05T13:29:04.423Z</time></trkpt><trkpt lat="43.0520855" lon="12.5849312"><ele>214.0</ele><time>2026-04-05T13:29:05.423Z</time></trkpt><trkpt lat="43.0520081" lon="12.5852417"><ele>214.5</ele><time>2026-04-05T13:29:06.424Z</time></trkpt><trkpt lat="43.0519248" lon="12.5855485"><ele>215.0</ele><time>2026-04-05T13:29:07.424Z</time></trkpt><trkpt lat="43.051846" lon="12.5858598"><ele>215.0</ele><time>2026-04-05T13:29:08.423Z</time></trkpt><trkpt lat="43.0517671" lon="12.5861674"><ele>215.0</ele><time>2026-04-05T13:29:09.424Z</time></trkpt><trkpt lat="43.0516934" lon="12.5864814"><ele>214.5</ele><time>2026-04-05T13:29:10.424Z</time></trkpt><trkpt lat="43.0516213" lon="12.586796"><ele>214.0</ele><time>2026-04-05T13:29:11.424Z</time></trkpt><trkpt lat="43.0515475" lon="12.5871073"><ele>212.5</ele><time>2026-04-05T13:29:12.424Z</time></trkpt><trkpt lat="43.051478" lon="12.5874235"><ele>211.0</ele><time>2026-04-05T13:29:13.424Z</time></trkpt><trkpt lat="43.0513999" lon="12.5877422"><ele>211.0</ele><time>2026-04-05T13:29:14.424Z</time></trkpt><trkpt lat="43.0513236" lon="12.5880549"><ele>211.0</ele><time>2026-04-05T13:29:15.424Z</time></trkpt><trkpt lat="43.0512492" lon="12.5883662"><ele>211.5</ele><time>2026-04-05T13:29:16.423Z</time></trkpt><trkpt lat="43.0511712" lon="12.5886796"><ele>212.0</ele><time>2026-04-05T13:29:17.424Z</time></trkpt><trkpt lat="43.0510991" lon="12.5889939"><ele>212.0</ele><time>2026-04-05T13:29:18.424Z</time></trkpt><trkpt lat="43.0510255" lon="12.5893008"><ele>212.0</ele><time>2026-04-05T13:29:19.424Z</time></trkpt><trkpt lat="43.0509466" lon="12.5896206"><ele>213.5</ele><time>2026-04-05T13:29:20.424Z</time></trkpt><trkpt lat="43.0508728" lon="12.5899316"><ele>215.0</ele><time>2026-04-05T13:29:21.423Z</time></trkpt><trkpt lat="43.0507993" lon="12.5902514"><ele>215.0</ele><time>2026-04-05T13:29:22.423Z</time></trkpt><trkpt lat="43.0507223" lon="12.5905708"><ele>215.0</ele><time>2026-04-05T13:29:23.424Z</time></trkpt><trkpt lat="43.0506478" lon="12.5908888"><ele>214.0</ele><time>2026-04-05T13:29:24.423Z</time></trkpt><trkpt lat="43.050574" lon="12.5912004"><ele>213.0</ele><time>2026-04-05T13:29:25.424Z</time></trkpt><trkpt lat="43.0504989" lon="12.5915071"><ele>213.0</ele><time>2026-04-05T13:29:26.424Z</time></trkpt><trkpt lat="43.0504247" lon="12.5918139"><ele>213.0</ele><time>2026-04-05T13:29:27.424Z</time></trkpt><trkpt lat="43.0503435" lon="12.5921295"><ele>214.0</ele><time>2026-04-05T13:29:28.424Z</time></trkpt><trkpt lat="43.0502666" lon="12.5924454"><ele>215.0</ele><time>2026-04-05T13:29:29.424Z</time></trkpt><trkpt lat="43.0501872" lon="12.5927612"><ele>216.0</ele><time>2026-04-05T13:29:30.424Z</time></trkpt><trkpt lat="43.0501135" lon="12.5930877"><ele>217.0</ele><time>2026-04-05T13:29:31.423Z</time></trkpt><trkpt lat="43.0500418" lon="12.5934013"><ele>216.5</ele><time>2026-04-05T13:29:32.424Z</time></trkpt><trkpt lat="43.0499709" lon="12.5937184"><ele>216.0</ele><time>2026-04-05T13:29:33.424Z</time></trkpt><trkpt lat="43.0498938" lon="12.5940262"><ele>215.5</ele><time>2026-04-05T13:29:34.423Z</time></trkpt><trkpt lat="43.0498223" lon="12.5943428"><ele>215.0</ele><time>2026-04-05T13:29:35.423Z</time></trkpt><trkpt lat="43.0497551" lon="12.5946614"><ele>216.0</ele><time>2026-04-05T13:29:36.424Z</time></trkpt><trkpt lat="43.0496785" lon="12.5949859"><ele>217.0</ele><time>2026-04-05T13:29:37.424Z</time></trkpt><trkpt lat="43.0496037" lon="12.5953114"><ele>216.5</ele><time>2026-04-05T13:29:38.423Z</time></trkpt><trkpt lat="43.0495298" lon="12.5956313"><ele>216.0</ele><time>2026-04-05T13:29:39.424Z</time></trkpt><trkpt lat="43.0494447" lon="12.5959473"><ele>217.0</ele><time>2026-04-05T13:29:40.423Z</time></trkpt><trkpt lat="43.0493652" lon="12.5962643"><ele>218.0</ele><time>2026-04-05T13:29:41.424Z</time></trkpt><trkpt lat="43.0492862" lon="12.5965846"><ele>218.0</ele><time>2026-04-05T13:29:42.424Z</time></trkpt><trkpt lat="43.0492186" lon="12.5969123"><ele>218.0</ele><time>2026-04-05T13:29:43.424Z</time></trkpt><trkpt lat="43.0491311" lon="12.5972352"><ele>216.5</ele><time>2026-04-05T13:29:44.424Z</time></trkpt><trkpt lat="43.0490519" lon="12.5975575"><ele>215.0</ele><time>2026-04-05T13:29:45.424Z</time></trkpt><trkpt lat="43.0489683" lon="12.5978804"><ele>214.5</ele><time>2026-04-05T13:29:46.424Z</time></trkpt><trkpt lat="43.0488842" lon="12.5982093"><ele>214.0</ele><time>2026-04-05T13:29:47.424Z</time></trkpt><trkpt lat="43.0488046" lon="12.598531"><ele>215.5</ele><time>2026-04-05T13:29:48.424Z</time></trkpt><trkpt lat="43.0487267" lon="12.598864"><ele>217.0</ele><time>2026-04-05T13:29:49.423Z</time></trkpt><trkpt lat="43.0486533" lon="12.5992012"><ele>217.0</ele><time>2026-04-05T13:29:50.423Z</time></trkpt><trkpt lat="43.0485657" lon="12.5995283"><ele>217.0</ele><time>2026-04-05T13:29:51.423Z</time></trkpt><trkpt lat="43.048483" lon="12.5998553"><ele>217.0</ele><time>2026-04-05T13:29:52.424Z</time></trkpt><trkpt lat="43.0483969" lon="12.6001857"><ele>217.0</ele><time>2026-04-05T13:29:53.424Z</time></trkpt><trkpt lat="43.048313" lon="12.6005183"><ele>215.0</ele><time>2026-04-05T13:29:54.424Z</time></trkpt><trkpt lat="43.048227" lon="12.6008525"><ele>213.0</ele><time>2026-04-05T13:29:55.424Z</time></trkpt><trkpt lat="43.0481291" lon="12.6011826"><ele>213.0</ele><time>2026-04-05T13:29:56.424Z</time></trkpt><trkpt lat="43.0480211" lon="12.6015042"><ele>213.0</ele><time>2026-04-05T13:29:57.424Z</time></trkpt><trkpt lat="43.0479057" lon="12.6018239"><ele>212.0</ele><time>2026-04-05T13:29:58.424Z</time></trkpt><trkpt lat="43.0477875" lon="12.6021445"><ele>211.0</ele><time>2026-04-05T13:29:59.424Z</time></trkpt><trkpt lat="43.0476549" lon="12.6024547"><ele>211.0</ele><time>2026-04-05T13:30:00.423Z</time></trkpt><trkpt lat="43.0475212" lon="12.6027557"><ele>211.0</ele><time>2026-04-05T13:30:01.424Z</time></trkpt><trkpt lat="43.0473825" lon="12.6030586"><ele>211.5</ele><time>2026-04-05T13:30:02.424Z</time></trkpt><trkpt lat="43.0472348" lon="12.6033541"><ele>212.0</ele><time>2026-04-05T13:30:03.424Z</time></trkpt><trkpt lat="43.0470925" lon="12.6036561"><ele>213.0</ele><time>2026-04-05T13:30:04.423Z</time></trkpt><trkpt lat="43.0469494" lon="12.6039575"><ele>214.0</ele><time>2026-04-05T13:30:05.424Z</time></trkpt><trkpt lat="43.0468036" lon="12.6042553"><ele>214.0</ele><time>2026-04-05T13:30:06.424Z</time></trkpt><trkpt lat="43.0466667" lon="12.6045561"><ele>214.0</ele><time>2026-04-05T13:30:07.423Z</time></trkpt><trkpt lat="43.0465269" lon="12.6048533"><ele>214.0</ele><time>2026-04-05T13:30:08.424Z</time></trkpt><trkpt lat="43.0463901" lon="12.6051372"><ele>214.0</ele><time>2026-04-05T13:30:09.424Z</time></trkpt><trkpt lat="43.0462529" lon="12.6054343"><ele>213.5</ele><time>2026-04-05T13:30:10.423Z</time></trkpt><trkpt lat="43.0461116" lon="12.6057291"><ele>213.0</ele><time>2026-04-05T13:30:11.424Z</time></trkpt><trkpt lat="43.0459709" lon="12.6060342"><ele>212.5</ele><time>2026-04-05T13:30:12.423Z</time></trkpt><trkpt lat="43.0458246" lon="12.6063228"><ele>212.0</ele><time>2026-04-05T13:30:13.423Z</time></trkpt><trkpt lat="43.0456872" lon="12.6066082"><ele>212.0</ele><time>2026-04-05T13:30:14.424Z</time></trkpt><trkpt lat="43.0455512" lon="12.6068913"><ele>212.0</ele><time>2026-04-05T13:30:15.423Z</time></trkpt><trkpt lat="43.0454117" lon="12.6071765"><ele>212.0</ele><time>2026-04-05T13:30:16.424Z</time></trkpt><trkpt lat="43.0452781" lon="12.6074671"><ele>212.0</ele><time>2026-04-05T13:30:17.424Z</time></trkpt><trkpt lat="43.0451465" lon="12.6077549"><ele>212.5</ele><time>2026-04-05T13:30:18.424Z</time></trkpt><trkpt lat="43.0450069" lon="12.6080501"><ele>213.0</ele><time>2026-04-05T13:30:19.423Z</time></trkpt><trkpt lat="43.0448684" lon="12.6083503"><ele>212.0</ele><time>2026-04-05T13:30:20.424Z</time></trkpt><trkpt lat="43.0447319" lon="12.6086321"><ele>211.0</ele><time>2026-04-05T13:30:21.423Z</time></trkpt><trkpt lat="43.0445917" lon="12.6089161"><ele>211.0</ele><time>2026-04-05T13:30:22.424Z</time></trkpt><trkpt lat="43.0444605" lon="12.6091987"><ele>211.0</ele><time>2026-04-05T13:30:23.424Z</time></trkpt><trkpt lat="43.0443286" lon="12.6094743"><ele>210.5</ele><time>2026-04-05T13:30:24.424Z</time></trkpt><trkpt lat="43.0441967" lon="12.6097514"><ele>210.0</ele><time>2026-04-05T13:30:25.423Z</time></trkpt><trkpt lat="43.0440638" lon="12.6100274"><ele>210.0</ele><time>2026-04-05T13:30:26.424Z</time></trkpt><trkpt lat="43.0439309" lon="12.6103124"><ele>210.0</ele><time>2026-04-05T13:30:27.424Z</time></trkpt><trkpt lat="43.0437929" lon="12.6105991"><ele>210.0</ele><time>2026-04-05T13:30:28.424Z</time></trkpt><trkpt lat="43.0436599" lon="12.6108854"><ele>210.0</ele><time>2026-04-05T13:30:29.423Z</time></trkpt><trkpt lat="43.0435252" lon="12.6111706"><ele>210.0</ele><time>2026-04-05T13:30:30.424Z</time></trkpt><trkpt lat="43.0433912" lon="12.6114397"><ele>210.0</ele><time>2026-04-05T13:30:31.424Z</time></trkpt><trkpt lat="43.0432573" lon="12.6117177"><ele>208.0</ele><time>2026-04-05T13:30:32.424Z</time></trkpt><trkpt lat="43.0431292" lon="12.6120075"><ele>206.0</ele><time>2026-04-05T13:30:33.423Z</time></trkpt><trkpt lat="43.0430024" lon="12.6122872"><ele>206.0</ele><time>2026-04-05T13:30:34.424Z</time></trkpt><trkpt lat="43.0428759" lon="12.6125617"><ele>206.0</ele><time>2026-04-05T13:30:35.424Z</time></trkpt><trkpt lat="43.0427429" lon="12.6128488"><ele>206.5</ele><time>2026-04-05T13:30:36.424Z</time></trkpt><trkpt lat="43.0426051" lon="12.6131308"><ele>207.0</ele><time>2026-04-05T13:30:37.424Z</time></trkpt><trkpt lat="43.0424669" lon="12.6134073"><ele>205.5</ele><time>2026-04-05T13:30:38.424Z</time></trkpt><trkpt lat="43.0423272" lon="12.6136849"><ele>204.0</ele><time>2026-04-05T13:30:39.424Z</time></trkpt><trkpt lat="43.0421844" lon="12.6139694"><ele>204.0</ele><time>2026-04-05T13:30:40.423Z</time></trkpt><trkpt lat="43.0420612" lon="12.6142481"><ele>204.0</ele><time>2026-04-05T13:30:41.424Z</time></trkpt><trkpt lat="43.0419273" lon="12.6145326"><ele>204.5</ele><time>2026-04-05T13:30:42.424Z</time></trkpt><trkpt lat="43.0417951" lon="12.6148192"><ele>205.0</ele><time>2026-04-05T13:30:43.424Z</time></trkpt><trkpt lat="43.0416581" lon="12.6151024"><ele>205.5</ele><time>2026-04-05T13:30:44.424Z</time></trkpt><trkpt lat="43.0415237" lon="12.6153861"><ele>206.0</ele><time>2026-04-05T13:30:45.424Z</time></trkpt><trkpt lat="43.041386" lon="12.6156669"><ele>206.0</ele><time>2026-04-05T13:30:46.423Z</time></trkpt><trkpt lat="43.0412512" lon="12.6159531"><ele>206.0</ele><time>2026-04-05T13:30:47.424Z</time></trkpt><trkpt lat="43.0411197" lon="12.6162186"><ele>205.5</ele><time>2026-04-05T13:30:48.424Z</time></trkpt><trkpt lat="43.0409821" lon="12.6165086"><ele>205.0</ele><time>2026-04-05T13:30:49.424Z</time></trkpt><trkpt lat="43.0408499" lon="12.6167937"><ele>205.0</ele><time>2026-04-05T13:30:50.423Z</time></trkpt><trkpt lat="43.0407114" lon="12.6170695"><ele>205.0</ele><time>2026-04-05T13:30:51.423Z</time></trkpt><trkpt lat="43.0405793" lon="12.6173419"><ele>205.0</ele><time>2026-04-05T13:30:52.424Z</time></trkpt><trkpt lat="43.0404494" lon="12.6176163"><ele>205.0</ele><time>2026-04-05T13:30:53.423Z</time></trkpt><trkpt lat="43.0403211" lon="12.617892"><ele>206.0</ele><time>2026-04-05T13:30:54.424Z</time></trkpt><trkpt lat="43.040188" lon="12.6181772"><ele>207.0</ele><time>2026-04-05T13:30:55.424Z</time></trkpt><trkpt lat="43.0400595" lon="12.6184555"><ele>205.5</ele><time>2026-04-05T13:30:56.423Z</time></trkpt><trkpt lat="43.0399296" lon="12.6187358"><ele>204.0</ele><time>2026-04-05T13:30:57.423Z</time></trkpt><trkpt lat="43.0397936" lon="12.6190137"><ele>204.0</ele><time>2026-04-05T13:30:58.424Z</time></trkpt><trkpt lat="43.0396594" lon="12.6192833"><ele>204.0</ele><time>2026-04-05T13:30:59.423Z</time></trkpt><trkpt lat="43.0395257" lon="12.6195574"><ele>205.5</ele><time>2026-04-05T13:31:00.424Z</time></trkpt><trkpt lat="43.0393876" lon="12.6198406"><ele>207.0</ele><time>2026-04-05T13:31:01.423Z</time></trkpt><trkpt lat="43.039258" lon="12.6201263"><ele>206.5</ele><time>2026-04-05T13:31:02.424Z</time></trkpt><trkpt lat="43.0391302" lon="12.6204098"><ele>206.0</ele><time>2026-04-05T13:31:03.424Z</time></trkpt><trkpt lat="43.0389993" lon="12.6206909"><ele>206.0</ele><time>2026-04-05T13:31:04.424Z</time></trkpt><trkpt lat="43.0388629" lon="12.6209772"><ele>206.0</ele><time>2026-04-05T13:31:05.424Z</time></trkpt><trkpt lat="43.0387268" lon="12.6212556"><ele>206.5</ele><time>2026-04-05T13:31:06.424Z</time></trkpt><trkpt lat="43.0385901" lon="12.6215391"><ele>207.0</ele><time>2026-04-05T13:31:07.424Z</time></trkpt><trkpt lat="43.0384645" lon="12.6218142"><ele>207.0</ele><time>2026-04-05T13:31:08.424Z</time></trkpt><trkpt lat="43.0383291" lon="12.6220955"><ele>207.0</ele><time>2026-04-05T13:31:09.424Z</time></trkpt><trkpt lat="43.0381977" lon="12.6223716"><ele>207.0</ele><time>2026-04-05T13:31:10.424Z</time></trkpt><trkpt lat="43.0380721" lon="12.6226514"><ele>207.0</ele><time>2026-04-05T13:31:11.423Z</time></trkpt><trkpt lat="43.0379376" lon="12.6229376"><ele>208.0</ele><time>2026-04-05T13:31:12.424Z</time></trkpt><trkpt lat="43.0378022" lon="12.6232245"><ele>209.0</ele><time>2026-04-05T13:31:13.423Z</time></trkpt><trkpt lat="43.0376718" lon="12.6235043"><ele>209.5</ele><time>2026-04-05T13:31:14.424Z</time></trkpt><trkpt lat="43.0375435" lon="12.6237882"><ele>210.0</ele><time>2026-04-05T13:31:15.424Z</time></trkpt><trkpt lat="43.0374108" lon="12.6240675"><ele>209.0</ele><time>2026-04-05T13:31:16.424Z</time></trkpt><trkpt lat="43.0372736" lon="12.6243489"><ele>208.0</ele><time>2026-04-05T13:31:17.423Z</time></trkpt><trkpt lat="43.0371421" lon="12.624632"><ele>208.0</ele><time>2026-04-05T13:31:18.423Z</time></trkpt><trkpt lat="43.0370027" lon="12.6249183"><ele>208.0</ele><time>2026-04-05T13:31:19.424Z</time></trkpt><trkpt lat="43.0368656" lon="12.6251954"><ele>207.5</ele><time>2026-04-05T13:31:20.424Z</time></trkpt><trkpt lat="43.0367294" lon="12.6254798"><ele>207.0</ele><time>2026-04-05T13:31:21.424Z</time></trkpt><trkpt lat="43.0365904" lon="12.6257644"><ele>207.0</ele><time>2026-04-05T13:31:22.424Z</time></trkpt><trkpt lat="43.0364566" lon="12.6260441"><ele>207.0</ele><time>2026-04-05T13:31:23.424Z</time></trkpt><trkpt lat="43.0363249" lon="12.6263259"><ele>208.5</ele><time>2026-04-05T13:31:24.424Z</time></trkpt><trkpt lat="43.0361899" lon="12.6266113"><ele>210.0</ele><time>2026-04-05T13:31:25.424Z</time></trkpt><trkpt lat="43.0360612" lon="12.6269053"><ele>210.0</ele><time>2026-04-05T13:31:26.424Z</time></trkpt><trkpt lat="43.035923" lon="12.6271901"><ele>210.0</ele><time>2026-04-05T13:31:27.424Z</time></trkpt><trkpt lat="43.0357893" lon="12.6274769"><ele>209.0</ele><time>2026-04-05T13:31:28.424Z</time></trkpt><trkpt lat="43.0356526" lon="12.6277495"><ele>208.0</ele><time>2026-04-05T13:31:29.424Z</time></trkpt><trkpt lat="43.0355009" lon="12.6280309"><ele>208.0</ele><time>2026-04-05T13:31:30.424Z</time></trkpt><trkpt lat="43.0353517" lon="12.6282978"><ele>208.0</ele><time>2026-04-05T13:31:31.424Z</time></trkpt><trkpt lat="43.0352013" lon="12.6285498"><ele>208.0</ele><time>2026-04-05T13:31:32.423Z</time></trkpt><trkpt lat="43.0350369" lon="12.628801"><ele>208.0</ele><time>2026-04-05T13:31:33.424Z</time></trkpt><trkpt lat="43.03486" lon="12.6290252"><ele>208.0</ele><time>2026-04-05T13:31:34.424Z</time></trkpt><trkpt lat="43.03468" lon="12.6292551"><ele>208.0</ele><time>2026-04-05T13:31:35.424Z</time></trkpt><trkpt lat="43.034495" lon="12.6294692"><ele>207.0</ele><time>2026-04-05T13:31:36.424Z</time></trkpt><trkpt lat="43.0343012" lon="12.6296581"><ele>206.0</ele><time>2026-04-05T13:31:37.423Z</time></trkpt><trkpt lat="43.0341076" lon="12.6298489"><ele>206.0</ele><time>2026-04-05T13:31:38.423Z</time></trkpt><trkpt lat="43.033904" lon="12.6300343"><ele>206.0</ele><time>2026-04-05T13:31:39.424Z</time></trkpt><trkpt lat="43.0337046" lon="12.630217"><ele>207.5</ele><time>2026-04-05T13:31:40.423Z</time></trkpt><trkpt lat="43.0335061" lon="12.6303972"><ele>209.0</ele><time>2026-04-05T13:31:41.424Z</time></trkpt><trkpt lat="43.0333163" lon="12.630569"><ele>206.5</ele><time>2026-04-05T13:31:42.424Z</time></trkpt><trkpt lat="43.0331242" lon="12.6307434"><ele>204.0</ele><time>2026-04-05T13:31:43.424Z</time></trkpt><trkpt lat="43.0329257" lon="12.6309233"><ele>204.0</ele><time>2026-04-05T13:31:44.424Z</time></trkpt><trkpt lat="43.0327279" lon="12.6311025"><ele>204.0</ele><time>2026-04-05T13:31:45.424Z</time></trkpt><trkpt lat="43.0325302" lon="12.6312804"><ele>203.5</ele><time>2026-04-05T13:31:46.423Z</time></trkpt><trkpt lat="43.0323398" lon="12.6314644"><ele>203.0</ele><time>2026-04-05T13:31:47.423Z</time></trkpt><trkpt lat="43.0321387" lon="12.6316543"><ele>203.0</ele><time>2026-04-05T13:31:48.424Z</time></trkpt><trkpt lat="43.031935" lon="12.6318334"><ele>203.0</ele><time>2026-04-05T13:31:49.424Z</time></trkpt><trkpt lat="43.0317369" lon="12.6320095"><ele>203.5</ele><time>2026-04-05T13:31:50.424Z</time></trkpt><trkpt lat="43.0315308" lon="12.6322005"><ele>204.0</ele><time>2026-04-05T13:31:51.424Z</time></trkpt><trkpt lat="43.0313234" lon="12.6323895"><ele>204.0</ele><time>2026-04-05T13:31:52.424Z</time></trkpt><trkpt lat="43.0311154" lon="12.6325868"><ele>204.0</ele><time>2026-04-05T13:31:53.424Z</time></trkpt><trkpt lat="43.030907" lon="12.6327759"><ele>203.5</ele><time>2026-04-05T13:31:54.424Z</time></trkpt><trkpt lat="43.0307018" lon="12.6329659"><ele>203.0</ele><time>2026-04-05T13:31:55.424Z</time></trkpt><trkpt lat="43.0304966" lon="12.6331528"><ele>203.0</ele><time>2026-04-05T13:31:56.424Z</time></trkpt><trkpt lat="43.0302875" lon="12.6333465"><ele>203.0</ele><time>2026-04-05T13:31:57.424Z</time></trkpt><trkpt lat="43.0300806" lon="12.6335363"><ele>203.0</ele><time>2026-04-05T13:31:58.424Z</time></trkpt><trkpt lat="43.02988" lon="12.6337199"><ele>203.0</ele><time>2026-04-05T13:31:59.424Z</time></trkpt><trkpt lat="43.0296704" lon="12.6339077"><ele>203.0</ele><time>2026-04-05T13:32:00.423Z</time></trkpt><trkpt lat="43.0294696" lon="12.6340877"><ele>203.0</ele><time>2026-04-05T13:32:01.424Z</time></trkpt><trkpt lat="43.0292683" lon="12.6342751"><ele>202.0</ele><time>2026-04-05T13:32:02.424Z</time></trkpt><trkpt lat="43.0290651" lon="12.6344752"><ele>201.0</ele><time>2026-04-05T13:32:03.423Z</time></trkpt><trkpt lat="43.0288576" lon="12.6346603"><ele>201.0</ele><time>2026-04-05T13:32:04.423Z</time></trkpt><trkpt lat="43.02865" lon="12.6348587"><ele>201.0</ele><time>2026-04-05T13:32:05.423Z</time></trkpt><trkpt lat="43.0284485" lon="12.6350512"><ele>200.0</ele><time>2026-04-05T13:32:06.423Z</time></trkpt><trkpt lat="43.0282531" lon="12.6352276"><ele>199.0</ele><time>2026-04-05T13:32:07.424Z</time></trkpt><trkpt lat="43.0280539" lon="12.6354114"><ele>199.0</ele><time>2026-04-05T13:32:08.423Z</time></trkpt><trkpt lat="43.027847" lon="12.6355956"><ele>199.0</ele><time>2026-04-05T13:32:09.424Z</time></trkpt><trkpt lat="43.0276513" lon="12.6357873"><ele>199.5</ele><time>2026-04-05T13:32:10.424Z</time></trkpt><trkpt lat="43.0274513" lon="12.6359797"><ele>200.0</ele><time>2026-04-05T13:32:11.424Z</time></trkpt><trkpt lat="43.0272515" lon="12.6361696"><ele>200.0</ele><time>2026-04-05T13:32:12.424Z</time></trkpt><trkpt lat="43.0270516" lon="12.6363461"><ele>200.0</ele><time>2026-04-05T13:32:13.423Z</time></trkpt><trkpt lat="43.0268536" lon="12.6365311"><ele>200.0</ele><time>2026-04-05T13:32:14.424Z</time></trkpt><trkpt lat="43.026663" lon="12.6367071"><ele>200.0</ele><time>2026-04-05T13:32:15.424Z</time></trkpt><trkpt lat="43.0264665" lon="12.6368941"><ele>198.5</ele><time>2026-04-05T13:32:16.424Z</time></trkpt><trkpt lat="43.0262681" lon="12.6370603"><ele>197.0</ele><time>2026-04-05T13:32:17.423Z</time></trkpt><trkpt lat="43.0260791" lon="12.6372265"><ele>197.0</ele><time>2026-04-05T13:32:18.424Z</time></trkpt><trkpt lat="43.0258853" lon="12.6374019"><ele>197.0</ele><time>2026-04-05T13:32:19.424Z</time></trkpt><trkpt lat="43.0256891" lon="12.6375853"><ele>196.0</ele><time>2026-04-05T13:32:20.424Z</time></trkpt><trkpt lat="43.0254876" lon="12.637776"><ele>195.0</ele><time>2026-04-05T13:32:21.424Z</time></trkpt><trkpt lat="43.0252905" lon="12.6379594"><ele>196.5</ele><time>2026-04-05T13:32:22.424Z</time></trkpt><trkpt lat="43.0250969" lon="12.638144"><ele>198.0</ele><time>2026-04-05T13:32:23.424Z</time></trkpt><trkpt lat="43.0249001" lon="12.6383176"><ele>198.0</ele><time>2026-04-05T13:32:24.424Z</time></trkpt><trkpt lat="43.0247082" lon="12.6384873"><ele>198.0</ele><time>2026-04-05T13:32:25.424Z</time></trkpt><trkpt lat="43.024516" lon="12.6386646"><ele>198.66666666666669</ele><time>2026-04-05T13:32:26.423Z</time></trkpt><trkpt lat="43.024332" lon="12.6388247"><ele>199.33333333333334</ele><time>2026-04-05T13:32:27.424Z</time></trkpt><trkpt lat="43.0241403" lon="12.6389946"><ele>200.0</ele><time>2026-04-05T13:32:28.424Z</time></trkpt><trkpt lat="43.0239502" lon="12.6391607"><ele>200.0</ele><time>2026-04-05T13:32:29.423Z</time></trkpt><trkpt lat="43.0237667" lon="12.6393325"><ele>200.0</ele><time>2026-04-05T13:32:30.424Z</time></trkpt><trkpt lat="43.023583" lon="12.6395044"><ele>200.0</ele><time>2026-04-05T13:32:31.424Z</time></trkpt><trkpt lat="43.0234018" lon="12.6396715"><ele>201.0</ele><time>2026-04-05T13:32:32.424Z</time></trkpt><trkpt lat="43.0232174" lon="12.6398411"><ele>202.0</ele><time>2026-04-05T13:32:33.424Z</time></trkpt><trkpt lat="43.0230447" lon="12.640019"><ele>203.0</ele><time>2026-04-05T13:32:34.423Z</time></trkpt><trkpt lat="43.0228572" lon="12.6401881"><ele>203.33333333333334</ele><time>2026-04-05T13:32:35.423Z</time></trkpt><trkpt lat="43.0226725" lon="12.6403533"><ele>203.66666666666669</ele><time>2026-04-05T13:32:36.424Z</time></trkpt><trkpt lat="43.0224857" lon="12.6405302"><ele>204.0</ele><time>2026-04-05T13:32:37.424Z</time></trkpt><trkpt lat="43.0222986" lon="12.6407081"><ele>204.0</ele><time>2026-04-05T13:32:38.424Z</time></trkpt><trkpt lat="43.0221063" lon="12.6408922"><ele>204.0</ele><time>2026-04-05T13:32:39.424Z</time></trkpt><trkpt lat="43.021917" lon="12.6410664"><ele>205.0</ele><time>2026-04-05T13:32:40.424Z</time></trkpt><trkpt lat="43.0217317" lon="12.6412486"><ele>206.0</ele><time>2026-04-05T13:32:41.424Z</time></trkpt><trkpt lat="43.0215558" lon="12.6414276"><ele>207.0</ele><time>2026-04-05T13:32:42.423Z</time></trkpt><trkpt lat="43.021379" lon="12.6416246"><ele>208.0</ele><time>2026-04-05T13:32:43.424Z</time></trkpt><trkpt lat="43.021206" lon="12.6418268"><ele>209.0</ele><time>2026-04-05T13:32:44.424Z</time></trkpt><trkpt lat="43.0210371" lon="12.6420346"><ele>209.5</ele><time>2026-04-05T13:32:45.423Z</time></trkpt><trkpt lat="43.0208702" lon="12.642249"><ele>210.0</ele><time>2026-04-05T13:32:46.424Z</time></trkpt><trkpt lat="43.0207102" lon="12.6424817"><ele>210.0</ele><time>2026-04-05T13:32:47.424Z</time></trkpt><trkpt lat="43.0205459" lon="12.6426906"><ele>210.0</ele><time>2026-04-05T13:32:48.424Z</time></trkpt><trkpt lat="43.0203822" lon="12.6429166"><ele>210.5</ele><time>2026-04-05T13:32:49.424Z</time></trkpt><trkpt lat="43.0202177" lon="12.6431341"><ele>211.0</ele><time>2026-04-05T13:32:50.423Z</time></trkpt><trkpt lat="43.0200514" lon="12.6433521"><ele>210.0</ele><time>2026-04-05T13:32:51.424Z</time></trkpt><trkpt lat="43.0198924" lon="12.6435621"><ele>209.0</ele><time>2026-04-05T13:32:52.423Z</time></trkpt><trkpt lat="43.0197334" lon="12.6437912"><ele>209.0</ele><time>2026-04-05T13:32:53.424Z</time></trkpt><trkpt lat="43.0195654" lon="12.6440173"><ele>209.0</ele><time>2026-04-05T13:32:54.424Z</time></trkpt><trkpt lat="43.0194069" lon="12.6442409"><ele>209.0</ele><time>2026-04-05T13:32:55.424Z</time></trkpt><trkpt lat="43.0192429" lon="12.6444621"><ele>209.0</ele><time>2026-04-05T13:32:56.423Z</time></trkpt><trkpt lat="43.01908" lon="12.6446862"><ele>209.0</ele><time>2026-04-05T13:32:57.423Z</time></trkpt><trkpt lat="43.018912" lon="12.6449123"><ele>209.0</ele><time>2026-04-05T13:32:58.424Z</time></trkpt><trkpt lat="43.0187482" lon="12.6451423"><ele>209.5</ele><time>2026-04-05T13:32:59.424Z</time></trkpt><trkpt lat="43.0185884" lon="12.6453667"><ele>210.0</ele><time>2026-04-05T13:33:00.423Z</time></trkpt><trkpt lat="43.0184199" lon="12.6455954"><ele>209.0</ele><time>2026-04-05T13:33:01.424Z</time></trkpt><trkpt lat="43.0182525" lon="12.6458271"><ele>208.0</ele><time>2026-04-05T13:33:02.424Z</time></trkpt><trkpt lat="43.0180834" lon="12.6460562"><ele>208.5</ele><time>2026-04-05T13:33:03.424Z</time></trkpt><trkpt lat="43.0179166" lon="12.6462841"><ele>209.0</ele><time>2026-04-05T13:33:04.424Z</time></trkpt><trkpt lat="43.0177474" lon="12.6465105"><ele>209.0</ele><time>2026-04-05T13:33:05.424Z</time></trkpt><trkpt lat="43.0175709" lon="12.64674"><ele>209.0</ele><time>2026-04-05T13:33:06.424Z</time></trkpt><trkpt lat="43.0174054" lon="12.6469833"><ele>208.0</ele><time>2026-04-05T13:33:07.424Z</time></trkpt><trkpt lat="43.0172399" lon="12.6472031"><ele>207.0</ele><time>2026-04-05T13:33:08.423Z</time></trkpt><trkpt lat="43.0170794" lon="12.647438"><ele>207.0</ele><time>2026-04-05T13:33:09.424Z</time></trkpt><trkpt lat="43.016916" lon="12.6476772"><ele>207.0</ele><time>2026-04-05T13:33:10.424Z</time></trkpt><trkpt lat="43.0167489" lon="12.6479176"><ele>207.0</ele><time>2026-04-05T13:33:11.423Z</time></trkpt><trkpt lat="43.0165852" lon="12.6481553"><ele>207.0</ele><time>2026-04-05T13:33:12.424Z</time></trkpt><trkpt lat="43.0164097" lon="12.648386"><ele>207.0</ele><time>2026-04-05T13:33:13.424Z</time></trkpt><trkpt lat="43.0162371" lon="12.6486172"><ele>207.0</ele><time>2026-04-05T13:33:14.424Z</time></trkpt><trkpt lat="43.016069" lon="12.6488521"><ele>207.0</ele><time>2026-04-05T13:33:15.424Z</time></trkpt><trkpt lat="43.0158996" lon="12.6490758"><ele>207.0</ele><time>2026-04-05T13:33:16.424Z</time></trkpt><trkpt lat="43.0157211" lon="12.6493112"><ele>205.5</ele><time>2026-04-05T13:33:17.424Z</time></trkpt><trkpt lat="43.0155529" lon="12.6495526"><ele>204.0</ele><time>2026-04-05T13:33:18.423Z</time></trkpt><trkpt lat="43.0153927" lon="12.6497868"><ele>204.0</ele><time>2026-04-05T13:33:19.424Z</time></trkpt><trkpt lat="43.0152288" lon="12.6500112"><ele>204.0</ele><time>2026-04-05T13:33:20.424Z</time></trkpt><trkpt lat="43.0150638" lon="12.650238"><ele>203.0</ele><time>2026-04-05T13:33:21.423Z</time></trkpt><trkpt lat="43.0148941" lon="12.6504617"><ele>202.0</ele><time>2026-04-05T13:33:22.424Z</time></trkpt><trkpt lat="43.0147289" lon="12.6506943"><ele>202.0</ele><time>2026-04-05T13:33:23.424Z</time></trkpt><trkpt lat="43.0145625" lon="12.6509266"><ele>202.0</ele><time>2026-04-05T13:33:24.424Z</time></trkpt><trkpt lat="43.0143941" lon="12.6511416"><ele>202.5</ele><time>2026-04-05T13:33:25.424Z</time></trkpt><trkpt lat="43.0142166" lon="12.6513552"><ele>203.0</ele><time>2026-04-05T13:33:26.424Z</time></trkpt><trkpt lat="43.0140379" lon="12.6515655"><ele>202.0</ele><time>2026-04-05T13:33:27.424Z</time></trkpt><trkpt lat="43.0138582" lon="12.6517633"><ele>201.0</ele><time>2026-04-05T13:33:28.424Z</time></trkpt><trkpt lat="43.013672" lon="12.6519644"><ele>201.0</ele><time>2026-04-05T13:33:29.423Z</time></trkpt><trkpt lat="43.0134855" lon="12.6521602"><ele>201.0</ele><time>2026-04-05T13:33:30.423Z</time></trkpt><trkpt lat="43.0133009" lon="12.6523634"><ele>200.5</ele><time>2026-04-05T13:33:31.423Z</time></trkpt><trkpt lat="43.0131093" lon="12.6525533"><ele>200.0</ele><time>2026-04-05T13:33:32.423Z</time></trkpt><trkpt lat="43.0129205" lon="12.6527411"><ele>200.5</ele><time>2026-04-05T13:33:33.423Z</time></trkpt><trkpt lat="43.0127297" lon="12.6529217"><ele>201.0</ele><time>2026-04-05T13:33:34.424Z</time></trkpt><trkpt lat="43.0125358" lon="12.6530935"><ele>201.5</ele><time>2026-04-05T13:33:35.424Z</time></trkpt><trkpt lat="43.0123489" lon="12.6532693"><ele>202.0</ele><time>2026-04-05T13:33:36.424Z</time></trkpt><trkpt lat="43.0121556" lon="12.6534429"><ele>202.0</ele><time>2026-04-05T13:33:37.423Z</time></trkpt><trkpt lat="43.0119632" lon="12.6536119"><ele>202.0</ele><time>2026-04-05T13:33:38.423Z</time></trkpt><trkpt lat="43.0117688" lon="12.6537807"><ele>201.66666666666666</ele><time>2026-04-05T13:33:39.424Z</time></trkpt><trkpt lat="43.0115744" lon="12.6539468"><ele>201.33333333333331</ele><time>2026-04-05T13:33:40.423Z</time></trkpt><trkpt lat="43.0113906" lon="12.6541123"><ele>201.0</ele><time>2026-04-05T13:33:41.424Z</time></trkpt><trkpt lat="43.0112035" lon="12.654283"><ele>201.0</ele><time>2026-04-05T13:33:42.424Z</time></trkpt><trkpt lat="43.0110154" lon="12.6544485"><ele>201.0</ele><time>2026-04-05T13:33:43.424Z</time></trkpt><trkpt lat="43.0108245" lon="12.6546169"><ele>201.0</ele><time>2026-04-05T13:33:44.424Z</time></trkpt><trkpt lat="43.0106345" lon="12.6547854"><ele>201.0</ele><time>2026-04-05T13:33:45.423Z</time></trkpt><trkpt lat="43.0104468" lon="12.6549497"><ele>201.0</ele><time>2026-04-05T13:33:46.424Z</time></trkpt><trkpt lat="43.0102565" lon="12.6551136"><ele>201.0</ele><time>2026-04-05T13:33:47.424Z</time></trkpt><trkpt lat="43.0100676" lon="12.6552797"><ele>201.0</ele><time>2026-04-05T13:33:48.424Z</time></trkpt><trkpt lat="43.0098784" lon="12.6554529"><ele>201.33333333333331</ele><time>2026-04-05T13:33:49.423Z</time></trkpt><trkpt lat="43.0096981" lon="12.6556339"><ele>201.66666666666666</ele><time>2026-04-05T13:33:50.424Z</time></trkpt><trkpt lat="43.0095109" lon="12.6557974"><ele>202.0</ele><time>2026-04-05T13:33:51.424Z</time></trkpt><trkpt lat="43.0093272" lon="12.6559627"><ele>202.33333333333331</ele><time>2026-04-05T13:33:52.423Z</time></trkpt><trkpt lat="43.0091376" lon="12.656126"><ele>202.66666666666669</ele><time>2026-04-05T13:33:53.424Z</time></trkpt><trkpt lat="43.0089536" lon="12.6562932"><ele>203.0</ele><time>2026-04-05T13:33:54.423Z</time></trkpt><trkpt lat="43.0087674" lon="12.6564566"><ele>203.0</ele><time>2026-04-05T13:33:55.424Z</time></trkpt><trkpt lat="43.0085822" lon="12.656623"><ele>203.0</ele><time>2026-04-05T13:33:56.424Z</time></trkpt><trkpt lat="43.008404" lon="12.6567858"><ele>203.0</ele><time>2026-04-05T13:33:57.424Z</time></trkpt><trkpt lat="43.0082226" lon="12.6569339"><ele>203.0</ele><time>2026-04-05T13:33:58.424Z</time></trkpt><trkpt lat="43.0080312" lon="12.6571168"><ele>203.0</ele><time>2026-04-05T13:33:59.424Z</time></trkpt><trkpt lat="43.0078421" lon="12.6572926"><ele>203.0</ele><time>2026-04-05T13:34:00.424Z</time></trkpt><trkpt lat="43.0076657" lon="12.6574522"><ele>203.0</ele><time>2026-04-05T13:34:01.424Z</time></trkpt><trkpt lat="43.0074696" lon="12.6576271"><ele>203.0</ele><time>2026-04-05T13:34:02.424Z</time></trkpt><trkpt lat="43.0072757" lon="12.6577951"><ele>205.0</ele><time>2026-04-05T13:34:03.424Z</time></trkpt><trkpt lat="43.0070855" lon="12.6579638"><ele>207.0</ele><time>2026-04-05T13:34:04.423Z</time></trkpt><trkpt lat="43.0068939" lon="12.65813"><ele>207.0</ele><time>2026-04-05T13:34:05.423Z</time></trkpt><trkpt lat="43.0067051" lon="12.6583052"><ele>207.0</ele><time>2026-04-05T13:34:06.423Z</time></trkpt><trkpt lat="43.006515" lon="12.6584624"><ele>207.33333333333331</ele><time>2026-04-05T13:34:07.424Z</time></trkpt><trkpt lat="43.0063301" lon="12.6586215"><ele>207.66666666666666</ele><time>2026-04-05T13:34:08.423Z</time></trkpt><trkpt lat="43.0061353" lon="12.6587886"><ele>208.0</ele><time>2026-04-05T13:34:09.424Z</time></trkpt><trkpt lat="43.0059395" lon="12.6589496"><ele>207.0</ele><time>2026-04-05T13:34:10.424Z</time></trkpt><trkpt lat="43.0057399" lon="12.6590987"><ele>206.0</ele><time>2026-04-05T13:34:11.424Z</time></trkpt><trkpt lat="43.0055355" lon="12.6592459"><ele>206.0</ele><time>2026-04-05T13:34:12.424Z</time></trkpt><trkpt lat="43.0053311" lon="12.6593913"><ele>206.0</ele><time>2026-04-05T13:34:13.424Z</time></trkpt><trkpt lat="43.0051308" lon="12.6595218"><ele>205.0</ele><time>2026-04-05T13:34:14.423Z</time></trkpt><trkpt lat="43.0049206" lon="12.6596555"><ele>204.0</ele><time>2026-04-05T13:34:15.423Z</time></trkpt><trkpt lat="43.0047081" lon="12.6597819"><ele>204.0</ele><time>2026-04-05T13:34:16.424Z</time></trkpt><trkpt lat="43.0044946" lon="12.6598952"><ele>204.0</ele><time>2026-04-05T13:34:17.424Z</time></trkpt><trkpt lat="43.004279" lon="12.6600021"><ele>202.5</ele><time>2026-04-05T13:34:18.423Z</time></trkpt><trkpt lat="43.0040643" lon="12.6601121"><ele>201.0</ele><time>2026-04-05T13:34:19.424Z</time></trkpt><trkpt lat="43.0038492" lon="12.6602051"><ele>204.5</ele><time>2026-04-05T13:34:20.424Z</time></trkpt><trkpt lat="43.0036299" lon="12.6602912"><ele>208.0</ele><time>2026-04-05T13:34:21.424Z</time></trkpt><trkpt lat="43.0034111" lon="12.6603776"><ele>206.5</ele><time>2026-04-05T13:34:22.423Z</time></trkpt><trkpt lat="43.0031887" lon="12.6604607"><ele>205.0</ele><time>2026-04-05T13:34:23.424Z</time></trkpt><trkpt lat="43.002967" lon="12.660533"><ele>205.0</ele><time>2026-04-05T13:34:24.424Z</time></trkpt><trkpt lat="43.0027416" lon="12.6605956"><ele>205.0</ele><time>2026-04-05T13:34:25.423Z</time></trkpt><trkpt lat="43.0025131" lon="12.6606493"><ele>205.0</ele><time>2026-04-05T13:34:26.424Z</time></trkpt><trkpt lat="43.0022912" lon="12.6607057"><ele>205.0</ele><time>2026-04-05T13:34:27.424Z</time></trkpt><trkpt lat="43.0020632" lon="12.6607544"><ele>205.0</ele><time>2026-04-05T13:34:28.424Z</time></trkpt><trkpt lat="43.0018415" lon="12.6608033"><ele>205.0</ele><time>2026-04-05T13:34:29.423Z</time></trkpt><trkpt lat="43.0016191" lon="12.6608446"><ele>205.0</ele><time>2026-04-05T13:34:30.423Z</time></trkpt><trkpt lat="43.0013968" lon="12.6608976"><ele>206.5</ele><time>2026-04-05T13:34:31.424Z</time></trkpt><trkpt lat="43.0011751" lon="12.6609421"><ele>208.0</ele><time>2026-04-05T13:34:32.424Z</time></trkpt><trkpt lat="43.0009524" lon="12.6609924"><ele>208.33333333333331</ele><time>2026-04-05T13:34:33.424Z</time></trkpt><trkpt lat="43.0007335" lon="12.6610408"><ele>208.66666666666669</ele><time>2026-04-05T13:34:34.424Z</time></trkpt><trkpt lat="43.0005104" lon="12.6610928"><ele>209.0</ele><time>2026-04-05T13:34:35.424Z</time></trkpt><trkpt lat="43.0002901" lon="12.6611473"><ele>209.0</ele><time>2026-04-05T13:34:36.424Z</time></trkpt><trkpt lat="43.0000665" lon="12.6612025"><ele>209.0</ele><time>2026-04-05T13:34:37.423Z</time></trkpt><trkpt lat="42.9998475" lon="12.661256"><ele>209.0</ele><time>2026-04-05T13:34:38.423Z</time></trkpt><trkpt lat="42.9996231" lon="12.6613054"><ele>209.0</ele><time>2026-04-05T13:34:39.424Z</time></trkpt><trkpt lat="42.9994044" lon="12.6613573"><ele>209.0</ele><time>2026-04-05T13:34:40.424Z</time></trkpt><trkpt lat="42.999187" lon="12.6614051"><ele>209.0</ele><time>2026-04-05T13:34:41.424Z</time></trkpt><trkpt lat="42.9989664" lon="12.6614591"><ele>209.0</ele><time>2026-04-05T13:34:42.423Z</time></trkpt><trkpt lat="42.998752" lon="12.661507"><ele>209.0</ele><time>2026-04-05T13:34:43.424Z</time></trkpt><trkpt lat="42.9985335" lon="12.6615602"><ele>209.33333333333334</ele><time>2026-04-05T13:34:44.424Z</time></trkpt><trkpt lat="42.9983103" lon="12.6616085"><ele>209.66666666666669</ele><time>2026-04-05T13:34:45.424Z</time></trkpt><trkpt lat="42.998091" lon="12.661655"><ele>210.0</ele><time>2026-04-05T13:34:46.424Z</time></trkpt><trkpt lat="42.9978678" lon="12.661707"><ele>210.0</ele><time>2026-04-05T13:34:47.424Z</time></trkpt><trkpt lat="42.9976476" lon="12.661764"><ele>210.0</ele><time>2026-04-05T13:34:48.423Z</time></trkpt><trkpt lat="42.9974302" lon="12.6618183"><ele>210.0</ele><time>2026-04-05T13:34:49.424Z</time></trkpt><trkpt lat="42.997212" lon="12.661868"><ele>210.0</ele><time>2026-04-05T13:34:50.424Z</time></trkpt><trkpt lat="42.9969891" lon="12.661917"><ele>210.0</ele><time>2026-04-05T13:34:51.424Z</time></trkpt><trkpt lat="42.9967688" lon="12.6619718"><ele>209.0</ele><time>2026-04-05T13:34:52.424Z</time></trkpt><trkpt lat="42.9965485" lon="12.6620227"><ele>208.0</ele><time>2026-04-05T13:34:53.424Z</time></trkpt><trkpt lat="42.9963264" lon="12.6620901"><ele>208.0</ele><time>2026-04-05T13:34:54.423Z</time></trkpt><trkpt lat="42.9961086" lon="12.6621631"><ele>208.0</ele><time>2026-04-05T13:34:55.424Z</time></trkpt><trkpt lat="42.9958905" lon="12.6622439"><ele>208.33333333333331</ele><time>2026-04-05T13:34:56.424Z</time></trkpt><trkpt lat="42.9956747" lon="12.6623326"><ele>208.66666666666669</ele><time>2026-04-05T13:34:57.424Z</time></trkpt><trkpt lat="42.9954694" lon="12.6624382"><ele>209.0</ele><time>2026-04-05T13:34:58.424Z</time></trkpt><trkpt lat="42.9952626" lon="12.6625385"><ele>209.0</ele><time>2026-04-05T13:34:59.423Z</time></trkpt><trkpt lat="42.9950522" lon="12.6626442"><ele>209.0</ele><time>2026-04-05T13:35:00.423Z</time></trkpt><trkpt lat="42.9948403" lon="12.6627582"><ele>209.0</ele><time>2026-04-05T13:35:01.424Z</time></trkpt><trkpt lat="42.9946325" lon="12.6628785"><ele>209.0</ele><time>2026-04-05T13:35:02.423Z</time></trkpt><trkpt lat="42.9944201" lon="12.6630008"><ele>209.0</ele><time>2026-04-05T13:35:03.423Z</time></trkpt><trkpt lat="42.9942122" lon="12.6631212"><ele>209.0</ele><time>2026-04-05T13:35:04.424Z</time></trkpt><trkpt lat="42.9939976" lon="12.6632443"><ele>209.0</ele><time>2026-04-05T13:35:05.424Z</time></trkpt><trkpt lat="42.9937799" lon="12.6633692"><ele>209.0</ele><time>2026-04-05T13:35:06.424Z</time></trkpt><trkpt lat="42.9935645" lon="12.6634938"><ele>209.5</ele><time>2026-04-05T13:35:07.424Z</time></trkpt><trkpt lat="42.9933567" lon="12.663623"><ele>210.0</ele><time>2026-04-05T13:35:08.424Z</time></trkpt><trkpt lat="42.9931465" lon="12.6637385"><ele>210.0</ele><time>2026-04-05T13:35:09.424Z</time></trkpt><trkpt lat="42.9929404" lon="12.663868"><ele>210.0</ele><time>2026-04-05T13:35:10.424Z</time></trkpt><trkpt lat="42.9927225" lon="12.663986"><ele>210.5</ele><time>2026-04-05T13:35:11.423Z</time></trkpt><trkpt lat="42.9925053" lon="12.6641016"><ele>211.0</ele><time>2026-04-05T13:35:12.423Z</time></trkpt><trkpt lat="42.9922893" lon="12.6642267"><ele>211.0</ele><time>2026-04-05T13:35:13.424Z</time></trkpt><trkpt lat="42.9920758" lon="12.6643555"><ele>211.0</ele><time>2026-04-05T13:35:14.424Z</time></trkpt><trkpt lat="42.9918628" lon="12.6644739"><ele>212.0</ele><time>2026-04-05T13:35:15.424Z</time></trkpt><trkpt lat="42.9916503" lon="12.6646005"><ele>213.0</ele><time>2026-04-05T13:35:16.424Z</time></trkpt><trkpt lat="42.9914306" lon="12.6647184"><ele>213.0</ele><time>2026-04-05T13:35:17.423Z</time></trkpt><trkpt lat="42.9912227" lon="12.6648418"><ele>213.0</ele><time>2026-04-05T13:35:18.423Z</time></trkpt><trkpt lat="42.9910144" lon="12.6649568"><ele>213.33333333333331</ele><time>2026-04-05T13:35:19.423Z</time></trkpt><trkpt lat="42.9908077" lon="12.6650768"><ele>213.66666666666666</ele><time>2026-04-05T13:35:20.424Z</time></trkpt><trkpt lat="42.9906044" lon="12.6651961"><ele>214.0</ele><time>2026-04-05T13:35:21.423Z</time></trkpt><trkpt lat="42.9903945" lon="12.6653192"><ele>214.33333333333331</ele><time>2026-04-05T13:35:22.424Z</time></trkpt><trkpt lat="42.9901898" lon="12.6654446"><ele>214.66666666666669</ele><time>2026-04-05T13:35:23.423Z</time></trkpt><trkpt lat="42.989991" lon="12.6655525"><ele>215.0</ele><time>2026-04-05T13:35:24.424Z</time></trkpt><trkpt lat="42.9897966" lon="12.6656683"><ele>215.0</ele><time>2026-04-05T13:35:25.423Z</time></trkpt><trkpt lat="42.9895902" lon="12.6657867"><ele>215.0</ele><time>2026-04-05T13:35:26.423Z</time></trkpt><trkpt lat="42.9893967" lon="12.6658947"><ele>215.0</ele><time>2026-04-05T13:35:27.423Z</time></trkpt><trkpt lat="42.9891925" lon="12.666007"><ele>215.0</ele><time>2026-04-05T13:35:28.424Z</time></trkpt><trkpt lat="42.9889892" lon="12.6661317"><ele>215.0</ele><time>2026-04-05T13:35:29.424Z</time></trkpt><trkpt lat="42.9887893" lon="12.6662574"><ele>215.0</ele><time>2026-04-05T13:35:30.423Z</time></trkpt><trkpt lat="42.9885818" lon="12.6663821"><ele>215.0</ele><time>2026-04-05T13:35:31.423Z</time></trkpt><trkpt lat="42.9883755" lon="12.6665036"><ele>215.0</ele><time>2026-04-05T13:35:32.424Z</time></trkpt><trkpt lat="42.9881766" lon="12.6666319"><ele>215.0</ele><time>2026-04-05T13:35:33.424Z</time></trkpt><trkpt lat="42.9879793" lon="12.6667733"><ele>215.66666666666669</ele><time>2026-04-05T13:35:34.424Z</time></trkpt><trkpt lat="42.9877853" lon="12.6669176"><ele>216.33333333333331</ele><time>2026-04-05T13:35:35.424Z</time></trkpt><trkpt lat="42.9875947" lon="12.6670728"><ele>217.0</ele><time>2026-04-05T13:35:36.424Z</time></trkpt><trkpt lat="42.9874099" lon="12.6672439"><ele>218.33333333333331</ele><time>2026-04-05T13:35:37.424Z</time></trkpt><trkpt lat="42.9872408" lon="12.6674325"><ele>219.66666666666669</ele><time>2026-04-05T13:35:38.424Z</time></trkpt><trkpt lat="42.9870736" lon="12.6676332"><ele>221.0</ele><time>2026-04-05T13:35:39.423Z</time></trkpt><trkpt lat="42.9869118" lon="12.667833"><ele>221.0</ele><time>2026-04-05T13:35:40.424Z</time></trkpt><trkpt lat="42.9867525" lon="12.6680459"><ele>221.0</ele><time>2026-04-05T13:35:41.424Z</time></trkpt><trkpt lat="42.9865899" lon="12.6682568"><ele>221.0</ele><time>2026-04-05T13:35:42.423Z</time></trkpt><trkpt lat="42.9864339" lon="12.6684683"><ele>222.0</ele><time>2026-04-05T13:35:43.424Z</time></trkpt><trkpt lat="42.9862722" lon="12.6686768"><ele>223.0</ele><time>2026-04-05T13:35:44.423Z</time></trkpt><trkpt lat="42.9861145" lon="12.6688982"><ele>224.0</ele><time>2026-04-05T13:35:45.423Z</time></trkpt><trkpt lat="42.9859509" lon="12.6691134"><ele>224.0</ele><time>2026-04-05T13:35:46.424Z</time></trkpt><trkpt lat="42.9857881" lon="12.6693427"><ele>224.0</ele><time>2026-04-05T13:35:47.424Z</time></trkpt><trkpt lat="42.9856301" lon="12.6695481"><ele>224.5</ele><time>2026-04-05T13:35:48.424Z</time></trkpt><trkpt lat="42.9854662" lon="12.6697639"><ele>225.0</ele><time>2026-04-05T13:35:49.423Z</time></trkpt><trkpt lat="42.985299" lon="12.6699808"><ele>225.0</ele><time>2026-04-05T13:35:50.424Z</time></trkpt><trkpt lat="42.9851342" lon="12.6702113"><ele>225.0</ele><time>2026-04-05T13:35:51.424Z</time></trkpt><trkpt lat="42.9849669" lon="12.6704248"><ele>223.5</ele><time>2026-04-05T13:35:52.424Z</time></trkpt><trkpt lat="42.9848056" lon="12.6706426"><ele>222.0</ele><time>2026-04-05T13:35:53.424Z</time></trkpt><trkpt lat="42.9846457" lon="12.6708683"><ele>222.0</ele><time>2026-04-05T13:35:54.424Z</time></trkpt><trkpt lat="42.9844828" lon="12.6710891"><ele>222.0</ele><time>2026-04-05T13:35:55.423Z</time></trkpt><trkpt lat="42.9843191" lon="12.6713095"><ele>221.5</ele><time>2026-04-05T13:35:56.423Z</time></trkpt><trkpt lat="42.9841593" lon="12.6715264"><ele>221.0</ele><time>2026-04-05T13:35:57.424Z</time></trkpt><trkpt lat="42.9839941" lon="12.6717409"><ele>222.0</ele><time>2026-04-05T13:35:58.424Z</time></trkpt><trkpt lat="42.9838281" lon="12.6719561"><ele>223.0</ele><time>2026-04-05T13:35:59.424Z</time></trkpt><trkpt lat="42.9836698" lon="12.6721645"><ele>224.0</ele><time>2026-04-05T13:36:00.424Z</time></trkpt><trkpt lat="42.9835106" lon="12.6723903"><ele>224.5</ele><time>2026-04-05T13:36:01.424Z</time></trkpt><trkpt lat="42.9833461" lon="12.672605"><ele>225.0</ele><time>2026-04-05T13:36:02.424Z</time></trkpt><trkpt lat="42.9831771" lon="12.6728186"><ele>225.0</ele><time>2026-04-05T13:36:03.424Z</time></trkpt><trkpt lat="42.98301" lon="12.6730318"><ele>225.0</ele><time>2026-04-05T13:36:04.424Z</time></trkpt><trkpt lat="42.9828396" lon="12.6732517"><ele>225.0</ele><time>2026-04-05T13:36:05.424Z</time></trkpt><trkpt lat="42.9826699" lon="12.6734652"><ele>225.0</ele><time>2026-04-05T13:36:06.424Z</time></trkpt><trkpt lat="42.9824985" lon="12.6736857"><ele>223.0</ele><time>2026-04-05T13:36:07.424Z</time></trkpt><trkpt lat="42.9823352" lon="12.6739127"><ele>221.0</ele><time>2026-04-05T13:36:08.423Z</time></trkpt><trkpt lat="42.982166" lon="12.6741347"><ele>221.0</ele><time>2026-04-05T13:36:09.424Z</time></trkpt><trkpt lat="42.9819951" lon="12.6743541"><ele>221.0</ele><time>2026-04-05T13:36:10.424Z</time></trkpt><trkpt lat="42.9818384" lon="12.6745857"><ele>221.0</ele><time>2026-04-05T13:36:11.424Z</time></trkpt><trkpt lat="42.9816661" lon="12.6748097"><ele>221.0</ele><time>2026-04-05T13:36:12.424Z</time></trkpt><trkpt lat="42.9814995" lon="12.6750318"><ele>221.0</ele><time>2026-04-05T13:36:13.424Z</time></trkpt><trkpt lat="42.9813367" lon="12.6752649"><ele>221.0</ele><time>2026-04-05T13:36:14.424Z</time></trkpt><trkpt lat="42.9811697" lon="12.6754765"><ele>221.5</ele><time>2026-04-05T13:36:15.424Z</time></trkpt><trkpt lat="42.9810054" lon="12.6756973"><ele>222.0</ele><time>2026-04-05T13:36:16.424Z</time></trkpt><trkpt lat="42.9808386" lon="12.675918"><ele>222.5</ele><time>2026-04-05T13:36:17.424Z</time></trkpt><trkpt lat="42.9806725" lon="12.6761342"><ele>223.0</ele><time>2026-04-05T13:36:18.423Z</time></trkpt><trkpt lat="42.9805092" lon="12.6763613"><ele>223.0</ele><time>2026-04-05T13:36:19.423Z</time></trkpt><trkpt lat="42.9803453" lon="12.6765796"><ele>223.0</ele><time>2026-04-05T13:36:20.424Z</time></trkpt><trkpt lat="42.980193" lon="12.6767948"><ele>223.0</ele><time>2026-04-05T13:36:21.424Z</time></trkpt><trkpt lat="42.9800451" lon="12.6770186"><ele>222.33333333333331</ele><time>2026-04-05T13:36:22.424Z</time></trkpt><trkpt lat="42.9798961" lon="12.6772384"><ele>221.66666666666669</ele><time>2026-04-05T13:36:23.424Z</time></trkpt><trkpt lat="42.9797533" lon="12.6774846"><ele>221.0</ele><time>2026-04-05T13:36:24.424Z</time></trkpt><trkpt lat="42.9796125" lon="12.6777239"><ele>221.66666666666669</ele><time>2026-04-05T13:36:25.424Z</time></trkpt><trkpt lat="42.9794803" lon="12.6779651"><ele>222.33333333333331</ele><time>2026-04-05T13:36:26.424Z</time></trkpt><trkpt lat="42.9793464" lon="12.678217"><ele>223.0</ele><time>2026-04-05T13:36:27.423Z</time></trkpt><trkpt lat="42.9792207" lon="12.6784721"><ele>222.5</ele><time>2026-04-05T13:36:28.423Z</time></trkpt><trkpt lat="42.9790916" lon="12.6787326"><ele>222.0</ele><time>2026-04-05T13:36:29.424Z</time></trkpt><trkpt lat="42.9789657" lon="12.6789952"><ele>222.0</ele><time>2026-04-05T13:36:30.424Z</time></trkpt><trkpt lat="42.978837" lon="12.6792593"><ele>222.0</ele><time>2026-04-05T13:36:31.424Z</time></trkpt><trkpt lat="42.9787128" lon="12.6795255"><ele>223.5</ele><time>2026-04-05T13:36:32.424Z</time></trkpt><trkpt lat="42.9785893" lon="12.6797859"><ele>225.0</ele><time>2026-04-05T13:36:33.423Z</time></trkpt><trkpt lat="42.9784715" lon="12.6800444"><ele>224.0</ele><time>2026-04-05T13:36:34.424Z</time></trkpt><trkpt lat="42.9783493" lon="12.6803073"><ele>223.0</ele><time>2026-04-05T13:36:35.424Z</time></trkpt><trkpt lat="42.9782286" lon="12.6805806"><ele>223.0</ele><time>2026-04-05T13:36:36.424Z</time></trkpt><trkpt lat="42.9781045" lon="12.680843"><ele>223.0</ele><time>2026-04-05T13:36:37.424Z</time></trkpt><trkpt lat="42.9779872" lon="12.6811002"><ele>223.33333333333331</ele><time>2026-04-05T13:36:38.423Z</time></trkpt><trkpt lat="42.9778701" lon="12.6813613"><ele>223.66666666666669</ele><time>2026-04-05T13:36:39.424Z</time></trkpt><trkpt lat="42.9777492" lon="12.6816183"><ele>224.0</ele><time>2026-04-05T13:36:40.424Z</time></trkpt><trkpt lat="42.9776306" lon="12.6818712"><ele>224.33333333333334</ele><time>2026-04-05T13:36:41.424Z</time></trkpt><trkpt lat="42.9775157" lon="12.6821304"><ele>224.66666666666669</ele><time>2026-04-05T13:36:42.424Z</time></trkpt><trkpt lat="42.9774017" lon="12.6823784"><ele>225.0</ele><time>2026-04-05T13:36:43.424Z</time></trkpt><trkpt lat="42.977286" lon="12.6826221"><ele>225.66666666666669</ele><time>2026-04-05T13:36:44.424Z</time></trkpt><trkpt lat="42.9771723" lon="12.6828736"><ele>226.33333333333334</ele><time>2026-04-05T13:36:45.424Z</time></trkpt><trkpt lat="42.977051" lon="12.6831216"><ele>227.0</ele><time>2026-04-05T13:36:46.424Z</time></trkpt><trkpt lat="42.9769279" lon="12.6833716"><ele>226.66666666666669</ele><time>2026-04-05T13:36:47.424Z</time></trkpt><trkpt lat="42.9768085" lon="12.6836269"><ele>226.33333333333331</ele><time>2026-04-05T13:36:48.424Z</time></trkpt><trkpt lat="42.9766862" lon="12.6838737"><ele>226.0</ele><time>2026-04-05T13:36:49.424Z</time></trkpt><trkpt lat="42.9765715" lon="12.6841267"><ele>226.0</ele><time>2026-04-05T13:36:50.424Z</time></trkpt><trkpt lat="42.9764568" lon="12.684385"><ele>226.0</ele><time>2026-04-05T13:36:51.424Z</time></trkpt><trkpt lat="42.9763364" lon="12.684641"><ele>226.0</ele><time>2026-04-05T13:36:52.424Z</time></trkpt><trkpt lat="42.9762181" lon="12.6848885"><ele>226.0</ele><time>2026-04-05T13:36:53.424Z</time></trkpt><trkpt lat="42.9760973" lon="12.6851436"><ele>226.0</ele><time>2026-04-05T13:36:54.424Z</time></trkpt><trkpt lat="42.9759751" lon="12.6853991"><ele>226.0</ele><time>2026-04-05T13:36:55.423Z</time></trkpt><trkpt lat="42.9758498" lon="12.6856576"><ele>226.0</ele><time>2026-04-05T13:36:56.423Z</time></trkpt><trkpt lat="42.9757307" lon="12.6859152"><ele>226.0</ele><time>2026-04-05T13:36:57.424Z</time></trkpt><trkpt lat="42.9756138" lon="12.6861762"><ele>226.0</ele><time>2026-04-05T13:36:58.424Z</time></trkpt><trkpt lat="42.9754949" lon="12.6864385"><ele>226.0</ele><time>2026-04-05T13:36:59.424Z</time></trkpt><trkpt lat="42.9753787" lon="12.6867061"><ele>226.0</ele><time>2026-04-05T13:37:00.424Z</time></trkpt><trkpt lat="42.9752557" lon="12.6869684"><ele>226.66666666666666</ele><time>2026-04-05T13:37:01.424Z</time></trkpt><trkpt lat="42.9751321" lon="12.687228"><ele>227.33333333333331</ele><time>2026-04-05T13:37:02.424Z</time></trkpt><trkpt lat="42.975014" lon="12.687485"><ele>228.0</ele><time>2026-04-05T13:37:03.423Z</time></trkpt><trkpt lat="42.9748937" lon="12.6877534"><ele>228.66666666666669</ele><time>2026-04-05T13:37:04.423Z</time></trkpt><trkpt lat="42.9747775" lon="12.6880092"><ele>229.33333333333334</ele><time>2026-04-05T13:37:05.424Z</time></trkpt><trkpt lat="42.9746543" lon="12.6882696"><ele>230.0</ele><time>2026-04-05T13:37:06.424Z</time></trkpt><trkpt lat="42.9745267" lon="12.6885309"><ele>230.66666666666669</ele><time>2026-04-05T13:37:07.424Z</time></trkpt><trkpt lat="42.9744028" lon="12.6887846"><ele>231.33333333333331</ele><time>2026-04-05T13:37:08.424Z</time></trkpt><trkpt lat="42.9742833" lon="12.6890437"><ele>232.0</ele><time>2026-04-05T13:37:09.424Z</time></trkpt><trkpt lat="42.9741625" lon="12.6893061"><ele>233.5</ele><time>2026-04-05T13:37:10.424Z</time></trkpt><trkpt lat="42.9740407" lon="12.6895718"><ele>235.0</ele><time>2026-04-05T13:37:11.424Z</time></trkpt><trkpt lat="42.9739152" lon="12.6898386"><ele>235.0</ele><time>2026-04-05T13:37:12.424Z</time></trkpt><trkpt lat="42.973792" lon="12.6900976"><ele>235.0</ele><time>2026-04-05T13:37:13.424Z</time></trkpt><trkpt lat="42.9736701" lon="12.6903595"><ele>234.66666666666666</ele><time>2026-04-05T13:37:14.424Z</time></trkpt><trkpt lat="42.973553" lon="12.6906133"><ele>234.33333333333331</ele><time>2026-04-05T13:37:15.424Z</time></trkpt><trkpt lat="42.973437" lon="12.6908655"><ele>234.0</ele><time>2026-04-05T13:37:16.424Z</time></trkpt><trkpt lat="42.9733208" lon="12.6911189"><ele>234.0</ele><time>2026-04-05T13:37:17.424Z</time></trkpt><trkpt lat="42.9732033" lon="12.6913739"><ele>234.0</ele><time>2026-04-05T13:37:18.424Z</time></trkpt><trkpt lat="42.9730941" lon="12.6916268"><ele>234.0</ele><time>2026-04-05T13:37:19.423Z</time></trkpt><trkpt lat="42.9729803" lon="12.6918773"><ele>234.0</ele><time>2026-04-05T13:37:20.424Z</time></trkpt><trkpt lat="42.97287" lon="12.6921326"><ele>234.0</ele><time>2026-04-05T13:37:21.424Z</time></trkpt><trkpt lat="42.9727695" lon="12.6923815"><ele>234.0</ele><time>2026-04-05T13:37:22.424Z</time></trkpt><trkpt lat="42.9726663" lon="12.692629"><ele>234.0</ele><time>2026-04-05T13:37:23.423Z</time></trkpt><trkpt lat="42.972568" lon="12.6928885"><ele>234.0</ele><time>2026-04-05T13:37:24.423Z</time></trkpt><trkpt lat="42.9724709" lon="12.6931481"><ele>234.0</ele><time>2026-04-05T13:37:25.424Z</time></trkpt><trkpt lat="42.9723766" lon="12.6934141"><ele>234.0</ele><time>2026-04-05T13:37:26.424Z</time></trkpt><trkpt lat="42.9722847" lon="12.693673"><ele>234.0</ele><time>2026-04-05T13:37:27.424Z</time></trkpt><trkpt lat="42.9721931" lon="12.6939429"><ele>234.0</ele><time>2026-04-05T13:37:28.424Z</time></trkpt><trkpt lat="42.9720975" lon="12.6942192"><ele>233.66666666666669</ele><time>2026-04-05T13:37:29.424Z</time></trkpt><trkpt lat="42.972007" lon="12.6944918"><ele>233.33333333333334</ele><time>2026-04-05T13:37:30.424Z</time></trkpt><trkpt lat="42.9719123" lon="12.6947551"><ele>233.0</ele><time>2026-04-05T13:37:31.423Z</time></trkpt><trkpt lat="42.9718136" lon="12.6950194"><ele>233.0</ele><time>2026-04-05T13:37:32.424Z</time></trkpt><trkpt lat="42.971711" lon="12.6952946"><ele>233.0</ele><time>2026-04-05T13:37:33.424Z</time></trkpt><trkpt lat="42.9716153" lon="12.6955687"><ele>233.0</ele><time>2026-04-05T13:37:34.423Z</time></trkpt><trkpt lat="42.9715174" lon="12.6958368"><ele>235.0</ele><time>2026-04-05T13:37:35.424Z</time></trkpt><trkpt lat="42.971417" lon="12.6961247"><ele>237.0</ele><time>2026-04-05T13:37:36.424Z</time></trkpt><trkpt lat="42.9713146" lon="12.6963982"><ele>237.0</ele><time>2026-04-05T13:37:37.424Z</time></trkpt><trkpt lat="42.9712183" lon="12.696676"><ele>237.0</ele><time>2026-04-05T13:37:38.424Z</time></trkpt><trkpt lat="42.9711195" lon="12.696957"><ele>236.66666666666669</ele><time>2026-04-05T13:37:39.423Z</time></trkpt><trkpt lat="42.9710202" lon="12.6972243"><ele>236.33333333333334</ele><time>2026-04-05T13:37:40.424Z</time></trkpt><trkpt lat="42.9709204" lon="12.697499"><ele>236.0</ele><time>2026-04-05T13:37:41.424Z</time></trkpt><trkpt lat="42.9708254" lon="12.6977737"><ele>236.0</ele><time>2026-04-05T13:37:42.424Z</time></trkpt><trkpt lat="42.9707313" lon="12.6980493"><ele>236.0</ele><time>2026-04-05T13:37:43.424Z</time></trkpt><trkpt lat="42.9706328" lon="12.6983181"><ele>236.0</ele><time>2026-04-05T13:37:44.424Z</time></trkpt><trkpt lat="42.9705359" lon="12.698594"><ele>236.33333333333334</ele><time>2026-04-05T13:37:45.424Z</time></trkpt><trkpt lat="42.9704443" lon="12.6988706"><ele>236.66666666666669</ele><time>2026-04-05T13:37:46.423Z</time></trkpt><trkpt lat="42.9703644" lon="12.6991483"><ele>237.0</ele><time>2026-04-05T13:37:47.424Z</time></trkpt><trkpt lat="42.9702955" lon="12.6994345"><ele>237.0</ele><time>2026-04-05T13:37:48.424Z</time></trkpt><trkpt lat="42.9702378" lon="12.6997238"><ele>237.0</ele><time>2026-04-05T13:37:49.423Z</time></trkpt><trkpt lat="42.9701952" lon="12.7000288"><ele>237.0</ele><time>2026-04-05T13:37:50.424Z</time></trkpt><trkpt lat="42.970172" lon="12.7003328"><ele>237.0</ele><time>2026-04-05T13:37:51.424Z</time></trkpt><trkpt lat="42.9701519" lon="12.7006295"><ele>237.0</ele><time>2026-04-05T13:37:52.423Z</time></trkpt><trkpt lat="42.9701537" lon="12.7009293"><ele>237.0</ele><time>2026-04-05T13:37:53.424Z</time></trkpt><trkpt lat="42.9701749" lon="12.7012334"><ele>237.0</ele><time>2026-04-05T13:37:54.424Z</time></trkpt><trkpt lat="42.9702211" lon="12.7015392"><ele>237.0</ele><time>2026-04-05T13:37:55.424Z</time></trkpt><trkpt lat="42.9702771" lon="12.7018315"><ele>238.0</ele><time>2026-04-05T13:37:56.423Z</time></trkpt><trkpt lat="42.9703404" lon="12.7021194"><ele>239.0</ele><time>2026-04-05T13:37:57.424Z</time></trkpt><trkpt lat="42.9704263" lon="12.7024037"><ele>240.0</ele><time>2026-04-05T13:37:58.424Z</time></trkpt><trkpt lat="42.9705166" lon="12.7026774"><ele>241.0</ele><time>2026-04-05T13:37:59.423Z</time></trkpt><trkpt lat="42.9706265" lon="12.7029461"><ele>242.0</ele><time>2026-04-05T13:38:00.424Z</time></trkpt><trkpt lat="42.9707375" lon="12.7031979"><ele>243.0</ele><time>2026-04-05T13:38:01.423Z</time></trkpt><trkpt lat="42.9708507" lon="12.7034578"><ele>244.33333333333331</ele><time>2026-04-05T13:38:02.424Z</time></trkpt><trkpt lat="42.9709614" lon="12.7037126"><ele>245.66666666666666</ele><time>2026-04-05T13:38:03.424Z</time></trkpt><trkpt lat="42.9710807" lon="12.7039731"><ele>247.0</ele><time>2026-04-05T13:38:04.423Z</time></trkpt><trkpt lat="42.9711972" lon="12.7042309"><ele>246.66666666666666</ele><time>2026-04-05T13:38:05.424Z</time></trkpt><trkpt lat="42.9713119" lon="12.7044888"><ele>246.33333333333331</ele><time>2026-04-05T13:38:06.424Z</time></trkpt><trkpt lat="42.9714235" lon="12.704755"><ele>246.0</ele><time>2026-04-05T13:38:07.423Z</time></trkpt><trkpt lat="42.971531" lon="12.7050191"><ele>246.66666666666669</ele><time>2026-04-05T13:38:08.423Z</time></trkpt><trkpt lat="42.9716388" lon="12.7052843"><ele>247.33333333333334</ele><time>2026-04-05T13:38:09.424Z</time></trkpt><trkpt lat="42.971751" lon="12.7055372"><ele>248.0</ele><time>2026-04-05T13:38:10.423Z</time></trkpt><trkpt lat="42.9718609" lon="12.7057972"><ele>248.0</ele><time>2026-04-05T13:38:11.424Z</time></trkpt><trkpt lat="42.9719676" lon="12.7060575"><ele>248.0</ele><time>2026-04-05T13:38:12.424Z</time></trkpt><trkpt lat="42.9720792" lon="12.706312"><ele>248.0</ele><time>2026-04-05T13:38:13.424Z</time></trkpt><trkpt lat="42.9721817" lon="12.7065751"><ele>246.33333333333334</ele><time>2026-04-05T13:38:14.424Z</time></trkpt><trkpt lat="42.9722926" lon="12.7068376"><ele>244.66666666666669</ele><time>2026-04-05T13:38:15.424Z</time></trkpt><trkpt lat="42.9723973" lon="12.7071025"><ele>243.0</ele><time>2026-04-05T13:38:16.423Z</time></trkpt><trkpt lat="42.9724944" lon="12.7073725"><ele>243.0</ele><time>2026-04-05T13:38:17.423Z</time></trkpt><trkpt lat="42.9725872" lon="12.7076485"><ele>243.0</ele><time>2026-04-05T13:38:18.424Z</time></trkpt><trkpt lat="42.9726796" lon="12.7079248"><ele>243.0</ele><time>2026-04-05T13:38:19.424Z</time></trkpt><trkpt lat="42.9727564" lon="12.7082083"><ele>243.33333333333331</ele><time>2026-04-05T13:38:20.424Z</time></trkpt><trkpt lat="42.9728377" lon="12.7084866"><ele>243.66666666666666</ele><time>2026-04-05T13:38:21.423Z</time></trkpt><trkpt lat="42.972904" lon="12.7087739"><ele>244.0</ele><time>2026-04-05T13:38:22.423Z</time></trkpt><trkpt lat="42.9729697" lon="12.7090592"><ele>245.0</ele><time>2026-04-05T13:38:23.424Z</time></trkpt><trkpt lat="42.9730305" lon="12.7093425"><ele>246.0</ele><time>2026-04-05T13:38:24.424Z</time></trkpt><trkpt lat="42.97308" lon="12.7096356"><ele>247.0</ele><time>2026-04-05T13:38:25.424Z</time></trkpt><trkpt lat="42.9731305" lon="12.7099248"><ele>247.0</ele><time>2026-04-05T13:38:26.424Z</time></trkpt><trkpt lat="42.9731763" lon="12.7102305"><ele>247.0</ele><time>2026-04-05T13:38:27.424Z</time></trkpt><trkpt lat="42.973226" lon="12.710535"><ele>246.66666666666666</ele><time>2026-04-05T13:38:28.423Z</time></trkpt><trkpt lat="42.9732756" lon="12.7108318"><ele>246.33333333333331</ele><time>2026-04-05T13:38:29.424Z</time></trkpt><trkpt lat="42.9733218" lon="12.7111287"><ele>246.0</ele><time>2026-04-05T13:38:30.423Z</time></trkpt><trkpt lat="42.9733728" lon="12.7114256"><ele>246.33333333333331</ele><time>2026-04-05T13:38:31.423Z</time></trkpt><trkpt lat="42.9734145" lon="12.7117231"><ele>246.66666666666666</ele><time>2026-04-05T13:38:32.424Z</time></trkpt><trkpt lat="42.9734575" lon="12.7120172"><ele>247.0</ele><time>2026-04-05T13:38:33.424Z</time></trkpt><trkpt lat="42.973502" lon="12.7123114"><ele>247.0</ele><time>2026-04-05T13:38:34.424Z</time></trkpt><trkpt lat="42.973541" lon="12.7126083"><ele>247.0</ele><time>2026-04-05T13:38:35.424Z</time></trkpt><trkpt lat="42.9735806" lon="12.7128918"><ele>247.0</ele><time>2026-04-05T13:38:36.423Z</time></trkpt><trkpt lat="42.9736154" lon="12.7131633"><ele>247.0</ele><time>2026-04-05T13:38:37.424Z</time></trkpt><trkpt lat="42.973647" lon="12.7134268"><ele>247.0</ele><time>2026-04-05T13:38:38.424Z</time></trkpt><trkpt lat="42.9736666" lon="12.7136747"><ele>247.0</ele><time>2026-04-05T13:38:39.424Z</time></trkpt><trkpt lat="42.9736739" lon="12.7139142"><ele>246.66666666666666</ele><time>2026-04-05T13:38:40.424Z</time></trkpt><trkpt lat="42.9736538" lon="12.7141618"><ele>246.33333333333331</ele><time>2026-04-05T13:38:41.424Z</time></trkpt><trkpt lat="42.9736155" lon="12.7143974"><ele>246.0</ele><time>2026-04-05T13:38:42.423Z</time></trkpt><trkpt lat="42.9735606" lon="12.7146349"><ele>246.0</ele><time>2026-04-05T13:38:43.424Z</time></trkpt><trkpt lat="42.9734861" lon="12.7148683"><ele>246.0</ele><time>2026-04-05T13:38:44.424Z</time></trkpt><trkpt lat="42.9733917" lon="12.7150753"><ele>246.0</ele><time>2026-04-05T13:38:45.423Z</time></trkpt><trkpt lat="42.9732821" lon="12.7152767"><ele>246.33333333333331</ele><time>2026-04-05T13:38:46.424Z</time></trkpt><trkpt lat="42.9731463" lon="12.7154513"><ele>246.66666666666666</ele><time>2026-04-05T13:38:47.424Z</time></trkpt><trkpt lat="42.9729953" lon="12.7156149"><ele>247.0</ele><time>2026-04-05T13:38:48.424Z</time></trkpt><trkpt lat="42.9728374" lon="12.7157649"><ele>247.0</ele><time>2026-04-05T13:38:49.424Z</time></trkpt><trkpt lat="42.972659" lon="12.7158842"><ele>247.0</ele><time>2026-04-05T13:38:50.423Z</time></trkpt><trkpt lat="42.9724814" lon="12.7159799"><ele>247.0</ele><time>2026-04-05T13:38:51.424Z</time></trkpt><trkpt lat="42.9722948" lon="12.7160752"><ele>246.0</ele><time>2026-04-05T13:38:52.424Z</time></trkpt><trkpt lat="42.9721078" lon="12.7161709"><ele>245.0</ele><time>2026-04-05T13:38:53.424Z</time></trkpt><trkpt lat="42.9719135" lon="12.7162748"><ele>244.0</ele><time>2026-04-05T13:38:54.424Z</time></trkpt><trkpt lat="42.9717111" lon="12.7163724"><ele>244.0</ele><time>2026-04-05T13:38:55.424Z</time></trkpt><trkpt lat="42.9715081" lon="12.7164648"><ele>244.0</ele><time>2026-04-05T13:38:56.424Z</time></trkpt><trkpt lat="42.9712992" lon="12.7165625"><ele>244.0</ele><time>2026-04-05T13:38:57.424Z</time></trkpt><trkpt lat="42.971091" lon="12.7166609"><ele>244.0</ele><time>2026-04-05T13:38:58.424Z</time></trkpt><trkpt lat="42.9708747" lon="12.7167645"><ele>244.0</ele><time>2026-04-05T13:38:59.424Z</time></trkpt><trkpt lat="42.9706511" lon="12.7168671"><ele>244.0</ele><time>2026-04-05T13:39:00.424Z</time></trkpt><trkpt lat="42.9704254" lon="12.7169754"><ele>244.0</ele><time>2026-04-05T13:39:01.424Z</time></trkpt><trkpt lat="42.9701993" lon="12.7170889"><ele>245.0</ele><time>2026-04-05T13:39:02.424Z</time></trkpt><trkpt lat="42.9699794" lon="12.7171982"><ele>246.0</ele><time>2026-04-05T13:39:03.423Z</time></trkpt><trkpt lat="42.9697431" lon="12.7173111"><ele>246.0</ele><time>2026-04-05T13:39:04.424Z</time></trkpt><trkpt lat="42.9695077" lon="12.7174249"><ele>246.0</ele><time>2026-04-05T13:39:05.423Z</time></trkpt><trkpt lat="42.9692736" lon="12.7175324"><ele>245.0</ele><time>2026-04-05T13:39:06.423Z</time></trkpt><trkpt lat="42.9690358" lon="12.7176504"><ele>244.0</ele><time>2026-04-05T13:39:07.424Z</time></trkpt><trkpt lat="42.9688011" lon="12.7177542"><ele>244.0</ele><time>2026-04-05T13:39:08.423Z</time></trkpt><trkpt lat="42.9685635" lon="12.7178652"><ele>244.0</ele><time>2026-04-05T13:39:09.424Z</time></trkpt><trkpt lat="42.9683223" lon="12.7179889"><ele>244.0</ele><time>2026-04-05T13:39:10.424Z</time></trkpt><trkpt lat="42.9680869" lon="12.7180934"><ele>244.0</ele><time>2026-04-05T13:39:11.424Z</time></trkpt><trkpt lat="42.9678452" lon="12.7182099"><ele>244.0</ele><time>2026-04-05T13:39:12.424Z</time></trkpt><trkpt lat="42.9675983" lon="12.7183242"><ele>244.0</ele><time>2026-04-05T13:39:13.424Z</time></trkpt><trkpt lat="42.9673503" lon="12.7184403"><ele>244.0</ele><time>2026-04-05T13:39:14.424Z</time></trkpt><trkpt lat="42.9671105" lon="12.7185602"><ele>244.0</ele><time>2026-04-05T13:39:15.423Z</time></trkpt><trkpt lat="42.9668687" lon="12.7186792"><ele>245.5</ele><time>2026-04-05T13:39:16.424Z</time></trkpt><trkpt lat="42.9666248" lon="12.7187906"><ele>247.0</ele><time>2026-04-05T13:39:17.424Z</time></trkpt><trkpt lat="42.966377" lon="12.7189109"><ele>247.0</ele><time>2026-04-05T13:39:18.424Z</time></trkpt><trkpt lat="42.9661299" lon="12.7190311"><ele>247.0</ele><time>2026-04-05T13:39:19.423Z</time></trkpt><trkpt lat="42.9658903" lon="12.7191397"><ele>246.0</ele><time>2026-04-05T13:39:20.424Z</time></trkpt><trkpt lat="42.9656533" lon="12.7192531"><ele>245.0</ele><time>2026-04-05T13:39:21.424Z</time></trkpt><trkpt lat="42.9654105" lon="12.7193721"><ele>245.0</ele><time>2026-04-05T13:39:22.424Z</time></trkpt><trkpt lat="42.9651697" lon="12.7194918"><ele>245.0</ele><time>2026-04-05T13:39:23.423Z</time></trkpt><trkpt lat="42.9649293" lon="12.7196138"><ele>246.0</ele><time>2026-04-05T13:39:24.424Z</time></trkpt><trkpt lat="42.9646935" lon="12.7197136"><ele>247.0</ele><time>2026-04-05T13:39:25.424Z</time></trkpt><trkpt lat="42.9644524" lon="12.7198319"><ele>247.0</ele><time>2026-04-05T13:39:26.424Z</time></trkpt><trkpt lat="42.964213" lon="12.7199551"><ele>247.0</ele><time>2026-04-05T13:39:27.424Z</time></trkpt><trkpt lat="42.9639746" lon="12.7200702"><ele>247.0</ele><time>2026-04-05T13:39:28.424Z</time></trkpt><trkpt lat="42.9637367" lon="12.7201813"><ele>247.0</ele><time>2026-04-05T13:39:29.423Z</time></trkpt><trkpt lat="42.9634942" lon="12.7202975"><ele>247.5</ele><time>2026-04-05T13:39:30.424Z</time></trkpt><trkpt lat="42.9632525" lon="12.7204068"><ele>248.0</ele><time>2026-04-05T13:39:31.423Z</time></trkpt><trkpt lat="42.9630151" lon="12.7205078"><ele>248.0</ele><time>2026-04-05T13:39:32.423Z</time></trkpt><trkpt lat="42.9627696" lon="12.7206071"><ele>248.0</ele><time>2026-04-05T13:39:33.424Z</time></trkpt><trkpt lat="42.9625209" lon="12.7206995"><ele>248.0</ele><time>2026-04-05T13:39:34.423Z</time></trkpt><trkpt lat="42.9622729" lon="12.7207775"><ele>248.0</ele><time>2026-04-05T13:39:35.424Z</time></trkpt><trkpt lat="42.9620299" lon="12.720857"><ele>248.0</ele><time>2026-04-05T13:39:36.424Z</time></trkpt><trkpt lat="42.9617847" lon="12.7209383"><ele>248.0</ele><time>2026-04-05T13:39:37.424Z</time></trkpt><trkpt lat="42.9615465" lon="12.7210029"><ele>248.5</ele><time>2026-04-05T13:39:38.424Z</time></trkpt><trkpt lat="42.9613136" lon="12.7210636"><ele>249.0</ele><time>2026-04-05T13:39:39.423Z</time></trkpt><trkpt lat="42.9610948" lon="12.7211076"><ele>250.0</ele><time>2026-04-05T13:39:40.423Z</time></trkpt><trkpt lat="42.9608797" lon="12.7211339"><ele>251.0</ele><time>2026-04-05T13:39:41.423Z</time></trkpt><trkpt lat="42.9606756" lon="12.7211561"><ele>252.0</ele><time>2026-04-05T13:39:42.424Z</time></trkpt><trkpt lat="42.9604704" lon="12.7211763"><ele>254.33333333333331</ele><time>2026-04-05T13:39:43.424Z</time></trkpt><trkpt lat="42.9602727" lon="12.7211876"><ele>256.66666666666663</ele><time>2026-04-05T13:39:44.424Z</time></trkpt><trkpt lat="42.9600775" lon="12.7211976"><ele>259.0</ele><time>2026-04-05T13:39:45.423Z</time></trkpt><trkpt lat="42.9598853" lon="12.7212042"><ele>260.66666666666663</ele><time>2026-04-05T13:39:46.424Z</time></trkpt><trkpt lat="42.9596951" lon="12.7212078"><ele>262.3333333333333</ele><time>2026-04-05T13:39:47.424Z</time></trkpt><trkpt lat="42.9595033" lon="12.7212193"><ele>264.0</ele><time>2026-04-05T13:39:48.424Z</time></trkpt><trkpt lat="42.9593273" lon="12.7212165"><ele>264.3333333333333</ele><time>2026-04-05T13:39:49.423Z</time></trkpt><trkpt lat="42.9591481" lon="12.7212216"><ele>264.66666666666663</ele><time>2026-04-05T13:39:50.423Z</time></trkpt><trkpt lat="42.9589654" lon="12.7212284"><ele>265.0</ele><time>2026-04-05T13:39:51.424Z</time></trkpt><trkpt lat="42.958801" lon="12.7212376"><ele>265.0</ele><time>2026-04-05T13:39:52.424Z</time></trkpt><trkpt lat="42.9586404" lon="12.721251"><ele>265.0</ele><time>2026-04-05T13:39:53.423Z</time></trkpt><trkpt lat="42.9584872" lon="12.7212561"><ele>265.0</ele><time>2026-04-05T13:39:54.423Z</time></trkpt><trkpt lat="42.95834" lon="12.7212604"><ele>265.5</ele><time>2026-04-05T13:39:55.424Z</time></trkpt><trkpt lat="42.9581965" lon="12.7212661"><ele>266.0</ele><time>2026-04-05T13:39:56.424Z</time></trkpt><trkpt lat="42.958072" lon="12.7212812"><ele>266.5</ele><time>2026-04-05T13:39:57.424Z</time></trkpt><trkpt lat="42.9579373" lon="12.7213047"><ele>267.0</ele><time>2026-04-05T13:39:58.424Z</time></trkpt><trkpt lat="42.957797" lon="12.721347"><ele>267.0</ele><time>2026-04-05T13:39:59.423Z</time></trkpt><trkpt lat="42.9576554" lon="12.7214086"><ele>267.0</ele><time>2026-04-05T13:40:00.424Z</time></trkpt><trkpt lat="42.9575103" lon="12.7214869"><ele>267.0</ele><time>2026-04-05T13:40:01.424Z</time></trkpt><trkpt lat="42.9573645" lon="12.7215626"><ele>267.0</ele><time>2026-04-05T13:40:02.423Z</time></trkpt><trkpt lat="42.9572126" lon="12.7216457"><ele>267.0</ele><time>2026-04-05T13:40:03.424Z</time></trkpt><trkpt lat="42.957056" lon="12.7217182"><ele>267.0</ele><time>2026-04-05T13:40:04.424Z</time></trkpt><trkpt lat="42.9568941" lon="12.7217846"><ele>267.0</ele><time>2026-04-05T13:40:05.424Z</time></trkpt><trkpt lat="42.9567282" lon="12.7218352"><ele>267.0</ele><time>2026-04-05T13:40:06.424Z</time></trkpt><trkpt lat="42.9565556" lon="12.7218746"><ele>267.0</ele><time>2026-04-05T13:40:07.424Z</time></trkpt><trkpt lat="42.956384" lon="12.7219061"><ele>268.3333333333333</ele><time>2026-04-05T13:40:08.424Z</time></trkpt><trkpt lat="42.9562066" lon="12.7219406"><ele>269.66666666666663</ele><time>2026-04-05T13:40:09.423Z</time></trkpt><trkpt lat="42.956032" lon="12.7219704"><ele>271.0</ele><time>2026-04-05T13:40:10.424Z</time></trkpt><trkpt lat="42.9558591" lon="12.7220047"><ele>271.66666666666663</ele><time>2026-04-05T13:40:11.423Z</time></trkpt><trkpt lat="42.9556915" lon="12.7220242"><ele>272.3333333333333</ele><time>2026-04-05T13:40:12.424Z</time></trkpt><trkpt lat="42.9555189" lon="12.7220394"><ele>273.0</ele><time>2026-04-05T13:40:13.423Z</time></trkpt><trkpt lat="42.9553428" lon="12.7220339"><ele>273.0</ele><time>2026-04-05T13:40:14.424Z</time></trkpt><trkpt lat="42.9551586" lon="12.7220209"><ele>273.0</ele><time>2026-04-05T13:40:15.424Z</time></trkpt><trkpt lat="42.9549751" lon="12.7220107"><ele>273.0</ele><time>2026-04-05T13:40:16.423Z</time></trkpt><trkpt lat="42.9547945" lon="12.7219979"><ele>273.6666666666667</ele><time>2026-04-05T13:40:17.424Z</time></trkpt><trkpt lat="42.9546119" lon="12.7219855"><ele>274.33333333333337</ele><time>2026-04-05T13:40:18.423Z</time></trkpt><trkpt lat="42.9544434" lon="12.7219799"><ele>275.0</ele><time>2026-04-05T13:40:19.424Z</time></trkpt><trkpt lat="42.9542866" lon="12.7219759"><ele>275.0</ele><time>2026-04-05T13:40:20.423Z</time></trkpt><trkpt lat="42.9541414" lon="12.7219759"><ele>275.0</ele><time>2026-04-05T13:40:21.423Z</time></trkpt><trkpt lat="42.9540082" lon="12.7219744"><ele>275.0</ele><time>2026-04-05T13:40:22.423Z</time></trkpt><trkpt lat="42.9538973" lon="12.7219882"><ele>275.0</ele><time>2026-04-05T13:40:23.424Z</time></trkpt><trkpt lat="42.9538071" lon="12.7220441"><ele>275.0</ele><time>2026-04-05T13:40:24.424Z</time></trkpt><trkpt lat="42.9537339" lon="12.722125"><ele>275.0</ele><time>2026-04-05T13:40:25.424Z</time></trkpt><trkpt lat="42.9536929" lon="12.7222314"><ele>275.0</ele><time>2026-04-05T13:40:26.424Z</time></trkpt><trkpt lat="42.9536615" lon="12.722336"><ele>275.0</ele><time>2026-04-05T13:40:27.423Z</time></trkpt><trkpt lat="42.9536789" lon="12.722466"><ele>275.0</ele><time>2026-04-05T13:40:28.424Z</time></trkpt><trkpt lat="42.9537095" lon="12.7225856"><ele>275.0</ele><time>2026-04-05T13:40:29.424Z</time></trkpt><trkpt lat="42.9537701" lon="12.7226847"><ele>275.0</ele><time>2026-04-05T13:40:30.423Z</time></trkpt><trkpt lat="42.9538399" lon="12.7227481"><ele>275.0</ele><time>2026-04-05T13:40:31.424Z</time></trkpt><trkpt lat="42.9539249" lon="12.7227746"><ele>275.0</ele><time>2026-04-05T13:40:32.424Z</time></trkpt><trkpt lat="42.9540022" lon="12.7227846"><ele>275.0</ele><time>2026-04-05T13:40:33.424Z</time></trkpt><trkpt lat="42.9540893" lon="12.7227669"><ele>275.0</ele><time>2026-04-05T13:40:34.424Z</time></trkpt><trkpt lat="42.9541889" lon="12.7227418"><ele>275.0</ele><time>2026-04-05T13:40:35.423Z</time></trkpt><trkpt lat="42.9543082" lon="12.7227084"><ele>275.0</ele><time>2026-04-05T13:40:36.424Z</time></trkpt><trkpt lat="42.954428" lon="12.7226821"><ele>275.0</ele><time>2026-04-05T13:40:37.424Z</time></trkpt><trkpt lat="42.9545642" lon="12.7226525"><ele>275.0</ele><time>2026-04-05T13:40:38.424Z</time></trkpt><trkpt lat="42.9547047" lon="12.7226224"><ele>275.0</ele><time>2026-04-05T13:40:39.424Z</time></trkpt><trkpt lat="42.9548473" lon="12.7225905"><ele>275.0</ele><time>2026-04-05T13:40:40.424Z</time></trkpt><trkpt lat="42.9550003" lon="12.7225564"><ele>275.0</ele><time>2026-04-05T13:40:41.423Z</time></trkpt><trkpt lat="42.9551422" lon="12.7225346"><ele>275.0</ele><time>2026-04-05T13:40:42.424Z</time></trkpt><trkpt lat="42.9552865" lon="12.7225175"><ele>274.5</ele><time>2026-04-05T13:40:43.424Z</time></trkpt><trkpt lat="42.9554211" lon="12.7225048"><ele>274.0</ele><time>2026-04-05T13:40:44.424Z</time></trkpt><trkpt lat="42.9555451" lon="12.7225013"><ele>273.5</ele><time>2026-04-05T13:40:45.423Z</time></trkpt><trkpt lat="42.9556648" lon="12.7225134"><ele>273.0</ele><time>2026-04-05T13:40:46.424Z</time></trkpt><trkpt lat="42.9557676" lon="12.7225671"><ele>273.0</ele><time>2026-04-05T13:40:47.423Z</time></trkpt><trkpt lat="42.9558624" lon="12.722639"><ele>273.0</ele><time>2026-04-05T13:40:48.424Z</time></trkpt><trkpt lat="42.9559355" lon="12.7227342"><ele>273.0</ele><time>2026-04-05T13:40:49.424Z</time></trkpt><trkpt lat="42.9559802" lon="12.722871"><ele>273.0</ele><time>2026-04-05T13:40:50.424Z</time></trkpt><trkpt lat="42.9560176" lon="12.7230155"><ele>273.0</ele><time>2026-04-05T13:40:51.424Z</time></trkpt><trkpt lat="42.9560685" lon="12.7231616"><ele>273.25</ele><time>2026-04-05T13:40:52.424Z</time></trkpt><trkpt lat="42.9561068" lon="12.7233275"><ele>273.5</ele><time>2026-04-05T13:40:53.423Z</time></trkpt><trkpt lat="42.9561529" lon="12.7235004"><ele>273.75</ele><time>2026-04-05T13:40:54.424Z</time></trkpt><trkpt lat="42.9562133" lon="12.7236855"><ele>274.0</ele><time>2026-04-05T13:40:55.424Z</time></trkpt><trkpt lat="42.9562731" lon="12.7238957"><ele>276.0</ele><time>2026-04-05T13:40:56.424Z</time></trkpt><trkpt lat="42.9563194" lon="12.724097"><ele>278.0</ele><time>2026-04-05T13:40:57.424Z</time></trkpt><trkpt lat="42.9563591" lon="12.7242975"><ele>280.0</ele><time>2026-04-05T13:40:58.424Z</time></trkpt><trkpt lat="42.9564167" lon="12.72449"><ele>281.0</ele><time>2026-04-05T13:40:59.423Z</time></trkpt><trkpt lat="42.9564756" lon="12.7246876"><ele>282.0</ele><time>2026-04-05T13:41:00.424Z</time></trkpt><trkpt lat="42.9565253" lon="12.7248974"><ele>283.0</ele><time>2026-04-05T13:41:01.423Z</time></trkpt><trkpt lat="42.9565769" lon="12.7251013"><ele>284.66666666666663</ele><time>2026-04-05T13:41:02.424Z</time></trkpt><trkpt lat="42.956627" lon="12.7253055"><ele>286.3333333333333</ele><time>2026-04-05T13:41:03.424Z</time></trkpt><trkpt lat="42.9566718" lon="12.7255059"><ele>288.0</ele><time>2026-04-05T13:41:04.424Z</time></trkpt><trkpt lat="42.9566941" lon="12.7256988"><ele>288.0</ele><time>2026-04-05T13:41:05.424Z</time></trkpt><trkpt lat="42.9567057" lon="12.7258847"><ele>288.0</ele><time>2026-04-05T13:41:06.424Z</time></trkpt><trkpt lat="42.9566735" lon="12.7260538"><ele>288.0</ele><time>2026-04-05T13:41:07.424Z</time></trkpt><trkpt lat="42.9566076" lon="12.7262098"><ele>288.0</ele><time>2026-04-05T13:41:08.424Z</time></trkpt><trkpt lat="42.9565383" lon="12.7263548"><ele>291.3333333333333</ele><time>2026-04-05T13:41:09.424Z</time></trkpt><trkpt lat="42.9564252" lon="12.7265048"><ele>294.66666666666663</ele><time>2026-04-05T13:41:10.423Z</time></trkpt><trkpt lat="42.956312" lon="12.7266553"><ele>298.0</ele><time>2026-04-05T13:41:11.423Z</time></trkpt><trkpt lat="42.9561962" lon="12.7267989"><ele>297.3333333333333</ele><time>2026-04-05T13:41:12.423Z</time></trkpt><trkpt lat="42.9560734" lon="12.7269551"><ele>296.6666666666667</ele><time>2026-04-05T13:41:13.423Z</time></trkpt><trkpt lat="42.955949" lon="12.7271115"><ele>296.0</ele><time>2026-04-05T13:41:14.424Z</time></trkpt><trkpt lat="42.955822" lon="12.7272785"><ele>296.0</ele><time>2026-04-05T13:41:15.424Z</time></trkpt><trkpt lat="42.955693" lon="12.7274284"><ele>296.0</ele><time>2026-04-05T13:41:16.424Z</time></trkpt><trkpt lat="42.955577" lon="12.727569"><ele>296.0</ele><time>2026-04-05T13:41:17.423Z</time></trkpt><trkpt lat="42.9554725" lon="12.7276985"><ele>297.25</ele><time>2026-04-05T13:41:18.424Z</time></trkpt><trkpt lat="42.9553827" lon="12.7278417"><ele>298.5</ele><time>2026-04-05T13:41:19.423Z</time></trkpt><trkpt lat="42.9553249" lon="12.7280056"><ele>299.75</ele><time>2026-04-05T13:41:20.423Z</time></trkpt><trkpt lat="42.9552928" lon="12.7281867"><ele>301.0</ele><time>2026-04-05T13:41:21.423Z</time></trkpt><trkpt lat="42.9552773" lon="12.7283833"><ele>305.0</ele><time>2026-04-05T13:41:22.424Z</time></trkpt><trkpt lat="42.9552706" lon="12.7285941"><ele>309.0</ele><time>2026-04-05T13:41:23.424Z</time></trkpt><trkpt lat="42.9552673" lon="12.7288114"><ele>313.0</ele><time>2026-04-05T13:41:24.424Z</time></trkpt><trkpt lat="42.9552608" lon="12.7290356"><ele>313.0</ele><time>2026-04-05T13:41:25.423Z</time></trkpt><trkpt lat="42.9552195" lon="12.7292509"><ele>313.0</ele><time>2026-04-05T13:41:26.423Z</time></trkpt><trkpt lat="42.9551614" lon="12.7294665"><ele>313.0</ele><time>2026-04-05T13:41:27.423Z</time></trkpt><trkpt lat="42.955092" lon="12.7296789"><ele>312.0</ele><time>2026-04-05T13:41:28.423Z</time></trkpt><trkpt lat="42.955012" lon="12.7298852"><ele>311.0</ele><time>2026-04-05T13:41:29.423Z</time></trkpt><trkpt lat="42.9549197" lon="12.7300818"><ele>310.0</ele><time>2026-04-05T13:41:30.424Z</time></trkpt><trkpt lat="42.95482" lon="12.7302541"><ele>310.0</ele><time>2026-04-05T13:41:31.423Z</time></trkpt><trkpt lat="42.9547144" lon="12.7304199"><ele>310.0</ele><time>2026-04-05T13:41:32.423Z</time></trkpt><trkpt lat="42.9546294" lon="12.7305992"><ele>310.0</ele><time>2026-04-05T13:41:33.424Z</time></trkpt><trkpt lat="42.9545481" lon="12.7307934"><ele>310.0</ele><time>2026-04-05T13:41:34.424Z</time></trkpt><trkpt lat="42.9545126" lon="12.7310049"><ele>310.0</ele><time>2026-04-05T13:41:35.424Z</time></trkpt><trkpt lat="42.9544745" lon="12.7312041"><ele>310.0</ele><time>2026-04-05T13:41:36.423Z</time></trkpt><trkpt lat="42.9544381" lon="12.7313885"><ele>310.0</ele><time>2026-04-05T13:41:37.423Z</time></trkpt><trkpt lat="42.9544107" lon="12.7315494"><ele>310.25</ele><time>2026-04-05T13:41:38.424Z</time></trkpt><trkpt lat="42.9544048" lon="12.7316942"><ele>310.5</ele><time>2026-04-05T13:41:39.424Z</time></trkpt><trkpt lat="42.9544363" lon="12.7318452"><ele>310.75</ele><time>2026-04-05T13:41:40.423Z</time></trkpt><trkpt lat="42.9544866" lon="12.7319813"><ele>311.0</ele><time>2026-04-05T13:41:41.423Z</time></trkpt><trkpt lat="42.95457" lon="12.7321182"><ele>311.75</ele><time>2026-04-05T13:41:42.424Z</time></trkpt><trkpt lat="42.9546765" lon="12.7322275"><ele>312.5</ele><time>2026-04-05T13:41:43.424Z</time></trkpt><trkpt lat="42.954796" lon="12.7323258"><ele>313.25</ele><time>2026-04-05T13:41:44.423Z</time></trkpt><trkpt lat="42.9549048" lon="12.7324216"><ele>314.0</ele><time>2026-04-05T13:41:45.424Z</time></trkpt><trkpt lat="42.9550106" lon="12.7325231"><ele>314.25</ele><time>2026-04-05T13:41:46.424Z</time></trkpt><trkpt lat="42.9550844" lon="12.7326402"><ele>314.5</ele><time>2026-04-05T13:41:47.424Z</time></trkpt><trkpt lat="42.9551392" lon="12.7327742"><ele>314.75</ele><time>2026-04-05T13:41:48.423Z</time></trkpt><trkpt lat="42.9551821" lon="12.7329256"><ele>315.0</ele><time>2026-04-05T13:41:49.424Z</time></trkpt><trkpt lat="42.9552171" lon="12.7331027"><ele>315.25</ele><time>2026-04-05T13:41:50.424Z</time></trkpt><trkpt lat="42.9552548" lon="12.7332766"><ele>315.5</ele><time>2026-04-05T13:41:51.424Z</time></trkpt><trkpt lat="42.9552152" lon="12.7334852"><ele>315.75</ele><time>2026-04-05T13:41:52.424Z</time></trkpt><trkpt lat="42.9552061" lon="12.7336717"><ele>316.0</ele><time>2026-04-05T13:41:53.423Z</time></trkpt><trkpt lat="42.9552062" lon="12.7338587"><ele>319.0</ele><time>2026-04-05T13:41:54.424Z</time></trkpt><trkpt lat="42.9552346" lon="12.7340342"><ele>322.0</ele><time>2026-04-05T13:41:55.424Z</time></trkpt><trkpt lat="42.955294" lon="12.7341869"><ele>325.0</ele><time>2026-04-05T13:41:56.424Z</time></trkpt><trkpt lat="42.9553719" lon="12.7343142"><ele>328.0</ele><time>2026-04-05T13:41:57.424Z</time></trkpt><trkpt lat="42.9554643" lon="12.7344166"><ele>329.0</ele><time>2026-04-05T13:41:58.424Z</time></trkpt><trkpt lat="42.9555795" lon="12.7344867"><ele>330.0</ele><time>2026-04-05T13:41:59.424Z</time></trkpt><trkpt lat="42.9557124" lon="12.734542"><ele>331.0</ele><time>2026-04-05T13:42:00.424Z</time></trkpt><trkpt lat="42.9558425" lon="12.7345917"><ele>332.0</ele><time>2026-04-05T13:42:01.423Z</time></trkpt><trkpt lat="42.9559996" lon="12.734649"><ele>332.0</ele><time>2026-04-05T13:42:02.423Z</time></trkpt><trkpt lat="42.9561462" lon="12.7347015"><ele>332.0</ele><time>2026-04-05T13:42:03.423Z</time></trkpt><trkpt lat="42.9562752" lon="12.7347614"><ele>332.0</ele><time>2026-04-05T13:42:04.424Z</time></trkpt><trkpt lat="42.9563827" lon="12.7348364"><ele>332.0</ele><time>2026-04-05T13:42:05.423Z</time></trkpt><trkpt lat="42.9564821" lon="12.7349267"><ele>332.0</ele><time>2026-04-05T13:42:06.423Z</time></trkpt><trkpt lat="42.9565124" lon="12.7350751"><ele>332.0</ele><time>2026-04-05T13:42:07.424Z</time></trkpt><trkpt lat="42.9565237" lon="12.7352366"><ele>332.0</ele><time>2026-04-05T13:42:08.424Z</time></trkpt><trkpt lat="42.9565176" lon="12.7354087"><ele>332.0</ele><time>2026-04-05T13:42:09.423Z</time></trkpt><trkpt lat="42.9564945" lon="12.7355927"><ele>334.25</ele><time>2026-04-05T13:42:10.424Z</time></trkpt><trkpt lat="42.9564707" lon="12.7357808"><ele>336.5</ele><time>2026-04-05T13:42:11.424Z</time></trkpt><trkpt lat="42.9564472" lon="12.7359584"><ele>338.75</ele><time>2026-04-05T13:42:12.424Z</time></trkpt><trkpt lat="42.9564208" lon="12.7361257"><ele>341.0</ele><time>2026-04-05T13:42:13.423Z</time></trkpt><trkpt lat="42.9564431" lon="12.7362605"><ele>343.25</ele><time>2026-04-05T13:42:14.424Z</time></trkpt><trkpt lat="42.9564883" lon="12.736387"><ele>345.5</ele><time>2026-04-05T13:42:15.423Z</time></trkpt><trkpt lat="42.9565281" lon="12.7364834"><ele>347.75</ele><time>2026-04-05T13:42:16.423Z</time></trkpt><trkpt lat="42.9566681" lon="12.7364901"><ele>350.0</ele><time>2026-04-05T13:42:17.424Z</time></trkpt><trkpt lat="42.9568158" lon="12.7364698"><ele>350.6666666666667</ele><time>2026-04-05T13:42:18.424Z</time></trkpt><trkpt lat="42.9569605" lon="12.7364396"><ele>351.3333333333333</ele><time>2026-04-05T13:42:19.424Z</time></trkpt><trkpt lat="42.9571131" lon="12.7364071"><ele>352.0</ele><time>2026-04-05T13:42:20.424Z</time></trkpt><trkpt lat="42.9572624" lon="12.7363818"><ele>352.0</ele><time>2026-04-05T13:42:21.424Z</time></trkpt><trkpt lat="42.9574005" lon="12.7363455"><ele>352.0</ele><time>2026-04-05T13:42:22.424Z</time></trkpt><trkpt lat="42.9575393" lon="12.7363513"><ele>352.0</ele><time>2026-04-05T13:42:23.423Z</time></trkpt><trkpt lat="42.9576589" lon="12.736419"><ele>352.0</ele><time>2026-04-05T13:42:24.424Z</time></trkpt><trkpt lat="42.9577801" lon="12.7365115"><ele>351.0</ele><time>2026-04-05T13:42:25.424Z</time></trkpt><trkpt lat="42.9579155" lon="12.7366119"><ele>350.0</ele><time>2026-04-05T13:42:26.424Z</time></trkpt><trkpt lat="42.9580574" lon="12.7367135"><ele>349.0</ele><time>2026-04-05T13:42:27.424Z</time></trkpt><trkpt lat="42.9582004" lon="12.7368176"><ele>353.3333333333333</ele><time>2026-04-05T13:42:28.424Z</time></trkpt><trkpt lat="42.9583479" lon="12.7369164"><ele>357.6666666666667</ele><time>2026-04-05T13:42:29.424Z</time></trkpt><trkpt lat="42.9584943" lon="12.7370293"><ele>362.0</ele><time>2026-04-05T13:42:30.424Z</time></trkpt><trkpt lat="42.9586313" lon="12.7371406"><ele>362.0</ele><time>2026-04-05T13:42:31.423Z</time></trkpt><trkpt lat="42.9587826" lon="12.7372423"><ele>362.0</ele><time>2026-04-05T13:42:32.424Z</time></trkpt><trkpt lat="42.958939" lon="12.7373204"><ele>362.0</ele><time>2026-04-05T13:42:33.424Z</time></trkpt><trkpt lat="42.9590964" lon="12.7373713"><ele>363.0</ele><time>2026-04-05T13:42:34.424Z</time></trkpt><trkpt lat="42.9592546" lon="12.737399"><ele>364.0</ele><time>2026-04-05T13:42:35.424Z</time></trkpt><trkpt lat="42.9594008" lon="12.7374001"><ele>365.0</ele><time>2026-04-05T13:42:36.423Z</time></trkpt><trkpt lat="42.9595387" lon="12.7373834"><ele>366.0</ele><time>2026-04-05T13:42:37.423Z</time></trkpt><trkpt lat="42.9596492" lon="12.7372902"><ele>366.0</ele><time>2026-04-05T13:42:38.424Z</time></trkpt><trkpt lat="42.9597606" lon="12.737206"><ele>366.0</ele><time>2026-04-05T13:42:39.424Z</time></trkpt><trkpt lat="42.959869" lon="12.7371264"><ele>366.0</ele><time>2026-04-05T13:42:40.424Z</time></trkpt><trkpt lat="42.9599959" lon="12.7370797"><ele>366.0</ele><time>2026-04-05T13:42:41.424Z</time></trkpt><trkpt lat="42.9601171" lon="12.7370687"><ele>366.25</ele><time>2026-04-05T13:42:42.424Z</time></trkpt><trkpt lat="42.9602375" lon="12.7371082"><ele>366.5</ele><time>2026-04-05T13:42:43.424Z</time></trkpt><trkpt lat="42.9603598" lon="12.7371773"><ele>366.75</ele><time>2026-04-05T13:42:44.424Z</time></trkpt><trkpt lat="42.9604812" lon="12.7372672"><ele>367.0</ele><time>2026-04-05T13:42:45.424Z</time></trkpt><trkpt lat="42.9606085" lon="12.7373656"><ele>367.0</ele><time>2026-04-05T13:42:46.424Z</time></trkpt><trkpt lat="42.9607259" lon="12.7374884"><ele>367.0</ele><time>2026-04-05T13:42:47.424Z</time></trkpt><trkpt lat="42.9608359" lon="12.7376228"><ele>367.0</ele><time>2026-04-05T13:42:48.424Z</time></trkpt><trkpt lat="42.9608994" lon="12.7377949"><ele>367.0</ele><time>2026-04-05T13:42:49.423Z</time></trkpt><trkpt lat="42.9609606" lon="12.7379782"><ele>369.3333333333333</ele><time>2026-04-05T13:42:50.424Z</time></trkpt><trkpt lat="42.9610196" lon="12.7381807"><ele>371.6666666666667</ele><time>2026-04-05T13:42:51.424Z</time></trkpt><trkpt lat="42.9610923" lon="12.7383721"><ele>374.0</ele><time>2026-04-05T13:42:52.423Z</time></trkpt><trkpt lat="42.9611916" lon="12.7385597"><ele>374.0</ele><time>2026-04-05T13:42:53.424Z</time></trkpt><trkpt lat="42.9612945" lon="12.7387275"><ele>374.0</ele><time>2026-04-05T13:42:54.423Z</time></trkpt><trkpt lat="42.9614054" lon="12.7388924"><ele>374.0</ele><time>2026-04-05T13:42:55.423Z</time></trkpt><trkpt lat="42.9615227" lon="12.7390536"><ele>374.0</ele><time>2026-04-05T13:42:56.424Z</time></trkpt><trkpt lat="42.9616272" lon="12.7392091"><ele>374.0</ele><time>2026-04-05T13:42:57.424Z</time></trkpt><trkpt lat="42.961731" lon="12.7393553"><ele>374.0</ele><time>2026-04-05T13:42:58.424Z</time></trkpt><trkpt lat="42.9618188" lon="12.7394961"><ele>374.0</ele><time>2026-04-05T13:42:59.423Z</time></trkpt><trkpt lat="42.9618651" lon="12.7396455"><ele>370.75</ele><time>2026-04-05T13:43:00.424Z</time></trkpt><trkpt lat="42.9619012" lon="12.7398153"><ele>367.5</ele><time>2026-04-05T13:43:01.423Z</time></trkpt><trkpt lat="42.9619181" lon="12.7399915"><ele>364.25</ele><time>2026-04-05T13:43:02.423Z</time></trkpt><trkpt lat="42.9618876" lon="12.7401737"><ele>361.0</ele><time>2026-04-05T13:43:03.424Z</time></trkpt><trkpt lat="42.9618692" lon="12.74037"><ele>361.0</ele><time>2026-04-05T13:43:04.424Z</time></trkpt><trkpt lat="42.9618741" lon="12.7405669"><ele>361.0</ele><time>2026-04-05T13:43:05.424Z</time></trkpt><trkpt lat="42.9619181" lon="12.7407681"><ele>361.0</ele><time>2026-04-05T13:43:06.424Z</time></trkpt><trkpt lat="42.9619709" lon="12.7409622"><ele>361.0</ele><time>2026-04-05T13:43:07.423Z</time></trkpt><trkpt lat="42.962055" lon="12.7411633"><ele>363.66666666666663</ele><time>2026-04-05T13:43:08.424Z</time></trkpt><trkpt lat="42.9621377" lon="12.7413774"><ele>366.3333333333333</ele><time>2026-04-05T13:43:09.424Z</time></trkpt><trkpt lat="42.9622204" lon="12.7415747"><ele>369.0</ele><time>2026-04-05T13:43:10.424Z</time></trkpt><trkpt lat="42.9623059" lon="12.741779"><ele>365.6666666666667</ele><time>2026-04-05T13:43:11.423Z</time></trkpt><trkpt lat="42.9623959" lon="12.7419867"><ele>362.33333333333337</ele><time>2026-04-05T13:43:12.423Z</time></trkpt><trkpt lat="42.9624864" lon="12.7422068"><ele>359.0</ele><time>2026-04-05T13:43:13.424Z</time></trkpt><trkpt lat="42.9625884" lon="12.7424247"><ele>359.0</ele><time>2026-04-05T13:43:14.424Z</time></trkpt><trkpt lat="42.9626856" lon="12.7426474"><ele>359.0</ele><time>2026-04-05T13:43:15.424Z</time></trkpt><trkpt lat="42.9627819" lon="12.7428631"><ele>359.0</ele><time>2026-04-05T13:43:16.423Z</time></trkpt><trkpt lat="42.9628752" lon="12.7430726"><ele>360.25</ele><time>2026-04-05T13:43:17.424Z</time></trkpt><trkpt lat="42.9629473" lon="12.7432332"><ele>361.5</ele><time>2026-04-05T13:43:18.423Z</time></trkpt><trkpt lat="42.9629963" lon="12.743389"><ele>362.75</ele><time>2026-04-05T13:43:19.423Z</time></trkpt><trkpt lat="42.9630247" lon="12.74353"><ele>364.0</ele><time>2026-04-05T13:43:20.423Z</time></trkpt><trkpt lat="42.9629996" lon="12.7436672"><ele>364.0</ele><time>2026-04-05T13:43:21.424Z</time></trkpt><trkpt lat="42.9629441" lon="12.7437737"><ele>364.0</ele><time>2026-04-05T13:43:22.423Z</time></trkpt><trkpt lat="42.9628718" lon="12.7438441"><ele>364.0</ele><time>2026-04-05T13:43:23.423Z</time></trkpt><trkpt lat="42.9627289" lon="12.7438484"><ele>364.0</ele><time>2026-04-05T13:43:24.424Z</time></trkpt><trkpt lat="42.9626032" lon="12.7438348"><ele>367.5</ele><time>2026-04-05T13:43:25.423Z</time></trkpt><trkpt lat="42.9624764" lon="12.7437961"><ele>371.0</ele><time>2026-04-05T13:43:26.424Z</time></trkpt><trkpt lat="42.9623358" lon="12.7437678"><ele>374.5</ele><time>2026-04-05T13:43:27.424Z</time></trkpt><trkpt lat="42.9621996" lon="12.7437366"><ele>378.0</ele><time>2026-04-05T13:43:28.424Z</time></trkpt><trkpt lat="42.9620811" lon="12.7437362"><ele>378.0</ele><time>2026-04-05T13:43:29.424Z</time></trkpt><trkpt lat="42.9619816" lon="12.7437663"><ele>378.0</ele><time>2026-04-05T13:43:30.424Z</time></trkpt><trkpt lat="42.9618811" lon="12.7438254"><ele>378.0</ele><time>2026-04-05T13:43:31.423Z</time></trkpt><trkpt lat="42.9618465" lon="12.7439542"><ele>378.0</ele><time>2026-04-05T13:43:32.424Z</time></trkpt><trkpt lat="42.9618291" lon="12.7440815"><ele>378.0</ele><time>2026-04-05T13:43:33.424Z</time></trkpt><trkpt lat="42.9618536" lon="12.7442133"><ele>378.0</ele><time>2026-04-05T13:43:34.423Z</time></trkpt><trkpt lat="42.9618943" lon="12.7443444"><ele>378.0</ele><time>2026-04-05T13:43:35.424Z</time></trkpt><trkpt lat="42.9620092" lon="12.7444404"><ele>378.0</ele><time>2026-04-05T13:43:36.424Z</time></trkpt><trkpt lat="42.9621189" lon="12.7445422"><ele>378.0</ele><time>2026-04-05T13:43:37.424Z</time></trkpt><trkpt lat="42.9622342" lon="12.7446451"><ele>381.66666666666663</ele><time>2026-04-05T13:43:38.424Z</time></trkpt><trkpt lat="42.9623513" lon="12.7447714"><ele>385.3333333333333</ele><time>2026-04-05T13:43:39.424Z</time></trkpt><trkpt lat="42.9624418" lon="12.7449454"><ele>389.0</ele><time>2026-04-05T13:43:40.424Z</time></trkpt><trkpt lat="42.9625261" lon="12.7451333"><ele>389.0</ele><time>2026-04-05T13:43:41.424Z</time></trkpt><trkpt lat="42.9626085" lon="12.7453101"><ele>389.0</ele><time>2026-04-05T13:43:42.424Z</time></trkpt><trkpt lat="42.9626862" lon="12.7454816"><ele>389.0</ele><time>2026-04-05T13:43:43.424Z</time></trkpt><trkpt lat="42.9627766" lon="12.7456396"><ele>389.0</ele><time>2026-04-05T13:43:44.424Z</time></trkpt><trkpt lat="42.9628646" lon="12.7457658"><ele>389.0</ele><time>2026-04-05T13:43:45.424Z</time></trkpt><trkpt lat="42.9629593" lon="12.7458709"><ele>389.0</ele><time>2026-04-05T13:43:46.424Z</time></trkpt><trkpt lat="42.9630867" lon="12.7458934"><ele>389.0</ele><time>2026-04-05T13:43:47.424Z</time></trkpt><trkpt lat="42.963223" lon="12.7458724"><ele>389.0</ele><time>2026-04-05T13:43:48.424Z</time></trkpt><trkpt lat="42.9633421" lon="12.7458284"><ele>388.25</ele><time>2026-04-05T13:43:49.424Z</time></trkpt><trkpt lat="42.9634702" lon="12.7457515"><ele>387.5</ele><time>2026-04-05T13:43:50.423Z</time></trkpt><trkpt lat="42.9635852" lon="12.7457041"><ele>386.75</ele><time>2026-04-05T13:43:51.424Z</time></trkpt><trkpt lat="42.9637101" lon="12.7456836"><ele>386.0</ele><time>2026-04-05T13:43:52.424Z</time></trkpt><trkpt lat="42.9638301" lon="12.745722"><ele>386.0</ele><time>2026-04-05T13:43:53.424Z</time></trkpt><trkpt lat="42.9639498" lon="12.7457818"><ele>386.0</ele><time>2026-04-05T13:43:54.423Z</time></trkpt><trkpt lat="42.9640563" lon="12.7458533"><ele>386.0</ele><time>2026-04-05T13:43:55.424Z</time></trkpt><trkpt lat="42.9641503" lon="12.7459405"><ele>386.0</ele><time>2026-04-05T13:43:56.423Z</time></trkpt><trkpt lat="42.9642454" lon="12.7460515"><ele>387.0</ele><time>2026-04-05T13:43:57.424Z</time></trkpt><trkpt lat="42.9643367" lon="12.7461748"><ele>388.0</ele><time>2026-04-05T13:43:58.424Z</time></trkpt><trkpt lat="42.9644279" lon="12.7463248"><ele>389.0</ele><time>2026-04-05T13:43:59.423Z</time></trkpt><trkpt lat="42.9645068" lon="12.7464878"><ele>390.0</ele><time>2026-04-05T13:44:00.423Z</time></trkpt><trkpt lat="42.9645867" lon="12.7466785"><ele>390.66666666666663</ele><time>2026-04-05T13:44:01.424Z</time></trkpt><trkpt lat="42.9646555" lon="12.7468806"><ele>391.3333333333333</ele><time>2026-04-05T13:44:02.424Z</time></trkpt><trkpt lat="42.9647276" lon="12.7470804"><ele>392.0</ele><time>2026-04-05T13:44:03.423Z</time></trkpt><trkpt lat="42.964793" lon="12.7472851"><ele>392.0</ele><time>2026-04-05T13:44:04.424Z</time></trkpt><trkpt lat="42.9648548" lon="12.7474883"><ele>392.0</ele><time>2026-04-05T13:44:05.424Z</time></trkpt><trkpt lat="42.964896" lon="12.7476709"><ele>392.0</ele><time>2026-04-05T13:44:06.424Z</time></trkpt><trkpt lat="42.9649396" lon="12.7478324"><ele>392.0</ele><time>2026-04-05T13:44:07.424Z</time></trkpt><trkpt lat="42.9649846" lon="12.7479748"><ele>395.6</ele><time>2026-04-05T13:44:08.423Z</time></trkpt><trkpt lat="42.9650403" lon="12.7481045"><ele>399.20000000000005</ele><time>2026-04-05T13:44:09.423Z</time></trkpt><trkpt lat="42.9651104" lon="12.748193"><ele>402.8</ele><time>2026-04-05T13:44:10.424Z</time></trkpt><trkpt lat="42.9652056" lon="12.7482404"><ele>406.4</ele><time>2026-04-05T13:44:11.424Z</time></trkpt><trkpt lat="42.9653274" lon="12.7482146"><ele>410.0</ele><time>2026-04-05T13:44:12.423Z</time></trkpt><trkpt lat="42.9654072" lon="12.7481445"><ele>410.0</ele><time>2026-04-05T13:44:13.424Z</time></trkpt><trkpt lat="42.9654567" lon="12.7480383"><ele>410.0</ele><time>2026-04-05T13:44:14.423Z</time></trkpt><trkpt lat="42.9654794" lon="12.7479104"><ele>410.0</ele><time>2026-04-05T13:44:15.424Z</time></trkpt><trkpt lat="42.9654795" lon="12.7477517"><ele>410.0</ele><time>2026-04-05T13:44:16.423Z</time></trkpt><trkpt lat="42.9654636" lon="12.7475892"><ele>410.0</ele><time>2026-04-05T13:44:17.424Z</time></trkpt><trkpt lat="42.9654566" lon="12.7474001"><ele>410.3333333333333</ele><time>2026-04-05T13:44:18.424Z</time></trkpt><trkpt lat="42.9654517" lon="12.7471945"><ele>410.66666666666663</ele><time>2026-04-05T13:44:19.424Z</time></trkpt><trkpt lat="42.9654512" lon="12.7469821"><ele>411.0</ele><time>2026-04-05T13:44:20.424Z</time></trkpt><trkpt lat="42.9654506" lon="12.7467623"><ele>411.66666666666663</ele><time>2026-04-05T13:44:21.424Z</time></trkpt><trkpt lat="42.9654338" lon="12.7465539"><ele>412.3333333333333</ele><time>2026-04-05T13:44:22.424Z</time></trkpt><trkpt lat="42.9654266" lon="12.7463288"><ele>413.0</ele><time>2026-04-05T13:44:23.424Z</time></trkpt><trkpt lat="42.9654213" lon="12.746109"><ele>411.75</ele><time>2026-04-05T13:44:24.424Z</time></trkpt><trkpt lat="42.9654122" lon="12.7459027"><ele>410.5</ele><time>2026-04-05T13:44:25.424Z</time></trkpt><trkpt lat="42.9654105" lon="12.7457085"><ele>409.25</ele><time>2026-04-05T13:44:26.424Z</time></trkpt><trkpt lat="42.9654099" lon="12.7455322"><ele>408.0</ele><time>2026-04-05T13:44:27.423Z</time></trkpt><trkpt lat="42.9654319" lon="12.7453638"><ele>408.0</ele><time>2026-04-05T13:44:28.423Z</time></trkpt><trkpt lat="42.9654926" lon="12.7452218"><ele>408.0</ele><time>2026-04-05T13:44:29.424Z</time></trkpt><trkpt lat="42.9655859" lon="12.7450986"><ele>408.0</ele><time>2026-04-05T13:44:30.423Z</time></trkpt><trkpt lat="42.965698" lon="12.7449957"><ele>408.0</ele><time>2026-04-05T13:44:31.424Z</time></trkpt><trkpt lat="42.9658067" lon="12.744932"><ele>405.25</ele><time>2026-04-05T13:44:32.424Z</time></trkpt><trkpt lat="42.965928" lon="12.7449133"><ele>402.5</ele><time>2026-04-05T13:44:33.424Z</time></trkpt><trkpt lat="42.9660518" lon="12.7449329"><ele>399.75</ele><time>2026-04-05T13:44:34.424Z</time></trkpt><trkpt lat="42.9661884" lon="12.7449758"><ele>397.0</ele><time>2026-04-05T13:44:35.423Z</time></trkpt><trkpt lat="42.9663319" lon="12.7450231"><ele>397.0</ele><time>2026-04-05T13:44:36.424Z</time></trkpt><trkpt lat="42.9664789" lon="12.7450694"><ele>397.0</ele><time>2026-04-05T13:44:37.424Z</time></trkpt><trkpt lat="42.9666297" lon="12.7451244"><ele>397.0</ele><time>2026-04-05T13:44:38.423Z</time></trkpt><trkpt lat="42.966782" lon="12.7451807"><ele>400.33333333333337</ele><time>2026-04-05T13:44:39.424Z</time></trkpt><trkpt lat="42.9669328" lon="12.7452514"><ele>403.66666666666663</ele><time>2026-04-05T13:44:40.424Z</time></trkpt><trkpt lat="42.9670906" lon="12.7453475"><ele>407.0</ele><time>2026-04-05T13:44:41.423Z</time></trkpt><trkpt lat="42.9672482" lon="12.7454529"><ele>407.0</ele><time>2026-04-05T13:44:42.424Z</time></trkpt><trkpt lat="42.9674053" lon="12.7455688"><ele>407.0</ele><time>2026-04-05T13:44:43.424Z</time></trkpt><trkpt lat="42.9675642" lon="12.7456898"><ele>407.0</ele><time>2026-04-05T13:44:44.424Z</time></trkpt><trkpt lat="42.967722" lon="12.7458178"><ele>408.66666666666663</ele><time>2026-04-05T13:44:45.424Z</time></trkpt><trkpt lat="42.967872" lon="12.7459549"><ele>410.33333333333337</ele><time>2026-04-05T13:44:46.424Z</time></trkpt><trkpt lat="42.9680109" lon="12.7460989"><ele>412.0</ele><time>2026-04-05T13:44:47.424Z</time></trkpt><trkpt lat="42.9681374" lon="12.7462612"><ele>412.0</ele><time>2026-04-05T13:44:48.424Z</time></trkpt><trkpt lat="42.9682584" lon="12.7464386"><ele>412.0</ele><time>2026-04-05T13:44:49.423Z</time></trkpt><trkpt lat="42.9683766" lon="12.746614"><ele>412.0</ele><time>2026-04-05T13:44:50.424Z</time></trkpt><trkpt lat="42.968493" lon="12.7467867"><ele>413.0</ele><time>2026-04-05T13:44:51.424Z</time></trkpt><trkpt lat="42.9686109" lon="12.7469548"><ele>414.0</ele><time>2026-04-05T13:44:52.424Z</time></trkpt><trkpt lat="42.9687356" lon="12.7471145"><ele>415.0</ele><time>2026-04-05T13:44:53.424Z</time></trkpt><trkpt lat="42.9688789" lon="12.7472549"><ele>415.0</ele><time>2026-04-05T13:44:54.424Z</time></trkpt><trkpt lat="42.9690242" lon="12.7473917"><ele>415.0</ele><time>2026-04-05T13:44:55.424Z</time></trkpt><trkpt lat="42.9691736" lon="12.7475194"><ele>415.0</ele><time>2026-04-05T13:44:56.424Z</time></trkpt><trkpt lat="42.9693147" lon="12.747645"><ele>416.25</ele><time>2026-04-05T13:44:57.424Z</time></trkpt><trkpt lat="42.9694501" lon="12.7477478"><ele>417.5</ele><time>2026-04-05T13:44:58.424Z</time></trkpt><trkpt lat="42.9695825" lon="12.7478329"><ele>418.75</ele><time>2026-04-05T13:44:59.423Z</time></trkpt><trkpt lat="42.9697182" lon="12.7478814"><ele>420.0</ele><time>2026-04-05T13:45:00.423Z</time></trkpt><trkpt lat="42.9698331" lon="12.7479276"><ele>420.0</ele><time>2026-04-05T13:45:01.424Z</time></trkpt><trkpt lat="42.9699401" lon="12.7479825"><ele>420.0</ele><time>2026-04-05T13:45:02.423Z</time></trkpt><trkpt lat="42.9700265" lon="12.7480678"><ele>420.0</ele><time>2026-04-05T13:45:03.424Z</time></trkpt><trkpt lat="42.9700706" lon="12.7481886"><ele>420.0</ele><time>2026-04-05T13:45:04.424Z</time></trkpt><trkpt lat="42.9701056" lon="12.7483098"><ele>420.0</ele><time>2026-04-05T13:45:05.424Z</time></trkpt><trkpt lat="42.9701361" lon="12.7484589"><ele>417.5</ele><time>2026-04-05T13:45:06.424Z</time></trkpt><trkpt lat="42.9701672" lon="12.7486134"><ele>415.0</ele><time>2026-04-05T13:45:07.424Z</time></trkpt><trkpt lat="42.9702224" lon="12.7487753"><ele>412.5</ele><time>2026-04-05T13:45:08.424Z</time></trkpt><trkpt lat="42.9702774" lon="12.748937"><ele>410.0</ele><time>2026-04-05T13:45:09.424Z</time></trkpt><trkpt lat="42.9703521" lon="12.7491155"><ele>410.0</ele><time>2026-04-05T13:45:10.423Z</time></trkpt><trkpt lat="42.9704275" lon="12.7492794"><ele>410.0</ele><time>2026-04-05T13:45:11.424Z</time></trkpt><trkpt lat="42.9705085" lon="12.7494459"><ele>410.0</ele><time>2026-04-05T13:45:12.424Z</time></trkpt><trkpt lat="42.9705874" lon="12.7496201"><ele>410.0</ele><time>2026-04-05T13:45:13.424Z</time></trkpt><trkpt lat="42.9706805" lon="12.7497768"><ele>409.25</ele><time>2026-04-05T13:45:14.423Z</time></trkpt><trkpt lat="42.9707672" lon="12.7499415"><ele>408.5</ele><time>2026-04-05T13:45:15.424Z</time></trkpt><trkpt lat="42.9708639" lon="12.7500907"><ele>407.75</ele><time>2026-04-05T13:45:16.424Z</time></trkpt><trkpt lat="42.9709575" lon="12.7502111"><ele>407.0</ele><time>2026-04-05T13:45:17.423Z</time></trkpt><trkpt lat="42.971074" lon="12.7502919"><ele>411.25</ele><time>2026-04-05T13:45:18.423Z</time></trkpt><trkpt lat="42.9711964" lon="12.7503607"><ele>415.5</ele><time>2026-04-05T13:45:19.423Z</time></trkpt><trkpt lat="42.9713286" lon="12.7504373"><ele>419.75</ele><time>2026-04-05T13:45:20.424Z</time></trkpt><trkpt lat="42.9714522" lon="12.7505455"><ele>424.0</ele><time>2026-04-05T13:45:21.424Z</time></trkpt><trkpt lat="42.9715768" lon="12.7506565"><ele>424.0</ele><time>2026-04-05T13:45:22.424Z</time></trkpt><trkpt lat="42.971656" lon="12.7508264"><ele>424.0</ele><time>2026-04-05T13:45:23.423Z</time></trkpt><trkpt lat="42.9717368" lon="12.751028"><ele>424.0</ele><time>2026-04-05T13:45:24.424Z</time></trkpt><trkpt lat="42.9718187" lon="12.7512206"><ele>423.0</ele><time>2026-04-05T13:45:25.423Z</time></trkpt><trkpt lat="42.9719023" lon="12.7514195"><ele>422.0</ele><time>2026-04-05T13:45:26.424Z</time></trkpt><trkpt lat="42.971976" lon="12.7516239"><ele>421.0</ele><time>2026-04-05T13:45:27.424Z</time></trkpt><trkpt lat="42.9720622" lon="12.7518151"><ele>425.33333333333337</ele><time>2026-04-05T13:45:28.424Z</time></trkpt><trkpt lat="42.9721462" lon="12.7520116"><ele>429.66666666666663</ele><time>2026-04-05T13:45:29.424Z</time></trkpt><trkpt lat="42.9722309" lon="12.7521952"><ele>434.0</ele><time>2026-04-05T13:45:30.424Z</time></trkpt><trkpt lat="42.9723222" lon="12.7523765"><ele>434.0</ele><time>2026-04-05T13:45:31.423Z</time></trkpt><trkpt lat="42.9724028" lon="12.7525569"><ele>434.0</ele><time>2026-04-05T13:45:32.424Z</time></trkpt><trkpt lat="42.9724668" lon="12.7527255"><ele>434.0</ele><time>2026-04-05T13:45:33.423Z</time></trkpt><trkpt lat="42.9725202" lon="12.7528966"><ele>434.0</ele><time>2026-04-05T13:45:34.423Z</time></trkpt><trkpt lat="42.9725819" lon="12.7530651"><ele>429.5</ele><time>2026-04-05T13:45:35.424Z</time></trkpt><trkpt lat="42.9726286" lon="12.7532471"><ele>425.0</ele><time>2026-04-05T13:45:36.424Z</time></trkpt><trkpt lat="42.9726679" lon="12.7534431"><ele>420.5</ele><time>2026-04-05T13:45:37.424Z</time></trkpt><trkpt lat="42.9726889" lon="12.7536301"><ele>416.0</ele><time>2026-04-05T13:45:38.424Z</time></trkpt><trkpt lat="42.972696" lon="12.7538199"><ele>416.0</ele><time>2026-04-05T13:45:39.424Z</time></trkpt><trkpt lat="42.9726981" lon="12.7540082"><ele>416.0</ele><time>2026-04-05T13:45:40.424Z</time></trkpt><trkpt lat="42.9726966" lon="12.7541934"><ele>416.0</ele><time>2026-04-05T13:45:41.424Z</time></trkpt><trkpt lat="42.9726871" lon="12.754384"><ele>416.0</ele><time>2026-04-05T13:45:42.424Z</time></trkpt><trkpt lat="42.972685" lon="12.7545679"><ele>420.75</ele><time>2026-04-05T13:45:43.424Z</time></trkpt><trkpt lat="42.9726939" lon="12.7547495"><ele>425.5</ele><time>2026-04-05T13:45:44.424Z</time></trkpt><trkpt lat="42.9727089" lon="12.7549251"><ele>430.25</ele><time>2026-04-05T13:45:45.423Z</time></trkpt><trkpt lat="42.9727336" lon="12.7550886"><ele>435.0</ele><time>2026-04-05T13:45:46.423Z</time></trkpt><trkpt lat="42.9727716" lon="12.7552442"><ele>442.75</ele><time>2026-04-05T13:45:47.424Z</time></trkpt><trkpt lat="42.9728182" lon="12.7553878"><ele>450.5</ele><time>2026-04-05T13:45:48.424Z</time></trkpt><trkpt lat="42.9728823" lon="12.7555124"><ele>458.25</ele><time>2026-04-05T13:45:49.424Z</time></trkpt><trkpt lat="42.9729699" lon="12.7556093"><ele>466.0</ele><time>2026-04-05T13:45:50.423Z</time></trkpt><trkpt lat="42.9730873" lon="12.7556633"><ele>466.0</ele><time>2026-04-05T13:45:51.423Z</time></trkpt><trkpt lat="42.9732102" lon="12.7556891"><ele>466.0</ele><time>2026-04-05T13:45:52.424Z</time></trkpt><trkpt lat="42.9733547" lon="12.7556784"><ele>466.0</ele><time>2026-04-05T13:45:53.424Z</time></trkpt><trkpt lat="42.9735002" lon="12.7556541"><ele>466.0</ele><time>2026-04-05T13:45:54.424Z</time></trkpt><trkpt lat="42.9736327" lon="12.7556138"><ele>470.0</ele><time>2026-04-05T13:45:55.424Z</time></trkpt><trkpt lat="42.9737696" lon="12.7555527"><ele>474.0</ele><time>2026-04-05T13:45:56.423Z</time></trkpt><trkpt lat="42.9739071" lon="12.7554891"><ele>478.0</ele><time>2026-04-05T13:45:57.424Z</time></trkpt><trkpt lat="42.9740455" lon="12.7554129"><ele>482.0</ele><time>2026-04-05T13:45:58.423Z</time></trkpt><trkpt lat="42.9741847" lon="12.7553281"><ele>482.5</ele><time>2026-04-05T13:45:59.424Z</time></trkpt><trkpt lat="42.9743204" lon="12.7552524"><ele>483.0</ele><time>2026-04-05T13:46:00.424Z</time></trkpt><trkpt lat="42.97446" lon="12.7551866"><ele>483.5</ele><time>2026-04-05T13:46:01.424Z</time></trkpt><trkpt lat="42.9746018" lon="12.7551348"><ele>484.0</ele><time>2026-04-05T13:46:02.424Z</time></trkpt><trkpt lat="42.9747426" lon="12.7551023"><ele>480.5</ele><time>2026-04-05T13:46:03.423Z</time></trkpt><trkpt lat="42.9748941" lon="12.7551108"><ele>477.0</ele><time>2026-04-05T13:46:04.424Z</time></trkpt><trkpt lat="42.9750428" lon="12.7551284"><ele>473.5</ele><time>2026-04-05T13:46:05.424Z</time></trkpt><trkpt lat="42.9751874" lon="12.7551693"><ele>470.0</ele><time>2026-04-05T13:46:06.424Z</time></trkpt><trkpt lat="42.9753284" lon="12.7552077"><ele>470.0</ele><time>2026-04-05T13:46:07.424Z</time></trkpt><trkpt lat="42.9754725" lon="12.7552511"><ele>470.0</ele><time>2026-04-05T13:46:08.424Z</time></trkpt><trkpt lat="42.9756195" lon="12.7553218"><ele>470.0</ele><time>2026-04-05T13:46:09.424Z</time></trkpt><trkpt lat="42.975772" lon="12.7554039"><ele>464.3333333333333</ele><time>2026-04-05T13:46:10.424Z</time></trkpt><trkpt lat="42.9759311" lon="12.7554985"><ele>458.66666666666663</ele><time>2026-04-05T13:46:11.424Z</time></trkpt><trkpt lat="42.9760847" lon="12.7555932"><ele>453.0</ele><time>2026-04-05T13:46:12.423Z</time></trkpt><trkpt lat="42.9762452" lon="12.755708"><ele>453.0</ele><time>2026-04-05T13:46:13.424Z</time></trkpt><trkpt lat="42.9764001" lon="12.7558285"><ele>453.0</ele><time>2026-04-05T13:46:14.423Z</time></trkpt><trkpt lat="42.9765441" lon="12.75595"><ele>453.0</ele><time>2026-04-05T13:46:15.424Z</time></trkpt><trkpt lat="42.9766908" lon="12.7560749"><ele>453.0</ele><time>2026-04-05T13:46:16.424Z</time></trkpt><trkpt lat="42.9768231" lon="12.7561961"><ele>453.0</ele><time>2026-04-05T13:46:17.424Z</time></trkpt><trkpt lat="42.9769474" lon="12.75631"><ele>453.0</ele><time>2026-04-05T13:46:18.423Z</time></trkpt><trkpt lat="42.9770725" lon="12.7564278"><ele>453.0</ele><time>2026-04-05T13:46:19.424Z</time></trkpt><trkpt lat="42.9771957" lon="12.7565512"><ele>453.0</ele><time>2026-04-05T13:46:20.424Z</time></trkpt><trkpt lat="42.9773043" lon="12.7566942"><ele>453.0</ele><time>2026-04-05T13:46:21.424Z</time></trkpt><trkpt lat="42.9774032" lon="12.7568529"><ele>450.66666666666663</ele><time>2026-04-05T13:46:22.424Z</time></trkpt><trkpt lat="42.9775151" lon="12.7570135"><ele>448.3333333333333</ele><time>2026-04-05T13:46:23.424Z</time></trkpt><trkpt lat="42.9776165" lon="12.7571801"><ele>446.0</ele><time>2026-04-05T13:46:24.424Z</time></trkpt><trkpt lat="42.9777212" lon="12.7573472"><ele>446.0</ele><time>2026-04-05T13:46:25.424Z</time></trkpt><trkpt lat="42.9778285" lon="12.7575044"><ele>446.0</ele><time>2026-04-05T13:46:26.424Z</time></trkpt><trkpt lat="42.9779227" lon="12.7576551"><ele>446.0</ele><time>2026-04-05T13:46:27.423Z</time></trkpt><trkpt lat="42.9780196" lon="12.7578041"><ele>446.0</ele><time>2026-04-05T13:46:28.423Z</time></trkpt><trkpt lat="42.9781099" lon="12.7579522"><ele>450.0</ele><time>2026-04-05T13:46:29.424Z</time></trkpt><trkpt lat="42.9782013" lon="12.7580988"><ele>454.0</ele><time>2026-04-05T13:46:30.424Z</time></trkpt><trkpt lat="42.9782975" lon="12.7582486"><ele>458.0</ele><time>2026-04-05T13:46:31.424Z</time></trkpt><trkpt lat="42.9783865" lon="12.7584095"><ele>462.0</ele><time>2026-04-05T13:46:32.423Z</time></trkpt><trkpt lat="42.9784835" lon="12.7585637"><ele>451.33333333333337</ele><time>2026-04-05T13:46:33.424Z</time></trkpt><trkpt lat="42.9785755" lon="12.7587254"><ele>440.6666666666667</ele><time>2026-04-05T13:46:34.423Z</time></trkpt><trkpt lat="42.9786616" lon="12.7588988"><ele>430.0</ele><time>2026-04-05T13:46:35.423Z</time></trkpt><trkpt lat="42.9787222" lon="12.7590865"><ele>430.0</ele><time>2026-04-05T13:46:36.424Z</time></trkpt><trkpt lat="42.978784" lon="12.7592822"><ele>430.0</ele><time>2026-04-05T13:46:37.423Z</time></trkpt><trkpt lat="42.9788292" lon="12.7594792"><ele>430.0</ele><time>2026-04-05T13:46:38.424Z</time></trkpt><trkpt lat="42.9788632" lon="12.7596864"><ele>431.6666666666667</ele><time>2026-04-05T13:46:39.424Z</time></trkpt><trkpt lat="42.978881" lon="12.7599151"><ele>433.33333333333337</ele><time>2026-04-05T13:46:40.423Z</time></trkpt><trkpt lat="42.9788954" lon="12.7601397"><ele>435.0</ele><time>2026-04-05T13:46:41.424Z</time></trkpt><trkpt lat="42.9789041" lon="12.7603603"><ele>437.66666666666663</ele><time>2026-04-05T13:46:42.424Z</time></trkpt><trkpt lat="42.9789187" lon="12.7605787"><ele>440.3333333333333</ele><time>2026-04-05T13:46:43.424Z</time></trkpt><trkpt lat="42.9789293" lon="12.7608036"><ele>443.0</ele><time>2026-04-05T13:46:44.424Z</time></trkpt><trkpt lat="42.9789349" lon="12.7610328"><ele>446.0</ele><time>2026-04-05T13:46:45.423Z</time></trkpt><trkpt lat="42.9789502" lon="12.7612661"><ele>449.0</ele><time>2026-04-05T13:46:46.424Z</time></trkpt><trkpt lat="42.9789581" lon="12.7614979"><ele>452.0</ele><time>2026-04-05T13:46:47.423Z</time></trkpt><trkpt lat="42.978965" lon="12.7617253"><ele>454.3333333333333</ele><time>2026-04-05T13:46:48.423Z</time></trkpt><trkpt lat="42.9789794" lon="12.7619577"><ele>456.66666666666663</ele><time>2026-04-05T13:46:49.424Z</time></trkpt><trkpt lat="42.9789934" lon="12.7622002"><ele>459.0</ele><time>2026-04-05T13:46:50.423Z</time></trkpt><trkpt lat="42.9790169" lon="12.7624386"><ele>459.0</ele><time>2026-04-05T13:46:51.424Z</time></trkpt><trkpt lat="42.9790494" lon="12.762674"><ele>459.0</ele><time>2026-04-05T13:46:52.424Z</time></trkpt><trkpt lat="42.979082" lon="12.7629068"><ele>459.0</ele><time>2026-04-05T13:46:53.424Z</time></trkpt><trkpt lat="42.9791128" lon="12.7631343"><ele>461.75</ele><time>2026-04-05T13:46:54.424Z</time></trkpt><trkpt lat="42.9791504" lon="12.7633471"><ele>464.5</ele><time>2026-04-05T13:46:55.424Z</time></trkpt><trkpt lat="42.9791943" lon="12.7635393"><ele>467.25</ele><time>2026-04-05T13:46:56.424Z</time></trkpt><trkpt lat="42.9792448" lon="12.7637022"><ele>470.0</ele><time>2026-04-05T13:46:57.424Z</time></trkpt><trkpt lat="42.9792765" lon="12.7638613"><ele>459.75</ele><time>2026-04-05T13:46:58.424Z</time></trkpt><trkpt lat="42.9793117" lon="12.7640203"><ele>449.5</ele><time>2026-04-05T13:46:59.424Z</time></trkpt><trkpt lat="42.9793446" lon="12.7641897"><ele>439.25</ele><time>2026-04-05T13:47:00.424Z</time></trkpt><trkpt lat="42.979366" lon="12.7643522"><ele>429.0</ele><time>2026-04-05T13:47:01.424Z</time></trkpt><trkpt lat="42.9793656" lon="12.7645249"><ele>428.25</ele><time>2026-04-05T13:47:02.424Z</time></trkpt><trkpt lat="42.9793469" lon="12.7646821"><ele>427.5</ele><time>2026-04-05T13:47:03.424Z</time></trkpt><trkpt lat="42.9793037" lon="12.7648241"><ele>426.75</ele><time>2026-04-05T13:47:04.424Z</time></trkpt><trkpt lat="42.9792162" lon="12.764952"><ele>426.0</ele><time>2026-04-05T13:47:05.424Z</time></trkpt><trkpt lat="42.9791074" lon="12.7650468"><ele>426.25</ele><time>2026-04-05T13:47:06.423Z</time></trkpt><trkpt lat="42.9789937" lon="12.7651032"><ele>426.5</ele><time>2026-04-05T13:47:07.424Z</time></trkpt><trkpt lat="42.9788513" lon="12.7651495"><ele>426.75</ele><time>2026-04-05T13:47:08.424Z</time></trkpt><trkpt lat="42.9787138" lon="12.7651961"><ele>427.0</ele><time>2026-04-05T13:47:09.424Z</time></trkpt><trkpt lat="42.9785681" lon="12.7652477"><ele>427.0</ele><time>2026-04-05T13:47:10.423Z</time></trkpt><trkpt lat="42.9784101" lon="12.7653028"><ele>427.0</ele><time>2026-04-05T13:47:11.424Z</time></trkpt><trkpt lat="42.9782569" lon="12.7653705"><ele>427.0</ele><time>2026-04-05T13:47:12.424Z</time></trkpt><trkpt lat="42.9781059" lon="12.7654493"><ele>433.33333333333337</ele><time>2026-04-05T13:47:13.423Z</time></trkpt><trkpt lat="42.9779577" lon="12.7655279"><ele>439.66666666666663</ele><time>2026-04-05T13:47:14.424Z</time></trkpt><trkpt lat="42.9778096" lon="12.7656353"><ele>446.0</ele><time>2026-04-05T13:47:15.423Z</time></trkpt><trkpt lat="42.977673" lon="12.7657591"><ele>446.0</ele><time>2026-04-05T13:47:16.424Z</time></trkpt><trkpt lat="42.9775485" lon="12.7658677"><ele>446.0</ele><time>2026-04-05T13:47:17.423Z</time></trkpt><trkpt lat="42.9774281" lon="12.7659933"><ele>446.0</ele><time>2026-04-05T13:47:18.424Z</time></trkpt><trkpt lat="42.97732" lon="12.7661061"><ele>446.0</ele><time>2026-04-05T13:47:19.424Z</time></trkpt><trkpt lat="42.9772173" lon="12.7662193"><ele>447.75</ele><time>2026-04-05T13:47:20.423Z</time></trkpt><trkpt lat="42.9771297" lon="12.7663169"><ele>449.5</ele><time>2026-04-05T13:47:21.424Z</time></trkpt><trkpt lat="42.9770405" lon="12.7664215"><ele>451.25</ele><time>2026-04-05T13:47:22.424Z</time></trkpt><trkpt lat="42.9769647" lon="12.7665449"><ele>453.0</ele><time>2026-04-05T13:47:23.423Z</time></trkpt><trkpt lat="42.9769131" lon="12.7666879"><ele>453.0</ele><time>2026-04-05T13:47:24.424Z</time></trkpt><trkpt lat="42.9768746" lon="12.7668348"><ele>452.99999999999994</ele><time>2026-04-05T13:47:25.424Z</time></trkpt><trkpt lat="42.9768505" lon="12.7669827"><ele>452.99999999999994</ele><time>2026-04-05T13:47:26.424Z</time></trkpt><trkpt lat="42.976836" lon="12.76712"><ele>453.0</ele><time>2026-04-05T13:47:27.424Z</time></trkpt><trkpt lat="42.9768214" lon="12.7672573"><ele>453.0</ele><time>2026-04-05T13:47:28.423Z</time></trkpt><trkpt lat="42.976832" lon="12.7674033"><ele>453.5</ele><time>2026-04-05T13:47:29.424Z</time></trkpt><trkpt lat="42.9768449" lon="12.7675245"><ele>454.0</ele><time>2026-04-05T13:47:30.424Z</time></trkpt><trkpt lat="42.9769277" lon="12.7676192"><ele>454.5</ele><time>2026-04-05T13:47:31.424Z</time></trkpt><trkpt lat="42.9770366" lon="12.7676991"><ele>455.0</ele><time>2026-04-05T13:47:32.424Z</time></trkpt><trkpt lat="42.9771574" lon="12.7677677"><ele>456.5</ele><time>2026-04-05T13:47:33.424Z</time></trkpt><trkpt lat="42.977283" lon="12.7678561"><ele>458.0</ele><time>2026-04-05T13:47:34.423Z</time></trkpt><trkpt lat="42.9774052" lon="12.767932"><ele>459.5</ele><time>2026-04-05T13:47:35.424Z</time></trkpt><trkpt lat="42.9775293" lon="12.7679988"><ele>461.0</ele><time>2026-04-05T13:47:36.424Z</time></trkpt><trkpt lat="42.9776575" lon="12.7680604"><ele>461.0</ele><time>2026-04-05T13:47:37.423Z</time></trkpt><trkpt lat="42.977793" lon="12.7681115"><ele>461.0</ele><time>2026-04-05T13:47:38.424Z</time></trkpt><trkpt lat="42.977918" lon="12.7681653"><ele>461.0</ele><time>2026-04-05T13:47:39.424Z</time></trkpt><trkpt lat="42.9780267" lon="12.7682248"><ele>461.0</ele><time>2026-04-05T13:47:40.423Z</time></trkpt><trkpt lat="42.9781314" lon="12.7683011"><ele>461.0</ele><time>2026-04-05T13:47:41.423Z</time></trkpt><trkpt lat="42.978239" lon="12.7683867"><ele>461.0</ele><time>2026-04-05T13:47:42.424Z</time></trkpt><trkpt lat="42.9783155" lon="12.7685319"><ele>461.0</ele><time>2026-04-05T13:47:43.423Z</time></trkpt><trkpt lat="42.9783766" lon="12.7686724"><ele>461.0</ele><time>2026-04-05T13:47:44.423Z</time></trkpt><trkpt lat="42.9784376" lon="12.7688202"><ele>460.75</ele><time>2026-04-05T13:47:45.424Z</time></trkpt><trkpt lat="42.9785074" lon="12.7689728"><ele>460.5</ele><time>2026-04-05T13:47:46.424Z</time></trkpt><trkpt lat="42.978587" lon="12.7691089"><ele>460.25</ele><time>2026-04-05T13:47:47.424Z</time></trkpt><trkpt lat="42.978667" lon="12.7692475"><ele>460.0</ele><time>2026-04-05T13:47:48.424Z</time></trkpt><trkpt lat="42.9787557" lon="12.7693699"><ele>465.75</ele><time>2026-04-05T13:47:49.424Z</time></trkpt><trkpt lat="42.9788424" lon="12.7694909"><ele>471.5</ele><time>2026-04-05T13:47:50.424Z</time></trkpt><trkpt lat="42.9789361" lon="12.7696179"><ele>477.25</ele><time>2026-04-05T13:47:51.424Z</time></trkpt><trkpt lat="42.9790158" lon="12.7697511"><ele>483.0</ele><time>2026-04-05T13:47:52.424Z</time></trkpt><trkpt lat="42.9791061" lon="12.7698728"><ele>478.75</ele><time>2026-04-05T13:47:53.424Z</time></trkpt><trkpt lat="42.9791931" lon="12.7700091"><ele>474.5</ele><time>2026-04-05T13:47:54.423Z</time></trkpt><trkpt lat="42.979279" lon="12.7701377"><ele>470.25</ele><time>2026-04-05T13:47:55.424Z</time></trkpt><trkpt lat="42.9793621" lon="12.7702729"><ele>466.0</ele><time>2026-04-05T13:47:56.423Z</time></trkpt><trkpt lat="42.9794445" lon="12.7704106"><ele>466.0</ele><time>2026-04-05T13:47:57.424Z</time></trkpt><trkpt lat="42.97952" lon="12.770543"><ele>466.0</ele><time>2026-04-05T13:47:58.424Z</time></trkpt><trkpt lat="42.9795926" lon="12.770683"><ele>466.0</ele><time>2026-04-05T13:47:59.424Z</time></trkpt><trkpt lat="42.9796627" lon="12.7707977"><ele>466.0</ele><time>2026-04-05T13:48:00.424Z</time></trkpt><trkpt lat="42.9797216" lon="12.7709142"><ele>466.0</ele><time>2026-04-05T13:48:01.424Z</time></trkpt><trkpt lat="42.9797785" lon="12.7710188"><ele>466.0</ele><time>2026-04-05T13:48:02.424Z</time></trkpt><trkpt lat="42.9798247" lon="12.7711352"><ele>466.0</ele><time>2026-04-05T13:48:03.424Z</time></trkpt><trkpt lat="42.9798722" lon="12.7712604"><ele>466.0</ele><time>2026-04-05T13:48:04.423Z</time></trkpt><trkpt lat="42.9798804" lon="12.7714088"><ele>466.0</ele><time>2026-04-05T13:48:05.424Z</time></trkpt><trkpt lat="42.9798825" lon="12.7715566"><ele>467.25</ele><time>2026-04-05T13:48:06.424Z</time></trkpt><trkpt lat="42.9798594" lon="12.7717131"><ele>468.5</ele><time>2026-04-05T13:48:07.423Z</time></trkpt><trkpt lat="42.9798217" lon="12.7718779"><ele>469.75</ele><time>2026-04-05T13:48:08.424Z</time></trkpt><trkpt lat="42.9797655" lon="12.7720442"><ele>471.0</ele><time>2026-04-05T13:48:09.424Z</time></trkpt><trkpt lat="42.9797001" lon="12.7721852"><ele>471.25</ele><time>2026-04-05T13:48:10.423Z</time></trkpt><trkpt lat="42.9796376" lon="12.7723303"><ele>471.5</ele><time>2026-04-05T13:48:11.424Z</time></trkpt><trkpt lat="42.9795718" lon="12.7724775"><ele>471.75</ele><time>2026-04-05T13:48:12.424Z</time></trkpt><trkpt lat="42.9795472" lon="12.7726195"><ele>472.0</ele><time>2026-04-05T13:48:13.423Z</time></trkpt><trkpt lat="42.9795317" lon="12.7727804"><ele>476.0</ele><time>2026-04-05T13:48:14.424Z</time></trkpt><trkpt lat="42.9796712" lon="12.7729217"><ele>480.0</ele><time>2026-04-05T13:48:15.423Z</time></trkpt><trkpt lat="42.9797442" lon="12.7730624"><ele>484.0</ele><time>2026-04-05T13:48:16.424Z</time></trkpt><trkpt lat="42.9798495" lon="12.7732075"><ele>488.0</ele><time>2026-04-05T13:48:17.424Z</time></trkpt><trkpt lat="42.9799531" lon="12.7733366"><ele>487.5</ele><time>2026-04-05T13:48:18.424Z</time></trkpt><trkpt lat="42.9800482" lon="12.773472"><ele>487.0</ele><time>2026-04-05T13:48:19.424Z</time></trkpt><trkpt lat="42.9801614" lon="12.7735974"><ele>486.5</ele><time>2026-04-05T13:48:20.424Z</time></trkpt><trkpt lat="42.9802882" lon="12.7736977"><ele>486.0</ele><time>2026-04-05T13:48:21.424Z</time></trkpt><trkpt lat="42.9804002" lon="12.7738004"><ele>486.0</ele><time>2026-04-05T13:48:22.424Z</time></trkpt><trkpt lat="42.9805047" lon="12.773882"><ele>486.0</ele><time>2026-04-05T13:48:23.423Z</time></trkpt><trkpt lat="42.9805967" lon="12.7739647"><ele>486.0</ele><time>2026-04-05T13:48:24.424Z</time></trkpt><trkpt lat="42.9806974" lon="12.7740429"><ele>486.0</ele><time>2026-04-05T13:48:25.424Z</time></trkpt><trkpt lat="42.9807977" lon="12.7741272"><ele>485.5</ele><time>2026-04-05T13:48:26.423Z</time></trkpt><trkpt lat="42.980893" lon="12.7742021"><ele>485.0</ele><time>2026-04-05T13:48:27.424Z</time></trkpt><trkpt lat="42.9809834" lon="12.7743108"><ele>484.5</ele><time>2026-04-05T13:48:28.424Z</time></trkpt><trkpt lat="42.9810703" lon="12.7744201"><ele>484.0</ele><time>2026-04-05T13:48:29.424Z</time></trkpt><trkpt lat="42.9811514" lon="12.7745538"><ele>484.0</ele><time>2026-04-05T13:48:30.424Z</time></trkpt><trkpt lat="42.9812213" lon="12.7747149"><ele>484.0</ele><time>2026-04-05T13:48:31.424Z</time></trkpt><trkpt lat="42.9812901" lon="12.7748786"><ele>484.0</ele><time>2026-04-05T13:48:32.424Z</time></trkpt><trkpt lat="42.9813544" lon="12.7750423"><ele>484.0</ele><time>2026-04-05T13:48:33.424Z</time></trkpt><trkpt lat="42.9814068" lon="12.7752304"><ele>485.25</ele><time>2026-04-05T13:48:34.423Z</time></trkpt><trkpt lat="42.981437" lon="12.775432"><ele>486.5</ele><time>2026-04-05T13:48:35.424Z</time></trkpt><trkpt lat="42.98147" lon="12.7756158"><ele>487.75</ele><time>2026-04-05T13:48:36.423Z</time></trkpt><trkpt lat="42.9814652" lon="12.7758118"><ele>489.0</ele><time>2026-04-05T13:48:37.424Z</time></trkpt><trkpt lat="42.9814607" lon="12.7760008"><ele>488.66666666666663</ele><time>2026-04-05T13:48:38.423Z</time></trkpt><trkpt lat="42.9814084" lon="12.7761915"><ele>488.3333333333333</ele><time>2026-04-05T13:48:39.424Z</time></trkpt><trkpt lat="42.9813562" lon="12.7763842"><ele>488.0</ele><time>2026-04-05T13:48:40.424Z</time></trkpt><trkpt lat="42.981302" lon="12.7765832"><ele>488.0</ele><time>2026-04-05T13:48:41.424Z</time></trkpt><trkpt lat="42.9812666" lon="12.7767837"><ele>488.0</ele><time>2026-04-05T13:48:42.424Z</time></trkpt><trkpt lat="42.9812327" lon="12.7769785"><ele>488.0</ele><time>2026-04-05T13:48:43.424Z</time></trkpt><trkpt lat="42.9812136" lon="12.7771909"><ele>488.0</ele><time>2026-04-05T13:48:44.424Z</time></trkpt><trkpt lat="42.9812022" lon="12.7773898"><ele>488.0</ele><time>2026-04-05T13:48:45.424Z</time></trkpt><trkpt lat="42.9811905" lon="12.7775845"><ele>488.0</ele><time>2026-04-05T13:48:46.424Z</time></trkpt><trkpt lat="42.9811846" lon="12.7777693"><ele>488.0</ele><time>2026-04-05T13:48:47.424Z</time></trkpt><trkpt lat="42.9811754" lon="12.7779464"><ele>488.0</ele><time>2026-04-05T13:48:48.424Z</time></trkpt><trkpt lat="42.9811542" lon="12.7781238"><ele>488.0</ele><time>2026-04-05T13:48:49.424Z</time></trkpt><trkpt lat="42.9811369" lon="12.7783027"><ele>488.0</ele><time>2026-04-05T13:48:50.424Z</time></trkpt><trkpt lat="42.9811009" lon="12.7784798"><ele>488.0</ele><time>2026-04-05T13:48:51.424Z</time></trkpt><trkpt lat="42.9810458" lon="12.7786567"><ele>487.5</ele><time>2026-04-05T13:48:52.423Z</time></trkpt><trkpt lat="42.9809904" lon="12.7788293"><ele>487.0</ele><time>2026-04-05T13:48:53.423Z</time></trkpt><trkpt lat="42.9809294" lon="12.7790047"><ele>486.5</ele><time>2026-04-05T13:48:54.424Z</time></trkpt><trkpt lat="42.9808605" lon="12.779179"><ele>486.0</ele><time>2026-04-05T13:48:55.424Z</time></trkpt><trkpt lat="42.9808013" lon="12.7793554"><ele>487.25</ele><time>2026-04-05T13:48:56.424Z</time></trkpt><trkpt lat="42.9807462" lon="12.7795288"><ele>488.5</ele><time>2026-04-05T13:48:57.424Z</time></trkpt><trkpt lat="42.9806943" lon="12.7796877"><ele>489.75</ele><time>2026-04-05T13:48:58.424Z</time></trkpt><trkpt lat="42.9806335" lon="12.7798428"><ele>491.0</ele><time>2026-04-05T13:48:59.424Z</time></trkpt><trkpt lat="42.9805757" lon="12.7799895"><ele>491.0</ele><time>2026-04-05T13:49:00.423Z</time></trkpt><trkpt lat="42.9804935" lon="12.7801232"><ele>491.0</ele><time>2026-04-05T13:49:01.424Z</time></trkpt><trkpt lat="42.9804051" lon="12.7802451"><ele>491.0</ele><time>2026-04-05T13:49:02.424Z</time></trkpt><trkpt lat="42.9803184" lon="12.7803581"><ele>491.0</ele><time>2026-04-05T13:49:03.424Z</time></trkpt><trkpt lat="42.9802224" lon="12.7804687"><ele>490.25</ele><time>2026-04-05T13:49:04.424Z</time></trkpt><trkpt lat="42.9801446" lon="12.7805898"><ele>489.5</ele><time>2026-04-05T13:49:05.424Z</time></trkpt><trkpt lat="42.9800541" lon="12.7807286"><ele>488.75</ele><time>2026-04-05T13:49:06.424Z</time></trkpt><trkpt lat="42.9799714" lon="12.7808799"><ele>488.0</ele><time>2026-04-05T13:49:07.424Z</time></trkpt><trkpt lat="42.9798996" lon="12.7810465"><ele>490.0</ele><time>2026-04-05T13:49:08.423Z</time></trkpt><trkpt lat="42.9798398" lon="12.7812295"><ele>492.0</ele><time>2026-04-05T13:49:09.424Z</time></trkpt><trkpt lat="42.9797974" lon="12.7814152"><ele>494.0</ele><time>2026-04-05T13:49:10.424Z</time></trkpt><trkpt lat="42.9797484" lon="12.7815804"><ele>496.0</ele><time>2026-04-05T13:49:11.423Z</time></trkpt><trkpt lat="42.9797142" lon="12.7817306"><ele>495.25</ele><time>2026-04-05T13:49:12.424Z</time></trkpt><trkpt lat="42.9796763" lon="12.7818926"><ele>494.5</ele><time>2026-04-05T13:49:13.424Z</time></trkpt><trkpt lat="42.9796607" lon="12.7820365"><ele>493.75</ele><time>2026-04-05T13:49:14.424Z</time></trkpt><trkpt lat="42.9796351" lon="12.7821855"><ele>493.0</ele><time>2026-04-05T13:49:15.424Z</time></trkpt><trkpt lat="42.9796336" lon="12.7823514"><ele>493.0</ele><time>2026-04-05T13:49:16.423Z</time></trkpt><trkpt lat="42.9796439" lon="12.7825157"><ele>493.0</ele><time>2026-04-05T13:49:17.423Z</time></trkpt><trkpt lat="42.9796433" lon="12.7826746"><ele>493.0</ele><time>2026-04-05T13:49:18.423Z</time></trkpt><trkpt lat="42.9796636" lon="12.7828276"><ele>493.0</ele><time>2026-04-05T13:49:19.423Z</time></trkpt><trkpt lat="42.9796788" lon="12.782968"><ele>492.79999999999995</ele><time>2026-04-05T13:49:20.423Z</time></trkpt><trkpt lat="42.9797034" lon="12.7831102"><ele>492.59999999999997</ele><time>2026-04-05T13:49:21.424Z</time></trkpt><trkpt lat="42.9797358" lon="12.783253"><ele>492.40000000000003</ele><time>2026-04-05T13:49:22.424Z</time></trkpt><trkpt lat="42.9797869" lon="12.7833831"><ele>492.20000000000005</ele><time>2026-04-05T13:49:23.424Z</time></trkpt><trkpt lat="42.9798409" lon="12.7835067"><ele>492.0</ele><time>2026-04-05T13:49:24.423Z</time></trkpt><trkpt lat="42.979921" lon="12.7836155"><ele>492.75</ele><time>2026-04-05T13:49:25.424Z</time></trkpt><trkpt lat="42.9800153" lon="12.7837243"><ele>493.5</ele><time>2026-04-05T13:49:26.423Z</time></trkpt><trkpt lat="42.9801157" lon="12.7838331"><ele>494.25</ele><time>2026-04-05T13:49:27.423Z</time></trkpt><trkpt lat="42.9802195" lon="12.7839435"><ele>495.0</ele><time>2026-04-05T13:49:28.424Z</time></trkpt><trkpt lat="42.9803226" lon="12.7840531"><ele>495.0</ele><time>2026-04-05T13:49:29.424Z</time></trkpt><trkpt lat="42.9804278" lon="12.7841617"><ele>495.0</ele><time>2026-04-05T13:49:30.423Z</time></trkpt><trkpt lat="42.9805354" lon="12.7842664"><ele>495.0</ele><time>2026-04-05T13:49:31.424Z</time></trkpt><trkpt lat="42.9806389" lon="12.7843714"><ele>495.0</ele><time>2026-04-05T13:49:32.423Z</time></trkpt><trkpt lat="42.9807329" lon="12.7844737"><ele>495.2</ele><time>2026-04-05T13:49:33.424Z</time></trkpt><trkpt lat="42.9808248" lon="12.7845775"><ele>495.4</ele><time>2026-04-05T13:49:34.424Z</time></trkpt><trkpt lat="42.9809073" lon="12.7846751"><ele>495.6</ele><time>2026-04-05T13:49:35.424Z</time></trkpt><trkpt lat="42.9809583" lon="12.7847986"><ele>495.8</ele><time>2026-04-05T13:49:36.424Z</time></trkpt><trkpt lat="42.9810159" lon="12.7849131"><ele>496.0</ele><time>2026-04-05T13:49:37.424Z</time></trkpt><trkpt lat="42.9810674" lon="12.7850455"><ele>497.20000000000005</ele><time>2026-04-05T13:49:38.424Z</time></trkpt><trkpt lat="42.9811146" lon="12.7851836"><ele>498.40000000000003</ele><time>2026-04-05T13:49:39.424Z</time></trkpt><trkpt lat="42.9811365" lon="12.785329"><ele>499.6</ele><time>2026-04-05T13:49:40.424Z</time></trkpt><trkpt lat="42.9811545" lon="12.7854713"><ele>500.8</ele><time>2026-04-05T13:49:41.424Z</time></trkpt><trkpt lat="42.9811593" lon="12.7856271"><ele>502.0</ele><time>2026-04-05T13:49:42.424Z</time></trkpt><trkpt lat="42.9811625" lon="12.7857867"><ele>502.0</ele><time>2026-04-05T13:49:43.424Z</time></trkpt><trkpt lat="42.9811643" lon="12.7859498"><ele>502.0</ele><time>2026-04-05T13:49:44.423Z</time></trkpt><trkpt lat="42.9811551" lon="12.7861199"><ele>502.0</ele><time>2026-04-05T13:49:45.424Z</time></trkpt><trkpt lat="42.9811349" lon="12.7863043"><ele>502.0</ele><time>2026-04-05T13:49:46.424Z</time></trkpt><trkpt lat="42.9811058" lon="12.7864903"><ele>503.75</ele><time>2026-04-05T13:49:47.424Z</time></trkpt><trkpt lat="42.981068" lon="12.7866816"><ele>505.5</ele><time>2026-04-05T13:49:48.424Z</time></trkpt><trkpt lat="42.9810196" lon="12.7868697"><ele>507.25</ele><time>2026-04-05T13:49:49.423Z</time></trkpt><trkpt lat="42.9809674" lon="12.7870486"><ele>509.0</ele><time>2026-04-05T13:49:50.424Z</time></trkpt><trkpt lat="42.9809009" lon="12.7872235"><ele>508.25</ele><time>2026-04-05T13:49:51.424Z</time></trkpt><trkpt lat="42.9808278" lon="12.7874024"><ele>507.5</ele><time>2026-04-05T13:49:52.423Z</time></trkpt><trkpt lat="42.9807456" lon="12.7875754"><ele>506.75</ele><time>2026-04-05T13:49:53.424Z</time></trkpt><trkpt lat="42.980661" lon="12.7877251"><ele>506.0</ele><time>2026-04-05T13:49:54.424Z</time></trkpt><trkpt lat="42.9805642" lon="12.7879004"><ele>511.66666666666663</ele><time>2026-04-05T13:49:55.424Z</time></trkpt><trkpt lat="42.9804653" lon="12.7880771"><ele>517.3333333333334</ele><time>2026-04-05T13:49:56.424Z</time></trkpt><trkpt lat="42.9803658" lon="12.7882633"><ele>523.0</ele><time>2026-04-05T13:49:57.424Z</time></trkpt><trkpt lat="42.9802834" lon="12.7884792"><ele>531.0</ele><time>2026-04-05T13:49:58.424Z</time></trkpt><trkpt lat="42.980208" lon="12.7887236"><ele>539.0</ele><time>2026-04-05T13:49:59.424Z</time></trkpt><trkpt lat="42.9801221" lon="12.788977"><ele>547.0</ele><time>2026-04-05T13:50:00.424Z</time></trkpt><trkpt lat="42.9800368" lon="12.7892428"><ele>537.6666666666667</ele><time>2026-04-05T13:50:01.424Z</time></trkpt><trkpt lat="42.9799409" lon="12.7895159"><ele>528.3333333333334</ele><time>2026-04-05T13:50:02.424Z</time></trkpt><trkpt lat="42.9798438" lon="12.7897866"><ele>519.0</ele><time>2026-04-05T13:50:03.424Z</time></trkpt><trkpt lat="42.9797332" lon="12.7900471"><ele>527.6666666666666</ele><time>2026-04-05T13:50:04.424Z</time></trkpt><trkpt lat="42.9796059" lon="12.7902865"><ele>536.3333333333333</ele><time>2026-04-05T13:50:05.424Z</time></trkpt><trkpt lat="42.9794759" lon="12.7905277"><ele>545.0</ele><time>2026-04-05T13:50:06.424Z</time></trkpt><trkpt lat="42.979346" lon="12.7907616"><ele>545.0</ele><time>2026-04-05T13:50:07.424Z</time></trkpt><trkpt lat="42.9792141" lon="12.7909896"><ele>545.0</ele><time>2026-04-05T13:50:08.424Z</time></trkpt><trkpt lat="42.9790949" lon="12.7912133"><ele>545.0</ele><time>2026-04-05T13:50:09.424Z</time></trkpt><trkpt lat="42.9789678" lon="12.7914289"><ele>543.3333333333333</ele><time>2026-04-05T13:50:10.424Z</time></trkpt><trkpt lat="42.9788472" lon="12.7916446"><ele>541.6666666666666</ele><time>2026-04-05T13:50:11.424Z</time></trkpt><trkpt lat="42.9787295" lon="12.7918491"><ele>540.0</ele><time>2026-04-05T13:50:12.424Z</time></trkpt><trkpt lat="42.9786185" lon="12.7920432"><ele>540.0</ele><time>2026-04-05T13:50:13.424Z</time></trkpt><trkpt lat="42.9785128" lon="12.7922363"><ele>540.0</ele><time>2026-04-05T13:50:14.424Z</time></trkpt><trkpt lat="42.9784145" lon="12.7924138"><ele>540.0</ele><time>2026-04-05T13:50:15.424Z</time></trkpt><trkpt lat="42.9783334" lon="12.7925758"><ele>532.75</ele><time>2026-04-05T13:50:16.424Z</time></trkpt><trkpt lat="42.9782785" lon="12.7927347"><ele>525.5</ele><time>2026-04-05T13:50:17.424Z</time></trkpt><trkpt lat="42.9782389" lon="12.7929036"><ele>518.25</ele><time>2026-04-05T13:50:18.423Z</time></trkpt><trkpt lat="42.9782265" lon="12.7930708"><ele>511.0</ele><time>2026-04-05T13:50:19.424Z</time></trkpt><trkpt lat="42.9782336" lon="12.7932447"><ele>511.0</ele><time>2026-04-05T13:50:20.424Z</time></trkpt><trkpt lat="42.9782836" lon="12.7933899"><ele>511.0</ele><time>2026-04-05T13:50:21.423Z</time></trkpt><trkpt lat="42.9783395" lon="12.7935152"><ele>511.0</ele><time>2026-04-05T13:50:22.424Z</time></trkpt><trkpt lat="42.9784038" lon="12.793635"><ele>511.0</ele><time>2026-04-05T13:50:23.423Z</time></trkpt><trkpt lat="42.9784778" lon="12.7937659"><ele>515.75</ele><time>2026-04-05T13:50:24.424Z</time></trkpt><trkpt lat="42.9785537" lon="12.7938846"><ele>520.5</ele><time>2026-04-05T13:50:25.423Z</time></trkpt><trkpt lat="42.9786144" lon="12.7940229"><ele>525.25</ele><time>2026-04-05T13:50:26.424Z</time></trkpt><trkpt lat="42.978669" lon="12.7941714"><ele>530.0</ele><time>2026-04-05T13:50:27.423Z</time></trkpt><trkpt lat="42.9787093" lon="12.7943459"><ele>530.0</ele><time>2026-04-05T13:50:28.423Z</time></trkpt><trkpt lat="42.9787489" lon="12.7945204"><ele>530.0</ele><time>2026-04-05T13:50:29.423Z</time></trkpt><trkpt lat="42.9787877" lon="12.7947017"><ele>530.0</ele><time>2026-04-05T13:50:30.424Z</time></trkpt><trkpt lat="42.9788125" lon="12.7948991"><ele>530.0</ele><time>2026-04-05T13:50:31.424Z</time></trkpt><trkpt lat="42.9788345" lon="12.7950886"><ele>530.25</ele><time>2026-04-05T13:50:32.424Z</time></trkpt><trkpt lat="42.9788442" lon="12.7952771"><ele>530.5</ele><time>2026-04-05T13:50:33.424Z</time></trkpt><trkpt lat="42.9788369" lon="12.7954783"><ele>530.75</ele><time>2026-04-05T13:50:34.424Z</time></trkpt><trkpt lat="42.9788109" lon="12.7956946"><ele>531.0</ele><time>2026-04-05T13:50:35.424Z</time></trkpt><trkpt lat="42.9787814" lon="12.7959017"><ele>533.3333333333334</ele><time>2026-04-05T13:50:36.424Z</time></trkpt><trkpt lat="42.9787272" lon="12.7961049"><ele>535.6666666666667</ele><time>2026-04-05T13:50:37.424Z</time></trkpt><trkpt lat="42.9786832" lon="12.7963143"><ele>538.0</ele><time>2026-04-05T13:50:38.424Z</time></trkpt><trkpt lat="42.9786439" lon="12.7965318"><ele>538.0</ele><time>2026-04-05T13:50:39.424Z</time></trkpt><trkpt lat="42.9786038" lon="12.7967704"><ele>538.0</ele><time>2026-04-05T13:50:40.424Z</time></trkpt><trkpt lat="42.9785727" lon="12.7970011"><ele>538.0</ele><time>2026-04-05T13:50:41.424Z</time></trkpt><trkpt lat="42.9785338" lon="12.7972203"><ele>535.0</ele><time>2026-04-05T13:50:42.424Z</time></trkpt><trkpt lat="42.9784977" lon="12.7974237"><ele>532.0</ele><time>2026-04-05T13:50:43.423Z</time></trkpt><trkpt lat="42.9784584" lon="12.797622"><ele>529.0</ele><time>2026-04-05T13:50:44.424Z</time></trkpt><trkpt lat="42.9784291" lon="12.7978328"><ele>526.3333333333334</ele><time>2026-04-05T13:50:45.424Z</time></trkpt><trkpt lat="42.9783911" lon="12.7980367"><ele>523.6666666666666</ele><time>2026-04-05T13:50:46.424Z</time></trkpt><trkpt lat="42.9783372" lon="12.7982384"><ele>521.0</ele><time>2026-04-05T13:50:47.424Z</time></trkpt><trkpt lat="42.9782822" lon="12.7984373"><ele>516.0</ele><time>2026-04-05T13:50:48.423Z</time></trkpt><trkpt lat="42.9782288" lon="12.7986285"><ele>511.0</ele><time>2026-04-05T13:50:49.424Z</time></trkpt><trkpt lat="42.9781701" lon="12.7988212"><ele>506.0</ele><time>2026-04-05T13:50:50.423Z</time></trkpt><trkpt lat="42.978098" lon="12.7990209"><ele>506.0</ele><time>2026-04-05T13:50:51.424Z</time></trkpt><trkpt lat="42.9780211" lon="12.7992233"><ele>506.0</ele><time>2026-04-05T13:50:52.424Z</time></trkpt><trkpt lat="42.9779332" lon="12.7994383"><ele>506.0</ele><time>2026-04-05T13:50:53.424Z</time></trkpt><trkpt lat="42.9778406" lon="12.7996633"><ele>508.3333333333333</ele><time>2026-04-05T13:50:54.424Z</time></trkpt><trkpt lat="42.9777406" lon="12.7999005"><ele>510.66666666666663</ele><time>2026-04-05T13:50:55.423Z</time></trkpt><trkpt lat="42.9776321" lon="12.8001502"><ele>513.0</ele><time>2026-04-05T13:50:56.424Z</time></trkpt><trkpt lat="42.977517" lon="12.800403"><ele>513.0</ele><time>2026-04-05T13:50:57.423Z</time></trkpt><trkpt lat="42.977401" lon="12.8006745"><ele>513.0</ele><time>2026-04-05T13:50:58.423Z</time></trkpt><trkpt lat="42.977278" lon="12.8009437"><ele>519.0</ele><time>2026-04-05T13:50:59.424Z</time></trkpt><trkpt lat="42.9771517" lon="12.8012151"><ele>525.0</ele><time>2026-04-05T13:51:00.423Z</time></trkpt><trkpt lat="42.9770348" lon="12.8014832"><ele>525.0</ele><time>2026-04-05T13:51:01.424Z</time></trkpt><trkpt lat="42.9769133" lon="12.8017533"><ele>525.0</ele><time>2026-04-05T13:51:02.424Z</time></trkpt><trkpt lat="42.9767925" lon="12.8020319"><ele>522.0</ele><time>2026-04-05T13:51:03.424Z</time></trkpt><trkpt lat="42.9766623" lon="12.8023093"><ele>519.0</ele><time>2026-04-05T13:51:04.423Z</time></trkpt><trkpt lat="42.9765351" lon="12.8025933"><ele>529.0</ele><time>2026-04-05T13:51:05.423Z</time></trkpt><trkpt lat="42.9764089" lon="12.8028693"><ele>539.0</ele><time>2026-04-05T13:51:06.423Z</time></trkpt><trkpt lat="42.9762814" lon="12.8031328"><ele>539.0</ele><time>2026-04-05T13:51:07.423Z</time></trkpt><trkpt lat="42.976149" lon="12.8033953"><ele>539.0</ele><time>2026-04-05T13:51:08.424Z</time></trkpt><trkpt lat="42.9760307" lon="12.8036451"><ele>533.3333333333333</ele><time>2026-04-05T13:51:09.424Z</time></trkpt><trkpt lat="42.9759171" lon="12.8038758"><ele>527.6666666666666</ele><time>2026-04-05T13:51:10.423Z</time></trkpt><trkpt lat="42.9758102" lon="12.8041089"><ele>522.0</ele><time>2026-04-05T13:51:11.424Z</time></trkpt><trkpt lat="42.9757068" lon="12.8043276"><ele>526.6666666666666</ele><time>2026-04-05T13:51:12.424Z</time></trkpt><trkpt lat="42.9756153" lon="12.8045343"><ele>531.3333333333333</ele><time>2026-04-05T13:51:13.424Z</time></trkpt><trkpt lat="42.9755199" lon="12.8047311"><ele>536.0</ele><time>2026-04-05T13:51:14.424Z</time></trkpt><trkpt lat="42.9754191" lon="12.80492"><ele>536.0</ele><time>2026-04-05T13:51:15.424Z</time></trkpt><trkpt lat="42.9753069" lon="12.8051018"><ele>536.0</ele><time>2026-04-05T13:51:16.424Z</time></trkpt><trkpt lat="42.9751792" lon="12.8052603"><ele>536.0</ele><time>2026-04-05T13:51:17.423Z</time></trkpt><trkpt lat="42.9750341" lon="12.8054089"><ele>532.0</ele><time>2026-04-05T13:51:18.424Z</time></trkpt><trkpt lat="42.9748883" lon="12.8055416"><ele>528.0</ele><time>2026-04-05T13:51:19.424Z</time></trkpt><trkpt lat="42.9747287" lon="12.8056428"><ele>524.0</ele><time>2026-04-05T13:51:20.424Z</time></trkpt><trkpt lat="42.9745553" lon="12.8057279"><ele>524.0</ele><time>2026-04-05T13:51:21.424Z</time></trkpt><trkpt lat="42.9743862" lon="12.8058102"><ele>524.0</ele><time>2026-04-05T13:51:22.423Z</time></trkpt><trkpt lat="42.9742226" lon="12.8059065"><ele>524.0</ele><time>2026-04-05T13:51:23.424Z</time></trkpt><trkpt lat="42.9740604" lon="12.8060044"><ele>526.3333333333333</ele><time>2026-04-05T13:51:24.424Z</time></trkpt><trkpt lat="42.9739092" lon="12.8061237"><ele>528.6666666666666</ele><time>2026-04-05T13:51:25.424Z</time></trkpt><trkpt lat="42.9737563" lon="12.806268"><ele>531.0</ele><time>2026-04-05T13:51:26.423Z</time></trkpt><trkpt lat="42.9736113" lon="12.8064276"><ele>531.0</ele><time>2026-04-05T13:51:27.423Z</time></trkpt><trkpt lat="42.9734747" lon="12.8065998"><ele>531.0</ele><time>2026-04-05T13:51:28.424Z</time></trkpt><trkpt lat="42.9733508" lon="12.8067774"><ele>531.0</ele><time>2026-04-05T13:51:29.424Z</time></trkpt><trkpt lat="42.9732219" lon="12.8069606"><ele>530.0</ele><time>2026-04-05T13:51:30.424Z</time></trkpt><trkpt lat="42.973097" lon="12.8071394"><ele>529.0</ele><time>2026-04-05T13:51:31.423Z</time></trkpt><trkpt lat="42.972978" lon="12.8073042"><ele>528.0</ele><time>2026-04-05T13:51:32.424Z</time></trkpt><trkpt lat="42.9728703" lon="12.8074703"><ele>528.0</ele><time>2026-04-05T13:51:33.423Z</time></trkpt><trkpt lat="42.9727779" lon="12.8076461"><ele>528.0</ele><time>2026-04-05T13:51:34.424Z</time></trkpt><trkpt lat="42.9726927" lon="12.8078342"><ele>528.0</ele><time>2026-04-05T13:51:35.424Z</time></trkpt><trkpt lat="42.9726213" lon="12.8080249"><ele>528.3333333333334</ele><time>2026-04-05T13:51:36.424Z</time></trkpt><trkpt lat="42.9725487" lon="12.8082248"><ele>528.6666666666667</ele><time>2026-04-05T13:51:37.423Z</time></trkpt><trkpt lat="42.9724783" lon="12.8084215"><ele>529.0</ele><time>2026-04-05T13:51:38.424Z</time></trkpt><trkpt lat="42.9724213" lon="12.8085958"><ele>529.75</ele><time>2026-04-05T13:51:39.424Z</time></trkpt><trkpt lat="42.9723634" lon="12.8087698"><ele>530.5</ele><time>2026-04-05T13:51:40.423Z</time></trkpt><trkpt lat="42.9723103" lon="12.8089347"><ele>531.25</ele><time>2026-04-05T13:51:41.424Z</time></trkpt><trkpt lat="42.9722751" lon="12.8090901"><ele>532.0</ele><time>2026-04-05T13:51:42.423Z</time></trkpt><trkpt lat="42.9722588" lon="12.8092446"><ele>531.6</ele><time>2026-04-05T13:51:43.424Z</time></trkpt><trkpt lat="42.97228" lon="12.809393"><ele>531.2</ele><time>2026-04-05T13:51:44.424Z</time></trkpt><trkpt lat="42.9723162" lon="12.8095218"><ele>530.8</ele><time>2026-04-05T13:51:45.423Z</time></trkpt><trkpt lat="42.9723994" lon="12.8096314"><ele>530.4</ele><time>2026-04-05T13:51:46.423Z</time></trkpt><trkpt lat="42.9724846" lon="12.8097436"><ele>530.0</ele><time>2026-04-05T13:51:47.424Z</time></trkpt><trkpt lat="42.9725682" lon="12.8098628"><ele>533.5</ele><time>2026-04-05T13:51:48.424Z</time></trkpt><trkpt lat="42.9726524" lon="12.8099848"><ele>537.0</ele><time>2026-04-05T13:51:49.423Z</time></trkpt><trkpt lat="42.9727333" lon="12.8101034"><ele>540.5</ele><time>2026-04-05T13:51:50.423Z</time></trkpt><trkpt lat="42.9728084" lon="12.8102307"><ele>544.0</ele><time>2026-04-05T13:51:51.424Z</time></trkpt><trkpt lat="42.9728787" lon="12.8103664"><ele>544.0</ele><time>2026-04-05T13:51:52.423Z</time></trkpt><trkpt lat="42.9729474" lon="12.8105238"><ele>544.0</ele><time>2026-04-05T13:51:53.424Z</time></trkpt><trkpt lat="42.9730019" lon="12.8107136"><ele>544.0</ele><time>2026-04-05T13:51:54.423Z</time></trkpt><trkpt lat="42.9730527" lon="12.8109035"><ele>544.0</ele><time>2026-04-05T13:51:55.424Z</time></trkpt><trkpt lat="42.9730876" lon="12.8111081"><ele>541.6666666666667</ele><time>2026-04-05T13:51:56.424Z</time></trkpt><trkpt lat="42.973105" lon="12.8113287"><ele>539.3333333333334</ele><time>2026-04-05T13:51:57.424Z</time></trkpt><trkpt lat="42.9731012" lon="12.8115651"><ele>537.0</ele><time>2026-04-05T13:51:58.424Z</time></trkpt><trkpt lat="42.9731065" lon="12.8117979"><ele>536.6666666666666</ele><time>2026-04-05T13:51:59.424Z</time></trkpt><trkpt lat="42.9731086" lon="12.8120154"><ele>536.3333333333333</ele><time>2026-04-05T13:52:00.423Z</time></trkpt><trkpt lat="42.9731109" lon="12.8122377"><ele>536.0</ele><time>2026-04-05T13:52:01.424Z</time></trkpt><trkpt lat="42.9731131" lon="12.812471"><ele>536.0</ele><time>2026-04-05T13:52:02.424Z</time></trkpt><trkpt lat="42.9731145" lon="12.812705"><ele>536.0</ele><time>2026-04-05T13:52:03.424Z</time></trkpt><trkpt lat="42.973128" lon="12.8129405"><ele>536.0</ele><time>2026-04-05T13:52:04.424Z</time></trkpt><trkpt lat="42.9731619" lon="12.8131741"><ele>536.0</ele><time>2026-04-05T13:52:05.424Z</time></trkpt><trkpt lat="42.9732074" lon="12.8134116"><ele>536.0</ele><time>2026-04-05T13:52:06.423Z</time></trkpt><trkpt lat="42.9732627" lon="12.8136533"><ele>536.0</ele><time>2026-04-05T13:52:07.424Z</time></trkpt><trkpt lat="42.9733291" lon="12.8138933"><ele>541.3333333333333</ele><time>2026-04-05T13:52:08.424Z</time></trkpt><trkpt lat="42.9734033" lon="12.8141303"><ele>546.6666666666666</ele><time>2026-04-05T13:52:09.424Z</time></trkpt><trkpt lat="42.9734733" lon="12.8143691"><ele>552.0</ele><time>2026-04-05T13:52:10.424Z</time></trkpt><trkpt lat="42.9735316" lon="12.8146116"><ele>552.0</ele><time>2026-04-05T13:52:11.424Z</time></trkpt><trkpt lat="42.9735815" lon="12.8148463"><ele>552.0</ele><time>2026-04-05T13:52:12.424Z</time></trkpt><trkpt lat="42.9736193" lon="12.8150895"><ele>552.0</ele><time>2026-04-05T13:52:13.423Z</time></trkpt><trkpt lat="42.9736587" lon="12.8153481"><ele>552.0</ele><time>2026-04-05T13:52:14.423Z</time></trkpt><trkpt lat="42.9736911" lon="12.8156085"><ele>552.0</ele><time>2026-04-05T13:52:15.424Z</time></trkpt><trkpt lat="42.9737341" lon="12.8158662"><ele>552.0</ele><time>2026-04-05T13:52:16.424Z</time></trkpt><trkpt lat="42.9737971" lon="12.8161129"><ele>551.3333333333334</ele><time>2026-04-05T13:52:17.424Z</time></trkpt><trkpt lat="42.9738589" lon="12.8163731"><ele>550.6666666666667</ele><time>2026-04-05T13:52:18.423Z</time></trkpt><trkpt lat="42.9739205" lon="12.8166344"><ele>550.0</ele><time>2026-04-05T13:52:19.424Z</time></trkpt><trkpt lat="42.973986" lon="12.8168996"><ele>547.0</ele><time>2026-04-05T13:52:20.424Z</time></trkpt><trkpt lat="42.9740496" lon="12.817154"><ele>544.0</ele><time>2026-04-05T13:52:21.423Z</time></trkpt><trkpt lat="42.9741116" lon="12.8174116"><ele>541.0</ele><time>2026-04-05T13:52:22.423Z</time></trkpt><trkpt lat="42.974173" lon="12.817671"><ele>547.3333333333334</ele><time>2026-04-05T13:52:23.423Z</time></trkpt><trkpt lat="42.9742395" lon="12.8179196"><ele>553.6666666666666</ele><time>2026-04-05T13:52:24.424Z</time></trkpt><trkpt lat="42.9743196" lon="12.8181671"><ele>560.0</ele><time>2026-04-05T13:52:25.423Z</time></trkpt><trkpt lat="42.9744023" lon="12.8184082"><ele>557.0</ele><time>2026-04-05T13:52:26.424Z</time></trkpt><trkpt lat="42.9744989" lon="12.818642"><ele>554.0</ele><time>2026-04-05T13:52:27.424Z</time></trkpt><trkpt lat="42.9746007" lon="12.8188786"><ele>551.0</ele><time>2026-04-05T13:52:28.424Z</time></trkpt><trkpt lat="42.9747063" lon="12.8191083"><ele>553.3333333333333</ele><time>2026-04-05T13:52:29.423Z</time></trkpt><trkpt lat="42.9748201" lon="12.8193373"><ele>555.6666666666666</ele><time>2026-04-05T13:52:30.424Z</time></trkpt><trkpt lat="42.9749279" lon="12.8195621"><ele>558.0</ele><time>2026-04-05T13:52:31.424Z</time></trkpt><trkpt lat="42.9750415" lon="12.8197872"><ele>558.0</ele><time>2026-04-05T13:52:32.424Z</time></trkpt><trkpt lat="42.9751502" lon="12.8200022"><ele>558.0</ele><time>2026-04-05T13:52:33.424Z</time></trkpt><trkpt lat="42.9752574" lon="12.820225"><ele>558.0</ele><time>2026-04-05T13:52:34.423Z</time></trkpt><trkpt lat="42.9753708" lon="12.8204455"><ele>553.0</ele><time>2026-04-05T13:52:35.424Z</time></trkpt><trkpt lat="42.9754844" lon="12.8206663"><ele>548.0</ele><time>2026-04-05T13:52:36.424Z</time></trkpt><trkpt lat="42.9755987" lon="12.8208814"><ele>543.0</ele><time>2026-04-05T13:52:37.423Z</time></trkpt><trkpt lat="42.9757168" lon="12.821094"><ele>543.0</ele><time>2026-04-05T13:52:38.423Z</time></trkpt><trkpt lat="42.9758327" lon="12.8213122"><ele>543.0</ele><time>2026-04-05T13:52:39.424Z</time></trkpt><trkpt lat="42.9759453" lon="12.8215407"><ele>543.0</ele><time>2026-04-05T13:52:40.424Z</time></trkpt><trkpt lat="42.9760587" lon="12.8217674"><ele>541.6666666666666</ele><time>2026-04-05T13:52:41.424Z</time></trkpt><trkpt lat="42.9761703" lon="12.8219804"><ele>540.3333333333333</ele><time>2026-04-05T13:52:42.424Z</time></trkpt><trkpt lat="42.9762826" lon="12.8221974"><ele>539.0</ele><time>2026-04-05T13:52:43.424Z</time></trkpt><trkpt lat="42.976395" lon="12.8224088"><ele>539.0</ele><time>2026-04-05T13:52:44.424Z</time></trkpt><trkpt lat="42.9765025" lon="12.822624"><ele>539.0</ele><time>2026-04-05T13:52:45.423Z</time></trkpt><trkpt lat="42.9765978" lon="12.8228503"><ele>539.0</ele><time>2026-04-05T13:52:46.424Z</time></trkpt><trkpt lat="42.9766822" lon="12.8230822"><ele>541.3333333333333</ele><time>2026-04-05T13:52:47.423Z</time></trkpt><trkpt lat="42.976754" lon="12.8233356"><ele>543.6666666666666</ele><time>2026-04-05T13:52:48.424Z</time></trkpt><trkpt lat="42.9768084" lon="12.8235874"><ele>546.0</ele><time>2026-04-05T13:52:49.424Z</time></trkpt><trkpt lat="42.9768647" lon="12.8238502"><ele>546.0</ele><time>2026-04-05T13:52:50.424Z</time></trkpt><trkpt lat="42.9769122" lon="12.8241083"><ele>546.0</ele><time>2026-04-05T13:52:51.424Z</time></trkpt><trkpt lat="42.976952" lon="12.8243795"><ele>546.0</ele><time>2026-04-05T13:52:52.424Z</time></trkpt><trkpt lat="42.9769977" lon="12.8246287"><ele>546.3333333333334</ele><time>2026-04-05T13:52:53.424Z</time></trkpt><trkpt lat="42.9770384" lon="12.824876"><ele>546.6666666666667</ele><time>2026-04-05T13:52:54.424Z</time></trkpt><trkpt lat="42.9770933" lon="12.8251185"><ele>547.0</ele><time>2026-04-05T13:52:55.423Z</time></trkpt><trkpt lat="42.9771529" lon="12.8253645"><ele>547.0</ele><time>2026-04-05T13:52:56.424Z</time></trkpt><trkpt lat="42.9772272" lon="12.8255953"><ele>547.0</ele><time>2026-04-05T13:52:57.424Z</time></trkpt><trkpt lat="42.9773144" lon="12.8258084"><ele>547.0</ele><time>2026-04-05T13:52:58.423Z</time></trkpt><trkpt lat="42.977421" lon="12.826016"><ele>545.3333333333334</ele><time>2026-04-05T13:52:59.424Z</time></trkpt><trkpt lat="42.9775379" lon="12.8262117"><ele>543.6666666666666</ele><time>2026-04-05T13:53:00.423Z</time></trkpt><trkpt lat="42.9776726" lon="12.8263864"><ele>542.0</ele><time>2026-04-05T13:53:01.424Z</time></trkpt><trkpt lat="42.9778134" lon="12.8265554"><ele>542.0</ele><time>2026-04-05T13:53:02.423Z</time></trkpt><trkpt lat="42.9779605" lon="12.8267099"><ele>542.0</ele><time>2026-04-05T13:53:03.424Z</time></trkpt><trkpt lat="42.9781073" lon="12.8268508"><ele>542.0</ele><time>2026-04-05T13:53:04.423Z</time></trkpt><trkpt lat="42.97828" lon="12.8269643"><ele>544.0</ele><time>2026-04-05T13:53:05.423Z</time></trkpt><trkpt lat="42.9784523" lon="12.8270715"><ele>546.0</ele><time>2026-04-05T13:53:06.424Z</time></trkpt><trkpt lat="42.978635" lon="12.8271691"><ele>548.0</ele><time>2026-04-05T13:53:07.424Z</time></trkpt><trkpt lat="42.978819" lon="12.8272661"><ele>548.0</ele><time>2026-04-05T13:53:08.424Z</time></trkpt><trkpt lat="42.9790025" lon="12.8273648"><ele>548.0</ele><time>2026-04-05T13:53:09.423Z</time></trkpt><trkpt lat="42.9791879" lon="12.8274615"><ele>548.0</ele><time>2026-04-05T13:53:10.424Z</time></trkpt><trkpt lat="42.9793766" lon="12.8275562"><ele>549.3333333333333</ele><time>2026-04-05T13:53:11.424Z</time></trkpt><trkpt lat="42.9795528" lon="12.8276596"><ele>550.6666666666666</ele><time>2026-04-05T13:53:12.424Z</time></trkpt><trkpt lat="42.9797242" lon="12.8277772"><ele>552.0</ele><time>2026-04-05T13:53:13.423Z</time></trkpt><trkpt lat="42.979887" lon="12.8278983"><ele>550.3333333333334</ele><time>2026-04-05T13:53:14.424Z</time></trkpt><trkpt lat="42.980029" lon="12.8280882"><ele>548.6666666666667</ele><time>2026-04-05T13:53:15.424Z</time></trkpt><trkpt lat="42.9801539" lon="12.8282737"><ele>547.0</ele><time>2026-04-05T13:53:16.424Z</time></trkpt><trkpt lat="42.9802661" lon="12.8284776"><ele>547.0</ele><time>2026-04-05T13:53:17.423Z</time></trkpt><trkpt lat="42.9803586" lon="12.8287017"><ele>547.0</ele><time>2026-04-05T13:53:18.424Z</time></trkpt><trkpt lat="42.9804383" lon="12.828938"><ele>547.0</ele><time>2026-04-05T13:53:19.423Z</time></trkpt><trkpt lat="42.980479" lon="12.8291796"><ele>547.6666666666667</ele><time>2026-04-05T13:53:20.424Z</time></trkpt><trkpt lat="42.9805017" lon="12.829427"><ele>548.3333333333334</ele><time>2026-04-05T13:53:21.423Z</time></trkpt><trkpt lat="42.9804981" lon="12.8296767"><ele>549.0</ele><time>2026-04-05T13:53:22.424Z</time></trkpt><trkpt lat="42.9804819" lon="12.8299276"><ele>552.6666666666666</ele><time>2026-04-05T13:53:23.424Z</time></trkpt><trkpt lat="42.9804432" lon="12.8301733"><ele>556.3333333333333</ele><time>2026-04-05T13:53:24.423Z</time></trkpt><trkpt lat="42.9803917" lon="12.8304206"><ele>560.0</ele><time>2026-04-05T13:53:25.424Z</time></trkpt><trkpt lat="42.9803295" lon="12.830672"><ele>560.0</ele><time>2026-04-05T13:53:26.424Z</time></trkpt><trkpt lat="42.9802744" lon="12.8309262"><ele>560.0</ele><time>2026-04-05T13:53:27.424Z</time></trkpt><trkpt lat="42.9802144" lon="12.8311903"><ele>560.0</ele><time>2026-04-05T13:53:28.424Z</time></trkpt><trkpt lat="42.9801559" lon="12.8314568"><ele>565.6666666666666</ele><time>2026-04-05T13:53:29.423Z</time></trkpt><trkpt lat="42.9801192" lon="12.8317248"><ele>571.3333333333334</ele><time>2026-04-05T13:53:30.424Z</time></trkpt><trkpt lat="42.9800931" lon="12.8319867"><ele>577.0</ele><time>2026-04-05T13:53:31.424Z</time></trkpt><trkpt lat="42.9800816" lon="12.8322424"><ele>582.3333333333334</ele><time>2026-04-05T13:53:32.423Z</time></trkpt><trkpt lat="42.9800784" lon="12.832495"><ele>587.6666666666666</ele><time>2026-04-05T13:53:33.424Z</time></trkpt><trkpt lat="42.9800838" lon="12.8327458"><ele>593.0</ele><time>2026-04-05T13:53:34.423Z</time></trkpt><trkpt lat="42.9800935" lon="12.8329892"><ele>591.6666666666666</ele><time>2026-04-05T13:53:35.423Z</time></trkpt><trkpt lat="42.9800972" lon="12.8332501"><ele>590.3333333333334</ele><time>2026-04-05T13:53:36.424Z</time></trkpt><trkpt lat="42.980106" lon="12.8334972"><ele>589.0</ele><time>2026-04-05T13:53:37.423Z</time></trkpt><trkpt lat="42.9801246" lon="12.8337429"><ele>589.0</ele><time>2026-04-05T13:53:38.424Z</time></trkpt><trkpt lat="42.9801325" lon="12.8339913"><ele>589.0</ele><time>2026-04-05T13:53:39.423Z</time></trkpt><trkpt lat="42.9801388" lon="12.8342493"><ele>589.0</ele><time>2026-04-05T13:53:40.423Z</time></trkpt><trkpt lat="42.9801565" lon="12.8345078"><ele>590.0</ele><time>2026-04-05T13:53:41.424Z</time></trkpt><trkpt lat="42.9801604" lon="12.834775"><ele>591.0</ele><time>2026-04-05T13:53:42.423Z</time></trkpt><trkpt lat="42.9801535" lon="12.8350372"><ele>592.0</ele><time>2026-04-05T13:53:43.423Z</time></trkpt><trkpt lat="42.9801441" lon="12.8353019"><ele>592.3333333333334</ele><time>2026-04-05T13:53:44.423Z</time></trkpt><trkpt lat="42.9801269" lon="12.8355677"><ele>592.6666666666666</ele><time>2026-04-05T13:53:45.423Z</time></trkpt><trkpt lat="42.980114" lon="12.8358285"><ele>593.0</ele><time>2026-04-05T13:53:46.424Z</time></trkpt><trkpt lat="42.9800918" lon="12.8360976"><ele>593.0</ele><time>2026-04-05T13:53:47.424Z</time></trkpt><trkpt lat="42.9800802" lon="12.8363601"><ele>593.0</ele><time>2026-04-05T13:53:48.423Z</time></trkpt><trkpt lat="42.9800584" lon="12.8366303"><ele>593.0</ele><time>2026-04-05T13:53:49.423Z</time></trkpt><trkpt lat="42.9800379" lon="12.836902"><ele>596.0</ele><time>2026-04-05T13:53:50.424Z</time></trkpt><trkpt lat="42.9793842" lon="12.8457757"><ele>593.3333333333333</ele><time>2026-04-05T13:54:23.424Z</time></trkpt><trkpt lat="42.9794223" lon="12.8460116"><ele>590.6666666666666</ele><time>2026-04-05T13:54:24.424Z</time></trkpt><trkpt lat="42.9794713" lon="12.8462424"><ele>588.0</ele><time>2026-04-05T13:54:25.424Z</time></trkpt><trkpt lat="42.9795382" lon="12.8464552"><ele>588.0</ele><time>2026-04-05T13:54:26.424Z</time></trkpt><trkpt lat="42.9796208" lon="12.8466504"><ele>588.0</ele><time>2026-04-05T13:54:27.423Z</time></trkpt><trkpt lat="42.9797083" lon="12.8468404"><ele>588.0</ele><time>2026-04-05T13:54:28.423Z</time></trkpt><trkpt lat="42.979806" lon="12.8470193"><ele>589.3333333333334</ele><time>2026-04-05T13:54:29.424Z</time></trkpt><trkpt lat="42.9799139" lon="12.8471852"><ele>590.6666666666667</ele><time>2026-04-05T13:54:30.424Z</time></trkpt><trkpt lat="42.9800204" lon="12.8473309"><ele>592.0</ele><time>2026-04-05T13:54:31.424Z</time></trkpt><trkpt lat="42.9801313" lon="12.8474548"><ele>592.0</ele><time>2026-04-05T13:54:32.424Z</time></trkpt><trkpt lat="42.9802482" lon="12.8475552"><ele>592.0</ele><time>2026-04-05T13:54:33.424Z</time></trkpt><trkpt lat="42.9803646" lon="12.8476321"><ele>592.0</ele><time>2026-04-05T13:54:34.424Z</time></trkpt><trkpt lat="42.9804781" lon="12.8476991"><ele>592.0</ele><time>2026-04-05T13:54:35.424Z</time></trkpt><trkpt lat="42.9805845" lon="12.8477521"><ele>592.3333333333334</ele><time>2026-04-05T13:54:36.424Z</time></trkpt><trkpt lat="42.9806936" lon="12.8477931"><ele>592.6666666666667</ele><time>2026-04-05T13:54:37.424Z</time></trkpt><trkpt lat="42.9807809" lon="12.8478232"><ele>593.0</ele><time>2026-04-05T13:54:38.423Z</time></trkpt><trkpt lat="42.9808594" lon="12.847843"><ele>593.3333333333334</ele><time>2026-04-05T13:54:39.424Z</time></trkpt><trkpt lat="42.9809247" lon="12.8477917"><ele>593.6666666666666</ele><time>2026-04-05T13:54:40.424Z</time></trkpt><trkpt lat="42.9809709" lon="12.8477277"><ele>594.0</ele><time>2026-04-05T13:54:41.423Z</time></trkpt><trkpt lat="42.9810088" lon="12.8476491"><ele>595.8</ele><time>2026-04-05T13:54:42.424Z</time></trkpt><trkpt lat="42.9810416" lon="12.8475484"><ele>597.5999999999999</ele><time>2026-04-05T13:54:43.424Z</time></trkpt><trkpt lat="42.9810694" lon="12.8474396"><ele>599.4</ele><time>2026-04-05T13:54:44.423Z</time></trkpt><trkpt lat="42.981079" lon="12.8473065"><ele>601.1999999999999</ele><time>2026-04-05T13:54:45.424Z</time></trkpt><trkpt lat="42.9810725" lon="12.8471586"><ele>603.0</ele><time>2026-04-05T13:54:46.424Z</time></trkpt><trkpt lat="42.9810379" lon="12.8470232"><ele>603.0</ele><time>2026-04-05T13:54:47.424Z</time></trkpt><trkpt lat="42.9810065" lon="12.8468936"><ele>603.0</ele><time>2026-04-05T13:54:48.424Z</time></trkpt><trkpt lat="42.980918" lon="12.8468049"><ele>603.0</ele><time>2026-04-05T13:54:49.423Z</time></trkpt><trkpt lat="42.9808342" lon="12.8467083"><ele>603.0</ele><time>2026-04-05T13:54:50.424Z</time></trkpt><trkpt lat="42.9807415" lon="12.8466133"><ele>603.0</ele><time>2026-04-05T13:54:51.423Z</time></trkpt><trkpt lat="42.9806358" lon="12.8465108"><ele>603.0</ele><time>2026-04-05T13:54:52.423Z</time></trkpt><trkpt lat="42.980527" lon="12.8464028"><ele>603.0</ele><time>2026-04-05T13:54:53.424Z</time></trkpt><trkpt lat="42.9804048" lon="12.8462855"><ele>603.0</ele><time>2026-04-05T13:54:54.424Z</time></trkpt><trkpt lat="42.9802867" lon="12.8461794"><ele>603.0</ele><time>2026-04-05T13:54:55.424Z</time></trkpt><trkpt lat="42.9801508" lon="12.8460902"><ele>603.0</ele><time>2026-04-05T13:54:56.424Z</time></trkpt><trkpt lat="42.9800284" lon="12.845989"><ele>603.0</ele><time>2026-04-05T13:54:57.424Z</time></trkpt><trkpt lat="42.979915" lon="12.8458767"><ele>603.0</ele><time>2026-04-05T13:54:58.424Z</time></trkpt><trkpt lat="42.9797889" lon="12.8457717"><ele>603.0</ele><time>2026-04-05T13:54:59.423Z</time></trkpt><trkpt lat="42.9796532" lon="12.8456693"><ele>600.6666666666666</ele><time>2026-04-05T13:55:00.424Z</time></trkpt><trkpt lat="42.9795197" lon="12.8455682"><ele>598.3333333333333</ele><time>2026-04-05T13:55:01.423Z</time></trkpt><trkpt lat="42.9793855" lon="12.8454592"><ele>596.0</ele><time>2026-04-05T13:55:02.423Z</time></trkpt><trkpt lat="42.9792558" lon="12.8453493"><ele>596.3333333333333</ele><time>2026-04-05T13:55:03.423Z</time></trkpt><trkpt lat="42.9791223" lon="12.845254"><ele>596.6666666666666</ele><time>2026-04-05T13:55:04.424Z</time></trkpt><trkpt lat="42.9789876" lon="12.845152"><ele>597.0</ele><time>2026-04-05T13:55:05.423Z</time></trkpt><trkpt lat="42.978859" lon="12.8450552"><ele>597.0</ele><time>2026-04-05T13:55:06.424Z</time></trkpt><trkpt lat="42.9787306" lon="12.8449582"><ele>597.0</ele><time>2026-04-05T13:55:07.424Z</time></trkpt><trkpt lat="42.9786006" lon="12.8448601"><ele>597.0</ele><time>2026-04-05T13:55:08.424Z</time></trkpt><trkpt lat="42.9784688" lon="12.8447594"><ele>597.0</ele><time>2026-04-05T13:55:09.424Z</time></trkpt><trkpt lat="42.9783386" lon="12.8446593"><ele>593.5</ele><time>2026-04-05T13:55:10.424Z</time></trkpt><trkpt lat="42.9782131" lon="12.8445623"><ele>590.0</ele><time>2026-04-05T13:55:11.424Z</time></trkpt><trkpt lat="42.978088" lon="12.8444721"><ele>586.5</ele><time>2026-04-05T13:55:12.424Z</time></trkpt><trkpt lat="42.9779518" lon="12.8443819"><ele>583.0</ele><time>2026-04-05T13:55:13.423Z</time></trkpt><trkpt lat="42.977814" lon="12.8443084"><ele>585.0</ele><time>2026-04-05T13:55:14.424Z</time></trkpt><trkpt lat="42.9776817" lon="12.8442409"><ele>587.0</ele><time>2026-04-05T13:55:15.423Z</time></trkpt><trkpt lat="42.9775451" lon="12.8441882"><ele>589.0</ele><time>2026-04-05T13:55:16.424Z</time></trkpt><trkpt lat="42.9774082" lon="12.844156"><ele>591.0</ele><time>2026-04-05T13:55:17.424Z</time></trkpt><trkpt lat="42.9772825" lon="12.8441314"><ele>591.0</ele><time>2026-04-05T13:55:18.423Z</time></trkpt><trkpt lat="42.9771592" lon="12.8441061"><ele>591.0</ele><time>2026-04-05T13:55:19.424Z</time></trkpt><trkpt lat="42.9770369" lon="12.8440942"><ele>591.0</ele><time>2026-04-05T13:55:20.424Z</time></trkpt><trkpt lat="42.9769388" lon="12.8440901"><ele>591.0</ele><time>2026-04-05T13:55:21.424Z</time></trkpt><trkpt lat="42.976838" lon="12.8440748"><ele>591.0</ele><time>2026-04-05T13:55:22.423Z</time></trkpt><trkpt lat="42.9767396" lon="12.8440609"><ele>589.3333333333334</ele><time>2026-04-05T13:55:23.424Z</time></trkpt><trkpt lat="42.9766548" lon="12.8440313"><ele>587.6666666666666</ele><time>2026-04-05T13:55:24.424Z</time></trkpt><trkpt lat="42.9765771" lon="12.8439892"><ele>586.0</ele><time>2026-04-05T13:55:25.423Z</time></trkpt><trkpt lat="42.976506" lon="12.8439388"><ele>584.3333333333333</ele><time>2026-04-05T13:55:26.424Z</time></trkpt><trkpt lat="42.9764506" lon="12.8438897"><ele>582.6666666666666</ele><time>2026-04-05T13:55:27.424Z</time></trkpt><trkpt lat="42.9763862" lon="12.8438662"><ele>581.0</ele><time>2026-04-05T13:55:28.424Z</time></trkpt><trkpt lat="42.9763187" lon="12.8438607"><ele>581.0</ele><time>2026-04-05T13:55:29.424Z</time></trkpt><trkpt lat="42.9761943" lon="12.8439277"><ele>581.0</ele><time>2026-04-05T13:55:31.424Z</time></trkpt><trkpt lat="42.9761268" lon="12.8439842"><ele>581.0</ele><time>2026-04-05T13:55:32.424Z</time></trkpt><trkpt lat="42.9760506" lon="12.844018"><ele>581.0</ele><time>2026-04-05T13:55:33.424Z</time></trkpt><trkpt lat="42.9759658" lon="12.8440582"><ele>581.0</ele><time>2026-04-05T13:55:34.424Z</time></trkpt><trkpt lat="42.97586" lon="12.8440969"><ele>579.5</ele><time>2026-04-05T13:55:35.424Z</time></trkpt><trkpt lat="42.9757542" lon="12.8441274"><ele>578.0</ele><time>2026-04-05T13:55:36.424Z</time></trkpt><trkpt lat="42.9756415" lon="12.8441667"><ele>576.5</ele><time>2026-04-05T13:55:37.423Z</time></trkpt><trkpt lat="42.9755314" lon="12.8442167"><ele>575.0</ele><time>2026-04-05T13:55:38.424Z</time></trkpt><trkpt lat="42.9754173" lon="12.8442795"><ele>575.25</ele><time>2026-04-05T13:55:39.424Z</time></trkpt><trkpt lat="42.9753036" lon="12.8443501"><ele>575.5</ele><time>2026-04-05T13:55:40.424Z</time></trkpt><trkpt lat="42.9751938" lon="12.8444255"><ele>575.75</ele><time>2026-04-05T13:55:41.424Z</time></trkpt><trkpt lat="42.9750922" lon="12.8445204"><ele>576.0</ele><time>2026-04-05T13:55:42.424Z</time></trkpt><trkpt lat="42.9749926" lon="12.8446211"><ele>582.5</ele><time>2026-04-05T13:55:43.423Z</time></trkpt><trkpt lat="42.9748902" lon="12.8447253"><ele>589.0</ele><time>2026-04-05T13:55:44.424Z</time></trkpt><trkpt lat="42.9714831" lon="12.8479353"><ele>589.6666666666667</ele><time>2026-04-05T13:56:07.424Z</time></trkpt><trkpt lat="42.9712916" lon="12.848027"><ele>590.3333333333334</ele><time>2026-04-05T13:56:08.423Z</time></trkpt><trkpt lat="42.9711076" lon="12.8481047"><ele>591.0</ele><time>2026-04-05T13:56:09.424Z</time></trkpt><trkpt lat="42.9709206" lon="12.8481827"><ele>589.3333333333334</ele><time>2026-04-05T13:56:10.423Z</time></trkpt><trkpt lat="42.9707381" lon="12.8482481"><ele>587.6666666666667</ele><time>2026-04-05T13:56:11.424Z</time></trkpt><trkpt lat="42.9705511" lon="12.8483125"><ele>586.0</ele><time>2026-04-05T13:56:12.423Z</time></trkpt><trkpt lat="42.9703686" lon="12.8483705"><ele>586.0</ele><time>2026-04-05T13:56:13.424Z</time></trkpt><trkpt lat="42.9701874" lon="12.8484317"><ele>586.0</ele><time>2026-04-05T13:56:14.424Z</time></trkpt><trkpt lat="42.9700099" lon="12.8484883"><ele>586.0</ele><time>2026-04-05T13:56:15.424Z</time></trkpt><trkpt lat="42.9698287" lon="12.8485477"><ele>588.3333333333334</ele><time>2026-04-05T13:56:16.424Z</time></trkpt><trkpt lat="42.969646" lon="12.8486065"><ele>590.6666666666666</ele><time>2026-04-05T13:56:17.424Z</time></trkpt><trkpt lat="42.9694637" lon="12.8486643"><ele>593.0</ele><time>2026-04-05T13:56:18.424Z</time></trkpt><trkpt lat="42.9692807" lon="12.8487224"><ele>592.6666666666666</ele><time>2026-04-05T13:56:19.423Z</time></trkpt><trkpt lat="42.9691" lon="12.848781"><ele>592.3333333333334</ele><time>2026-04-05T13:56:20.424Z</time></trkpt><trkpt lat="42.9689185" lon="12.8488386"><ele>592.0</ele><time>2026-04-05T13:56:21.424Z</time></trkpt><trkpt lat="42.9687362" lon="12.8489054"><ele>592.0</ele><time>2026-04-05T13:56:22.424Z</time></trkpt><trkpt lat="42.968554" lon="12.8489713"><ele>592.0</ele><time>2026-04-05T13:56:23.423Z</time></trkpt><trkpt lat="42.9683774" lon="12.8490452"><ele>592.0</ele><time>2026-04-05T13:56:24.424Z</time></trkpt><trkpt lat="42.968197" lon="12.8491033"><ele>593.3333333333334</ele><time>2026-04-05T13:56:25.424Z</time></trkpt><trkpt lat="42.9680079" lon="12.8491603"><ele>594.6666666666666</ele><time>2026-04-05T13:56:26.424Z</time></trkpt><trkpt lat="42.967824" lon="12.8492222"><ele>596.0</ele><time>2026-04-05T13:56:27.424Z</time></trkpt><trkpt lat="42.9676418" lon="12.849287"><ele>606.3333333333333</ele><time>2026-04-05T13:56:28.424Z</time></trkpt><trkpt lat="42.9674572" lon="12.8493356"><ele>616.6666666666666</ele><time>2026-04-05T13:56:29.423Z</time></trkpt><trkpt lat="42.967271" lon="12.8493614"><ele>627.0</ele><time>2026-04-05T13:56:30.424Z</time></trkpt><trkpt lat="42.9670899" lon="12.8493586"><ele>627.0</ele><time>2026-04-05T13:56:31.424Z</time></trkpt><trkpt lat="42.9669168" lon="12.8493355"><ele>627.0</ele><time>2026-04-05T13:56:32.424Z</time></trkpt><trkpt lat="42.96673" lon="12.8493093"><ele>627.0</ele><time>2026-04-05T13:56:33.424Z</time></trkpt><trkpt lat="42.9665415" lon="12.8492713"><ele>615.6666666666666</ele><time>2026-04-05T13:56:34.423Z</time></trkpt><trkpt lat="42.9663592" lon="12.849233"><ele>604.3333333333333</ele><time>2026-04-05T13:56:35.424Z</time></trkpt><trkpt lat="42.9661675" lon="12.8492038"><ele>593.0</ele><time>2026-04-05T13:56:36.423Z</time></trkpt><trkpt lat="42.9659774" lon="12.8491752"><ele>595.0</ele><time>2026-04-05T13:56:37.424Z</time></trkpt><trkpt lat="42.9657878" lon="12.8491421"><ele>597.0</ele><time>2026-04-05T13:56:38.424Z</time></trkpt><trkpt lat="42.9656119" lon="12.8490975"><ele>599.0</ele><time>2026-04-05T13:56:39.423Z</time></trkpt><trkpt lat="42.9654413" lon="12.8490685"><ele>599.0</ele><time>2026-04-05T13:56:40.424Z</time></trkpt><trkpt lat="42.965284" lon="12.8490398"><ele>599.0</ele><time>2026-04-05T13:56:41.423Z</time></trkpt><trkpt lat="42.9651395" lon="12.8490282"><ele>599.0</ele><time>2026-04-05T13:56:42.423Z</time></trkpt><trkpt lat="42.9650031" lon="12.8490478"><ele>599.0</ele><time>2026-04-05T13:56:43.424Z</time></trkpt><trkpt lat="42.9648821" lon="12.8491022"><ele>599.25</ele><time>2026-04-05T13:56:44.424Z</time></trkpt><trkpt lat="42.9647731" lon="12.8491907"><ele>599.5</ele><time>2026-04-05T13:56:45.424Z</time></trkpt><trkpt lat="42.9646864" lon="12.8493102"><ele>599.75</ele><time>2026-04-05T13:56:46.424Z</time></trkpt><trkpt lat="42.9646021" lon="12.8494565"><ele>600.0</ele><time>2026-04-05T13:56:47.424Z</time></trkpt><trkpt lat="42.9645173" lon="12.8496156"><ele>609.3333333333334</ele><time>2026-04-05T13:56:48.424Z</time></trkpt><trkpt lat="42.964431" lon="12.8497803"><ele>618.6666666666667</ele><time>2026-04-05T13:56:49.424Z</time></trkpt><trkpt lat="42.9643397" lon="12.8499618"><ele>628.0</ele><time>2026-04-05T13:56:50.423Z</time></trkpt><trkpt lat="42.9642398" lon="12.8501387"><ele>626.0</ele><time>2026-04-05T13:56:51.424Z</time></trkpt><trkpt lat="42.9641392" lon="12.8503206"><ele>624.0</ele><time>2026-04-05T13:56:52.423Z</time></trkpt><trkpt lat="42.9640366" lon="12.8505078"><ele>622.0</ele><time>2026-04-05T13:56:53.424Z</time></trkpt><trkpt lat="42.9639244" lon="12.8506822"><ele>622.0</ele><time>2026-04-05T13:56:54.424Z</time></trkpt><trkpt lat="42.9638037" lon="12.8508501"><ele>622.0</ele><time>2026-04-05T13:56:55.424Z</time></trkpt><trkpt lat="42.9636614" lon="12.8509968"><ele>622.0</ele><time>2026-04-05T13:56:56.423Z</time></trkpt><trkpt lat="42.9635092" lon="12.8511191"><ele>620.0</ele><time>2026-04-05T13:56:57.424Z</time></trkpt><trkpt lat="42.9633615" lon="12.8512256"><ele>618.0</ele><time>2026-04-05T13:56:58.424Z</time></trkpt><trkpt lat="42.9632247" lon="12.8513084"><ele>616.0</ele><time>2026-04-05T13:56:59.424Z</time></trkpt><trkpt lat="42.963082" lon="12.8513692"><ele>616.0</ele><time>2026-04-05T13:57:00.424Z</time></trkpt><trkpt lat="42.9629656" lon="12.8514367"><ele>616.0</ele><time>2026-04-05T13:57:01.424Z</time></trkpt><trkpt lat="42.9628685" lon="12.8515065"><ele>616.0</ele><time>2026-04-05T13:57:02.424Z</time></trkpt><trkpt lat="42.9628219" lon="12.8516113"><ele>616.0</ele><time>2026-04-05T13:57:03.424Z</time></trkpt><trkpt lat="42.9628133" lon="12.8517344"><ele>616.0</ele><time>2026-04-05T13:57:04.424Z</time></trkpt><trkpt lat="42.9628451" lon="12.8518764"><ele>617.5</ele><time>2026-04-05T13:57:05.424Z</time></trkpt><trkpt lat="42.9629257" lon="12.8520381"><ele>619.0</ele><time>2026-04-05T13:57:06.424Z</time></trkpt><trkpt lat="42.9629873" lon="12.8521989"><ele>620.5</ele><time>2026-04-05T13:57:07.423Z</time></trkpt><trkpt lat="42.9630441" lon="12.8523522"><ele>622.0</ele><time>2026-04-05T13:57:08.424Z</time></trkpt><trkpt lat="42.9630806" lon="12.8525144"><ele>619.75</ele><time>2026-04-05T13:57:09.424Z</time></trkpt><trkpt lat="42.9631192" lon="12.8526749"><ele>617.5</ele><time>2026-04-05T13:57:10.424Z</time></trkpt><trkpt lat="42.9631061" lon="12.8528364"><ele>615.25</ele><time>2026-04-05T13:57:11.423Z</time></trkpt><trkpt lat="42.9630746" lon="12.8530077"><ele>613.0</ele><time>2026-04-05T13:57:12.423Z</time></trkpt><trkpt lat="42.9630211" lon="12.8531748"><ele>613.0</ele><time>2026-04-05T13:57:13.423Z</time></trkpt><trkpt lat="42.9629657" lon="12.8533515"><ele>613.0</ele><time>2026-04-05T13:57:14.424Z</time></trkpt><trkpt lat="42.9629017" lon="12.8535341"><ele>613.0</ele><time>2026-04-05T13:57:15.424Z</time></trkpt><trkpt lat="42.9628377" lon="12.8537113"><ele>613.0</ele><time>2026-04-05T13:57:16.423Z</time></trkpt><trkpt lat="42.9627674" lon="12.8538865"><ele>617.75</ele><time>2026-04-05T13:57:17.423Z</time></trkpt><trkpt lat="42.9626901" lon="12.8540391"><ele>622.5</ele><time>2026-04-05T13:57:18.424Z</time></trkpt><trkpt lat="42.9625921" lon="12.8541817"><ele>627.25</ele><time>2026-04-05T13:57:19.424Z</time></trkpt><trkpt lat="42.9624808" lon="12.8543078"><ele>632.0</ele><time>2026-04-05T13:57:20.423Z</time></trkpt><trkpt lat="42.9623725" lon="12.8544333"><ele>632.0</ele><time>2026-04-05T13:57:21.424Z</time></trkpt><trkpt lat="42.9622605" lon="12.8545663"><ele>632.0</ele><time>2026-04-05T13:57:22.424Z</time></trkpt><trkpt lat="42.9621564" lon="12.8547091"><ele>632.0</ele><time>2026-04-05T13:57:23.424Z</time></trkpt><trkpt lat="42.9620514" lon="12.8548558"><ele>632.0</ele><time>2026-04-05T13:57:24.424Z</time></trkpt><trkpt lat="42.9619475" lon="12.8550006"><ele>631.25</ele><time>2026-04-05T13:57:25.424Z</time></trkpt><trkpt lat="42.9618435" lon="12.8551423"><ele>630.5</ele><time>2026-04-05T13:57:26.424Z</time></trkpt><trkpt lat="42.9617319" lon="12.8552805"><ele>629.75</ele><time>2026-04-05T13:57:27.424Z</time></trkpt><trkpt lat="42.9616185" lon="12.8554044"><ele>629.0</ele><time>2026-04-05T13:57:28.424Z</time></trkpt><trkpt lat="42.9615014" lon="12.8555213"><ele>629.0</ele><time>2026-04-05T13:57:29.424Z</time></trkpt><trkpt lat="42.9613874" lon="12.8556357"><ele>629.0</ele><time>2026-04-05T13:57:30.423Z</time></trkpt><trkpt lat="42.9612661" lon="12.8557451"><ele>629.0</ele><time>2026-04-05T13:57:31.423Z</time></trkpt><trkpt lat="42.9611566" lon="12.8558447"><ele>629.0</ele><time>2026-04-05T13:57:32.424Z</time></trkpt><trkpt lat="42.9610456" lon="12.8559549"><ele>627.25</ele><time>2026-04-05T13:57:33.424Z</time></trkpt><trkpt lat="42.9609466" lon="12.8560752"><ele>625.5</ele><time>2026-04-05T13:57:34.424Z</time></trkpt><trkpt lat="42.9608548" lon="12.8561997"><ele>623.75</ele><time>2026-04-05T13:57:35.424Z</time></trkpt><trkpt lat="42.9607647" lon="12.8563356"><ele>622.0</ele><time>2026-04-05T13:57:36.423Z</time></trkpt><trkpt lat="42.9606739" lon="12.8564798"><ele>622.0</ele><time>2026-04-05T13:57:37.424Z</time></trkpt><trkpt lat="42.9605771" lon="12.8566275"><ele>622.0</ele><time>2026-04-05T13:57:38.424Z</time></trkpt><trkpt lat="42.9604846" lon="12.8567858"><ele>622.0</ele><time>2026-04-05T13:57:39.424Z</time></trkpt><trkpt lat="42.9603896" lon="12.8569486"><ele>622.0</ele><time>2026-04-05T13:57:40.424Z</time></trkpt><trkpt lat="42.9602909" lon="12.8571177"><ele>624.3333333333334</ele><time>2026-04-05T13:57:41.424Z</time></trkpt><trkpt lat="42.9601924" lon="12.8572933"><ele>626.6666666666666</ele><time>2026-04-05T13:57:42.423Z</time></trkpt><trkpt lat="42.9600997" lon="12.8574576"><ele>629.0</ele><time>2026-04-05T13:57:43.424Z</time></trkpt><trkpt lat="42.9599997" lon="12.8576366"><ele>632.0</ele><time>2026-04-05T13:57:44.424Z</time></trkpt><trkpt lat="42.959906" lon="12.8578071"><ele>635.0</ele><time>2026-04-05T13:57:45.424Z</time></trkpt><trkpt lat="42.959807" lon="12.8579704"><ele>638.0</ele><time>2026-04-05T13:57:46.424Z</time></trkpt><trkpt lat="42.9597128" lon="12.8581268"><ele>638.0</ele><time>2026-04-05T13:57:47.424Z</time></trkpt><trkpt lat="42.9596223" lon="12.8582737"><ele>638.0</ele><time>2026-04-05T13:57:48.423Z</time></trkpt><trkpt lat="42.959545" lon="12.858413"><ele>638.0</ele><time>2026-04-05T13:57:49.424Z</time></trkpt><trkpt lat="42.9594696" lon="12.8585548"><ele>638.0</ele><time>2026-04-05T13:57:50.424Z</time></trkpt><trkpt lat="42.9594079" lon="12.8587028"><ele>644.0</ele><time>2026-04-05T13:57:51.423Z</time></trkpt><trkpt lat="42.9593506" lon="12.8588594"><ele>650.0</ele><time>2026-04-05T13:57:52.423Z</time></trkpt><trkpt lat="42.9593149" lon="12.8590276"><ele>656.0</ele><time>2026-04-05T13:57:53.424Z</time></trkpt><trkpt lat="42.9592887" lon="12.8591789"><ele>662.0</ele><time>2026-04-05T13:57:54.423Z</time></trkpt><trkpt lat="42.959268" lon="12.859327"><ele>662.0</ele><time>2026-04-05T13:57:55.424Z</time></trkpt><trkpt lat="42.9592487" lon="12.8594515"><ele>662.0</ele><time>2026-04-05T13:57:56.424Z</time></trkpt><trkpt lat="42.9592385" lon="12.8595667"><ele>662.0</ele><time>2026-04-05T13:57:57.424Z</time></trkpt><trkpt lat="42.9592309" lon="12.8596583"><ele>662.0</ele><time>2026-04-05T13:57:58.423Z</time></trkpt><trkpt lat="42.9591807" lon="12.859727"><ele>662.0</ele><time>2026-04-05T13:57:59.424Z</time></trkpt><trkpt lat="42.9591211" lon="12.8597622"><ele>662.0</ele><time>2026-04-05T13:58:00.424Z</time></trkpt><trkpt lat="42.9590658" lon="12.8598052"><ele>662.0</ele><time>2026-04-05T13:58:01.424Z</time></trkpt><trkpt lat="42.9589987" lon="12.8598438"><ele>656.6</ele><time>2026-04-05T13:58:02.424Z</time></trkpt><trkpt lat="42.9588629" lon="12.8599196"><ele>651.2</ele><time>2026-04-05T13:58:04.423Z</time></trkpt><trkpt lat="42.9587802" lon="12.8599702"><ele>645.8</ele><time>2026-04-05T13:58:05.424Z</time></trkpt><trkpt lat="42.9587002" lon="12.860031"><ele>640.4</ele><time>2026-04-05T13:58:06.424Z</time></trkpt><trkpt lat="42.9586177" lon="12.8601123"><ele>635.0</ele><time>2026-04-05T13:58:07.424Z</time></trkpt><trkpt lat="42.958533" lon="12.8602"><ele>635.0</ele><time>2026-04-05T13:58:08.424Z</time></trkpt><trkpt lat="42.9584532" lon="12.860291"><ele>635.0</ele><time>2026-04-05T13:58:09.423Z</time></trkpt><trkpt lat="42.958365" lon="12.8603596"><ele>635.0</ele><time>2026-04-05T13:58:10.423Z</time></trkpt><trkpt lat="42.9582706" lon="12.8604159"><ele>635.0</ele><time>2026-04-05T13:58:11.424Z</time></trkpt><trkpt lat="42.9581798" lon="12.8604761"><ele>635.0</ele><time>2026-04-05T13:58:12.424Z</time></trkpt><trkpt lat="42.9580975" lon="12.8605262"><ele>634.4</ele><time>2026-04-05T13:58:13.424Z</time></trkpt><trkpt lat="42.9580209" lon="12.8605803"><ele>633.8</ele><time>2026-04-05T13:58:14.424Z</time></trkpt><trkpt lat="42.9579482" lon="12.860621"><ele>633.2</ele><time>2026-04-05T13:58:15.423Z</time></trkpt><trkpt lat="42.9578778" lon="12.8606594"><ele>632.6</ele><time>2026-04-05T13:58:16.423Z</time></trkpt><trkpt lat="42.95776" lon="12.8607301"><ele>632.0</ele><time>2026-04-05T13:58:18.424Z</time></trkpt><trkpt lat="42.9576604" lon="12.8607827"><ele>632.0</ele><time>2026-04-05T13:58:20.423Z</time></trkpt><trkpt lat="42.9575615" lon="12.8608307"><ele>632.0</ele><time>2026-04-05T13:58:22.424Z</time></trkpt><trkpt lat="42.9574709" lon="12.8608815"><ele>632.0</ele><time>2026-04-05T13:58:24.423Z</time></trkpt><trkpt lat="42.9573636" lon="12.860927"><ele>632.0</ele><time>2026-04-05T13:58:26.423Z</time></trkpt><trkpt lat="42.9572394" lon="12.8609738"><ele>632.0</ele><time>2026-04-05T13:58:28.424Z</time></trkpt><trkpt lat="42.9571767" lon="12.8610048"><ele>632.6666666666666</ele><time>2026-04-05T13:58:29.423Z</time></trkpt><trkpt lat="42.957104" lon="12.8610306"><ele>633.3333333333333</ele><time>2026-04-05T13:58:30.424Z</time></trkpt><trkpt lat="42.957025" lon="12.8610502"><ele>634.0</ele><time>2026-04-05T13:58:31.424Z</time></trkpt><trkpt lat="42.9569492" lon="12.8610603"><ele>634.6666666666666</ele><time>2026-04-05T13:58:32.424Z</time></trkpt><trkpt lat="42.9568723" lon="12.8610642"><ele>635.3333333333334</ele><time>2026-04-05T13:58:33.424Z</time></trkpt><trkpt lat="42.9567996" lon="12.8610604"><ele>636.0</ele><time>2026-04-05T13:58:34.424Z</time></trkpt><trkpt lat="42.9567151" lon="12.8610413"><ele>636.0</ele><time>2026-04-05T13:58:35.424Z</time></trkpt><trkpt lat="42.9566246" lon="12.8610196"><ele>636.0</ele><time>2026-04-05T13:58:36.424Z</time></trkpt><trkpt lat="42.9565234" lon="12.861006"><ele>636.0</ele><time>2026-04-05T13:58:37.423Z</time></trkpt><trkpt lat="42.9564319" lon="12.8609885"><ele>636.0</ele><time>2026-04-05T13:58:38.424Z</time></trkpt><trkpt lat="42.956335" lon="12.8609724"><ele>636.0</ele><time>2026-04-05T13:58:39.424Z</time></trkpt><trkpt lat="42.9562397" lon="12.8609584"><ele>636.0</ele><time>2026-04-05T13:58:40.423Z</time></trkpt><trkpt lat="42.9561446" lon="12.8609488"><ele>636.0</ele><time>2026-04-05T13:58:41.424Z</time></trkpt><trkpt lat="42.9560557" lon="12.8609487"><ele>636.0</ele><time>2026-04-05T13:58:42.423Z</time></trkpt><trkpt lat="42.955972" lon="12.8609692"><ele>636.0</ele><time>2026-04-05T13:58:43.424Z</time></trkpt><trkpt lat="42.9559004" lon="12.8610022"><ele>636.0</ele><time>2026-04-05T13:58:44.424Z</time></trkpt><trkpt lat="42.955832" lon="12.8610613"><ele>636.0</ele><time>2026-04-05T13:58:45.424Z</time></trkpt><trkpt lat="42.9557673" lon="12.8611316"><ele>636.0</ele><time>2026-04-05T13:58:46.423Z</time></trkpt><trkpt lat="42.9557084" lon="12.8612265"><ele>636.0</ele><time>2026-04-05T13:58:47.424Z</time></trkpt><trkpt lat="42.9556612" lon="12.8613273"><ele>636.0</ele><time>2026-04-05T13:58:48.424Z</time></trkpt><trkpt lat="42.9556136" lon="12.8614297"><ele>636.0</ele><time>2026-04-05T13:58:49.424Z</time></trkpt><trkpt lat="42.9555608" lon="12.8615449"><ele>636.0</ele><time>2026-04-05T13:58:50.424Z</time></trkpt><trkpt lat="42.9555043" lon="12.861663"><ele>636.0</ele><time>2026-04-05T13:58:51.424Z</time></trkpt><trkpt lat="42.9554464" lon="12.861782"><ele>636.0</ele><time>2026-04-05T13:58:52.424Z</time></trkpt><trkpt lat="42.9553845" lon="12.8618973"><ele>636.0</ele><time>2026-04-05T13:58:53.423Z</time></trkpt><trkpt lat="42.9553117" lon="12.8620083"><ele>636.0</ele><time>2026-04-05T13:58:54.424Z</time></trkpt><trkpt lat="42.9552245" lon="12.8621039"><ele>636.0</ele><time>2026-04-05T13:58:55.423Z</time></trkpt><trkpt lat="42.9551267" lon="12.8621658"><ele>636.25</ele><time>2026-04-05T13:58:56.424Z</time></trkpt><trkpt lat="42.9550062" lon="12.8621895"><ele>636.5</ele><time>2026-04-05T13:58:57.424Z</time></trkpt><trkpt lat="42.9548884" lon="12.8621967"><ele>636.75</ele><time>2026-04-05T13:58:58.424Z</time></trkpt><trkpt lat="42.9547598" lon="12.8621556"><ele>637.0</ele><time>2026-04-05T13:58:59.424Z</time></trkpt><trkpt lat="42.954631" lon="12.8621128"><ele>637.0</ele><time>2026-04-05T13:59:00.424Z</time></trkpt><trkpt lat="42.954501" lon="12.8620666"><ele>637.0</ele><time>2026-04-05T13:59:01.424Z</time></trkpt><trkpt lat="42.9543761" lon="12.8620277"><ele>637.0</ele><time>2026-04-05T13:59:02.424Z</time></trkpt><trkpt lat="42.9542437" lon="12.8620069"><ele>637.0</ele><time>2026-04-05T13:59:03.424Z</time></trkpt><trkpt lat="42.9541117" lon="12.8620007"><ele>637.25</ele><time>2026-04-05T13:59:04.423Z</time></trkpt><trkpt lat="42.9539781" lon="12.862016"><ele>637.5</ele><time>2026-04-05T13:59:05.424Z</time></trkpt><trkpt lat="42.953843" lon="12.8620566"><ele>637.75</ele><time>2026-04-05T13:59:06.424Z</time></trkpt><trkpt lat="42.9537116" lon="12.8620989"><ele>638.0</ele><time>2026-04-05T13:59:07.424Z</time></trkpt><trkpt lat="42.9535743" lon="12.8621619"><ele>638.0</ele><time>2026-04-05T13:59:08.423Z</time></trkpt><trkpt lat="42.9534416" lon="12.8622145"><ele>638.0</ele><time>2026-04-05T13:59:09.424Z</time></trkpt><trkpt lat="42.9533161" lon="12.8622509"><ele>638.0</ele><time>2026-04-05T13:59:10.424Z</time></trkpt><trkpt lat="42.9531867" lon="12.8622931"><ele>638.0</ele><time>2026-04-05T13:59:11.424Z</time></trkpt><trkpt lat="42.9530587" lon="12.8623451"><ele>638.5</ele><time>2026-04-05T13:59:12.424Z</time></trkpt><trkpt lat="42.9529274" lon="12.8623922"><ele>639.0</ele><time>2026-04-05T13:59:13.424Z</time></trkpt><trkpt lat="42.9527883" lon="12.8624503"><ele>639.5</ele><time>2026-04-05T13:59:14.424Z</time></trkpt><trkpt lat="42.9526493" lon="12.8625114"><ele>640.0</ele><time>2026-04-05T13:59:15.423Z</time></trkpt><trkpt lat="42.9525018" lon="12.8625724"><ele>639.6666666666667</ele><time>2026-04-05T13:59:16.423Z</time></trkpt><trkpt lat="42.9523565" lon="12.8626332"><ele>639.3333333333334</ele><time>2026-04-05T13:59:17.423Z</time></trkpt><trkpt lat="42.9521993" lon="12.8626993"><ele>639.0</ele><time>2026-04-05T13:59:18.424Z</time></trkpt><trkpt lat="42.9520428" lon="12.8627582"><ele>639.0</ele><time>2026-04-05T13:59:19.423Z</time></trkpt><trkpt lat="42.9518807" lon="12.8628252"><ele>639.0</ele><time>2026-04-05T13:59:20.423Z</time></trkpt><trkpt lat="42.9517191" lon="12.8628974"><ele>639.0</ele><time>2026-04-05T13:59:21.424Z</time></trkpt><trkpt lat="42.9515488" lon="12.8629606"><ele>639.0</ele><time>2026-04-05T13:59:22.424Z</time></trkpt><trkpt lat="42.9513774" lon="12.8630261"><ele>639.0</ele><time>2026-04-05T13:59:23.424Z</time></trkpt><trkpt lat="42.9512124" lon="12.8630946"><ele>639.0</ele><time>2026-04-05T13:59:24.424Z</time></trkpt><trkpt lat="42.9510566" lon="12.8631794"><ele>639.0</ele><time>2026-04-05T13:59:25.424Z</time></trkpt><trkpt lat="42.9509033" lon="12.8632846"><ele>639.0</ele><time>2026-04-05T13:59:26.423Z</time></trkpt><trkpt lat="42.9507596" lon="12.8634175"><ele>639.0</ele><time>2026-04-05T13:59:27.424Z</time></trkpt><trkpt lat="42.9506184" lon="12.8635671"><ele>639.3333333333334</ele><time>2026-04-05T13:59:28.423Z</time></trkpt><trkpt lat="42.9505002" lon="12.8637036"><ele>639.6666666666667</ele><time>2026-04-05T13:59:29.424Z</time></trkpt><trkpt lat="42.950375" lon="12.8638403"><ele>640.0</ele><time>2026-04-05T13:59:30.424Z</time></trkpt><trkpt lat="42.9502468" lon="12.863951"><ele>640.0</ele><time>2026-04-05T13:59:31.424Z</time></trkpt><trkpt lat="42.950114" lon="12.8640451"><ele>640.0</ele><time>2026-04-05T13:59:32.423Z</time></trkpt><trkpt lat="42.9499623" lon="12.8641105"><ele>640.0</ele><time>2026-04-05T13:59:33.424Z</time></trkpt><trkpt lat="42.9497949" lon="12.8641519"><ele>642.0</ele><time>2026-04-05T13:59:34.423Z</time></trkpt><trkpt lat="42.9496361" lon="12.8641934"><ele>644.0</ele><time>2026-04-05T13:59:35.423Z</time></trkpt><trkpt lat="42.9494684" lon="12.8642192"><ele>646.0</ele><time>2026-04-05T13:59:36.424Z</time></trkpt><trkpt lat="42.9492926" lon="12.8642535"><ele>645.3333333333334</ele><time>2026-04-05T13:59:37.424Z</time></trkpt><trkpt lat="42.9491091" lon="12.8642919"><ele>644.6666666666666</ele><time>2026-04-05T13:59:38.423Z</time></trkpt><trkpt lat="42.948929" lon="12.8643324"><ele>644.0</ele><time>2026-04-05T13:59:39.424Z</time></trkpt><trkpt lat="42.9487503" lon="12.8643624"><ele>644.0</ele><time>2026-04-05T13:59:40.424Z</time></trkpt><trkpt lat="42.9485735" lon="12.8643917"><ele>644.0</ele><time>2026-04-05T13:59:41.424Z</time></trkpt><trkpt lat="42.9484053" lon="12.8644118"><ele>644.0</ele><time>2026-04-05T13:59:42.424Z</time></trkpt><trkpt lat="42.9482212" lon="12.8644304"><ele>644.6666666666666</ele><time>2026-04-05T13:59:43.424Z</time></trkpt><trkpt lat="42.9480433" lon="12.8644148"><ele>645.3333333333334</ele><time>2026-04-05T13:59:44.424Z</time></trkpt><trkpt lat="42.9478616" lon="12.8643695"><ele>646.0</ele><time>2026-04-05T13:59:45.424Z</time></trkpt><trkpt lat="42.9476809" lon="12.8643026"><ele>648.0</ele><time>2026-04-05T13:59:46.424Z</time></trkpt><trkpt lat="42.9475051" lon="12.8642326"><ele>650.0</ele><time>2026-04-05T13:59:47.424Z</time></trkpt><trkpt lat="42.947324" lon="12.8641569"><ele>652.0</ele><time>2026-04-05T13:59:48.424Z</time></trkpt><trkpt lat="42.9471452" lon="12.8640854"><ele>652.0</ele><time>2026-04-05T13:59:49.424Z</time></trkpt><trkpt lat="42.9469637" lon="12.864007"><ele>652.0</ele><time>2026-04-05T13:59:50.424Z</time></trkpt><trkpt lat="42.9467806" lon="12.8639224"><ele>652.0</ele><time>2026-04-05T13:59:51.424Z</time></trkpt><trkpt lat="42.946592" lon="12.863842"><ele>651.6666666666667</ele><time>2026-04-05T13:59:52.424Z</time></trkpt><trkpt lat="42.9464048" lon="12.863761"><ele>651.3333333333334</ele><time>2026-04-05T13:59:53.423Z</time></trkpt><trkpt lat="42.9462122" lon="12.8637012"><ele>651.0</ele><time>2026-04-05T13:59:54.424Z</time></trkpt><trkpt lat="42.9460175" lon="12.8636616"><ele>650.3333333333334</ele><time>2026-04-05T13:59:55.424Z</time></trkpt><trkpt lat="42.9458103" lon="12.8636326"><ele>649.6666666666667</ele><time>2026-04-05T13:59:56.424Z</time></trkpt><trkpt lat="42.9456106" lon="12.8636188"><ele>649.0</ele><time>2026-04-05T13:59:57.424Z</time></trkpt><trkpt lat="42.9454153" lon="12.8635885"><ele>649.0</ele><time>2026-04-05T13:59:58.424Z</time></trkpt><trkpt lat="42.9452012" lon="12.8635728"><ele>649.0</ele><time>2026-04-05T13:59:59.424Z</time></trkpt><trkpt lat="42.9449936" lon="12.8635428"><ele>649.0</ele><time>2026-04-05T14:00:00.424Z</time></trkpt><trkpt lat="42.9447787" lon="12.8635228"><ele>649.6666666666667</ele><time>2026-04-05T14:00:01.423Z</time></trkpt><trkpt lat="42.9445669" lon="12.8635014"><ele>650.3333333333334</ele><time>2026-04-05T14:00:02.424Z</time></trkpt><trkpt lat="42.9443555" lon="12.8634798"><ele>651.0</ele><time>2026-04-05T14:00:03.424Z</time></trkpt><trkpt lat="42.9441451" lon="12.8634585"><ele>657.3333333333334</ele><time>2026-04-05T14:00:04.424Z</time></trkpt><trkpt lat="42.9439289" lon="12.863445"><ele>663.6666666666667</ele><time>2026-04-05T14:00:05.424Z</time></trkpt><trkpt lat="42.9437167" lon="12.8634224"><ele>670.0</ele><time>2026-04-05T14:00:06.424Z</time></trkpt><trkpt lat="42.9435018" lon="12.8634051"><ele>672.0</ele><time>2026-04-05T14:00:07.423Z</time></trkpt><trkpt lat="42.9432919" lon="12.8633828"><ele>674.0</ele><time>2026-04-05T14:00:08.424Z</time></trkpt><trkpt lat="42.9430799" lon="12.863369"><ele>676.0</ele><time>2026-04-05T14:00:09.424Z</time></trkpt><trkpt lat="42.9428756" lon="12.8633515"><ele>676.0</ele><time>2026-04-05T14:00:10.424Z</time></trkpt><trkpt lat="42.9426718" lon="12.8633565"><ele>676.0</ele><time>2026-04-05T14:00:11.424Z</time></trkpt><trkpt lat="42.9425027" lon="12.8633664"><ele>676.0</ele><time>2026-04-05T14:00:12.424Z</time></trkpt><trkpt lat="42.9423314" lon="12.8633986"><ele>675.6666666666667</ele><time>2026-04-05T14:00:13.424Z</time></trkpt><trkpt lat="42.9421626" lon="12.8634169"><ele>675.3333333333334</ele><time>2026-04-05T14:00:14.423Z</time></trkpt><trkpt lat="42.9420073" lon="12.863418"><ele>675.0</ele><time>2026-04-05T14:00:15.424Z</time></trkpt><trkpt lat="42.9418613" lon="12.863385"><ele>675.0</ele><time>2026-04-05T14:00:16.424Z</time></trkpt><trkpt lat="42.9417256" lon="12.8633252"><ele>675.0</ele><time>2026-04-05T14:00:17.424Z</time></trkpt><trkpt lat="42.9415987" lon="12.8632258"><ele>675.0</ele><time>2026-04-05T14:00:18.424Z</time></trkpt><trkpt lat="42.9414951" lon="12.8631044"><ele>675.0</ele><time>2026-04-05T14:00:19.424Z</time></trkpt><trkpt lat="42.9413976" lon="12.8629704"><ele>675.75</ele><time>2026-04-05T14:00:20.424Z</time></trkpt><trkpt lat="42.9412985" lon="12.8628371"><ele>676.5</ele><time>2026-04-05T14:00:21.423Z</time></trkpt><trkpt lat="42.9411766" lon="12.8627207"><ele>677.25</ele><time>2026-04-05T14:00:22.424Z</time></trkpt><trkpt lat="42.9410383" lon="12.8626348"><ele>678.0</ele><time>2026-04-05T14:00:23.423Z</time></trkpt><trkpt lat="42.9408784" lon="12.8625804"><ele>678.0</ele><time>2026-04-05T14:00:24.424Z</time></trkpt><trkpt lat="42.9407233" lon="12.8625217"><ele>678.0</ele><time>2026-04-05T14:00:25.424Z</time></trkpt><trkpt lat="42.9405469" lon="12.8624701"><ele>678.0</ele><time>2026-04-05T14:00:26.424Z</time></trkpt><trkpt lat="42.9403611" lon="12.8624282"><ele>678.0</ele><time>2026-04-05T14:00:27.424Z</time></trkpt><trkpt lat="42.9401692" lon="12.8623748"><ele>678.0</ele><time>2026-04-05T14:00:28.424Z</time></trkpt><trkpt lat="42.9399776" lon="12.8623242"><ele>678.0</ele><time>2026-04-05T14:00:29.423Z</time></trkpt><trkpt lat="42.9397879" lon="12.8622721"><ele>675.3333333333334</ele><time>2026-04-05T14:00:30.423Z</time></trkpt><trkpt lat="42.9396008" lon="12.8622172"><ele>672.6666666666667</ele><time>2026-04-05T14:00:31.423Z</time></trkpt><trkpt lat="42.9394051" lon="12.8621648"><ele>670.0</ele><time>2026-04-05T14:00:32.424Z</time></trkpt><trkpt lat="42.9392164" lon="12.8621023"><ele>668.0</ele><time>2026-04-05T14:00:33.424Z</time></trkpt><trkpt lat="42.9390145" lon="12.8620441"><ele>666.0</ele><time>2026-04-05T14:00:34.423Z</time></trkpt><trkpt lat="42.9388159" lon="12.8619795"><ele>664.0</ele><time>2026-04-05T14:00:35.424Z</time></trkpt><trkpt lat="42.938608" lon="12.8619285"><ele>664.0</ele><time>2026-04-05T14:00:36.424Z</time></trkpt><trkpt lat="42.9384054" lon="12.8618649"><ele>664.0</ele><time>2026-04-05T14:00:37.424Z</time></trkpt><trkpt lat="42.938197" lon="12.861805"><ele>664.0</ele><time>2026-04-05T14:00:38.423Z</time></trkpt><trkpt lat="42.937986" lon="12.8617474"><ele>667.0</ele><time>2026-04-05T14:00:39.424Z</time></trkpt><trkpt lat="42.9377753" lon="12.8617039"><ele>670.0</ele><time>2026-04-05T14:00:40.423Z</time></trkpt><trkpt lat="42.9375657" lon="12.8616684"><ele>673.0</ele><time>2026-04-05T14:00:41.423Z</time></trkpt><trkpt lat="42.9373594" lon="12.861639"><ele>673.0</ele><time>2026-04-05T14:00:42.424Z</time></trkpt><trkpt lat="42.9371495" lon="12.861629"><ele>673.0</ele><time>2026-04-05T14:00:43.424Z</time></trkpt><trkpt lat="42.9369378" lon="12.8616449"><ele>673.0</ele><time>2026-04-05T14:00:44.423Z</time></trkpt><trkpt lat="42.9367347" lon="12.8616523"><ele>674.6666666666667</ele><time>2026-04-05T14:00:45.424Z</time></trkpt><trkpt lat="42.9365257" lon="12.8616685"><ele>676.3333333333334</ele><time>2026-04-05T14:00:46.424Z</time></trkpt><trkpt lat="42.9363249" lon="12.8616741"><ele>678.0</ele><time>2026-04-05T14:00:47.424Z</time></trkpt><trkpt lat="42.9361207" lon="12.8616844"><ele>678.0</ele><time>2026-04-05T14:00:48.424Z</time></trkpt><trkpt lat="42.9359219" lon="12.8617062"><ele>678.0</ele><time>2026-04-05T14:00:49.423Z</time></trkpt><trkpt lat="42.9357252" lon="12.8617501"><ele>678.0</ele><time>2026-04-05T14:00:50.424Z</time></trkpt><trkpt lat="42.9355347" lon="12.8617935"><ele>676.0</ele><time>2026-04-05T14:00:51.424Z</time></trkpt><trkpt lat="42.9353404" lon="12.8618653"><ele>674.0</ele><time>2026-04-05T14:00:52.424Z</time></trkpt><trkpt lat="42.9351437" lon="12.8619399"><ele>672.0</ele><time>2026-04-05T14:00:53.424Z</time></trkpt><trkpt lat="42.9349445" lon="12.8620162"><ele>672.0</ele><time>2026-04-05T14:00:54.424Z</time></trkpt><trkpt lat="42.9347429" lon="12.8620954"><ele>672.0</ele><time>2026-04-05T14:00:55.424Z</time></trkpt><trkpt lat="42.9345437" lon="12.8621863"><ele>672.0</ele><time>2026-04-05T14:00:56.424Z</time></trkpt><trkpt lat="42.934355" lon="12.8622893"><ele>672.3333333333334</ele><time>2026-04-05T14:00:57.424Z</time></trkpt><trkpt lat="42.9341622" lon="12.862393"><ele>672.6666666666667</ele><time>2026-04-05T14:00:58.424Z</time></trkpt><trkpt lat="42.9339582" lon="12.8625004"><ele>673.0</ele><time>2026-04-05T14:00:59.423Z</time></trkpt><trkpt lat="42.9337507" lon="12.862608"><ele>672.3333333333334</ele><time>2026-04-05T14:01:00.424Z</time></trkpt><trkpt lat="42.9335542" lon="12.8627021"><ele>671.6666666666666</ele><time>2026-04-05T14:01:01.423Z</time></trkpt><trkpt lat="42.9333559" lon="12.8628004"><ele>671.0</ele><time>2026-04-05T14:01:02.423Z</time></trkpt><trkpt lat="42.9331576" lon="12.8629024"><ele>671.0</ele><time>2026-04-05T14:01:03.424Z</time></trkpt><trkpt lat="42.9329616" lon="12.8630102"><ele>671.0</ele><time>2026-04-05T14:01:04.424Z</time></trkpt><trkpt lat="42.9327789" lon="12.8631083"><ele>671.0</ele><time>2026-04-05T14:01:05.423Z</time></trkpt><trkpt lat="42.9325967" lon="12.8632186"><ele>670.0</ele><time>2026-04-05T14:01:06.424Z</time></trkpt><trkpt lat="42.9324199" lon="12.8633386"><ele>669.0</ele><time>2026-04-05T14:01:07.424Z</time></trkpt><trkpt lat="42.9322417" lon="12.8634753"><ele>668.0</ele><time>2026-04-05T14:01:08.424Z</time></trkpt><trkpt lat="42.9320727" lon="12.8636123"><ele>668.0</ele><time>2026-04-05T14:01:09.423Z</time></trkpt><trkpt lat="42.9318984" lon="12.8637478"><ele>668.0</ele><time>2026-04-05T14:01:10.424Z</time></trkpt><trkpt lat="42.9317304" lon="12.8638768"><ele>668.0</ele><time>2026-04-05T14:01:11.424Z</time></trkpt><trkpt lat="42.9315754" lon="12.8639983"><ele>668.6666666666666</ele><time>2026-04-05T14:01:12.424Z</time></trkpt><trkpt lat="42.9314179" lon="12.864125"><ele>669.3333333333334</ele><time>2026-04-05T14:01:13.424Z</time></trkpt><trkpt lat="42.9312667" lon="12.8642452"><ele>670.0</ele><time>2026-04-05T14:01:14.424Z</time></trkpt><trkpt lat="42.9311248" lon="12.8643593"><ele>670.0</ele><time>2026-04-05T14:01:15.423Z</time></trkpt><trkpt lat="42.9309766" lon="12.8644863"><ele>670.0</ele><time>2026-04-05T14:01:16.424Z</time></trkpt><trkpt lat="42.9308429" lon="12.8646139"><ele>670.0</ele><time>2026-04-05T14:01:17.424Z</time></trkpt><trkpt lat="42.9307064" lon="12.8647626"><ele>671.0</ele><time>2026-04-05T14:01:18.424Z</time></trkpt><trkpt lat="42.9305723" lon="12.8649243"><ele>672.0</ele><time>2026-04-05T14:01:19.424Z</time></trkpt><trkpt lat="42.9304442" lon="12.8651079"><ele>673.0</ele><time>2026-04-05T14:01:20.424Z</time></trkpt><trkpt lat="42.9303254" lon="12.8653014"><ele>673.0</ele><time>2026-04-05T14:01:21.423Z</time></trkpt><trkpt lat="42.9302085" lon="12.8655065"><ele>673.0</ele><time>2026-04-05T14:01:22.424Z</time></trkpt><trkpt lat="42.9301111" lon="12.8657083"><ele>673.0</ele><time>2026-04-05T14:01:23.424Z</time></trkpt><trkpt lat="42.9300187" lon="12.8659394"><ele>673.0</ele><time>2026-04-05T14:01:24.424Z</time></trkpt><trkpt lat="42.9299311" lon="12.8661867"><ele>673.0</ele><time>2026-04-05T14:01:25.423Z</time></trkpt><trkpt lat="42.9298507" lon="12.8664403"><ele>673.0</ele><time>2026-04-05T14:01:26.423Z</time></trkpt><trkpt lat="42.9297743" lon="12.8666975"><ele>673.6666666666667</ele><time>2026-04-05T14:01:27.423Z</time></trkpt><trkpt lat="42.9297051" lon="12.866958"><ele>674.3333333333334</ele><time>2026-04-05T14:01:28.424Z</time></trkpt><trkpt lat="42.9296344" lon="12.8672096"><ele>675.0</ele><time>2026-04-05T14:01:29.424Z</time></trkpt><trkpt lat="42.9295681" lon="12.8674609"><ele>677.3333333333334</ele><time>2026-04-05T14:01:30.424Z</time></trkpt><trkpt lat="42.9294975" lon="12.8677047"><ele>679.6666666666667</ele><time>2026-04-05T14:01:31.423Z</time></trkpt><trkpt lat="42.9294244" lon="12.867962"><ele>682.0</ele><time>2026-04-05T14:01:32.423Z</time></trkpt><trkpt lat="42.9293583" lon="12.8682089"><ele>680.0</ele><time>2026-04-05T14:01:33.424Z</time></trkpt><trkpt lat="42.9292921" lon="12.8684637"><ele>678.0</ele><time>2026-04-05T14:01:34.424Z</time></trkpt><trkpt lat="42.9292184" lon="12.8687225"><ele>676.0</ele><time>2026-04-05T14:01:35.424Z</time></trkpt><trkpt lat="42.9291503" lon="12.8689753"><ele>676.0</ele><time>2026-04-05T14:01:36.424Z</time></trkpt><trkpt lat="42.9290769" lon="12.8692289"><ele>676.0</ele><time>2026-04-05T14:01:37.424Z</time></trkpt><trkpt lat="42.9290021" lon="12.8694804"><ele>676.0</ele><time>2026-04-05T14:01:38.424Z</time></trkpt><trkpt lat="42.9289261" lon="12.8697347"><ele>677.3333333333334</ele><time>2026-04-05T14:01:39.424Z</time></trkpt><trkpt lat="42.928845" lon="12.869982"><ele>678.6666666666666</ele><time>2026-04-05T14:01:40.424Z</time></trkpt><trkpt lat="42.9287509" lon="12.8702202"><ele>680.0</ele><time>2026-04-05T14:01:41.424Z</time></trkpt><trkpt lat="42.9286513" lon="12.870438"><ele>679.6666666666666</ele><time>2026-04-05T14:01:42.424Z</time></trkpt><trkpt lat="42.9285234" lon="12.8706473"><ele>679.3333333333334</ele><time>2026-04-05T14:01:43.424Z</time></trkpt><trkpt lat="42.9283786" lon="12.870838"><ele>679.0</ele><time>2026-04-05T14:01:44.424Z</time></trkpt><trkpt lat="42.9282102" lon="12.8710151"><ele>684.3333333333334</ele><time>2026-04-05T14:01:45.423Z</time></trkpt><trkpt lat="42.9280407" lon="12.8711789"><ele>689.6666666666666</ele><time>2026-04-05T14:01:46.423Z</time></trkpt><trkpt lat="42.9278583" lon="12.8713201"><ele>695.0</ele><time>2026-04-05T14:01:47.424Z</time></trkpt><trkpt lat="42.9276651" lon="12.8714312"><ele>692.6666666666666</ele><time>2026-04-05T14:01:48.424Z</time></trkpt><trkpt lat="42.92747" lon="12.871542"><ele>690.3333333333334</ele><time>2026-04-05T14:01:49.423Z</time></trkpt><trkpt lat="42.9272814" lon="12.8716589"><ele>688.0</ele><time>2026-04-05T14:01:50.424Z</time></trkpt><trkpt lat="42.9270897" lon="12.8717803"><ele>693.0</ele><time>2026-04-05T14:01:51.424Z</time></trkpt><trkpt lat="42.9268991" lon="12.8719085"><ele>698.0</ele><time>2026-04-05T14:01:52.424Z</time></trkpt><trkpt lat="42.9267131" lon="12.8720323"><ele>703.0</ele><time>2026-04-05T14:01:53.424Z</time></trkpt><trkpt lat="42.9265236" lon="12.8721507"><ele>703.0</ele><time>2026-04-05T14:01:54.424Z</time></trkpt><trkpt lat="42.9263268" lon="12.8722655"><ele>703.0</ele><time>2026-04-05T14:01:55.424Z</time></trkpt><trkpt lat="42.9261319" lon="12.8723447"><ele>703.0</ele><time>2026-04-05T14:01:56.424Z</time></trkpt><trkpt lat="42.9259283" lon="12.8724125"><ele>699.6666666666667</ele><time>2026-04-05T14:01:57.424Z</time></trkpt><trkpt lat="42.9257171" lon="12.8724672"><ele>696.3333333333334</ele><time>2026-04-05T14:01:58.424Z</time></trkpt><trkpt lat="42.925503" lon="12.8725178"><ele>693.0</ele><time>2026-04-05T14:01:59.423Z</time></trkpt><trkpt lat="42.9252856" lon="12.8725734"><ele>701.0</ele><time>2026-04-05T14:02:00.424Z</time></trkpt><trkpt lat="42.9250674" lon="12.8726218"><ele>709.0</ele><time>2026-04-05T14:02:01.424Z</time></trkpt><trkpt lat="42.9248559" lon="12.8726802"><ele>717.0</ele><time>2026-04-05T14:02:02.424Z</time></trkpt><trkpt lat="42.9246446" lon="12.8727373"><ele>717.0</ele><time>2026-04-05T14:02:03.424Z</time></trkpt><trkpt lat="42.9244314" lon="12.8727915"><ele>717.0</ele><time>2026-04-05T14:02:04.423Z</time></trkpt><trkpt lat="42.9242195" lon="12.8728394"><ele>717.0</ele><time>2026-04-05T14:02:05.424Z</time></trkpt><trkpt lat="42.9240183" lon="12.8728925"><ele>715.3333333333334</ele><time>2026-04-05T14:02:06.423Z</time></trkpt><trkpt lat="42.9238236" lon="12.872938"><ele>713.6666666666667</ele><time>2026-04-05T14:02:07.424Z</time></trkpt><trkpt lat="42.9236412" lon="12.8729898"><ele>712.0</ele><time>2026-04-05T14:02:08.424Z</time></trkpt><trkpt lat="42.9234818" lon="12.8730458"><ele>708.3333333333334</ele><time>2026-04-05T14:02:09.423Z</time></trkpt><trkpt lat="42.9233135" lon="12.8731347"><ele>704.6666666666666</ele><time>2026-04-05T14:02:10.424Z</time></trkpt><trkpt lat="42.9231555" lon="12.873253"><ele>701.0</ele><time>2026-04-05T14:02:11.424Z</time></trkpt><trkpt lat="42.9229954" lon="12.8733839"><ele>711.3333333333333</ele><time>2026-04-05T14:02:12.424Z</time></trkpt><trkpt lat="42.9228566" lon="12.873508"><ele>721.6666666666666</ele><time>2026-04-05T14:02:13.424Z</time></trkpt><trkpt lat="42.9227202" lon="12.8736242"><ele>732.0</ele><time>2026-04-05T14:02:14.424Z</time></trkpt><trkpt lat="42.9226106" lon="12.8737354"><ele>724.75</ele><time>2026-04-05T14:02:15.423Z</time></trkpt><trkpt lat="42.9225109" lon="12.8738613"><ele>717.5</ele><time>2026-04-05T14:02:16.424Z</time></trkpt><trkpt lat="42.922436" lon="12.8740015"><ele>710.25</ele><time>2026-04-05T14:02:17.423Z</time></trkpt><trkpt lat="42.9224008" lon="12.8741879"><ele>703.0</ele><time>2026-04-05T14:02:18.424Z</time></trkpt><trkpt lat="42.9223979" lon="12.8743908"><ele>703.0</ele><time>2026-04-05T14:02:19.424Z</time></trkpt><trkpt lat="42.9224174" lon="12.8746028"><ele>703.0</ele><time>2026-04-05T14:02:20.424Z</time></trkpt><trkpt lat="42.9224425" lon="12.8748362"><ele>703.0</ele><time>2026-04-05T14:02:21.424Z</time></trkpt><trkpt lat="42.9224772" lon="12.8750676"><ele>702.0</ele><time>2026-04-05T14:02:22.424Z</time></trkpt><trkpt lat="42.9225123" lon="12.8753147"><ele>701.0</ele><time>2026-04-05T14:02:23.424Z</time></trkpt><trkpt lat="42.9225542" lon="12.8755533"><ele>700.0</ele><time>2026-04-05T14:02:24.423Z</time></trkpt><trkpt lat="42.9225825" lon="12.875786"><ele>707.6666666666667</ele><time>2026-04-05T14:02:25.423Z</time></trkpt><trkpt lat="42.922622" lon="12.8760212"><ele>715.3333333333334</ele><time>2026-04-05T14:02:26.423Z</time></trkpt><trkpt lat="42.9226574" lon="12.8762444"><ele>723.0</ele><time>2026-04-05T14:02:27.423Z</time></trkpt><trkpt lat="42.9227126" lon="12.8764598"><ele>723.0</ele><time>2026-04-05T14:02:28.424Z</time></trkpt><trkpt lat="42.922787" lon="12.8766665"><ele>723.0</ele><time>2026-04-05T14:02:29.423Z</time></trkpt><trkpt lat="42.9228731" lon="12.8768701"><ele>723.0</ele><time>2026-04-05T14:02:30.424Z</time></trkpt><trkpt lat="42.9229734" lon="12.8770691"><ele>718.0</ele><time>2026-04-05T14:02:31.424Z</time></trkpt><trkpt lat="42.9230857" lon="12.877284"><ele>713.0</ele><time>2026-04-05T14:02:32.423Z</time></trkpt><trkpt lat="42.9232028" lon="12.8774947"><ele>708.0</ele><time>2026-04-05T14:02:33.424Z</time></trkpt><trkpt lat="42.9233241" lon="12.8777135"><ele>712.0</ele><time>2026-04-05T14:02:34.424Z</time></trkpt><trkpt lat="42.923437" lon="12.8779287"><ele>716.0</ele><time>2026-04-05T14:02:35.423Z</time></trkpt><trkpt lat="42.9235459" lon="12.8781474"><ele>720.0</ele><time>2026-04-05T14:02:36.423Z</time></trkpt><trkpt lat="42.9236663" lon="12.8783565"><ele>714.3333333333334</ele><time>2026-04-05T14:02:37.424Z</time></trkpt><trkpt lat="42.9238213" lon="12.8785402"><ele>708.6666666666667</ele><time>2026-04-05T14:02:38.424Z</time></trkpt><trkpt lat="42.9239783" lon="12.8787124"><ele>703.0</ele><time>2026-04-05T14:02:39.424Z</time></trkpt><trkpt lat="42.9241468" lon="12.8788801"><ele>703.3333333333334</ele><time>2026-04-05T14:02:40.424Z</time></trkpt><trkpt lat="42.92431" lon="12.8790435"><ele>703.6666666666666</ele><time>2026-04-05T14:02:41.424Z</time></trkpt><trkpt lat="42.9244755" lon="12.8792055"><ele>704.0</ele><time>2026-04-05T14:02:42.423Z</time></trkpt><trkpt lat="42.9246397" lon="12.8793647"><ele>704.0</ele><time>2026-04-05T14:02:43.424Z</time></trkpt><trkpt lat="42.9247953" lon="12.8795194"><ele>704.0</ele><time>2026-04-05T14:02:44.424Z</time></trkpt><trkpt lat="42.9249432" lon="12.8796654"><ele>704.0</ele><time>2026-04-05T14:02:45.424Z</time></trkpt><trkpt lat="42.9250929" lon="12.8798013"><ele>703.3333333333333</ele><time>2026-04-05T14:02:46.423Z</time></trkpt><trkpt lat="42.9252268" lon="12.8799216"><ele>702.6666666666666</ele><time>2026-04-05T14:02:47.423Z</time></trkpt><trkpt lat="42.9253526" lon="12.8800541"><ele>702.0</ele><time>2026-04-05T14:02:48.424Z</time></trkpt><trkpt lat="42.9254629" lon="12.8801747"><ele>702.0</ele><time>2026-04-05T14:02:49.424Z</time></trkpt><trkpt lat="42.9255587" lon="12.88029"><ele>702.0</ele><time>2026-04-05T14:02:50.424Z</time></trkpt><trkpt lat="42.925601" lon="12.8804448"><ele>702.0</ele><time>2026-04-05T14:02:51.423Z</time></trkpt><trkpt lat="42.9256382" lon="12.8805994"><ele>702.0</ele><time>2026-04-05T14:02:52.424Z</time></trkpt><trkpt lat="42.925633" lon="12.8807409"><ele>702.0</ele><time>2026-04-05T14:02:53.424Z</time></trkpt><trkpt lat="42.9255914" lon="12.8808498"><ele>702.0</ele><time>2026-04-05T14:02:54.424Z</time></trkpt><trkpt lat="42.9255287" lon="12.8809288"><ele>702.0</ele><time>2026-04-05T14:02:55.424Z</time></trkpt><trkpt lat="42.9254259" lon="12.8809718"><ele>702.0</ele><time>2026-04-05T14:02:56.424Z</time></trkpt><trkpt lat="42.9253103" lon="12.8809649"><ele>702.0</ele><time>2026-04-05T14:02:57.424Z</time></trkpt><trkpt lat="42.9251904" lon="12.88092"><ele>702.0</ele><time>2026-04-05T14:02:58.423Z</time></trkpt><trkpt lat="42.9250686" lon="12.8808239"><ele>702.0</ele><time>2026-04-05T14:02:59.424Z</time></trkpt><trkpt lat="42.924937" lon="12.8807382"><ele>702.0</ele><time>2026-04-05T14:03:00.424Z</time></trkpt><trkpt lat="42.9248033" lon="12.8806468"><ele>702.0</ele><time>2026-04-05T14:03:01.424Z</time></trkpt><trkpt lat="42.9246605" lon="12.8805447"><ele>705.6666666666666</ele><time>2026-04-05T14:03:02.424Z</time></trkpt><trkpt lat="42.9245122" lon="12.8804379"><ele>709.3333333333333</ele><time>2026-04-05T14:03:03.424Z</time></trkpt><trkpt lat="42.9243541" lon="12.8803315"><ele>713.0</ele><time>2026-04-05T14:03:04.424Z</time></trkpt><trkpt lat="42.9242054" lon="12.8802315"><ele>710.0</ele><time>2026-04-05T14:03:05.423Z</time></trkpt><trkpt lat="42.924062" lon="12.8801334"><ele>707.0</ele><time>2026-04-05T14:03:06.424Z</time></trkpt><trkpt lat="42.9239235" lon="12.8800415"><ele>704.0</ele><time>2026-04-05T14:03:07.424Z</time></trkpt><trkpt lat="42.9237895" lon="12.8799949"><ele>704.0</ele><time>2026-04-05T14:03:08.424Z</time></trkpt><trkpt lat="42.9236605" lon="12.8799842"><ele>704.0</ele><time>2026-04-05T14:03:09.424Z</time></trkpt><trkpt lat="42.9235412" lon="12.8800142"><ele>704.0</ele><time>2026-04-05T14:03:10.424Z</time></trkpt><trkpt lat="42.9234208" lon="12.8801003"><ele>704.0</ele><time>2026-04-05T14:03:11.424Z</time></trkpt><trkpt lat="42.9233342" lon="12.8802418"><ele>709.75</ele><time>2026-04-05T14:03:12.424Z</time></trkpt><trkpt lat="42.9232507" lon="12.8803927"><ele>715.5</ele><time>2026-04-05T14:03:13.424Z</time></trkpt><trkpt lat="42.9231636" lon="12.8805561"><ele>721.25</ele><time>2026-04-05T14:03:14.424Z</time></trkpt><trkpt lat="42.9230636" lon="12.8807041"><ele>727.0</ele><time>2026-04-05T14:03:15.424Z</time></trkpt><trkpt lat="42.9229468" lon="12.8808232"><ele>727.0</ele><time>2026-04-05T14:03:16.424Z</time></trkpt><trkpt lat="42.9228215" lon="12.8809019"><ele>727.0</ele><time>2026-04-05T14:03:17.424Z</time></trkpt><trkpt lat="42.9226892" lon="12.8809576"><ele>727.0</ele><time>2026-04-05T14:03:18.424Z</time></trkpt><trkpt lat="42.9225634" lon="12.8810015"><ele>727.0</ele><time>2026-04-05T14:03:19.423Z</time></trkpt><trkpt lat="42.9224446" lon="12.8810665"><ele>730.75</ele><time>2026-04-05T14:03:20.424Z</time></trkpt><trkpt lat="42.9223307" lon="12.8811488"><ele>734.5</ele><time>2026-04-05T14:03:21.424Z</time></trkpt><trkpt lat="42.9222263" lon="12.8812493"><ele>738.25</ele><time>2026-04-05T14:03:22.423Z</time></trkpt><trkpt lat="42.9221345" lon="12.8813739"><ele>742.0</ele><time>2026-04-05T14:03:23.424Z</time></trkpt><trkpt lat="42.92206" lon="12.8815187"><ele>742.0</ele><time>2026-04-05T14:03:24.424Z</time></trkpt><trkpt lat="42.9219944" lon="12.8816699"><ele>742.0</ele><time>2026-04-05T14:03:25.423Z</time></trkpt><trkpt lat="42.9219598" lon="12.8818319"><ele>742.0</ele><time>2026-04-05T14:03:26.424Z</time></trkpt><trkpt lat="42.9219539" lon="12.8819946"><ele>742.0</ele><time>2026-04-05T14:03:27.424Z</time></trkpt><trkpt lat="42.9219447" lon="12.8821353"><ele>745.6</ele><time>2026-04-05T14:03:28.424Z</time></trkpt><trkpt lat="42.9219339" lon="12.8822855"><ele>749.2</ele><time>2026-04-05T14:03:29.424Z</time></trkpt><trkpt lat="42.9219246" lon="12.8824198"><ele>752.8</ele><time>2026-04-05T14:03:30.424Z</time></trkpt><trkpt lat="42.9218987" lon="12.8825462"><ele>756.4</ele><time>2026-04-05T14:03:31.424Z</time></trkpt><trkpt lat="42.9218417" lon="12.8826358"><ele>760.0</ele><time>2026-04-05T14:03:32.423Z</time></trkpt><trkpt lat="42.9217504" lon="12.8826844"><ele>758.6</ele><time>2026-04-05T14:03:33.423Z</time></trkpt><trkpt lat="42.9216592" lon="12.8826808"><ele>757.2</ele><time>2026-04-05T14:03:34.424Z</time></trkpt><trkpt lat="42.9215708" lon="12.8826302"><ele>755.8</ele><time>2026-04-05T14:03:35.424Z</time></trkpt><trkpt lat="42.9215036" lon="12.8825445"><ele>754.4</ele><time>2026-04-05T14:03:36.424Z</time></trkpt><trkpt lat="42.921433" lon="12.8824534"><ele>753.0</ele><time>2026-04-05T14:03:37.424Z</time></trkpt><trkpt lat="42.9213607" lon="12.8823597"><ele>748.8</ele><time>2026-04-05T14:03:38.424Z</time></trkpt><trkpt lat="42.9212848" lon="12.882262"><ele>744.5999999999999</ele><time>2026-04-05T14:03:39.424Z</time></trkpt><trkpt lat="42.9212031" lon="12.8821741"><ele>740.4000000000001</ele><time>2026-04-05T14:03:40.424Z</time></trkpt><trkpt lat="42.9211136" lon="12.882094"><ele>736.2</ele><time>2026-04-05T14:03:41.424Z</time></trkpt><trkpt lat="42.9210151" lon="12.8820415"><ele>732.0</ele><time>2026-04-05T14:03:42.424Z</time></trkpt><trkpt lat="42.9209054" lon="12.8820351"><ele>734.0</ele><time>2026-04-05T14:03:43.424Z</time></trkpt><trkpt lat="42.9207826" lon="12.8820556"><ele>736.0</ele><time>2026-04-05T14:03:44.424Z</time></trkpt><trkpt lat="42.9206655" lon="12.8820992"><ele>738.0</ele><time>2026-04-05T14:03:45.423Z</time></trkpt><trkpt lat="42.9205548" lon="12.8821666"><ele>740.0</ele><time>2026-04-05T14:03:46.424Z</time></trkpt><trkpt lat="42.9204522" lon="12.8822696"><ele>740.0</ele><time>2026-04-05T14:03:47.423Z</time></trkpt><trkpt lat="42.9203647" lon="12.8823957"><ele>740.0</ele><time>2026-04-05T14:03:48.424Z</time></trkpt><trkpt lat="42.9202974" lon="12.8825301"><ele>740.0</ele><time>2026-04-05T14:03:49.424Z</time></trkpt><trkpt lat="42.9202335" lon="12.8826609"><ele>740.0</ele><time>2026-04-05T14:03:50.423Z</time></trkpt><trkpt lat="42.9201689" lon="12.8827584"><ele>743.5</ele><time>2026-04-05T14:03:51.424Z</time></trkpt><trkpt lat="42.920101" lon="12.8828259"><ele>747.0</ele><time>2026-04-05T14:03:52.424Z</time></trkpt><trkpt lat="42.9200299" lon="12.882842"><ele>750.5</ele><time>2026-04-05T14:03:53.423Z</time></trkpt><trkpt lat="42.9199512" lon="12.8828427"><ele>754.0</ele><time>2026-04-05T14:03:54.424Z</time></trkpt><trkpt lat="42.9198776" lon="12.8827626"><ele>757.5</ele><time>2026-04-05T14:03:55.424Z</time></trkpt><trkpt lat="42.9198037" lon="12.8826953"><ele>761.0</ele><time>2026-04-05T14:03:56.424Z</time></trkpt><trkpt lat="42.9197126" lon="12.8826442"><ele>761.0</ele><time>2026-04-05T14:03:57.424Z</time></trkpt><trkpt lat="42.9196122" lon="12.8826088"><ele>761.0</ele><time>2026-04-05T14:03:58.423Z</time></trkpt><trkpt lat="42.9195041" lon="12.8825955"><ele>761.0</ele><time>2026-04-05T14:03:59.424Z</time></trkpt><trkpt lat="42.9193963" lon="12.8825841"><ele>761.0</ele><time>2026-04-05T14:04:00.423Z</time></trkpt><trkpt lat="42.9192838" lon="12.8826379"><ele>761.0</ele><time>2026-04-05T14:04:01.424Z</time></trkpt><trkpt lat="42.9191727" lon="12.8826953"><ele>758.4</ele><time>2026-04-05T14:04:02.424Z</time></trkpt><trkpt lat="42.9190878" lon="12.8827744"><ele>755.8</ele><time>2026-04-05T14:04:03.423Z</time></trkpt><trkpt lat="42.9190257" lon="12.8829046"><ele>753.1999999999999</ele><time>2026-04-05T14:04:04.423Z</time></trkpt><trkpt lat="42.9189853" lon="12.8830364"><ele>750.5999999999999</ele><time>2026-04-05T14:04:05.424Z</time></trkpt><trkpt lat="42.9189805" lon="12.8832053"><ele>748.0</ele><time>2026-04-05T14:04:06.424Z</time></trkpt><trkpt lat="42.9189823" lon="12.8833788"><ele>750.75</ele><time>2026-04-05T14:04:07.424Z</time></trkpt><trkpt lat="42.9189889" lon="12.8835652"><ele>753.5</ele><time>2026-04-05T14:04:08.423Z</time></trkpt><trkpt lat="42.9189951" lon="12.8837503"><ele>756.25</ele><time>2026-04-05T14:04:09.424Z</time></trkpt><trkpt lat="42.9190015" lon="12.8839443"><ele>759.0</ele><time>2026-04-05T14:04:10.424Z</time></trkpt><trkpt lat="42.9190057" lon="12.8841313"><ele>762.75</ele><time>2026-04-05T14:04:11.424Z</time></trkpt><trkpt lat="42.9189944" lon="12.8843179"><ele>766.5</ele><time>2026-04-05T14:04:12.423Z</time></trkpt><trkpt lat="42.9189676" lon="12.8844984"><ele>770.25</ele><time>2026-04-05T14:04:13.424Z</time></trkpt><trkpt lat="42.9189256" lon="12.8846719"><ele>774.0</ele><time>2026-04-05T14:04:14.424Z</time></trkpt><trkpt lat="42.9188763" lon="12.8848449"><ele>774.0</ele><time>2026-04-05T14:04:15.424Z</time></trkpt><trkpt lat="42.918818" lon="12.8850117"><ele>774.0</ele><time>2026-04-05T14:04:16.424Z</time></trkpt><trkpt lat="42.9187662" lon="12.8851724"><ele>774.0</ele><time>2026-04-05T14:04:17.423Z</time></trkpt><trkpt lat="42.9187205" lon="12.8853185"><ele>774.0</ele><time>2026-04-05T14:04:18.423Z</time></trkpt><trkpt lat="42.9186805" lon="12.8854503"><ele>773.0</ele><time>2026-04-05T14:04:19.423Z</time></trkpt><trkpt lat="42.9186262" lon="12.885559"><ele>772.0</ele><time>2026-04-05T14:04:20.424Z</time></trkpt><trkpt lat="42.9185644" lon="12.8856192"><ele>771.0</ele><time>2026-04-05T14:04:21.424Z</time></trkpt><trkpt lat="42.9184781" lon="12.8856309"><ele>770.0</ele><time>2026-04-05T14:04:22.423Z</time></trkpt><trkpt lat="42.9183995" lon="12.8856183"><ele>769.0</ele><time>2026-04-05T14:04:23.424Z</time></trkpt><trkpt lat="42.9183284" lon="12.8855563"><ele>768.0</ele><time>2026-04-05T14:04:24.424Z</time></trkpt><trkpt lat="42.9182634" lon="12.8854773"><ele>768.0</ele><time>2026-04-05T14:04:25.424Z</time></trkpt><trkpt lat="42.9182523" lon="12.8853499"><ele>768.0</ele><time>2026-04-05T14:04:26.424Z</time></trkpt><trkpt lat="42.9182356" lon="12.8852158"><ele>768.0</ele><time>2026-04-05T14:04:27.424Z</time></trkpt><trkpt lat="42.9182162" lon="12.8850533"><ele>768.0</ele><time>2026-04-05T14:04:28.424Z</time></trkpt><trkpt lat="42.9181989" lon="12.8849081"><ele>768.0</ele><time>2026-04-05T14:04:29.424Z</time></trkpt><trkpt lat="42.9181564" lon="12.8847751"><ele>765.4</ele><time>2026-04-05T14:04:30.424Z</time></trkpt><trkpt lat="42.91811" lon="12.8846529"><ele>762.8</ele><time>2026-04-05T14:04:31.424Z</time></trkpt><trkpt lat="42.9180433" lon="12.8846011"><ele>760.2</ele><time>2026-04-05T14:04:32.424Z</time></trkpt><trkpt lat="42.917967" lon="12.8845297"><ele>757.6</ele><time>2026-04-05T14:04:33.424Z</time></trkpt><trkpt lat="42.9178635" lon="12.8845251"><ele>755.0</ele><time>2026-04-05T14:04:34.424Z</time></trkpt><trkpt lat="42.9177622" lon="12.8845383"><ele>755.0</ele><time>2026-04-05T14:04:35.424Z</time></trkpt><trkpt lat="42.917653" lon="12.8845848"><ele>755.0</ele><time>2026-04-05T14:04:36.424Z</time></trkpt><trkpt lat="42.9175231" lon="12.8846632"><ele>755.0</ele><time>2026-04-05T14:04:37.423Z</time></trkpt><trkpt lat="42.91739" lon="12.8847472"><ele>755.0</ele><time>2026-04-05T14:04:38.424Z</time></trkpt><trkpt lat="42.9172557" lon="12.8848318"><ele>760.0</ele><time>2026-04-05T14:04:39.423Z</time></trkpt><trkpt lat="42.9171115" lon="12.8849298"><ele>765.0</ele><time>2026-04-05T14:04:40.424Z</time></trkpt><trkpt lat="42.9169445" lon="12.885047"><ele>770.0</ele><time>2026-04-05T14:04:41.424Z</time></trkpt><trkpt lat="42.9167675" lon="12.8851696"><ele>775.3333333333334</ele><time>2026-04-05T14:04:42.423Z</time></trkpt><trkpt lat="42.9165816" lon="12.8852915"><ele>780.6666666666667</ele><time>2026-04-05T14:04:43.424Z</time></trkpt><trkpt lat="42.9163965" lon="12.8853994"><ele>786.0</ele><time>2026-04-05T14:04:44.423Z</time></trkpt><trkpt lat="42.9162135" lon="12.8855017"><ele>786.0</ele><time>2026-04-05T14:04:45.423Z</time></trkpt><trkpt lat="42.9160304" lon="12.8855771"><ele>786.0</ele><time>2026-04-05T14:04:46.423Z</time></trkpt><trkpt lat="42.9158419" lon="12.8856292"><ele>786.0</ele><time>2026-04-05T14:04:47.424Z</time></trkpt><trkpt lat="42.91566" lon="12.8856776"><ele>783.0</ele><time>2026-04-05T14:04:48.423Z</time></trkpt><trkpt lat="42.9154898" lon="12.885711"><ele>780.0</ele><time>2026-04-05T14:04:49.424Z</time></trkpt><trkpt lat="42.9153385" lon="12.8857513"><ele>777.0</ele><time>2026-04-05T14:04:50.423Z</time></trkpt><trkpt lat="42.9151954" lon="12.8858076"><ele>777.0</ele><time>2026-04-05T14:04:51.424Z</time></trkpt><trkpt lat="42.9151001" lon="12.8858999"><ele>777.0</ele><time>2026-04-05T14:04:52.424Z</time></trkpt><trkpt lat="42.9150061" lon="12.8860383"><ele>777.0</ele><time>2026-04-05T14:04:53.424Z</time></trkpt><trkpt lat="42.9149245" lon="12.8862074"><ele>777.0</ele><time>2026-04-05T14:04:54.424Z</time></trkpt><trkpt lat="42.9148406" lon="12.8863817"><ele>779.75</ele><time>2026-04-05T14:04:55.424Z</time></trkpt><trkpt lat="42.9147701" lon="12.886562"><ele>782.5</ele><time>2026-04-05T14:04:56.424Z</time></trkpt><trkpt lat="42.9147019" lon="12.8867153"><ele>785.25</ele><time>2026-04-05T14:04:57.423Z</time></trkpt><trkpt lat="42.914638" lon="12.8868621"><ele>788.0</ele><time>2026-04-05T14:04:58.424Z</time></trkpt><trkpt lat="42.9145553" lon="12.8869314"><ele>791.0</ele><time>2026-04-05T14:04:59.424Z</time></trkpt><trkpt lat="42.9144804" lon="12.8869955"><ele>794.0</ele><time>2026-04-05T14:05:00.424Z</time></trkpt><trkpt lat="42.9143941" lon="12.887011"><ele>797.0</ele><time>2026-04-05T14:05:01.424Z</time></trkpt><trkpt lat="42.914302" lon="12.8870007"><ele>800.0</ele><time>2026-04-05T14:05:02.423Z</time></trkpt><trkpt lat="42.9142183" lon="12.886949"><ele>803.0</ele><time>2026-04-05T14:05:03.424Z</time></trkpt><trkpt lat="42.9141414" lon="12.8868618"><ele>797.8</ele><time>2026-04-05T14:05:04.423Z</time></trkpt><trkpt lat="42.9140787" lon="12.8867524"><ele>792.5999999999999</ele><time>2026-04-05T14:05:05.424Z</time></trkpt><trkpt lat="42.9140062" lon="12.8866411"><ele>787.4000000000001</ele><time>2026-04-05T14:05:06.424Z</time></trkpt><trkpt lat="42.9139211" lon="12.8865377"><ele>782.2</ele><time>2026-04-05T14:05:07.424Z</time></trkpt><trkpt lat="42.9138187" lon="12.8864644"><ele>777.0</ele><time>2026-04-05T14:05:08.424Z</time></trkpt><trkpt lat="42.9136947" lon="12.8864314"><ele>777.0</ele><time>2026-04-05T14:05:09.424Z</time></trkpt><trkpt lat="42.9135601" lon="12.8864329"><ele>777.0</ele><time>2026-04-05T14:05:10.424Z</time></trkpt><trkpt lat="42.9134265" lon="12.8864399"><ele>777.0</ele><time>2026-04-05T14:05:11.424Z</time></trkpt><trkpt lat="42.9132817" lon="12.8864828"><ele>777.0</ele><time>2026-04-05T14:05:12.423Z</time></trkpt><trkpt lat="42.9131277" lon="12.886509"><ele>780.6666666666667</ele><time>2026-04-05T14:05:13.424Z</time></trkpt><trkpt lat="42.9129657" lon="12.8865479"><ele>784.3333333333334</ele><time>2026-04-05T14:05:14.424Z</time></trkpt><trkpt lat="42.9128086" lon="12.8865859"><ele>788.0</ele><time>2026-04-05T14:05:15.424Z</time></trkpt><trkpt lat="42.9126441" lon="12.8866271"><ele>786.6666666666667</ele><time>2026-04-05T14:05:16.423Z</time></trkpt><trkpt lat="42.9124939" lon="12.8866663"><ele>785.3333333333333</ele><time>2026-04-05T14:05:17.424Z</time></trkpt><trkpt lat="42.9123414" lon="12.8867084"><ele>784.0</ele><time>2026-04-05T14:05:18.424Z</time></trkpt><trkpt lat="42.9122035" lon="12.8867681"><ele>791.5</ele><time>2026-04-05T14:05:19.424Z</time></trkpt><trkpt lat="42.9120853" lon="12.8868499"><ele>799.0</ele><time>2026-04-05T14:05:20.424Z</time></trkpt><trkpt lat="42.9119805" lon="12.8869652"><ele>806.5</ele><time>2026-04-05T14:05:21.423Z</time></trkpt><trkpt lat="42.9118774" lon="12.887115"><ele>814.0</ele><time>2026-04-05T14:05:22.424Z</time></trkpt><trkpt lat="42.9117865" lon="12.8872691"><ele>814.4000000000001</ele><time>2026-04-05T14:05:23.423Z</time></trkpt><trkpt lat="42.9117193" lon="12.8874103"><ele>814.8</ele><time>2026-04-05T14:05:24.423Z</time></trkpt><trkpt lat="42.9116551" lon="12.8875465"><ele>815.2</ele><time>2026-04-05T14:05:25.424Z</time></trkpt><trkpt lat="42.9115959" lon="12.8876675"><ele>815.5999999999999</ele><time>2026-04-05T14:05:26.424Z</time></trkpt><trkpt lat="42.9115134" lon="12.8877271"><ele>816.0</ele><time>2026-04-05T14:05:27.424Z</time></trkpt><trkpt lat="42.91141" lon="12.8877561"><ele>816.0</ele><time>2026-04-05T14:05:28.424Z</time></trkpt><trkpt lat="42.9113087" lon="12.8877281"><ele>816.0</ele><time>2026-04-05T14:05:29.424Z</time></trkpt><trkpt lat="42.9111996" lon="12.8876836"><ele>816.0</ele><time>2026-04-05T14:05:30.424Z</time></trkpt><trkpt lat="42.9111047" lon="12.8875889"><ele>816.0</ele><time>2026-04-05T14:05:31.423Z</time></trkpt><trkpt lat="42.9110151" lon="12.8874566"><ele>813.5</ele><time>2026-04-05T14:05:32.423Z</time></trkpt><trkpt lat="42.9109142" lon="12.8873235"><ele>811.0</ele><time>2026-04-05T14:05:33.424Z</time></trkpt><trkpt lat="42.9108235" lon="12.8871963"><ele>808.5</ele><time>2026-04-05T14:05:34.424Z</time></trkpt><trkpt lat="42.9107265" lon="12.8870921"><ele>806.0</ele><time>2026-04-05T14:05:35.423Z</time></trkpt><trkpt lat="42.910629" lon="12.8870044"><ele>806.0</ele><time>2026-04-05T14:05:36.424Z</time></trkpt><trkpt lat="42.9105173" lon="12.8869411"><ele>806.0</ele><time>2026-04-05T14:05:37.424Z</time></trkpt><trkpt lat="42.9103905" lon="12.8869158"><ele>806.0</ele><time>2026-04-05T14:05:38.424Z</time></trkpt><trkpt lat="42.9102523" lon="12.8869145"><ele>806.0</ele><time>2026-04-05T14:05:39.424Z</time></trkpt><trkpt lat="42.9101059" lon="12.8869303"><ele>811.3333333333334</ele><time>2026-04-05T14:05:40.424Z</time></trkpt><trkpt lat="42.9099586" lon="12.8869568"><ele>816.6666666666667</ele><time>2026-04-05T14:05:41.424Z</time></trkpt><trkpt lat="42.9098005" lon="12.8869998"><ele>822.0</ele><time>2026-04-05T14:05:42.423Z</time></trkpt><trkpt lat="42.9096516" lon="12.8870434"><ele>822.0</ele><time>2026-04-05T14:05:43.424Z</time></trkpt><trkpt lat="42.9094917" lon="12.8870936"><ele>822.0</ele><time>2026-04-05T14:05:44.423Z</time></trkpt><trkpt lat="42.9093358" lon="12.8871291"><ele>822.0</ele><time>2026-04-05T14:05:45.424Z</time></trkpt><trkpt lat="42.9091739" lon="12.8871569"><ele>822.0</ele><time>2026-04-05T14:05:46.424Z</time></trkpt><trkpt lat="42.9090033" lon="12.8871744"><ele>822.0</ele><time>2026-04-05T14:05:47.423Z</time></trkpt><trkpt lat="42.9088329" lon="12.8871818"><ele>822.0</ele><time>2026-04-05T14:05:48.424Z</time></trkpt><trkpt lat="42.908658" lon="12.887159"><ele>822.0</ele><time>2026-04-05T14:05:49.424Z</time></trkpt><trkpt lat="42.908505" lon="12.8871147"><ele>822.0</ele><time>2026-04-05T14:05:50.424Z</time></trkpt><trkpt lat="42.9083446" lon="12.8870759"><ele>822.0</ele><time>2026-04-05T14:05:51.423Z</time></trkpt><trkpt lat="42.9081937" lon="12.8870395"><ele>823.25</ele><time>2026-04-05T14:05:52.424Z</time></trkpt><trkpt lat="42.9080458" lon="12.887027"><ele>824.5</ele><time>2026-04-05T14:05:53.424Z</time></trkpt><trkpt lat="42.9079051" lon="12.8870259"><ele>825.75</ele><time>2026-04-05T14:05:54.423Z</time></trkpt><trkpt lat="42.9077699" lon="12.8870702"><ele>827.0</ele><time>2026-04-05T14:05:55.424Z</time></trkpt><trkpt lat="42.9076366" lon="12.88716"><ele>822.3333333333334</ele><time>2026-04-05T14:05:56.424Z</time></trkpt><trkpt lat="42.907515" lon="12.8872816"><ele>817.6666666666667</ele><time>2026-04-05T14:05:57.424Z</time></trkpt><trkpt lat="42.9073965" lon="12.8874099"><ele>813.0</ele><time>2026-04-05T14:05:58.423Z</time></trkpt><trkpt lat="42.907275" lon="12.8875538"><ele>822.0</ele><time>2026-04-05T14:05:59.424Z</time></trkpt><trkpt lat="42.9071643" lon="12.8876969"><ele>831.0</ele><time>2026-04-05T14:06:00.424Z</time></trkpt><trkpt lat="42.9070361" lon="12.8878535"><ele>840.0</ele><time>2026-04-05T14:06:01.424Z</time></trkpt><trkpt lat="42.9069163" lon="12.8880156"><ele>840.0</ele><time>2026-04-05T14:06:02.424Z</time></trkpt><trkpt lat="42.9067957" lon="12.8881773"><ele>840.0</ele><time>2026-04-05T14:06:03.423Z</time></trkpt><trkpt lat="42.9066818" lon="12.888339"><ele>840.0</ele><time>2026-04-05T14:06:04.424Z</time></trkpt><trkpt lat="42.9065732" lon="12.8884925"><ele>835.75</ele><time>2026-04-05T14:06:05.423Z</time></trkpt><trkpt lat="42.9064743" lon="12.8886315"><ele>831.5</ele><time>2026-04-05T14:06:06.424Z</time></trkpt><trkpt lat="42.9063757" lon="12.8887727"><ele>827.25</ele><time>2026-04-05T14:06:07.424Z</time></trkpt><trkpt lat="42.9062679" lon="12.8888939"><ele>823.0</ele><time>2026-04-05T14:06:08.423Z</time></trkpt><trkpt lat="42.9061455" lon="12.888999"><ele>823.0</ele><time>2026-04-05T14:06:09.423Z</time></trkpt><trkpt lat="42.9060141" lon="12.8890788"><ele>823.0</ele><time>2026-04-05T14:06:10.424Z</time></trkpt><trkpt lat="42.9058635" lon="12.8891233"><ele>823.0</ele><time>2026-04-05T14:06:11.423Z</time></trkpt><trkpt lat="42.9057052" lon="12.8891738"><ele>826.0</ele><time>2026-04-05T14:06:12.424Z</time></trkpt><trkpt lat="42.9055451" lon="12.8892299"><ele>829.0</ele><time>2026-04-05T14:06:13.424Z</time></trkpt><trkpt lat="42.905399" lon="12.8892868"><ele>832.0</ele><time>2026-04-05T14:06:14.424Z</time></trkpt><trkpt lat="42.9052585" lon="12.8893897"><ele>832.0</ele><time>2026-04-05T14:06:15.424Z</time></trkpt><trkpt lat="42.9051233" lon="12.8895155"><ele>832.0</ele><time>2026-04-05T14:06:16.424Z</time></trkpt><trkpt lat="42.9049995" lon="12.889652"><ele>832.0</ele><time>2026-04-05T14:06:17.423Z</time></trkpt><trkpt lat="42.9048854" lon="12.8898028"><ele>831.3333333333333</ele><time>2026-04-05T14:06:18.424Z</time></trkpt><trkpt lat="42.9048016" lon="12.8899844"><ele>830.6666666666667</ele><time>2026-04-05T14:06:19.424Z</time></trkpt><trkpt lat="42.904726" lon="12.8901672"><ele>830.0</ele><time>2026-04-05T14:06:20.423Z</time></trkpt><trkpt lat="42.9046698" lon="12.8903581"><ele>830.0</ele><time>2026-04-05T14:06:21.424Z</time></trkpt><trkpt lat="42.9046399" lon="12.8905553"><ele>830.0</ele><time>2026-04-05T14:06:22.424Z</time></trkpt><trkpt lat="42.9046205" lon="12.8907655"><ele>830.0</ele><time>2026-04-05T14:06:23.424Z</time></trkpt><trkpt lat="42.9046182" lon="12.8909699"><ele>830.3333333333334</ele><time>2026-04-05T14:06:24.424Z</time></trkpt><trkpt lat="42.904623" lon="12.8911831"><ele>830.6666666666667</ele><time>2026-04-05T14:06:25.424Z</time></trkpt><trkpt lat="42.9046311" lon="12.8913935"><ele>831.0</ele><time>2026-04-05T14:06:26.424Z</time></trkpt><trkpt lat="42.9046383" lon="12.891618"><ele>830.3333333333333</ele><time>2026-04-05T14:06:27.424Z</time></trkpt><trkpt lat="42.9046458" lon="12.8918377"><ele>829.6666666666666</ele><time>2026-04-05T14:06:28.424Z</time></trkpt><trkpt lat="42.9046644" lon="12.8920631"><ele>829.0</ele><time>2026-04-05T14:06:29.424Z</time></trkpt><trkpt lat="42.9046858" lon="12.8922871"><ele>829.0</ele><time>2026-04-05T14:06:30.423Z</time></trkpt><trkpt lat="42.9047018" lon="12.8925165"><ele>829.0</ele><time>2026-04-05T14:06:31.424Z</time></trkpt><trkpt lat="42.904718" lon="12.8927392"><ele>829.0</ele><time>2026-04-05T14:06:32.424Z</time></trkpt><trkpt lat="42.9047402" lon="12.8929644"><ele>830.0</ele><time>2026-04-05T14:06:33.424Z</time></trkpt><trkpt lat="42.90475" lon="12.8931911"><ele>831.0</ele><time>2026-04-05T14:06:34.424Z</time></trkpt><trkpt lat="42.9047597" lon="12.8934148"><ele>832.0</ele><time>2026-04-05T14:06:35.423Z</time></trkpt><trkpt lat="42.9047748" lon="12.8936424"><ele>833.0</ele><time>2026-04-05T14:06:36.424Z</time></trkpt><trkpt lat="42.9047999" lon="12.8938609"><ele>834.0</ele><time>2026-04-05T14:06:37.424Z</time></trkpt><trkpt lat="42.9048149" lon="12.8940835"><ele>835.0</ele><time>2026-04-05T14:06:38.424Z</time></trkpt><trkpt lat="42.9048287" lon="12.8943095"><ele>835.0</ele><time>2026-04-05T14:06:39.423Z</time></trkpt><trkpt lat="42.904836" lon="12.8945279"><ele>835.0</ele><time>2026-04-05T14:06:40.424Z</time></trkpt><trkpt lat="42.9048451" lon="12.8947512"><ele>835.0</ele><time>2026-04-05T14:06:41.424Z</time></trkpt><trkpt lat="42.9048565" lon="12.8949711"><ele>835.3333333333333</ele><time>2026-04-05T14:06:42.424Z</time></trkpt><trkpt lat="42.9048704" lon="12.8951937"><ele>835.6666666666667</ele><time>2026-04-05T14:06:43.424Z</time></trkpt><trkpt lat="42.9048791" lon="12.8954141"><ele>836.0</ele><time>2026-04-05T14:06:44.423Z</time></trkpt><trkpt lat="42.9048977" lon="12.895631"><ele>836.0</ele><time>2026-04-05T14:06:45.423Z</time></trkpt><trkpt lat="42.9049194" lon="12.8958394"><ele>836.0</ele><time>2026-04-05T14:06:46.424Z</time></trkpt><trkpt lat="42.9049561" lon="12.896041"><ele>836.0</ele><time>2026-04-05T14:06:47.424Z</time></trkpt><trkpt lat="42.9049807" lon="12.8962372"><ele>836.25</ele><time>2026-04-05T14:06:48.423Z</time></trkpt><trkpt lat="42.9050032" lon="12.8964275"><ele>836.5</ele><time>2026-04-05T14:06:49.424Z</time></trkpt><trkpt lat="42.9050334" lon="12.896612"><ele>836.75</ele><time>2026-04-05T14:06:50.423Z</time></trkpt><trkpt lat="42.9050672" lon="12.8967915"><ele>837.0</ele><time>2026-04-05T14:06:51.424Z</time></trkpt><trkpt lat="42.9050989" lon="12.8969661"><ele>835.0</ele><time>2026-04-05T14:06:52.423Z</time></trkpt><trkpt lat="42.9051243" lon="12.8971314"><ele>833.0</ele><time>2026-04-05T14:06:53.424Z</time></trkpt><trkpt lat="42.9051545" lon="12.8972873"><ele>831.0</ele><time>2026-04-05T14:06:54.424Z</time></trkpt><trkpt lat="42.9051753" lon="12.897443"><ele>829.0</ele><time>2026-04-05T14:06:55.424Z</time></trkpt><trkpt lat="42.9051952" lon="12.8976032"><ele>829.5</ele><time>2026-04-05T14:06:56.423Z</time></trkpt><trkpt lat="42.9051999" lon="12.8977667"><ele>830.0</ele><time>2026-04-05T14:06:57.424Z</time></trkpt><trkpt lat="42.9051747" lon="12.8979204"><ele>830.5</ele><time>2026-04-05T14:06:58.424Z</time></trkpt><trkpt lat="42.9051282" lon="12.8980685"><ele>831.0</ele><time>2026-04-05T14:06:59.423Z</time></trkpt><trkpt lat="42.9050653" lon="12.8982067"><ele>831.0</ele><time>2026-04-05T14:07:00.424Z</time></trkpt><trkpt lat="42.9049902" lon="12.8983347"><ele>831.0</ele><time>2026-04-05T14:07:01.424Z</time></trkpt><trkpt lat="42.9048884" lon="12.8984472"><ele>831.0</ele><time>2026-04-05T14:07:02.424Z</time></trkpt><trkpt lat="42.9047698" lon="12.8985401"><ele>831.0</ele><time>2026-04-05T14:07:03.423Z</time></trkpt><trkpt lat="42.9046442" lon="12.8986332"><ele>831.25</ele><time>2026-04-05T14:07:04.424Z</time></trkpt><trkpt lat="42.9045211" lon="12.8987288"><ele>831.5</ele><time>2026-04-05T14:07:05.424Z</time></trkpt><trkpt lat="42.9043956" lon="12.89883"><ele>831.75</ele><time>2026-04-05T14:07:06.423Z</time></trkpt><trkpt lat="42.9042775" lon="12.8989141"><ele>832.0</ele><time>2026-04-05T14:07:07.423Z</time></trkpt><trkpt lat="42.9041638" lon="12.8990081"><ele>832.0</ele><time>2026-04-05T14:07:08.424Z</time></trkpt><trkpt lat="42.9041068" lon="12.899149"><ele>832.0</ele><time>2026-04-05T14:07:09.424Z</time></trkpt><trkpt lat="42.9040617" lon="12.8992873"><ele>832.0</ele><time>2026-04-05T14:07:10.424Z</time></trkpt><trkpt lat="42.9040607" lon="12.8994274"><ele>832.0</ele><time>2026-04-05T14:07:11.424Z</time></trkpt><trkpt lat="42.9040997" lon="12.8995502"><ele>832.0</ele><time>2026-04-05T14:07:12.423Z</time></trkpt><trkpt lat="42.9041791" lon="12.8996478"><ele>827.75</ele><time>2026-04-05T14:07:13.424Z</time></trkpt><trkpt lat="42.9042545" lon="12.8997215"><ele>823.5</ele><time>2026-04-05T14:07:14.424Z</time></trkpt><trkpt lat="42.9043832" lon="12.899696"><ele>819.25</ele><time>2026-04-05T14:07:15.424Z</time></trkpt><trkpt lat="42.9045043" lon="12.8996643"><ele>815.0</ele><time>2026-04-05T14:07:16.424Z</time></trkpt><trkpt lat="42.9046298" lon="12.8996413"><ele>815.0</ele><time>2026-04-05T14:07:17.424Z</time></trkpt><trkpt lat="42.904756" lon="12.8996459"><ele>815.0</ele><time>2026-04-05T14:07:18.424Z</time></trkpt><trkpt lat="42.9048848" lon="12.8996731"><ele>815.0</ele><time>2026-04-05T14:07:19.423Z</time></trkpt><trkpt lat="42.9050012" lon="12.8997827"><ele>815.0</ele><time>2026-04-05T14:07:20.424Z</time></trkpt><trkpt lat="42.9050874" lon="12.8999087"><ele>814.0</ele><time>2026-04-05T14:07:21.424Z</time></trkpt><trkpt lat="42.9051288" lon="12.9000565"><ele>813.0</ele><time>2026-04-05T14:07:22.423Z</time></trkpt><trkpt lat="42.9051427" lon="12.900221"><ele>812.0</ele><time>2026-04-05T14:07:23.424Z</time></trkpt><trkpt lat="42.9051068" lon="12.900391"><ele>811.0</ele><time>2026-04-05T14:07:24.423Z</time></trkpt><trkpt lat="42.9050546" lon="12.9005557"><ele>811.0</ele><time>2026-04-05T14:07:25.424Z</time></trkpt><trkpt lat="42.9050022" lon="12.9007286"><ele>811.0</ele><time>2026-04-05T14:07:26.424Z</time></trkpt><trkpt lat="42.9049317" lon="12.900901"><ele>811.0</ele><time>2026-04-05T14:07:27.424Z</time></trkpt><trkpt lat="42.9048572" lon="12.9010599"><ele>811.0</ele><time>2026-04-05T14:07:28.423Z</time></trkpt><trkpt lat="42.9047649" lon="12.9012176"><ele>807.5</ele><time>2026-04-05T14:07:29.424Z</time></trkpt><trkpt lat="42.904662" lon="12.901366"><ele>804.0</ele><time>2026-04-05T14:07:30.424Z</time></trkpt><trkpt lat="42.9045737" lon="12.901504"><ele>800.5</ele><time>2026-04-05T14:07:31.424Z</time></trkpt><trkpt lat="42.9044778" lon="12.9016341"><ele>797.0</ele><time>2026-04-05T14:07:32.424Z</time></trkpt><trkpt lat="42.9043836" lon="12.9017595"><ele>798.0</ele><time>2026-04-05T14:07:33.424Z</time></trkpt><trkpt lat="42.9042799" lon="12.901893"><ele>799.0</ele><time>2026-04-05T14:07:34.424Z</time></trkpt><trkpt lat="42.9041837" lon="12.9020186"><ele>800.0</ele><time>2026-04-05T14:07:35.424Z</time></trkpt><trkpt lat="42.9040905" lon="12.9021556"><ele>801.0</ele><time>2026-04-05T14:07:36.424Z</time></trkpt><trkpt lat="42.9039988" lon="12.9022881"><ele>801.0</ele><time>2026-04-05T14:07:37.424Z</time></trkpt><trkpt lat="42.9039306" lon="12.9024626"><ele>801.0</ele><time>2026-04-05T14:07:38.424Z</time></trkpt><trkpt lat="42.9038873" lon="12.9026495"><ele>801.0</ele><time>2026-04-05T14:07:39.424Z</time></trkpt><trkpt lat="42.9038579" lon="12.9028431"><ele>801.0</ele><time>2026-04-05T14:07:40.423Z</time></trkpt><trkpt lat="42.9038234" lon="12.903044"><ele>797.5</ele><time>2026-04-05T14:07:41.424Z</time></trkpt><trkpt lat="42.9037998" lon="12.9032482"><ele>794.0</ele><time>2026-04-05T14:07:42.424Z</time></trkpt><trkpt lat="42.9037874" lon="12.9034433"><ele>790.5</ele><time>2026-04-05T14:07:43.424Z</time></trkpt><trkpt lat="42.903759" lon="12.9036265"><ele>787.0</ele><time>2026-04-05T14:07:44.423Z</time></trkpt><trkpt lat="42.9037176" lon="12.9038112"><ele>785.5</ele><time>2026-04-05T14:07:45.423Z</time></trkpt><trkpt lat="42.9036509" lon="12.9039749"><ele>784.0</ele><time>2026-04-05T14:07:46.424Z</time></trkpt><trkpt lat="42.9035685" lon="12.9041207"><ele>782.5</ele><time>2026-04-05T14:07:47.424Z</time></trkpt><trkpt lat="42.9034636" lon="12.9042652"><ele>781.0</ele><time>2026-04-05T14:07:48.424Z</time></trkpt><trkpt lat="42.9033559" lon="12.9044109"><ele>781.0</ele><time>2026-04-05T14:07:49.424Z</time></trkpt><trkpt lat="42.9032423" lon="12.9045449"><ele>781.0</ele><time>2026-04-05T14:07:50.423Z</time></trkpt><trkpt lat="42.9031179" lon="12.9046809"><ele>781.0</ele><time>2026-04-05T14:07:51.424Z</time></trkpt><trkpt lat="42.9029965" lon="12.9048268"><ele>781.0</ele><time>2026-04-05T14:07:52.424Z</time></trkpt><trkpt lat="42.9028855" lon="12.9049595"><ele>781.0</ele><time>2026-04-05T14:07:53.423Z</time></trkpt><trkpt lat="42.9027789" lon="12.9050849"><ele>781.0</ele><time>2026-04-05T14:07:54.424Z</time></trkpt><trkpt lat="42.9026661" lon="12.905198"><ele>781.0</ele><time>2026-04-05T14:07:55.424Z</time></trkpt><trkpt lat="42.9025479" lon="12.9053038"><ele>778.5</ele><time>2026-04-05T14:07:56.424Z</time></trkpt><trkpt lat="42.9024261" lon="12.9053995"><ele>776.0</ele><time>2026-04-05T14:07:57.424Z</time></trkpt><trkpt lat="42.902312" lon="12.9054873"><ele>773.5</ele><time>2026-04-05T14:07:58.424Z</time></trkpt><trkpt lat="42.9021918" lon="12.9055983"><ele>771.0</ele><time>2026-04-05T14:07:59.423Z</time></trkpt><trkpt lat="42.9020887" lon="12.9057253"><ele>771.0</ele><time>2026-04-05T14:08:00.423Z</time></trkpt><trkpt lat="42.9019926" lon="12.9058657"><ele>771.0</ele><time>2026-04-05T14:08:01.424Z</time></trkpt><trkpt lat="42.9018968" lon="12.9059952"><ele>771.0</ele><time>2026-04-05T14:08:02.424Z</time></trkpt><trkpt lat="42.9017925" lon="12.9061043"><ele>771.0</ele><time>2026-04-05T14:08:03.424Z</time></trkpt><trkpt lat="42.9016764" lon="12.9061874"><ele>768.25</ele><time>2026-04-05T14:08:04.424Z</time></trkpt><trkpt lat="42.9015578" lon="12.9062613"><ele>765.5</ele><time>2026-04-05T14:08:05.424Z</time></trkpt><trkpt lat="42.9014375" lon="12.906309"><ele>762.75</ele><time>2026-04-05T14:08:06.424Z</time></trkpt><trkpt lat="42.9013061" lon="12.9063347"><ele>760.0</ele><time>2026-04-05T14:08:07.424Z</time></trkpt><trkpt lat="42.9011687" lon="12.9063432"><ele>760.0</ele><time>2026-04-05T14:08:08.424Z</time></trkpt><trkpt lat="42.9010385" lon="12.9063378"><ele>760.0</ele><time>2026-04-05T14:08:09.423Z</time></trkpt><trkpt lat="42.9009121" lon="12.9063295"><ele>760.0</ele><time>2026-04-05T14:08:10.423Z</time></trkpt><trkpt lat="42.9007881" lon="12.9063351"><ele>760.0</ele><time>2026-04-05T14:08:11.424Z</time></trkpt><trkpt lat="42.9006701" lon="12.9063672"><ele>762.0</ele><time>2026-04-05T14:08:12.423Z</time></trkpt><trkpt lat="42.9005709" lon="12.9064375"><ele>764.0</ele><time>2026-04-05T14:08:13.424Z</time></trkpt><trkpt lat="42.9004915" lon="12.906564"><ele>766.0</ele><time>2026-04-05T14:08:14.424Z</time></trkpt><trkpt lat="42.9004133" lon="12.9066902"><ele>768.0</ele><time>2026-04-05T14:08:15.423Z</time></trkpt><trkpt lat="42.9003174" lon="12.9068213"><ele>764.5</ele><time>2026-04-05T14:08:16.424Z</time></trkpt><trkpt lat="42.9001971" lon="12.9069266"><ele>761.0</ele><time>2026-04-05T14:08:17.424Z</time></trkpt><trkpt lat="42.9000678" lon="12.9070247"><ele>757.5</ele><time>2026-04-05T14:08:18.424Z</time></trkpt><trkpt lat="42.8999252" lon="12.9071193"><ele>754.0</ele><time>2026-04-05T14:08:19.424Z</time></trkpt><trkpt lat="42.8997828" lon="12.907214"><ele>754.0</ele><time>2026-04-05T14:08:20.424Z</time></trkpt><trkpt lat="42.8996357" lon="12.907312"><ele>754.0</ele><time>2026-04-05T14:08:21.423Z</time></trkpt><trkpt lat="42.8994918" lon="12.9074149"><ele>754.0</ele><time>2026-04-05T14:08:22.424Z</time></trkpt><trkpt lat="42.8993452" lon="12.9075189"><ele>748.3333333333334</ele><time>2026-04-05T14:08:23.424Z</time></trkpt><trkpt lat="42.8992053" lon="12.9076182"><ele>742.6666666666666</ele><time>2026-04-05T14:08:24.424Z</time></trkpt><trkpt lat="42.8990649" lon="12.907718"><ele>737.0</ele><time>2026-04-05T14:08:25.424Z</time></trkpt><trkpt lat="42.8989266" lon="12.9078086"><ele>737.0</ele><time>2026-04-05T14:08:26.424Z</time></trkpt><trkpt lat="42.8987837" lon="12.9078829"><ele>737.0</ele><time>2026-04-05T14:08:27.424Z</time></trkpt><trkpt lat="42.8986513" lon="12.9079411"><ele>737.0</ele><time>2026-04-05T14:08:28.424Z</time></trkpt><trkpt lat="42.8985196" lon="12.9079969"><ele>737.0</ele><time>2026-04-05T14:08:29.424Z</time></trkpt><trkpt lat="42.8983785" lon="12.9080453"><ele>740.75</ele><time>2026-04-05T14:08:30.423Z</time></trkpt><trkpt lat="42.8982401" lon="12.9080827"><ele>744.5</ele><time>2026-04-05T14:08:31.424Z</time></trkpt><trkpt lat="42.8980967" lon="12.9081357"><ele>748.25</ele><time>2026-04-05T14:08:32.424Z</time></trkpt><trkpt lat="42.8979547" lon="12.9081968"><ele>752.0</ele><time>2026-04-05T14:08:33.424Z</time></trkpt><trkpt lat="42.8978174" lon="12.9082624"><ele>752.0</ele><time>2026-04-05T14:08:34.423Z</time></trkpt><trkpt lat="42.8976806" lon="12.9083056"><ele>752.0</ele><time>2026-04-05T14:08:35.424Z</time></trkpt><trkpt lat="42.8975512" lon="12.9083318"><ele>752.0</ele><time>2026-04-05T14:08:36.424Z</time></trkpt><trkpt lat="42.8974172" lon="12.9083174"><ele>752.0</ele><time>2026-04-05T14:08:37.424Z</time></trkpt><trkpt lat="42.8972814" lon="12.9082821"><ele>752.5</ele><time>2026-04-05T14:08:38.424Z</time></trkpt><trkpt lat="42.8971567" lon="12.9082273"><ele>753.0</ele><time>2026-04-05T14:08:39.424Z</time></trkpt><trkpt lat="42.8970243" lon="12.9081631"><ele>753.5</ele><time>2026-04-05T14:08:40.424Z</time></trkpt><trkpt lat="42.896895" lon="12.9081015"><ele>754.0</ele><time>2026-04-05T14:08:41.424Z</time></trkpt><trkpt lat="42.8967674" lon="12.9080607"><ele>752.75</ele><time>2026-04-05T14:08:42.424Z</time></trkpt><trkpt lat="42.8966365" lon="12.9080733"><ele>751.5</ele><time>2026-04-05T14:08:43.423Z</time></trkpt><trkpt lat="42.8965158" lon="12.9081129"><ele>750.25</ele><time>2026-04-05T14:08:44.424Z</time></trkpt><trkpt lat="42.8963926" lon="12.908201"><ele>749.0</ele><time>2026-04-05T14:08:45.424Z</time></trkpt><trkpt lat="42.8962743" lon="12.9082893"><ele>749.0</ele><time>2026-04-05T14:08:46.424Z</time></trkpt><trkpt lat="42.8961559" lon="12.9083758"><ele>749.0</ele><time>2026-04-05T14:08:47.424Z</time></trkpt><trkpt lat="42.8960373" lon="12.9084601"><ele>749.0</ele><time>2026-04-05T14:08:48.424Z</time></trkpt><trkpt lat="42.8959099" lon="12.9085358"><ele>749.0</ele><time>2026-04-05T14:08:49.424Z</time></trkpt><trkpt lat="42.8957762" lon="12.9085948"><ele>743.0</ele><time>2026-04-05T14:08:50.423Z</time></trkpt><trkpt lat="42.8956373" lon="12.908577"><ele>737.0</ele><time>2026-04-05T14:08:51.424Z</time></trkpt><trkpt lat="42.8955014" lon="12.9085735"><ele>731.0</ele><time>2026-04-05T14:08:52.423Z</time></trkpt><trkpt lat="42.8953504" lon="12.9085505"><ele>725.0</ele><time>2026-04-05T14:08:53.424Z</time></trkpt><trkpt lat="42.8952026" lon="12.9085265"><ele>724.75</ele><time>2026-04-05T14:08:54.424Z</time></trkpt><trkpt lat="42.8950647" lon="12.9085072"><ele>724.5</ele><time>2026-04-05T14:08:55.424Z</time></trkpt><trkpt lat="42.894918" lon="12.9084938"><ele>724.25</ele><time>2026-04-05T14:08:56.423Z</time></trkpt><trkpt lat="42.8947758" lon="12.9085017"><ele>724.0</ele><time>2026-04-05T14:08:57.424Z</time></trkpt><trkpt lat="42.8946372" lon="12.9085526"><ele>724.0</ele><time>2026-04-05T14:08:58.424Z</time></trkpt><trkpt lat="42.8945168" lon="12.9086375"><ele>724.0</ele><time>2026-04-05T14:08:59.424Z</time></trkpt><trkpt lat="42.8944012" lon="12.9087559"><ele>724.0</ele><time>2026-04-05T14:09:00.423Z</time></trkpt><trkpt lat="42.8942948" lon="12.908869"><ele>724.0</ele><time>2026-04-05T14:09:01.424Z</time></trkpt><trkpt lat="42.8941797" lon="12.9090027"><ele>722.3333333333334</ele><time>2026-04-05T14:09:02.423Z</time></trkpt><trkpt lat="42.8940556" lon="12.9091336"><ele>720.6666666666666</ele><time>2026-04-05T14:09:03.424Z</time></trkpt><trkpt lat="42.8939321" lon="12.9092538"><ele>719.0</ele><time>2026-04-05T14:09:04.423Z</time></trkpt><trkpt lat="42.8937968" lon="12.9093558"><ele>719.0</ele><time>2026-04-05T14:09:05.424Z</time></trkpt><trkpt lat="42.8936586" lon="12.9094427"><ele>719.0</ele><time>2026-04-05T14:09:06.424Z</time></trkpt><trkpt lat="42.8935218" lon="12.9095274"><ele>719.0</ele><time>2026-04-05T14:09:07.424Z</time></trkpt><trkpt lat="42.8933782" lon="12.9096096"><ele>720.0</ele><time>2026-04-05T14:09:08.423Z</time></trkpt><trkpt lat="42.8932284" lon="12.909693"><ele>721.0</ele><time>2026-04-05T14:09:09.423Z</time></trkpt><trkpt lat="42.8930794" lon="12.9097753"><ele>722.0</ele><time>2026-04-05T14:09:10.424Z</time></trkpt><trkpt lat="42.8929292" lon="12.9098575"><ele>722.0</ele><time>2026-04-05T14:09:11.423Z</time></trkpt><trkpt lat="42.8927862" lon="12.9099359"><ele>722.0</ele><time>2026-04-05T14:09:12.424Z</time></trkpt><trkpt lat="42.8926495" lon="12.9100173"><ele>722.0</ele><time>2026-04-05T14:09:13.424Z</time></trkpt><trkpt lat="42.8925194" lon="12.9101013"><ele>722.0</ele><time>2026-04-05T14:09:14.424Z</time></trkpt><trkpt lat="42.8923969" lon="12.9102155"><ele>719.75</ele><time>2026-04-05T14:09:15.424Z</time></trkpt><trkpt lat="42.8922848" lon="12.9103587"><ele>717.5</ele><time>2026-04-05T14:09:16.423Z</time></trkpt><trkpt lat="42.8921951" lon="12.9105172"><ele>715.25</ele><time>2026-04-05T14:09:17.424Z</time></trkpt><trkpt lat="42.8921303" lon="12.9106953"><ele>713.0</ele><time>2026-04-05T14:09:18.424Z</time></trkpt><trkpt lat="42.8920847" lon="12.9108931"><ele>711.5</ele><time>2026-04-05T14:09:19.423Z</time></trkpt><trkpt lat="42.8920446" lon="12.9110932"><ele>710.0</ele><time>2026-04-05T14:09:20.423Z</time></trkpt><trkpt lat="42.8920126" lon="12.9112902"><ele>708.5</ele><time>2026-04-05T14:09:21.424Z</time></trkpt><trkpt lat="42.8919774" lon="12.9114854"><ele>707.0</ele><time>2026-04-05T14:09:22.424Z</time></trkpt><trkpt lat="42.8919443" lon="12.9116913"><ele>706.0</ele><time>2026-04-05T14:09:23.424Z</time></trkpt><trkpt lat="42.8919081" lon="12.9118951"><ele>705.0</ele><time>2026-04-05T14:09:24.424Z</time></trkpt><trkpt lat="42.8918787" lon="12.9121034"><ele>704.0</ele><time>2026-04-05T14:09:25.424Z</time></trkpt><trkpt lat="42.8918453" lon="12.9123002"><ele>704.0</ele><time>2026-04-05T14:09:26.424Z</time></trkpt><trkpt lat="42.8918158" lon="12.9124756"><ele>704.0</ele><time>2026-04-05T14:09:27.423Z</time></trkpt><trkpt lat="42.8917809" lon="12.9126316"><ele>704.0</ele><time>2026-04-05T14:09:28.423Z</time></trkpt><trkpt lat="42.8917456" lon="12.9127694"><ele>704.0</ele><time>2026-04-05T14:09:29.424Z</time></trkpt><trkpt lat="42.8916859" lon="12.9128922"><ele>705.8000000000001</ele><time>2026-04-05T14:09:30.424Z</time></trkpt><trkpt lat="42.8916037" lon="12.9129818"><ele>707.6</ele><time>2026-04-05T14:09:31.424Z</time></trkpt><trkpt lat="42.8915174" lon="12.913055"><ele>709.4</ele><time>2026-04-05T14:09:32.424Z</time></trkpt><trkpt lat="42.8914105" lon="12.9130717"><ele>711.2</ele><time>2026-04-05T14:09:33.423Z</time></trkpt><trkpt lat="42.8912982" lon="12.9130804"><ele>713.0</ele><time>2026-04-05T14:09:34.424Z</time></trkpt><trkpt lat="42.8911626" lon="12.9130848"><ele>713.0</ele><time>2026-04-05T14:09:35.424Z</time></trkpt><trkpt lat="42.8910167" lon="12.9130794"><ele>713.0</ele><time>2026-04-05T14:09:36.424Z</time></trkpt><trkpt lat="42.8908692" lon="12.9130706"><ele>713.0</ele><time>2026-04-05T14:09:37.424Z</time></trkpt><trkpt lat="42.8907318" lon="12.9130551"><ele>713.0</ele><time>2026-04-05T14:09:38.424Z</time></trkpt><trkpt lat="42.8905752" lon="12.9130464"><ele>711.6666666666666</ele><time>2026-04-05T14:09:39.424Z</time></trkpt><trkpt lat="42.8904157" lon="12.9130461"><ele>710.3333333333334</ele><time>2026-04-05T14:09:40.424Z</time></trkpt><trkpt lat="42.8902547" lon="12.9130397"><ele>709.0</ele><time>2026-04-05T14:09:41.424Z</time></trkpt><trkpt lat="42.8900845" lon="12.9130396"><ele>706.6666666666667</ele><time>2026-04-05T14:09:42.424Z</time></trkpt><trkpt lat="42.8899276" lon="12.9130409"><ele>704.3333333333334</ele><time>2026-04-05T14:09:43.423Z</time></trkpt><trkpt lat="42.88976" lon="12.9130413"><ele>702.0</ele><time>2026-04-05T14:09:44.423Z</time></trkpt><trkpt lat="42.8895911" lon="12.9130398"><ele>702.0</ele><time>2026-04-05T14:09:45.423Z</time></trkpt><trkpt lat="42.8894257" lon="12.9130373"><ele>702.0</ele><time>2026-04-05T14:09:46.424Z</time></trkpt><trkpt lat="42.8892674" lon="12.9130389"><ele>702.0</ele><time>2026-04-05T14:09:47.424Z</time></trkpt><trkpt lat="42.8891065" lon="12.9130219"><ele>701.3333333333334</ele><time>2026-04-05T14:09:48.424Z</time></trkpt><trkpt lat="42.8889458" lon="12.9130169"><ele>700.6666666666667</ele><time>2026-04-05T14:09:49.423Z</time></trkpt><trkpt lat="42.8887959" lon="12.9130235"><ele>700.0</ele><time>2026-04-05T14:09:50.424Z</time></trkpt><trkpt lat="42.8886499" lon="12.9130272"><ele>700.0</ele><time>2026-04-05T14:09:51.424Z</time></trkpt><trkpt lat="42.8885051" lon="12.9130163"><ele>700.0</ele><time>2026-04-05T14:09:52.424Z</time></trkpt><trkpt lat="42.8883615" lon="12.9129789"><ele>700.0</ele><time>2026-04-05T14:09:53.423Z</time></trkpt><trkpt lat="42.888238" lon="12.912912"><ele>700.0</ele><time>2026-04-05T14:09:54.423Z</time></trkpt><trkpt lat="42.8881113" lon="12.9128225"><ele>698.3333333333334</ele><time>2026-04-05T14:09:55.424Z</time></trkpt><trkpt lat="42.8879829" lon="12.912718"><ele>696.6666666666666</ele><time>2026-04-05T14:09:56.424Z</time></trkpt><trkpt lat="42.8878498" lon="12.9126007"><ele>695.0</ele><time>2026-04-05T14:09:57.423Z</time></trkpt><trkpt lat="42.8877214" lon="12.9124828"><ele>692.6666666666666</ele><time>2026-04-05T14:09:58.423Z</time></trkpt><trkpt lat="42.8875975" lon="12.9123586"><ele>690.3333333333334</ele><time>2026-04-05T14:09:59.424Z</time></trkpt><trkpt lat="42.8874699" lon="12.9122417"><ele>688.0</ele><time>2026-04-05T14:10:00.423Z</time></trkpt><trkpt lat="42.8873413" lon="12.9121174"><ele>688.0</ele><time>2026-04-05T14:10:01.424Z</time></trkpt><trkpt lat="42.887214" lon="12.9119816"><ele>688.0</ele><time>2026-04-05T14:10:02.424Z</time></trkpt><trkpt lat="42.887102" lon="12.9118397"><ele>688.0</ele><time>2026-04-05T14:10:03.424Z</time></trkpt><trkpt lat="42.8869979" lon="12.9117068"><ele>686.25</ele><time>2026-04-05T14:10:04.424Z</time></trkpt><trkpt lat="42.8868984" lon="12.9115688"><ele>684.5</ele><time>2026-04-05T14:10:05.423Z</time></trkpt><trkpt lat="42.8868086" lon="12.9114239"><ele>682.75</ele><time>2026-04-05T14:10:06.424Z</time></trkpt><trkpt lat="42.8867256" lon="12.9112703"><ele>681.0</ele><time>2026-04-05T14:10:07.424Z</time></trkpt><trkpt lat="42.8866385" lon="12.9111141"><ele>681.0</ele><time>2026-04-05T14:10:08.423Z</time></trkpt><trkpt lat="42.8865571" lon="12.910957"><ele>681.0</ele><time>2026-04-05T14:10:09.424Z</time></trkpt><trkpt lat="42.886479" lon="12.9107923"><ele>681.0</ele><time>2026-04-05T14:10:10.424Z</time></trkpt><trkpt lat="42.8863921" lon="12.9106267"><ele>681.0</ele><time>2026-04-05T14:10:11.423Z</time></trkpt><trkpt lat="42.8863074" lon="12.910467"><ele>685.25</ele><time>2026-04-05T14:10:12.423Z</time></trkpt><trkpt lat="42.8862324" lon="12.9103041"><ele>689.5</ele><time>2026-04-05T14:10:13.423Z</time></trkpt><trkpt lat="42.8861604" lon="12.9101489"><ele>693.75</ele><time>2026-04-05T14:10:14.424Z</time></trkpt><trkpt lat="42.8860956" lon="12.9099904"><ele>698.0</ele><time>2026-04-05T14:10:15.424Z</time></trkpt><trkpt lat="42.8860425" lon="12.9098296"><ele>695.5</ele><time>2026-04-05T14:10:16.423Z</time></trkpt><trkpt lat="42.8860084" lon="12.9096663"><ele>693.0</ele><time>2026-04-05T14:10:17.424Z</time></trkpt><trkpt lat="42.8859827" lon="12.9094985"><ele>690.5</ele><time>2026-04-05T14:10:18.423Z</time></trkpt><trkpt lat="42.8859486" lon="12.9093414"><ele>688.0</ele><time>2026-04-05T14:10:19.424Z</time></trkpt><trkpt lat="42.8859075" lon="12.9091981"><ele>688.0</ele><time>2026-04-05T14:10:20.424Z</time></trkpt><trkpt lat="42.8858441" lon="12.9090805"><ele>688.0</ele><time>2026-04-05T14:10:21.423Z</time></trkpt><trkpt lat="42.8857598" lon="12.9089909"><ele>688.0</ele><time>2026-04-05T14:10:22.423Z</time></trkpt><trkpt lat="42.8856524" lon="12.9089131"><ele>688.0</ele><time>2026-04-05T14:10:23.424Z</time></trkpt><trkpt lat="42.8855459" lon="12.9088385"><ele>688.0</ele><time>2026-04-05T14:10:24.423Z</time></trkpt><trkpt lat="42.8854344" lon="12.9088015"><ele>688.0</ele><time>2026-04-05T14:10:25.424Z</time></trkpt><trkpt lat="42.8853356" lon="12.9088208"><ele>688.0</ele><time>2026-04-05T14:10:26.424Z</time></trkpt><trkpt lat="42.8852561" lon="12.9088977"><ele>688.0</ele><time>2026-04-05T14:10:27.424Z</time></trkpt><trkpt lat="42.8852162" lon="12.9089902"><ele>688.0</ele><time>2026-04-05T14:10:28.424Z</time></trkpt><trkpt lat="42.8852077" lon="12.9090965"><ele>688.0</ele><time>2026-04-05T14:10:29.423Z</time></trkpt><trkpt lat="42.885243" lon="12.9092226"><ele>688.0</ele><time>2026-04-05T14:10:30.424Z</time></trkpt><trkpt lat="42.8852778" lon="12.9093464"><ele>688.0</ele><time>2026-04-05T14:10:31.424Z</time></trkpt><trkpt lat="42.8853284" lon="12.9094825"><ele>688.0</ele><time>2026-04-05T14:10:32.424Z</time></trkpt><trkpt lat="42.8853777" lon="12.9096268"><ele>688.0</ele><time>2026-04-05T14:10:33.424Z</time></trkpt><trkpt lat="42.885432" lon="12.9097815"><ele>687.0</ele><time>2026-04-05T14:10:34.424Z</time></trkpt><trkpt lat="42.8854848" lon="12.9099603"><ele>686.0</ele><time>2026-04-05T14:10:35.424Z</time></trkpt><trkpt lat="42.8855034" lon="12.9101744"><ele>685.0</ele><time>2026-04-05T14:10:36.424Z</time></trkpt><trkpt lat="42.8855477" lon="12.9103711"><ele>683.6666666666667</ele><time>2026-04-05T14:10:37.424Z</time></trkpt><trkpt lat="42.8855697" lon="12.9105809"><ele>682.3333333333334</ele><time>2026-04-05T14:10:38.424Z</time></trkpt><trkpt lat="42.8855783" lon="12.9108014"><ele>681.0</ele><time>2026-04-05T14:10:39.423Z</time></trkpt><trkpt lat="42.8855797" lon="12.9110119"><ele>678.0</ele><time>2026-04-05T14:10:40.424Z</time></trkpt><trkpt lat="42.8855813" lon="12.9112409"><ele>675.0</ele><time>2026-04-05T14:10:41.424Z</time></trkpt><trkpt lat="42.8855954" lon="12.9114539"><ele>672.0</ele><time>2026-04-05T14:10:42.424Z</time></trkpt><trkpt lat="42.8855929" lon="12.9116652"><ele>671.0</ele><time>2026-04-05T14:10:43.424Z</time></trkpt><trkpt lat="42.8855818" lon="12.9118689"><ele>670.0</ele><time>2026-04-05T14:10:44.424Z</time></trkpt><trkpt lat="42.8855516" lon="12.9120765"><ele>669.0</ele><time>2026-04-05T14:10:45.424Z</time></trkpt><trkpt lat="42.8855208" lon="12.9122827"><ele>669.0</ele><time>2026-04-05T14:10:46.424Z</time></trkpt><trkpt lat="42.8854936" lon="12.9124861"><ele>669.0</ele><time>2026-04-05T14:10:47.424Z</time></trkpt><trkpt lat="42.8854732" lon="12.9126703"><ele>669.0</ele><time>2026-04-05T14:10:48.424Z</time></trkpt><trkpt lat="42.8854597" lon="12.9128535"><ele>669.0</ele><time>2026-04-05T14:10:49.424Z</time></trkpt><trkpt lat="42.8854802" lon="12.9130262"><ele>669.25</ele><time>2026-04-05T14:10:50.424Z</time></trkpt><trkpt lat="42.8855412" lon="12.9131908"><ele>669.5</ele><time>2026-04-05T14:10:51.424Z</time></trkpt><trkpt lat="42.8856196" lon="12.9133504"><ele>669.75</ele><time>2026-04-05T14:10:52.423Z</time></trkpt><trkpt lat="42.8856979" lon="12.913516"><ele>670.0</ele><time>2026-04-05T14:10:53.424Z</time></trkpt><trkpt lat="42.8857641" lon="12.9136761"><ele>670.75</ele><time>2026-04-05T14:10:54.424Z</time></trkpt><trkpt lat="42.8857845" lon="12.9138627"><ele>671.5</ele><time>2026-04-05T14:10:55.424Z</time></trkpt><trkpt lat="42.8857852" lon="12.9140511"><ele>672.25</ele><time>2026-04-05T14:10:56.424Z</time></trkpt><trkpt lat="42.8857974" lon="12.914236"><ele>673.0</ele><time>2026-04-05T14:10:57.424Z</time></trkpt><trkpt lat="42.8857657" lon="12.9144486"><ele>671.5</ele><time>2026-04-05T14:10:58.424Z</time></trkpt><trkpt lat="42.8857448" lon="12.914635"><ele>670.0</ele><time>2026-04-05T14:10:59.424Z</time></trkpt><trkpt lat="42.8856989" lon="12.9148066"><ele>668.5</ele><time>2026-04-05T14:11:00.424Z</time></trkpt><trkpt lat="42.8856323" lon="12.914964"><ele>667.0</ele><time>2026-04-05T14:11:01.423Z</time></trkpt><trkpt lat="42.8855517" lon="12.9151192"><ele>665.5</ele><time>2026-04-05T14:11:02.423Z</time></trkpt><trkpt lat="42.8854798" lon="12.9152701"><ele>664.0</ele><time>2026-04-05T14:11:03.424Z</time></trkpt><trkpt lat="42.8854133" lon="12.9154289"><ele>662.5</ele><time>2026-04-05T14:11:04.423Z</time></trkpt><trkpt lat="42.885388" lon="12.9155972"><ele>661.0</ele><time>2026-04-05T14:11:05.424Z</time></trkpt><trkpt lat="42.8853986" lon="12.9157714"><ele>663.75</ele><time>2026-04-05T14:11:06.424Z</time></trkpt><trkpt lat="42.8854446" lon="12.9159396"><ele>666.5</ele><time>2026-04-05T14:11:07.424Z</time></trkpt><trkpt lat="42.8855061" lon="12.9161118"><ele>669.25</ele><time>2026-04-05T14:11:08.424Z</time></trkpt><trkpt lat="42.8856062" lon="12.9162641"><ele>672.0</ele><time>2026-04-05T14:11:09.423Z</time></trkpt><trkpt lat="42.8857227" lon="12.9163915"><ele>672.0</ele><time>2026-04-05T14:11:10.424Z</time></trkpt><trkpt lat="42.885856" lon="12.9164685"><ele>672.0</ele><time>2026-04-05T14:11:11.423Z</time></trkpt><trkpt lat="42.885986" lon="12.9165345"><ele>672.0</ele><time>2026-04-05T14:11:12.424Z</time></trkpt><trkpt lat="42.8861153" lon="12.9165983"><ele>672.0</ele><time>2026-04-05T14:11:13.424Z</time></trkpt><trkpt lat="42.886213" lon="12.9166656"><ele>666.4000000000001</ele><time>2026-04-05T14:11:14.424Z</time></trkpt><trkpt lat="42.8862872" lon="12.9167646"><ele>660.8000000000001</ele><time>2026-04-05T14:11:15.424Z</time></trkpt><trkpt lat="42.886339" lon="12.9168668"><ele>655.2</ele><time>2026-04-05T14:11:16.424Z</time></trkpt><trkpt lat="42.8863303" lon="12.9170054"><ele>649.6</ele><time>2026-04-05T14:11:17.423Z</time></trkpt><trkpt lat="42.8863176" lon="12.9171466"><ele>644.0</ele><time>2026-04-05T14:11:18.424Z</time></trkpt><trkpt lat="42.8862957" lon="12.9172989"><ele>644.0</ele><time>2026-04-05T14:11:19.424Z</time></trkpt><trkpt lat="42.8862604" lon="12.9174719"><ele>644.0</ele><time>2026-04-05T14:11:20.423Z</time></trkpt><trkpt lat="42.8862207" lon="12.9176467"><ele>644.0</ele><time>2026-04-05T14:11:21.423Z</time></trkpt><trkpt lat="42.8861804" lon="12.9178275"><ele>644.0</ele><time>2026-04-05T14:11:22.424Z</time></trkpt><trkpt lat="42.8861439" lon="12.9180092"><ele>643.75</ele><time>2026-04-05T14:11:23.424Z</time></trkpt><trkpt lat="42.8861274" lon="12.9181873"><ele>643.5</ele><time>2026-04-05T14:11:24.424Z</time></trkpt><trkpt lat="42.8861208" lon="12.9183792"><ele>643.25</ele><time>2026-04-05T14:11:25.424Z</time></trkpt><trkpt lat="42.8861226" lon="12.9185752"><ele>643.0</ele><time>2026-04-05T14:11:26.424Z</time></trkpt><trkpt lat="42.8861285" lon="12.9187739"><ele>642.5</ele><time>2026-04-05T14:11:27.424Z</time></trkpt><trkpt lat="42.886135" lon="12.9189744"><ele>642.0</ele><time>2026-04-05T14:11:28.423Z</time></trkpt><trkpt lat="42.8861429" lon="12.9191784"><ele>641.5</ele><time>2026-04-05T14:11:29.424Z</time></trkpt><trkpt lat="42.8861447" lon="12.9193684"><ele>641.0</ele><time>2026-04-05T14:11:30.424Z</time></trkpt><trkpt lat="42.8861523" lon="12.9195527"><ele>640.25</ele><time>2026-04-05T14:11:31.423Z</time></trkpt><trkpt lat="42.8861529" lon="12.9197341"><ele>639.5</ele><time>2026-04-05T14:11:32.424Z</time></trkpt><trkpt lat="42.886159" lon="12.91991"><ele>638.75</ele><time>2026-04-05T14:11:33.424Z</time></trkpt><trkpt lat="42.8861589" lon="12.9200838"><ele>638.0</ele><time>2026-04-05T14:11:34.424Z</time></trkpt><trkpt lat="42.8861655" lon="12.920253"><ele>637.5</ele><time>2026-04-05T14:11:35.424Z</time></trkpt><trkpt lat="42.886169" lon="12.9204173"><ele>637.0</ele><time>2026-04-05T14:11:36.423Z</time></trkpt><trkpt lat="42.8861605" lon="12.9205845"><ele>636.5</ele><time>2026-04-05T14:11:37.424Z</time></trkpt><trkpt lat="42.8861639" lon="12.9207563"><ele>636.0</ele><time>2026-04-05T14:11:38.424Z</time></trkpt><trkpt lat="42.8861702" lon="12.9209213"><ele>636.0</ele><time>2026-04-05T14:11:39.424Z</time></trkpt><trkpt lat="42.886183" lon="12.9210899"><ele>636.0</ele><time>2026-04-05T14:11:40.424Z</time></trkpt><trkpt lat="42.8861963" lon="12.9212555"><ele>636.0</ele><time>2026-04-05T14:11:41.424Z</time></trkpt><trkpt lat="42.8862165" lon="12.9214236"><ele>636.0</ele><time>2026-04-05T14:11:42.424Z</time></trkpt><trkpt lat="42.8862391" lon="12.9215755"><ele>636.0</ele><time>2026-04-05T14:11:43.424Z</time></trkpt><trkpt lat="42.8862726" lon="12.9217286"><ele>636.0</ele><time>2026-04-05T14:11:44.424Z</time></trkpt><trkpt lat="42.8863028" lon="12.9218753"><ele>636.0</ele><time>2026-04-05T14:11:45.423Z</time></trkpt><trkpt lat="42.8863429" lon="12.922014"><ele>636.0</ele><time>2026-04-05T14:11:46.424Z</time></trkpt><trkpt lat="42.8863836" lon="12.9221541"><ele>636.0</ele><time>2026-04-05T14:11:47.424Z</time></trkpt><trkpt lat="42.8864255" lon="12.9222907"><ele>636.0</ele><time>2026-04-05T14:11:48.424Z</time></trkpt><trkpt lat="42.8864755" lon="12.922428"><ele>636.0</ele><time>2026-04-05T14:11:49.424Z</time></trkpt><trkpt lat="42.8865313" lon="12.9225579"><ele>636.0</ele><time>2026-04-05T14:11:50.424Z</time></trkpt><trkpt lat="42.8865994" lon="12.9226797"><ele>636.0</ele><time>2026-04-05T14:11:51.424Z</time></trkpt><trkpt lat="42.8866719" lon="12.9227925"><ele>636.0</ele><time>2026-04-05T14:11:52.424Z</time></trkpt><trkpt lat="42.8867491" lon="12.9229072"><ele>634.6</ele><time>2026-04-05T14:11:53.423Z</time></trkpt><trkpt lat="42.8868338" lon="12.9230064"><ele>633.2</ele><time>2026-04-05T14:11:54.423Z</time></trkpt><trkpt lat="42.8869263" lon="12.9231025"><ele>631.8</ele><time>2026-04-05T14:11:55.423Z</time></trkpt><trkpt lat="42.8870182" lon="12.9231764"><ele>630.4</ele><time>2026-04-05T14:11:56.424Z</time></trkpt><trkpt lat="42.8871103" lon="12.9232432"><ele>629.0</ele><time>2026-04-05T14:11:57.424Z</time></trkpt><trkpt lat="42.8872" lon="12.923297"><ele>629.0</ele><time>2026-04-05T14:11:58.424Z</time></trkpt><trkpt lat="42.887295" lon="12.9233568"><ele>629.0</ele><time>2026-04-05T14:11:59.424Z</time></trkpt><trkpt lat="42.8874022" lon="12.9234261"><ele>629.0</ele><time>2026-04-05T14:12:00.424Z</time></trkpt><trkpt lat="42.8875132" lon="12.9234928"><ele>629.0</ele><time>2026-04-05T14:12:01.424Z</time></trkpt><trkpt lat="42.8876125" lon="12.9235689"><ele>627.5</ele><time>2026-04-05T14:12:02.424Z</time></trkpt><trkpt lat="42.8877194" lon="12.9236441"><ele>626.0</ele><time>2026-04-05T14:12:03.424Z</time></trkpt><trkpt lat="42.8878321" lon="12.9237131"><ele>624.5</ele><time>2026-04-05T14:12:04.424Z</time></trkpt><trkpt lat="42.8879296" lon="12.923797"><ele>623.0</ele><time>2026-04-05T14:12:05.424Z</time></trkpt><trkpt lat="42.8880082" lon="12.9239149"><ele>623.0</ele><time>2026-04-05T14:12:06.424Z</time></trkpt><trkpt lat="42.8880938" lon="12.9240468"><ele>623.0</ele><time>2026-04-05T14:12:07.424Z</time></trkpt><trkpt lat="42.8881669" lon="12.9242002"><ele>623.0</ele><time>2026-04-05T14:12:08.423Z</time></trkpt><trkpt lat="42.8882347" lon="12.9243547"><ele>623.0</ele><time>2026-04-05T14:12:09.424Z</time></trkpt><trkpt lat="42.8882877" lon="12.9245004"><ele>624.6</ele><time>2026-04-05T14:12:10.423Z</time></trkpt><trkpt lat="42.8883197" lon="12.9246525"><ele>626.1999999999999</ele><time>2026-04-05T14:12:11.424Z</time></trkpt><trkpt lat="42.8883368" lon="12.9248015"><ele>627.8</ele><time>2026-04-05T14:12:12.424Z</time></trkpt><trkpt lat="42.8883325" lon="12.9249417"><ele>629.4</ele><time>2026-04-05T14:12:13.424Z</time></trkpt><trkpt lat="42.8882988" lon="12.9250755"><ele>631.0</ele><time>2026-04-05T14:12:14.423Z</time></trkpt><trkpt lat="42.8882464" lon="12.9251938"><ele>631.4</ele><time>2026-04-05T14:12:15.423Z</time></trkpt><trkpt lat="42.8881666" lon="12.9252936"><ele>631.8</ele><time>2026-04-05T14:12:16.424Z</time></trkpt><trkpt lat="42.8880907" lon="12.9253703"><ele>632.1999999999999</ele><time>2026-04-05T14:12:17.424Z</time></trkpt><trkpt lat="42.887998" lon="12.9254275"><ele>632.6</ele><time>2026-04-05T14:12:18.424Z</time></trkpt><trkpt lat="42.8878849" lon="12.9254245"><ele>633.0</ele><time>2026-04-05T14:12:19.424Z</time></trkpt><trkpt lat="42.8877663" lon="12.9254005"><ele>633.0</ele><time>2026-04-05T14:12:20.423Z</time></trkpt><trkpt lat="42.8876615" lon="12.9253392"><ele>633.0</ele><time>2026-04-05T14:12:21.424Z</time></trkpt><trkpt lat="42.8875553" lon="12.9252545"><ele>633.0</ele><time>2026-04-05T14:12:22.424Z</time></trkpt><trkpt lat="42.8874504" lon="12.9251439"><ele>633.0</ele><time>2026-04-05T14:12:23.424Z</time></trkpt><trkpt lat="42.8873446" lon="12.9250294"><ele>633.0</ele><time>2026-04-05T14:12:24.424Z</time></trkpt><trkpt lat="42.8872425" lon="12.9249269"><ele>633.0</ele><time>2026-04-05T14:12:25.424Z</time></trkpt><trkpt lat="42.8871403" lon="12.924815"><ele>633.0</ele><time>2026-04-05T14:12:26.424Z</time></trkpt><trkpt lat="42.8870329" lon="12.9247015"><ele>633.0</ele><time>2026-04-05T14:12:27.423Z</time></trkpt><trkpt lat="42.8869316" lon="12.9245551"><ele>633.0</ele><time>2026-04-05T14:12:28.423Z</time></trkpt><trkpt lat="42.8868386" lon="12.9244164"><ele>633.0</ele><time>2026-04-05T14:12:29.424Z</time></trkpt><trkpt lat="42.8867569" lon="12.9242652"><ele>633.0</ele><time>2026-04-05T14:12:30.424Z</time></trkpt><trkpt lat="42.886676" lon="12.9241066"><ele>633.0</ele><time>2026-04-05T14:12:31.424Z</time></trkpt><trkpt lat="42.8866057" lon="12.9239396"><ele>633.5</ele><time>2026-04-05T14:12:32.424Z</time></trkpt><trkpt lat="42.8865235" lon="12.9237851"><ele>634.0</ele><time>2026-04-05T14:12:33.424Z</time></trkpt><trkpt lat="42.8864325" lon="12.9236413"><ele>634.5</ele><time>2026-04-05T14:12:34.424Z</time></trkpt><trkpt lat="42.886333" lon="12.9235024"><ele>635.0</ele><time>2026-04-05T14:12:35.423Z</time></trkpt><trkpt lat="42.886217" lon="12.9233828"><ele>635.0</ele><time>2026-04-05T14:12:36.424Z</time></trkpt><trkpt lat="42.8861014" lon="12.9232806"><ele>635.0</ele><time>2026-04-05T14:12:37.423Z</time></trkpt><trkpt lat="42.8859753" lon="12.9232043"><ele>635.0</ele><time>2026-04-05T14:12:38.424Z</time></trkpt><trkpt lat="42.8858593" lon="12.9231329"><ele>635.0</ele><time>2026-04-05T14:12:39.424Z</time></trkpt><trkpt lat="42.8857376" lon="12.9230541"><ele>634.0</ele><time>2026-04-05T14:12:40.424Z</time></trkpt><trkpt lat="42.885633" lon="12.922944"><ele>633.0</ele><time>2026-04-05T14:12:41.424Z</time></trkpt><trkpt lat="42.8855318" lon="12.9228211"><ele>632.0</ele><time>2026-04-05T14:12:42.423Z</time></trkpt><trkpt lat="42.8854396" lon="12.9226828"><ele>631.0</ele><time>2026-04-05T14:12:43.423Z</time></trkpt><trkpt lat="42.8853563" lon="12.9225296"><ele>631.0</ele><time>2026-04-05T14:12:44.424Z</time></trkpt><trkpt lat="42.8852859" lon="12.9223562"><ele>631.0</ele><time>2026-04-05T14:12:45.424Z</time></trkpt><trkpt lat="42.8852215" lon="12.9221898"><ele>631.0</ele><time>2026-04-05T14:12:46.423Z</time></trkpt><trkpt lat="42.8851518" lon="12.9220333"><ele>631.0</ele><time>2026-04-05T14:12:47.424Z</time></trkpt><trkpt lat="42.8850724" lon="12.9218874"><ele>628.5</ele><time>2026-04-05T14:12:48.424Z</time></trkpt><trkpt lat="42.8849873" lon="12.9217727"><ele>626.0</ele><time>2026-04-05T14:12:49.424Z</time></trkpt><trkpt lat="42.8848932" lon="12.921675"><ele>623.5</ele><time>2026-04-05T14:12:50.424Z</time></trkpt><trkpt lat="42.8847909" lon="12.921602"><ele>621.0</ele><time>2026-04-05T14:12:51.424Z</time></trkpt><trkpt lat="42.8846709" lon="12.9215564"><ele>621.0</ele><time>2026-04-05T14:12:52.424Z</time></trkpt><trkpt lat="42.8845441" lon="12.9215311"><ele>621.0</ele><time>2026-04-05T14:12:53.424Z</time></trkpt><trkpt lat="42.8843991" lon="12.9215244"><ele>621.0</ele><time>2026-04-05T14:12:54.424Z</time></trkpt><trkpt lat="42.8842216" lon="12.9215303"><ele>615.3333333333334</ele><time>2026-04-05T14:12:55.424Z</time></trkpt><trkpt lat="42.8840447" lon="12.9215397"><ele>609.6666666666667</ele><time>2026-04-05T14:12:56.423Z</time></trkpt><trkpt lat="42.8838641" lon="12.9215409"><ele>604.0</ele><time>2026-04-05T14:12:57.424Z</time></trkpt><trkpt lat="42.8836894" lon="12.9215383"><ele>604.0</ele><time>2026-04-05T14:12:58.424Z</time></trkpt><trkpt lat="42.8835284" lon="12.9215263"><ele>604.0</ele><time>2026-04-05T14:12:59.424Z</time></trkpt><trkpt lat="42.8833821" lon="12.9214997"><ele>604.0</ele><time>2026-04-05T14:13:00.424Z</time></trkpt><trkpt lat="42.8832368" lon="12.9214847"><ele>602.0</ele><time>2026-04-05T14:13:01.423Z</time></trkpt><trkpt lat="42.8831" lon="12.9215339"><ele>600.0</ele><time>2026-04-05T14:13:02.423Z</time></trkpt><trkpt lat="42.8829629" lon="12.921604"><ele>598.0</ele><time>2026-04-05T14:13:03.424Z</time></trkpt><trkpt lat="42.8828281" lon="12.9216908"><ele>596.0</ele><time>2026-04-05T14:13:04.424Z</time></trkpt><trkpt lat="42.8826844" lon="12.9217836"><ele>586.6666666666666</ele><time>2026-04-05T14:13:05.424Z</time></trkpt><trkpt lat="42.8825404" lon="12.9218742"><ele>577.3333333333334</ele><time>2026-04-05T14:13:06.424Z</time></trkpt><trkpt lat="42.8824028" lon="12.921959"><ele>568.0</ele><time>2026-04-05T14:13:07.424Z</time></trkpt><trkpt lat="42.88227" lon="12.9220225"><ele>568.0</ele><time>2026-04-05T14:13:08.424Z</time></trkpt><trkpt lat="42.8821257" lon="12.922079"><ele>568.0</ele><time>2026-04-05T14:13:09.424Z</time></trkpt><trkpt lat="42.8819737" lon="12.9221296"><ele>568.0</ele><time>2026-04-05T14:13:10.423Z</time></trkpt><trkpt lat="42.8818112" lon="12.9221641"><ele>569.6666666666667</ele><time>2026-04-05T14:13:11.424Z</time></trkpt><trkpt lat="42.8816438" lon="12.922189"><ele>571.3333333333334</ele><time>2026-04-05T14:13:12.424Z</time></trkpt><trkpt lat="42.8814813" lon="12.9222183"><ele>573.0</ele><time>2026-04-05T14:13:13.423Z</time></trkpt><trkpt lat="42.8813132" lon="12.9222436"><ele>573.0</ele><time>2026-04-05T14:13:14.424Z</time></trkpt><trkpt lat="42.8811435" lon="12.9222736"><ele>573.0</ele><time>2026-04-05T14:13:15.424Z</time></trkpt><trkpt lat="42.8809767" lon="12.9223111"><ele>573.0</ele><time>2026-04-05T14:13:16.424Z</time></trkpt><trkpt lat="42.8808026" lon="12.922344"><ele>575.0</ele><time>2026-04-05T14:13:17.423Z</time></trkpt><trkpt lat="42.8806244" lon="12.9223603"><ele>577.0</ele><time>2026-04-05T14:13:18.424Z</time></trkpt><trkpt lat="42.8804434" lon="12.9223782"><ele>579.0</ele><time>2026-04-05T14:13:19.423Z</time></trkpt><trkpt lat="42.880263" lon="12.9223955"><ele>578.6666666666666</ele><time>2026-04-05T14:13:20.423Z</time></trkpt><trkpt lat="42.8800827" lon="12.9224153"><ele>578.3333333333333</ele><time>2026-04-05T14:13:21.423Z</time></trkpt><trkpt lat="42.8799116" lon="12.9224345"><ele>578.0</ele><time>2026-04-05T14:13:22.424Z</time></trkpt><trkpt lat="42.8797446" lon="12.922441"><ele>578.0</ele><time>2026-04-05T14:13:23.424Z</time></trkpt><trkpt lat="42.8795714" lon="12.9224651"><ele>578.0</ele><time>2026-04-05T14:13:24.423Z</time></trkpt><trkpt lat="42.8794135" lon="12.9224919"><ele>578.0</ele><time>2026-04-05T14:13:25.424Z</time></trkpt><trkpt lat="42.8792549" lon="12.9225446"><ele>569.6666666666666</ele><time>2026-04-05T14:13:26.423Z</time></trkpt><trkpt lat="42.8791101" lon="12.9226175"><ele>561.3333333333334</ele><time>2026-04-05T14:13:27.424Z</time></trkpt><trkpt lat="42.8789762" lon="12.9227342"><ele>553.0</ele><time>2026-04-05T14:13:28.423Z</time></trkpt><trkpt lat="42.8788643" lon="12.9228635"><ele>553.0</ele><time>2026-04-05T14:13:29.424Z</time></trkpt><trkpt lat="42.8787574" lon="12.9229769"><ele>553.0</ele><time>2026-04-05T14:13:30.424Z</time></trkpt><trkpt lat="42.8786355" lon="12.9230593"><ele>553.0</ele><time>2026-04-05T14:13:31.424Z</time></trkpt><trkpt lat="42.8785076" lon="12.9231359"><ele>553.0</ele><time>2026-04-05T14:13:32.424Z</time></trkpt><trkpt lat="42.8783702" lon="12.9231859"><ele>554.5</ele><time>2026-04-05T14:13:33.424Z</time></trkpt><trkpt lat="42.8782237" lon="12.9232281"><ele>556.0</ele><time>2026-04-05T14:13:34.424Z</time></trkpt><trkpt lat="42.8780777" lon="12.9232682"><ele>557.5</ele><time>2026-04-05T14:13:35.423Z</time></trkpt><trkpt lat="42.8779416" lon="12.923295"><ele>559.0</ele><time>2026-04-05T14:13:36.424Z</time></trkpt><trkpt lat="42.8777922" lon="12.923308"><ele>559.0</ele><time>2026-04-05T14:13:37.424Z</time></trkpt><trkpt lat="42.8776354" lon="12.9233098"><ele>559.0</ele><time>2026-04-05T14:13:38.424Z</time></trkpt><trkpt lat="42.8774787" lon="12.9232903"><ele>559.0</ele><time>2026-04-05T14:13:39.424Z</time></trkpt><trkpt lat="42.8773298" lon="12.9232703"><ele>560.0</ele><time>2026-04-05T14:13:40.424Z</time></trkpt><trkpt lat="42.8771849" lon="12.9232439"><ele>561.0</ele><time>2026-04-05T14:13:41.424Z</time></trkpt><trkpt lat="42.8770397" lon="12.923206"><ele>562.0</ele><time>2026-04-05T14:13:42.423Z</time></trkpt><trkpt lat="42.8769019" lon="12.9231688"><ele>563.0</ele><time>2026-04-05T14:13:43.423Z</time></trkpt><trkpt lat="42.8767814" lon="12.9231377"><ele>562.0</ele><time>2026-04-05T14:13:44.424Z</time></trkpt><trkpt lat="42.876663" lon="12.9231287"><ele>561.0</ele><time>2026-04-05T14:13:45.424Z</time></trkpt><trkpt lat="42.876554" lon="12.923173"><ele>560.0</ele><time>2026-04-05T14:13:46.424Z</time></trkpt><trkpt lat="42.8764706" lon="12.9232548"><ele>559.0</ele><time>2026-04-05T14:13:47.424Z</time></trkpt><trkpt lat="42.8764102" lon="12.9233678"><ele>558.0</ele><time>2026-04-05T14:13:48.423Z</time></trkpt><trkpt lat="42.8763701" lon="12.9234927"><ele>553.0</ele><time>2026-04-05T14:13:49.424Z</time></trkpt><trkpt lat="42.8763306" lon="12.9236255"><ele>548.0</ele><time>2026-04-05T14:13:50.424Z</time></trkpt><trkpt lat="42.8762625" lon="12.9237277"><ele>543.0</ele><time>2026-04-05T14:13:51.424Z</time></trkpt><trkpt lat="42.8761867" lon="12.9238053"><ele>538.0</ele><time>2026-04-05T14:13:52.424Z</time></trkpt><trkpt lat="42.8761099" lon="12.9238317"><ele>533.0</ele><time>2026-04-05T14:13:53.423Z</time></trkpt><trkpt lat="42.8760219" lon="12.9238294"><ele>535.0</ele><time>2026-04-05T14:13:54.424Z</time></trkpt><trkpt lat="42.8759272" lon="12.9237731"><ele>537.0</ele><time>2026-04-05T14:13:55.424Z</time></trkpt><trkpt lat="42.8758395" lon="12.923704"><ele>539.0</ele><time>2026-04-05T14:13:56.424Z</time></trkpt><trkpt lat="42.8757195" lon="12.9236274"><ele>541.0</ele><time>2026-04-05T14:13:57.423Z</time></trkpt><trkpt lat="42.8755915" lon="12.9235435"><ele>541.0</ele><time>2026-04-05T14:13:58.423Z</time></trkpt><trkpt lat="42.8754553" lon="12.9234671"><ele>541.0</ele><time>2026-04-05T14:13:59.423Z</time></trkpt><trkpt lat="42.875305" lon="12.9233985"><ele>541.0</ele><time>2026-04-05T14:14:00.424Z</time></trkpt><trkpt lat="42.8751523" lon="12.9233473"><ele>545.0</ele><time>2026-04-05T14:14:01.424Z</time></trkpt><trkpt lat="42.8749903" lon="12.9233045"><ele>549.0</ele><time>2026-04-05T14:14:02.424Z</time></trkpt><trkpt lat="42.8748138" lon="12.9232997"><ele>553.0</ele><time>2026-04-05T14:14:03.423Z</time></trkpt><trkpt lat="42.8746537" lon="12.9232896"><ele>553.0</ele><time>2026-04-05T14:14:04.424Z</time></trkpt><trkpt lat="42.8744833" lon="12.9232827"><ele>553.0</ele><time>2026-04-05T14:14:05.424Z</time></trkpt><trkpt lat="42.8743305" lon="12.9232593"><ele>553.0</ele><time>2026-04-05T14:14:06.424Z</time></trkpt><trkpt lat="42.8741496" lon="12.9232729"><ele>549.3333333333334</ele><time>2026-04-05T14:14:07.424Z</time></trkpt><trkpt lat="42.8739878" lon="12.9232705"><ele>545.6666666666666</ele><time>2026-04-05T14:14:08.423Z</time></trkpt><trkpt lat="42.8738193" lon="12.9232957"><ele>542.0</ele><time>2026-04-05T14:14:09.423Z</time></trkpt><trkpt lat="42.8736591" lon="12.9233094"><ele>542.0</ele><time>2026-04-05T14:14:10.424Z</time></trkpt><trkpt lat="42.8734939" lon="12.9233344"><ele>542.0</ele><time>2026-04-05T14:14:11.423Z</time></trkpt><trkpt lat="42.8733279" lon="12.9233605"><ele>542.0</ele><time>2026-04-05T14:14:12.423Z</time></trkpt><trkpt lat="42.8731647" lon="12.9233968"><ele>532.6666666666666</ele><time>2026-04-05T14:14:13.424Z</time></trkpt><trkpt lat="42.8730088" lon="12.9234283"><ele>523.3333333333334</ele><time>2026-04-05T14:14:14.423Z</time></trkpt><trkpt lat="42.872855" lon="12.9234618"><ele>514.0</ele><time>2026-04-05T14:14:15.424Z</time></trkpt><trkpt lat="42.8727181" lon="12.9234889"><ele>515.5</ele><time>2026-04-05T14:14:16.424Z</time></trkpt><trkpt lat="42.8725755" lon="12.9235239"><ele>517.0</ele><time>2026-04-05T14:14:17.424Z</time></trkpt><trkpt lat="42.8724283" lon="12.923571"><ele>518.5</ele><time>2026-04-05T14:14:18.423Z</time></trkpt><trkpt lat="42.8722906" lon="12.9236239"><ele>520.0</ele><time>2026-04-05T14:14:19.424Z</time></trkpt><trkpt lat="42.8721662" lon="12.9236813"><ele>520.0</ele><time>2026-04-05T14:14:20.424Z</time></trkpt><trkpt lat="42.8720505" lon="12.9237596"><ele>520.0</ele><time>2026-04-05T14:14:21.424Z</time></trkpt><trkpt lat="42.8719521" lon="12.9238704"><ele>520.0</ele><time>2026-04-05T14:14:22.424Z</time></trkpt><trkpt lat="42.8718765" lon="12.9239874"><ele>520.0</ele><time>2026-04-05T14:14:23.424Z</time></trkpt><trkpt lat="42.8718232" lon="12.9241261"><ele>519.0</ele><time>2026-04-05T14:14:24.424Z</time></trkpt><trkpt lat="42.8718012" lon="12.9242857"><ele>518.0</ele><time>2026-04-05T14:14:25.423Z</time></trkpt><trkpt lat="42.8718126" lon="12.9244441"><ele>517.0</ele><time>2026-04-05T14:14:26.424Z</time></trkpt><trkpt lat="42.8718662" lon="12.9245802"><ele>516.0</ele><time>2026-04-05T14:14:27.423Z</time></trkpt><trkpt lat="42.8719322" lon="12.9246927"><ele>516.0</ele><time>2026-04-05T14:14:28.424Z</time></trkpt><trkpt lat="42.871994" lon="12.9248034"><ele>516.0</ele><time>2026-04-05T14:14:29.424Z</time></trkpt><trkpt lat="42.872037" lon="12.9249106"><ele>516.0</ele><time>2026-04-05T14:14:30.424Z</time></trkpt><trkpt lat="42.8720535" lon="12.9250153"><ele>516.0</ele><time>2026-04-05T14:14:31.424Z</time></trkpt><trkpt lat="42.8720365" lon="12.9251054"><ele>516.0</ele><time>2026-04-05T14:14:32.424Z</time></trkpt><trkpt lat="42.8719836" lon="12.9251836"><ele>516.0</ele><time>2026-04-05T14:14:33.424Z</time></trkpt><trkpt lat="42.871895" lon="12.9252243"><ele>515.5</ele><time>2026-04-05T14:14:34.423Z</time></trkpt><trkpt lat="42.8717953" lon="12.9252523"><ele>515.0</ele><time>2026-04-05T14:14:35.424Z</time></trkpt><trkpt lat="42.8716877" lon="12.9252598"><ele>514.5</ele><time>2026-04-05T14:14:36.424Z</time></trkpt><trkpt lat="42.8715663" lon="12.925256"><ele>514.0</ele><time>2026-04-05T14:14:37.424Z</time></trkpt><trkpt lat="42.8714254" lon="12.925252"><ele>512.0</ele><time>2026-04-05T14:14:38.423Z</time></trkpt><trkpt lat="42.8712786" lon="12.9252564"><ele>510.0</ele><time>2026-04-05T14:14:39.424Z</time></trkpt><trkpt lat="42.8711286" lon="12.925251"><ele>508.0</ele><time>2026-04-05T14:14:40.424Z</time></trkpt><trkpt lat="42.8709735" lon="12.9252464"><ele>506.33333333333337</ele><time>2026-04-05T14:14:41.423Z</time></trkpt><trkpt lat="42.8708264" lon="12.9252577"><ele>504.66666666666663</ele><time>2026-04-05T14:14:42.424Z</time></trkpt><trkpt lat="42.8706751" lon="12.9252643"><ele>503.0</ele><time>2026-04-05T14:14:43.424Z</time></trkpt><trkpt lat="42.8705246" lon="12.9252894"><ele>503.0</ele><time>2026-04-05T14:14:44.424Z</time></trkpt><trkpt lat="42.870376" lon="12.9253239"><ele>503.0</ele><time>2026-04-05T14:14:45.423Z</time></trkpt><trkpt lat="42.8702326" lon="12.9254099"><ele>503.0</ele><time>2026-04-05T14:14:46.424Z</time></trkpt><trkpt lat="42.8700961" lon="12.9255109"><ele>503.25</ele><time>2026-04-05T14:14:47.424Z</time></trkpt><trkpt lat="42.8699701" lon="12.9256234"><ele>503.5</ele><time>2026-04-05T14:14:48.424Z</time></trkpt><trkpt lat="42.8698513" lon="12.9257029"><ele>503.75</ele><time>2026-04-05T14:14:49.424Z</time></trkpt><trkpt lat="42.8697294" lon="12.9257435"><ele>504.0</ele><time>2026-04-05T14:14:50.423Z</time></trkpt><trkpt lat="42.8695949" lon="12.9257526"><ele>504.0</ele><time>2026-04-05T14:14:51.424Z</time></trkpt><trkpt lat="42.8694756" lon="12.9257459"><ele>504.0</ele><time>2026-04-05T14:14:52.424Z</time></trkpt><trkpt lat="42.8693445" lon="12.925708"><ele>504.0</ele><time>2026-04-05T14:14:53.424Z</time></trkpt><trkpt lat="42.8692107" lon="12.9256674"><ele>504.0</ele><time>2026-04-05T14:14:54.424Z</time></trkpt><trkpt lat="42.8690807" lon="12.9256127"><ele>502.75</ele><time>2026-04-05T14:14:55.424Z</time></trkpt><trkpt lat="42.8689598" lon="12.9255583"><ele>501.5</ele><time>2026-04-05T14:14:56.424Z</time></trkpt><trkpt lat="42.8688401" lon="12.9255448"><ele>500.25</ele><time>2026-04-05T14:14:57.424Z</time></trkpt><trkpt lat="42.8687088" lon="12.9255788"><ele>499.0</ele><time>2026-04-05T14:14:58.424Z</time></trkpt><trkpt lat="42.8685833" lon="12.9256564"><ele>499.0</ele><time>2026-04-05T14:14:59.424Z</time></trkpt><trkpt lat="42.868466" lon="12.9257467"><ele>499.0</ele><time>2026-04-05T14:15:00.424Z</time></trkpt><trkpt lat="42.8683668" lon="12.9258619"><ele>499.0</ele><time>2026-04-05T14:15:01.424Z</time></trkpt><trkpt lat="42.8682731" lon="12.9259562"><ele>499.0</ele><time>2026-04-05T14:15:02.424Z</time></trkpt><trkpt lat="42.8681681" lon="12.9260368"><ele>492.5</ele><time>2026-04-05T14:15:03.424Z</time></trkpt><trkpt lat="42.8680571" lon="12.9260726"><ele>486.0</ele><time>2026-04-05T14:15:04.423Z</time></trkpt><trkpt lat="42.8679466" lon="12.9260866"><ele>479.5</ele><time>2026-04-05T14:15:05.424Z</time></trkpt><trkpt lat="42.8678295" lon="12.9260833"><ele>473.0</ele><time>2026-04-05T14:15:06.423Z</time></trkpt><trkpt lat="42.8677051" lon="12.9260766"><ele>474.0</ele><time>2026-04-05T14:15:07.423Z</time></trkpt><trkpt lat="42.8675969" lon="12.9260229"><ele>475.0</ele><time>2026-04-05T14:15:08.424Z</time></trkpt><trkpt lat="42.8674887" lon="12.9259674"><ele>476.0</ele><time>2026-04-05T14:15:09.424Z</time></trkpt><trkpt lat="42.8673874" lon="12.9258937"><ele>477.0</ele><time>2026-04-05T14:15:10.424Z</time></trkpt><trkpt lat="42.8673104" lon="12.9257797"><ele>482.0</ele><time>2026-04-05T14:15:11.424Z</time></trkpt><trkpt lat="42.8672387" lon="12.9256513"><ele>487.0</ele><time>2026-04-05T14:15:12.424Z</time></trkpt><trkpt lat="42.8671934" lon="12.9254964"><ele>492.0</ele><time>2026-04-05T14:15:13.424Z</time></trkpt><trkpt lat="42.867146" lon="12.9253345"><ele>497.0</ele><time>2026-04-05T14:15:14.424Z</time></trkpt><trkpt lat="42.8670852" lon="12.9251785"><ele>499.75</ele><time>2026-04-05T14:15:15.424Z</time></trkpt><trkpt lat="42.8670037" lon="12.9250249"><ele>502.5</ele><time>2026-04-05T14:15:16.423Z</time></trkpt><trkpt lat="42.8669021" lon="12.9249034"><ele>505.25</ele><time>2026-04-05T14:15:17.424Z</time></trkpt><trkpt lat="42.8667853" lon="12.9248017"><ele>508.0</ele><time>2026-04-05T14:15:18.424Z</time></trkpt><trkpt lat="42.8666662" lon="12.9247241"><ele>502.5</ele><time>2026-04-05T14:15:19.423Z</time></trkpt><trkpt lat="42.8665545" lon="12.9246458"><ele>497.0</ele><time>2026-04-05T14:15:20.424Z</time></trkpt><trkpt lat="42.8664419" lon="12.9245667"><ele>491.5</ele><time>2026-04-05T14:15:21.423Z</time></trkpt><trkpt lat="42.866346" lon="12.9244785"><ele>486.0</ele><time>2026-04-05T14:15:22.424Z</time></trkpt><trkpt lat="42.8662639" lon="12.9243702"><ele>487.75</ele><time>2026-04-05T14:15:23.424Z</time></trkpt><trkpt lat="42.8662198" lon="12.9242108"><ele>489.5</ele><time>2026-04-05T14:15:24.424Z</time></trkpt><trkpt lat="42.8661913" lon="12.9240435"><ele>491.25</ele><time>2026-04-05T14:15:25.424Z</time></trkpt><trkpt lat="42.8661794" lon="12.923865"><ele>493.0</ele><time>2026-04-05T14:15:26.424Z</time></trkpt><trkpt lat="42.8661733" lon="12.9236786"><ele>493.0</ele><time>2026-04-05T14:15:27.424Z</time></trkpt><trkpt lat="42.8661731" lon="12.923489"><ele>493.0</ele><time>2026-04-05T14:15:28.424Z</time></trkpt><trkpt lat="42.8661791" lon="12.9233029"><ele>493.0</ele><time>2026-04-05T14:15:29.424Z</time></trkpt><trkpt lat="42.8661885" lon="12.9231218"><ele>493.0</ele><time>2026-04-05T14:15:30.424Z</time></trkpt><trkpt lat="42.86621" lon="12.9229504"><ele>493.0</ele><time>2026-04-05T14:15:31.423Z</time></trkpt><trkpt lat="42.8662606" lon="12.9227924"><ele>493.0</ele><time>2026-04-05T14:15:32.424Z</time></trkpt><trkpt lat="42.8663316" lon="12.9226521"><ele>493.0</ele><time>2026-04-05T14:15:33.423Z</time></trkpt><trkpt lat="42.8664292" lon="12.9225127"><ele>493.0</ele><time>2026-04-05T14:15:34.424Z</time></trkpt><trkpt lat="42.8665351" lon="12.9223805"><ele>491.5</ele><time>2026-04-05T14:15:35.424Z</time></trkpt><trkpt lat="42.8666382" lon="12.9222432"><ele>490.0</ele><time>2026-04-05T14:15:36.424Z</time></trkpt><trkpt lat="42.8667293" lon="12.9221159"><ele>488.5</ele><time>2026-04-05T14:15:37.424Z</time></trkpt><trkpt lat="42.8668069" lon="12.921974"><ele>487.0</ele><time>2026-04-05T14:15:38.424Z</time></trkpt><trkpt lat="42.866859" lon="12.9218263"><ele>489.20000000000005</ele><time>2026-04-05T14:15:39.424Z</time></trkpt><trkpt lat="42.8668932" lon="12.9216669"><ele>491.40000000000003</ele><time>2026-04-05T14:15:40.424Z</time></trkpt><trkpt lat="42.8669045" lon="12.9215022"><ele>493.59999999999997</ele><time>2026-04-05T14:15:41.424Z</time></trkpt><trkpt lat="42.8668902" lon="12.9213562"><ele>495.79999999999995</ele><time>2026-04-05T14:15:42.424Z</time></trkpt><trkpt lat="42.8668406" lon="12.9212463"><ele>498.0</ele><time>2026-04-05T14:15:43.424Z</time></trkpt><trkpt lat="42.8667754" lon="12.9211778"><ele>493.59999999999997</ele><time>2026-04-05T14:15:44.424Z</time></trkpt><trkpt lat="42.8667067" lon="12.9211432"><ele>489.19999999999993</ele><time>2026-04-05T14:15:45.424Z</time></trkpt><trkpt lat="42.8666175" lon="12.9211497"><ele>484.8</ele><time>2026-04-05T14:15:46.424Z</time></trkpt><trkpt lat="42.8665186" lon="12.9211836"><ele>480.4</ele><time>2026-04-05T14:15:47.423Z</time></trkpt><trkpt lat="42.8664183" lon="12.9212086"><ele>476.0</ele><time>2026-04-05T14:15:48.424Z</time></trkpt><trkpt lat="42.8662991" lon="12.9212396"><ele>476.0</ele><time>2026-04-05T14:15:49.424Z</time></trkpt><trkpt lat="42.8661831" lon="12.9212735"><ele>476.0</ele><time>2026-04-05T14:15:50.424Z</time></trkpt><trkpt lat="42.8660612" lon="12.9213159"><ele>476.0</ele><time>2026-04-05T14:15:51.424Z</time></trkpt><trkpt lat="42.8659363" lon="12.9213587"><ele>476.0</ele><time>2026-04-05T14:15:52.424Z</time></trkpt><trkpt lat="42.865796" lon="12.9214125"><ele>476.0</ele><time>2026-04-05T14:15:53.423Z</time></trkpt><trkpt lat="42.8656599" lon="12.9214675"><ele>476.0</ele><time>2026-04-05T14:15:54.424Z</time></trkpt><trkpt lat="42.8655254" lon="12.9215226"><ele>476.0</ele><time>2026-04-05T14:15:55.424Z</time></trkpt><trkpt lat="42.8653893" lon="12.9215728"><ele>476.0</ele><time>2026-04-05T14:15:56.424Z</time></trkpt><trkpt lat="42.8652563" lon="12.9216292"><ele>476.0</ele><time>2026-04-05T14:15:57.424Z</time></trkpt><trkpt lat="42.8651223" lon="12.9216915"><ele>476.0</ele><time>2026-04-05T14:15:58.423Z</time></trkpt><trkpt lat="42.8649951" lon="12.9217509"><ele>476.0</ele><time>2026-04-05T14:15:59.424Z</time></trkpt><trkpt lat="42.8648815" lon="12.921817"><ele>476.0</ele><time>2026-04-05T14:16:00.424Z</time></trkpt><trkpt lat="42.8647911" lon="12.9219038"><ele>474.25</ele><time>2026-04-05T14:16:01.423Z</time></trkpt><trkpt lat="42.8647237" lon="12.9220007"><ele>472.5</ele><time>2026-04-05T14:16:02.424Z</time></trkpt><trkpt lat="42.8646724" lon="12.9221505"><ele>470.75</ele><time>2026-04-05T14:16:03.424Z</time></trkpt><trkpt lat="42.8646525" lon="12.9223147"><ele>469.0</ele><time>2026-04-05T14:16:04.424Z</time></trkpt><trkpt lat="42.8646543" lon="12.922488"><ele>468.5</ele><time>2026-04-05T14:16:05.424Z</time></trkpt><trkpt lat="42.8646631" lon="12.9226638"><ele>468.0</ele><time>2026-04-05T14:16:06.424Z</time></trkpt><trkpt lat="42.8646682" lon="12.9228282"><ele>467.5</ele><time>2026-04-05T14:16:07.424Z</time></trkpt><trkpt lat="42.8646518" lon="12.9229885"><ele>467.0</ele><time>2026-04-05T14:16:08.424Z</time></trkpt><trkpt lat="42.8646193" lon="12.9231481"><ele>467.0</ele><time>2026-04-05T14:16:09.424Z</time></trkpt><trkpt lat="42.8645615" lon="12.9232962"><ele>467.0</ele><time>2026-04-05T14:16:10.424Z</time></trkpt><trkpt lat="42.8644863" lon="12.9234675"><ele>467.0</ele><time>2026-04-05T14:16:11.423Z</time></trkpt><trkpt lat="42.8644078" lon="12.9236361"><ele>467.0</ele><time>2026-04-05T14:16:12.424Z</time></trkpt><trkpt lat="42.8643255" lon="12.9238043"><ele>468.0</ele><time>2026-04-05T14:16:13.423Z</time></trkpt><trkpt lat="42.8642518" lon="12.9239746"><ele>469.0</ele><time>2026-04-05T14:16:14.423Z</time></trkpt><trkpt lat="42.864188" lon="12.9241443"><ele>470.0</ele><time>2026-04-05T14:16:15.424Z</time></trkpt><trkpt lat="42.8641323" lon="12.9243099"><ele>471.0</ele><time>2026-04-05T14:16:16.424Z</time></trkpt><trkpt lat="42.8640942" lon="12.9244706"><ele>471.0</ele><time>2026-04-05T14:16:17.424Z</time></trkpt><trkpt lat="42.8640774" lon="12.9246457"><ele>471.0</ele><time>2026-04-05T14:16:18.424Z</time></trkpt><trkpt lat="42.8640728" lon="12.9248215"><ele>471.0</ele><time>2026-04-05T14:16:19.424Z</time></trkpt><trkpt lat="42.8641007" lon="12.9249973"><ele>471.0</ele><time>2026-04-05T14:16:20.424Z</time></trkpt><trkpt lat="42.8641551" lon="12.925165"><ele>469.0</ele><time>2026-04-05T14:16:21.424Z</time></trkpt><trkpt lat="42.8642363" lon="12.9253289"><ele>467.0</ele><time>2026-04-05T14:16:22.424Z</time></trkpt><trkpt lat="42.8643398" lon="12.9254839"><ele>465.0</ele><time>2026-04-05T14:16:23.424Z</time></trkpt><trkpt lat="42.8644567" lon="12.9256186"><ele>465.0</ele><time>2026-04-05T14:16:24.424Z</time></trkpt><trkpt lat="42.86459" lon="12.9257392"><ele>465.0</ele><time>2026-04-05T14:16:25.424Z</time></trkpt><trkpt lat="42.8647176" lon="12.9258618"><ele>465.0</ele><time>2026-04-05T14:16:26.424Z</time></trkpt><trkpt lat="42.8648453" lon="12.9259663"><ele>466.5</ele><time>2026-04-05T14:16:27.423Z</time></trkpt><trkpt lat="42.8649429" lon="12.9260928"><ele>468.0</ele><time>2026-04-05T14:16:28.424Z</time></trkpt><trkpt lat="42.8650295" lon="12.9262269"><ele>469.5</ele><time>2026-04-05T14:16:29.424Z</time></trkpt><trkpt lat="42.8650764" lon="12.9263789"><ele>471.0</ele><time>2026-04-05T14:16:30.423Z</time></trkpt><trkpt lat="42.8651118" lon="12.9265446"><ele>469.75</ele><time>2026-04-05T14:16:31.423Z</time></trkpt><trkpt lat="42.8651266" lon="12.9267146"><ele>468.5</ele><time>2026-04-05T14:16:32.423Z</time></trkpt><trkpt lat="42.8651168" lon="12.9269066"><ele>467.25</ele><time>2026-04-05T14:16:33.423Z</time></trkpt><trkpt lat="42.865091" lon="12.9270866"><ele>466.0</ele><time>2026-04-05T14:16:34.423Z</time></trkpt><trkpt lat="42.8650382" lon="12.9272652"><ele>466.0</ele><time>2026-04-05T14:16:35.423Z</time></trkpt><trkpt lat="42.8649671" lon="12.9274336"><ele>466.0</ele><time>2026-04-05T14:16:36.423Z</time></trkpt><trkpt lat="42.8648865" lon="12.9275951"><ele>466.0</ele><time>2026-04-05T14:16:37.424Z</time></trkpt><trkpt lat="42.8647993" lon="12.9277389"><ele>466.0</ele><time>2026-04-05T14:16:38.424Z</time></trkpt><trkpt lat="42.8647087" lon="12.9278504"><ele>463.20000000000005</ele><time>2026-04-05T14:16:39.424Z</time></trkpt><trkpt lat="42.8646206" lon="12.9279196"><ele>460.40000000000003</ele><time>2026-04-05T14:16:40.423Z</time></trkpt><trkpt lat="42.8645168" lon="12.9279443"><ele>457.6</ele><time>2026-04-05T14:16:41.424Z</time></trkpt><trkpt lat="42.8644142" lon="12.9279111"><ele>454.8</ele><time>2026-04-05T14:16:42.424Z</time></trkpt><trkpt lat="42.8643102" lon="12.9278586"><ele>452.0</ele><time>2026-04-05T14:16:43.424Z</time></trkpt><trkpt lat="42.8642063" lon="12.9277957"><ele>452.0</ele><time>2026-04-05T14:16:44.424Z</time></trkpt><trkpt lat="42.86409" lon="12.9277327"><ele>452.0</ele><time>2026-04-05T14:16:45.424Z</time></trkpt><trkpt lat="42.8639752" lon="12.9276713"><ele>452.0</ele><time>2026-04-05T14:16:46.424Z</time></trkpt><trkpt lat="42.8638432" lon="12.9275869"><ele>452.0</ele><time>2026-04-05T14:16:47.424Z</time></trkpt><trkpt lat="42.8637019" lon="12.9274974"><ele>456.75</ele><time>2026-04-05T14:16:48.424Z</time></trkpt><trkpt lat="42.8635628" lon="12.9274047"><ele>461.5</ele><time>2026-04-05T14:16:49.423Z</time></trkpt><trkpt lat="42.8634275" lon="12.9273272"><ele>466.25</ele><time>2026-04-05T14:16:50.424Z</time></trkpt><trkpt lat="42.863293" lon="12.9272755"><ele>471.0</ele><time>2026-04-05T14:16:51.424Z</time></trkpt><trkpt lat="42.8631571" lon="12.9272459"><ele>471.0</ele><time>2026-04-05T14:16:52.424Z</time></trkpt><trkpt lat="42.8630288" lon="12.9272472"><ele>471.0</ele><time>2026-04-05T14:16:53.423Z</time></trkpt><trkpt lat="42.8629593" lon="12.9273742"><ele>471.0</ele><time>2026-04-05T14:16:54.423Z</time></trkpt><trkpt lat="42.8628683" lon="12.9274832"><ele>471.0</ele><time>2026-04-05T14:16:55.424Z</time></trkpt><trkpt lat="42.8627863" lon="12.9276124"><ele>465.0</ele><time>2026-04-05T14:16:56.424Z</time></trkpt><trkpt lat="42.8626913" lon="12.9277117"><ele>459.0</ele><time>2026-04-05T14:16:57.424Z</time></trkpt><trkpt lat="42.8625946" lon="12.9277857"><ele>453.0</ele><time>2026-04-05T14:16:58.423Z</time></trkpt><trkpt lat="42.8625078" lon="12.9278052"><ele>447.0</ele><time>2026-04-05T14:16:59.424Z</time></trkpt><trkpt lat="42.862384" lon="12.9277276"><ele>446.0</ele><time>2026-04-05T14:17:00.424Z</time></trkpt><trkpt lat="42.8622549" lon="12.927673"><ele>445.0</ele><time>2026-04-05T14:17:01.424Z</time></trkpt><trkpt lat="42.8621128" lon="12.9276085"><ele>444.0</ele><time>2026-04-05T14:17:02.423Z</time></trkpt><trkpt lat="42.8619766" lon="12.9275238"><ele>443.0</ele><time>2026-04-05T14:17:03.424Z</time></trkpt><trkpt lat="42.8618459" lon="12.9274313"><ele>447.25</ele><time>2026-04-05T14:17:04.423Z</time></trkpt><trkpt lat="42.8617295" lon="12.9273297"><ele>451.5</ele><time>2026-04-05T14:17:05.424Z</time></trkpt><trkpt lat="42.8616143" lon="12.9272501"><ele>455.75</ele><time>2026-04-05T14:17:06.424Z</time></trkpt><trkpt lat="42.8615068" lon="12.9272008"><ele>460.0</ele><time>2026-04-05T14:17:07.424Z</time></trkpt><trkpt lat="42.8614001" lon="12.927216"><ele>460.0</ele><time>2026-04-05T14:17:08.424Z</time></trkpt><trkpt lat="42.8613042" lon="12.9272752"><ele>460.0</ele><time>2026-04-05T14:17:09.424Z</time></trkpt><trkpt lat="42.8612129" lon="12.9273764"><ele>460.0</ele><time>2026-04-05T14:17:10.424Z</time></trkpt><trkpt lat="42.8611299" lon="12.927485"><ele>460.0</ele><time>2026-04-05T14:17:11.423Z</time></trkpt><trkpt lat="42.8610393" lon="12.9275825"><ele>460.0</ele><time>2026-04-05T14:17:12.423Z</time></trkpt><trkpt lat="42.8609406" lon="12.9276495"><ele>460.0</ele><time>2026-04-05T14:17:13.423Z</time></trkpt><trkpt lat="42.8608374" lon="12.9276814"><ele>460.0</ele><time>2026-04-05T14:17:14.424Z</time></trkpt><trkpt lat="42.8607344" lon="12.9276818"><ele>460.0</ele><time>2026-04-05T14:17:15.423Z</time></trkpt><trkpt lat="42.8606339" lon="12.9276314"><ele>460.0</ele><time>2026-04-05T14:17:16.424Z</time></trkpt><trkpt lat="42.8605502" lon="12.9275346"><ele>460.0</ele><time>2026-04-05T14:17:17.423Z</time></trkpt><trkpt lat="42.8604805" lon="12.9273853"><ele>460.0</ele><time>2026-04-05T14:17:18.424Z</time></trkpt><trkpt lat="42.8604119" lon="12.9272372"><ele>460.0</ele><time>2026-04-05T14:17:19.424Z</time></trkpt><trkpt lat="42.8603294" lon="12.9270882"><ele>460.0</ele><time>2026-04-05T14:17:20.424Z</time></trkpt><trkpt lat="42.8602378" lon="12.92695"><ele>460.0</ele><time>2026-04-05T14:17:21.423Z</time></trkpt><trkpt lat="42.860144" lon="12.926823"><ele>460.0</ele><time>2026-04-05T14:17:22.423Z</time></trkpt><trkpt lat="42.8600456" lon="12.926731"><ele>460.0</ele><time>2026-04-05T14:17:23.423Z</time></trkpt><trkpt lat="42.8599393" lon="12.9266653"><ele>460.0</ele><time>2026-04-05T14:17:24.423Z</time></trkpt><trkpt lat="42.8598294" lon="12.9266421"><ele>461.5</ele><time>2026-04-05T14:17:25.423Z</time></trkpt><trkpt lat="42.859732" lon="12.9266388"><ele>463.0</ele><time>2026-04-05T14:17:26.424Z</time></trkpt><trkpt lat="42.8596157" lon="12.9267026"><ele>464.5</ele><time>2026-04-05T14:17:27.424Z</time></trkpt><trkpt lat="42.8594925" lon="12.9267923"><ele>466.0</ele><time>2026-04-05T14:17:28.423Z</time></trkpt><trkpt lat="42.8593742" lon="12.9269278"><ele>460.6666666666667</ele><time>2026-04-05T14:17:29.424Z</time></trkpt><trkpt lat="42.8592441" lon="12.9270758"><ele>455.33333333333337</ele><time>2026-04-05T14:17:30.424Z</time></trkpt><trkpt lat="42.8591172" lon="12.9272205"><ele>450.0</ele><time>2026-04-05T14:17:31.424Z</time></trkpt><trkpt lat="42.8589945" lon="12.9273696"><ele>450.0</ele><time>2026-04-05T14:17:32.424Z</time></trkpt><trkpt lat="42.8588787" lon="12.9275099"><ele>450.0</ele><time>2026-04-05T14:17:33.424Z</time></trkpt><trkpt lat="42.8587782" lon="12.9276369"><ele>450.0</ele><time>2026-04-05T14:17:34.424Z</time></trkpt><trkpt lat="42.8586968" lon="12.9277387"><ele>450.0</ele><time>2026-04-05T14:17:35.424Z</time></trkpt><trkpt lat="42.8586127" lon="12.9278197"><ele>450.4</ele><time>2026-04-05T14:17:36.424Z</time></trkpt><trkpt lat="42.8585366" lon="12.9278558"><ele>450.8</ele><time>2026-04-05T14:17:37.424Z</time></trkpt><trkpt lat="42.8584516" lon="12.9278445"><ele>451.20000000000005</ele><time>2026-04-05T14:17:38.424Z</time></trkpt><trkpt lat="42.8583641" lon="12.9277814"><ele>451.6</ele><time>2026-04-05T14:17:39.424Z</time></trkpt><trkpt lat="42.8582948" lon="12.9276615"><ele>452.0</ele><time>2026-04-05T14:17:40.424Z</time></trkpt><trkpt lat="42.8582234" lon="12.9275422"><ele>452.0</ele><time>2026-04-05T14:17:41.424Z</time></trkpt><trkpt lat="42.8581403" lon="12.9274547"><ele>452.0</ele><time>2026-04-05T14:17:42.424Z</time></trkpt><trkpt lat="42.8580342" lon="12.927396"><ele>452.0</ele><time>2026-04-05T14:17:43.423Z</time></trkpt><trkpt lat="42.8579082" lon="12.9273655"><ele>452.0</ele><time>2026-04-05T14:17:44.423Z</time></trkpt><trkpt lat="42.8577499" lon="12.927349"><ele>447.3333333333333</ele><time>2026-04-05T14:17:45.423Z</time></trkpt><trkpt lat="42.8575848" lon="12.9273275"><ele>442.66666666666663</ele><time>2026-04-05T14:17:46.423Z</time></trkpt><trkpt lat="42.857416" lon="12.9272982"><ele>438.0</ele><time>2026-04-05T14:17:47.424Z</time></trkpt><trkpt lat="42.8572404" lon="12.9272725"><ele>438.0</ele><time>2026-04-05T14:17:48.424Z</time></trkpt><trkpt lat="42.8570496" lon="12.9272475"><ele>438.0</ele><time>2026-04-05T14:17:49.424Z</time></trkpt><trkpt lat="42.8568595" lon="12.9272252"><ele>438.0</ele><time>2026-04-05T14:17:50.424Z</time></trkpt><trkpt lat="42.8566794" lon="12.9271974"><ele>436.0</ele><time>2026-04-05T14:17:51.424Z</time></trkpt><trkpt lat="42.856491" lon="12.9271761"><ele>434.0</ele><time>2026-04-05T14:17:52.424Z</time></trkpt><trkpt lat="42.8563071" lon="12.9271582"><ele>432.0</ele><time>2026-04-05T14:17:53.423Z</time></trkpt><trkpt lat="42.8561343" lon="12.9271381"><ele>432.0</ele><time>2026-04-05T14:17:54.423Z</time></trkpt><trkpt lat="42.8559684" lon="12.9271373"><ele>432.0</ele><time>2026-04-05T14:17:55.424Z</time></trkpt><trkpt lat="42.8558078" lon="12.9271661"><ele>432.0</ele><time>2026-04-05T14:17:56.424Z</time></trkpt><trkpt lat="42.8556583" lon="12.9272416"><ele>432.0</ele><time>2026-04-05T14:17:57.423Z</time></trkpt><trkpt lat="42.8555186" lon="12.9273478"><ele>432.0</ele><time>2026-04-05T14:17:58.424Z</time></trkpt><trkpt lat="42.8553879" lon="12.9274769"><ele>432.0</ele><time>2026-04-05T14:17:59.424Z</time></trkpt><trkpt lat="42.8552717" lon="12.9276165"><ele>430.0</ele><time>2026-04-05T14:18:00.424Z</time></trkpt><trkpt lat="42.8551701" lon="12.9277256"><ele>428.0</ele><time>2026-04-05T14:18:01.424Z</time></trkpt><trkpt lat="42.8550541" lon="12.9278247"><ele>426.0</ele><time>2026-04-05T14:18:02.424Z</time></trkpt><trkpt lat="42.8549293" lon="12.9278949"><ele>424.0</ele><time>2026-04-05T14:18:03.424Z</time></trkpt><trkpt lat="42.8547899" lon="12.9279087"><ele>423.6666666666667</ele><time>2026-04-05T14:18:04.424Z</time></trkpt><trkpt lat="42.854639" lon="12.927903"><ele>423.33333333333337</ele><time>2026-04-05T14:18:05.423Z</time></trkpt><trkpt lat="42.8544795" lon="12.9278747"><ele>423.0</ele><time>2026-04-05T14:18:06.424Z</time></trkpt><trkpt lat="42.8543059" lon="12.9278404"><ele>422.66666666666663</ele><time>2026-04-05T14:18:07.424Z</time></trkpt><trkpt lat="42.8541221" lon="12.9278051"><ele>422.3333333333333</ele><time>2026-04-05T14:18:08.424Z</time></trkpt><trkpt lat="42.8539379" lon="12.9277624"><ele>422.0</ele><time>2026-04-05T14:18:09.424Z</time></trkpt><trkpt lat="42.85375" lon="12.9277209"><ele>422.0</ele><time>2026-04-05T14:18:10.423Z</time></trkpt><trkpt lat="42.8535586" lon="12.9276786"><ele>422.0</ele><time>2026-04-05T14:18:11.423Z</time></trkpt><trkpt lat="42.8533598" lon="12.9276271"><ele>422.0</ele><time>2026-04-05T14:18:12.424Z</time></trkpt><trkpt lat="42.8531563" lon="12.9275817"><ele>424.3333333333333</ele><time>2026-04-05T14:18:13.424Z</time></trkpt><trkpt lat="42.8529514" lon="12.9275306"><ele>426.66666666666663</ele><time>2026-04-05T14:18:14.424Z</time></trkpt><trkpt lat="42.852751" lon="12.9274781"><ele>429.0</ele><time>2026-04-05T14:18:15.424Z</time></trkpt><trkpt lat="42.8525553" lon="12.9274391"><ele>429.0</ele><time>2026-04-05T14:18:16.424Z</time></trkpt><trkpt lat="42.8523732" lon="12.927398"><ele>429.0</ele><time>2026-04-05T14:18:17.423Z</time></trkpt><trkpt lat="42.8521947" lon="12.9273506"><ele>429.0</ele><time>2026-04-05T14:18:18.424Z</time></trkpt><trkpt lat="42.852026" lon="12.9272819"><ele>429.0</ele><time>2026-04-05T14:18:19.423Z</time></trkpt><trkpt lat="42.8518563" lon="12.9271809"><ele>429.0</ele><time>2026-04-05T14:18:20.424Z</time></trkpt><trkpt lat="42.8516885" lon="12.9270678"><ele>429.0</ele><time>2026-04-05T14:18:21.424Z</time></trkpt><trkpt lat="42.8515195" lon="12.9269418"><ele>426.66666666666663</ele><time>2026-04-05T14:18:22.424Z</time></trkpt><trkpt lat="42.8513556" lon="12.9268136"><ele>424.3333333333333</ele><time>2026-04-05T14:18:23.423Z</time></trkpt><trkpt lat="42.8511949" lon="12.9266858"><ele>422.0</ele><time>2026-04-05T14:18:24.424Z</time></trkpt><trkpt lat="42.8510354" lon="12.9265662"><ele>423.3333333333333</ele><time>2026-04-05T14:18:25.423Z</time></trkpt><trkpt lat="42.8508832" lon="12.9264574"><ele>424.66666666666663</ele><time>2026-04-05T14:18:26.424Z</time></trkpt><trkpt lat="42.850734" lon="12.9263608"><ele>426.0</ele><time>2026-04-05T14:18:27.423Z</time></trkpt><trkpt lat="42.8505858" lon="12.9262799"><ele>426.0</ele><time>2026-04-05T14:18:28.424Z</time></trkpt><trkpt lat="42.8504383" lon="12.9262019"><ele>426.0</ele><time>2026-04-05T14:18:29.424Z</time></trkpt><trkpt lat="42.850285" lon="12.9261405"><ele>426.0</ele><time>2026-04-05T14:18:30.424Z</time></trkpt><trkpt lat="42.8501215" lon="12.9260752"><ele>426.33333333333337</ele><time>2026-04-05T14:18:31.424Z</time></trkpt><trkpt lat="42.8499583" lon="12.9260121"><ele>426.6666666666667</ele><time>2026-04-05T14:18:32.424Z</time></trkpt><trkpt lat="42.8498" lon="12.9259503"><ele>427.0</ele><time>2026-04-05T14:18:33.424Z</time></trkpt><trkpt lat="42.8496296" lon="12.9258867"><ele>427.0</ele><time>2026-04-05T14:18:34.423Z</time></trkpt><trkpt lat="42.8494551" lon="12.9258253"><ele>427.0</ele><time>2026-04-05T14:18:35.424Z</time></trkpt><trkpt lat="42.8492906" lon="12.925749"><ele>427.0</ele><time>2026-04-05T14:18:36.424Z</time></trkpt><trkpt lat="42.8491145" lon="12.9256634"><ele>423.33333333333337</ele><time>2026-04-05T14:18:37.424Z</time></trkpt><trkpt lat="42.8489306" lon="12.925571"><ele>419.66666666666663</ele><time>2026-04-05T14:18:38.424Z</time></trkpt><trkpt lat="42.8487524" lon="12.9254769"><ele>416.0</ele><time>2026-04-05T14:18:39.423Z</time></trkpt><trkpt lat="42.8485772" lon="12.925376"><ele>414.0</ele><time>2026-04-05T14:18:40.423Z</time></trkpt><trkpt lat="42.8484006" lon="12.9252883"><ele>412.0</ele><time>2026-04-05T14:18:41.424Z</time></trkpt><trkpt lat="42.848219" lon="12.9252066"><ele>410.0</ele><time>2026-04-05T14:18:42.423Z</time></trkpt><trkpt lat="42.8480377" lon="12.9251181"><ele>411.0</ele><time>2026-04-05T14:18:43.423Z</time></trkpt><trkpt lat="42.8478534" lon="12.9250367"><ele>412.0</ele><time>2026-04-05T14:18:44.424Z</time></trkpt><trkpt lat="42.8476668" lon="12.9249646"><ele>413.0</ele><time>2026-04-05T14:18:45.423Z</time></trkpt><trkpt lat="42.847478" lon="12.9248889"><ele>413.66666666666663</ele><time>2026-04-05T14:18:46.424Z</time></trkpt><trkpt lat="42.8472891" lon="12.924815"><ele>414.33333333333337</ele><time>2026-04-05T14:18:47.424Z</time></trkpt><trkpt lat="42.8471021" lon="12.9247496"><ele>415.0</ele><time>2026-04-05T14:18:48.423Z</time></trkpt><trkpt lat="42.846914" lon="12.9246863"><ele>413.0</ele><time>2026-04-05T14:18:49.423Z</time></trkpt><trkpt lat="42.8467379" lon="12.9246148"><ele>411.0</ele><time>2026-04-05T14:18:50.424Z</time></trkpt><trkpt lat="42.8465575" lon="12.9245493"><ele>409.0</ele><time>2026-04-05T14:18:51.423Z</time></trkpt><trkpt lat="42.846382" lon="12.9244897"><ele>409.0</ele><time>2026-04-05T14:18:52.424Z</time></trkpt><trkpt lat="42.8462082" lon="12.9244344"><ele>409.0</ele><time>2026-04-05T14:18:53.423Z</time></trkpt><trkpt lat="42.846031" lon="12.9243772"><ele>409.0</ele><time>2026-04-05T14:18:54.423Z</time></trkpt><trkpt lat="42.845854" lon="12.9243095"><ele>409.33333333333337</ele><time>2026-04-05T14:18:55.424Z</time></trkpt><trkpt lat="42.8456742" lon="12.9242462"><ele>409.66666666666663</ele><time>2026-04-05T14:18:56.423Z</time></trkpt><trkpt lat="42.8455009" lon="12.9241794"><ele>410.0</ele><time>2026-04-05T14:18:57.424Z</time></trkpt><trkpt lat="42.8453239" lon="12.924124"><ele>410.0</ele><time>2026-04-05T14:18:58.424Z</time></trkpt><trkpt lat="42.8451478" lon="12.9240639"><ele>410.0</ele><time>2026-04-05T14:18:59.424Z</time></trkpt><trkpt lat="42.8449741" lon="12.9239939"><ele>410.0</ele><time>2026-04-05T14:19:00.423Z</time></trkpt><trkpt lat="42.8447975" lon="12.9239381"><ele>410.0</ele><time>2026-04-05T14:19:01.424Z</time></trkpt><trkpt lat="42.8446245" lon="12.923877"><ele>410.0</ele><time>2026-04-05T14:19:02.424Z</time></trkpt><trkpt lat="42.8444501" lon="12.9238151"><ele>410.0</ele><time>2026-04-05T14:19:03.424Z</time></trkpt><trkpt lat="42.844275" lon="12.9237555"><ele>408.0</ele><time>2026-04-05T14:19:04.424Z</time></trkpt><trkpt lat="42.8441006" lon="12.9236921"><ele>406.0</ele><time>2026-04-05T14:19:05.424Z</time></trkpt><trkpt lat="42.8439285" lon="12.9236264"><ele>404.0</ele><time>2026-04-05T14:19:06.424Z</time></trkpt><trkpt lat="42.8437565" lon="12.9235623"><ele>404.0</ele><time>2026-04-05T14:19:07.423Z</time></trkpt><trkpt lat="42.8435787" lon="12.9234992"><ele>404.0</ele><time>2026-04-05T14:19:08.423Z</time></trkpt><trkpt lat="42.8434042" lon="12.923431"><ele>404.0</ele><time>2026-04-05T14:19:09.424Z</time></trkpt><trkpt lat="42.8432261" lon="12.9233674"><ele>407.0</ele><time>2026-04-05T14:19:10.423Z</time></trkpt><trkpt lat="42.8430558" lon="12.9233025"><ele>410.0</ele><time>2026-04-05T14:19:11.424Z</time></trkpt><trkpt lat="42.8428782" lon="12.9232563"><ele>413.0</ele><time>2026-04-05T14:19:12.424Z</time></trkpt><trkpt lat="42.8426992" lon="12.9232197"><ele>412.3333333333333</ele><time>2026-04-05T14:19:13.423Z</time></trkpt><trkpt lat="42.8425272" lon="12.9231785"><ele>411.66666666666663</ele><time>2026-04-05T14:19:14.424Z</time></trkpt><trkpt lat="42.8423601" lon="12.9231396"><ele>411.0</ele><time>2026-04-05T14:19:15.424Z</time></trkpt><trkpt lat="42.8421877" lon="12.9230986"><ele>411.0</ele><time>2026-04-05T14:19:16.423Z</time></trkpt><trkpt lat="42.8420072" lon="12.9230642"><ele>411.0</ele><time>2026-04-05T14:19:17.424Z</time></trkpt><trkpt lat="42.8418318" lon="12.923034"><ele>411.0</ele><time>2026-04-05T14:19:18.424Z</time></trkpt><trkpt lat="42.8416528" lon="12.9230102"><ele>408.0</ele><time>2026-04-05T14:19:19.423Z</time></trkpt><trkpt lat="42.8414885" lon="12.9229728"><ele>405.0</ele><time>2026-04-05T14:19:20.424Z</time></trkpt><trkpt lat="42.8413254" lon="12.9229314"><ele>402.0</ele><time>2026-04-05T14:19:21.424Z</time></trkpt><trkpt lat="42.8411544" lon="12.9229049"><ele>402.0</ele><time>2026-04-05T14:19:22.424Z</time></trkpt><trkpt lat="42.8409838" lon="12.9228762"><ele>402.0</ele><time>2026-04-05T14:19:23.424Z</time></trkpt><trkpt lat="42.8408157" lon="12.9228402"><ele>402.0</ele><time>2026-04-05T14:19:24.424Z</time></trkpt><trkpt lat="42.8406446" lon="12.9228023"><ele>402.33333333333337</ele><time>2026-04-05T14:19:25.423Z</time></trkpt><trkpt lat="42.8404792" lon="12.922746"><ele>402.6666666666667</ele><time>2026-04-05T14:19:26.424Z</time></trkpt><trkpt lat="42.8403043" lon="12.9226865"><ele>403.0</ele><time>2026-04-05T14:19:27.424Z</time></trkpt><trkpt lat="42.840124" lon="12.9226281"><ele>403.6666666666667</ele><time>2026-04-05T14:19:28.424Z</time></trkpt><trkpt lat="42.8399516" lon="12.9225464"><ele>404.33333333333337</ele><time>2026-04-05T14:19:29.423Z</time></trkpt><trkpt lat="42.8397817" lon="12.9224527"><ele>405.0</ele><time>2026-04-05T14:19:30.424Z</time></trkpt><trkpt lat="42.8396072" lon="12.9223562"><ele>405.0</ele><time>2026-04-05T14:19:31.424Z</time></trkpt><trkpt lat="42.8394392" lon="12.9222518"><ele>405.0</ele><time>2026-04-05T14:19:32.424Z</time></trkpt><trkpt lat="42.839277" lon="12.9221467"><ele>405.0</ele><time>2026-04-05T14:19:33.424Z</time></trkpt><trkpt lat="42.8391053" lon="12.92205"><ele>403.0</ele><time>2026-04-05T14:19:34.424Z</time></trkpt><trkpt lat="42.8389461" lon="12.9219495"><ele>401.0</ele><time>2026-04-05T14:19:35.424Z</time></trkpt><trkpt lat="42.8387883" lon="12.9218465"><ele>399.0</ele><time>2026-04-05T14:19:36.424Z</time></trkpt><trkpt lat="42.8386371" lon="12.9217488"><ele>400.0</ele><time>2026-04-05T14:19:37.424Z</time></trkpt><trkpt lat="42.8384824" lon="12.9216454"><ele>401.0</ele><time>2026-04-05T14:19:38.424Z</time></trkpt><trkpt lat="42.8383268" lon="12.9215433"><ele>402.0</ele><time>2026-04-05T14:19:39.424Z</time></trkpt><trkpt lat="42.8381697" lon="12.9214443"><ele>402.0</ele><time>2026-04-05T14:19:40.424Z</time></trkpt><trkpt lat="42.8380132" lon="12.9213407"><ele>402.0</ele><time>2026-04-05T14:19:41.423Z</time></trkpt><trkpt lat="42.8378521" lon="12.9212381"><ele>402.0</ele><time>2026-04-05T14:19:42.424Z</time></trkpt><trkpt lat="42.8376915" lon="12.9211403"><ele>402.66666666666663</ele><time>2026-04-05T14:19:43.424Z</time></trkpt><trkpt lat="42.8375302" lon="12.9210437"><ele>403.3333333333333</ele><time>2026-04-05T14:19:44.424Z</time></trkpt><trkpt lat="42.8373699" lon="12.9209326"><ele>404.0</ele><time>2026-04-05T14:19:45.423Z</time></trkpt><trkpt lat="42.8372167" lon="12.9208302"><ele>404.0</ele><time>2026-04-05T14:19:46.424Z</time></trkpt><trkpt lat="42.8370721" lon="12.9207304"><ele>404.0</ele><time>2026-04-05T14:19:47.424Z</time></trkpt><trkpt lat="42.8369181" lon="12.9206212"><ele>404.0</ele><time>2026-04-05T14:19:48.424Z</time></trkpt><trkpt lat="42.8367688" lon="12.9205306"><ele>400.3333333333333</ele><time>2026-04-05T14:19:49.424Z</time></trkpt><trkpt lat="42.836623" lon="12.9204331"><ele>396.66666666666663</ele><time>2026-04-05T14:19:50.423Z</time></trkpt><trkpt lat="42.8364799" lon="12.9203412"><ele>393.0</ele><time>2026-04-05T14:19:51.423Z</time></trkpt><trkpt lat="42.8363264" lon="12.9202689"><ele>393.0</ele><time>2026-04-05T14:19:52.424Z</time></trkpt><trkpt lat="42.8361652" lon="12.9202185"><ele>393.0</ele><time>2026-04-05T14:19:53.424Z</time></trkpt><trkpt lat="42.8360073" lon="12.9201804"><ele>393.0</ele><time>2026-04-05T14:19:54.424Z</time></trkpt><trkpt lat="42.8358516" lon="12.9201706"><ele>392.5</ele><time>2026-04-05T14:19:55.424Z</time></trkpt><trkpt lat="42.8357039" lon="12.9201629"><ele>392.0</ele><time>2026-04-05T14:19:56.423Z</time></trkpt><trkpt lat="42.835569" lon="12.9201379"><ele>391.5</ele><time>2026-04-05T14:19:57.424Z</time></trkpt><trkpt lat="42.8354314" lon="12.9201048"><ele>391.0</ele><time>2026-04-05T14:19:58.424Z</time></trkpt><trkpt lat="42.8352925" lon="12.9200417"><ele>392.33333333333337</ele><time>2026-04-05T14:19:59.423Z</time></trkpt><trkpt lat="42.8351478" lon="12.9199829"><ele>393.66666666666663</ele><time>2026-04-05T14:20:00.424Z</time></trkpt><trkpt lat="42.8349967" lon="12.9199125"><ele>395.0</ele><time>2026-04-05T14:20:01.423Z</time></trkpt><trkpt lat="42.8348452" lon="12.9198356"><ele>395.0</ele><time>2026-04-05T14:20:02.424Z</time></trkpt><trkpt lat="42.8346769" lon="12.9197679"><ele>395.0</ele><time>2026-04-05T14:20:03.423Z</time></trkpt><trkpt lat="42.8345106" lon="12.9196976"><ele>395.0</ele><time>2026-04-05T14:20:04.423Z</time></trkpt><trkpt lat="42.8343492" lon="12.9196393"><ele>392.3333333333333</ele><time>2026-04-05T14:20:05.424Z</time></trkpt><trkpt lat="42.8341785" lon="12.9195663"><ele>389.66666666666663</ele><time>2026-04-05T14:20:06.423Z</time></trkpt><trkpt lat="42.8340155" lon="12.919519"><ele>387.0</ele><time>2026-04-05T14:20:07.424Z</time></trkpt><trkpt lat="42.833862" lon="12.9194858"><ele>387.0</ele><time>2026-04-05T14:20:08.424Z</time></trkpt><trkpt lat="42.8337161" lon="12.9194634"><ele>387.0</ele><time>2026-04-05T14:20:09.423Z</time></trkpt><trkpt lat="42.8335574" lon="12.9194339"><ele>387.0</ele><time>2026-04-05T14:20:10.424Z</time></trkpt><trkpt lat="42.8334042" lon="12.9193823"><ele>386.0</ele><time>2026-04-05T14:20:11.423Z</time></trkpt><trkpt lat="42.8332594" lon="12.9193124"><ele>385.0</ele><time>2026-04-05T14:20:12.423Z</time></trkpt><trkpt lat="42.833114" lon="12.9192351"><ele>384.0</ele><time>2026-04-05T14:20:13.424Z</time></trkpt><trkpt lat="42.8329623" lon="12.9191581"><ele>384.0</ele><time>2026-04-05T14:20:14.423Z</time></trkpt><trkpt lat="42.8328104" lon="12.919085"><ele>384.0</ele><time>2026-04-05T14:20:15.423Z</time></trkpt><trkpt lat="42.832658" lon="12.9190068"><ele>384.0</ele><time>2026-04-05T14:20:16.424Z</time></trkpt><trkpt lat="42.8324936" lon="12.9189519"><ele>384.0</ele><time>2026-04-05T14:20:17.424Z</time></trkpt><trkpt lat="42.8323265" lon="12.9189028"><ele>384.0</ele><time>2026-04-05T14:20:18.423Z</time></trkpt><trkpt lat="42.8321582" lon="12.9188666"><ele>384.0</ele><time>2026-04-05T14:20:19.424Z</time></trkpt><trkpt lat="42.8319928" lon="12.9188361"><ele>384.0</ele><time>2026-04-05T14:20:20.424Z</time></trkpt><trkpt lat="42.8318314" lon="12.9188006"><ele>384.0</ele><time>2026-04-05T14:20:21.424Z</time></trkpt><trkpt lat="42.8316684" lon="12.9187683"><ele>384.0</ele><time>2026-04-05T14:20:22.424Z</time></trkpt><trkpt lat="42.8314997" lon="12.9187343"><ele>384.0</ele><time>2026-04-05T14:20:23.424Z</time></trkpt><trkpt lat="42.8313242" lon="12.9187152"><ele>384.0</ele><time>2026-04-05T14:20:24.424Z</time></trkpt><trkpt lat="42.8311539" lon="12.9186891"><ele>384.0</ele><time>2026-04-05T14:20:25.424Z</time></trkpt><trkpt lat="42.8309821" lon="12.9186671"><ele>382.6666666666667</ele><time>2026-04-05T14:20:26.423Z</time></trkpt><trkpt lat="42.8308138" lon="12.9186396"><ele>381.33333333333337</ele><time>2026-04-05T14:20:27.424Z</time></trkpt><trkpt lat="42.8306492" lon="12.9186104"><ele>380.0</ele><time>2026-04-05T14:20:28.423Z</time></trkpt><trkpt lat="42.8304857" lon="12.9185842"><ele>380.0</ele><time>2026-04-05T14:20:29.424Z</time></trkpt><trkpt lat="42.8303234" lon="12.9185601"><ele>380.0</ele><time>2026-04-05T14:20:30.424Z</time></trkpt><trkpt lat="42.8301628" lon="12.9185368"><ele>380.0</ele><time>2026-04-05T14:20:31.424Z</time></trkpt><trkpt lat="42.8299981" lon="12.9185108"><ele>380.0</ele><time>2026-04-05T14:20:32.424Z</time></trkpt><trkpt lat="42.8298402" lon="12.9184817"><ele>380.0</ele><time>2026-04-05T14:20:33.423Z</time></trkpt><trkpt lat="42.829684" lon="12.9184559"><ele>380.0</ele><time>2026-04-05T14:20:34.424Z</time></trkpt><trkpt lat="42.8295382" lon="12.9184199"><ele>383.25</ele><time>2026-04-05T14:20:35.424Z</time></trkpt><trkpt lat="42.8293907" lon="12.918397"><ele>386.5</ele><time>2026-04-05T14:20:36.424Z</time></trkpt><trkpt lat="42.8292482" lon="12.9183718"><ele>389.75</ele><time>2026-04-05T14:20:37.424Z</time></trkpt><trkpt lat="42.8291151" lon="12.9183489"><ele>393.0</ele><time>2026-04-05T14:20:38.424Z</time></trkpt><trkpt lat="42.828989" lon="12.9183256"><ele>393.0</ele><time>2026-04-05T14:20:39.424Z</time></trkpt><trkpt lat="42.8288723" lon="12.9182919"><ele>393.0</ele><time>2026-04-05T14:20:40.424Z</time></trkpt><trkpt lat="42.8287638" lon="12.9182286"><ele>393.0</ele><time>2026-04-05T14:20:41.424Z</time></trkpt><trkpt lat="42.8286497" lon="12.9181582"><ele>393.0</ele><time>2026-04-05T14:20:42.423Z</time></trkpt><trkpt lat="42.8285375" lon="12.918067"><ele>390.75</ele><time>2026-04-05T14:20:43.423Z</time></trkpt><trkpt lat="42.8284262" lon="12.9179652"><ele>388.5</ele><time>2026-04-05T14:20:44.423Z</time></trkpt><trkpt lat="42.8283095" lon="12.917876"><ele>386.25</ele><time>2026-04-05T14:20:45.424Z</time></trkpt><trkpt lat="42.8281877" lon="12.9177905"><ele>384.0</ele><time>2026-04-05T14:20:46.424Z</time></trkpt><trkpt lat="42.8280503" lon="12.917719"><ele>384.0</ele><time>2026-04-05T14:20:47.424Z</time></trkpt><trkpt lat="42.8279108" lon="12.9176381"><ele>384.0</ele><time>2026-04-05T14:20:48.424Z</time></trkpt><trkpt lat="42.8277658" lon="12.9175539"><ele>384.0</ele><time>2026-04-05T14:20:49.424Z</time></trkpt><trkpt lat="42.8276117" lon="12.9174708"><ele>386.0</ele><time>2026-04-05T14:20:50.424Z</time></trkpt><trkpt lat="42.8274595" lon="12.9173729"><ele>388.0</ele><time>2026-04-05T14:20:51.424Z</time></trkpt><trkpt lat="42.8272978" lon="12.9172807"><ele>390.0</ele><time>2026-04-05T14:20:52.423Z</time></trkpt><trkpt lat="42.8271278" lon="12.9171905"><ele>390.0</ele><time>2026-04-05T14:20:53.423Z</time></trkpt><trkpt lat="42.8269615" lon="12.9171051"><ele>390.0</ele><time>2026-04-05T14:20:54.424Z</time></trkpt><trkpt lat="42.8267923" lon="12.917018"><ele>390.0</ele><time>2026-04-05T14:20:55.423Z</time></trkpt><trkpt lat="42.8266239" lon="12.9169462"><ele>391.33333333333337</ele><time>2026-04-05T14:20:56.424Z</time></trkpt><trkpt lat="42.8264716" lon="12.9168719"><ele>392.6666666666667</ele><time>2026-04-05T14:20:57.423Z</time></trkpt><trkpt lat="42.826316" lon="12.9167993"><ele>394.0</ele><time>2026-04-05T14:20:58.424Z</time></trkpt><trkpt lat="42.826184" lon="12.9167141"><ele>394.0</ele><time>2026-04-05T14:20:59.424Z</time></trkpt><trkpt lat="42.826057" lon="12.9166161"><ele>394.0</ele><time>2026-04-05T14:21:00.424Z</time></trkpt><trkpt lat="42.8259395" lon="12.9165029"><ele>394.0</ele><time>2026-04-05T14:21:01.424Z</time></trkpt><trkpt lat="42.8258164" lon="12.9163663"><ele>394.0</ele><time>2026-04-05T14:21:02.424Z</time></trkpt><trkpt lat="42.8257038" lon="12.9162364"><ele>390.33333333333337</ele><time>2026-04-05T14:21:03.424Z</time></trkpt><trkpt lat="42.8255837" lon="12.9160978"><ele>386.6666666666667</ele><time>2026-04-05T14:21:04.424Z</time></trkpt><trkpt lat="42.8254673" lon="12.9159653"><ele>383.0</ele><time>2026-04-05T14:21:05.424Z</time></trkpt><trkpt lat="42.8253433" lon="12.9158385"><ele>383.0</ele><time>2026-04-05T14:21:06.424Z</time></trkpt><trkpt lat="42.8252191" lon="12.9157123"><ele>383.0</ele><time>2026-04-05T14:21:07.424Z</time></trkpt><trkpt lat="42.8250871" lon="12.9155841"><ele>383.0</ele><time>2026-04-05T14:21:08.424Z</time></trkpt><trkpt lat="42.824956" lon="12.9154561"><ele>382.33333333333337</ele><time>2026-04-05T14:21:09.424Z</time></trkpt><trkpt lat="42.8248265" lon="12.9153324"><ele>381.6666666666667</ele><time>2026-04-05T14:21:10.424Z</time></trkpt><trkpt lat="42.8246941" lon="12.9152018"><ele>381.0</ele><time>2026-04-05T14:21:11.424Z</time></trkpt><trkpt lat="42.8245607" lon="12.9150684"><ele>379.6666666666667</ele><time>2026-04-05T14:21:12.424Z</time></trkpt><trkpt lat="42.8244338" lon="12.9149268"><ele>378.33333333333337</ele><time>2026-04-05T14:21:13.424Z</time></trkpt><trkpt lat="42.8243119" lon="12.9147679"><ele>377.0</ele><time>2026-04-05T14:21:14.424Z</time></trkpt><trkpt lat="42.8241868" lon="12.9146033"><ele>377.0</ele><time>2026-04-05T14:21:15.424Z</time></trkpt><trkpt lat="42.8240701" lon="12.9144319"><ele>377.0</ele><time>2026-04-05T14:21:16.424Z</time></trkpt><trkpt lat="42.8239469" lon="12.9142534"><ele>377.0</ele><time>2026-04-05T14:21:17.424Z</time></trkpt><trkpt lat="42.8238267" lon="12.9140803"><ele>377.6666666666667</ele><time>2026-04-05T14:21:18.424Z</time></trkpt><trkpt lat="42.8237092" lon="12.9138983"><ele>378.3333333333333</ele><time>2026-04-05T14:21:19.424Z</time></trkpt><trkpt lat="42.8235942" lon="12.9137145"><ele>379.0</ele><time>2026-04-05T14:21:20.424Z</time></trkpt><trkpt lat="42.8234683" lon="12.9135427"><ele>379.0</ele><time>2026-04-05T14:21:21.424Z</time></trkpt><trkpt lat="42.8233488" lon="12.9133656"><ele>379.0</ele><time>2026-04-05T14:21:22.424Z</time></trkpt><trkpt lat="42.8232294" lon="12.913194"><ele>379.0</ele><time>2026-04-05T14:21:23.424Z</time></trkpt><trkpt lat="42.8231088" lon="12.9130253"><ele>379.0</ele><time>2026-04-05T14:21:24.424Z</time></trkpt><trkpt lat="42.8229943" lon="12.9128556"><ele>379.0</ele><time>2026-04-05T14:21:25.423Z</time></trkpt><trkpt lat="42.8228848" lon="12.9126975"><ele>379.0</ele><time>2026-04-05T14:21:26.423Z</time></trkpt><trkpt lat="42.8227767" lon="12.9125454"><ele>379.25</ele><time>2026-04-05T14:21:27.424Z</time></trkpt><trkpt lat="42.822673" lon="12.912394"><ele>379.5</ele><time>2026-04-05T14:21:28.423Z</time></trkpt><trkpt lat="42.8225732" lon="12.9122603"><ele>379.75</ele><time>2026-04-05T14:21:29.424Z</time></trkpt><trkpt lat="42.822464" lon="12.91214"><ele>380.0</ele><time>2026-04-05T14:21:30.424Z</time></trkpt><trkpt lat="42.8223462" lon="12.9120481"><ele>380.0</ele><time>2026-04-05T14:21:31.424Z</time></trkpt><trkpt lat="42.8222157" lon="12.9119937"><ele>380.0</ele><time>2026-04-05T14:21:32.424Z</time></trkpt><trkpt lat="42.822071" lon="12.9119684"><ele>380.0</ele><time>2026-04-05T14:21:33.424Z</time></trkpt><trkpt lat="42.8219161" lon="12.9119703"><ele>380.0</ele><time>2026-04-05T14:21:34.424Z</time></trkpt><trkpt lat="42.8217567" lon="12.911983"><ele>376.6666666666667</ele><time>2026-04-05T14:21:35.423Z</time></trkpt><trkpt lat="42.8215887" lon="12.9120083"><ele>373.3333333333333</ele><time>2026-04-05T14:21:36.424Z</time></trkpt><trkpt lat="42.8214219" lon="12.9120409"><ele>370.0</ele><time>2026-04-05T14:21:37.423Z</time></trkpt><trkpt lat="42.821257" lon="12.9120785"><ele>370.0</ele><time>2026-04-05T14:21:38.424Z</time></trkpt><trkpt lat="42.821105" lon="12.9121104"><ele>370.0</ele><time>2026-04-05T14:21:39.423Z</time></trkpt><trkpt lat="42.820939" lon="12.9121427"><ele>370.0</ele><time>2026-04-05T14:21:40.423Z</time></trkpt><trkpt lat="42.8207699" lon="12.9121563"><ele>369.0</ele><time>2026-04-05T14:21:41.424Z</time></trkpt><trkpt lat="42.8206025" lon="12.9121492"><ele>368.0</ele><time>2026-04-05T14:21:42.424Z</time></trkpt><trkpt lat="42.8204344" lon="12.9121267"><ele>367.0</ele><time>2026-04-05T14:21:43.424Z</time></trkpt><trkpt lat="42.8202663" lon="12.9120802"><ele>367.0</ele><time>2026-04-05T14:21:44.424Z</time></trkpt><trkpt lat="42.8200884" lon="12.9120382"><ele>367.0</ele><time>2026-04-05T14:21:45.424Z</time></trkpt><trkpt lat="42.8199075" lon="12.9119988"><ele>367.0</ele><time>2026-04-05T14:21:46.424Z</time></trkpt><trkpt lat="42.8197252" lon="12.9119519"><ele>367.0</ele><time>2026-04-05T14:21:47.424Z</time></trkpt><trkpt lat="42.8195464" lon="12.9118976"><ele>367.0</ele><time>2026-04-05T14:21:48.423Z</time></trkpt><trkpt lat="42.8193682" lon="12.9118565"><ele>367.0</ele><time>2026-04-05T14:21:49.424Z</time></trkpt><trkpt lat="42.8191882" lon="12.9118178"><ele>367.0</ele><time>2026-04-05T14:21:50.424Z</time></trkpt><trkpt lat="42.8190247" lon="12.911778"><ele>367.0</ele><time>2026-04-05T14:21:51.424Z</time></trkpt><trkpt lat="42.8188539" lon="12.9117352"><ele>367.0</ele><time>2026-04-05T14:21:52.424Z</time></trkpt><trkpt lat="42.8186879" lon="12.9116994"><ele>366.3333333333333</ele><time>2026-04-05T14:21:53.424Z</time></trkpt><trkpt lat="42.8185185" lon="12.9116579"><ele>365.6666666666667</ele><time>2026-04-05T14:21:54.423Z</time></trkpt><trkpt lat="42.8183523" lon="12.9116159"><ele>365.0</ele><time>2026-04-05T14:21:55.423Z</time></trkpt><trkpt lat="42.8181906" lon="12.9115784"><ele>365.0</ele><time>2026-04-05T14:21:56.424Z</time></trkpt><trkpt lat="42.8180251" lon="12.9115457"><ele>365.0</ele><time>2026-04-05T14:21:57.424Z</time></trkpt><trkpt lat="42.8178578" lon="12.911521"><ele>365.0</ele><time>2026-04-05T14:21:58.424Z</time></trkpt><trkpt lat="42.8176819" lon="12.9115219"><ele>365.33333333333337</ele><time>2026-04-05T14:21:59.424Z</time></trkpt><trkpt lat="42.8175064" lon="12.9115311"><ele>365.6666666666667</ele><time>2026-04-05T14:22:00.424Z</time></trkpt><trkpt lat="42.8173364" lon="12.9115568"><ele>366.0</ele><time>2026-04-05T14:22:01.424Z</time></trkpt><trkpt lat="42.8171731" lon="12.9116042"><ele>366.0</ele><time>2026-04-05T14:22:02.424Z</time></trkpt><trkpt lat="42.8170177" lon="12.9116758"><ele>366.0</ele><time>2026-04-05T14:22:03.424Z</time></trkpt><trkpt lat="42.8168793" lon="12.911763"><ele>366.0</ele><time>2026-04-05T14:22:04.424Z</time></trkpt><trkpt lat="42.8167415" lon="12.9118459"><ele>363.75</ele><time>2026-04-05T14:22:05.424Z</time></trkpt><trkpt lat="42.8166187" lon="12.9119124"><ele>361.5</ele><time>2026-04-05T14:22:06.423Z</time></trkpt><trkpt lat="42.816477" lon="12.9119848"><ele>359.25</ele><time>2026-04-05T14:22:07.424Z</time></trkpt><trkpt lat="42.8163371" lon="12.9120226"><ele>357.0</ele><time>2026-04-05T14:22:08.424Z</time></trkpt><trkpt lat="42.8161911" lon="12.9120379"><ele>357.0</ele><time>2026-04-05T14:22:09.423Z</time></trkpt><trkpt lat="42.8160374" lon="12.912054"><ele>357.0</ele><time>2026-04-05T14:22:10.424Z</time></trkpt><trkpt lat="42.8158869" lon="12.9120908"><ele>357.0</ele><time>2026-04-05T14:22:11.424Z</time></trkpt><trkpt lat="42.8157434" lon="12.9121599"><ele>358.0</ele><time>2026-04-05T14:22:12.424Z</time></trkpt><trkpt lat="42.8156062" lon="12.9122534"><ele>359.0</ele><time>2026-04-05T14:22:13.423Z</time></trkpt><trkpt lat="42.8154708" lon="12.9123552"><ele>360.0</ele><time>2026-04-05T14:22:14.424Z</time></trkpt><trkpt lat="42.8153513" lon="12.9125059"><ele>359.75</ele><time>2026-04-05T14:22:15.424Z</time></trkpt><trkpt lat="42.8152465" lon="12.9126414"><ele>359.5</ele><time>2026-04-05T14:22:16.424Z</time></trkpt><trkpt lat="42.8151636" lon="12.9127872"><ele>359.25</ele><time>2026-04-05T14:22:17.424Z</time></trkpt><trkpt lat="42.8151016" lon="12.912942"><ele>359.0</ele><time>2026-04-05T14:22:18.424Z</time></trkpt><trkpt lat="42.8150573" lon="12.9131108"><ele>359.4</ele><time>2026-04-05T14:22:19.424Z</time></trkpt><trkpt lat="42.8150314" lon="12.9132796"><ele>359.79999999999995</ele><time>2026-04-05T14:22:20.424Z</time></trkpt><trkpt lat="42.8150125" lon="12.9134383"><ele>360.20000000000005</ele><time>2026-04-05T14:22:21.424Z</time></trkpt><trkpt lat="42.8150029" lon="12.9135812"><ele>360.6</ele><time>2026-04-05T14:22:22.424Z</time></trkpt><trkpt lat="42.814984" lon="12.9137144"><ele>361.0</ele><time>2026-04-05T14:22:23.424Z</time></trkpt><trkpt lat="42.8149498" lon="12.9138301"><ele>361.0</ele><time>2026-04-05T14:22:24.424Z</time></trkpt><trkpt lat="42.8149037" lon="12.9139317"><ele>361.0</ele><time>2026-04-05T14:22:25.424Z</time></trkpt><trkpt lat="42.814856" lon="12.9140257"><ele>361.0</ele><time>2026-04-05T14:22:26.424Z</time></trkpt><trkpt lat="42.8148008" lon="12.9141189"><ele>361.0</ele><time>2026-04-05T14:22:27.424Z</time></trkpt><trkpt lat="42.8147511" lon="12.9142207"><ele>361.0</ele><time>2026-04-05T14:22:28.424Z</time></trkpt><trkpt lat="42.8146933" lon="12.9143158"><ele>361.0</ele><time>2026-04-05T14:22:29.424Z</time></trkpt><trkpt lat="42.8146397" lon="12.9144078"><ele>360.8333333333333</ele><time>2026-04-05T14:22:30.423Z</time></trkpt><trkpt lat="42.8145857" lon="12.9144924"><ele>360.66666666666663</ele><time>2026-04-05T14:22:31.424Z</time></trkpt><trkpt lat="42.8145437" lon="12.9145671"><ele>360.5</ele><time>2026-04-05T14:22:32.424Z</time></trkpt><trkpt lat="42.8144976" lon="12.914647"><ele>360.3333333333333</ele><time>2026-04-05T14:22:34.424Z</time></trkpt><trkpt lat="42.8144817" lon="12.9147414"><ele>360.1666666666667</ele><time>2026-04-05T14:22:37.424Z</time></trkpt><trkpt lat="42.8145496" lon="12.9148768"><ele>360.0</ele><time>2026-04-05T14:22:40.424Z</time></trkpt><trkpt lat="42.8145987" lon="12.9149398"><ele>360.0</ele><time>2026-04-05T14:22:41.424Z</time></trkpt><trkpt lat="42.8146546" lon="12.9149959"><ele>360.0</ele><time>2026-04-05T14:22:42.424Z</time></trkpt><trkpt lat="42.8147064" lon="12.9150576"><ele>360.0</ele><time>2026-04-05T14:22:43.424Z</time></trkpt><trkpt lat="42.8147625" lon="12.9151294"><ele>360.0</ele><time>2026-04-05T14:22:44.424Z</time></trkpt><trkpt lat="42.8148283" lon="12.9152053"><ele>360.0</ele><time>2026-04-05T14:22:45.424Z</time></trkpt><trkpt lat="42.8149049" lon="12.915287"><ele>360.0</ele><time>2026-04-05T14:22:46.423Z</time></trkpt><trkpt lat="42.8149864" lon="12.9153804"><ele>360.0</ele><time>2026-04-05T14:22:47.424Z</time></trkpt><trkpt lat="42.8150727" lon="12.9154686"><ele>360.0</ele><time>2026-04-05T14:22:48.424Z</time></trkpt><trkpt lat="42.8151561" lon="12.9155481"><ele>360.0</ele><time>2026-04-05T14:22:49.424Z</time></trkpt><trkpt lat="42.8152357" lon="12.9156125"><ele>360.0</ele><time>2026-04-05T14:22:50.424Z</time></trkpt><trkpt lat="42.8153252" lon="12.9156635"><ele>360.0</ele><time>2026-04-05T14:22:51.424Z</time></trkpt><trkpt lat="42.8154158" lon="12.9157135"><ele>360.2</ele><time>2026-04-05T14:22:52.424Z</time></trkpt><trkpt lat="42.8155117" lon="12.9157564"><ele>360.4</ele><time>2026-04-05T14:22:53.424Z</time></trkpt><trkpt lat="42.8156109" lon="12.9157989"><ele>360.6</ele><time>2026-04-05T14:22:54.424Z</time></trkpt><trkpt lat="42.8157062" lon="12.9158362"><ele>360.8</ele><time>2026-04-05T14:22:55.424Z</time></trkpt><trkpt lat="42.8158037" lon="12.9158742"><ele>361.0</ele><time>2026-04-05T14:22:56.424Z</time></trkpt><trkpt lat="42.8159084" lon="12.9159185"><ele>362.0</ele><time>2026-04-05T14:22:57.424Z</time></trkpt><trkpt lat="42.8160152" lon="12.9159693"><ele>363.0</ele><time>2026-04-05T14:22:58.423Z</time></trkpt><trkpt lat="42.8161215" lon="12.9160381"><ele>364.0</ele><time>2026-04-05T14:22:59.424Z</time></trkpt><trkpt lat="42.816222" lon="12.9161122"><ele>365.0</ele><time>2026-04-05T14:23:00.424Z</time></trkpt><trkpt lat="42.8163223" lon="12.9161969"><ele>365.0</ele><time>2026-04-05T14:23:01.424Z</time></trkpt><trkpt lat="42.8164065" lon="12.9162792"><ele>365.0</ele><time>2026-04-05T14:23:02.424Z</time></trkpt><trkpt lat="42.8164908" lon="12.9163777"><ele>365.0</ele><time>2026-04-05T14:23:03.424Z</time></trkpt><trkpt lat="42.8165581" lon="12.9164888"><ele>365.0</ele><time>2026-04-05T14:23:04.423Z</time></trkpt><trkpt lat="42.8166308" lon="12.9166021"><ele>365.0</ele><time>2026-04-05T14:23:05.424Z</time></trkpt><trkpt lat="42.8166807" lon="12.9167287"><ele>364.2</ele><time>2026-04-05T14:23:06.424Z</time></trkpt><trkpt lat="42.8167252" lon="12.9168516"><ele>363.4</ele><time>2026-04-05T14:23:07.424Z</time></trkpt><trkpt lat="42.816764" lon="12.9169713"><ele>362.6</ele><time>2026-04-05T14:23:08.424Z</time></trkpt><trkpt lat="42.8167978" lon="12.9170881"><ele>361.8</ele><time>2026-04-05T14:23:09.424Z</time></trkpt><trkpt lat="42.8168326" lon="12.9172162"><ele>361.0</ele><time>2026-04-05T14:23:10.424Z</time></trkpt><trkpt lat="42.8168738" lon="12.9173335"><ele>368.25</ele><time>2026-04-05T14:23:11.424Z</time></trkpt><trkpt lat="42.8169097" lon="12.9174686"><ele>375.5</ele><time>2026-04-05T14:23:12.424Z</time></trkpt><trkpt lat="42.8169427" lon="12.9176267"><ele>382.75</ele><time>2026-04-05T14:23:13.424Z</time></trkpt><trkpt lat="42.8169823" lon="12.9177701"><ele>390.0</ele><time>2026-04-05T14:23:14.423Z</time></trkpt><trkpt lat="42.8170186" lon="12.9179233"><ele>390.0</ele><time>2026-04-05T14:23:15.423Z</time></trkpt><trkpt lat="42.8170477" lon="12.9180854"><ele>390.0</ele><time>2026-04-05T14:23:16.424Z</time></trkpt><trkpt lat="42.8170832" lon="12.9182472"><ele>390.0</ele><time>2026-04-05T14:23:17.423Z</time></trkpt><trkpt lat="42.8171113" lon="12.9184118"><ele>390.0</ele><time>2026-04-05T14:23:18.424Z</time></trkpt><trkpt lat="42.8171249" lon="12.9185868"><ele>386.75</ele><time>2026-04-05T14:23:19.423Z</time></trkpt><trkpt lat="42.8171265" lon="12.9187634"><ele>383.5</ele><time>2026-04-05T14:23:20.424Z</time></trkpt><trkpt lat="42.8171188" lon="12.9189342"><ele>380.25</ele><time>2026-04-05T14:23:21.424Z</time></trkpt><trkpt lat="42.8171173" lon="12.9191019"><ele>377.0</ele><time>2026-04-05T14:23:22.424Z</time></trkpt><trkpt lat="42.8171301" lon="12.9192574"><ele>372.5</ele><time>2026-04-05T14:23:23.424Z</time></trkpt><trkpt lat="42.8171739" lon="12.9194071"><ele>368.0</ele><time>2026-04-05T14:23:24.424Z</time></trkpt><trkpt lat="42.8172222" lon="12.9195415"><ele>363.5</ele><time>2026-04-05T14:23:25.424Z</time></trkpt><trkpt lat="42.8173093" lon="12.9196591"><ele>359.0</ele><time>2026-04-05T14:23:26.424Z</time></trkpt><trkpt lat="42.8174148" lon="12.9197413"><ele>359.0</ele><time>2026-04-05T14:23:27.424Z</time></trkpt><trkpt lat="42.8175425" lon="12.9197782"><ele>359.0</ele><time>2026-04-05T14:23:28.423Z</time></trkpt><trkpt lat="42.817664" lon="12.919796"><ele>359.0</ele><time>2026-04-05T14:23:29.424Z</time></trkpt><trkpt lat="42.8178059" lon="12.9197554"><ele>359.0</ele><time>2026-04-05T14:23:30.424Z</time></trkpt><trkpt lat="42.8179389" lon="12.9197104"><ele>358.6666666666667</ele><time>2026-04-05T14:23:31.423Z</time></trkpt><trkpt lat="42.8180883" lon="12.9196767"><ele>358.3333333333333</ele><time>2026-04-05T14:23:32.424Z</time></trkpt><trkpt lat="42.8182431" lon="12.9196358"><ele>358.0</ele><time>2026-04-05T14:23:33.424Z</time></trkpt><trkpt lat="42.8183943" lon="12.9196099"><ele>363.3333333333333</ele><time>2026-04-05T14:23:34.424Z</time></trkpt><trkpt lat="42.8185517" lon="12.9195976"><ele>368.6666666666667</ele><time>2026-04-05T14:23:35.424Z</time></trkpt><trkpt lat="42.8187027" lon="12.9196112"><ele>374.0</ele><time>2026-04-05T14:23:36.424Z</time></trkpt><trkpt lat="42.8188508" lon="12.9196302"><ele>374.0</ele><time>2026-04-05T14:23:37.424Z</time></trkpt><trkpt lat="42.8190037" lon="12.9196624"><ele>374.0</ele><time>2026-04-05T14:23:38.424Z</time></trkpt><trkpt lat="42.8191442" lon="12.9196968"><ele>374.0</ele><time>2026-04-05T14:23:39.424Z</time></trkpt><trkpt lat="42.8192662" lon="12.9197479"><ele>374.0</ele><time>2026-04-05T14:23:40.424Z</time></trkpt><trkpt lat="42.8193696" lon="12.9198241"><ele>380.5</ele><time>2026-04-05T14:23:41.424Z</time></trkpt><trkpt lat="42.8194739" lon="12.9199005"><ele>387.0</ele><time>2026-04-05T14:23:42.424Z</time></trkpt><trkpt lat="42.819547" lon="12.9200099"><ele>393.5</ele><time>2026-04-05T14:23:43.424Z</time></trkpt><trkpt lat="42.819575" lon="12.9201935"><ele>400.0</ele><time>2026-04-05T14:23:44.424Z</time></trkpt><trkpt lat="42.8196023" lon="12.9203542"><ele>400.0</ele><time>2026-04-05T14:23:45.424Z</time></trkpt><trkpt lat="42.8196244" lon="12.9205125"><ele>400.0</ele><time>2026-04-05T14:23:46.424Z</time></trkpt><trkpt lat="42.8196494" lon="12.9206842"><ele>400.0</ele><time>2026-04-05T14:23:47.423Z</time></trkpt><trkpt lat="42.8196584" lon="12.9208722"><ele>400.0</ele><time>2026-04-05T14:23:48.424Z</time></trkpt><trkpt lat="42.8196587" lon="12.9210593"><ele>403.6666666666667</ele><time>2026-04-05T14:23:49.424Z</time></trkpt><trkpt lat="42.8196255" lon="12.9212531"><ele>407.33333333333337</ele><time>2026-04-05T14:23:50.424Z</time></trkpt><trkpt lat="42.8195673" lon="12.9214453"><ele>411.0</ele><time>2026-04-05T14:23:51.424Z</time></trkpt><trkpt lat="42.8194908" lon="12.9216392"><ele>416.25</ele><time>2026-04-05T14:23:52.424Z</time></trkpt><trkpt lat="42.8193999" lon="12.9218197"><ele>421.5</ele><time>2026-04-05T14:23:53.423Z</time></trkpt><trkpt lat="42.8193161" lon="12.9219841"><ele>426.75</ele><time>2026-04-05T14:23:54.424Z</time></trkpt><trkpt lat="42.8192377" lon="12.9221442"><ele>432.0</ele><time>2026-04-05T14:23:55.423Z</time></trkpt><trkpt lat="42.8191641" lon="12.922294"><ele>417.5</ele><time>2026-04-05T14:23:56.423Z</time></trkpt><trkpt lat="42.8191116" lon="12.9224439"><ele>403.0</ele><time>2026-04-05T14:23:57.424Z</time></trkpt><trkpt lat="42.819079" lon="12.9226179"><ele>388.5</ele><time>2026-04-05T14:23:58.423Z</time></trkpt><trkpt lat="42.8190837" lon="12.9227635"><ele>374.0</ele><time>2026-04-05T14:23:59.424Z</time></trkpt><trkpt lat="42.8191169" lon="12.9229173"><ele>372.5</ele><time>2026-04-05T14:24:00.424Z</time></trkpt><trkpt lat="42.8192025" lon="12.9230364"><ele>371.0</ele><time>2026-04-05T14:24:01.424Z</time></trkpt><trkpt lat="42.8192911" lon="12.9231577"><ele>369.5</ele><time>2026-04-05T14:24:02.424Z</time></trkpt><trkpt lat="42.8194149" lon="12.9232642"><ele>368.0</ele><time>2026-04-05T14:24:03.424Z</time></trkpt><trkpt lat="42.819541" lon="12.9233827"><ele>372.25</ele><time>2026-04-05T14:24:04.424Z</time></trkpt><trkpt lat="42.8196636" lon="12.9235115"><ele>376.5</ele><time>2026-04-05T14:24:05.424Z</time></trkpt><trkpt lat="42.8197652" lon="12.9236545"><ele>380.75</ele><time>2026-04-05T14:24:06.423Z</time></trkpt><trkpt lat="42.8198509" lon="12.9238151"><ele>385.0</ele><time>2026-04-05T14:24:07.423Z</time></trkpt><trkpt lat="42.8199313" lon="12.9239953"><ele>385.0</ele><time>2026-04-05T14:24:08.424Z</time></trkpt><trkpt lat="42.8200035" lon="12.9241848"><ele>385.0</ele><time>2026-04-05T14:24:09.424Z</time></trkpt><trkpt lat="42.8200714" lon="12.924395"><ele>385.0</ele><time>2026-04-05T14:24:10.424Z</time></trkpt><trkpt lat="42.8201465" lon="12.9246084"><ele>393.33333333333337</ele><time>2026-04-05T14:24:11.424Z</time></trkpt><trkpt lat="42.8202227" lon="12.924823"><ele>401.66666666666663</ele><time>2026-04-05T14:24:12.424Z</time></trkpt><trkpt lat="42.8203034" lon="12.9250256"><ele>410.0</ele><time>2026-04-05T14:24:13.423Z</time></trkpt><trkpt lat="42.8203755" lon="12.9252204"><ele>410.0</ele><time>2026-04-05T14:24:14.424Z</time></trkpt><trkpt lat="42.8204434" lon="12.925407"><ele>410.0</ele><time>2026-04-05T14:24:15.424Z</time></trkpt><trkpt lat="42.8205114" lon="12.9256007"><ele>410.0</ele><time>2026-04-05T14:24:16.423Z</time></trkpt><trkpt lat="42.8205744" lon="12.925796"><ele>406.3333333333333</ele><time>2026-04-05T14:24:17.423Z</time></trkpt><trkpt lat="42.8206155" lon="12.9259994"><ele>402.66666666666663</ele><time>2026-04-05T14:24:18.423Z</time></trkpt><trkpt lat="42.8206463" lon="12.9262069"><ele>399.0</ele><time>2026-04-05T14:24:19.424Z</time></trkpt><trkpt lat="42.820659" lon="12.9264244"><ele>399.0</ele><time>2026-04-05T14:24:20.424Z</time></trkpt><trkpt lat="42.8206781" lon="12.9266296"><ele>399.0</ele><time>2026-04-05T14:24:21.424Z</time></trkpt><trkpt lat="42.8206957" lon="12.9268385"><ele>399.0</ele><time>2026-04-05T14:24:22.424Z</time></trkpt><trkpt lat="42.8207291" lon="12.9270377"><ele>394.0</ele><time>2026-04-05T14:24:23.424Z</time></trkpt><trkpt lat="42.820813" lon="12.9272307"><ele>389.0</ele><time>2026-04-05T14:24:24.424Z</time></trkpt><trkpt lat="42.8208959" lon="12.9274124"><ele>384.0</ele><time>2026-04-05T14:24:25.424Z</time></trkpt><trkpt lat="42.8209783" lon="12.9275819"><ele>389.0</ele><time>2026-04-05T14:24:26.424Z</time></trkpt><trkpt lat="42.821066" lon="12.9277573"><ele>394.0</ele><time>2026-04-05T14:24:27.424Z</time></trkpt><trkpt lat="42.8211309" lon="12.9279491"><ele>399.0</ele><time>2026-04-05T14:24:28.424Z</time></trkpt><trkpt lat="42.8211994" lon="12.9281436"><ele>399.0</ele><time>2026-04-05T14:24:29.424Z</time></trkpt><trkpt lat="42.8212436" lon="12.9283403"><ele>399.0</ele><time>2026-04-05T14:24:30.424Z</time></trkpt><trkpt lat="42.821251" lon="12.9285464"><ele>399.0</ele><time>2026-04-05T14:24:31.424Z</time></trkpt><trkpt lat="42.82126" lon="12.9287438"><ele>399.0</ele><time>2026-04-05T14:24:32.424Z</time></trkpt><trkpt lat="42.8212654" lon="12.9289428"><ele>399.0</ele><time>2026-04-05T14:24:33.424Z</time></trkpt><trkpt lat="42.8212595" lon="12.9291311"><ele>399.0</ele><time>2026-04-05T14:24:34.423Z</time></trkpt><trkpt lat="42.8212662" lon="12.9293268"><ele>399.0</ele><time>2026-04-05T14:24:35.424Z</time></trkpt><trkpt lat="42.8212805" lon="12.929508"><ele>399.0</ele><time>2026-04-05T14:24:36.423Z</time></trkpt><trkpt lat="42.8212955" lon="12.9296827"><ele>399.4</ele><time>2026-04-05T14:24:37.424Z</time></trkpt><trkpt lat="42.8213192" lon="12.9298485"><ele>399.79999999999995</ele><time>2026-04-05T14:24:38.424Z</time></trkpt><trkpt lat="42.8213557" lon="12.9299926"><ele>400.20000000000005</ele><time>2026-04-05T14:24:39.423Z</time></trkpt><trkpt lat="42.8213985" lon="12.9301226"><ele>400.6</ele><time>2026-04-05T14:24:40.424Z</time></trkpt><trkpt lat="42.8214477" lon="12.9302471"><ele>401.0</ele><time>2026-04-05T14:24:41.424Z</time></trkpt><trkpt lat="42.8215215" lon="12.9303675"><ele>400.0</ele><time>2026-04-05T14:24:42.423Z</time></trkpt><trkpt lat="42.8216127" lon="12.9304776"><ele>399.0</ele><time>2026-04-05T14:24:43.423Z</time></trkpt><trkpt lat="42.8217249" lon="12.9305699"><ele>398.0</ele><time>2026-04-05T14:24:44.424Z</time></trkpt><trkpt lat="42.8218319" lon="12.9306379"><ele>397.0</ele><time>2026-04-05T14:24:45.424Z</time></trkpt><trkpt lat="42.8219647" lon="12.9306734"><ele>397.0</ele><time>2026-04-05T14:24:46.424Z</time></trkpt><trkpt lat="42.8220893" lon="12.9306863"><ele>397.0</ele><time>2026-04-05T14:24:47.424Z</time></trkpt><trkpt lat="42.8222353" lon="12.930674"><ele>397.0</ele><time>2026-04-05T14:24:48.423Z</time></trkpt><trkpt lat="42.8223879" lon="12.9306441"><ele>397.0</ele><time>2026-04-05T14:24:49.424Z</time></trkpt><trkpt lat="42.8225472" lon="12.9306115"><ele>394.6666666666667</ele><time>2026-04-05T14:24:50.424Z</time></trkpt><trkpt lat="42.8227133" lon="12.93058"><ele>392.33333333333337</ele><time>2026-04-05T14:24:51.424Z</time></trkpt><trkpt lat="42.8228937" lon="12.9305451"><ele>390.0</ele><time>2026-04-05T14:24:52.424Z</time></trkpt><trkpt lat="42.8230603" lon="12.9305205"><ele>390.0</ele><time>2026-04-05T14:24:53.423Z</time></trkpt><trkpt lat="42.8232304" lon="12.93049"><ele>390.0</ele><time>2026-04-05T14:24:54.423Z</time></trkpt><trkpt lat="42.8233925" lon="12.9304504"><ele>390.0</ele><time>2026-04-05T14:24:55.424Z</time></trkpt><trkpt lat="42.8235469" lon="12.930412"><ele>385.3333333333333</ele><time>2026-04-05T14:24:56.423Z</time></trkpt><trkpt lat="42.8236951" lon="12.9303356"><ele>380.66666666666663</ele><time>2026-04-05T14:24:57.424Z</time></trkpt><trkpt lat="42.8238295" lon="12.9302242"><ele>376.0</ele><time>2026-04-05T14:24:58.424Z</time></trkpt><trkpt lat="42.8239736" lon="12.9300864"><ele>379.66666666666663</ele><time>2026-04-05T14:24:59.423Z</time></trkpt><trkpt lat="42.8241102" lon="12.9299487"><ele>383.3333333333333</ele><time>2026-04-05T14:25:00.423Z</time></trkpt><trkpt lat="42.8242264" lon="12.9298275"><ele>387.0</ele><time>2026-04-05T14:25:01.424Z</time></trkpt><trkpt lat="42.8243432" lon="12.9297089"><ele>387.0</ele><time>2026-04-05T14:25:02.423Z</time></trkpt><trkpt lat="42.8244488" lon="12.9296115"><ele>387.0</ele><time>2026-04-05T14:25:03.424Z</time></trkpt><trkpt lat="42.8245789" lon="12.9295306"><ele>387.0</ele><time>2026-04-05T14:25:04.424Z</time></trkpt><trkpt lat="42.8247062" lon="12.9294763"><ele>387.0</ele><time>2026-04-05T14:25:05.424Z</time></trkpt><trkpt lat="42.8248687" lon="12.9294502"><ele>387.0</ele><time>2026-04-05T14:25:06.424Z</time></trkpt><trkpt lat="42.8250176" lon="12.9294393"><ele>387.0</ele><time>2026-04-05T14:25:07.424Z</time></trkpt><trkpt lat="42.8251671" lon="12.9294272"><ele>387.0</ele><time>2026-04-05T14:25:08.424Z</time></trkpt><trkpt lat="42.8253232" lon="12.9294321"><ele>388.66666666666663</ele><time>2026-04-05T14:25:09.424Z</time></trkpt><trkpt lat="42.8254848" lon="12.9294646"><ele>390.3333333333333</ele><time>2026-04-05T14:25:10.424Z</time></trkpt><trkpt lat="42.8256558" lon="12.9295099"><ele>392.0</ele><time>2026-04-05T14:25:11.424Z</time></trkpt><trkpt lat="42.8258263" lon="12.9295455"><ele>394.3333333333333</ele><time>2026-04-05T14:25:12.424Z</time></trkpt><trkpt lat="42.8259957" lon="12.9295949"><ele>396.66666666666663</ele><time>2026-04-05T14:25:13.424Z</time></trkpt><trkpt lat="42.8261647" lon="12.9296368"><ele>399.0</ele><time>2026-04-05T14:25:14.423Z</time></trkpt><trkpt lat="42.8263366" lon="12.9296822"><ele>399.0</ele><time>2026-04-05T14:25:15.424Z</time></trkpt><trkpt lat="42.8265091" lon="12.9297394"><ele>399.0</ele><time>2026-04-05T14:25:16.424Z</time></trkpt><trkpt lat="42.8266871" lon="12.9298054"><ele>399.0</ele><time>2026-04-05T14:25:17.424Z</time></trkpt><trkpt lat="42.8268519" lon="12.9298654"><ele>395.66666666666663</ele><time>2026-04-05T14:25:18.424Z</time></trkpt><trkpt lat="42.8270135" lon="12.9299268"><ele>392.3333333333333</ele><time>2026-04-05T14:25:19.423Z</time></trkpt><trkpt lat="42.8271527" lon="12.9299921"><ele>389.0</ele><time>2026-04-05T14:25:20.423Z</time></trkpt><trkpt lat="42.8272843" lon="12.9300715"><ele>389.0</ele><time>2026-04-05T14:25:21.424Z</time></trkpt><trkpt lat="42.8274223" lon="12.9301713"><ele>389.0</ele><time>2026-04-05T14:25:22.423Z</time></trkpt><trkpt lat="42.8275566" lon="12.9302951"><ele>389.0</ele><time>2026-04-05T14:25:23.423Z</time></trkpt><trkpt lat="42.8276858" lon="12.9304136"><ele>394.3333333333333</ele><time>2026-04-05T14:25:24.424Z</time></trkpt><trkpt lat="42.8278095" lon="12.9305437"><ele>399.66666666666663</ele><time>2026-04-05T14:25:25.424Z</time></trkpt><trkpt lat="42.8279298" lon="12.9306753"><ele>405.0</ele><time>2026-04-05T14:25:26.424Z</time></trkpt><trkpt lat="42.8280506" lon="12.9308023"><ele>406.25</ele><time>2026-04-05T14:25:27.424Z</time></trkpt><trkpt lat="42.8281757" lon="12.9308998"><ele>407.5</ele><time>2026-04-05T14:25:28.424Z</time></trkpt><trkpt lat="42.8282924" lon="12.9309788"><ele>408.75</ele><time>2026-04-05T14:25:29.424Z</time></trkpt><trkpt lat="42.8284094" lon="12.9310519"><ele>410.0</ele><time>2026-04-05T14:25:30.423Z</time></trkpt><trkpt lat="42.8285136" lon="12.9311343"><ele>410.0</ele><time>2026-04-05T14:25:31.424Z</time></trkpt><trkpt lat="42.8286093" lon="12.9312261"><ele>410.0</ele><time>2026-04-05T14:25:32.423Z</time></trkpt><trkpt lat="42.8286911" lon="12.9313366"><ele>410.0</ele><time>2026-04-05T14:25:33.424Z</time></trkpt><trkpt lat="42.8287433" lon="12.931482"><ele>410.0</ele><time>2026-04-05T14:25:34.424Z</time></trkpt><trkpt lat="42.8287737" lon="12.9316478"><ele>414.0</ele><time>2026-04-05T14:25:35.424Z</time></trkpt><trkpt lat="42.8287944" lon="12.9318129"><ele>418.0</ele><time>2026-04-05T14:25:36.424Z</time></trkpt><trkpt lat="42.8287976" lon="12.9319715"><ele>422.0</ele><time>2026-04-05T14:25:37.424Z</time></trkpt><trkpt lat="42.8287118" lon="12.9336417"><ele>429.5</ele><time>2026-04-05T14:25:46.423Z</time></trkpt><trkpt lat="42.8287054" lon="12.9338347"><ele>437.0</ele><time>2026-04-05T14:25:47.424Z</time></trkpt><trkpt lat="42.8286813" lon="12.9340138"><ele>444.5</ele><time>2026-04-05T14:25:48.424Z</time></trkpt><trkpt lat="42.8286458" lon="12.9341817"><ele>452.0</ele><time>2026-04-05T14:25:49.424Z</time></trkpt><trkpt lat="42.8285748" lon="12.9343266"><ele>458.75</ele><time>2026-04-05T14:25:50.423Z</time></trkpt><trkpt lat="42.8284928" lon="12.93444"><ele>465.5</ele><time>2026-04-05T14:25:51.423Z</time></trkpt><trkpt lat="42.8284078" lon="12.9345487"><ele>472.25</ele><time>2026-04-05T14:25:52.424Z</time></trkpt><trkpt lat="42.8283192" lon="12.9346521"><ele>479.0</ele><time>2026-04-05T14:25:53.424Z</time></trkpt><trkpt lat="42.8282233" lon="12.9347501"><ele>469.6</ele><time>2026-04-05T14:25:54.423Z</time></trkpt><trkpt lat="42.8281285" lon="12.9348439"><ele>460.2</ele><time>2026-04-05T14:25:55.424Z</time></trkpt><trkpt lat="42.8280527" lon="12.9349416"><ele>450.80000000000007</ele><time>2026-04-05T14:25:56.424Z</time></trkpt><trkpt lat="42.8279938" lon="12.9350363"><ele>441.40000000000003</ele><time>2026-04-05T14:25:57.424Z</time></trkpt><trkpt lat="42.8279537" lon="12.935142"><ele>432.0</ele><time>2026-04-05T14:25:58.424Z</time></trkpt><trkpt lat="42.827935" lon="12.9352567"><ele>432.0</ele><time>2026-04-05T14:25:59.424Z</time></trkpt><trkpt lat="42.8279392" lon="12.9353752"><ele>432.0</ele><time>2026-04-05T14:26:00.424Z</time></trkpt><trkpt lat="42.827951" lon="12.9354848"><ele>432.0</ele><time>2026-04-05T14:26:01.423Z</time></trkpt><trkpt lat="42.8279667" lon="12.9355848"><ele>432.0</ele><time>2026-04-05T14:26:02.424Z</time></trkpt><trkpt lat="42.8279734" lon="12.9356858"><ele>432.0</ele><time>2026-04-05T14:26:03.424Z</time></trkpt><trkpt lat="42.8279791" lon="12.9357846"><ele>432.0</ele><time>2026-04-05T14:26:04.424Z</time></trkpt><trkpt lat="42.827971" lon="12.9358815"><ele>433.1666666666667</ele><time>2026-04-05T14:26:05.424Z</time></trkpt><trkpt lat="42.8279472" lon="12.9359845"><ele>434.33333333333337</ele><time>2026-04-05T14:26:06.424Z</time></trkpt><trkpt lat="42.8279044" lon="12.9360815"><ele>435.5</ele><time>2026-04-05T14:26:07.423Z</time></trkpt><trkpt lat="42.8278435" lon="12.9361694"><ele>436.6666666666667</ele><time>2026-04-05T14:26:08.424Z</time></trkpt><trkpt lat="42.8277763" lon="12.9362432"><ele>437.83333333333337</ele><time>2026-04-05T14:26:09.423Z</time></trkpt><trkpt lat="42.8277148" lon="12.9363254"><ele>439.0</ele><time>2026-04-05T14:26:10.423Z</time></trkpt><trkpt lat="42.8276883" lon="12.9364469"><ele>439.0</ele><time>2026-04-05T14:26:11.423Z</time></trkpt><trkpt lat="42.8276549" lon="12.9365549"><ele>439.0</ele><time>2026-04-05T14:26:12.423Z</time></trkpt><trkpt lat="42.8276093" lon="12.9366669"><ele>439.0</ele><time>2026-04-05T14:26:13.424Z</time></trkpt><trkpt lat="42.8276225" lon="12.9368081"><ele>439.0</ele><time>2026-04-05T14:26:14.423Z</time></trkpt><trkpt lat="42.8276181" lon="12.9369443"><ele>439.0</ele><time>2026-04-05T14:26:15.424Z</time></trkpt><trkpt lat="42.8276333" lon="12.9370761"><ele>437.2</ele><time>2026-04-05T14:26:16.424Z</time></trkpt><trkpt lat="42.8276615" lon="12.9372081"><ele>435.4</ele><time>2026-04-05T14:26:17.423Z</time></trkpt><trkpt lat="42.8276945" lon="12.9373365"><ele>433.6</ele><time>2026-04-05T14:26:18.423Z</time></trkpt><trkpt lat="42.82773" lon="12.9374698"><ele>431.8</ele><time>2026-04-05T14:26:19.424Z</time></trkpt><trkpt lat="42.827767" lon="12.9376043"><ele>430.0</ele><time>2026-04-05T14:26:20.424Z</time></trkpt><trkpt lat="42.8277913" lon="12.9377559"><ele>424.8</ele><time>2026-04-05T14:26:21.423Z</time></trkpt><trkpt lat="42.8278037" lon="12.9379172"><ele>419.6</ele><time>2026-04-05T14:26:22.424Z</time></trkpt><trkpt lat="42.8278077" lon="12.9380694"><ele>414.4</ele><time>2026-04-05T14:26:23.424Z</time></trkpt><trkpt lat="42.8278105" lon="12.938216"><ele>409.2</ele><time>2026-04-05T14:26:24.424Z</time></trkpt><trkpt lat="42.827816" lon="12.9383528"><ele>404.0</ele><time>2026-04-05T14:26:25.424Z</time></trkpt><trkpt lat="42.8278173" lon="12.9384809"><ele>404.0</ele><time>2026-04-05T14:26:26.424Z</time></trkpt><trkpt lat="42.8278359" lon="12.9385986"><ele>404.0</ele><time>2026-04-05T14:26:27.424Z</time></trkpt><trkpt lat="42.8278987" lon="12.9386942"><ele>404.0</ele><time>2026-04-05T14:26:28.424Z</time></trkpt><trkpt lat="42.8279629" lon="12.9387898"><ele>404.0</ele><time>2026-04-05T14:26:29.424Z</time></trkpt><trkpt lat="42.8280547" lon="12.9388794"><ele>404.0</ele><time>2026-04-05T14:26:30.424Z</time></trkpt><trkpt lat="42.8281421" lon="12.9389786"><ele>404.0</ele><time>2026-04-05T14:26:31.424Z</time></trkpt><trkpt lat="42.8282417" lon="12.9390854"><ele>404.0</ele><time>2026-04-05T14:26:32.424Z</time></trkpt><trkpt lat="42.828353" lon="12.9391885"><ele>404.0</ele><time>2026-04-05T14:26:33.424Z</time></trkpt><trkpt lat="42.8284661" lon="12.9392943"><ele>404.0</ele><time>2026-04-05T14:26:34.424Z</time></trkpt><trkpt lat="42.8285797" lon="12.9394077"><ele>404.5</ele><time>2026-04-05T14:26:35.424Z</time></trkpt><trkpt lat="42.8286814" lon="12.9395278"><ele>405.0</ele><time>2026-04-05T14:26:36.424Z</time></trkpt><trkpt lat="42.8287827" lon="12.9396503"><ele>405.5</ele><time>2026-04-05T14:26:37.424Z</time></trkpt><trkpt lat="42.8288638" lon="12.939788"><ele>406.0</ele><time>2026-04-05T14:26:38.424Z</time></trkpt><trkpt lat="42.8289418" lon="12.9399336"><ele>411.0</ele><time>2026-04-05T14:26:39.424Z</time></trkpt><trkpt lat="42.8290153" lon="12.9400881"><ele>416.0</ele><time>2026-04-05T14:26:40.424Z</time></trkpt><trkpt lat="42.8290801" lon="12.940258"><ele>421.0</ele><time>2026-04-05T14:26:41.424Z</time></trkpt><trkpt lat="42.8291316" lon="12.9404381"><ele>426.0</ele><time>2026-04-05T14:26:42.424Z</time></trkpt><trkpt lat="42.8291915" lon="12.9406137"><ele>426.0</ele><time>2026-04-05T14:26:43.424Z</time></trkpt><trkpt lat="42.8292393" lon="12.9407953"><ele>426.0</ele><time>2026-04-05T14:26:44.424Z</time></trkpt><trkpt lat="42.8292683" lon="12.9409716"><ele>426.0</ele><time>2026-04-05T14:26:45.423Z</time></trkpt><trkpt lat="42.8292833" lon="12.9411708"><ele>426.0</ele><time>2026-04-05T14:26:46.424Z</time></trkpt><trkpt lat="42.8292936" lon="12.9413779"><ele>427.75</ele><time>2026-04-05T14:26:47.423Z</time></trkpt><trkpt lat="42.8292981" lon="12.9415774"><ele>429.5</ele><time>2026-04-05T14:26:48.424Z</time></trkpt><trkpt lat="42.8292834" lon="12.9417789"><ele>431.25</ele><time>2026-04-05T14:26:49.424Z</time></trkpt><trkpt lat="42.8292661" lon="12.9419719"><ele>433.0</ele><time>2026-04-05T14:26:50.423Z</time></trkpt><trkpt lat="42.8292594" lon="12.9421523"><ele>433.5</ele><time>2026-04-05T14:26:51.424Z</time></trkpt><trkpt lat="42.82926" lon="12.942332"><ele>434.0</ele><time>2026-04-05T14:26:52.424Z</time></trkpt><trkpt lat="42.8292762" lon="12.9425016"><ele>434.5</ele><time>2026-04-05T14:26:53.424Z</time></trkpt><trkpt lat="42.8293073" lon="12.9426699"><ele>435.0</ele><time>2026-04-05T14:26:54.424Z</time></trkpt><trkpt lat="42.8293557" lon="12.9428125"><ele>433.25</ele><time>2026-04-05T14:26:55.424Z</time></trkpt><trkpt lat="42.8294521" lon="12.9429599"><ele>431.5</ele><time>2026-04-05T14:26:56.424Z</time></trkpt><trkpt lat="42.8295643" lon="12.9430774"><ele>429.75</ele><time>2026-04-05T14:26:57.424Z</time></trkpt><trkpt lat="42.8296976" lon="12.943177"><ele>428.0</ele><time>2026-04-05T14:26:58.424Z</time></trkpt><trkpt lat="42.8298331" lon="12.9432796"><ele>428.0</ele><time>2026-04-05T14:26:59.424Z</time></trkpt><trkpt lat="42.8299722" lon="12.9433795"><ele>428.0</ele><time>2026-04-05T14:27:00.424Z</time></trkpt><trkpt lat="42.8301027" lon="12.9434719"><ele>428.0</ele><time>2026-04-05T14:27:01.424Z</time></trkpt><trkpt lat="42.8302372" lon="12.9435462"><ele>428.0</ele><time>2026-04-05T14:27:02.424Z</time></trkpt><trkpt lat="42.8303777" lon="12.9435949"><ele>431.3333333333333</ele><time>2026-04-05T14:27:03.424Z</time></trkpt><trkpt lat="42.8305225" lon="12.9436166"><ele>434.66666666666663</ele><time>2026-04-05T14:27:04.424Z</time></trkpt><trkpt lat="42.8306761" lon="12.9436048"><ele>438.0</ele><time>2026-04-05T14:27:05.424Z</time></trkpt><trkpt lat="42.8308303" lon="12.9435879"><ele>438.0</ele><time>2026-04-05T14:27:06.423Z</time></trkpt><trkpt lat="42.8309796" lon="12.9435615"><ele>438.0</ele><time>2026-04-05T14:27:07.424Z</time></trkpt><trkpt lat="42.8311294" lon="12.9435402"><ele>438.0</ele><time>2026-04-05T14:27:08.424Z</time></trkpt><trkpt lat="42.8312699" lon="12.943514"><ele>438.0</ele><time>2026-04-05T14:27:09.424Z</time></trkpt><trkpt lat="42.8314081" lon="12.9434898"><ele>438.0</ele><time>2026-04-05T14:27:10.424Z</time></trkpt><trkpt lat="42.8315466" lon="12.9434817"><ele>438.0</ele><time>2026-04-05T14:27:11.424Z</time></trkpt><trkpt lat="42.8316825" lon="12.9434893"><ele>438.0</ele><time>2026-04-05T14:27:12.423Z</time></trkpt><trkpt lat="42.8318179" lon="12.9435224"><ele>438.0</ele><time>2026-04-05T14:27:13.423Z</time></trkpt><trkpt lat="42.8319498" lon="12.9435693"><ele>436.75</ele><time>2026-04-05T14:27:14.424Z</time></trkpt><trkpt lat="42.8320774" lon="12.943626"><ele>435.5</ele><time>2026-04-05T14:27:15.423Z</time></trkpt><trkpt lat="42.8321967" lon="12.9437048"><ele>434.25</ele><time>2026-04-05T14:27:16.424Z</time></trkpt><trkpt lat="42.8323194" lon="12.9437839"><ele>433.0</ele><time>2026-04-05T14:27:17.424Z</time></trkpt><trkpt lat="42.8324299" lon="12.9438668"><ele>433.0</ele><time>2026-04-05T14:27:18.423Z</time></trkpt><trkpt lat="42.8325347" lon="12.9439358"><ele>432.99999999999994</ele><time>2026-04-05T14:27:19.423Z</time></trkpt><trkpt lat="42.8326316" lon="12.944003"><ele>432.99999999999994</ele><time>2026-04-05T14:27:20.424Z</time></trkpt><trkpt lat="42.8327366" lon="12.9440517"><ele>433.0</ele><time>2026-04-05T14:27:21.424Z</time></trkpt><trkpt lat="42.8328426" lon="12.9440801"><ele>433.0</ele><time>2026-04-05T14:27:22.424Z</time></trkpt><trkpt lat="42.8329584" lon="12.9441165"><ele>432.5</ele><time>2026-04-05T14:27:23.423Z</time></trkpt><trkpt lat="42.8330666" lon="12.9441611"><ele>432.0</ele><time>2026-04-05T14:27:24.424Z</time></trkpt><trkpt lat="42.8331663" lon="12.9442177"><ele>431.5</ele><time>2026-04-05T14:27:25.424Z</time></trkpt><trkpt lat="42.8332555" lon="12.9443096"><ele>431.0</ele><time>2026-04-05T14:27:26.424Z</time></trkpt><trkpt lat="42.8333581" lon="12.9444339"><ele>431.0</ele><time>2026-04-05T14:27:27.424Z</time></trkpt><trkpt lat="42.8334474" lon="12.9445745"><ele>431.0</ele><time>2026-04-05T14:27:28.424Z</time></trkpt><trkpt lat="42.8335283" lon="12.944725"><ele>431.0</ele><time>2026-04-05T14:27:29.424Z</time></trkpt><trkpt lat="42.8336207" lon="12.9448758"><ele>431.0</ele><time>2026-04-05T14:27:30.424Z</time></trkpt><trkpt lat="42.83372" lon="12.9450148"><ele>430.0</ele><time>2026-04-05T14:27:31.423Z</time></trkpt><trkpt lat="42.8338229" lon="12.9451454"><ele>429.0</ele><time>2026-04-05T14:27:32.424Z</time></trkpt><trkpt lat="42.8339273" lon="12.9452667"><ele>428.0</ele><time>2026-04-05T14:27:33.424Z</time></trkpt><trkpt lat="42.8340364" lon="12.9453765"><ele>427.0</ele><time>2026-04-05T14:27:34.424Z</time></trkpt><trkpt lat="42.834146" lon="12.9454796"><ele>427.0</ele><time>2026-04-05T14:27:35.423Z</time></trkpt><trkpt lat="42.8342605" lon="12.9455764"><ele>427.0</ele><time>2026-04-05T14:27:36.424Z</time></trkpt><trkpt lat="42.8343712" lon="12.9456692"><ele>427.0</ele><time>2026-04-05T14:27:37.424Z</time></trkpt><trkpt lat="42.8344824" lon="12.9457645"><ele>427.0</ele><time>2026-04-05T14:27:38.424Z</time></trkpt><trkpt lat="42.8345891" lon="12.9458537"><ele>428.5</ele><time>2026-04-05T14:27:39.424Z</time></trkpt><trkpt lat="42.8347035" lon="12.9459456"><ele>430.0</ele><time>2026-04-05T14:27:40.424Z</time></trkpt><trkpt lat="42.8348263" lon="12.9460374"><ele>431.5</ele><time>2026-04-05T14:27:41.424Z</time></trkpt><trkpt lat="42.8349506" lon="12.9461326"><ele>433.0</ele><time>2026-04-05T14:27:42.424Z</time></trkpt><trkpt lat="42.8350643" lon="12.946221"><ele>430.25</ele><time>2026-04-05T14:27:43.424Z</time></trkpt><trkpt lat="42.835186" lon="12.9462943"><ele>427.5</ele><time>2026-04-05T14:27:44.423Z</time></trkpt><trkpt lat="42.8353107" lon="12.9463452"><ele>424.75</ele><time>2026-04-05T14:27:45.424Z</time></trkpt><trkpt lat="42.8354378" lon="12.9463915"><ele>422.0</ele><time>2026-04-05T14:27:46.424Z</time></trkpt><trkpt lat="42.835577" lon="12.9464336"><ele>422.0</ele><time>2026-04-05T14:27:47.424Z</time></trkpt><trkpt lat="42.8357076" lon="12.9464704"><ele>422.0</ele><time>2026-04-05T14:27:48.424Z</time></trkpt><trkpt lat="42.8358339" lon="12.9465141"><ele>422.0</ele><time>2026-04-05T14:27:49.424Z</time></trkpt><trkpt lat="42.8359682" lon="12.9465564"><ele>422.0</ele><time>2026-04-05T14:27:50.424Z</time></trkpt><trkpt lat="42.8360993" lon="12.9466004"><ele>418.75</ele><time>2026-04-05T14:27:51.424Z</time></trkpt><trkpt lat="42.8362365" lon="12.9466467"><ele>415.5</ele><time>2026-04-05T14:27:52.424Z</time></trkpt><trkpt lat="42.8363778" lon="12.9466914"><ele>412.25</ele><time>2026-04-05T14:27:53.424Z</time></trkpt><trkpt lat="42.8365189" lon="12.9467364"><ele>409.0</ele><time>2026-04-05T14:27:54.423Z</time></trkpt><trkpt lat="42.8366628" lon="12.9467769"><ele>413.33333333333337</ele><time>2026-04-05T14:27:55.423Z</time></trkpt><trkpt lat="42.836809" lon="12.9468288"><ele>417.66666666666663</ele><time>2026-04-05T14:27:56.423Z</time></trkpt><trkpt lat="42.8369512" lon="12.9468832"><ele>422.0</ele><time>2026-04-05T14:27:57.424Z</time></trkpt><trkpt lat="42.8370977" lon="12.9469357"><ele>422.0</ele><time>2026-04-05T14:27:58.423Z</time></trkpt><trkpt lat="42.8372345" lon="12.9469662"><ele>422.0</ele><time>2026-04-05T14:27:59.424Z</time></trkpt><trkpt lat="42.8373741" lon="12.9470157"><ele>422.0</ele><time>2026-04-05T14:28:00.424Z</time></trkpt><trkpt lat="42.8375239" lon="12.947091"><ele>422.0</ele><time>2026-04-05T14:28:01.424Z</time></trkpt><trkpt lat="42.837661" lon="12.9471682"><ele>424.75</ele><time>2026-04-05T14:28:02.424Z</time></trkpt><trkpt lat="42.8377945" lon="12.9472428"><ele>427.5</ele><time>2026-04-05T14:28:03.424Z</time></trkpt><trkpt lat="42.8379272" lon="12.9473472"><ele>430.25</ele><time>2026-04-05T14:28:04.424Z</time></trkpt><trkpt lat="42.8380558" lon="12.9474494"><ele>433.0</ele><time>2026-04-05T14:28:05.424Z</time></trkpt><trkpt lat="42.8381795" lon="12.9475671"><ele>433.0</ele><time>2026-04-05T14:28:06.424Z</time></trkpt><trkpt lat="42.8383115" lon="12.9476667"><ele>433.0</ele><time>2026-04-05T14:28:07.424Z</time></trkpt><trkpt lat="42.8384443" lon="12.9477796"><ele>433.0</ele><time>2026-04-05T14:28:08.424Z</time></trkpt><trkpt lat="42.8385677" lon="12.9478901"><ele>427.75</ele><time>2026-04-05T14:28:09.424Z</time></trkpt><trkpt lat="42.8386914" lon="12.947993"><ele>422.5</ele><time>2026-04-05T14:28:10.424Z</time></trkpt><trkpt lat="42.8388048" lon="12.9481116"><ele>417.25</ele><time>2026-04-05T14:28:11.423Z</time></trkpt><trkpt lat="42.83891" lon="12.9482442"><ele>412.0</ele><time>2026-04-05T14:28:12.424Z</time></trkpt><trkpt lat="42.8390076" lon="12.9483939"><ele>412.0</ele><time>2026-04-05T14:28:13.424Z</time></trkpt><trkpt lat="42.8390898" lon="12.9485433"><ele>412.0</ele><time>2026-04-05T14:28:14.423Z</time></trkpt><trkpt lat="42.8391768" lon="12.9486782"><ele>412.0</ele><time>2026-04-05T14:28:15.424Z</time></trkpt><trkpt lat="42.8392716" lon="12.9487986"><ele>412.0</ele><time>2026-04-05T14:28:16.424Z</time></trkpt><trkpt lat="42.8393668" lon="12.9488961"><ele>408.0</ele><time>2026-04-05T14:28:17.424Z</time></trkpt><trkpt lat="42.8394742" lon="12.9489731"><ele>404.0</ele><time>2026-04-05T14:28:18.424Z</time></trkpt><trkpt lat="42.8395852" lon="12.949033"><ele>400.0</ele><time>2026-04-05T14:28:19.424Z</time></trkpt><trkpt lat="42.8397062" lon="12.9490825"><ele>396.0</ele><time>2026-04-05T14:28:20.424Z</time></trkpt><trkpt lat="42.8398315" lon="12.9491243"><ele>396.0</ele><time>2026-04-05T14:28:21.424Z</time></trkpt><trkpt lat="42.8399582" lon="12.9491687"><ele>396.0</ele><time>2026-04-05T14:28:22.423Z</time></trkpt><trkpt lat="42.8400653" lon="12.9492231"><ele>396.0</ele><time>2026-04-05T14:28:23.424Z</time></trkpt><trkpt lat="42.8401691" lon="12.9492721"><ele>396.0</ele><time>2026-04-05T14:28:24.424Z</time></trkpt><trkpt lat="42.8402574" lon="12.9493441"><ele>401.8</ele><time>2026-04-05T14:28:25.424Z</time></trkpt><trkpt lat="42.8403252" lon="12.9494413"><ele>407.6</ele><time>2026-04-05T14:28:26.424Z</time></trkpt><trkpt lat="42.840387" lon="12.9495618"><ele>413.4</ele><time>2026-04-05T14:28:27.424Z</time></trkpt><trkpt lat="42.8404301" lon="12.9497035"><ele>419.2</ele><time>2026-04-05T14:28:28.423Z</time></trkpt><trkpt lat="42.8404758" lon="12.9498557"><ele>425.0</ele><time>2026-04-05T14:28:29.424Z</time></trkpt><trkpt lat="42.8405205" lon="12.9500135"><ele>421.75</ele><time>2026-04-05T14:28:30.424Z</time></trkpt><trkpt lat="42.8405717" lon="12.9501799"><ele>418.5</ele><time>2026-04-05T14:28:31.424Z</time></trkpt><trkpt lat="42.8406142" lon="12.9503466"><ele>415.25</ele><time>2026-04-05T14:28:32.423Z</time></trkpt><trkpt lat="42.8406681" lon="12.9505283"><ele>412.0</ele><time>2026-04-05T14:28:33.424Z</time></trkpt><trkpt lat="42.8407189" lon="12.9506965"><ele>412.0</ele><time>2026-04-05T14:28:34.424Z</time></trkpt><trkpt lat="42.8407987" lon="12.950849"><ele>412.0</ele><time>2026-04-05T14:28:35.423Z</time></trkpt><trkpt lat="42.8408863" lon="12.9509924"><ele>412.0</ele><time>2026-04-05T14:28:36.424Z</time></trkpt><trkpt lat="42.8409948" lon="12.9511257"><ele>412.0</ele><time>2026-04-05T14:28:37.424Z</time></trkpt><trkpt lat="42.8411035" lon="12.9512527"><ele>414.25</ele><time>2026-04-05T14:28:38.424Z</time></trkpt><trkpt lat="42.8412382" lon="12.9513518"><ele>416.5</ele><time>2026-04-05T14:28:39.423Z</time></trkpt><trkpt lat="42.8413617" lon="12.9514508"><ele>418.75</ele><time>2026-04-05T14:28:40.424Z</time></trkpt><trkpt lat="42.8414778" lon="12.9515364"><ele>421.0</ele><time>2026-04-05T14:28:41.423Z</time></trkpt><trkpt lat="42.8416074" lon="12.9516333"><ele>416.0</ele><time>2026-04-05T14:28:42.424Z</time></trkpt><trkpt lat="42.8417378" lon="12.9517342"><ele>411.0</ele><time>2026-04-05T14:28:43.424Z</time></trkpt><trkpt lat="42.8418657" lon="12.9518536"><ele>406.0</ele><time>2026-04-05T14:28:44.424Z</time></trkpt><trkpt lat="42.8419934" lon="12.9519815"><ele>416.33333333333337</ele><time>2026-04-05T14:28:45.423Z</time></trkpt><trkpt lat="42.8420962" lon="12.9521344"><ele>426.66666666666663</ele><time>2026-04-05T14:28:46.423Z</time></trkpt><trkpt lat="42.8421915" lon="12.952296"><ele>437.0</ele><time>2026-04-05T14:28:47.424Z</time></trkpt><trkpt lat="42.8422775" lon="12.9524578"><ele>431.0</ele><time>2026-04-05T14:28:48.423Z</time></trkpt><trkpt lat="42.8423759" lon="12.9526278"><ele>425.0</ele><time>2026-04-05T14:28:49.424Z</time></trkpt><trkpt lat="42.8424785" lon="12.9528014"><ele>419.0</ele><time>2026-04-05T14:28:50.423Z</time></trkpt><trkpt lat="42.8425812" lon="12.9529684"><ele>426.0</ele><time>2026-04-05T14:28:51.424Z</time></trkpt><trkpt lat="42.8426733" lon="12.9531544"><ele>433.0</ele><time>2026-04-05T14:28:52.424Z</time></trkpt><trkpt lat="42.8427609" lon="12.9533397"><ele>440.0</ele><time>2026-04-05T14:28:53.424Z</time></trkpt><trkpt lat="42.8428534" lon="12.9535258"><ele>440.0</ele><time>2026-04-05T14:28:54.424Z</time></trkpt><trkpt lat="42.8429439" lon="12.9537053"><ele>440.0</ele><time>2026-04-05T14:28:55.424Z</time></trkpt><trkpt lat="42.843028" lon="12.9538913"><ele>440.0</ele><time>2026-04-05T14:28:56.424Z</time></trkpt><trkpt lat="42.8431124" lon="12.95408"><ele>433.0</ele><time>2026-04-05T14:28:57.424Z</time></trkpt><trkpt lat="42.8432113" lon="12.9542607"><ele>426.0</ele><time>2026-04-05T14:28:58.424Z</time></trkpt><trkpt lat="42.8433223" lon="12.95444"><ele>419.0</ele><time>2026-04-05T14:28:59.424Z</time></trkpt><trkpt lat="42.8434514" lon="12.9546146"><ele>422.3333333333333</ele><time>2026-04-05T14:29:00.424Z</time></trkpt><trkpt lat="42.8435745" lon="12.9548065"><ele>425.66666666666663</ele><time>2026-04-05T14:29:01.424Z</time></trkpt><trkpt lat="42.8437032" lon="12.9549953"><ele>429.0</ele><time>2026-04-05T14:29:02.424Z</time></trkpt><trkpt lat="42.8438298" lon="12.9551855"><ele>429.0</ele><time>2026-04-05T14:29:03.424Z</time></trkpt><trkpt lat="42.8439657" lon="12.9553792"><ele>429.0</ele><time>2026-04-05T14:29:04.424Z</time></trkpt><trkpt lat="42.8440978" lon="12.9555715"><ele>429.0</ele><time>2026-04-05T14:29:05.424Z</time></trkpt><trkpt lat="42.8442395" lon="12.9557754"><ele>432.0</ele><time>2026-04-05T14:29:06.424Z</time></trkpt><trkpt lat="42.844376" lon="12.9559756"><ele>435.0</ele><time>2026-04-05T14:29:07.424Z</time></trkpt><trkpt lat="42.8445118" lon="12.9561869"><ele>438.0</ele><time>2026-04-05T14:29:08.424Z</time></trkpt><trkpt lat="42.8446486" lon="12.9563936"><ele>438.0</ele><time>2026-04-05T14:29:09.424Z</time></trkpt><trkpt lat="42.8447877" lon="12.9565946"><ele>438.0</ele><time>2026-04-05T14:29:10.423Z</time></trkpt><trkpt lat="42.8449201" lon="12.9567975"><ele>438.0</ele><time>2026-04-05T14:29:11.424Z</time></trkpt><trkpt lat="42.8450538" lon="12.9569994"><ele>436.0</ele><time>2026-04-05T14:29:12.424Z</time></trkpt><trkpt lat="42.8451843" lon="12.9571984"><ele>434.0</ele><time>2026-04-05T14:29:13.424Z</time></trkpt><trkpt lat="42.8453131" lon="12.9573981"><ele>432.0</ele><time>2026-04-05T14:29:14.424Z</time></trkpt><trkpt lat="42.8454464" lon="12.9575925"><ele>432.0</ele><time>2026-04-05T14:29:15.424Z</time></trkpt><trkpt lat="42.8455777" lon="12.957786"><ele>432.0</ele><time>2026-04-05T14:29:16.424Z</time></trkpt><trkpt lat="42.8457118" lon="12.9579834"><ele>432.0</ele><time>2026-04-05T14:29:17.424Z</time></trkpt><trkpt lat="42.8458381" lon="12.9581761"><ele>433.33333333333337</ele><time>2026-04-05T14:29:18.423Z</time></trkpt><trkpt lat="42.8459691" lon="12.9583682"><ele>434.6666666666667</ele><time>2026-04-05T14:29:19.424Z</time></trkpt><trkpt lat="42.8460929" lon="12.9585659"><ele>436.0</ele><time>2026-04-05T14:29:20.424Z</time></trkpt><trkpt lat="42.8461959" lon="12.9587764"><ele>436.0</ele><time>2026-04-05T14:29:21.424Z</time></trkpt><trkpt lat="42.8463039" lon="12.958979"><ele>436.0</ele><time>2026-04-05T14:29:22.424Z</time></trkpt><trkpt lat="42.8464143" lon="12.9591787"><ele>436.0</ele><time>2026-04-05T14:29:23.423Z</time></trkpt><trkpt lat="42.8465231" lon="12.9593754"><ele>432.0</ele><time>2026-04-05T14:29:24.423Z</time></trkpt><trkpt lat="42.8466305" lon="12.9595653"><ele>428.0</ele><time>2026-04-05T14:29:25.424Z</time></trkpt><trkpt lat="42.8467426" lon="12.9597607"><ele>424.0</ele><time>2026-04-05T14:29:26.424Z</time></trkpt><trkpt lat="42.8468502" lon="12.959962"><ele>429.6666666666667</ele><time>2026-04-05T14:29:27.424Z</time></trkpt><trkpt lat="42.8469549" lon="12.960167"><ele>435.33333333333337</ele><time>2026-04-05T14:29:28.423Z</time></trkpt><trkpt lat="42.8470547" lon="12.9603816"><ele>441.0</ele><time>2026-04-05T14:29:29.424Z</time></trkpt><trkpt lat="42.8471487" lon="12.9606084"><ele>441.0</ele><time>2026-04-05T14:29:30.423Z</time></trkpt><trkpt lat="42.8472488" lon="12.9608331"><ele>441.0</ele><time>2026-04-05T14:29:31.424Z</time></trkpt><trkpt lat="42.8473491" lon="12.9610688"><ele>441.0</ele><time>2026-04-05T14:29:32.424Z</time></trkpt><trkpt lat="42.8474493" lon="12.9613046"><ele>440.66666666666663</ele><time>2026-04-05T14:29:33.424Z</time></trkpt><trkpt lat="42.8475481" lon="12.9615353"><ele>440.3333333333333</ele><time>2026-04-05T14:29:34.423Z</time></trkpt><trkpt lat="42.8476604" lon="12.9617512"><ele>440.0</ele><time>2026-04-05T14:29:35.424Z</time></trkpt><trkpt lat="42.8477725" lon="12.9619656"><ele>440.0</ele><time>2026-04-05T14:29:36.424Z</time></trkpt><trkpt lat="42.8478946" lon="12.962173"><ele>440.0</ele><time>2026-04-05T14:29:37.423Z</time></trkpt><trkpt lat="42.8480207" lon="12.9623856"><ele>440.0</ele><time>2026-04-05T14:29:38.424Z</time></trkpt><trkpt lat="42.8481441" lon="12.9625939"><ele>435.0</ele><time>2026-04-05T14:29:39.424Z</time></trkpt><trkpt lat="42.8482727" lon="12.9628027"><ele>430.0</ele><time>2026-04-05T14:29:40.424Z</time></trkpt><trkpt lat="42.8483975" lon="12.9630026"><ele>425.0</ele><time>2026-04-05T14:29:41.423Z</time></trkpt><trkpt lat="42.8485242" lon="12.9631969"><ele>426.66666666666663</ele><time>2026-04-05T14:29:42.423Z</time></trkpt><trkpt lat="42.848651" lon="12.9633818"><ele>428.33333333333337</ele><time>2026-04-05T14:29:43.424Z</time></trkpt><trkpt lat="42.8487821" lon="12.9635605"><ele>430.0</ele><time>2026-04-05T14:29:44.424Z</time></trkpt><trkpt lat="42.848908" lon="12.9637394"><ele>430.0</ele><time>2026-04-05T14:29:45.424Z</time></trkpt><trkpt lat="42.8490407" lon="12.963922"><ele>430.0</ele><time>2026-04-05T14:29:46.424Z</time></trkpt><trkpt lat="42.8491692" lon="12.9641079"><ele>430.0</ele><time>2026-04-05T14:29:47.424Z</time></trkpt><trkpt lat="42.8493033" lon="12.9643042"><ele>433.6666666666667</ele><time>2026-04-05T14:29:48.424Z</time></trkpt><trkpt lat="42.8494429" lon="12.964494"><ele>437.33333333333337</ele><time>2026-04-05T14:29:49.424Z</time></trkpt><trkpt lat="42.8495822" lon="12.9646795"><ele>441.0</ele><time>2026-04-05T14:29:50.424Z</time></trkpt><trkpt lat="42.8497203" lon="12.9648539"><ele>441.0</ele><time>2026-04-05T14:29:51.423Z</time></trkpt><trkpt lat="42.8498626" lon="12.9650153"><ele>441.0</ele><time>2026-04-05T14:29:52.424Z</time></trkpt><trkpt lat="42.850013" lon="12.9651663"><ele>441.0</ele><time>2026-04-05T14:29:53.424Z</time></trkpt><trkpt lat="42.8501727" lon="12.9653121"><ele>442.0</ele><time>2026-04-05T14:29:54.424Z</time></trkpt><trkpt lat="42.8503052" lon="12.9654535"><ele>443.0</ele><time>2026-04-05T14:29:55.424Z</time></trkpt><trkpt lat="42.8504565" lon="12.9655737"><ele>444.0</ele><time>2026-04-05T14:29:56.424Z</time></trkpt><trkpt lat="42.8505939" lon="12.9656947"><ele>444.0</ele><time>2026-04-05T14:29:57.424Z</time></trkpt><trkpt lat="42.8507123" lon="12.9658212"><ele>444.0</ele><time>2026-04-05T14:29:58.424Z</time></trkpt><trkpt lat="42.8508095" lon="12.9659613"><ele>444.0</ele><time>2026-04-05T14:29:59.424Z</time></trkpt><trkpt lat="42.8508853" lon="12.9661084"><ele>444.0</ele><time>2026-04-05T14:30:00.423Z</time></trkpt><trkpt lat="42.8509373" lon="12.9662773"><ele>446.5</ele><time>2026-04-05T14:30:01.423Z</time></trkpt><trkpt lat="42.8509779" lon="12.9664468"><ele>449.0</ele><time>2026-04-05T14:30:02.423Z</time></trkpt><trkpt lat="42.851003" lon="12.9666287"><ele>451.5</ele><time>2026-04-05T14:30:03.424Z</time></trkpt><trkpt lat="42.8510422" lon="12.9668029"><ele>454.0</ele><time>2026-04-05T14:30:04.423Z</time></trkpt><trkpt lat="42.8510992" lon="12.966961"><ele>449.0</ele><time>2026-04-05T14:30:05.424Z</time></trkpt><trkpt lat="42.8511644" lon="12.9671178"><ele>444.0</ele><time>2026-04-05T14:30:06.424Z</time></trkpt><trkpt lat="42.8512648" lon="12.9672458"><ele>439.0</ele><time>2026-04-05T14:30:07.424Z</time></trkpt><trkpt lat="42.851368" lon="12.9673595"><ele>434.0</ele><time>2026-04-05T14:30:08.424Z</time></trkpt><trkpt lat="42.8514874" lon="12.9674547"><ele>432.5</ele><time>2026-04-05T14:30:09.424Z</time></trkpt><trkpt lat="42.8516166" lon="12.9675323"><ele>431.0</ele><time>2026-04-05T14:30:10.424Z</time></trkpt><trkpt lat="42.8517488" lon="12.967606"><ele>429.5</ele><time>2026-04-05T14:30:11.424Z</time></trkpt><trkpt lat="42.8518845" lon="12.96768"><ele>428.0</ele><time>2026-04-05T14:30:12.424Z</time></trkpt><trkpt lat="42.8520224" lon="12.9677587"><ele>428.0</ele><time>2026-04-05T14:30:13.424Z</time></trkpt><trkpt lat="42.8521633" lon="12.9678376"><ele>428.0</ele><time>2026-04-05T14:30:14.424Z</time></trkpt><trkpt lat="42.8523031" lon="12.9679175"><ele>428.0</ele><time>2026-04-05T14:30:15.424Z</time></trkpt><trkpt lat="42.8524391" lon="12.9680113"><ele>428.0</ele><time>2026-04-05T14:30:16.424Z</time></trkpt><trkpt lat="42.8525692" lon="12.9681095"><ele>428.0</ele><time>2026-04-05T14:30:17.424Z</time></trkpt><trkpt lat="42.8526886" lon="12.968223"><ele>428.0</ele><time>2026-04-05T14:30:18.424Z</time></trkpt><trkpt lat="42.8528064" lon="12.9683503"><ele>428.0</ele><time>2026-04-05T14:30:19.423Z</time></trkpt><trkpt lat="42.8528985" lon="12.9685084"><ele>429.75</ele><time>2026-04-05T14:30:20.423Z</time></trkpt><trkpt lat="42.8529862" lon="12.968664"><ele>431.5</ele><time>2026-04-05T14:30:21.424Z</time></trkpt><trkpt lat="42.8530655" lon="12.9688302"><ele>433.25</ele><time>2026-04-05T14:30:22.424Z</time></trkpt><trkpt lat="42.8531442" lon="12.9689888"><ele>435.0</ele><time>2026-04-05T14:30:23.424Z</time></trkpt><trkpt lat="42.8532098" lon="12.9691369"><ele>433.0</ele><time>2026-04-05T14:30:24.424Z</time></trkpt><trkpt lat="42.8532908" lon="12.9692581"><ele>431.0</ele><time>2026-04-05T14:30:25.424Z</time></trkpt><trkpt lat="42.8533835" lon="12.9693503"><ele>429.0</ele><time>2026-04-05T14:30:26.424Z</time></trkpt><trkpt lat="42.8534896" lon="12.9694089"><ele>427.0</ele><time>2026-04-05T14:30:27.424Z</time></trkpt><trkpt lat="42.853612" lon="12.9694445"><ele>427.0</ele><time>2026-04-05T14:30:28.424Z</time></trkpt><trkpt lat="42.8537333" lon="12.9694798"><ele>427.0</ele><time>2026-04-05T14:30:29.424Z</time></trkpt><trkpt lat="42.8538588" lon="12.9695135"><ele>427.0</ele><time>2026-04-05T14:30:30.424Z</time></trkpt><trkpt lat="42.8539845" lon="12.9695563"><ele>427.0</ele><time>2026-04-05T14:30:31.424Z</time></trkpt><trkpt lat="42.8540983" lon="12.9696153"><ele>427.0</ele><time>2026-04-05T14:30:32.424Z</time></trkpt><trkpt lat="42.8542128" lon="12.9696926"><ele>427.0</ele><time>2026-04-05T14:30:33.423Z</time></trkpt><trkpt lat="42.8543253" lon="12.9697782"><ele>427.0</ele><time>2026-04-05T14:30:34.424Z</time></trkpt><trkpt lat="42.8544405" lon="12.9698863"><ele>427.0</ele><time>2026-04-05T14:30:35.424Z</time></trkpt><trkpt lat="42.8545522" lon="12.9699987"><ele>429.25</ele><time>2026-04-05T14:30:36.424Z</time></trkpt><trkpt lat="42.854665" lon="12.9701045"><ele>431.5</ele><time>2026-04-05T14:30:37.424Z</time></trkpt><trkpt lat="42.8547772" lon="12.9702153"><ele>433.75</ele><time>2026-04-05T14:30:38.424Z</time></trkpt><trkpt lat="42.8548878" lon="12.9703255"><ele>436.0</ele><time>2026-04-05T14:30:39.424Z</time></trkpt><trkpt lat="42.8549964" lon="12.9704453"><ele>436.0</ele><time>2026-04-05T14:30:40.424Z</time></trkpt><trkpt lat="42.8550939" lon="12.970581"><ele>436.0</ele><time>2026-04-05T14:30:41.424Z</time></trkpt><trkpt lat="42.8551913" lon="12.9707186"><ele>436.0</ele><time>2026-04-05T14:30:42.424Z</time></trkpt><trkpt lat="42.8552696" lon="12.9708731"><ele>436.0</ele><time>2026-04-05T14:30:43.424Z</time></trkpt><trkpt lat="42.8553507" lon="12.971019"><ele>440.0</ele><time>2026-04-05T14:30:44.424Z</time></trkpt><trkpt lat="42.8554332" lon="12.9711695"><ele>444.0</ele><time>2026-04-05T14:30:45.424Z</time></trkpt><trkpt lat="42.8555109" lon="12.9713223"><ele>448.0</ele><time>2026-04-05T14:30:46.424Z</time></trkpt><trkpt lat="42.855594" lon="12.9714752"><ele>452.0</ele><time>2026-04-05T14:30:47.423Z</time></trkpt><trkpt lat="42.855679" lon="12.9716268"><ele>446.5</ele><time>2026-04-05T14:30:48.424Z</time></trkpt><trkpt lat="42.855745" lon="12.9717864"><ele>441.0</ele><time>2026-04-05T14:30:49.424Z</time></trkpt><trkpt lat="42.8557998" lon="12.9719344"><ele>435.5</ele><time>2026-04-05T14:30:50.423Z</time></trkpt><trkpt lat="42.8558522" lon="12.9720845"><ele>430.0</ele><time>2026-04-05T14:30:51.424Z</time></trkpt><trkpt lat="42.8559022" lon="12.9722234"><ele>430.0</ele><time>2026-04-05T14:30:52.424Z</time></trkpt><trkpt lat="42.8559628" lon="12.9723398"><ele>430.0</ele><time>2026-04-05T14:30:53.424Z</time></trkpt><trkpt lat="42.8560476" lon="12.972435"><ele>430.0</ele><time>2026-04-05T14:30:54.424Z</time></trkpt><trkpt lat="42.8561459" lon="12.9724945"><ele>430.0</ele><time>2026-04-05T14:30:55.424Z</time></trkpt><trkpt lat="42.8562626" lon="12.9725281"><ele>430.0</ele><time>2026-04-05T14:30:56.424Z</time></trkpt><trkpt lat="42.8563881" lon="12.9725448"><ele>430.0</ele><time>2026-04-05T14:30:57.424Z</time></trkpt><trkpt lat="42.8565174" lon="12.9725583"><ele>430.0</ele><time>2026-04-05T14:30:58.424Z</time></trkpt><trkpt lat="42.8566532" lon="12.9725761"><ele>430.0</ele><time>2026-04-05T14:30:59.424Z</time></trkpt><trkpt lat="42.8568004" lon="12.9726092"><ele>430.0</ele><time>2026-04-05T14:31:00.424Z</time></trkpt><trkpt lat="42.8569398" lon="12.9726606"><ele>431.0</ele><time>2026-04-05T14:31:01.424Z</time></trkpt><trkpt lat="42.8570815" lon="12.9727189"><ele>432.0</ele><time>2026-04-05T14:31:02.424Z</time></trkpt><trkpt lat="42.8572126" lon="12.9727872"><ele>433.0</ele><time>2026-04-05T14:31:03.424Z</time></trkpt><trkpt lat="42.8573339" lon="12.9728537"><ele>434.0</ele><time>2026-04-05T14:31:04.424Z</time></trkpt><trkpt lat="42.857455" lon="12.9729458"><ele>434.0</ele><time>2026-04-05T14:31:05.423Z</time></trkpt><trkpt lat="42.8575636" lon="12.9730641"><ele>434.0</ele><time>2026-04-05T14:31:06.424Z</time></trkpt><trkpt lat="42.8576712" lon="12.973195"><ele>434.0</ele><time>2026-04-05T14:31:07.424Z</time></trkpt><trkpt lat="42.8577854" lon="12.9733343"><ele>434.0</ele><time>2026-04-05T14:31:08.423Z</time></trkpt><trkpt lat="42.8579094" lon="12.9734846"><ele>433.3333333333333</ele><time>2026-04-05T14:31:09.424Z</time></trkpt><trkpt lat="42.8580302" lon="12.9736335"><ele>432.66666666666663</ele><time>2026-04-05T14:31:10.424Z</time></trkpt><trkpt lat="42.8581644" lon="12.973766"><ele>432.0</ele><time>2026-04-05T14:31:11.424Z</time></trkpt><trkpt lat="42.8582943" lon="12.9738812"><ele>432.0</ele><time>2026-04-05T14:31:12.423Z</time></trkpt><trkpt lat="42.8584299" lon="12.9739842"><ele>432.0</ele><time>2026-04-05T14:31:13.424Z</time></trkpt><trkpt lat="42.8585578" lon="12.9740894"><ele>432.0</ele><time>2026-04-05T14:31:14.424Z</time></trkpt><trkpt lat="42.8586859" lon="12.9741715"><ele>432.0</ele><time>2026-04-05T14:31:15.424Z</time></trkpt><trkpt lat="42.8588127" lon="12.9742386"><ele>432.75</ele><time>2026-04-05T14:31:16.423Z</time></trkpt><trkpt lat="42.8589401" lon="12.9742709"><ele>433.5</ele><time>2026-04-05T14:31:17.423Z</time></trkpt><trkpt lat="42.8590665" lon="12.9742844"><ele>434.25</ele><time>2026-04-05T14:31:18.424Z</time></trkpt><trkpt lat="42.8591933" lon="12.9742612"><ele>435.0</ele><time>2026-04-05T14:31:19.424Z</time></trkpt><trkpt lat="42.859328" lon="12.9741985"><ele>438.25</ele><time>2026-04-05T14:31:20.424Z</time></trkpt><trkpt lat="42.8594509" lon="12.9741218"><ele>441.5</ele><time>2026-04-05T14:31:21.423Z</time></trkpt><trkpt lat="42.8595659" lon="12.9740574"><ele>444.75</ele><time>2026-04-05T14:31:22.424Z</time></trkpt><trkpt lat="42.8596819" lon="12.9739844"><ele>448.0</ele><time>2026-04-05T14:31:23.424Z</time></trkpt><trkpt lat="42.8598059" lon="12.9739308"><ele>448.0</ele><time>2026-04-05T14:31:24.424Z</time></trkpt><trkpt lat="42.8599239" lon="12.9739091"><ele>448.0</ele><time>2026-04-05T14:31:25.424Z</time></trkpt><trkpt lat="42.8600558" lon="12.9739224"><ele>448.0</ele><time>2026-04-05T14:31:26.423Z</time></trkpt><trkpt lat="42.8601891" lon="12.9739502"><ele>448.0</ele><time>2026-04-05T14:31:27.424Z</time></trkpt><trkpt lat="42.8603202" lon="12.9739862"><ele>448.25</ele><time>2026-04-05T14:31:28.424Z</time></trkpt><trkpt lat="42.8604434" lon="12.9740182"><ele>448.5</ele><time>2026-04-05T14:31:29.424Z</time></trkpt><trkpt lat="42.86056" lon="12.9741091"><ele>448.75</ele><time>2026-04-05T14:31:30.424Z</time></trkpt><trkpt lat="42.8606827" lon="12.9741656"><ele>449.0</ele><time>2026-04-05T14:31:31.424Z</time></trkpt><trkpt lat="42.8607738" lon="12.9742732"><ele>449.0</ele><time>2026-04-05T14:31:32.424Z</time></trkpt><trkpt lat="42.8608564" lon="12.9743995"><ele>449.0</ele><time>2026-04-05T14:31:33.424Z</time></trkpt><trkpt lat="42.8609254" lon="12.9745492"><ele>449.0</ele><time>2026-04-05T14:31:34.423Z</time></trkpt><trkpt lat="42.8609733" lon="12.9747314"><ele>449.0</ele><time>2026-04-05T14:31:35.424Z</time></trkpt><trkpt lat="42.8610141" lon="12.9749278"><ele>455.75</ele><time>2026-04-05T14:31:36.424Z</time></trkpt><trkpt lat="42.8610538" lon="12.975129"><ele>462.5</ele><time>2026-04-05T14:31:37.424Z</time></trkpt><trkpt lat="42.8611025" lon="12.9753119"><ele>469.25</ele><time>2026-04-05T14:31:38.424Z</time></trkpt><trkpt lat="42.8611547" lon="12.9755024"><ele>476.0</ele><time>2026-04-05T14:31:39.424Z</time></trkpt><trkpt lat="42.861217" lon="12.9756901"><ele>472.5</ele><time>2026-04-05T14:31:40.424Z</time></trkpt><trkpt lat="42.8612848" lon="12.9758722"><ele>469.0</ele><time>2026-04-05T14:31:41.424Z</time></trkpt><trkpt lat="42.861341" lon="12.976051"><ele>465.5</ele><time>2026-04-05T14:31:42.424Z</time></trkpt><trkpt lat="42.861398" lon="12.9762288"><ele>462.0</ele><time>2026-04-05T14:31:43.424Z</time></trkpt><trkpt lat="42.86142" lon="12.9764277"><ele>462.0</ele><time>2026-04-05T14:31:44.424Z</time></trkpt><trkpt lat="42.8614188" lon="12.9766312"><ele>462.0</ele><time>2026-04-05T14:31:45.424Z</time></trkpt><trkpt lat="42.8613923" lon="12.9768414"><ele>462.0</ele><time>2026-04-05T14:31:46.424Z</time></trkpt><trkpt lat="42.8613632" lon="12.9770553"><ele>463.33333333333337</ele><time>2026-04-05T14:31:47.424Z</time></trkpt><trkpt lat="42.8613263" lon="12.9772728"><ele>464.6666666666667</ele><time>2026-04-05T14:31:48.424Z</time></trkpt><trkpt lat="42.8612863" lon="12.9774894"><ele>466.0</ele><time>2026-04-05T14:31:49.424Z</time></trkpt><trkpt lat="42.8612579" lon="12.977713"><ele>466.0</ele><time>2026-04-05T14:31:50.424Z</time></trkpt><trkpt lat="42.8612411" lon="12.9779403"><ele>466.0</ele><time>2026-04-05T14:31:51.424Z</time></trkpt><trkpt lat="42.8612312" lon="12.9781686"><ele>466.0</ele><time>2026-04-05T14:31:52.424Z</time></trkpt><trkpt lat="42.861223" lon="12.9783981"><ele>471.6666666666667</ele><time>2026-04-05T14:31:53.423Z</time></trkpt><trkpt lat="42.8612035" lon="12.9786325"><ele>477.33333333333337</ele><time>2026-04-05T14:31:54.424Z</time></trkpt><trkpt lat="42.861177" lon="12.9788631"><ele>483.0</ele><time>2026-04-05T14:31:55.423Z</time></trkpt><trkpt lat="42.861153" lon="12.9790854"><ele>481.75</ele><time>2026-04-05T14:31:56.423Z</time></trkpt><trkpt lat="42.8611288" lon="12.9792915"><ele>480.5</ele><time>2026-04-05T14:31:57.424Z</time></trkpt><trkpt lat="42.8611051" lon="12.9794864"><ele>479.25</ele><time>2026-04-05T14:31:58.424Z</time></trkpt><trkpt lat="42.8610938" lon="12.9796669"><ele>478.0</ele><time>2026-04-05T14:31:59.424Z</time></trkpt><trkpt lat="42.8610903" lon="12.9798335"><ele>478.0</ele><time>2026-04-05T14:32:00.423Z</time></trkpt><trkpt lat="42.8611127" lon="12.9799998"><ele>478.0</ele><time>2026-04-05T14:32:01.424Z</time></trkpt><trkpt lat="42.8611614" lon="12.9801496"><ele>478.0</ele><time>2026-04-05T14:32:02.424Z</time></trkpt><trkpt lat="42.861236" lon="12.9803008"><ele>478.0</ele><time>2026-04-05T14:32:03.424Z</time></trkpt><trkpt lat="42.8613205" lon="12.9804535"><ele>471.0</ele><time>2026-04-05T14:32:04.424Z</time></trkpt><trkpt lat="42.8614183" lon="12.980611"><ele>464.0</ele><time>2026-04-05T14:32:05.424Z</time></trkpt><trkpt lat="42.8615226" lon="12.9807816"><ele>457.0</ele><time>2026-04-05T14:32:06.424Z</time></trkpt><trkpt lat="42.8616207" lon="12.9809633"><ele>453.0</ele><time>2026-04-05T14:32:07.423Z</time></trkpt><trkpt lat="42.8617109" lon="12.9811471"><ele>449.0</ele><time>2026-04-05T14:32:08.424Z</time></trkpt><trkpt lat="42.8618027" lon="12.9813333"><ele>445.0</ele><time>2026-04-05T14:32:09.424Z</time></trkpt><trkpt lat="42.8618959" lon="12.9815121"><ele>445.75</ele><time>2026-04-05T14:32:10.423Z</time></trkpt><trkpt lat="42.861978" lon="12.9816937"><ele>446.5</ele><time>2026-04-05T14:32:11.423Z</time></trkpt><trkpt lat="42.8620595" lon="12.9818538"><ele>447.25</ele><time>2026-04-05T14:32:12.423Z</time></trkpt><trkpt lat="42.8621524" lon="12.9820098"><ele>448.0</ele><time>2026-04-05T14:32:13.424Z</time></trkpt><trkpt lat="42.8622561" lon="12.9821428"><ele>448.0</ele><time>2026-04-05T14:32:14.424Z</time></trkpt><trkpt lat="42.8623868" lon="12.982256"><ele>448.0</ele><time>2026-04-05T14:32:15.424Z</time></trkpt><trkpt lat="42.8625116" lon="12.9823583"><ele>448.0</ele><time>2026-04-05T14:32:16.424Z</time></trkpt><trkpt lat="42.8626401" lon="12.9824406"><ele>448.0</ele><time>2026-04-05T14:32:17.424Z</time></trkpt><trkpt lat="42.8627674" lon="12.9824956"><ele>446.0</ele><time>2026-04-05T14:32:18.424Z</time></trkpt><trkpt lat="42.862909" lon="12.9825292"><ele>444.0</ele><time>2026-04-05T14:32:19.424Z</time></trkpt><trkpt lat="42.863055" lon="12.9825453"><ele>442.0</ele><time>2026-04-05T14:32:20.423Z</time></trkpt><trkpt lat="42.8632105" lon="12.9825615"><ele>440.0</ele><time>2026-04-05T14:32:21.423Z</time></trkpt><trkpt lat="42.8633759" lon="12.9825768"><ele>441.0</ele><time>2026-04-05T14:32:22.424Z</time></trkpt><trkpt lat="42.8635392" lon="12.982602"><ele>442.0</ele><time>2026-04-05T14:32:23.423Z</time></trkpt><trkpt lat="42.8637121" lon="12.9826117"><ele>443.0</ele><time>2026-04-05T14:32:24.424Z</time></trkpt><trkpt lat="42.8638781" lon="12.9826579"><ele>443.0</ele><time>2026-04-05T14:32:25.424Z</time></trkpt><trkpt lat="42.8640501" lon="12.9827403"><ele>443.0</ele><time>2026-04-05T14:32:26.424Z</time></trkpt><trkpt lat="42.864209" lon="12.9828428"><ele>443.0</ele><time>2026-04-05T14:32:27.424Z</time></trkpt><trkpt lat="42.8643676" lon="12.9829383"><ele>446.66666666666663</ele><time>2026-04-05T14:32:28.424Z</time></trkpt><trkpt lat="42.8645149" lon="12.9830505"><ele>450.33333333333337</ele><time>2026-04-05T14:32:29.424Z</time></trkpt><trkpt lat="42.8646584" lon="12.9831695"><ele>454.0</ele><time>2026-04-05T14:32:30.424Z</time></trkpt><trkpt lat="42.8647967" lon="12.9832923"><ele>450.6666666666667</ele><time>2026-04-05T14:32:31.424Z</time></trkpt><trkpt lat="42.8649321" lon="12.9834192"><ele>447.33333333333337</ele><time>2026-04-05T14:32:32.424Z</time></trkpt><trkpt lat="42.8650872" lon="12.9835398"><ele>444.0</ele><time>2026-04-05T14:32:33.424Z</time></trkpt><trkpt lat="42.8652269" lon="12.9836581"><ele>443.66666666666663</ele><time>2026-04-05T14:32:34.423Z</time></trkpt><trkpt lat="42.8653615" lon="12.9837601"><ele>443.3333333333333</ele><time>2026-04-05T14:32:35.424Z</time></trkpt><trkpt lat="42.8655017" lon="12.9838266"><ele>443.0</ele><time>2026-04-05T14:32:36.423Z</time></trkpt><trkpt lat="42.8656549" lon="12.9838582"><ele>443.0</ele><time>2026-04-05T14:32:37.424Z</time></trkpt><trkpt lat="42.8658123" lon="12.9838695"><ele>443.0</ele><time>2026-04-05T14:32:38.424Z</time></trkpt><trkpt lat="42.8659637" lon="12.9838882"><ele>443.0</ele><time>2026-04-05T14:32:39.424Z</time></trkpt><trkpt lat="42.8661303" lon="12.9838973"><ele>444.66666666666663</ele><time>2026-04-05T14:32:40.424Z</time></trkpt><trkpt lat="42.8663029" lon="12.9839029"><ele>446.33333333333337</ele><time>2026-04-05T14:32:41.424Z</time></trkpt><trkpt lat="42.866474" lon="12.9839118"><ele>448.0</ele><time>2026-04-05T14:32:42.424Z</time></trkpt><trkpt lat="42.8666387" lon="12.9839189"><ele>449.33333333333337</ele><time>2026-04-05T14:32:43.424Z</time></trkpt><trkpt lat="42.8668008" lon="12.9839261"><ele>450.66666666666663</ele><time>2026-04-05T14:32:44.423Z</time></trkpt><trkpt lat="42.8669651" lon="12.9839296"><ele>452.0</ele><time>2026-04-05T14:32:45.424Z</time></trkpt><trkpt lat="42.8671191" lon="12.9839495"><ele>452.0</ele><time>2026-04-05T14:32:46.423Z</time></trkpt><trkpt lat="42.8672838" lon="12.9839728"><ele>452.0</ele><time>2026-04-05T14:32:47.423Z</time></trkpt><trkpt lat="42.8674443" lon="12.9840276"><ele>452.0</ele><time>2026-04-05T14:32:48.424Z</time></trkpt><trkpt lat="42.8675999" lon="12.9841039"><ele>452.66666666666663</ele><time>2026-04-05T14:32:49.424Z</time></trkpt><trkpt lat="42.867747" lon="12.9841902"><ele>453.33333333333337</ele><time>2026-04-05T14:32:50.424Z</time></trkpt><trkpt lat="42.8678933" lon="12.9842896"><ele>454.0</ele><time>2026-04-05T14:32:51.423Z</time></trkpt><trkpt lat="42.8680375" lon="12.9843968"><ele>454.0</ele><time>2026-04-05T14:32:52.423Z</time></trkpt><trkpt lat="42.8681697" lon="12.9845158"><ele>454.0</ele><time>2026-04-05T14:32:53.424Z</time></trkpt><trkpt lat="42.8682945" lon="12.9846595"><ele>454.0</ele><time>2026-04-05T14:32:54.424Z</time></trkpt><trkpt lat="42.8683889" lon="12.984832"><ele>458.33333333333337</ele><time>2026-04-05T14:32:55.424Z</time></trkpt><trkpt lat="42.8684599" lon="12.985024"><ele>462.66666666666663</ele><time>2026-04-05T14:32:56.424Z</time></trkpt><trkpt lat="42.8685137" lon="12.9852163"><ele>467.0</ele><time>2026-04-05T14:32:57.424Z</time></trkpt><trkpt lat="42.8685536" lon="12.9854126"><ele>467.0</ele><time>2026-04-05T14:32:58.424Z</time></trkpt><trkpt lat="42.8685935" lon="12.9856113"><ele>467.0</ele><time>2026-04-05T14:32:59.424Z</time></trkpt><trkpt lat="42.8686441" lon="12.9857955"><ele>467.0</ele><time>2026-04-05T14:33:00.424Z</time></trkpt><trkpt lat="42.8687136" lon="12.9859752"><ele>467.0</ele><time>2026-04-05T14:33:01.424Z</time></trkpt><trkpt lat="42.8687994" lon="12.9861435"><ele>464.66666666666663</ele><time>2026-04-05T14:33:02.424Z</time></trkpt><trkpt lat="42.8688991" lon="12.9863128"><ele>462.33333333333337</ele><time>2026-04-05T14:33:03.424Z</time></trkpt><trkpt lat="42.8690009" lon="12.9864912"><ele>460.0</ele><time>2026-04-05T14:33:04.424Z</time></trkpt><trkpt lat="42.8690935" lon="12.9866851"><ele>455.6666666666667</ele><time>2026-04-05T14:33:05.424Z</time></trkpt><trkpt lat="42.8691962" lon="12.9868774"><ele>451.33333333333337</ele><time>2026-04-05T14:33:06.423Z</time></trkpt><trkpt lat="42.8693049" lon="12.9870675"><ele>447.0</ele><time>2026-04-05T14:33:07.424Z</time></trkpt><trkpt lat="42.8694094" lon="12.9872632"><ele>453.0</ele><time>2026-04-05T14:33:08.424Z</time></trkpt><trkpt lat="42.8695024" lon="12.9874508"><ele>459.0</ele><time>2026-04-05T14:33:09.424Z</time></trkpt><trkpt lat="42.8695848" lon="12.9876418"><ele>465.0</ele><time>2026-04-05T14:33:10.424Z</time></trkpt><trkpt lat="42.8696563" lon="12.9878286"><ele>465.0</ele><time>2026-04-05T14:33:11.424Z</time></trkpt><trkpt lat="42.8697082" lon="12.9880113"><ele>465.0</ele><time>2026-04-05T14:33:12.424Z</time></trkpt><trkpt lat="42.8697448" lon="12.9881897"><ele>465.0</ele><time>2026-04-05T14:33:13.424Z</time></trkpt><trkpt lat="42.8697878" lon="12.9883623"><ele>465.0</ele><time>2026-04-05T14:33:14.424Z</time></trkpt><trkpt lat="42.8698358" lon="12.9885149"><ele>467.0</ele><time>2026-04-05T14:33:15.424Z</time></trkpt><trkpt lat="42.8699214" lon="12.98866"><ele>469.0</ele><time>2026-04-05T14:33:16.424Z</time></trkpt><trkpt lat="42.8700118" lon="12.9887935"><ele>471.0</ele><time>2026-04-05T14:33:17.423Z</time></trkpt><trkpt lat="42.8701167" lon="12.9889188"><ele>473.0</ele><time>2026-04-05T14:33:18.424Z</time></trkpt><trkpt lat="42.8702331" lon="12.989033"><ele>473.0</ele><time>2026-04-05T14:33:19.424Z</time></trkpt><trkpt lat="42.8703567" lon="12.9891521"><ele>473.0</ele><time>2026-04-05T14:33:20.423Z</time></trkpt><trkpt lat="42.8704787" lon="12.9892657"><ele>473.0</ele><time>2026-04-05T14:33:21.424Z</time></trkpt><trkpt lat="42.8706019" lon="12.9893834"><ele>473.0</ele><time>2026-04-05T14:33:22.424Z</time></trkpt><trkpt lat="42.8707279" lon="12.9895024"><ele>468.0</ele><time>2026-04-05T14:33:23.423Z</time></trkpt><trkpt lat="42.870854" lon="12.9896032"><ele>463.0</ele><time>2026-04-05T14:33:24.424Z</time></trkpt><trkpt lat="42.8709875" lon="12.989683"><ele>458.0</ele><time>2026-04-05T14:33:25.424Z</time></trkpt><trkpt lat="42.8711303" lon="12.9897502"><ele>453.0</ele><time>2026-04-05T14:33:26.423Z</time></trkpt><trkpt lat="42.8712721" lon="12.9898034"><ele>453.0</ele><time>2026-04-05T14:33:27.424Z</time></trkpt><trkpt lat="42.8714206" lon="12.9898467"><ele>453.0</ele><time>2026-04-05T14:33:28.424Z</time></trkpt><trkpt lat="42.8715884" lon="12.9898653"><ele>453.0</ele><time>2026-04-05T14:33:29.423Z</time></trkpt><trkpt lat="42.8717444" lon="12.989885"><ele>455.33333333333337</ele><time>2026-04-05T14:33:30.424Z</time></trkpt><trkpt lat="42.8719094" lon="12.9898999"><ele>457.6666666666667</ele><time>2026-04-05T14:33:31.423Z</time></trkpt><trkpt lat="42.8720576" lon="12.9899125"><ele>460.0</ele><time>2026-04-05T14:33:32.424Z</time></trkpt><trkpt lat="42.8721964" lon="12.9899097"><ele>460.0</ele><time>2026-04-05T14:33:33.424Z</time></trkpt><trkpt lat="42.8723308" lon="12.989907"><ele>460.0</ele><time>2026-04-05T14:33:34.424Z</time></trkpt><trkpt lat="42.8724578" lon="12.9899057"><ele>460.0</ele><time>2026-04-05T14:33:35.423Z</time></trkpt><trkpt lat="42.8725802" lon="12.9899097"><ele>460.0</ele><time>2026-04-05T14:33:36.424Z</time></trkpt><trkpt lat="42.8727065" lon="12.9899143"><ele>459.75</ele><time>2026-04-05T14:33:37.424Z</time></trkpt><trkpt lat="42.8728376" lon="12.9899239"><ele>459.5</ele><time>2026-04-05T14:33:38.424Z</time></trkpt><trkpt lat="42.8729875" lon="12.9899248"><ele>459.25</ele><time>2026-04-05T14:33:39.424Z</time></trkpt><trkpt lat="42.8731299" lon="12.9899379"><ele>459.0</ele><time>2026-04-05T14:33:40.423Z</time></trkpt><trkpt lat="42.8732836" lon="12.9899346"><ele>459.0</ele><time>2026-04-05T14:33:41.423Z</time></trkpt><trkpt lat="42.8734349" lon="12.989928"><ele>459.0</ele><time>2026-04-05T14:33:42.424Z</time></trkpt><trkpt lat="42.8735958" lon="12.9899464"><ele>459.0</ele><time>2026-04-05T14:33:43.424Z</time></trkpt><trkpt lat="42.8737621" lon="12.9899504"><ele>458.0</ele><time>2026-04-05T14:33:44.424Z</time></trkpt><trkpt lat="42.8739311" lon="12.9899512"><ele>457.0</ele><time>2026-04-05T14:33:45.424Z</time></trkpt><trkpt lat="42.8741009" lon="12.9899664"><ele>456.0</ele><time>2026-04-05T14:33:46.424Z</time></trkpt><trkpt lat="42.8742734" lon="12.9899717"><ele>456.0</ele><time>2026-04-05T14:33:47.424Z</time></trkpt><trkpt lat="42.8744441" lon="12.9899688"><ele>456.0</ele><time>2026-04-05T14:33:48.424Z</time></trkpt><trkpt lat="42.8746036" lon="12.9899724"><ele>456.0</ele><time>2026-04-05T14:33:49.424Z</time></trkpt><trkpt lat="42.8747688" lon="12.9899709"><ele>456.0</ele><time>2026-04-05T14:33:50.424Z</time></trkpt><trkpt lat="42.87493" lon="12.9899815"><ele>456.0</ele><time>2026-04-05T14:33:51.424Z</time></trkpt><trkpt lat="42.8751003" lon="12.9899857"><ele>456.0</ele><time>2026-04-05T14:33:52.424Z</time></trkpt><trkpt lat="42.8752705" lon="12.989981"><ele>457.33333333333337</ele><time>2026-04-05T14:33:53.423Z</time></trkpt><trkpt lat="42.8754476" lon="12.9899773"><ele>458.6666666666667</ele><time>2026-04-05T14:33:54.424Z</time></trkpt><trkpt lat="42.8756198" lon="12.9899721"><ele>460.0</ele><time>2026-04-05T14:33:55.423Z</time></trkpt><trkpt lat="42.8757953" lon="12.9899774"><ele>462.0</ele><time>2026-04-05T14:33:56.424Z</time></trkpt><trkpt lat="42.8759646" lon="12.9899918"><ele>464.0</ele><time>2026-04-05T14:33:57.424Z</time></trkpt><trkpt lat="42.8761447" lon="12.9900192"><ele>466.0</ele><time>2026-04-05T14:33:58.424Z</time></trkpt><trkpt lat="42.8763178" lon="12.9900632"><ele>461.0</ele><time>2026-04-05T14:33:59.424Z</time></trkpt><trkpt lat="42.8764886" lon="12.9901178"><ele>456.0</ele><time>2026-04-05T14:34:00.423Z</time></trkpt><trkpt lat="42.8766612" lon="12.9901755"><ele>451.0</ele><time>2026-04-05T14:34:01.423Z</time></trkpt><trkpt lat="42.87683" lon="12.9902288"><ele>451.0</ele><time>2026-04-05T14:34:02.423Z</time></trkpt><trkpt lat="42.8769969" lon="12.990282"><ele>451.0</ele><time>2026-04-05T14:34:03.423Z</time></trkpt><trkpt lat="42.8771604" lon="12.9903317"><ele>451.0</ele><time>2026-04-05T14:34:04.424Z</time></trkpt><trkpt lat="42.8773164" lon="12.9903881"><ele>451.0</ele><time>2026-04-05T14:34:05.424Z</time></trkpt><trkpt lat="42.8774751" lon="12.9904497"><ele>451.0</ele><time>2026-04-05T14:34:06.424Z</time></trkpt><trkpt lat="42.8776297" lon="12.990503"><ele>451.0</ele><time>2026-04-05T14:34:07.423Z</time></trkpt><trkpt lat="42.8777843" lon="12.9905617"><ele>452.33333333333337</ele><time>2026-04-05T14:34:08.424Z</time></trkpt><trkpt lat="42.8779288" lon="12.9906317"><ele>453.66666666666663</ele><time>2026-04-05T14:34:09.424Z</time></trkpt><trkpt lat="42.8780692" lon="12.990719"><ele>455.0</ele><time>2026-04-05T14:34:10.424Z</time></trkpt><trkpt lat="42.8782042" lon="12.9908108"><ele>454.25</ele><time>2026-04-05T14:34:11.424Z</time></trkpt><trkpt lat="42.8783281" lon="12.9909015"><ele>453.5</ele><time>2026-04-05T14:34:12.424Z</time></trkpt><trkpt lat="42.8784458" lon="12.9909885"><ele>452.75</ele><time>2026-04-05T14:34:13.424Z</time></trkpt><trkpt lat="42.8785517" lon="12.9910645"><ele>452.0</ele><time>2026-04-05T14:34:14.424Z</time></trkpt><trkpt lat="42.8786485" lon="12.9911291"><ele>451.99999999999994</ele><time>2026-04-05T14:34:15.424Z</time></trkpt><trkpt lat="42.8787273" lon="12.9911829"><ele>452.0</ele><time>2026-04-05T14:34:16.424Z</time></trkpt><trkpt lat="42.8787988" lon="12.9912165"><ele>452.0</ele><time>2026-04-05T14:34:17.424Z</time></trkpt><trkpt lat="42.8788941" lon="12.9912831"><ele>452.0</ele><time>2026-04-05T14:34:19.424Z</time></trkpt><trkpt lat="42.8789352" lon="12.9913795"><ele>451.99999999999994</ele><time>2026-04-05T14:34:22.424Z</time></trkpt><trkpt lat="42.8789108" lon="12.9914677"><ele>452.0</ele><time>2026-04-05T14:34:24.424Z</time></trkpt><trkpt lat="42.8788703" lon="12.9915937"><ele>452.20000000000005</ele><time>2026-04-05T14:34:26.424Z</time></trkpt><trkpt lat="42.878804" lon="12.9917501"><ele>452.40000000000003</ele><time>2026-04-05T14:34:28.424Z</time></trkpt><trkpt lat="42.8787451" lon="12.9918949"><ele>452.59999999999997</ele><time>2026-04-05T14:34:30.423Z</time></trkpt><trkpt lat="42.8786986" lon="12.9920048"><ele>452.79999999999995</ele><time>2026-04-05T14:34:32.424Z</time></trkpt><trkpt lat="42.878645" lon="12.9921087"><ele>453.0</ele><time>2026-04-05T14:34:34.423Z</time></trkpt><trkpt lat="42.8786108" lon="12.9921825"><ele>453.0</ele><time>2026-04-05T14:34:35.424Z</time></trkpt><trkpt lat="42.8785662" lon="12.9922626"><ele>453.0</ele><time>2026-04-05T14:34:36.424Z</time></trkpt><trkpt lat="42.8785187" lon="12.9923399"><ele>453.0</ele><time>2026-04-05T14:34:37.424Z</time></trkpt><trkpt lat="42.8784637" lon="12.9924135"><ele>453.0</ele><time>2026-04-05T14:34:38.424Z</time></trkpt><trkpt lat="42.8784082" lon="12.9924941"><ele>453.0</ele><time>2026-04-05T14:34:39.424Z</time></trkpt><trkpt lat="42.8783429" lon="12.9925864"><ele>453.0</ele><time>2026-04-05T14:34:40.423Z</time></trkpt><trkpt lat="42.878271" lon="12.9926769"><ele>452.79999999999995</ele><time>2026-04-05T14:34:41.424Z</time></trkpt><trkpt lat="42.8781975" lon="12.9927662"><ele>452.59999999999997</ele><time>2026-04-05T14:34:42.423Z</time></trkpt><trkpt lat="42.8781142" lon="12.9928594"><ele>452.40000000000003</ele><time>2026-04-05T14:34:43.424Z</time></trkpt><trkpt lat="42.8780271" lon="12.9929487"><ele>452.20000000000005</ele><time>2026-04-05T14:34:44.424Z</time></trkpt><trkpt lat="42.8779352" lon="12.993029"><ele>452.0</ele><time>2026-04-05T14:34:45.424Z</time></trkpt><trkpt lat="42.87784" lon="12.9931108"><ele>452.0</ele><time>2026-04-05T14:34:46.424Z</time></trkpt><trkpt lat="42.8777452" lon="12.9932015"><ele>452.00000000000006</ele><time>2026-04-05T14:34:47.424Z</time></trkpt><trkpt lat="42.8776533" lon="12.9932878"><ele>452.00000000000006</ele><time>2026-04-05T14:34:48.424Z</time></trkpt><trkpt lat="42.8775596" lon="12.9933738"><ele>452.0</ele><time>2026-04-05T14:34:49.424Z</time></trkpt><trkpt lat="42.8774718" lon="12.9934533"><ele>452.0</ele><time>2026-04-05T14:34:50.423Z</time></trkpt><trkpt lat="42.8773821" lon="12.9935267"><ele>455.20000000000005</ele><time>2026-04-05T14:34:51.424Z</time></trkpt><trkpt lat="42.8773026" lon="12.9935995"><ele>458.40000000000003</ele><time>2026-04-05T14:34:52.424Z</time></trkpt><trkpt lat="42.8772314" lon="12.9936739"><ele>461.59999999999997</ele><time>2026-04-05T14:34:53.423Z</time></trkpt><trkpt lat="42.8771816" lon="12.9937705"><ele>464.79999999999995</ele><time>2026-04-05T14:34:54.424Z</time></trkpt><trkpt lat="42.8771524" lon="12.9938879"><ele>468.0</ele><time>2026-04-05T14:34:55.423Z</time></trkpt><trkpt lat="42.8771557" lon="12.9940105"><ele>468.0</ele><time>2026-04-05T14:34:56.424Z</time></trkpt><trkpt lat="42.8771834" lon="12.9941329"><ele>467.99999999999994</ele><time>2026-04-05T14:34:57.424Z</time></trkpt><trkpt lat="42.8772307" lon="12.994259"><ele>467.99999999999994</ele><time>2026-04-05T14:34:58.424Z</time></trkpt><trkpt lat="42.8772754" lon="12.9943779"><ele>468.0</ele><time>2026-04-05T14:34:59.424Z</time></trkpt><trkpt lat="42.8773301" lon="12.994492"><ele>468.0</ele><time>2026-04-05T14:35:00.424Z</time></trkpt><trkpt lat="42.8774535" lon="12.9946102"><ele>466.75</ele><time>2026-04-05T14:35:01.423Z</time></trkpt><trkpt lat="42.8775412" lon="12.9947382"><ele>465.5</ele><time>2026-04-05T14:35:02.424Z</time></trkpt><trkpt lat="42.8776398" lon="12.9948783"><ele>464.25</ele><time>2026-04-05T14:35:03.424Z</time></trkpt><trkpt lat="42.877736" lon="12.9950089"><ele>463.0</ele><time>2026-04-05T14:35:04.424Z</time></trkpt><trkpt lat="42.8778266" lon="12.995163"><ele>465.75</ele><time>2026-04-05T14:35:05.423Z</time></trkpt><trkpt lat="42.8779074" lon="12.9953277"><ele>468.5</ele><time>2026-04-05T14:35:06.423Z</time></trkpt><trkpt lat="42.8779674" lon="12.9955111"><ele>471.25</ele><time>2026-04-05T14:35:07.424Z</time></trkpt><trkpt lat="42.8780174" lon="12.9956965"><ele>474.0</ele><time>2026-04-05T14:35:08.424Z</time></trkpt><trkpt lat="42.8780625" lon="12.9958814"><ele>474.0</ele><time>2026-04-05T14:35:09.424Z</time></trkpt><trkpt lat="42.8781119" lon="12.9960669"><ele>474.0</ele><time>2026-04-05T14:35:10.424Z</time></trkpt><trkpt lat="42.8781652" lon="12.9962548"><ele>474.0</ele><time>2026-04-05T14:35:11.424Z</time></trkpt><trkpt lat="42.878212" lon="12.9964554"><ele>474.0</ele><time>2026-04-05T14:35:12.424Z</time></trkpt><trkpt lat="42.8782605" lon="12.9966534"><ele>470.0</ele><time>2026-04-05T14:35:13.423Z</time></trkpt><trkpt lat="42.8783053" lon="12.9968644"><ele>466.0</ele><time>2026-04-05T14:35:14.424Z</time></trkpt><trkpt lat="42.8783325" lon="12.9970771"><ele>462.0</ele><time>2026-04-05T14:35:15.424Z</time></trkpt><trkpt lat="42.8783762" lon="12.9972867"><ele>462.0</ele><time>2026-04-05T14:35:16.424Z</time></trkpt><trkpt lat="42.8784233" lon="12.9974972"><ele>462.0</ele><time>2026-04-05T14:35:17.424Z</time></trkpt><trkpt lat="42.878471" lon="12.9977169"><ele>462.0</ele><time>2026-04-05T14:35:18.423Z</time></trkpt><trkpt lat="42.8785176" lon="12.9979353"><ele>467.33333333333337</ele><time>2026-04-05T14:35:19.424Z</time></trkpt><trkpt lat="42.8785627" lon="12.9981499"><ele>472.6666666666667</ele><time>2026-04-05T14:35:20.424Z</time></trkpt><trkpt lat="42.8786013" lon="12.998347"><ele>478.0</ele><time>2026-04-05T14:35:21.423Z</time></trkpt><trkpt lat="42.8786438" lon="12.9985411"><ele>478.0</ele><time>2026-04-05T14:35:22.424Z</time></trkpt><trkpt lat="42.878698" lon="12.9987118"><ele>478.0</ele><time>2026-04-05T14:35:23.424Z</time></trkpt><trkpt lat="42.8787678" lon="12.9988695"><ele>478.0</ele><time>2026-04-05T14:35:24.423Z</time></trkpt><trkpt lat="42.8788586" lon="12.9990062"><ele>478.0</ele><time>2026-04-05T14:35:25.424Z</time></trkpt><trkpt lat="42.8789546" lon="12.999138"><ele>481.6666666666667</ele><time>2026-04-05T14:35:26.424Z</time></trkpt><trkpt lat="42.8790574" lon="12.9992776"><ele>485.33333333333337</ele><time>2026-04-05T14:35:27.423Z</time></trkpt><trkpt lat="42.8791669" lon="12.9994243"><ele>489.0</ele><time>2026-04-05T14:35:28.424Z</time></trkpt><trkpt lat="42.8792726" lon="12.9995742"><ele>489.0</ele><time>2026-04-05T14:35:29.424Z</time></trkpt><trkpt lat="42.8793656" lon="12.9997346"><ele>489.0</ele><time>2026-04-05T14:35:30.424Z</time></trkpt><trkpt lat="42.8794312" lon="12.9999131"><ele>489.0</ele><time>2026-04-05T14:35:31.424Z</time></trkpt><trkpt lat="42.8794755" lon="13.000109"><ele>489.0</ele><time>2026-04-05T14:35:32.423Z</time></trkpt><trkpt lat="42.8795069" lon="13.0003076"><ele>489.0</ele><time>2026-04-05T14:35:33.424Z</time></trkpt><trkpt lat="42.879522" lon="13.000519"><ele>489.0</ele><time>2026-04-05T14:35:34.424Z</time></trkpt><trkpt lat="42.8795485" lon="13.0007321"><ele>489.0</ele><time>2026-04-05T14:35:35.424Z</time></trkpt><trkpt lat="42.8795737" lon="13.0009509"><ele>486.33333333333337</ele><time>2026-04-05T14:35:36.424Z</time></trkpt><trkpt lat="42.8796067" lon="13.0011655"><ele>483.6666666666667</ele><time>2026-04-05T14:35:37.424Z</time></trkpt><trkpt lat="42.8796629" lon="13.0013745"><ele>481.0</ele><time>2026-04-05T14:35:38.423Z</time></trkpt><trkpt lat="42.8797298" lon="13.001568"><ele>478.0</ele><time>2026-04-05T14:35:39.423Z</time></trkpt><trkpt lat="42.8798037" lon="13.0017536"><ele>475.0</ele><time>2026-04-05T14:35:40.423Z</time></trkpt><trkpt lat="42.8798709" lon="13.0019422"><ele>472.0</ele><time>2026-04-05T14:35:41.424Z</time></trkpt><trkpt lat="42.8799453" lon="13.0021295"><ele>472.0</ele><time>2026-04-05T14:35:42.423Z</time></trkpt><trkpt lat="42.8800173" lon="13.0023264"><ele>472.0</ele><time>2026-04-05T14:35:43.424Z</time></trkpt><trkpt lat="42.8800714" lon="13.0025371"><ele>472.0</ele><time>2026-04-05T14:35:44.424Z</time></trkpt><trkpt lat="42.8801173" lon="13.0027548"><ele>481.33333333333337</ele><time>2026-04-05T14:35:45.423Z</time></trkpt><trkpt lat="42.8801496" lon="13.0029879"><ele>490.66666666666663</ele><time>2026-04-05T14:35:46.424Z</time></trkpt><trkpt lat="42.8801796" lon="13.003219"><ele>500.0</ele><time>2026-04-05T14:35:47.424Z</time></trkpt><trkpt lat="42.8802148" lon="13.0034475"><ele>500.0</ele><time>2026-04-05T14:35:48.424Z</time></trkpt><trkpt lat="42.8802433" lon="13.0036834"><ele>500.0</ele><time>2026-04-05T14:35:49.424Z</time></trkpt><trkpt lat="42.8802666" lon="13.003921"><ele>500.0</ele><time>2026-04-05T14:35:50.424Z</time></trkpt><trkpt lat="42.8802896" lon="13.0041678"><ele>498.3333333333333</ele><time>2026-04-05T14:35:51.423Z</time></trkpt><trkpt lat="42.8803148" lon="13.0044153"><ele>496.66666666666663</ele><time>2026-04-05T14:35:52.424Z</time></trkpt><trkpt lat="42.8803444" lon="13.0046702"><ele>495.0</ele><time>2026-04-05T14:35:53.423Z</time></trkpt><trkpt lat="42.8803733" lon="13.0049183"><ele>493.0</ele><time>2026-04-05T14:35:54.424Z</time></trkpt><trkpt lat="42.8804035" lon="13.005165"><ele>491.0</ele><time>2026-04-05T14:35:55.424Z</time></trkpt><trkpt lat="42.8804336" lon="13.0054054"><ele>489.0</ele><time>2026-04-05T14:35:56.424Z</time></trkpt><trkpt lat="42.8804663" lon="13.0056311"><ele>486.0</ele><time>2026-04-05T14:35:57.423Z</time></trkpt><trkpt lat="42.8805076" lon="13.0058544"><ele>483.0</ele><time>2026-04-05T14:35:58.423Z</time></trkpt><trkpt lat="42.8805612" lon="13.0060786"><ele>480.0</ele><time>2026-04-05T14:35:59.424Z</time></trkpt><trkpt lat="42.8806255" lon="13.0063022"><ele>480.0</ele><time>2026-04-05T14:36:00.424Z</time></trkpt><trkpt lat="42.8807024" lon="13.006525"><ele>480.0</ele><time>2026-04-05T14:36:01.424Z</time></trkpt><trkpt lat="42.8807747" lon="13.0067417"><ele>480.0</ele><time>2026-04-05T14:36:02.424Z</time></trkpt><trkpt lat="42.8808519" lon="13.0069618"><ele>481.0</ele><time>2026-04-05T14:36:03.423Z</time></trkpt><trkpt lat="42.8809372" lon="13.0071738"><ele>482.0</ele><time>2026-04-05T14:36:04.423Z</time></trkpt><trkpt lat="42.8810202" lon="13.0073912"><ele>483.0</ele><time>2026-04-05T14:36:05.424Z</time></trkpt><trkpt lat="42.881106" lon="13.0076046"><ele>483.0</ele><time>2026-04-05T14:36:06.424Z</time></trkpt><trkpt lat="42.8811949" lon="13.0078227"><ele>483.0</ele><time>2026-04-05T14:36:07.423Z</time></trkpt><trkpt lat="42.8812879" lon="13.0080361"><ele>483.0</ele><time>2026-04-05T14:36:08.424Z</time></trkpt><trkpt lat="42.881386" lon="13.0082524"><ele>482.66666666666663</ele><time>2026-04-05T14:36:09.424Z</time></trkpt><trkpt lat="42.8814854" lon="13.008459"><ele>482.3333333333333</ele><time>2026-04-05T14:36:10.424Z</time></trkpt><trkpt lat="42.8815868" lon="13.0086601"><ele>482.0</ele><time>2026-04-05T14:36:11.423Z</time></trkpt><trkpt lat="42.8816867" lon="13.0088534"><ele>484.3333333333333</ele><time>2026-04-05T14:36:12.424Z</time></trkpt><trkpt lat="42.8817935" lon="13.0090417"><ele>486.66666666666663</ele><time>2026-04-05T14:36:13.424Z</time></trkpt><trkpt lat="42.881915" lon="13.0092204"><ele>489.0</ele><time>2026-04-05T14:36:14.424Z</time></trkpt><trkpt lat="42.882032" lon="13.0094024"><ele>489.0</ele><time>2026-04-05T14:36:15.424Z</time></trkpt><trkpt lat="42.8821608" lon="13.0095793"><ele>489.0</ele><time>2026-04-05T14:36:16.423Z</time></trkpt><trkpt lat="42.8822871" lon="13.0097599"><ele>489.0</ele><time>2026-04-05T14:36:17.424Z</time></trkpt><trkpt lat="42.8824128" lon="13.0099376"><ele>490.66666666666663</ele><time>2026-04-05T14:36:18.424Z</time></trkpt><trkpt lat="42.8825339" lon="13.0101112"><ele>492.3333333333333</ele><time>2026-04-05T14:36:19.424Z</time></trkpt><trkpt lat="42.8826538" lon="13.0102741"><ele>494.0</ele><time>2026-04-05T14:36:20.424Z</time></trkpt><trkpt lat="42.8827672" lon="13.0104268"><ele>494.0</ele><time>2026-04-05T14:36:21.424Z</time></trkpt><trkpt lat="42.8828786" lon="13.0105766"><ele>494.0</ele><time>2026-04-05T14:36:22.423Z</time></trkpt><trkpt lat="42.8829878" lon="13.0107277"><ele>494.0</ele><time>2026-04-05T14:36:23.424Z</time></trkpt><trkpt lat="42.883086" lon="13.0108815"><ele>490.66666666666663</ele><time>2026-04-05T14:36:24.424Z</time></trkpt><trkpt lat="42.8831784" lon="13.0110488"><ele>487.33333333333337</ele><time>2026-04-05T14:36:25.423Z</time></trkpt><trkpt lat="42.8832541" lon="13.0112291"><ele>484.0</ele><time>2026-04-05T14:36:26.424Z</time></trkpt><trkpt lat="42.8833218" lon="13.0114061"><ele>484.0</ele><time>2026-04-05T14:36:27.424Z</time></trkpt><trkpt lat="42.8833578" lon="13.0115812"><ele>484.0</ele><time>2026-04-05T14:36:28.424Z</time></trkpt><trkpt lat="42.8833926" lon="13.0117697"><ele>484.0</ele><time>2026-04-05T14:36:29.424Z</time></trkpt><trkpt lat="42.883404" lon="13.0119725"><ele>484.0</ele><time>2026-04-05T14:36:30.423Z</time></trkpt><trkpt lat="42.8834036" lon="13.0121853"><ele>482.33333333333337</ele><time>2026-04-05T14:36:31.424Z</time></trkpt><trkpt lat="42.8833983" lon="13.0124059"><ele>480.66666666666663</ele><time>2026-04-05T14:36:32.424Z</time></trkpt><trkpt lat="42.8833805" lon="13.012627"><ele>479.0</ele><time>2026-04-05T14:36:33.424Z</time></trkpt><trkpt lat="42.8833546" lon="13.0128499"><ele>479.0</ele><time>2026-04-05T14:36:34.424Z</time></trkpt><trkpt lat="42.8833295" lon="13.0130885"><ele>479.0</ele><time>2026-04-05T14:36:35.423Z</time></trkpt><trkpt lat="42.8833068" lon="13.0133253"><ele>479.0</ele><time>2026-04-05T14:36:36.424Z</time></trkpt><trkpt lat="42.8832845" lon="13.0135628"><ele>480.3333333333333</ele><time>2026-04-05T14:36:37.424Z</time></trkpt><trkpt lat="42.8832669" lon="13.0137868"><ele>481.66666666666663</ele><time>2026-04-05T14:36:38.424Z</time></trkpt><trkpt lat="42.8832559" lon="13.0139974"><ele>483.0</ele><time>2026-04-05T14:36:39.424Z</time></trkpt><trkpt lat="42.883264" lon="13.0142039"><ele>484.0</ele><time>2026-04-05T14:36:40.424Z</time></trkpt><trkpt lat="42.8832862" lon="13.0144132"><ele>485.0</ele><time>2026-04-05T14:36:41.424Z</time></trkpt><trkpt lat="42.8833244" lon="13.0146061"><ele>486.0</ele><time>2026-04-05T14:36:42.424Z</time></trkpt><trkpt lat="42.883395" lon="13.0147974"><ele>491.33333333333337</ele><time>2026-04-05T14:36:43.424Z</time></trkpt><trkpt lat="42.8834839" lon="13.014982"><ele>496.6666666666667</ele><time>2026-04-05T14:36:44.424Z</time></trkpt><trkpt lat="42.8835926" lon="13.0151608"><ele>502.0</ele><time>2026-04-05T14:36:45.424Z</time></trkpt><trkpt lat="42.8837103" lon="13.0153405"><ele>502.0</ele><time>2026-04-05T14:36:46.424Z</time></trkpt><trkpt lat="42.8838221" lon="13.0155193"><ele>502.0</ele><time>2026-04-05T14:36:47.424Z</time></trkpt><trkpt lat="42.8839362" lon="13.0156987"><ele>502.0</ele><time>2026-04-05T14:36:48.424Z</time></trkpt><trkpt lat="42.8840456" lon="13.0158779"><ele>499.0</ele><time>2026-04-05T14:36:49.424Z</time></trkpt><trkpt lat="42.8841508" lon="13.0160734"><ele>496.0</ele><time>2026-04-05T14:36:50.423Z</time></trkpt><trkpt lat="42.8842491" lon="13.0162758"><ele>493.0</ele><time>2026-04-05T14:36:51.424Z</time></trkpt><trkpt lat="42.8843402" lon="13.0164898"><ele>497.0</ele><time>2026-04-05T14:36:52.423Z</time></trkpt><trkpt lat="42.8844219" lon="13.0167145"><ele>501.0</ele><time>2026-04-05T14:36:53.424Z</time></trkpt><trkpt lat="42.884504" lon="13.0169459"><ele>505.0</ele><time>2026-04-05T14:36:54.424Z</time></trkpt><trkpt lat="42.88457" lon="13.0171815"><ele>505.0</ele><time>2026-04-05T14:36:55.424Z</time></trkpt><trkpt lat="42.8846429" lon="13.0174191"><ele>505.0</ele><time>2026-04-05T14:36:56.424Z</time></trkpt><trkpt lat="42.8846982" lon="13.0176664"><ele>505.0</ele><time>2026-04-05T14:36:57.424Z</time></trkpt><trkpt lat="42.8847443" lon="13.0179043"><ele>504.0</ele><time>2026-04-05T14:36:58.424Z</time></trkpt><trkpt lat="42.8847865" lon="13.0181597"><ele>503.0</ele><time>2026-04-05T14:36:59.424Z</time></trkpt><trkpt lat="42.8848266" lon="13.0184102"><ele>502.0</ele><time>2026-04-05T14:37:00.424Z</time></trkpt><trkpt lat="42.8848673" lon="13.0186608"><ele>502.0</ele><time>2026-04-05T14:37:01.424Z</time></trkpt><trkpt lat="42.8849131" lon="13.018903"><ele>502.0</ele><time>2026-04-05T14:37:02.424Z</time></trkpt><trkpt lat="42.8849489" lon="13.0191367"><ele>502.0</ele><time>2026-04-05T14:37:03.424Z</time></trkpt><trkpt lat="42.8849739" lon="13.0193755"><ele>500.6666666666667</ele><time>2026-04-05T14:37:04.424Z</time></trkpt><trkpt lat="42.88497" lon="13.0196132"><ele>499.33333333333337</ele><time>2026-04-05T14:37:05.423Z</time></trkpt><trkpt lat="42.8849412" lon="13.0198461"><ele>498.0</ele><time>2026-04-05T14:37:06.424Z</time></trkpt><trkpt lat="42.8848946" lon="13.0200835"><ele>497.66666666666663</ele><time>2026-04-05T14:37:07.424Z</time></trkpt><trkpt lat="42.8848411" lon="13.0203167"><ele>497.3333333333333</ele><time>2026-04-05T14:37:08.424Z</time></trkpt><trkpt lat="42.8847985" lon="13.0205394"><ele>497.0</ele><time>2026-04-05T14:37:09.423Z</time></trkpt><trkpt lat="42.8847489" lon="13.0207612"><ele>497.66666666666663</ele><time>2026-04-05T14:37:10.424Z</time></trkpt><trkpt lat="42.8847057" lon="13.0209751"><ele>498.33333333333337</ele><time>2026-04-05T14:37:11.424Z</time></trkpt><trkpt lat="42.8846888" lon="13.02119"><ele>499.0</ele><time>2026-04-05T14:37:12.423Z</time></trkpt><trkpt lat="42.884687" lon="13.0214089"><ele>499.0</ele><time>2026-04-05T14:37:13.424Z</time></trkpt><trkpt lat="42.8847039" lon="13.0216304"><ele>499.0</ele><time>2026-04-05T14:37:14.424Z</time></trkpt><trkpt lat="42.8847414" lon="13.0218482"><ele>499.0</ele><time>2026-04-05T14:37:15.424Z</time></trkpt><trkpt lat="42.8847954" lon="13.0220709"><ele>498.6666666666667</ele><time>2026-04-05T14:37:16.423Z</time></trkpt><trkpt lat="42.8848523" lon="13.0223154"><ele>498.33333333333337</ele><time>2026-04-05T14:37:17.424Z</time></trkpt><trkpt lat="42.8849126" lon="13.0225627"><ele>498.0</ele><time>2026-04-05T14:37:18.424Z</time></trkpt><trkpt lat="42.8849601" lon="13.0228121"><ele>497.66666666666663</ele><time>2026-04-05T14:37:19.423Z</time></trkpt><trkpt lat="42.885013" lon="13.0230563"><ele>497.3333333333333</ele><time>2026-04-05T14:37:20.424Z</time></trkpt><trkpt lat="42.8850664" lon="13.0232809"><ele>497.0</ele><time>2026-04-05T14:37:21.424Z</time></trkpt><trkpt lat="42.8851176" lon="13.0234915"><ele>497.0</ele><time>2026-04-05T14:37:22.424Z</time></trkpt><trkpt lat="42.8851418" lon="13.023688"><ele>497.0</ele><time>2026-04-05T14:37:23.423Z</time></trkpt><trkpt lat="42.885147" lon="13.0238786"><ele>497.0</ele><time>2026-04-05T14:37:24.424Z</time></trkpt><trkpt lat="42.8851297" lon="13.024068"><ele>497.0</ele><time>2026-04-05T14:37:25.424Z</time></trkpt><trkpt lat="42.8850744" lon="13.0242647"><ele>497.0</ele><time>2026-04-05T14:37:26.424Z</time></trkpt><trkpt lat="42.8850176" lon="13.0244711"><ele>497.0</ele><time>2026-04-05T14:37:27.424Z</time></trkpt><trkpt lat="42.8849477" lon="13.0246809"><ele>497.0</ele><time>2026-04-05T14:37:28.424Z</time></trkpt><trkpt lat="42.8848874" lon="13.0248929"><ele>500.0</ele><time>2026-04-05T14:37:29.424Z</time></trkpt><trkpt lat="42.8848236" lon="13.0251194"><ele>503.0</ele><time>2026-04-05T14:37:30.424Z</time></trkpt><trkpt lat="42.8847687" lon="13.0253437"><ele>506.0</ele><time>2026-04-05T14:37:31.424Z</time></trkpt><trkpt lat="42.8847058" lon="13.0255747"><ele>506.0</ele><time>2026-04-05T14:37:32.424Z</time></trkpt><trkpt lat="42.8846455" lon="13.0258101"><ele>506.0</ele><time>2026-04-05T14:37:33.424Z</time></trkpt><trkpt lat="42.884581" lon="13.0260438"><ele>506.0</ele><time>2026-04-05T14:37:34.423Z</time></trkpt><trkpt lat="42.8845203" lon="13.0262707"><ele>509.3333333333333</ele><time>2026-04-05T14:37:35.424Z</time></trkpt><trkpt lat="42.8844639" lon="13.0264855"><ele>512.6666666666666</ele><time>2026-04-05T14:37:36.424Z</time></trkpt><trkpt lat="42.8844202" lon="13.0266931"><ele>516.0</ele><time>2026-04-05T14:37:37.424Z</time></trkpt><trkpt lat="42.8843816" lon="13.0269059"><ele>515.6666666666666</ele><time>2026-04-05T14:37:38.424Z</time></trkpt><trkpt lat="42.8843968" lon="13.027139"><ele>515.3333333333333</ele><time>2026-04-05T14:37:39.423Z</time></trkpt><trkpt lat="42.8843984" lon="13.0273623"><ele>515.0</ele><time>2026-04-05T14:37:40.423Z</time></trkpt><trkpt lat="42.8843981" lon="13.0275894"><ele>515.0</ele><time>2026-04-05T14:37:41.424Z</time></trkpt><trkpt lat="42.8843945" lon="13.0278154"><ele>515.0</ele><time>2026-04-05T14:37:42.424Z</time></trkpt><trkpt lat="42.8843678" lon="13.0280311"><ele>515.0</ele><time>2026-04-05T14:37:43.423Z</time></trkpt><trkpt lat="42.8843224" lon="13.028237"><ele>511.66666666666663</ele><time>2026-04-05T14:37:44.423Z</time></trkpt><trkpt lat="42.8842607" lon="13.0284411"><ele>508.33333333333337</ele><time>2026-04-05T14:37:45.423Z</time></trkpt><trkpt lat="42.884186" lon="13.0286375"><ele>505.0</ele><time>2026-04-05T14:37:46.423Z</time></trkpt><trkpt lat="42.8841045" lon="13.0288477"><ele>505.0</ele><time>2026-04-05T14:37:47.423Z</time></trkpt><trkpt lat="42.8840216" lon="13.0290515"><ele>505.0</ele><time>2026-04-05T14:37:48.424Z</time></trkpt><trkpt lat="42.8839266" lon="13.0292647"><ele>505.0</ele><time>2026-04-05T14:37:49.423Z</time></trkpt><trkpt lat="42.8838333" lon="13.029484"><ele>508.33333333333337</ele><time>2026-04-05T14:37:50.424Z</time></trkpt><trkpt lat="42.8837359" lon="13.0297018"><ele>511.66666666666663</ele><time>2026-04-05T14:37:51.424Z</time></trkpt><trkpt lat="42.8836506" lon="13.029917"><ele>515.0</ele><time>2026-04-05T14:37:52.423Z</time></trkpt><trkpt lat="42.8835747" lon="13.0301354"><ele>518.3333333333333</ele><time>2026-04-05T14:37:53.424Z</time></trkpt><trkpt lat="42.8835264" lon="13.0303539"><ele>521.6666666666666</ele><time>2026-04-05T14:37:54.424Z</time></trkpt><trkpt lat="42.8834886" lon="13.030582"><ele>525.0</ele><time>2026-04-05T14:37:55.424Z</time></trkpt><trkpt lat="42.8834635" lon="13.0308199"><ele>529.0</ele><time>2026-04-05T14:37:56.424Z</time></trkpt><trkpt lat="42.8834607" lon="13.0310671"><ele>533.0</ele><time>2026-04-05T14:37:57.424Z</time></trkpt><trkpt lat="42.8834531" lon="13.0313223"><ele>537.0</ele><time>2026-04-05T14:37:58.424Z</time></trkpt><trkpt lat="42.8834494" lon="13.0315782"><ele>540.6666666666666</ele><time>2026-04-05T14:37:59.423Z</time></trkpt><trkpt lat="42.8834494" lon="13.0318247"><ele>544.3333333333333</ele><time>2026-04-05T14:38:00.424Z</time></trkpt><trkpt lat="42.8834449" lon="13.0320726"><ele>548.0</ele><time>2026-04-05T14:38:01.424Z</time></trkpt><trkpt lat="42.8834403" lon="13.0323165"><ele>537.6666666666666</ele><time>2026-04-05T14:38:02.423Z</time></trkpt><trkpt lat="42.8834303" lon="13.0325464"><ele>527.3333333333334</ele><time>2026-04-05T14:38:03.423Z</time></trkpt><trkpt lat="42.8834165" lon="13.0327719"><ele>517.0</ele><time>2026-04-05T14:38:04.424Z</time></trkpt><trkpt lat="42.8833912" lon="13.0329878"><ele>517.0</ele><time>2026-04-05T14:38:05.423Z</time></trkpt><trkpt lat="42.8833476" lon="13.0331756"><ele>517.0</ele><time>2026-04-05T14:38:06.423Z</time></trkpt><trkpt lat="42.8832987" lon="13.0333628"><ele>517.0</ele><time>2026-04-05T14:38:07.424Z</time></trkpt><trkpt lat="42.8832507" lon="13.0335394"><ele>517.0</ele><time>2026-04-05T14:38:08.423Z</time></trkpt><trkpt lat="42.8831975" lon="13.0337008"><ele>518.0</ele><time>2026-04-05T14:38:09.424Z</time></trkpt><trkpt lat="42.8831477" lon="13.0338463"><ele>519.0</ele><time>2026-04-05T14:38:10.424Z</time></trkpt><trkpt lat="42.8830951" lon="13.0339912"><ele>520.0</ele><time>2026-04-05T14:38:11.424Z</time></trkpt><trkpt lat="42.8830518" lon="13.03413"><ele>521.0</ele><time>2026-04-05T14:38:12.424Z</time></trkpt><trkpt lat="42.8830056" lon="13.0342707"><ele>521.4</ele><time>2026-04-05T14:38:13.423Z</time></trkpt><trkpt lat="42.8829627" lon="13.0344103"><ele>521.8</ele><time>2026-04-05T14:38:14.423Z</time></trkpt><trkpt lat="42.8829218" lon="13.0345521"><ele>522.1999999999999</ele><time>2026-04-05T14:38:15.423Z</time></trkpt><trkpt lat="42.8828797" lon="13.0346845"><ele>522.6</ele><time>2026-04-05T14:38:16.424Z</time></trkpt><trkpt lat="42.8828329" lon="13.0347964"><ele>523.0</ele><time>2026-04-05T14:38:17.424Z</time></trkpt><trkpt lat="42.8827935" lon="13.0349026"><ele>523.0</ele><time>2026-04-05T14:38:18.423Z</time></trkpt><trkpt lat="42.8827572" lon="13.035015"><ele>523.0</ele><time>2026-04-05T14:38:19.424Z</time></trkpt><trkpt lat="42.8827238" lon="13.0351357"><ele>523.0</ele><time>2026-04-05T14:38:20.424Z</time></trkpt><trkpt lat="42.882691" lon="13.0352572"><ele>523.0</ele><time>2026-04-05T14:38:21.424Z</time></trkpt><trkpt lat="42.8826592" lon="13.0353683"><ele>523.0</ele><time>2026-04-05T14:38:22.424Z</time></trkpt><trkpt lat="42.8826299" lon="13.0355007"><ele>523.0</ele><time>2026-04-05T14:38:23.423Z</time></trkpt><trkpt lat="42.8826047" lon="13.0356333"><ele>523.0</ele><time>2026-04-05T14:38:24.424Z</time></trkpt><trkpt lat="42.8825902" lon="13.0357777"><ele>523.0</ele><time>2026-04-05T14:38:25.424Z</time></trkpt><trkpt lat="42.8825769" lon="13.0359316"><ele>523.0</ele><time>2026-04-05T14:38:26.423Z</time></trkpt><trkpt lat="42.8825602" lon="13.0360902"><ele>523.0</ele><time>2026-04-05T14:38:27.424Z</time></trkpt><trkpt lat="42.8825428" lon="13.036253"><ele>523.25</ele><time>2026-04-05T14:38:28.424Z</time></trkpt><trkpt lat="42.8825217" lon="13.0364188"><ele>523.5</ele><time>2026-04-05T14:38:29.424Z</time></trkpt><trkpt lat="42.8825049" lon="13.0365844"><ele>523.75</ele><time>2026-04-05T14:38:30.423Z</time></trkpt><trkpt lat="42.8824681" lon="13.0367354"><ele>524.0</ele><time>2026-04-05T14:38:31.424Z</time></trkpt><trkpt lat="42.8824181" lon="13.0368945"><ele>524.0</ele><time>2026-04-05T14:38:32.424Z</time></trkpt><trkpt lat="42.8823714" lon="13.0370543"><ele>524.0</ele><time>2026-04-05T14:38:33.424Z</time></trkpt><trkpt lat="42.8823128" lon="13.0372235"><ele>524.0</ele><time>2026-04-05T14:38:34.424Z</time></trkpt><trkpt lat="42.8822488" lon="13.0373971"><ele>524.0</ele><time>2026-04-05T14:38:35.424Z</time></trkpt><trkpt lat="42.882176" lon="13.0375598"><ele>525.5</ele><time>2026-04-05T14:38:36.424Z</time></trkpt><trkpt lat="42.882098" lon="13.0377115"><ele>527.0</ele><time>2026-04-05T14:38:37.424Z</time></trkpt><trkpt lat="42.8820161" lon="13.0378676"><ele>528.5</ele><time>2026-04-05T14:38:38.424Z</time></trkpt><trkpt lat="42.881929" lon="13.0380154"><ele>530.0</ele><time>2026-04-05T14:38:39.423Z</time></trkpt><trkpt lat="42.881829" lon="13.0381583"><ele>529.5</ele><time>2026-04-05T14:38:40.424Z</time></trkpt><trkpt lat="42.8817313" lon="13.0382884"><ele>529.0</ele><time>2026-04-05T14:38:41.424Z</time></trkpt><trkpt lat="42.881617" lon="13.0384363"><ele>528.5</ele><time>2026-04-05T14:38:42.424Z</time></trkpt><trkpt lat="42.8815038" lon="13.0385687"><ele>528.0</ele><time>2026-04-05T14:38:43.424Z</time></trkpt><trkpt lat="42.8814005" lon="13.0387011"><ele>528.0</ele><time>2026-04-05T14:38:44.423Z</time></trkpt><trkpt lat="42.8812905" lon="13.0388237"><ele>528.0</ele><time>2026-04-05T14:38:45.423Z</time></trkpt><trkpt lat="42.8812081" lon="13.0389317"><ele>528.0</ele><time>2026-04-05T14:38:46.424Z</time></trkpt><trkpt lat="42.8811273" lon="13.0390281"><ele>528.0</ele><time>2026-04-05T14:38:47.424Z</time></trkpt><trkpt lat="42.8810592" lon="13.039113"><ele>528.1666666666666</ele><time>2026-04-05T14:38:48.424Z</time></trkpt><trkpt lat="42.8810008" lon="13.0391971"><ele>528.3333333333334</ele><time>2026-04-05T14:38:49.424Z</time></trkpt><trkpt lat="42.8809503" lon="13.0392723"><ele>528.5</ele><time>2026-04-05T14:38:50.424Z</time></trkpt><trkpt lat="42.8809052" lon="13.0393567"><ele>528.6666666666667</ele><time>2026-04-05T14:38:51.424Z</time></trkpt><trkpt lat="42.8808635" lon="13.0394472"><ele>528.8333333333334</ele><time>2026-04-05T14:38:52.424Z</time></trkpt><trkpt lat="42.8808094" lon="13.0395385"><ele>529.0</ele><time>2026-04-05T14:38:53.424Z</time></trkpt><trkpt lat="42.8807619" lon="13.0396289"><ele>529.0</ele><time>2026-04-05T14:38:54.424Z</time></trkpt><trkpt lat="42.880712" lon="13.0397185"><ele>529.0</ele><time>2026-04-05T14:38:55.424Z</time></trkpt><trkpt lat="42.8806566" lon="13.0398144"><ele>529.0</ele><time>2026-04-05T14:38:56.424Z</time></trkpt><trkpt lat="42.8806131" lon="13.0399153"><ele>529.0</ele><time>2026-04-05T14:38:57.424Z</time></trkpt><trkpt lat="42.8805627" lon="13.0400162"><ele>529.0</ele><time>2026-04-05T14:38:58.424Z</time></trkpt><trkpt lat="42.8805173" lon="13.040119"><ele>529.0</ele><time>2026-04-05T14:38:59.423Z</time></trkpt><trkpt lat="42.8804899" lon="13.04024"><ele>530.0</ele><time>2026-04-05T14:39:00.424Z</time></trkpt><trkpt lat="42.8804659" lon="13.0403525"><ele>531.0</ele><time>2026-04-05T14:39:01.424Z</time></trkpt><trkpt lat="42.8804423" lon="13.0404585"><ele>532.0</ele><time>2026-04-05T14:39:02.423Z</time></trkpt><trkpt lat="42.8804233" lon="13.0405533"><ele>533.0</ele><time>2026-04-05T14:39:03.424Z</time></trkpt><trkpt lat="42.8804038" lon="13.0406488"><ele>534.0</ele><time>2026-04-05T14:39:04.423Z</time></trkpt><trkpt lat="42.8803676" lon="13.0407366"><ele>535.0</ele><time>2026-04-05T14:39:05.424Z</time></trkpt><trkpt lat="42.880332" lon="13.0408176"><ele>535.4</ele><time>2026-04-05T14:39:06.424Z</time></trkpt><trkpt lat="42.8802669" lon="13.0408987"><ele>535.8</ele><time>2026-04-05T14:39:07.424Z</time></trkpt><trkpt lat="42.880185" lon="13.04098"><ele>536.2</ele><time>2026-04-05T14:39:08.424Z</time></trkpt><trkpt lat="42.8800964" lon="13.0410601"><ele>536.6</ele><time>2026-04-05T14:39:09.424Z</time></trkpt><trkpt lat="42.8800152" lon="13.041135"><ele>537.0</ele><time>2026-04-05T14:39:10.424Z</time></trkpt><trkpt lat="42.8799357" lon="13.0412056"><ele>535.4</ele><time>2026-04-05T14:39:11.423Z</time></trkpt><trkpt lat="42.8798412" lon="13.0412834"><ele>533.8000000000001</ele><time>2026-04-05T14:39:12.424Z</time></trkpt><trkpt lat="42.8797463" lon="13.0413499"><ele>532.2</ele><time>2026-04-05T14:39:13.424Z</time></trkpt><trkpt lat="42.8796469" lon="13.0414232"><ele>530.6</ele><time>2026-04-05T14:39:14.423Z</time></trkpt><trkpt lat="42.879548" lon="13.0414902"><ele>529.0</ele><time>2026-04-05T14:39:15.424Z</time></trkpt><trkpt lat="42.8794472" lon="13.0415608"><ele>530.25</ele><time>2026-04-05T14:39:16.423Z</time></trkpt><trkpt lat="42.879347" lon="13.0416438"><ele>531.5</ele><time>2026-04-05T14:39:17.424Z</time></trkpt><trkpt lat="42.8792429" lon="13.0417286"><ele>532.75</ele><time>2026-04-05T14:39:18.424Z</time></trkpt><trkpt lat="42.8791466" lon="13.0418025"><ele>534.0</ele><time>2026-04-05T14:39:19.423Z</time></trkpt><trkpt lat="42.8790453" lon="13.0418803"><ele>534.25</ele><time>2026-04-05T14:39:20.424Z</time></trkpt><trkpt lat="42.8789484" lon="13.0419579"><ele>534.5</ele><time>2026-04-05T14:39:21.424Z</time></trkpt><trkpt lat="42.8788456" lon="13.0420363"><ele>534.75</ele><time>2026-04-05T14:39:22.424Z</time></trkpt><trkpt lat="42.8787418" lon="13.0421249"><ele>535.0</ele><time>2026-04-05T14:39:23.424Z</time></trkpt><trkpt lat="42.8786346" lon="13.0422152"><ele>535.0</ele><time>2026-04-05T14:39:24.424Z</time></trkpt><trkpt lat="42.8785318" lon="13.0423098"><ele>535.0</ele><time>2026-04-05T14:39:25.424Z</time></trkpt><trkpt lat="42.8784273" lon="13.0423998"><ele>535.0</ele><time>2026-04-05T14:39:26.424Z</time></trkpt><trkpt lat="42.8783323" lon="13.0425022"><ele>535.0</ele><time>2026-04-05T14:39:27.424Z</time></trkpt><trkpt lat="42.8782354" lon="13.042615"><ele>535.25</ele><time>2026-04-05T14:39:28.424Z</time></trkpt><trkpt lat="42.8781492" lon="13.0427515"><ele>535.5</ele><time>2026-04-05T14:39:29.424Z</time></trkpt><trkpt lat="42.878061" lon="13.0429024"><ele>535.75</ele><time>2026-04-05T14:39:30.424Z</time></trkpt><trkpt lat="42.8779713" lon="13.0430585"><ele>536.0</ele><time>2026-04-05T14:39:31.424Z</time></trkpt><trkpt lat="42.8778911" lon="13.043212"><ele>536.25</ele><time>2026-04-05T14:39:32.423Z</time></trkpt><trkpt lat="42.877808" lon="13.0433701"><ele>536.5</ele><time>2026-04-05T14:39:33.423Z</time></trkpt><trkpt lat="42.8777172" lon="13.043514"><ele>536.75</ele><time>2026-04-05T14:39:34.424Z</time></trkpt><trkpt lat="42.877606" lon="13.0436529"><ele>537.0</ele><time>2026-04-05T14:39:35.423Z</time></trkpt><trkpt lat="42.8774892" lon="13.0437734"><ele>537.0</ele><time>2026-04-05T14:39:36.423Z</time></trkpt><trkpt lat="42.87736" lon="13.04388"><ele>537.0</ele><time>2026-04-05T14:39:37.424Z</time></trkpt><trkpt lat="42.8772291" lon="13.0439584"><ele>537.0</ele><time>2026-04-05T14:39:38.424Z</time></trkpt><trkpt lat="42.8770876" lon="13.0440314"><ele>537.0</ele><time>2026-04-05T14:39:39.423Z</time></trkpt><trkpt lat="42.8769468" lon="13.0440893"><ele>539.5</ele><time>2026-04-05T14:39:40.424Z</time></trkpt><trkpt lat="42.876811" lon="13.0441513"><ele>542.0</ele><time>2026-04-05T14:39:41.424Z</time></trkpt><trkpt lat="42.8766767" lon="13.0442258"><ele>544.5</ele><time>2026-04-05T14:39:42.423Z</time></trkpt><trkpt lat="42.8765446" lon="13.0443217"><ele>547.0</ele><time>2026-04-05T14:39:43.423Z</time></trkpt><trkpt lat="42.8764226" lon="13.0444317"><ele>547.0</ele><time>2026-04-05T14:39:44.423Z</time></trkpt><trkpt lat="42.8763053" lon="13.044564"><ele>547.0</ele><time>2026-04-05T14:39:45.424Z</time></trkpt><trkpt lat="42.8761907" lon="13.0447159"><ele>547.0</ele><time>2026-04-05T14:39:46.424Z</time></trkpt><trkpt lat="42.8760736" lon="13.0448865"><ele>546.3333333333334</ele><time>2026-04-05T14:39:47.424Z</time></trkpt><trkpt lat="42.8759553" lon="13.0450537"><ele>545.6666666666666</ele><time>2026-04-05T14:39:48.424Z</time></trkpt><trkpt lat="42.8758343" lon="13.0452359"><ele>545.0</ele><time>2026-04-05T14:39:49.424Z</time></trkpt><trkpt lat="42.8757111" lon="13.0454043"><ele>545.0</ele><time>2026-04-05T14:39:50.424Z</time></trkpt><trkpt lat="42.8755923" lon="13.0455772"><ele>545.0</ele><time>2026-04-05T14:39:51.424Z</time></trkpt><trkpt lat="42.8754652" lon="13.0457311"><ele>545.0</ele><time>2026-04-05T14:39:52.424Z</time></trkpt><trkpt lat="42.8753324" lon="13.0458618"><ele>545.0</ele><time>2026-04-05T14:39:53.423Z</time></trkpt><trkpt lat="42.8751882" lon="13.0459656"><ele>545.0</ele><time>2026-04-05T14:39:54.424Z</time></trkpt><trkpt lat="42.8750491" lon="13.0460625"><ele>545.0</ele><time>2026-04-05T14:39:55.424Z</time></trkpt><trkpt lat="42.8749057" lon="13.046159"><ele>545.0</ele><time>2026-04-05T14:39:56.423Z</time></trkpt><trkpt lat="42.8747619" lon="13.0462396"><ele>545.0</ele><time>2026-04-05T14:39:57.423Z</time></trkpt><trkpt lat="42.8746251" lon="13.0463427"><ele>545.0</ele><time>2026-04-05T14:39:58.424Z</time></trkpt><trkpt lat="42.8744996" lon="13.0464758"><ele>545.0</ele><time>2026-04-05T14:39:59.424Z</time></trkpt><trkpt lat="42.874383" lon="13.0466165"><ele>545.0</ele><time>2026-04-05T14:40:00.424Z</time></trkpt><trkpt lat="42.8742642" lon="13.0467671"><ele>545.0</ele><time>2026-04-05T14:40:01.424Z</time></trkpt><trkpt lat="42.8741416" lon="13.0469159"><ele>546.6666666666666</ele><time>2026-04-05T14:40:02.424Z</time></trkpt><trkpt lat="42.8740131" lon="13.0470575"><ele>548.3333333333334</ele><time>2026-04-05T14:40:03.424Z</time></trkpt><trkpt lat="42.8738825" lon="13.0472047"><ele>550.0</ele><time>2026-04-05T14:40:04.423Z</time></trkpt><trkpt lat="42.8737517" lon="13.0473417"><ele>550.3333333333334</ele><time>2026-04-05T14:40:05.423Z</time></trkpt><trkpt lat="42.8736219" lon="13.0474682"><ele>550.6666666666666</ele><time>2026-04-05T14:40:06.424Z</time></trkpt><trkpt lat="42.8734901" lon="13.0475778"><ele>551.0</ele><time>2026-04-05T14:40:07.424Z</time></trkpt><trkpt lat="42.8733692" lon="13.0476951"><ele>551.0</ele><time>2026-04-05T14:40:08.424Z</time></trkpt><trkpt lat="42.8732563" lon="13.0478133"><ele>551.0</ele><time>2026-04-05T14:40:09.424Z</time></trkpt><trkpt lat="42.8731521" lon="13.0479431"><ele>551.0</ele><time>2026-04-05T14:40:10.423Z</time></trkpt><trkpt lat="42.8730384" lon="13.0480655"><ele>551.0</ele><time>2026-04-05T14:40:11.424Z</time></trkpt><trkpt lat="42.8729378" lon="13.0482041"><ele>556.0</ele><time>2026-04-05T14:40:12.424Z</time></trkpt><trkpt lat="42.8728412" lon="13.0483504"><ele>561.0</ele><time>2026-04-05T14:40:13.424Z</time></trkpt><trkpt lat="42.8727583" lon="13.0485065"><ele>566.0</ele><time>2026-04-05T14:40:14.423Z</time></trkpt><trkpt lat="42.8726888" lon="13.0486671"><ele>571.0</ele><time>2026-04-05T14:40:15.423Z</time></trkpt><trkpt lat="42.8726102" lon="13.0488166"><ele>571.0</ele><time>2026-04-05T14:40:16.424Z</time></trkpt><trkpt lat="42.8725075" lon="13.0489506"><ele>571.0</ele><time>2026-04-05T14:40:17.424Z</time></trkpt><trkpt lat="42.8723922" lon="13.0490791"><ele>571.0</ele><time>2026-04-05T14:40:18.423Z</time></trkpt><trkpt lat="42.872278" lon="13.0492125"><ele>571.0</ele><time>2026-04-05T14:40:19.423Z</time></trkpt><trkpt lat="42.872156" lon="13.0493519"><ele>571.0</ele><time>2026-04-05T14:40:20.424Z</time></trkpt><trkpt lat="42.8720238" lon="13.0495034"><ele>571.0</ele><time>2026-04-05T14:40:21.424Z</time></trkpt><trkpt lat="42.8718749" lon="13.0496626"><ele>571.0</ele><time>2026-04-05T14:40:22.424Z</time></trkpt><trkpt lat="42.8717218" lon="13.0498147"><ele>570.6666666666667</ele><time>2026-04-05T14:40:23.424Z</time></trkpt><trkpt lat="42.8715611" lon="13.0499684"><ele>570.3333333333334</ele><time>2026-04-05T14:40:24.424Z</time></trkpt><trkpt lat="42.8714023" lon="13.0501105"><ele>570.0</ele><time>2026-04-05T14:40:25.424Z</time></trkpt><trkpt lat="42.8712549" lon="13.0502584"><ele>570.0</ele><time>2026-04-05T14:40:26.423Z</time></trkpt><trkpt lat="42.8711012" lon="13.0503752"><ele>570.0</ele><time>2026-04-05T14:40:27.424Z</time></trkpt><trkpt lat="42.8709467" lon="13.0504717"><ele>570.0</ele><time>2026-04-05T14:40:28.424Z</time></trkpt><trkpt lat="42.8707911" lon="13.0505649"><ele>567.3333333333334</ele><time>2026-04-05T14:40:29.424Z</time></trkpt><trkpt lat="42.8706353" lon="13.0506645"><ele>564.6666666666667</ele><time>2026-04-05T14:40:30.423Z</time></trkpt><trkpt lat="42.8704876" lon="13.0507785"><ele>562.0</ele><time>2026-04-05T14:40:31.424Z</time></trkpt><trkpt lat="42.8703388" lon="13.0509024"><ele>563.3333333333334</ele><time>2026-04-05T14:40:32.424Z</time></trkpt><trkpt lat="42.8701918" lon="13.051006"><ele>564.6666666666666</ele><time>2026-04-05T14:40:33.424Z</time></trkpt><trkpt lat="42.8700407" lon="13.0510858"><ele>566.0</ele><time>2026-04-05T14:40:34.424Z</time></trkpt><trkpt lat="42.8698995" lon="13.0511583"><ele>566.0</ele><time>2026-04-05T14:40:35.423Z</time></trkpt><trkpt lat="42.869769" lon="13.0512198"><ele>566.0</ele><time>2026-04-05T14:40:36.424Z</time></trkpt><trkpt lat="42.869657" lon="13.0513013"><ele>566.0</ele><time>2026-04-05T14:40:37.424Z</time></trkpt><trkpt lat="42.8695561" lon="13.0513881"><ele>566.0</ele><time>2026-04-05T14:40:38.424Z</time></trkpt><trkpt lat="42.8695083" lon="13.051543"><ele>567.75</ele><time>2026-04-05T14:40:39.424Z</time></trkpt><trkpt lat="42.8694548" lon="13.0516889"><ele>569.5</ele><time>2026-04-05T14:40:40.423Z</time></trkpt><trkpt lat="42.8693971" lon="13.0518441"><ele>571.25</ele><time>2026-04-05T14:40:41.423Z</time></trkpt><trkpt lat="42.8693172" lon="13.0520046"><ele>573.0</ele><time>2026-04-05T14:40:42.424Z</time></trkpt><trkpt lat="42.8692349" lon="13.0521613"><ele>573.0</ele><time>2026-04-05T14:40:43.423Z</time></trkpt><trkpt lat="42.86914" lon="13.0523189"><ele>573.0</ele><time>2026-04-05T14:40:44.424Z</time></trkpt><trkpt lat="42.8690449" lon="13.0524718"><ele>573.0</ele><time>2026-04-05T14:40:45.424Z</time></trkpt><trkpt lat="42.8689441" lon="13.0526218"><ele>573.0</ele><time>2026-04-05T14:40:46.423Z</time></trkpt><trkpt lat="42.8688495" lon="13.0527724"><ele>576.5</ele><time>2026-04-05T14:40:47.424Z</time></trkpt><trkpt lat="42.868765" lon="13.0529133"><ele>580.0</ele><time>2026-04-05T14:40:48.424Z</time></trkpt><trkpt lat="42.8687043" lon="13.0530708"><ele>583.5</ele><time>2026-04-05T14:40:49.424Z</time></trkpt><trkpt lat="42.8686642" lon="13.053247"><ele>587.0</ele><time>2026-04-05T14:40:50.423Z</time></trkpt><trkpt lat="42.8686319" lon="13.0534347"><ele>595.3333333333333</ele><time>2026-04-05T14:40:51.424Z</time></trkpt><trkpt lat="42.8685937" lon="13.0536306"><ele>603.6666666666666</ele><time>2026-04-05T14:40:52.424Z</time></trkpt><trkpt lat="42.86854" lon="13.0538285"><ele>612.0</ele><time>2026-04-05T14:40:53.423Z</time></trkpt><trkpt lat="42.8684762" lon="13.0540246"><ele>603.3333333333334</ele><time>2026-04-05T14:40:54.424Z</time></trkpt><trkpt lat="42.868403" lon="13.0542207"><ele>594.6666666666667</ele><time>2026-04-05T14:40:55.424Z</time></trkpt><trkpt lat="42.8683198" lon="13.0543914"><ele>586.0</ele><time>2026-04-05T14:40:56.424Z</time></trkpt><trkpt lat="42.8682235" lon="13.0545422"><ele>586.0</ele><time>2026-04-05T14:40:57.424Z</time></trkpt><trkpt lat="42.8681451" lon="13.0546888"><ele>586.0</ele><time>2026-04-05T14:40:58.424Z</time></trkpt><trkpt lat="42.8680844" lon="13.0548246"><ele>586.0</ele><time>2026-04-05T14:40:59.423Z</time></trkpt><trkpt lat="42.8680543" lon="13.054965"><ele>586.0</ele><time>2026-04-05T14:41:00.424Z</time></trkpt><trkpt lat="42.8680458" lon="13.0550941"><ele>589.0</ele><time>2026-04-05T14:41:01.424Z</time></trkpt><trkpt lat="42.8680473" lon="13.0552226"><ele>592.0</ele><time>2026-04-05T14:41:02.423Z</time></trkpt><trkpt lat="42.8681179" lon="13.0553594"><ele>595.0</ele><time>2026-04-05T14:41:03.424Z</time></trkpt><trkpt lat="42.8681617" lon="13.0555037"><ele>598.0</ele><time>2026-04-05T14:41:04.424Z</time></trkpt><trkpt lat="42.8682068" lon="13.0556634"><ele>598.0</ele><time>2026-04-05T14:41:05.424Z</time></trkpt><trkpt lat="42.8682226" lon="13.0558382"><ele>598.0</ele><time>2026-04-05T14:41:06.424Z</time></trkpt><trkpt lat="42.868242" lon="13.056023"><ele>598.0</ele><time>2026-04-05T14:41:07.423Z</time></trkpt><trkpt lat="42.8682418" lon="13.0562067"><ele>598.0</ele><time>2026-04-05T14:41:08.424Z</time></trkpt><trkpt lat="42.8682303" lon="13.0563918"><ele>598.0</ele><time>2026-04-05T14:41:09.424Z</time></trkpt><trkpt lat="42.8681976" lon="13.0565752"><ele>598.0</ele><time>2026-04-05T14:41:10.424Z</time></trkpt><trkpt lat="42.8681435" lon="13.0567427"><ele>598.0</ele><time>2026-04-05T14:41:11.424Z</time></trkpt><trkpt lat="42.868066" lon="13.0569046"><ele>598.0</ele><time>2026-04-05T14:41:12.424Z</time></trkpt><trkpt lat="42.8679775" lon="13.0570589"><ele>598.5</ele><time>2026-04-05T14:41:13.423Z</time></trkpt><trkpt lat="42.8678853" lon="13.057206"><ele>599.0</ele><time>2026-04-05T14:41:14.424Z</time></trkpt><trkpt lat="42.8677783" lon="13.0573318"><ele>599.5</ele><time>2026-04-05T14:41:15.424Z</time></trkpt><trkpt lat="42.8676564" lon="13.0574376"><ele>600.0</ele><time>2026-04-05T14:41:16.424Z</time></trkpt><trkpt lat="42.8675261" lon="13.0575341"><ele>600.0</ele><time>2026-04-05T14:41:17.424Z</time></trkpt><trkpt lat="42.8674064" lon="13.0576327"><ele>600.0</ele><time>2026-04-05T14:41:18.424Z</time></trkpt><trkpt lat="42.8672833" lon="13.0577166"><ele>600.0</ele><time>2026-04-05T14:41:19.423Z</time></trkpt><trkpt lat="42.8671646" lon="13.0578097"><ele>600.0</ele><time>2026-04-05T14:41:20.424Z</time></trkpt><trkpt lat="42.8670661" lon="13.0578935"><ele>600.0</ele><time>2026-04-05T14:41:21.424Z</time></trkpt><trkpt lat="42.8669799" lon="13.057967"><ele>600.0</ele><time>2026-04-05T14:41:22.423Z</time></trkpt><trkpt lat="42.866918" lon="13.058045"><ele>600.0</ele><time>2026-04-05T14:41:23.424Z</time></trkpt><trkpt lat="42.8668829" lon="13.0581414"><ele>600.0</ele><time>2026-04-05T14:41:24.424Z</time></trkpt><trkpt lat="42.8668733" lon="13.0582377"><ele>600.0</ele><time>2026-04-05T14:41:25.424Z</time></trkpt><trkpt lat="42.8668664" lon="13.0583423"><ele>600.0</ele><time>2026-04-05T14:41:26.424Z</time></trkpt><trkpt lat="42.8668678" lon="13.0584431"><ele>604.6</ele><time>2026-04-05T14:41:27.424Z</time></trkpt><trkpt lat="42.8668694" lon="13.0585596"><ele>609.2</ele><time>2026-04-05T14:41:28.424Z</time></trkpt><trkpt lat="42.8668702" lon="13.0586814"><ele>613.8</ele><time>2026-04-05T14:41:29.423Z</time></trkpt><trkpt lat="42.866865" lon="13.0588128"><ele>618.4</ele><time>2026-04-05T14:41:30.424Z</time></trkpt><trkpt lat="42.8668675" lon="13.0589484"><ele>623.0</ele><time>2026-04-05T14:41:31.423Z</time></trkpt><trkpt lat="42.8668637" lon="13.0590737"><ele>623.5</ele><time>2026-04-05T14:41:32.424Z</time></trkpt><trkpt lat="42.866862" lon="13.0591811"><ele>624.0</ele><time>2026-04-05T14:41:33.424Z</time></trkpt><trkpt lat="42.866856" lon="13.0592785"><ele>624.5</ele><time>2026-04-05T14:41:34.424Z</time></trkpt><trkpt lat="42.8668428" lon="13.0594507"><ele>625.0</ele><time>2026-04-05T14:41:36.424Z</time></trkpt><trkpt lat="42.8668284" lon="13.0595411"><ele>625.5</ele><time>2026-04-05T14:41:37.424Z</time></trkpt><trkpt lat="42.8668158" lon="13.0596367"><ele>626.0</ele><time>2026-04-05T14:41:38.424Z</time></trkpt><trkpt lat="42.8668056" lon="13.0597352"><ele>626.0</ele><time>2026-04-05T14:41:39.424Z</time></trkpt><trkpt lat="42.8667937" lon="13.0598316"><ele>626.0</ele><time>2026-04-05T14:41:40.424Z</time></trkpt><trkpt lat="42.8667828" lon="13.0599321"><ele>626.0</ele><time>2026-04-05T14:41:41.424Z</time></trkpt><trkpt lat="42.8667688" lon="13.0600289"><ele>626.0</ele><time>2026-04-05T14:41:42.424Z</time></trkpt><trkpt lat="42.8667565" lon="13.0601242"><ele>626.0</ele><time>2026-04-05T14:41:43.424Z</time></trkpt><trkpt lat="42.8667495" lon="13.0602229"><ele>626.0</ele><time>2026-04-05T14:41:44.424Z</time></trkpt><trkpt lat="42.866745" lon="13.0603223"><ele>626.0</ele><time>2026-04-05T14:41:45.424Z</time></trkpt><trkpt lat="42.8667392" lon="13.0604148"><ele>624.7142857142857</ele><time>2026-04-05T14:41:46.424Z</time></trkpt><trkpt lat="42.8667323" lon="13.0605071"><ele>623.4285714285714</ele><time>2026-04-05T14:41:47.424Z</time></trkpt><trkpt lat="42.8667241" lon="13.0606002"><ele>622.1428571428571</ele><time>2026-04-05T14:41:48.424Z</time></trkpt><trkpt lat="42.8667138" lon="13.0606974"><ele>620.8571428571429</ele><time>2026-04-05T14:41:49.424Z</time></trkpt><trkpt lat="42.866699" lon="13.0608012"><ele>619.5714285714286</ele><time>2026-04-05T14:41:50.424Z</time></trkpt><trkpt lat="42.8666707" lon="13.0609033"><ele>618.2857142857143</ele><time>2026-04-05T14:41:51.424Z</time></trkpt><trkpt lat="42.8666326" lon="13.0610008"><ele>617.0</ele><time>2026-04-05T14:41:52.424Z</time></trkpt><trkpt lat="42.8666032" lon="13.0610854"><ele>617.0</ele><time>2026-04-05T14:41:53.423Z</time></trkpt><trkpt lat="42.8665516" lon="13.061163"><ele>617.0</ele><time>2026-04-05T14:41:54.424Z</time></trkpt><trkpt lat="42.866508" lon="13.0612253"><ele>617.0</ele><time>2026-04-05T14:41:55.424Z</time></trkpt><trkpt lat="42.8664588" lon="13.0612893"><ele>617.0</ele><time>2026-04-05T14:41:56.424Z</time></trkpt><trkpt lat="42.8664205" lon="13.0613614"><ele>617.0</ele><time>2026-04-05T14:41:57.424Z</time></trkpt><trkpt lat="42.8663852" lon="13.0614464"><ele>617.0</ele><time>2026-04-05T14:41:58.424Z</time></trkpt><trkpt lat="42.866355" lon="13.0615387"><ele>617.0</ele><time>2026-04-05T14:41:59.424Z</time></trkpt><trkpt lat="42.8663508" lon="13.0616318"><ele>619.5</ele><time>2026-04-05T14:42:00.424Z</time></trkpt><trkpt lat="42.8663319" lon="13.0617344"><ele>622.0</ele><time>2026-04-05T14:42:01.423Z</time></trkpt><trkpt lat="42.8663056" lon="13.0618394"><ele>624.5</ele><time>2026-04-05T14:42:02.424Z</time></trkpt><trkpt lat="42.8662821" lon="13.0619505"><ele>627.0</ele><time>2026-04-05T14:42:03.424Z</time></trkpt><trkpt lat="42.8662527" lon="13.0620685"><ele>629.5</ele><time>2026-04-05T14:42:04.424Z</time></trkpt><trkpt lat="42.8662156" lon="13.0621812"><ele>632.0</ele><time>2026-04-05T14:42:05.423Z</time></trkpt><trkpt lat="42.866168" lon="13.0622802"><ele>632.0</ele><time>2026-04-05T14:42:06.423Z</time></trkpt><trkpt lat="42.8661213" lon="13.0623729"><ele>632.0</ele><time>2026-04-05T14:42:07.424Z</time></trkpt><trkpt lat="42.8660616" lon="13.0624606"><ele>632.0</ele><time>2026-04-05T14:42:08.424Z</time></trkpt><trkpt lat="42.866002" lon="13.0625456"><ele>632.0</ele><time>2026-04-05T14:42:09.424Z</time></trkpt><trkpt lat="42.8659339" lon="13.0626213"><ele>632.0</ele><time>2026-04-05T14:42:10.424Z</time></trkpt><trkpt lat="42.8658611" lon="13.062684"><ele>632.0</ele><time>2026-04-05T14:42:11.424Z</time></trkpt><trkpt lat="42.8657725" lon="13.062729"><ele>629.8000000000001</ele><time>2026-04-05T14:42:12.424Z</time></trkpt><trkpt lat="42.8656764" lon="13.0627673"><ele>627.6</ele><time>2026-04-05T14:42:13.423Z</time></trkpt><trkpt lat="42.8655711" lon="13.0628004"><ele>625.4000000000001</ele><time>2026-04-05T14:42:14.423Z</time></trkpt><trkpt lat="42.8654637" lon="13.0628287"><ele>623.2</ele><time>2026-04-05T14:42:15.424Z</time></trkpt><trkpt lat="42.8653627" lon="13.0628631"><ele>621.0</ele><time>2026-04-05T14:42:16.424Z</time></trkpt><trkpt lat="42.8652667" lon="13.0629202"><ele>621.0</ele><time>2026-04-05T14:42:17.424Z</time></trkpt><trkpt lat="42.8651903" lon="13.0629848"><ele>621.0</ele><time>2026-04-05T14:42:18.423Z</time></trkpt><trkpt lat="42.8651028" lon="13.0630504"><ele>621.0</ele><time>2026-04-05T14:42:19.424Z</time></trkpt><trkpt lat="42.8650078" lon="13.0631289"><ele>621.0</ele><time>2026-04-05T14:42:20.424Z</time></trkpt><trkpt lat="42.8649136" lon="13.0632091"><ele>621.0</ele><time>2026-04-05T14:42:21.423Z</time></trkpt><trkpt lat="42.8648095" lon="13.063291"><ele>624.75</ele><time>2026-04-05T14:42:22.424Z</time></trkpt><trkpt lat="42.864699" lon="13.0633838"><ele>628.5</ele><time>2026-04-05T14:42:23.424Z</time></trkpt><trkpt lat="42.8645891" lon="13.0634841"><ele>632.25</ele><time>2026-04-05T14:42:24.424Z</time></trkpt><trkpt lat="42.8644851" lon="13.0636013"><ele>636.0</ele><time>2026-04-05T14:42:25.424Z</time></trkpt><trkpt lat="42.8643922" lon="13.0637227"><ele>636.0</ele><time>2026-04-05T14:42:26.423Z</time></trkpt><trkpt lat="42.8642912" lon="13.0638558"><ele>636.0</ele><time>2026-04-05T14:42:27.424Z</time></trkpt><trkpt lat="42.8641978" lon="13.0640051"><ele>636.0</ele><time>2026-04-05T14:42:28.423Z</time></trkpt><trkpt lat="42.8641067" lon="13.0641547"><ele>636.0</ele><time>2026-04-05T14:42:29.424Z</time></trkpt><trkpt lat="42.8640223" lon="13.0643108"><ele>634.75</ele><time>2026-04-05T14:42:30.424Z</time></trkpt><trkpt lat="42.8639307" lon="13.0644718"><ele>633.5</ele><time>2026-04-05T14:42:31.424Z</time></trkpt><trkpt lat="42.8638405" lon="13.0646217"><ele>632.25</ele><time>2026-04-05T14:42:32.423Z</time></trkpt><trkpt lat="42.8637686" lon="13.0647725"><ele>631.0</ele><time>2026-04-05T14:42:33.424Z</time></trkpt><trkpt lat="42.8637002" lon="13.0649331"><ele>637.0</ele><time>2026-04-05T14:42:34.424Z</time></trkpt><trkpt lat="42.8636434" lon="13.0650988"><ele>643.0</ele><time>2026-04-05T14:42:35.424Z</time></trkpt><trkpt lat="42.8635937" lon="13.0652802"><ele>649.0</ele><time>2026-04-05T14:42:36.424Z</time></trkpt><trkpt lat="42.8635481" lon="13.0654656"><ele>655.0</ele><time>2026-04-05T14:42:37.424Z</time></trkpt><trkpt lat="42.8635185" lon="13.0656624"><ele>660.3333333333334</ele><time>2026-04-05T14:42:38.424Z</time></trkpt><trkpt lat="42.8635063" lon="13.0658808"><ele>665.6666666666666</ele><time>2026-04-05T14:42:39.424Z</time></trkpt><trkpt lat="42.8634933" lon="13.0660992"><ele>671.0</ele><time>2026-04-05T14:42:40.423Z</time></trkpt><trkpt lat="42.8634816" lon="13.066325"><ele>671.0</ele><time>2026-04-05T14:42:41.424Z</time></trkpt><trkpt lat="42.8634588" lon="13.0665481"><ele>671.0</ele><time>2026-04-05T14:42:42.423Z</time></trkpt><trkpt lat="42.8634352" lon="13.066764"><ele>671.0</ele><time>2026-04-05T14:42:43.424Z</time></trkpt><trkpt lat="42.8633985" lon="13.0669822"><ele>661.3333333333333</ele><time>2026-04-05T14:42:44.423Z</time></trkpt><trkpt lat="42.8633657" lon="13.067194"><ele>651.6666666666666</ele><time>2026-04-05T14:42:45.424Z</time></trkpt><trkpt lat="42.8633402" lon="13.0674012"><ele>642.0</ele><time>2026-04-05T14:42:46.424Z</time></trkpt><trkpt lat="42.8633095" lon="13.0675847"><ele>642.0</ele><time>2026-04-05T14:42:47.424Z</time></trkpt><trkpt lat="42.8632708" lon="13.0677585"><ele>642.0</ele><time>2026-04-05T14:42:48.424Z</time></trkpt><trkpt lat="42.8632285" lon="13.0679155"><ele>642.0</ele><time>2026-04-05T14:42:49.423Z</time></trkpt><trkpt lat="42.8631722" lon="13.0680653"><ele>642.0</ele><time>2026-04-05T14:42:50.423Z</time></trkpt><trkpt lat="42.8630877" lon="13.0681637"><ele>642.0</ele><time>2026-04-05T14:42:51.424Z</time></trkpt><trkpt lat="42.8629962" lon="13.0682444"><ele>642.0</ele><time>2026-04-05T14:42:52.424Z</time></trkpt><trkpt lat="42.8628979" lon="13.0682772"><ele>642.0</ele><time>2026-04-05T14:42:53.423Z</time></trkpt><trkpt lat="42.862792" lon="13.0682744"><ele>642.0</ele><time>2026-04-05T14:42:54.424Z</time></trkpt><trkpt lat="42.8626962" lon="13.0682746"><ele>642.0</ele><time>2026-04-05T14:42:55.424Z</time></trkpt><trkpt lat="42.862586" lon="13.0683041"><ele>639.5</ele><time>2026-04-05T14:42:56.423Z</time></trkpt><trkpt lat="42.8624776" lon="13.0683572"><ele>637.0</ele><time>2026-04-05T14:42:57.424Z</time></trkpt><trkpt lat="42.8623666" lon="13.0684419"><ele>634.5</ele><time>2026-04-05T14:42:58.424Z</time></trkpt><trkpt lat="42.862254" lon="13.0685355"><ele>632.0</ele><time>2026-04-05T14:42:59.424Z</time></trkpt><trkpt lat="42.86214" lon="13.0686551"><ele>632.0</ele><time>2026-04-05T14:43:00.424Z</time></trkpt><trkpt lat="42.862023" lon="13.0687723"><ele>632.0</ele><time>2026-04-05T14:43:01.424Z</time></trkpt><trkpt lat="42.8619023" lon="13.0689085"><ele>632.0</ele><time>2026-04-05T14:43:02.424Z</time></trkpt><trkpt lat="42.861784" lon="13.0690439"><ele>632.0</ele><time>2026-04-05T14:43:03.424Z</time></trkpt><trkpt lat="42.8616704" lon="13.0691716"><ele>632.0</ele><time>2026-04-05T14:43:04.424Z</time></trkpt><trkpt lat="42.8615429" lon="13.0692829"><ele>632.0</ele><time>2026-04-05T14:43:05.424Z</time></trkpt><trkpt lat="42.861407" lon="13.069381"><ele>632.0</ele><time>2026-04-05T14:43:06.424Z</time></trkpt><trkpt lat="42.8612676" lon="13.0694754"><ele>632.0</ele><time>2026-04-05T14:43:07.424Z</time></trkpt><trkpt lat="42.8611188" lon="13.069565"><ele>632.0</ele><time>2026-04-05T14:43:08.424Z</time></trkpt><trkpt lat="42.860966" lon="13.069641"><ele>631.5</ele><time>2026-04-05T14:43:09.424Z</time></trkpt><trkpt lat="42.8608253" lon="13.0697157"><ele>631.0</ele><time>2026-04-05T14:43:10.424Z</time></trkpt><trkpt lat="42.860703" lon="13.0697918"><ele>630.5</ele><time>2026-04-05T14:43:11.424Z</time></trkpt><trkpt lat="42.8605965" lon="13.0699024"><ele>630.0</ele><time>2026-04-05T14:43:12.424Z</time></trkpt><trkpt lat="42.860499" lon="13.0700357"><ele>632.0</ele><time>2026-04-05T14:43:13.424Z</time></trkpt><trkpt lat="42.8604017" lon="13.0701542"><ele>634.0</ele><time>2026-04-05T14:43:14.424Z</time></trkpt><trkpt lat="42.8603091" lon="13.0702413"><ele>636.0</ele><time>2026-04-05T14:43:15.424Z</time></trkpt><trkpt lat="42.8601991" lon="13.0703173"><ele>638.0</ele><time>2026-04-05T14:43:16.424Z</time></trkpt><trkpt lat="42.8600847" lon="13.0703618"><ele>638.0</ele><time>2026-04-05T14:43:17.424Z</time></trkpt><trkpt lat="42.8599562" lon="13.0703659"><ele>638.0</ele><time>2026-04-05T14:43:18.424Z</time></trkpt><trkpt lat="42.8598338" lon="13.0703688"><ele>638.0</ele><time>2026-04-05T14:43:19.424Z</time></trkpt><trkpt lat="42.859733" lon="13.0703635"><ele>638.0</ele><time>2026-04-05T14:43:20.424Z</time></trkpt><trkpt lat="42.8596353" lon="13.0703724"><ele>638.0</ele><time>2026-04-05T14:43:21.423Z</time></trkpt><trkpt lat="42.8595554" lon="13.070413"><ele>638.0</ele><time>2026-04-05T14:43:22.423Z</time></trkpt><trkpt lat="42.8595427" lon="13.0705017"><ele>638.0</ele><time>2026-04-05T14:43:23.424Z</time></trkpt><trkpt lat="42.8595071" lon="13.070583"><ele>638.0</ele><time>2026-04-05T14:43:24.424Z</time></trkpt><trkpt lat="42.8595146" lon="13.0707238"><ele>638.0</ele><time>2026-04-05T14:43:25.424Z</time></trkpt><trkpt lat="42.8595139" lon="13.0708643"><ele>638.0</ele><time>2026-04-05T14:43:26.424Z</time></trkpt><trkpt lat="42.8595079" lon="13.0710243"><ele>642.2</ele><time>2026-04-05T14:43:27.424Z</time></trkpt><trkpt lat="42.8594961" lon="13.0711766"><ele>646.4</ele><time>2026-04-05T14:43:28.424Z</time></trkpt><trkpt lat="42.859479" lon="13.0713102"><ele>650.6</ele><time>2026-04-05T14:43:29.423Z</time></trkpt><trkpt lat="42.8594337" lon="13.0713976"><ele>654.8000000000001</ele><time>2026-04-05T14:43:30.424Z</time></trkpt><trkpt lat="42.8593689" lon="13.0714673"><ele>659.0</ele><time>2026-04-05T14:43:31.424Z</time></trkpt><trkpt lat="42.8592882" lon="13.0715254"><ele>659.25</ele><time>2026-04-05T14:43:32.424Z</time></trkpt><trkpt lat="42.8591906" lon="13.0715782"><ele>659.5</ele><time>2026-04-05T14:43:33.424Z</time></trkpt><trkpt lat="42.8590904" lon="13.0716375"><ele>659.75</ele><time>2026-04-05T14:43:34.424Z</time></trkpt><trkpt lat="42.8589849" lon="13.0717014"><ele>660.0</ele><time>2026-04-05T14:43:35.424Z</time></trkpt><trkpt lat="42.8588687" lon="13.0717669"><ele>660.0</ele><time>2026-04-05T14:43:36.423Z</time></trkpt><trkpt lat="42.858747" lon="13.0718443"><ele>660.0</ele><time>2026-04-05T14:43:37.423Z</time></trkpt><trkpt lat="42.8586164" lon="13.0719259"><ele>660.0</ele><time>2026-04-05T14:43:38.424Z</time></trkpt><trkpt lat="42.8584905" lon="13.0720074"><ele>660.0</ele><time>2026-04-05T14:43:39.424Z</time></trkpt><trkpt lat="42.8583639" lon="13.0720927"><ele>661.75</ele><time>2026-04-05T14:43:40.424Z</time></trkpt><trkpt lat="42.8582407" lon="13.0721974"><ele>663.5</ele><time>2026-04-05T14:43:41.424Z</time></trkpt><trkpt lat="42.8581343" lon="13.0723158"><ele>665.25</ele><time>2026-04-05T14:43:42.424Z</time></trkpt><trkpt lat="42.8580356" lon="13.0724531"><ele>667.0</ele><time>2026-04-05T14:43:43.424Z</time></trkpt><trkpt lat="42.857946" lon="13.0725925"><ele>667.0</ele><time>2026-04-05T14:43:44.424Z</time></trkpt><trkpt lat="42.8578658" lon="13.0727298"><ele>667.0</ele><time>2026-04-05T14:43:45.424Z</time></trkpt><trkpt lat="42.8578051" lon="13.072885"><ele>667.0</ele><time>2026-04-05T14:43:46.424Z</time></trkpt><trkpt lat="42.8577458" lon="13.0730392"><ele>667.0</ele><time>2026-04-05T14:43:47.424Z</time></trkpt><trkpt lat="42.8576784" lon="13.0732141"><ele>664.0</ele><time>2026-04-05T14:43:48.424Z</time></trkpt><trkpt lat="42.8575898" lon="13.073357"><ele>661.0</ele><time>2026-04-05T14:43:49.423Z</time></trkpt><trkpt lat="42.8574842" lon="13.0734933"><ele>658.0</ele><time>2026-04-05T14:43:50.424Z</time></trkpt><trkpt lat="42.8573537" lon="13.0736065"><ele>655.0</ele><time>2026-04-05T14:43:51.424Z</time></trkpt><trkpt lat="42.8572187" lon="13.0737403"><ele>655.0</ele><time>2026-04-05T14:43:52.424Z</time></trkpt><trkpt lat="42.8570788" lon="13.0738877"><ele>655.0</ele><time>2026-04-05T14:43:53.424Z</time></trkpt><trkpt lat="42.8569385" lon="13.0740325"><ele>655.0</ele><time>2026-04-05T14:43:54.424Z</time></trkpt><trkpt lat="42.8567923" lon="13.074167"><ele>656.3333333333334</ele><time>2026-04-05T14:43:55.424Z</time></trkpt><trkpt lat="42.8566372" lon="13.0742926"><ele>657.6666666666666</ele><time>2026-04-05T14:43:56.424Z</time></trkpt><trkpt lat="42.8564776" lon="13.0744146"><ele>659.0</ele><time>2026-04-05T14:43:57.423Z</time></trkpt><trkpt lat="42.8563235" lon="13.0745553"><ele>659.0</ele><time>2026-04-05T14:43:58.424Z</time></trkpt><trkpt lat="42.8561694" lon="13.0747047"><ele>659.0</ele><time>2026-04-05T14:43:59.424Z</time></trkpt><trkpt lat="42.8560271" lon="13.0748553"><ele>659.0</ele><time>2026-04-05T14:44:00.423Z</time></trkpt><trkpt lat="42.8558922" lon="13.0750037"><ele>659.6666666666666</ele><time>2026-04-05T14:44:01.423Z</time></trkpt><trkpt lat="42.8557582" lon="13.0751407"><ele>660.3333333333334</ele><time>2026-04-05T14:44:02.424Z</time></trkpt><trkpt lat="42.85563" lon="13.0752874"><ele>661.0</ele><time>2026-04-05T14:44:03.423Z</time></trkpt><trkpt lat="42.855499" lon="13.0754186"><ele>661.0</ele><time>2026-04-05T14:44:04.424Z</time></trkpt><trkpt lat="42.8553607" lon="13.0755498"><ele>661.0</ele><time>2026-04-05T14:44:05.424Z</time></trkpt><trkpt lat="42.8552186" lon="13.0756729"><ele>661.0</ele><time>2026-04-05T14:44:06.424Z</time></trkpt><trkpt lat="42.8550679" lon="13.0757937"><ele>662.0</ele><time>2026-04-05T14:44:07.424Z</time></trkpt><trkpt lat="42.8549198" lon="13.0759039"><ele>663.0</ele><time>2026-04-05T14:44:08.424Z</time></trkpt><trkpt lat="42.8547687" lon="13.0759922"><ele>664.0</ele><time>2026-04-05T14:44:09.424Z</time></trkpt><trkpt lat="42.8546217" lon="13.0760556"><ele>664.0</ele><time>2026-04-05T14:44:10.423Z</time></trkpt><trkpt lat="42.8544726" lon="13.0760805"><ele>664.0</ele><time>2026-04-05T14:44:11.424Z</time></trkpt><trkpt lat="42.8543311" lon="13.0760761"><ele>664.0</ele><time>2026-04-05T14:44:12.424Z</time></trkpt><trkpt lat="42.8541986" lon="13.0760829"><ele>664.0</ele><time>2026-04-05T14:44:13.423Z</time></trkpt><trkpt lat="42.8540697" lon="13.0761132"><ele>663.0</ele><time>2026-04-05T14:44:14.423Z</time></trkpt><trkpt lat="42.8539461" lon="13.0761662"><ele>662.0</ele><time>2026-04-05T14:44:15.424Z</time></trkpt><trkpt lat="42.8538282" lon="13.0762488"><ele>661.0</ele><time>2026-04-05T14:44:16.424Z</time></trkpt><trkpt lat="42.8537299" lon="13.0763967"><ele>660.0</ele><time>2026-04-05T14:44:17.424Z</time></trkpt><trkpt lat="42.8536344" lon="13.0765476"><ele>663.6666666666666</ele><time>2026-04-05T14:44:18.423Z</time></trkpt><trkpt lat="42.8535639" lon="13.0767339"><ele>667.3333333333333</ele><time>2026-04-05T14:44:19.424Z</time></trkpt><trkpt lat="42.8535203" lon="13.076933"><ele>671.0</ele><time>2026-04-05T14:44:20.424Z</time></trkpt><trkpt lat="42.8535152" lon="13.0771407"><ele>671.0</ele><time>2026-04-05T14:44:21.424Z</time></trkpt><trkpt lat="42.8534978" lon="13.0773523"><ele>671.0</ele><time>2026-04-05T14:44:22.424Z</time></trkpt><trkpt lat="42.8534815" lon="13.0775703"><ele>671.0</ele><time>2026-04-05T14:44:23.424Z</time></trkpt><trkpt lat="42.8534257" lon="13.0777863"><ele>671.6666666666666</ele><time>2026-04-05T14:44:24.423Z</time></trkpt><trkpt lat="42.853353" lon="13.0779927"><ele>672.3333333333334</ele><time>2026-04-05T14:44:25.424Z</time></trkpt><trkpt lat="42.8532621" lon="13.0781926"><ele>673.0</ele><time>2026-04-05T14:44:26.423Z</time></trkpt><trkpt lat="42.8531606" lon="13.0783809"><ele>673.0</ele><time>2026-04-05T14:44:27.424Z</time></trkpt><trkpt lat="42.8530472" lon="13.078554"><ele>673.0</ele><time>2026-04-05T14:44:28.424Z</time></trkpt><trkpt lat="42.8529355" lon="13.0787033"><ele>673.0</ele><time>2026-04-05T14:44:29.424Z</time></trkpt><trkpt lat="42.8528402" lon="13.0788583"><ele>673.0</ele><time>2026-04-05T14:44:30.424Z</time></trkpt><trkpt lat="42.8527702" lon="13.0790254"><ele>673.0</ele><time>2026-04-05T14:44:31.424Z</time></trkpt><trkpt lat="42.8527208" lon="13.0792165"><ele>673.0</ele><time>2026-04-05T14:44:32.424Z</time></trkpt><trkpt lat="42.8526933" lon="13.079423"><ele>673.0</ele><time>2026-04-05T14:44:33.424Z</time></trkpt><trkpt lat="42.8526673" lon="13.0796482"><ele>675.3333333333334</ele><time>2026-04-05T14:44:34.424Z</time></trkpt><trkpt lat="42.8526418" lon="13.0798829"><ele>677.6666666666666</ele><time>2026-04-05T14:44:35.424Z</time></trkpt><trkpt lat="42.8526132" lon="13.0801221"><ele>680.0</ele><time>2026-04-05T14:44:36.423Z</time></trkpt><trkpt lat="42.8525908" lon="13.080358"><ele>676.0</ele><time>2026-04-05T14:44:37.423Z</time></trkpt><trkpt lat="42.852565" lon="13.0805878"><ele>672.0</ele><time>2026-04-05T14:44:38.424Z</time></trkpt><trkpt lat="42.8525453" lon="13.0808033"><ele>668.0</ele><time>2026-04-05T14:44:39.423Z</time></trkpt><trkpt lat="42.8525393" lon="13.0810065"><ele>668.0</ele><time>2026-04-05T14:44:40.424Z</time></trkpt><trkpt lat="42.8525495" lon="13.0812104"><ele>668.0</ele><time>2026-04-05T14:44:41.424Z</time></trkpt><trkpt lat="42.8525768" lon="13.0814105"><ele>668.0</ele><time>2026-04-05T14:44:42.424Z</time></trkpt><trkpt lat="42.8526198" lon="13.081616"><ele>672.3333333333333</ele><time>2026-04-05T14:44:43.423Z</time></trkpt><trkpt lat="42.8526751" lon="13.0818262"><ele>676.6666666666666</ele><time>2026-04-05T14:44:44.424Z</time></trkpt><trkpt lat="42.852739" lon="13.0820229"><ele>681.0</ele><time>2026-04-05T14:44:45.424Z</time></trkpt><trkpt lat="42.8528148" lon="13.0822033"><ele>681.0</ele><time>2026-04-05T14:44:46.424Z</time></trkpt><trkpt lat="42.8529007" lon="13.0823749"><ele>681.0</ele><time>2026-04-05T14:44:47.424Z</time></trkpt><trkpt lat="42.8529868" lon="13.0825478"><ele>681.0</ele><time>2026-04-05T14:44:48.424Z</time></trkpt><trkpt lat="42.8530653" lon="13.0827211"><ele>682.25</ele><time>2026-04-05T14:44:49.424Z</time></trkpt><trkpt lat="42.8531391" lon="13.0828846"><ele>683.5</ele><time>2026-04-05T14:44:50.424Z</time></trkpt><trkpt lat="42.8532005" lon="13.0830544"><ele>684.75</ele><time>2026-04-05T14:44:51.424Z</time></trkpt><trkpt lat="42.8532528" lon="13.0832277"><ele>686.0</ele><time>2026-04-05T14:44:52.424Z</time></trkpt><trkpt lat="42.8532803" lon="13.0834235"><ele>686.75</ele><time>2026-04-05T14:44:53.424Z</time></trkpt><trkpt lat="42.8533062" lon="13.083613"><ele>687.5</ele><time>2026-04-05T14:44:54.423Z</time></trkpt><trkpt lat="42.8533187" lon="13.0837889"><ele>688.25</ele><time>2026-04-05T14:44:55.424Z</time></trkpt><trkpt lat="42.8533132" lon="13.0839449"><ele>689.0</ele><time>2026-04-05T14:44:56.424Z</time></trkpt><trkpt lat="42.8532752" lon="13.0840932"><ele>689.5</ele><time>2026-04-05T14:44:57.424Z</time></trkpt><trkpt lat="42.8532005" lon="13.0842236"><ele>690.0</ele><time>2026-04-05T14:44:58.424Z</time></trkpt><trkpt lat="42.8530961" lon="13.0843182"><ele>690.5</ele><time>2026-04-05T14:44:59.424Z</time></trkpt><trkpt lat="42.852977" lon="13.0843984"><ele>691.0</ele><time>2026-04-05T14:45:00.424Z</time></trkpt><trkpt lat="42.8528429" lon="13.084476"><ele>691.0</ele><time>2026-04-05T14:45:01.424Z</time></trkpt><trkpt lat="42.852709" lon="13.0845563"><ele>691.0</ele><time>2026-04-05T14:45:02.424Z</time></trkpt><trkpt lat="42.852591" lon="13.0846433"><ele>691.0</ele><time>2026-04-05T14:45:03.424Z</time></trkpt><trkpt lat="42.8525046" lon="13.0847415"><ele>691.0</ele><time>2026-04-05T14:45:04.424Z</time></trkpt><trkpt lat="42.8524335" lon="13.084885"><ele>691.0</ele><time>2026-04-05T14:45:05.424Z</time></trkpt><trkpt lat="42.8523928" lon="13.085055"><ele>691.0</ele><time>2026-04-05T14:45:06.424Z</time></trkpt><trkpt lat="42.8523669" lon="13.0852539"><ele>691.0</ele><time>2026-04-05T14:45:07.424Z</time></trkpt><trkpt lat="42.8523547" lon="13.0854613"><ele>691.0</ele><time>2026-04-05T14:45:08.424Z</time></trkpt><trkpt lat="42.8523484" lon="13.0856816"><ele>692.0</ele><time>2026-04-05T14:45:09.424Z</time></trkpt><trkpt lat="42.8523434" lon="13.0859016"><ele>693.0</ele><time>2026-04-05T14:45:10.424Z</time></trkpt><trkpt lat="42.852342" lon="13.0861221"><ele>694.0</ele><time>2026-04-05T14:45:11.424Z</time></trkpt><trkpt lat="42.8523411" lon="13.0863517"><ele>694.0</ele><time>2026-04-05T14:45:12.424Z</time></trkpt><trkpt lat="42.8523273" lon="13.0865855"><ele>694.0</ele><time>2026-04-05T14:45:13.423Z</time></trkpt><trkpt lat="42.8523173" lon="13.0868206"><ele>694.0</ele><time>2026-04-05T14:45:14.423Z</time></trkpt><trkpt lat="42.8522995" lon="13.0870703"><ele>695.3333333333334</ele><time>2026-04-05T14:45:15.424Z</time></trkpt><trkpt lat="42.8522926" lon="13.0873181"><ele>696.6666666666666</ele><time>2026-04-05T14:45:16.423Z</time></trkpt><trkpt lat="42.8522933" lon="13.0875585"><ele>698.0</ele><time>2026-04-05T14:45:17.423Z</time></trkpt><trkpt lat="42.8522869" lon="13.0878017"><ele>699.0</ele><time>2026-04-05T14:45:18.424Z</time></trkpt><trkpt lat="42.8522769" lon="13.0880421"><ele>700.0</ele><time>2026-04-05T14:45:19.424Z</time></trkpt><trkpt lat="42.8522724" lon="13.088288"><ele>701.0</ele><time>2026-04-05T14:45:20.424Z</time></trkpt><trkpt lat="42.8522807" lon="13.0885285"><ele>702.6666666666666</ele><time>2026-04-05T14:45:21.424Z</time></trkpt><trkpt lat="42.8523022" lon="13.0887625"><ele>704.3333333333334</ele><time>2026-04-05T14:45:22.423Z</time></trkpt><trkpt lat="42.8523332" lon="13.0890063"><ele>706.0</ele><time>2026-04-05T14:45:23.423Z</time></trkpt><trkpt lat="42.8523658" lon="13.0892394"><ele>707.6666666666667</ele><time>2026-04-05T14:45:24.424Z</time></trkpt><trkpt lat="42.8524072" lon="13.0894613"><ele>709.3333333333334</ele><time>2026-04-05T14:45:25.424Z</time></trkpt><trkpt lat="42.8524397" lon="13.0896688"><ele>711.0</ele><time>2026-04-05T14:45:26.424Z</time></trkpt><trkpt lat="42.8524726" lon="13.0898594"><ele>711.25</ele><time>2026-04-05T14:45:27.424Z</time></trkpt><trkpt lat="42.8525087" lon="13.0900423"><ele>711.5</ele><time>2026-04-05T14:45:28.423Z</time></trkpt><trkpt lat="42.8525357" lon="13.0902119"><ele>711.75</ele><time>2026-04-05T14:45:29.424Z</time></trkpt><trkpt lat="42.8525456" lon="13.0903765"><ele>712.0</ele><time>2026-04-05T14:45:30.424Z</time></trkpt><trkpt lat="42.8525307" lon="13.0905312"><ele>712.0</ele><time>2026-04-05T14:45:31.424Z</time></trkpt><trkpt lat="42.8524992" lon="13.0906783"><ele>712.0</ele><time>2026-04-05T14:45:32.424Z</time></trkpt><trkpt lat="42.8524606" lon="13.0908232"><ele>712.0</ele><time>2026-04-05T14:45:33.424Z</time></trkpt><trkpt lat="42.8524231" lon="13.0909797"><ele>712.0</ele><time>2026-04-05T14:45:34.424Z</time></trkpt><trkpt lat="42.8523869" lon="13.09113"><ele>712.25</ele><time>2026-04-05T14:45:35.424Z</time></trkpt><trkpt lat="42.8523515" lon="13.0912937"><ele>712.5</ele><time>2026-04-05T14:45:36.424Z</time></trkpt><trkpt lat="42.8523216" lon="13.0914456"><ele>712.75</ele><time>2026-04-05T14:45:37.424Z</time></trkpt><trkpt lat="42.8523187" lon="13.0916016"><ele>713.0</ele><time>2026-04-05T14:45:38.424Z</time></trkpt><trkpt lat="42.8523328" lon="13.0917529"><ele>713.0</ele><time>2026-04-05T14:45:39.424Z</time></trkpt><trkpt lat="42.852371" lon="13.0919107"><ele>713.0</ele><time>2026-04-05T14:45:40.423Z</time></trkpt><trkpt lat="42.852405" lon="13.0920846"><ele>713.0</ele><time>2026-04-05T14:45:41.424Z</time></trkpt><trkpt lat="42.8524479" lon="13.0922726"><ele>713.0</ele><time>2026-04-05T14:45:42.423Z</time></trkpt><trkpt lat="42.8524937" lon="13.092467"><ele>711.6666666666666</ele><time>2026-04-05T14:45:43.424Z</time></trkpt><trkpt lat="42.8525335" lon="13.0926679"><ele>710.3333333333334</ele><time>2026-04-05T14:45:44.424Z</time></trkpt><trkpt lat="42.852579" lon="13.0928669"><ele>709.0</ele><time>2026-04-05T14:45:45.424Z</time></trkpt><trkpt lat="42.8526261" lon="13.0930556"><ele>711.5</ele><time>2026-04-05T14:45:46.424Z</time></trkpt><trkpt lat="42.8526717" lon="13.0932352"><ele>714.0</ele><time>2026-04-05T14:45:47.423Z</time></trkpt><trkpt lat="42.8527113" lon="13.0934098"><ele>716.5</ele><time>2026-04-05T14:45:48.423Z</time></trkpt><trkpt lat="42.85274" lon="13.0935752"><ele>719.0</ele><time>2026-04-05T14:45:49.424Z</time></trkpt><trkpt lat="42.8527454" lon="13.0937326"><ele>719.2</ele><time>2026-04-05T14:45:50.424Z</time></trkpt><trkpt lat="42.8527308" lon="13.0938678"><ele>719.4000000000001</ele><time>2026-04-05T14:45:51.424Z</time></trkpt><trkpt lat="42.8526868" lon="13.094004"><ele>719.6</ele><time>2026-04-05T14:45:52.424Z</time></trkpt><trkpt lat="42.8526278" lon="13.094131"><ele>719.8</ele><time>2026-04-05T14:45:53.424Z</time></trkpt><trkpt lat="42.8525652" lon="13.0942559"><ele>720.0</ele><time>2026-04-05T14:45:54.423Z</time></trkpt><trkpt lat="42.8525055" lon="13.0943743"><ele>718.0</ele><time>2026-04-05T14:45:55.423Z</time></trkpt><trkpt lat="42.8524326" lon="13.0944751"><ele>716.0</ele><time>2026-04-05T14:45:56.423Z</time></trkpt><trkpt lat="42.8523613" lon="13.0945631"><ele>714.0</ele><time>2026-04-05T14:45:57.424Z</time></trkpt><trkpt lat="42.8522848" lon="13.0946215"><ele>712.0</ele><time>2026-04-05T14:45:58.424Z</time></trkpt><trkpt lat="42.8521991" lon="13.0946395"><ele>710.0</ele><time>2026-04-05T14:45:59.424Z</time></trkpt><trkpt lat="42.8520961" lon="13.0946113"><ele>710.0</ele><time>2026-04-05T14:46:00.423Z</time></trkpt><trkpt lat="42.8519977" lon="13.0945515"><ele>710.0</ele><time>2026-04-05T14:46:01.424Z</time></trkpt><trkpt lat="42.8519023" lon="13.0944701"><ele>710.0</ele><time>2026-04-05T14:46:02.424Z</time></trkpt><trkpt lat="42.8518049" lon="13.0943713"><ele>710.0</ele><time>2026-04-05T14:46:03.424Z</time></trkpt><trkpt lat="42.8517013" lon="13.0942686"><ele>708.5</ele><time>2026-04-05T14:46:04.424Z</time></trkpt><trkpt lat="42.8515978" lon="13.0941539"><ele>707.0</ele><time>2026-04-05T14:46:05.424Z</time></trkpt><trkpt lat="42.8514952" lon="13.0940244"><ele>705.5</ele><time>2026-04-05T14:46:06.423Z</time></trkpt><trkpt lat="42.8514046" lon="13.0938806"><ele>704.0</ele><time>2026-04-05T14:46:07.423Z</time></trkpt><trkpt lat="42.8513233" lon="13.0937439"><ele>704.0</ele><time>2026-04-05T14:46:08.423Z</time></trkpt><trkpt lat="42.8512459" lon="13.0936115"><ele>704.0</ele><time>2026-04-05T14:46:09.424Z</time></trkpt><trkpt lat="42.8511731" lon="13.0934936"><ele>704.0</ele><time>2026-04-05T14:46:10.424Z</time></trkpt><trkpt lat="42.851107" lon="13.0933987"><ele>704.0</ele><time>2026-04-05T14:46:11.424Z</time></trkpt><trkpt lat="42.851042" lon="13.0933148"><ele>704.0</ele><time>2026-04-05T14:46:12.424Z</time></trkpt><trkpt lat="42.8509724" lon="13.0932609"><ele>705.1666666666666</ele><time>2026-04-05T14:46:13.424Z</time></trkpt><trkpt lat="42.8508879" lon="13.0932371"><ele>706.3333333333333</ele><time>2026-04-05T14:46:14.424Z</time></trkpt><trkpt lat="42.8508126" lon="13.0932573"><ele>707.5</ele><time>2026-04-05T14:46:15.424Z</time></trkpt><trkpt lat="42.850739" lon="13.093289"><ele>708.6666666666666</ele><time>2026-04-05T14:46:16.423Z</time></trkpt><trkpt lat="42.8506675" lon="13.0933507"><ele>709.8333333333334</ele><time>2026-04-05T14:46:17.424Z</time></trkpt><trkpt lat="42.8505934" lon="13.0934238"><ele>711.0</ele><time>2026-04-05T14:46:18.423Z</time></trkpt><trkpt lat="42.8505146" lon="13.0935057"><ele>712.25</ele><time>2026-04-05T14:46:19.424Z</time></trkpt><trkpt lat="42.8504285" lon="13.0935921"><ele>713.5</ele><time>2026-04-05T14:46:20.424Z</time></trkpt><trkpt lat="42.8503393" lon="13.0936842"><ele>714.75</ele><time>2026-04-05T14:46:21.423Z</time></trkpt><trkpt lat="42.850248" lon="13.0937821"><ele>716.0</ele><time>2026-04-05T14:46:22.424Z</time></trkpt><trkpt lat="42.8501539" lon="13.0938896"><ele>716.25</ele><time>2026-04-05T14:46:23.424Z</time></trkpt><trkpt lat="42.8500545" lon="13.093995"><ele>716.5</ele><time>2026-04-05T14:46:24.424Z</time></trkpt><trkpt lat="42.8499478" lon="13.0941127"><ele>716.75</ele><time>2026-04-05T14:46:25.424Z</time></trkpt><trkpt lat="42.8498398" lon="13.0942373"><ele>717.0</ele><time>2026-04-05T14:46:26.423Z</time></trkpt><trkpt lat="42.849725" lon="13.0943634"><ele>717.5</ele><time>2026-04-05T14:46:27.424Z</time></trkpt><trkpt lat="42.8496104" lon="13.094497"><ele>718.0</ele><time>2026-04-05T14:46:28.423Z</time></trkpt><trkpt lat="42.8494935" lon="13.0946299"><ele>718.5</ele><time>2026-04-05T14:46:29.424Z</time></trkpt><trkpt lat="42.849382" lon="13.0947509"><ele>719.0</ele><time>2026-04-05T14:46:30.423Z</time></trkpt><trkpt lat="42.8492619" lon="13.0948829"><ele>718.3333333333333</ele><time>2026-04-05T14:46:31.424Z</time></trkpt><trkpt lat="42.8491358" lon="13.0950002"><ele>717.6666666666666</ele><time>2026-04-05T14:46:32.424Z</time></trkpt><trkpt lat="42.8490003" lon="13.0950993"><ele>717.0</ele><time>2026-04-05T14:46:33.423Z</time></trkpt><trkpt lat="42.8488596" lon="13.0951786"><ele>717.0</ele><time>2026-04-05T14:46:34.423Z</time></trkpt><trkpt lat="42.8487048" lon="13.0952469"><ele>717.0</ele><time>2026-04-05T14:46:35.424Z</time></trkpt><trkpt lat="42.8485551" lon="13.0953026"><ele>717.0</ele><time>2026-04-05T14:46:36.423Z</time></trkpt><trkpt lat="42.8484048" lon="13.0953625"><ele>717.3333333333334</ele><time>2026-04-05T14:46:37.424Z</time></trkpt><trkpt lat="42.8482574" lon="13.0954299"><ele>717.6666666666667</ele><time>2026-04-05T14:46:38.423Z</time></trkpt><trkpt lat="42.8481159" lon="13.0955141"><ele>718.0</ele><time>2026-04-05T14:46:39.424Z</time></trkpt><trkpt lat="42.8479862" lon="13.0956202"><ele>718.0</ele><time>2026-04-05T14:46:40.424Z</time></trkpt><trkpt lat="42.8478699" lon="13.0957352"><ele>718.0</ele><time>2026-04-05T14:46:41.424Z</time></trkpt><trkpt lat="42.8477533" lon="13.0958566"><ele>718.0</ele><time>2026-04-05T14:46:42.424Z</time></trkpt><trkpt lat="42.8476432" lon="13.0959601"><ele>718.0</ele><time>2026-04-05T14:46:43.424Z</time></trkpt><trkpt lat="42.8475593" lon="13.0960688"><ele>719.4</ele><time>2026-04-05T14:46:44.424Z</time></trkpt><trkpt lat="42.8474819" lon="13.0961716"><ele>720.8</ele><time>2026-04-05T14:46:45.424Z</time></trkpt><trkpt lat="42.8474074" lon="13.0962698"><ele>722.2</ele><time>2026-04-05T14:46:46.424Z</time></trkpt><trkpt lat="42.8473384" lon="13.0963741"><ele>723.6</ele><time>2026-04-05T14:46:47.424Z</time></trkpt><trkpt lat="42.8472721" lon="13.0964651"><ele>725.0</ele><time>2026-04-05T14:46:48.423Z</time></trkpt><trkpt lat="42.8472176" lon="13.0965795"><ele>725.25</ele><time>2026-04-05T14:46:49.424Z</time></trkpt><trkpt lat="42.8471691" lon="13.0967031"><ele>725.5</ele><time>2026-04-05T14:46:50.424Z</time></trkpt><trkpt lat="42.8471208" lon="13.0968535"><ele>725.75</ele><time>2026-04-05T14:46:51.424Z</time></trkpt><trkpt lat="42.8470739" lon="13.0970113"><ele>726.0</ele><time>2026-04-05T14:46:52.424Z</time></trkpt><trkpt lat="42.847029" lon="13.0971849"><ele>726.0</ele><time>2026-04-05T14:46:53.424Z</time></trkpt><trkpt lat="42.8469866" lon="13.0973754"><ele>726.0</ele><time>2026-04-05T14:46:54.424Z</time></trkpt><trkpt lat="42.8469496" lon="13.097572"><ele>726.0</ele><time>2026-04-05T14:46:55.424Z</time></trkpt><trkpt lat="42.8469079" lon="13.0977569"><ele>726.0</ele><time>2026-04-05T14:46:56.424Z</time></trkpt><trkpt lat="42.8468699" lon="13.0979392"><ele>727.0</ele><time>2026-04-05T14:46:57.424Z</time></trkpt><trkpt lat="42.8468351" lon="13.0981235"><ele>728.0</ele><time>2026-04-05T14:46:58.424Z</time></trkpt><trkpt lat="42.8467858" lon="13.0983056"><ele>729.0</ele><time>2026-04-05T14:46:59.424Z</time></trkpt><trkpt lat="42.8467219" lon="13.0984916"><ele>730.0</ele><time>2026-04-05T14:47:00.424Z</time></trkpt><trkpt lat="42.8466403" lon="13.0986605"><ele>731.6666666666667</ele><time>2026-04-05T14:47:01.424Z</time></trkpt><trkpt lat="42.8465393" lon="13.0988188"><ele>733.3333333333334</ele><time>2026-04-05T14:47:02.423Z</time></trkpt><trkpt lat="42.8464262" lon="13.0989697"><ele>735.0</ele><time>2026-04-05T14:47:03.424Z</time></trkpt><trkpt lat="42.846309" lon="13.0991229"><ele>737.0</ele><time>2026-04-05T14:47:04.424Z</time></trkpt><trkpt lat="42.8461914" lon="13.0992766"><ele>739.0</ele><time>2026-04-05T14:47:05.423Z</time></trkpt><trkpt lat="42.8460715" lon="13.0994452"><ele>741.0</ele><time>2026-04-05T14:47:06.423Z</time></trkpt><trkpt lat="42.8459631" lon="13.0996266"><ele>739.6666666666666</ele><time>2026-04-05T14:47:07.424Z</time></trkpt><trkpt lat="42.8458693" lon="13.0998222"><ele>738.3333333333333</ele><time>2026-04-05T14:47:08.424Z</time></trkpt><trkpt lat="42.8457855" lon="13.1000096"><ele>737.0</ele><time>2026-04-05T14:47:09.423Z</time></trkpt><trkpt lat="42.8456956" lon="13.1001996"><ele>739.6666666666666</ele><time>2026-04-05T14:47:10.424Z</time></trkpt><trkpt lat="42.8455925" lon="13.1003721"><ele>742.3333333333334</ele><time>2026-04-05T14:47:11.423Z</time></trkpt><trkpt lat="42.8454833" lon="13.100527"><ele>745.0</ele><time>2026-04-05T14:47:12.423Z</time></trkpt><trkpt lat="42.8453651" lon="13.1006698"><ele>748.3333333333334</ele><time>2026-04-05T14:47:13.423Z</time></trkpt><trkpt lat="42.8452454" lon="13.1008103"><ele>751.6666666666666</ele><time>2026-04-05T14:47:14.423Z</time></trkpt><trkpt lat="42.8451231" lon="13.1009454"><ele>755.0</ele><time>2026-04-05T14:47:15.424Z</time></trkpt><trkpt lat="42.8450052" lon="13.1010769"><ele>755.0</ele><time>2026-04-05T14:47:16.424Z</time></trkpt><trkpt lat="42.8448911" lon="13.1011898"><ele>755.0</ele><time>2026-04-05T14:47:17.424Z</time></trkpt><trkpt lat="42.8447769" lon="13.1012917"><ele>755.0</ele><time>2026-04-05T14:47:18.424Z</time></trkpt><trkpt lat="42.8446662" lon="13.1013818"><ele>755.0</ele><time>2026-04-05T14:47:19.424Z</time></trkpt><trkpt lat="42.8445687" lon="13.1014378"><ele>755.0</ele><time>2026-04-05T14:47:20.424Z</time></trkpt><trkpt lat="42.844494" lon="13.10145"><ele>755.0</ele><time>2026-04-05T14:47:21.424Z</time></trkpt><trkpt lat="42.8444114" lon="13.1014516"><ele>755.0</ele><time>2026-04-05T14:47:22.424Z</time></trkpt><trkpt lat="42.8443354" lon="13.1014406"><ele>755.0</ele><time>2026-04-05T14:47:23.424Z</time></trkpt><trkpt lat="42.8442674" lon="13.1014362"><ele>755.0</ele><time>2026-04-05T14:47:24.424Z</time></trkpt><trkpt lat="42.8441897" lon="13.1014394"><ele>755.0</ele><time>2026-04-05T14:47:25.424Z</time></trkpt><trkpt lat="42.8441079" lon="13.1014443"><ele>755.1666666666666</ele><time>2026-04-05T14:47:26.424Z</time></trkpt><trkpt lat="42.844022" lon="13.1014574"><ele>755.3333333333333</ele><time>2026-04-05T14:47:27.423Z</time></trkpt><trkpt lat="42.8439261" lon="13.1014778"><ele>755.5</ele><time>2026-04-05T14:47:28.424Z</time></trkpt><trkpt lat="42.8438405" lon="13.1014941"><ele>755.6666666666666</ele><time>2026-04-05T14:47:29.424Z</time></trkpt><trkpt lat="42.8437585" lon="13.1015186"><ele>755.8333333333334</ele><time>2026-04-05T14:47:30.424Z</time></trkpt><trkpt lat="42.8436813" lon="13.1015508"><ele>756.0</ele><time>2026-04-05T14:47:31.424Z</time></trkpt><trkpt lat="42.8435951" lon="13.1016048"><ele>756.4</ele><time>2026-04-05T14:47:32.424Z</time></trkpt><trkpt lat="42.8435065" lon="13.1016523"><ele>756.8</ele><time>2026-04-05T14:47:33.424Z</time></trkpt><trkpt lat="42.8434131" lon="13.1017095"><ele>757.1999999999999</ele><time>2026-04-05T14:47:34.424Z</time></trkpt><trkpt lat="42.8433138" lon="13.1017679"><ele>757.5999999999999</ele><time>2026-04-05T14:47:35.424Z</time></trkpt><trkpt lat="42.8432033" lon="13.1018412"><ele>758.0</ele><time>2026-04-05T14:47:36.424Z</time></trkpt><trkpt lat="42.8430866" lon="13.1019124"><ele>758.0</ele><time>2026-04-05T14:47:37.424Z</time></trkpt><trkpt lat="42.8429754" lon="13.1019846"><ele>758.0</ele><time>2026-04-05T14:47:38.423Z</time></trkpt><trkpt lat="42.8428563" lon="13.1020582"><ele>758.0</ele><time>2026-04-05T14:47:39.424Z</time></trkpt><trkpt lat="42.8427338" lon="13.1021215"><ele>758.0</ele><time>2026-04-05T14:47:40.424Z</time></trkpt><trkpt lat="42.8426176" lon="13.1021747"><ele>757.8</ele><time>2026-04-05T14:47:41.424Z</time></trkpt><trkpt lat="42.8425059" lon="13.1022379"><ele>757.5999999999999</ele><time>2026-04-05T14:47:42.424Z</time></trkpt><trkpt lat="42.8424011" lon="13.1022943"><ele>757.4000000000001</ele><time>2026-04-05T14:47:43.423Z</time></trkpt><trkpt lat="42.8423021" lon="13.1023418"><ele>757.2</ele><time>2026-04-05T14:47:44.423Z</time></trkpt><trkpt lat="42.8422025" lon="13.1023882"><ele>757.0</ele><time>2026-04-05T14:47:45.424Z</time></trkpt><trkpt lat="42.8421061" lon="13.1024277"><ele>757.0</ele><time>2026-04-05T14:47:46.424Z</time></trkpt><trkpt lat="42.8420053" lon="13.102468"><ele>757.0</ele><time>2026-04-05T14:47:47.424Z</time></trkpt><trkpt lat="42.8418996" lon="13.1025121"><ele>757.0</ele><time>2026-04-05T14:47:48.423Z</time></trkpt><trkpt lat="42.8417908" lon="13.1025607"><ele>757.0</ele><time>2026-04-05T14:47:49.424Z</time></trkpt><trkpt lat="42.8416732" lon="13.102612"><ele>756.25</ele><time>2026-04-05T14:47:50.424Z</time></trkpt><trkpt lat="42.8415525" lon="13.102673"><ele>755.5</ele><time>2026-04-05T14:47:51.424Z</time></trkpt><trkpt lat="42.8414253" lon="13.1027364"><ele>754.75</ele><time>2026-04-05T14:47:52.424Z</time></trkpt><trkpt lat="42.8413032" lon="13.1028039"><ele>754.0</ele><time>2026-04-05T14:47:53.424Z</time></trkpt><trkpt lat="42.8411819" lon="13.1028715"><ele>754.0</ele><time>2026-04-05T14:47:54.424Z</time></trkpt><trkpt lat="42.841065" lon="13.1029344"><ele>754.0</ele><time>2026-04-05T14:47:55.424Z</time></trkpt><trkpt lat="42.8409391" lon="13.1030095"><ele>754.0</ele><time>2026-04-05T14:47:56.424Z</time></trkpt><trkpt lat="42.8408188" lon="13.1030761"><ele>754.0</ele><time>2026-04-05T14:47:57.423Z</time></trkpt><trkpt lat="42.8406865" lon="13.1031582"><ele>754.25</ele><time>2026-04-05T14:47:58.423Z</time></trkpt><trkpt lat="42.840555" lon="13.1032381"><ele>754.5</ele><time>2026-04-05T14:47:59.423Z</time></trkpt><trkpt lat="42.8404276" lon="13.1033067"><ele>754.75</ele><time>2026-04-05T14:48:00.424Z</time></trkpt><trkpt lat="42.840309" lon="13.1033699"><ele>755.0</ele><time>2026-04-05T14:48:01.424Z</time></trkpt><trkpt lat="42.84021" lon="13.1033968"><ele>755.2</ele><time>2026-04-05T14:48:02.424Z</time></trkpt><trkpt lat="42.8401064" lon="13.1034021"><ele>755.4</ele><time>2026-04-05T14:48:03.423Z</time></trkpt><trkpt lat="42.8400092" lon="13.1033859"><ele>755.5999999999999</ele><time>2026-04-05T14:48:04.424Z</time></trkpt><trkpt lat="42.8399087" lon="13.1033414"><ele>755.8</ele><time>2026-04-05T14:48:05.424Z</time></trkpt><trkpt lat="42.8398155" lon="13.1032812"><ele>756.0</ele><time>2026-04-05T14:48:06.424Z</time></trkpt><trkpt lat="42.8397278" lon="13.103213"><ele>756.0</ele><time>2026-04-05T14:48:07.424Z</time></trkpt><trkpt lat="42.8396344" lon="13.1031358"><ele>756.0</ele><time>2026-04-05T14:48:08.424Z</time></trkpt><trkpt lat="42.8395525" lon="13.1030434"><ele>756.0</ele><time>2026-04-05T14:48:09.424Z</time></trkpt><trkpt lat="42.8394641" lon="13.1029576"><ele>756.0</ele><time>2026-04-05T14:48:10.424Z</time></trkpt><trkpt lat="42.8393756" lon="13.1028603"><ele>756.0</ele><time>2026-04-05T14:48:11.424Z</time></trkpt><trkpt lat="42.8392889" lon="13.102768"><ele>757.1999999999999</ele><time>2026-04-05T14:48:12.424Z</time></trkpt><trkpt lat="42.8392057" lon="13.1026744"><ele>758.4</ele><time>2026-04-05T14:48:13.424Z</time></trkpt><trkpt lat="42.8391207" lon="13.102592"><ele>759.6</ele><time>2026-04-05T14:48:14.424Z</time></trkpt><trkpt lat="42.8390472" lon="13.1025132"><ele>760.8</ele><time>2026-04-05T14:48:15.424Z</time></trkpt><trkpt lat="42.8389642" lon="13.1024696"><ele>762.0</ele><time>2026-04-05T14:48:16.424Z</time></trkpt><trkpt lat="42.8388677" lon="13.102455"><ele>762.0</ele><time>2026-04-05T14:48:17.424Z</time></trkpt><trkpt lat="42.8387856" lon="13.1024637"><ele>762.0</ele><time>2026-04-05T14:48:18.424Z</time></trkpt><trkpt lat="42.8387136" lon="13.1024698"><ele>762.0</ele><time>2026-04-05T14:48:19.424Z</time></trkpt><trkpt lat="42.838631" lon="13.1024794"><ele>762.0</ele><time>2026-04-05T14:48:20.424Z</time></trkpt><trkpt lat="42.83855" lon="13.1024842"><ele>762.0</ele><time>2026-04-05T14:48:21.424Z</time></trkpt><trkpt lat="42.8384602" lon="13.1024927"><ele>762.0</ele><time>2026-04-05T14:48:22.424Z</time></trkpt><trkpt lat="42.8383693" lon="13.1025036"><ele>762.4000000000001</ele><time>2026-04-05T14:48:23.424Z</time></trkpt><trkpt lat="42.8382756" lon="13.1025076"><ele>762.8000000000001</ele><time>2026-04-05T14:48:24.424Z</time></trkpt><trkpt lat="42.8381861" lon="13.102522"><ele>763.2</ele><time>2026-04-05T14:48:25.423Z</time></trkpt><trkpt lat="42.8380935" lon="13.1025237"><ele>763.6</ele><time>2026-04-05T14:48:26.424Z</time></trkpt><trkpt lat="42.8379984" lon="13.1025392"><ele>764.0</ele><time>2026-04-05T14:48:27.424Z</time></trkpt><trkpt lat="42.8379045" lon="13.1025529"><ele>764.0</ele><time>2026-04-05T14:48:28.424Z</time></trkpt><trkpt lat="42.837809" lon="13.1025688"><ele>764.0</ele><time>2026-04-05T14:48:29.424Z</time></trkpt><trkpt lat="42.8377294" lon="13.1025742"><ele>764.0</ele><time>2026-04-05T14:48:30.424Z</time></trkpt><trkpt lat="42.8376452" lon="13.1025924"><ele>764.0</ele><time>2026-04-05T14:48:31.424Z</time></trkpt><trkpt lat="42.8375634" lon="13.1026297"><ele>764.0</ele><time>2026-04-05T14:48:32.424Z</time></trkpt><trkpt lat="42.8374865" lon="13.1026918"><ele>764.0</ele><time>2026-04-05T14:48:33.424Z</time></trkpt><trkpt lat="42.8374218" lon="13.1027689"><ele>764.5</ele><time>2026-04-05T14:48:34.424Z</time></trkpt><trkpt lat="42.8373616" lon="13.1028539"><ele>765.0</ele><time>2026-04-05T14:48:35.424Z</time></trkpt><trkpt lat="42.8373019" lon="13.1029307"><ele>765.5</ele><time>2026-04-05T14:48:36.424Z</time></trkpt><trkpt lat="42.8372433" lon="13.1030057"><ele>766.0</ele><time>2026-04-05T14:48:37.423Z</time></trkpt><trkpt lat="42.837187" lon="13.1030854"><ele>766.5</ele><time>2026-04-05T14:48:38.424Z</time></trkpt><trkpt lat="42.8371261" lon="13.1031589"><ele>767.0</ele><time>2026-04-05T14:48:39.423Z</time></trkpt><trkpt lat="42.8370717" lon="13.1032403"><ele>767.5</ele><time>2026-04-05T14:48:40.424Z</time></trkpt><trkpt lat="42.8370155" lon="13.1033183"><ele>768.0</ele><time>2026-04-05T14:48:41.424Z</time></trkpt><trkpt lat="42.8369611" lon="13.1033913"><ele>768.5</ele><time>2026-04-05T14:48:42.423Z</time></trkpt><trkpt lat="42.8369074" lon="13.1034618"><ele>769.0</ele><time>2026-04-05T14:48:43.423Z</time></trkpt><trkpt lat="42.8368545" lon="13.1035246"><ele>769.5000000000001</ele><time>2026-04-05T14:48:44.424Z</time></trkpt><trkpt lat="42.8368003" lon="13.1035741"><ele>770.0</ele><time>2026-04-05T14:48:45.424Z</time></trkpt><trkpt lat="42.8366775" lon="13.1036308"><ele>770.8333333333334</ele><time>2026-04-05T14:48:47.424Z</time></trkpt><trkpt lat="42.8366058" lon="13.103641"><ele>771.6666666666667</ele><time>2026-04-05T14:48:48.423Z</time></trkpt><trkpt lat="42.8365294" lon="13.1036446"><ele>772.5</ele><time>2026-04-05T14:48:49.424Z</time></trkpt><trkpt lat="42.8364455" lon="13.1036483"><ele>773.3333333333333</ele><time>2026-04-05T14:48:50.424Z</time></trkpt><trkpt lat="42.8363642" lon="13.1036515"><ele>774.1666666666666</ele><time>2026-04-05T14:48:51.424Z</time></trkpt><trkpt lat="42.8362701" lon="13.1036457"><ele>775.0</ele><time>2026-04-05T14:48:52.424Z</time></trkpt><trkpt lat="42.8361735" lon="13.103636"><ele>775.0</ele><time>2026-04-05T14:48:53.423Z</time></trkpt><trkpt lat="42.8360816" lon="13.1036236"><ele>775.0</ele><time>2026-04-05T14:48:54.423Z</time></trkpt><trkpt lat="42.8359918" lon="13.1036247"><ele>775.0</ele><time>2026-04-05T14:48:55.423Z</time></trkpt><trkpt lat="42.835901" lon="13.1036409"><ele>775.0</ele><time>2026-04-05T14:48:56.424Z</time></trkpt><trkpt lat="42.8358106" lon="13.1036855"><ele>775.0</ele><time>2026-04-05T14:48:57.423Z</time></trkpt><trkpt lat="42.835714" lon="13.1037449"><ele>777.25</ele><time>2026-04-05T14:48:58.424Z</time></trkpt><trkpt lat="42.8356183" lon="13.1038213"><ele>779.5</ele><time>2026-04-05T14:48:59.423Z</time></trkpt><trkpt lat="42.8355098" lon="13.1039135"><ele>781.75</ele><time>2026-04-05T14:49:00.423Z</time></trkpt><trkpt lat="42.8354024" lon="13.1040012"><ele>784.0</ele><time>2026-04-05T14:49:01.424Z</time></trkpt><trkpt lat="42.8353056" lon="13.1040727"><ele>784.8000000000001</ele><time>2026-04-05T14:49:02.424Z</time></trkpt><trkpt lat="42.8352095" lon="13.104147"><ele>785.6</ele><time>2026-04-05T14:49:03.424Z</time></trkpt><trkpt lat="42.8351041" lon="13.1042127"><ele>786.4</ele><time>2026-04-05T14:49:04.424Z</time></trkpt><trkpt lat="42.8349999" lon="13.1042652"><ele>787.2</ele><time>2026-04-05T14:49:05.424Z</time></trkpt><trkpt lat="42.8348957" lon="13.1043115"><ele>788.0</ele><time>2026-04-05T14:49:06.424Z</time></trkpt><trkpt lat="42.8347781" lon="13.1043655"><ele>789.0</ele><time>2026-04-05T14:49:07.424Z</time></trkpt><trkpt lat="42.8346638" lon="13.1044185"><ele>790.0</ele><time>2026-04-05T14:49:08.424Z</time></trkpt><trkpt lat="42.8345497" lon="13.1044943"><ele>791.0</ele><time>2026-04-05T14:49:09.424Z</time></trkpt><trkpt lat="42.8344403" lon="13.1045905"><ele>792.0</ele><time>2026-04-05T14:49:10.424Z</time></trkpt><trkpt lat="42.8343267" lon="13.1046989"><ele>794.0</ele><time>2026-04-05T14:49:11.424Z</time></trkpt><trkpt lat="42.8342101" lon="13.1048078"><ele>796.0</ele><time>2026-04-05T14:49:12.424Z</time></trkpt><trkpt lat="42.8340908" lon="13.1049155"><ele>798.0</ele><time>2026-04-05T14:49:13.424Z</time></trkpt><trkpt lat="42.8339691" lon="13.105022"><ele>800.0</ele><time>2026-04-05T14:49:14.423Z</time></trkpt><trkpt lat="42.8338501" lon="13.1051365"><ele>800.0</ele><time>2026-04-05T14:49:15.424Z</time></trkpt><trkpt lat="42.8337252" lon="13.105249"><ele>800.0</ele><time>2026-04-05T14:49:16.424Z</time></trkpt><trkpt lat="42.8336032" lon="13.1053632"><ele>800.0</ele><time>2026-04-05T14:49:17.424Z</time></trkpt><trkpt lat="42.8334781" lon="13.1054774"><ele>800.0</ele><time>2026-04-05T14:49:18.424Z</time></trkpt><trkpt lat="42.8333608" lon="13.1055839"><ele>801.25</ele><time>2026-04-05T14:49:19.424Z</time></trkpt><trkpt lat="42.8332539" lon="13.1056676"><ele>802.5</ele><time>2026-04-05T14:49:20.424Z</time></trkpt><trkpt lat="42.8331451" lon="13.1057327"><ele>803.75</ele><time>2026-04-05T14:49:21.424Z</time></trkpt><trkpt lat="42.8330286" lon="13.1057736"><ele>805.0</ele><time>2026-04-05T14:49:22.423Z</time></trkpt><trkpt lat="42.8329002" lon="13.1057748"><ele>805.25</ele><time>2026-04-05T14:49:23.424Z</time></trkpt><trkpt lat="42.8327768" lon="13.1057541"><ele>805.5</ele><time>2026-04-05T14:49:24.424Z</time></trkpt><trkpt lat="42.8326366" lon="13.1056853"><ele>805.75</ele><time>2026-04-05T14:49:25.424Z</time></trkpt><trkpt lat="42.8325008" lon="13.1056215"><ele>806.0</ele><time>2026-04-05T14:49:26.423Z</time></trkpt><trkpt lat="42.8323694" lon="13.1055773"><ele>809.5</ele><time>2026-04-05T14:49:27.424Z</time></trkpt><trkpt lat="42.832236" lon="13.1055588"><ele>813.0</ele><time>2026-04-05T14:49:28.424Z</time></trkpt><trkpt lat="42.8321024" lon="13.1055657"><ele>816.5</ele><time>2026-04-05T14:49:29.423Z</time></trkpt><trkpt lat="42.8319579" lon="13.1056088"><ele>820.0</ele><time>2026-04-05T14:49:30.424Z</time></trkpt><trkpt lat="42.8318152" lon="13.1056561"><ele>821.6666666666666</ele><time>2026-04-05T14:49:31.423Z</time></trkpt><trkpt lat="42.8316624" lon="13.1057167"><ele>823.3333333333333</ele><time>2026-04-05T14:49:32.424Z</time></trkpt><trkpt lat="42.8315137" lon="13.1057825"><ele>825.0</ele><time>2026-04-05T14:49:33.424Z</time></trkpt><trkpt lat="42.8313715" lon="13.105845"><ele>825.0</ele><time>2026-04-05T14:49:34.424Z</time></trkpt><trkpt lat="42.8312226" lon="13.1059027"><ele>825.0</ele><time>2026-04-05T14:49:35.423Z</time></trkpt><trkpt lat="42.831072" lon="13.1059666"><ele>825.0</ele><time>2026-04-05T14:49:36.424Z</time></trkpt><trkpt lat="42.8309166" lon="13.1060482"><ele>830.6666666666667</ele><time>2026-04-05T14:49:37.424Z</time></trkpt><trkpt lat="42.8307636" lon="13.1061185"><ele>836.3333333333334</ele><time>2026-04-05T14:49:38.424Z</time></trkpt><trkpt lat="42.8306122" lon="13.1062039"><ele>842.0</ele><time>2026-04-05T14:49:39.424Z</time></trkpt><trkpt lat="42.8304656" lon="13.1063002"><ele>842.0</ele><time>2026-04-05T14:49:40.423Z</time></trkpt><trkpt lat="42.8303272" lon="13.1063965"><ele>842.0</ele><time>2026-04-05T14:49:41.423Z</time></trkpt><trkpt lat="42.8301928" lon="13.1064794"><ele>842.0</ele><time>2026-04-05T14:49:42.424Z</time></trkpt><trkpt lat="42.8300564" lon="13.1065434"><ele>842.0</ele><time>2026-04-05T14:49:43.424Z</time></trkpt><trkpt lat="42.829915" lon="13.1065927"><ele>841.0</ele><time>2026-04-05T14:49:44.423Z</time></trkpt><trkpt lat="42.8297804" lon="13.1066351"><ele>840.0</ele><time>2026-04-05T14:49:45.424Z</time></trkpt><trkpt lat="42.8296481" lon="13.1066748"><ele>839.0</ele><time>2026-04-05T14:49:46.424Z</time></trkpt><trkpt lat="42.8295293" lon="13.1067082"><ele>838.0</ele><time>2026-04-05T14:49:47.424Z</time></trkpt><trkpt lat="42.8294136" lon="13.1067538"><ele>843.0</ele><time>2026-04-05T14:49:48.424Z</time></trkpt><trkpt lat="42.8292989" lon="13.1068166"><ele>848.0</ele><time>2026-04-05T14:49:49.423Z</time></trkpt><trkpt lat="42.8291899" lon="13.1069068"><ele>853.0</ele><time>2026-04-05T14:49:50.424Z</time></trkpt><trkpt lat="42.8291063" lon="13.1070047"><ele>858.0</ele><time>2026-04-05T14:49:51.424Z</time></trkpt><trkpt lat="42.8290303" lon="13.1071148"><ele>858.0</ele><time>2026-04-05T14:49:52.424Z</time></trkpt><trkpt lat="42.8289929" lon="13.1072436"><ele>858.0</ele><time>2026-04-05T14:49:53.424Z</time></trkpt><trkpt lat="42.8289982" lon="13.1073753"><ele>858.0</ele><time>2026-04-05T14:49:54.424Z</time></trkpt><trkpt lat="42.8290339" lon="13.1075246"><ele>858.0</ele><time>2026-04-05T14:49:55.424Z</time></trkpt><trkpt lat="42.8291007" lon="13.1076628"><ele>858.0</ele><time>2026-04-05T14:49:56.424Z</time></trkpt><trkpt lat="42.8291731" lon="13.1078035"><ele>856.5</ele><time>2026-04-05T14:49:57.424Z</time></trkpt><trkpt lat="42.8292745" lon="13.107932"><ele>855.0</ele><time>2026-04-05T14:49:58.424Z</time></trkpt><trkpt lat="42.8293781" lon="13.1080461"><ele>853.5</ele><time>2026-04-05T14:49:59.424Z</time></trkpt><trkpt lat="42.8294793" lon="13.1081608"><ele>852.0</ele><time>2026-04-05T14:50:00.423Z</time></trkpt><trkpt lat="42.8295893" lon="13.1082757"><ele>851.4000000000001</ele><time>2026-04-05T14:50:01.424Z</time></trkpt><trkpt lat="42.8296679" lon="13.1083837"><ele>850.8000000000001</ele><time>2026-04-05T14:50:02.423Z</time></trkpt><trkpt lat="42.8297373" lon="13.1085048"><ele>850.2</ele><time>2026-04-05T14:50:03.423Z</time></trkpt><trkpt lat="42.8297778" lon="13.1086368"><ele>849.6</ele><time>2026-04-05T14:50:04.424Z</time></trkpt><trkpt lat="42.8297928" lon="13.1087606"><ele>849.0</ele><time>2026-04-05T14:50:05.423Z</time></trkpt><trkpt lat="42.8297914" lon="13.1089111"><ele>849.0</ele><time>2026-04-05T14:50:06.424Z</time></trkpt><trkpt lat="42.8297809" lon="13.1090552"><ele>849.0</ele><time>2026-04-05T14:50:07.424Z</time></trkpt><trkpt lat="42.8297401" lon="13.1091936"><ele>849.0</ele><time>2026-04-05T14:50:08.423Z</time></trkpt><trkpt lat="42.8296859" lon="13.1093153"><ele>849.0</ele><time>2026-04-05T14:50:09.423Z</time></trkpt><trkpt lat="42.8296095" lon="13.1094223"><ele>849.0</ele><time>2026-04-05T14:50:10.424Z</time></trkpt><trkpt lat="42.8295306" lon="13.1095193"><ele>850.25</ele><time>2026-04-05T14:50:11.423Z</time></trkpt><trkpt lat="42.8294121" lon="13.1095763"><ele>851.5</ele><time>2026-04-05T14:50:12.424Z</time></trkpt><trkpt lat="42.8293056" lon="13.1096154"><ele>852.75</ele><time>2026-04-05T14:50:13.423Z</time></trkpt><trkpt lat="42.829191" lon="13.1096306"><ele>854.0</ele><time>2026-04-05T14:50:14.424Z</time></trkpt><trkpt lat="42.8290835" lon="13.1096047"><ele>859.0</ele><time>2026-04-05T14:50:15.424Z</time></trkpt><trkpt lat="42.8289801" lon="13.1095221"><ele>864.0</ele><time>2026-04-05T14:50:16.423Z</time></trkpt><trkpt lat="42.8288771" lon="13.1094307"><ele>869.0</ele><time>2026-04-05T14:50:17.424Z</time></trkpt><trkpt lat="42.8287721" lon="13.1093128"><ele>874.0</ele><time>2026-04-05T14:50:18.424Z</time></trkpt><trkpt lat="42.8286508" lon="13.1092216"><ele>874.0</ele><time>2026-04-05T14:50:19.424Z</time></trkpt><trkpt lat="42.8285339" lon="13.1091297"><ele>874.0</ele><time>2026-04-05T14:50:20.423Z</time></trkpt><trkpt lat="42.8283985" lon="13.1090839"><ele>874.0</ele><time>2026-04-05T14:50:21.424Z</time></trkpt><trkpt lat="42.8282675" lon="13.1090358"><ele>874.0</ele><time>2026-04-05T14:50:22.424Z</time></trkpt><trkpt lat="42.8281221" lon="13.1090543"><ele>875.25</ele><time>2026-04-05T14:50:23.424Z</time></trkpt><trkpt lat="42.8279851" lon="13.1090777"><ele>876.5</ele><time>2026-04-05T14:50:24.424Z</time></trkpt><trkpt lat="42.8278487" lon="13.1091172"><ele>877.75</ele><time>2026-04-05T14:50:25.424Z</time></trkpt><trkpt lat="42.8277107" lon="13.1091729"><ele>879.0</ele><time>2026-04-05T14:50:26.424Z</time></trkpt><trkpt lat="42.8275763" lon="13.1092429"><ele>885.0</ele><time>2026-04-05T14:50:27.424Z</time></trkpt><trkpt lat="42.827439" lon="13.1093369"><ele>891.0</ele><time>2026-04-05T14:50:28.424Z</time></trkpt><trkpt lat="42.8273046" lon="13.1094421"><ele>897.0</ele><time>2026-04-05T14:50:29.423Z</time></trkpt><trkpt lat="42.8271888" lon="13.1095807"><ele>897.0</ele><time>2026-04-05T14:50:30.423Z</time></trkpt><trkpt lat="42.8270722" lon="13.1097237"><ele>897.0</ele><time>2026-04-05T14:50:31.424Z</time></trkpt><trkpt lat="42.8269702" lon="13.1098471"><ele>897.0</ele><time>2026-04-05T14:50:32.423Z</time></trkpt><trkpt lat="42.8268768" lon="13.109947"><ele>897.0</ele><time>2026-04-05T14:50:33.424Z</time></trkpt><trkpt lat="42.8267994" lon="13.1100593"><ele>899.0</ele><time>2026-04-05T14:50:34.424Z</time></trkpt><trkpt lat="42.8267316" lon="13.1101783"><ele>901.0</ele><time>2026-04-05T14:50:35.424Z</time></trkpt><trkpt lat="42.8266847" lon="13.1103268"><ele>903.0</ele><time>2026-04-05T14:50:36.424Z</time></trkpt><trkpt lat="42.8266522" lon="13.1104857"><ele>905.0</ele><time>2026-04-05T14:50:37.424Z</time></trkpt><trkpt lat="42.8266321" lon="13.1106449"><ele>903.25</ele><time>2026-04-05T14:50:38.424Z</time></trkpt><trkpt lat="42.8265931" lon="13.1108021"><ele>901.5</ele><time>2026-04-05T14:50:39.424Z</time></trkpt><trkpt lat="42.826544" lon="13.110942"><ele>899.75</ele><time>2026-04-05T14:50:40.424Z</time></trkpt><trkpt lat="42.8264729" lon="13.1110778"><ele>898.0</ele><time>2026-04-05T14:50:41.423Z</time></trkpt><trkpt lat="42.8263907" lon="13.1112035"><ele>898.0</ele><time>2026-04-05T14:50:42.423Z</time></trkpt><trkpt lat="42.8262864" lon="13.1113162"><ele>898.0</ele><time>2026-04-05T14:50:43.424Z</time></trkpt><trkpt lat="42.8261775" lon="13.111421"><ele>898.0</ele><time>2026-04-05T14:50:44.423Z</time></trkpt><trkpt lat="42.8260762" lon="13.1115298"><ele>898.0</ele><time>2026-04-05T14:50:45.424Z</time></trkpt><trkpt lat="42.8259937" lon="13.1116321"><ele>898.9999999999999</ele><time>2026-04-05T14:50:46.423Z</time></trkpt><trkpt lat="42.8259411" lon="13.1117354"><ele>900.0</ele><time>2026-04-05T14:50:47.424Z</time></trkpt><trkpt lat="42.8259122" lon="13.1118376"><ele>901.0</ele><time>2026-04-05T14:50:48.423Z</time></trkpt><trkpt lat="42.8259291" lon="13.1119466"><ele>902.0</ele><time>2026-04-05T14:50:49.424Z</time></trkpt><trkpt lat="42.8259605" lon="13.1120447"><ele>902.9999999999999</ele><time>2026-04-05T14:50:50.424Z</time></trkpt><trkpt lat="42.8260186" lon="13.1121311"><ele>904.0</ele><time>2026-04-05T14:50:51.424Z</time></trkpt><trkpt lat="42.8260878" lon="13.1121904"><ele>904.0</ele><time>2026-04-05T14:50:52.424Z</time></trkpt><trkpt lat="42.8262003" lon="13.1122023"><ele>904.0</ele><time>2026-04-05T14:50:53.424Z</time></trkpt><trkpt lat="42.8263258" lon="13.1121735"><ele>904.0</ele><time>2026-04-05T14:50:54.424Z</time></trkpt><trkpt lat="42.8264669" lon="13.1121537"><ele>904.0</ele><time>2026-04-05T14:50:55.423Z</time></trkpt><trkpt lat="42.8265996" lon="13.11213"><ele>904.0</ele><time>2026-04-05T14:50:56.424Z</time></trkpt><trkpt lat="42.8267244" lon="13.1120952"><ele>904.0</ele><time>2026-04-05T14:50:57.424Z</time></trkpt><trkpt lat="42.8268574" lon="13.1120605"><ele>904.0</ele><time>2026-04-05T14:50:58.423Z</time></trkpt><trkpt lat="42.8269956" lon="13.1120063"><ele>904.0</ele><time>2026-04-05T14:50:59.424Z</time></trkpt><trkpt lat="42.8271189" lon="13.1118915"><ele>901.5</ele><time>2026-04-05T14:51:00.424Z</time></trkpt><trkpt lat="42.8272393" lon="13.1117707"><ele>899.0</ele><time>2026-04-05T14:51:01.424Z</time></trkpt><trkpt lat="42.8273462" lon="13.1116495"><ele>896.5</ele><time>2026-04-05T14:51:02.424Z</time></trkpt><trkpt lat="42.827452" lon="13.1115523"><ele>894.0</ele><time>2026-04-05T14:51:03.423Z</time></trkpt><trkpt lat="42.8275422" lon="13.1114865"><ele>892.8000000000001</ele><time>2026-04-05T14:51:04.424Z</time></trkpt><trkpt lat="42.8276477" lon="13.1114699"><ele>891.6000000000001</ele><time>2026-04-05T14:51:05.424Z</time></trkpt><trkpt lat="42.8277371" lon="13.1115009"><ele>890.4</ele><time>2026-04-05T14:51:06.424Z</time></trkpt><trkpt lat="42.8278218" lon="13.1115628"><ele>889.2</ele><time>2026-04-05T14:51:07.424Z</time></trkpt><trkpt lat="42.8278958" lon="13.1116565"><ele>888.0</ele><time>2026-04-05T14:51:08.424Z</time></trkpt><trkpt lat="42.8279364" lon="13.1117844"><ele>891.8</ele><time>2026-04-05T14:51:09.423Z</time></trkpt><trkpt lat="42.8279653" lon="13.111918"><ele>895.5999999999999</ele><time>2026-04-05T14:51:10.424Z</time></trkpt><trkpt lat="42.8279602" lon="13.1120563"><ele>899.4000000000001</ele><time>2026-04-05T14:51:11.424Z</time></trkpt><trkpt lat="42.8279262" lon="13.1122042"><ele>903.2</ele><time>2026-04-05T14:51:12.423Z</time></trkpt><trkpt lat="42.8278808" lon="13.1123522"><ele>907.0</ele><time>2026-04-05T14:51:13.424Z</time></trkpt><trkpt lat="42.8278215" lon="13.1125047"><ele>908.25</ele><time>2026-04-05T14:51:14.423Z</time></trkpt><trkpt lat="42.8277459" lon="13.112632"><ele>909.5</ele><time>2026-04-05T14:51:15.423Z</time></trkpt><trkpt lat="42.827658" lon="13.1127425"><ele>910.75</ele><time>2026-04-05T14:51:16.424Z</time></trkpt><trkpt lat="42.8275746" lon="13.1128552"><ele>912.0</ele><time>2026-04-05T14:51:17.424Z</time></trkpt><trkpt lat="42.8275005" lon="13.1129752"><ele>917.75</ele><time>2026-04-05T14:51:18.423Z</time></trkpt><trkpt lat="42.8274355" lon="13.1131212"><ele>923.5</ele><time>2026-04-05T14:51:19.424Z</time></trkpt><trkpt lat="42.827381" lon="13.1132872"><ele>929.25</ele><time>2026-04-05T14:51:20.423Z</time></trkpt><trkpt lat="42.8273308" lon="13.1134734"><ele>935.0</ele><time>2026-04-05T14:51:21.423Z</time></trkpt><trkpt lat="42.827287" lon="13.113657"><ele>935.25</ele><time>2026-04-05T14:51:22.424Z</time></trkpt><trkpt lat="42.8272524" lon="13.1138378"><ele>935.5</ele><time>2026-04-05T14:51:23.423Z</time></trkpt><trkpt lat="42.8272447" lon="13.114015"><ele>935.75</ele><time>2026-04-05T14:51:24.424Z</time></trkpt><trkpt lat="42.827246" lon="13.114185"><ele>936.0</ele><time>2026-04-05T14:51:25.424Z</time></trkpt><trkpt lat="42.8272632" lon="13.114339"><ele>936.1666666666666</ele><time>2026-04-05T14:51:26.424Z</time></trkpt><trkpt lat="42.827292" lon="13.1144714"><ele>936.3333333333333</ele><time>2026-04-05T14:51:27.423Z</time></trkpt><trkpt lat="42.8273101" lon="13.1145928"><ele>936.5</ele><time>2026-04-05T14:51:28.424Z</time></trkpt><trkpt lat="42.8273137" lon="13.1146817"><ele>936.6666666666666</ele><time>2026-04-05T14:51:29.424Z</time></trkpt><trkpt lat="42.8272905" lon="13.1148205"><ele>936.8333333333333</ele><time>2026-04-05T14:51:31.424Z</time></trkpt><trkpt lat="42.8272277" lon="13.1148625"><ele>937.0</ele><time>2026-04-05T14:51:33.424Z</time></trkpt><trkpt lat="42.8271271" lon="13.1147882"><ele>936.9999999999999</ele><time>2026-04-05T14:51:35.424Z</time></trkpt><trkpt lat="42.8270953" lon="13.1147055"><ele>937.0</ele><time>2026-04-05T14:51:36.423Z</time></trkpt><trkpt lat="42.8270664" lon="13.1146073"><ele>937.0</ele><time>2026-04-05T14:51:37.423Z</time></trkpt><trkpt lat="42.8270758" lon="13.1144868"><ele>937.0</ele><time>2026-04-05T14:51:38.424Z</time></trkpt><trkpt lat="42.8270699" lon="13.1143668"><ele>936.9999999999999</ele><time>2026-04-05T14:51:39.424Z</time></trkpt><trkpt lat="42.8270631" lon="13.114245"><ele>937.0</ele><time>2026-04-05T14:51:40.424Z</time></trkpt><trkpt lat="42.8270507" lon="13.1141094"><ele>936.75</ele><time>2026-04-05T14:51:41.424Z</time></trkpt><trkpt lat="42.827056" lon="13.1139559"><ele>936.5</ele><time>2026-04-05T14:51:42.423Z</time></trkpt><trkpt lat="42.8270471" lon="13.113791"><ele>936.25</ele><time>2026-04-05T14:51:43.423Z</time></trkpt><trkpt lat="42.827046" lon="13.1136287"><ele>936.0</ele><time>2026-04-05T14:51:44.423Z</time></trkpt><trkpt lat="42.8270429" lon="13.1134743"><ele>936.0</ele><time>2026-04-05T14:51:45.424Z</time></trkpt><trkpt lat="42.8270358" lon="13.1133295"><ele>936.0</ele><time>2026-04-05T14:51:46.424Z</time></trkpt><trkpt lat="42.8270255" lon="13.1132006"><ele>936.0</ele><time>2026-04-05T14:51:47.424Z</time></trkpt><trkpt lat="42.8269934" lon="13.1130875"><ele>936.0</ele><time>2026-04-05T14:51:48.424Z</time></trkpt><trkpt lat="42.8269573" lon="13.113004"><ele>936.0</ele><time>2026-04-05T14:51:49.424Z</time></trkpt><trkpt lat="42.8268878" lon="13.1129571"><ele>936.0</ele><time>2026-04-05T14:51:50.423Z</time></trkpt><trkpt lat="42.8267991" lon="13.1129446"><ele>934.75</ele><time>2026-04-05T14:51:51.424Z</time></trkpt><trkpt lat="42.8266971" lon="13.1129877"><ele>933.5</ele><time>2026-04-05T14:51:52.424Z</time></trkpt><trkpt lat="42.8265819" lon="13.1130409"><ele>932.25</ele><time>2026-04-05T14:51:53.424Z</time></trkpt><trkpt lat="42.8264816" lon="13.1130942"><ele>931.0</ele><time>2026-04-05T14:51:54.424Z</time></trkpt><trkpt lat="42.826364" lon="13.1131662"><ele>937.25</ele><time>2026-04-05T14:51:55.424Z</time></trkpt><trkpt lat="42.8262431" lon="13.113245"><ele>943.5</ele><time>2026-04-05T14:51:56.424Z</time></trkpt><trkpt lat="42.8261212" lon="13.1133173"><ele>949.75</ele><time>2026-04-05T14:51:57.423Z</time></trkpt><trkpt lat="42.8259946" lon="13.1133746"><ele>956.0</ele><time>2026-04-05T14:51:58.424Z</time></trkpt><trkpt lat="42.8258633" lon="13.1134256"><ele>956.25</ele><time>2026-04-05T14:51:59.424Z</time></trkpt><trkpt lat="42.8257205" lon="13.1134732"><ele>956.5</ele><time>2026-04-05T14:52:00.424Z</time></trkpt><trkpt lat="42.8255831" lon="13.1135177"><ele>956.75</ele><time>2026-04-05T14:52:01.424Z</time></trkpt><trkpt lat="42.8254415" lon="13.1135426"><ele>957.0</ele><time>2026-04-05T14:52:02.424Z</time></trkpt><trkpt lat="42.8252999" lon="13.1135657"><ele>957.0</ele><time>2026-04-05T14:52:03.424Z</time></trkpt><trkpt lat="42.8251638" lon="13.1135855"><ele>957.0</ele><time>2026-04-05T14:52:04.423Z</time></trkpt><trkpt lat="42.825028" lon="13.1136059"><ele>957.0</ele><time>2026-04-05T14:52:05.423Z</time></trkpt><trkpt lat="42.8248842" lon="13.1136224"><ele>957.0</ele><time>2026-04-05T14:52:06.424Z</time></trkpt><trkpt lat="42.8247367" lon="13.1136388"><ele>957.0</ele><time>2026-04-05T14:52:07.424Z</time></trkpt><trkpt lat="42.8245936" lon="13.1136722"><ele>957.0</ele><time>2026-04-05T14:52:08.424Z</time></trkpt><trkpt lat="42.8244479" lon="13.1137277"><ele>957.0</ele><time>2026-04-05T14:52:09.423Z</time></trkpt><trkpt lat="42.8242998" lon="13.1137876"><ele>957.0</ele><time>2026-04-05T14:52:10.424Z</time></trkpt><trkpt lat="42.824154" lon="13.1138523"><ele>957.0</ele><time>2026-04-05T14:52:11.424Z</time></trkpt><trkpt lat="42.8240026" lon="13.113923"><ele>957.0</ele><time>2026-04-05T14:52:12.424Z</time></trkpt><trkpt lat="42.8238495" lon="13.1139838"><ele>957.0</ele><time>2026-04-05T14:52:13.424Z</time></trkpt><trkpt lat="42.8237102" lon="13.1140685"><ele>957.0</ele><time>2026-04-05T14:52:14.423Z</time></trkpt><trkpt lat="42.8235829" lon="13.1141774"><ele>957.0</ele><time>2026-04-05T14:52:15.424Z</time></trkpt><trkpt lat="42.823459" lon="13.1142984"><ele>963.3333333333333</ele><time>2026-04-05T14:52:16.424Z</time></trkpt><trkpt lat="42.8233342" lon="13.1144318"><ele>969.6666666666666</ele><time>2026-04-05T14:52:17.424Z</time></trkpt><trkpt lat="42.8232011" lon="13.1145633"><ele>976.0</ele><time>2026-04-05T14:52:18.424Z</time></trkpt><trkpt lat="42.8230657" lon="13.1146873"><ele>976.0</ele><time>2026-04-05T14:52:19.424Z</time></trkpt><trkpt lat="42.8229183" lon="13.1147987"><ele>976.0</ele><time>2026-04-05T14:52:20.423Z</time></trkpt><trkpt lat="42.8227659" lon="13.1148981"><ele>976.0</ele><time>2026-04-05T14:52:21.424Z</time></trkpt><trkpt lat="42.8226088" lon="13.1149942"><ele>982.3333333333333</ele><time>2026-04-05T14:52:22.424Z</time></trkpt><trkpt lat="42.8224542" lon="13.1150985"><ele>988.6666666666667</ele><time>2026-04-05T14:52:23.423Z</time></trkpt><trkpt lat="42.8223074" lon="13.1151957"><ele>995.0</ele><time>2026-04-05T14:52:24.424Z</time></trkpt><trkpt lat="42.8221537" lon="13.1152877"><ele>995.0</ele><time>2026-04-05T14:52:25.424Z</time></trkpt><trkpt lat="42.822" lon="13.1153888"><ele>995.0</ele><time>2026-04-05T14:52:26.424Z</time></trkpt><trkpt lat="42.8218463" lon="13.1154925"><ele>995.0</ele><time>2026-04-05T14:52:27.424Z</time></trkpt><trkpt lat="42.8217021" lon="13.1155788"><ele>996.0</ele><time>2026-04-05T14:52:28.424Z</time></trkpt><trkpt lat="42.8215622" lon="13.1156767"><ele>997.0</ele><time>2026-04-05T14:52:29.424Z</time></trkpt><trkpt lat="42.8214204" lon="13.1157663"><ele>998.0</ele><time>2026-04-05T14:52:30.423Z</time></trkpt><trkpt lat="42.821289" lon="13.1158895"><ele>1000.0</ele><time>2026-04-05T14:52:31.424Z</time></trkpt><trkpt lat="42.82116" lon="13.1159986"><ele>1002.0</ele><time>2026-04-05T14:52:32.423Z</time></trkpt><trkpt lat="42.8210238" lon="13.1161089"><ele>1004.0</ele><time>2026-04-05T14:52:33.424Z</time></trkpt><trkpt lat="42.8208951" lon="13.1162087"><ele>1004.0</ele><time>2026-04-05T14:52:34.424Z</time></trkpt><trkpt lat="42.820756" lon="13.1163178"><ele>1004.0</ele><time>2026-04-05T14:52:35.423Z</time></trkpt><trkpt lat="42.8206217" lon="13.116434"><ele>1004.0</ele><time>2026-04-05T14:52:36.424Z</time></trkpt><trkpt lat="42.8204811" lon="13.1165437"><ele>1004.25</ele><time>2026-04-05T14:52:37.423Z</time></trkpt><trkpt lat="42.8203593" lon="13.11665"><ele>1004.5</ele><time>2026-04-05T14:52:38.424Z</time></trkpt><trkpt lat="42.8202476" lon="13.1167443"><ele>1004.75</ele><time>2026-04-05T14:52:39.424Z</time></trkpt><trkpt lat="42.8201421" lon="13.1168304"><ele>1005.0</ele><time>2026-04-05T14:52:40.424Z</time></trkpt><trkpt lat="42.820034" lon="13.1169205"><ele>1005.0</ele><time>2026-04-05T14:52:41.423Z</time></trkpt><trkpt lat="42.8199296" lon="13.1170061"><ele>1005.0</ele><time>2026-04-05T14:52:42.424Z</time></trkpt><trkpt lat="42.8198301" lon="13.1170818"><ele>1005.0</ele><time>2026-04-05T14:52:43.423Z</time></trkpt><trkpt lat="42.8197272" lon="13.1171495"><ele>1005.0</ele><time>2026-04-05T14:52:44.423Z</time></trkpt><trkpt lat="42.8196203" lon="13.1171935"><ele>1005.0</ele><time>2026-04-05T14:52:45.423Z</time></trkpt><trkpt lat="42.8195122" lon="13.1172123"><ele>1005.0</ele><time>2026-04-05T14:52:46.423Z</time></trkpt><trkpt lat="42.8194056" lon="13.1172044"><ele>1005.0</ele><time>2026-04-05T14:52:47.423Z</time></trkpt><trkpt lat="42.8192992" lon="13.1171773"><ele>1005.0</ele><time>2026-04-05T14:52:48.424Z</time></trkpt><trkpt lat="42.8191974" lon="13.1171246"><ele>1005.0</ele><time>2026-04-05T14:52:49.424Z</time></trkpt><trkpt lat="42.8190972" lon="13.1170662"><ele>1005.25</ele><time>2026-04-05T14:52:50.423Z</time></trkpt><trkpt lat="42.8189987" lon="13.1169983"><ele>1005.5</ele><time>2026-04-05T14:52:51.423Z</time></trkpt><trkpt lat="42.818897" lon="13.1169304"><ele>1005.75</ele><time>2026-04-05T14:52:52.424Z</time></trkpt><trkpt lat="42.8187983" lon="13.116849"><ele>1006.0</ele><time>2026-04-05T14:52:53.424Z</time></trkpt><trkpt lat="42.8186902" lon="13.1167737"><ele>1006.0</ele><time>2026-04-05T14:52:54.424Z</time></trkpt><trkpt lat="42.8185844" lon="13.116685"><ele>1006.0</ele><time>2026-04-05T14:52:55.424Z</time></trkpt><trkpt lat="42.8184769" lon="13.1165942"><ele>1006.0</ele><time>2026-04-05T14:52:56.424Z</time></trkpt><trkpt lat="42.8183642" lon="13.1164955"><ele>1006.0</ele><time>2026-04-05T14:52:57.424Z</time></trkpt><trkpt lat="42.8182448" lon="13.1163917"><ele>1006.75</ele><time>2026-04-05T14:52:58.424Z</time></trkpt><trkpt lat="42.8181177" lon="13.1162918"><ele>1007.5</ele><time>2026-04-05T14:52:59.424Z</time></trkpt><trkpt lat="42.8179907" lon="13.1161839"><ele>1008.25</ele><time>2026-04-05T14:53:00.424Z</time></trkpt><trkpt lat="42.8178711" lon="13.1160745"><ele>1009.0</ele><time>2026-04-05T14:53:01.423Z</time></trkpt><trkpt lat="42.8177565" lon="13.1159551"><ele>1006.5</ele><time>2026-04-05T14:53:02.423Z</time></trkpt><trkpt lat="42.8176457" lon="13.1158275"><ele>1004.0</ele><time>2026-04-05T14:53:03.424Z</time></trkpt><trkpt lat="42.8175343" lon="13.115708"><ele>1001.5</ele><time>2026-04-05T14:53:04.424Z</time></trkpt><trkpt lat="42.8174261" lon="13.1155885"><ele>999.0</ele><time>2026-04-05T14:53:05.424Z</time></trkpt><trkpt lat="42.8173176" lon="13.1154659"><ele>999.0</ele><time>2026-04-05T14:53:06.424Z</time></trkpt><trkpt lat="42.8172115" lon="13.115347"><ele>999.0</ele><time>2026-04-05T14:53:07.424Z</time></trkpt><trkpt lat="42.8171083" lon="13.1152272"><ele>999.0</ele><time>2026-04-05T14:53:08.424Z</time></trkpt><trkpt lat="42.8170029" lon="13.1151119"><ele>999.0</ele><time>2026-04-05T14:53:09.424Z</time></trkpt><trkpt lat="42.8169011" lon="13.1149949"><ele>995.75</ele><time>2026-04-05T14:53:10.423Z</time></trkpt><trkpt lat="42.8168017" lon="13.1148866"><ele>992.5</ele><time>2026-04-05T14:53:11.424Z</time></trkpt><trkpt lat="42.8167111" lon="13.1147851"><ele>989.25</ele><time>2026-04-05T14:53:12.424Z</time></trkpt><trkpt lat="42.8166193" lon="13.114679"><ele>986.0</ele><time>2026-04-05T14:53:13.423Z</time></trkpt><trkpt lat="42.8165256" lon="13.1145721"><ele>986.0</ele><time>2026-04-05T14:53:14.424Z</time></trkpt><trkpt lat="42.8164326" lon="13.1144623"><ele>986.0</ele><time>2026-04-05T14:53:15.424Z</time></trkpt><trkpt lat="42.8163414" lon="13.1143502"><ele>986.0</ele><time>2026-04-05T14:53:16.424Z</time></trkpt><trkpt lat="42.8162559" lon="13.1142319"><ele>986.0</ele><time>2026-04-05T14:53:17.423Z</time></trkpt><trkpt lat="42.8161753" lon="13.1141121"><ele>991.0</ele><time>2026-04-05T14:53:18.424Z</time></trkpt><trkpt lat="42.8160964" lon="13.1139796"><ele>996.0</ele><time>2026-04-05T14:53:19.424Z</time></trkpt><trkpt lat="42.8160216" lon="13.1138404"><ele>1001.0</ele><time>2026-04-05T14:53:20.423Z</time></trkpt><trkpt lat="42.8159457" lon="13.1136973"><ele>1006.0</ele><time>2026-04-05T14:53:21.424Z</time></trkpt><trkpt lat="42.8158717" lon="13.113538"><ele>999.0</ele><time>2026-04-05T14:53:22.424Z</time></trkpt><trkpt lat="42.8157953" lon="13.1133814"><ele>992.0</ele><time>2026-04-05T14:53:23.424Z</time></trkpt><trkpt lat="42.8157238" lon="13.1132247"><ele>985.0</ele><time>2026-04-05T14:53:24.424Z</time></trkpt><trkpt lat="42.815653" lon="13.1130726"><ele>978.0</ele><time>2026-04-05T14:53:25.423Z</time></trkpt><trkpt lat="42.815574" lon="13.1129176"><ele>978.0</ele><time>2026-04-05T14:53:26.423Z</time></trkpt><trkpt lat="42.8154996" lon="13.1127627"><ele>978.0</ele><time>2026-04-05T14:53:27.424Z</time></trkpt><trkpt lat="42.8154377" lon="13.1126033"><ele>978.0</ele><time>2026-04-05T14:53:28.424Z</time></trkpt><trkpt lat="42.8153717" lon="13.1124284"><ele>978.0</ele><time>2026-04-05T14:53:29.423Z</time></trkpt><trkpt lat="42.8153006" lon="13.1122624"><ele>980.5</ele><time>2026-04-05T14:53:30.424Z</time></trkpt><trkpt lat="42.8152281" lon="13.1120934"><ele>983.0</ele><time>2026-04-05T14:53:31.424Z</time></trkpt><trkpt lat="42.8151571" lon="13.1119325"><ele>985.5</ele><time>2026-04-05T14:53:32.424Z</time></trkpt><trkpt lat="42.8150719" lon="13.1117721"><ele>988.0</ele><time>2026-04-05T14:53:33.424Z</time></trkpt><trkpt lat="42.814993" lon="13.1116185"><ele>981.0</ele><time>2026-04-05T14:53:34.423Z</time></trkpt><trkpt lat="42.8149156" lon="13.1114704"><ele>974.0</ele><time>2026-04-05T14:53:35.424Z</time></trkpt><trkpt lat="42.8148388" lon="13.1113192"><ele>967.0</ele><time>2026-04-05T14:53:36.424Z</time></trkpt><trkpt lat="42.8147604" lon="13.1111706"><ele>960.0</ele><time>2026-04-05T14:53:37.424Z</time></trkpt><trkpt lat="42.814684" lon="13.1110252"><ele>960.0</ele><time>2026-04-05T14:53:38.424Z</time></trkpt><trkpt lat="42.8146074" lon="13.1108803"><ele>960.0</ele><time>2026-04-05T14:53:39.424Z</time></trkpt><trkpt lat="42.8145313" lon="13.1107341"><ele>960.0</ele><time>2026-04-05T14:53:40.424Z</time></trkpt><trkpt lat="42.8144606" lon="13.1105908"><ele>960.0</ele><time>2026-04-05T14:53:41.424Z</time></trkpt><trkpt lat="42.8143824" lon="13.1104479"><ele>954.75</ele><time>2026-04-05T14:53:42.424Z</time></trkpt><trkpt lat="42.8143095" lon="13.1103081"><ele>949.5</ele><time>2026-04-05T14:53:43.424Z</time></trkpt><trkpt lat="42.814226" lon="13.110176"><ele>944.25</ele><time>2026-04-05T14:53:44.424Z</time></trkpt><trkpt lat="42.8141411" lon="13.1100518"><ele>939.0</ele><time>2026-04-05T14:53:45.424Z</time></trkpt><trkpt lat="42.8140426" lon="13.1099374"><ele>945.0</ele><time>2026-04-05T14:53:46.424Z</time></trkpt><trkpt lat="42.8139373" lon="13.109824"><ele>951.0</ele><time>2026-04-05T14:53:47.423Z</time></trkpt><trkpt lat="42.8138322" lon="13.1097205"><ele>957.0</ele><time>2026-04-05T14:53:48.424Z</time></trkpt><trkpt lat="42.8137134" lon="13.109606"><ele>963.0</ele><time>2026-04-05T14:53:49.423Z</time></trkpt><trkpt lat="42.813594" lon="13.109498"><ele>959.25</ele><time>2026-04-05T14:53:50.424Z</time></trkpt><trkpt lat="42.8134661" lon="13.1093922"><ele>955.5</ele><time>2026-04-05T14:53:51.424Z</time></trkpt><trkpt lat="42.8133479" lon="13.1092888"><ele>951.75</ele><time>2026-04-05T14:53:52.423Z</time></trkpt><trkpt lat="42.8132272" lon="13.1091857"><ele>948.0</ele><time>2026-04-05T14:53:53.423Z</time></trkpt><trkpt lat="42.8131102" lon="13.1090713"><ele>948.0</ele><time>2026-04-05T14:53:54.424Z</time></trkpt><trkpt lat="42.8130114" lon="13.1089453"><ele>948.0</ele><time>2026-04-05T14:53:55.423Z</time></trkpt><trkpt lat="42.8129096" lon="13.1088175"><ele>948.0</ele><time>2026-04-05T14:53:56.424Z</time></trkpt><trkpt lat="42.8128119" lon="13.1086788"><ele>948.0</ele><time>2026-04-05T14:53:57.423Z</time></trkpt><trkpt lat="42.8127159" lon="13.1085449"><ele>940.0</ele><time>2026-04-05T14:53:58.423Z</time></trkpt><trkpt lat="42.8126269" lon="13.1084122"><ele>932.0</ele><time>2026-04-05T14:53:59.424Z</time></trkpt><trkpt lat="42.8125386" lon="13.1082702"><ele>924.0</ele><time>2026-04-05T14:54:00.424Z</time></trkpt><trkpt lat="42.8124526" lon="13.1081212"><ele>916.0</ele><time>2026-04-05T14:54:01.424Z</time></trkpt><trkpt lat="42.8123799" lon="13.1079762"><ele>916.0</ele><time>2026-04-05T14:54:02.424Z</time></trkpt><trkpt lat="42.8123187" lon="13.1078179"><ele>916.0</ele><time>2026-04-05T14:54:03.423Z</time></trkpt><trkpt lat="42.8122738" lon="13.1076494"><ele>916.0</ele><time>2026-04-05T14:54:04.424Z</time></trkpt><trkpt lat="42.8122487" lon="13.1074835"><ele>916.0</ele><time>2026-04-05T14:54:05.424Z</time></trkpt><trkpt lat="42.8122464" lon="13.1073244"><ele>912.5</ele><time>2026-04-05T14:54:06.423Z</time></trkpt><trkpt lat="42.8122764" lon="13.1071782"><ele>909.0</ele><time>2026-04-05T14:54:07.424Z</time></trkpt><trkpt lat="42.8123334" lon="13.1070412"><ele>905.5</ele><time>2026-04-05T14:54:08.424Z</time></trkpt><trkpt lat="42.8124116" lon="13.1069145"><ele>902.0</ele><time>2026-04-05T14:54:09.424Z</time></trkpt><trkpt lat="42.8124647" lon="13.1067697"><ele>902.0</ele><time>2026-04-05T14:54:10.424Z</time></trkpt><trkpt lat="42.8125353" lon="13.1066341"><ele>902.0</ele><time>2026-04-05T14:54:11.424Z</time></trkpt><trkpt lat="42.8126058" lon="13.1064926"><ele>902.0</ele><time>2026-04-05T14:54:12.424Z</time></trkpt><trkpt lat="42.812683" lon="13.1063696"><ele>902.0</ele><time>2026-04-05T14:54:13.424Z</time></trkpt><trkpt lat="42.8127424" lon="13.1062412"><ele>909.2</ele><time>2026-04-05T14:54:14.424Z</time></trkpt><trkpt lat="42.8127954" lon="13.1061159"><ele>916.4000000000001</ele><time>2026-04-05T14:54:15.424Z</time></trkpt><trkpt lat="42.812788" lon="13.1060027"><ele>923.5999999999999</ele><time>2026-04-05T14:54:16.424Z</time></trkpt><trkpt lat="42.8127595" lon="13.1058933"><ele>930.8</ele><time>2026-04-05T14:54:17.424Z</time></trkpt><trkpt lat="42.8127307" lon="13.1057893"><ele>938.0</ele><time>2026-04-05T14:54:18.424Z</time></trkpt><trkpt lat="42.8126583" lon="13.1057077"><ele>933.5999999999999</ele><time>2026-04-05T14:54:19.424Z</time></trkpt><trkpt lat="42.8125795" lon="13.1056093"><ele>929.1999999999999</ele><time>2026-04-05T14:54:20.424Z</time></trkpt><trkpt lat="42.8125055" lon="13.1055267"><ele>924.8</ele><time>2026-04-05T14:54:21.424Z</time></trkpt><trkpt lat="42.8124277" lon="13.1054426"><ele>920.4</ele><time>2026-04-05T14:54:22.424Z</time></trkpt><trkpt lat="42.8123613" lon="13.1053577"><ele>916.0</ele><time>2026-04-05T14:54:23.424Z</time></trkpt><trkpt lat="42.8122934" lon="13.105269"><ele>916.0</ele><time>2026-04-05T14:54:24.423Z</time></trkpt><trkpt lat="42.8122265" lon="13.1051807"><ele>915.9999999999999</ele><time>2026-04-05T14:54:25.424Z</time></trkpt><trkpt lat="42.8121538" lon="13.1051005"><ele>915.9999999999999</ele><time>2026-04-05T14:54:26.424Z</time></trkpt><trkpt lat="42.8120778" lon="13.1050268"><ele>916.0</ele><time>2026-04-05T14:54:27.424Z</time></trkpt><trkpt lat="42.8120014" lon="13.104964"><ele>916.0</ele><time>2026-04-05T14:54:28.424Z</time></trkpt><trkpt lat="42.8119147" lon="13.1049215"><ele>913.1999999999999</ele><time>2026-04-05T14:54:29.424Z</time></trkpt><trkpt lat="42.81183" lon="13.1048801"><ele>910.3999999999999</ele><time>2026-04-05T14:54:30.424Z</time></trkpt><trkpt lat="42.8117413" lon="13.1048393"><ele>907.6</ele><time>2026-04-05T14:54:31.423Z</time></trkpt><trkpt lat="42.8116527" lon="13.1047918"><ele>904.8</ele><time>2026-04-05T14:54:32.424Z</time></trkpt><trkpt lat="42.8115675" lon="13.1047286"><ele>902.0</ele><time>2026-04-05T14:54:33.423Z</time></trkpt><trkpt lat="42.8114841" lon="13.1046468"><ele>902.0</ele><time>2026-04-05T14:54:34.424Z</time></trkpt><trkpt lat="42.8113988" lon="13.1045612"><ele>902.0</ele><time>2026-04-05T14:54:35.424Z</time></trkpt><trkpt lat="42.8113153" lon="13.1044689"><ele>902.0</ele><time>2026-04-05T14:54:36.424Z</time></trkpt><trkpt lat="42.8112334" lon="13.1043783"><ele>902.0</ele><time>2026-04-05T14:54:37.424Z</time></trkpt><trkpt lat="42.811155" lon="13.1042821"><ele>902.0</ele><time>2026-04-05T14:54:38.424Z</time></trkpt><trkpt lat="42.8110839" lon="13.1041804"><ele>904.0</ele><time>2026-04-05T14:54:39.423Z</time></trkpt><trkpt lat="42.8110165" lon="13.1040636"><ele>906.0</ele><time>2026-04-05T14:54:40.424Z</time></trkpt><trkpt lat="42.8109616" lon="13.1039285"><ele>908.0</ele><time>2026-04-05T14:54:41.423Z</time></trkpt><trkpt lat="42.810926" lon="13.1037831"><ele>910.0</ele><time>2026-04-05T14:54:42.423Z</time></trkpt><trkpt lat="42.8109095" lon="13.103632"><ele>912.0</ele><time>2026-04-05T14:54:43.424Z</time></trkpt><trkpt lat="42.810898" lon="13.1034685"><ele>904.5</ele><time>2026-04-05T14:54:44.424Z</time></trkpt><trkpt lat="42.8108796" lon="13.1032983"><ele>897.0</ele><time>2026-04-05T14:54:45.423Z</time></trkpt><trkpt lat="42.8108548" lon="13.1031309"><ele>889.5</ele><time>2026-04-05T14:54:46.423Z</time></trkpt><trkpt lat="42.8108108" lon="13.1029671"><ele>882.0</ele><time>2026-04-05T14:54:47.424Z</time></trkpt><trkpt lat="42.8107589" lon="13.102808"><ele>882.0</ele><time>2026-04-05T14:54:48.423Z</time></trkpt><trkpt lat="42.8106979" lon="13.1026515"><ele>882.0</ele><time>2026-04-05T14:54:49.424Z</time></trkpt><trkpt lat="42.810635" lon="13.1024921"><ele>882.0</ele><time>2026-04-05T14:54:50.424Z</time></trkpt><trkpt lat="42.810582" lon="13.1023325"><ele>882.0</ele><time>2026-04-05T14:54:51.424Z</time></trkpt><trkpt lat="42.8105206" lon="13.10217"><ele>884.75</ele><time>2026-04-05T14:54:52.424Z</time></trkpt><trkpt lat="42.8104566" lon="13.1020135"><ele>887.5</ele><time>2026-04-05T14:54:53.424Z</time></trkpt><trkpt lat="42.810395" lon="13.1018458"><ele>890.25</ele><time>2026-04-05T14:54:54.424Z</time></trkpt><trkpt lat="42.810331" lon="13.1016715"><ele>893.0</ele><time>2026-04-05T14:54:55.424Z</time></trkpt><trkpt lat="42.810262" lon="13.1014916"><ele>894.75</ele><time>2026-04-05T14:54:56.424Z</time></trkpt><trkpt lat="42.8101981" lon="13.1013041"><ele>896.5</ele><time>2026-04-05T14:54:57.423Z</time></trkpt><trkpt lat="42.8101287" lon="13.1011259"><ele>898.25</ele><time>2026-04-05T14:54:58.424Z</time></trkpt><trkpt lat="42.8100618" lon="13.1009539"><ele>900.0</ele><time>2026-04-05T14:54:59.423Z</time></trkpt><trkpt lat="42.8099923" lon="13.1007803"><ele>892.75</ele><time>2026-04-05T14:55:00.424Z</time></trkpt><trkpt lat="42.8099213" lon="13.1006089"><ele>885.5</ele><time>2026-04-05T14:55:01.424Z</time></trkpt><trkpt lat="42.8098522" lon="13.1004386"><ele>878.25</ele><time>2026-04-05T14:55:02.424Z</time></trkpt><trkpt lat="42.8097872" lon="13.1002738"><ele>871.0</ele><time>2026-04-05T14:55:03.424Z</time></trkpt><trkpt lat="42.8097208" lon="13.1001097"><ele>871.0</ele><time>2026-04-05T14:55:04.424Z</time></trkpt><trkpt lat="42.8096595" lon="13.0999486"><ele>871.0</ele><time>2026-04-05T14:55:05.424Z</time></trkpt><trkpt lat="42.8095988" lon="13.0997758"><ele>871.0</ele><time>2026-04-05T14:55:06.424Z</time></trkpt><trkpt lat="42.8095335" lon="13.099595"><ele>871.0</ele><time>2026-04-05T14:55:07.423Z</time></trkpt><trkpt lat="42.8094674" lon="13.0994214"><ele>872.25</ele><time>2026-04-05T14:55:08.424Z</time></trkpt><trkpt lat="42.8094011" lon="13.0992524"><ele>873.5</ele><time>2026-04-05T14:55:09.424Z</time></trkpt><trkpt lat="42.8093365" lon="13.0990915"><ele>874.75</ele><time>2026-04-05T14:55:10.424Z</time></trkpt><trkpt lat="42.8092838" lon="13.0989426"><ele>876.0</ele><time>2026-04-05T14:55:11.424Z</time></trkpt><trkpt lat="42.8092462" lon="13.098792"><ele>868.8</ele><time>2026-04-05T14:55:12.423Z</time></trkpt><trkpt lat="42.8092184" lon="13.0986442"><ele>861.5999999999999</ele><time>2026-04-05T14:55:13.424Z</time></trkpt><trkpt lat="42.8092142" lon="13.098492"><ele>854.4</ele><time>2026-04-05T14:55:14.424Z</time></trkpt><trkpt lat="42.8092205" lon="13.0983438"><ele>847.2</ele><time>2026-04-05T14:55:15.424Z</time></trkpt><trkpt lat="42.8092314" lon="13.0982222"><ele>840.0</ele><time>2026-04-05T14:55:16.423Z</time></trkpt><trkpt lat="42.8092395" lon="13.0981224"><ele>840.0</ele><time>2026-04-05T14:55:17.423Z</time></trkpt><trkpt lat="42.8092042" lon="13.0979812"><ele>840.0</ele><time>2026-04-05T14:55:19.424Z</time></trkpt><trkpt lat="42.8091076" lon="13.0979689"><ele>840.0</ele><time>2026-04-05T14:55:21.424Z</time></trkpt><trkpt lat="42.8090431" lon="13.0980832"><ele>840.0</ele><time>2026-04-05T14:55:23.424Z</time></trkpt><trkpt lat="42.8090276" lon="13.0981792"><ele>840.0</ele><time>2026-04-05T14:55:24.423Z</time></trkpt><trkpt lat="42.8090351" lon="13.0982923"><ele>840.0</ele><time>2026-04-05T14:55:25.423Z</time></trkpt><trkpt lat="42.8090409" lon="13.0984111"><ele>840.0</ele><time>2026-04-05T14:55:26.424Z</time></trkpt><trkpt lat="42.8090558" lon="13.0985475"><ele>840.0</ele><time>2026-04-05T14:55:27.424Z</time></trkpt><trkpt lat="42.8090689" lon="13.0986906"><ele>840.0</ele><time>2026-04-05T14:55:28.423Z</time></trkpt><trkpt lat="42.809087" lon="13.0988363"><ele>840.0</ele><time>2026-04-05T14:55:29.424Z</time></trkpt><trkpt lat="42.8091056" lon="13.0989926"><ele>839.75</ele><time>2026-04-05T14:55:30.424Z</time></trkpt><trkpt lat="42.8091226" lon="13.0991626"><ele>839.5</ele><time>2026-04-05T14:55:31.424Z</time></trkpt><trkpt lat="42.8091315" lon="13.0993386"><ele>839.25</ele><time>2026-04-05T14:55:32.424Z</time></trkpt><trkpt lat="42.8091286" lon="13.0995209"><ele>839.0</ele><time>2026-04-05T14:55:33.424Z</time></trkpt><trkpt lat="42.8091243" lon="13.0997155"><ele>839.0</ele><time>2026-04-05T14:55:34.424Z</time></trkpt><trkpt lat="42.8091182" lon="13.0999125"><ele>839.0</ele><time>2026-04-05T14:55:35.423Z</time></trkpt><trkpt lat="42.8091135" lon="13.1001145"><ele>839.0</ele><time>2026-04-05T14:55:36.423Z</time></trkpt><trkpt lat="42.8091123" lon="13.1003156"><ele>839.0</ele><time>2026-04-05T14:55:37.424Z</time></trkpt><trkpt lat="42.8091091" lon="13.1005235"><ele>835.6666666666667</ele><time>2026-04-05T14:55:38.424Z</time></trkpt><trkpt lat="42.8090987" lon="13.1007332"><ele>832.3333333333333</ele><time>2026-04-05T14:55:39.424Z</time></trkpt><trkpt lat="42.8090874" lon="13.1009415"><ele>829.0</ele><time>2026-04-05T14:55:40.424Z</time></trkpt><trkpt lat="42.8090688" lon="13.1011354"><ele>827.75</ele><time>2026-04-05T14:55:41.424Z</time></trkpt><trkpt lat="42.809049" lon="13.101328"><ele>826.5</ele><time>2026-04-05T14:55:42.424Z</time></trkpt><trkpt lat="42.8090326" lon="13.1015144"><ele>825.25</ele><time>2026-04-05T14:55:43.424Z</time></trkpt><trkpt lat="42.8090359" lon="13.1016957"><ele>824.0</ele><time>2026-04-05T14:55:44.424Z</time></trkpt><trkpt lat="42.8090513" lon="13.1018891"><ele>823.0</ele><time>2026-04-05T14:55:45.424Z</time></trkpt><trkpt lat="42.8090691" lon="13.1020962"><ele>822.0</ele><time>2026-04-05T14:55:46.424Z</time></trkpt><trkpt lat="42.8090944" lon="13.1023083"><ele>821.0</ele><time>2026-04-05T14:55:47.424Z</time></trkpt><trkpt lat="42.8091181" lon="13.1025245"><ele>819.3333333333334</ele><time>2026-04-05T14:55:48.424Z</time></trkpt><trkpt lat="42.8091451" lon="13.1027414"><ele>817.6666666666667</ele><time>2026-04-05T14:55:49.424Z</time></trkpt><trkpt lat="42.8091698" lon="13.1029626"><ele>816.0</ele><time>2026-04-05T14:55:50.424Z</time></trkpt><trkpt lat="42.8091901" lon="13.1031845"><ele>814.3333333333333</ele><time>2026-04-05T14:55:51.424Z</time></trkpt><trkpt lat="42.809218" lon="13.1033943"><ele>812.6666666666666</ele><time>2026-04-05T14:55:52.423Z</time></trkpt><trkpt lat="42.8092461" lon="13.103605"><ele>811.0</ele><time>2026-04-05T14:55:53.423Z</time></trkpt><trkpt lat="42.8092659" lon="13.1038113"><ele>811.0</ele><time>2026-04-05T14:55:54.424Z</time></trkpt><trkpt lat="42.8092898" lon="13.1040139"><ele>811.0</ele><time>2026-04-05T14:55:55.424Z</time></trkpt><trkpt lat="42.809316" lon="13.1042115"><ele>811.0</ele><time>2026-04-05T14:55:56.424Z</time></trkpt><trkpt lat="42.8093368" lon="13.1044063"><ele>811.0</ele><time>2026-04-05T14:55:57.424Z</time></trkpt><trkpt lat="42.8093604" lon="13.1045836"><ele>813.75</ele><time>2026-04-05T14:55:58.424Z</time></trkpt><trkpt lat="42.8093877" lon="13.1047513"><ele>816.5</ele><time>2026-04-05T14:55:59.423Z</time></trkpt><trkpt lat="42.8094225" lon="13.1049078"><ele>819.25</ele><time>2026-04-05T14:56:00.424Z</time></trkpt><trkpt lat="42.8094729" lon="13.1050601"><ele>822.0</ele><time>2026-04-05T14:56:01.423Z</time></trkpt><trkpt lat="42.8095398" lon="13.1051931"><ele>822.0</ele><time>2026-04-05T14:56:02.424Z</time></trkpt><trkpt lat="42.8096252" lon="13.1053128"><ele>822.0</ele><time>2026-04-05T14:56:03.424Z</time></trkpt><trkpt lat="42.8097153" lon="13.1054195"><ele>822.0</ele><time>2026-04-05T14:56:04.424Z</time></trkpt><trkpt lat="42.8098" lon="13.1055182"><ele>822.0</ele><time>2026-04-05T14:56:05.423Z</time></trkpt><trkpt lat="42.8098822" lon="13.1056191"><ele>822.0</ele><time>2026-04-05T14:56:06.424Z</time></trkpt><trkpt lat="42.8099557" lon="13.1057275"><ele>822.0</ele><time>2026-04-05T14:56:07.423Z</time></trkpt><trkpt lat="42.8099902" lon="13.1058521"><ele>822.0</ele><time>2026-04-05T14:56:08.424Z</time></trkpt><trkpt lat="42.8100037" lon="13.1059846"><ele>822.0</ele><time>2026-04-05T14:56:09.424Z</time></trkpt><trkpt lat="42.8099868" lon="13.1061153"><ele>822.0</ele><time>2026-04-05T14:56:10.423Z</time></trkpt><trkpt lat="42.8099364" lon="13.106233"><ele>818.8</ele><time>2026-04-05T14:56:11.424Z</time></trkpt><trkpt lat="42.8098588" lon="13.1063413"><ele>815.6</ele><time>2026-04-05T14:56:12.423Z</time></trkpt><trkpt lat="42.8097756" lon="13.1064432"><ele>812.4</ele><time>2026-04-05T14:56:13.424Z</time></trkpt><trkpt lat="42.8097009" lon="13.1065542"><ele>809.1999999999999</ele><time>2026-04-05T14:56:14.423Z</time></trkpt><trkpt lat="42.8096337" lon="13.1066729"><ele>806.0</ele><time>2026-04-05T14:56:15.424Z</time></trkpt><trkpt lat="42.8095854" lon="13.1068214"><ele>806.25</ele><time>2026-04-05T14:56:16.424Z</time></trkpt><trkpt lat="42.8095607" lon="13.1069847"><ele>806.5</ele><time>2026-04-05T14:56:17.424Z</time></trkpt><trkpt lat="42.8095491" lon="13.1071555"><ele>806.75</ele><time>2026-04-05T14:56:18.424Z</time></trkpt><trkpt lat="42.8095428" lon="13.1073331"><ele>807.0</ele><time>2026-04-05T14:56:19.423Z</time></trkpt><trkpt lat="42.8095592" lon="13.1075052"><ele>807.0</ele><time>2026-04-05T14:56:20.423Z</time></trkpt><trkpt lat="42.8095814" lon="13.1076844"><ele>807.0</ele><time>2026-04-05T14:56:21.424Z</time></trkpt><trkpt lat="42.8096098" lon="13.107867"><ele>807.0</ele><time>2026-04-05T14:56:22.423Z</time></trkpt><trkpt lat="42.8096471" lon="13.1080434"><ele>807.0</ele><time>2026-04-05T14:56:23.424Z</time></trkpt><trkpt lat="42.8096977" lon="13.1082198"><ele>804.25</ele><time>2026-04-05T14:56:24.424Z</time></trkpt><trkpt lat="42.8097568" lon="13.1083944"><ele>801.5</ele><time>2026-04-05T14:56:25.424Z</time></trkpt><trkpt lat="42.8098206" lon="13.1085705"><ele>798.75</ele><time>2026-04-05T14:56:26.424Z</time></trkpt><trkpt lat="42.8098865" lon="13.1087383"><ele>796.0</ele><time>2026-04-05T14:56:27.424Z</time></trkpt><trkpt lat="42.8099583" lon="13.1088935"><ele>796.0</ele><time>2026-04-05T14:56:28.424Z</time></trkpt><trkpt lat="42.8100205" lon="13.1090526"><ele>796.0</ele><time>2026-04-05T14:56:29.424Z</time></trkpt><trkpt lat="42.8100818" lon="13.1092074"><ele>796.0</ele><time>2026-04-05T14:56:30.424Z</time></trkpt><trkpt lat="42.8101411" lon="13.1093568"><ele>796.0</ele><time>2026-04-05T14:56:31.424Z</time></trkpt><trkpt lat="42.8101957" lon="13.1095025"><ele>796.0</ele><time>2026-04-05T14:56:32.424Z</time></trkpt><trkpt lat="42.8102369" lon="13.1096634"><ele>796.0</ele><time>2026-04-05T14:56:33.424Z</time></trkpt><trkpt lat="42.8102773" lon="13.109826"><ele>796.0</ele><time>2026-04-05T14:56:34.424Z</time></trkpt><trkpt lat="42.8103089" lon="13.1099948"><ele>796.0</ele><time>2026-04-05T14:56:35.424Z</time></trkpt><trkpt lat="42.8103347" lon="13.1101633"><ele>796.0</ele><time>2026-04-05T14:56:36.423Z</time></trkpt><trkpt lat="42.810345" lon="13.1103433"><ele>796.0</ele><time>2026-04-05T14:56:37.424Z</time></trkpt><trkpt lat="42.8103458" lon="13.1105267"><ele>796.0</ele><time>2026-04-05T14:56:38.423Z</time></trkpt><trkpt lat="42.8103371" lon="13.1107134"><ele>796.0</ele><time>2026-04-05T14:56:39.424Z</time></trkpt><trkpt lat="42.8103156" lon="13.1109027"><ele>794.25</ele><time>2026-04-05T14:56:40.424Z</time></trkpt><trkpt lat="42.810279" lon="13.1111024"><ele>792.5</ele><time>2026-04-05T14:56:41.424Z</time></trkpt><trkpt lat="42.8102286" lon="13.1112833"><ele>790.75</ele><time>2026-04-05T14:56:42.424Z</time></trkpt><trkpt lat="42.8101751" lon="13.1114611"><ele>789.0</ele><time>2026-04-05T14:56:43.424Z</time></trkpt><trkpt lat="42.8101229" lon="13.1116063"><ele>784.25</ele><time>2026-04-05T14:56:44.423Z</time></trkpt><trkpt lat="42.8100533" lon="13.1117517"><ele>779.5</ele><time>2026-04-05T14:56:45.424Z</time></trkpt><trkpt lat="42.8099738" lon="13.1118934"><ele>774.75</ele><time>2026-04-05T14:56:46.423Z</time></trkpt><trkpt lat="42.8098838" lon="13.1120203"><ele>770.0</ele><time>2026-04-05T14:56:47.424Z</time></trkpt><trkpt lat="42.8097936" lon="13.1121409"><ele>770.0</ele><time>2026-04-05T14:56:48.424Z</time></trkpt><trkpt lat="42.8097015" lon="13.1122502"><ele>770.0</ele><time>2026-04-05T14:56:49.423Z</time></trkpt><trkpt lat="42.8095861" lon="13.1123597"><ele>770.0</ele><time>2026-04-05T14:56:50.424Z</time></trkpt><trkpt lat="42.8094745" lon="13.1124565"><ele>770.0</ele><time>2026-04-05T14:56:51.423Z</time></trkpt><trkpt lat="42.8093433" lon="13.1125283"><ele>767.75</ele><time>2026-04-05T14:56:52.424Z</time></trkpt><trkpt lat="42.8091992" lon="13.1125756"><ele>765.5</ele><time>2026-04-05T14:56:53.424Z</time></trkpt><trkpt lat="42.8090496" lon="13.1126081"><ele>763.25</ele><time>2026-04-05T14:56:54.424Z</time></trkpt><trkpt lat="42.8089079" lon="13.1126052"><ele>761.0</ele><time>2026-04-05T14:56:55.424Z</time></trkpt><trkpt lat="42.8087661" lon="13.1125786"><ele>761.0</ele><time>2026-04-05T14:56:56.424Z</time></trkpt><trkpt lat="42.8086356" lon="13.1125148"><ele>761.0</ele><time>2026-04-05T14:56:57.423Z</time></trkpt><trkpt lat="42.8085035" lon="13.1124303"><ele>761.0</ele><time>2026-04-05T14:56:58.424Z</time></trkpt><trkpt lat="42.80836" lon="13.1123327"><ele>761.0</ele><time>2026-04-05T14:56:59.424Z</time></trkpt><trkpt lat="42.8082052" lon="13.1122459"><ele>759.0</ele><time>2026-04-05T14:57:00.424Z</time></trkpt><trkpt lat="42.8080538" lon="13.1121514"><ele>757.0</ele><time>2026-04-05T14:57:01.424Z</time></trkpt><trkpt lat="42.8078972" lon="13.1120656"><ele>755.0</ele><time>2026-04-05T14:57:02.424Z</time></trkpt><trkpt lat="42.8077371" lon="13.1119793"><ele>753.6666666666666</ele><time>2026-04-05T14:57:03.424Z</time></trkpt><trkpt lat="42.8075692" lon="13.1118933"><ele>752.3333333333334</ele><time>2026-04-05T14:57:04.424Z</time></trkpt><trkpt lat="42.8073936" lon="13.1118065"><ele>751.0</ele><time>2026-04-05T14:57:05.424Z</time></trkpt><trkpt lat="42.8072084" lon="13.1117218"><ele>751.0</ele><time>2026-04-05T14:57:06.423Z</time></trkpt><trkpt lat="42.8070308" lon="13.1116289"><ele>751.0</ele><time>2026-04-05T14:57:07.424Z</time></trkpt><trkpt lat="42.8068704" lon="13.1115268"><ele>751.0</ele><time>2026-04-05T14:57:08.424Z</time></trkpt><trkpt lat="42.8067038" lon="13.1114473"><ele>748.6666666666667</ele><time>2026-04-05T14:57:09.423Z</time></trkpt><trkpt lat="42.8065355" lon="13.1113719"><ele>746.3333333333334</ele><time>2026-04-05T14:57:10.424Z</time></trkpt><trkpt lat="42.8063737" lon="13.1113032"><ele>744.0</ele><time>2026-04-05T14:57:11.424Z</time></trkpt><trkpt lat="42.8062122" lon="13.1112353"><ele>744.0</ele><time>2026-04-05T14:57:12.423Z</time></trkpt><trkpt lat="42.8060479" lon="13.1111587"><ele>744.0</ele><time>2026-04-05T14:57:13.424Z</time></trkpt><trkpt lat="42.8058967" lon="13.1110651"><ele>744.0</ele><time>2026-04-05T14:57:14.424Z</time></trkpt><trkpt lat="42.8057494" lon="13.1109593"><ele>743.5</ele><time>2026-04-05T14:57:15.424Z</time></trkpt><trkpt lat="42.8056117" lon="13.1108748"><ele>743.0</ele><time>2026-04-05T14:57:16.423Z</time></trkpt><trkpt lat="42.8054682" lon="13.1107915"><ele>742.5</ele><time>2026-04-05T14:57:17.423Z</time></trkpt><trkpt lat="42.8053371" lon="13.1107176"><ele>742.0</ele><time>2026-04-05T14:57:18.424Z</time></trkpt><trkpt lat="42.8052014" lon="13.1106526"><ele>740.75</ele><time>2026-04-05T14:57:19.424Z</time></trkpt><trkpt lat="42.8050788" lon="13.110577"><ele>739.5</ele><time>2026-04-05T14:57:20.424Z</time></trkpt><trkpt lat="42.8049614" lon="13.1105381"><ele>738.25</ele><time>2026-04-05T14:57:21.423Z</time></trkpt><trkpt lat="42.8048485" lon="13.1104974"><ele>737.0</ele><time>2026-04-05T14:57:22.424Z</time></trkpt><trkpt lat="42.8047311" lon="13.1104484"><ele>737.0</ele><time>2026-04-05T14:57:23.423Z</time></trkpt><trkpt lat="42.8046315" lon="13.1103818"><ele>737.0</ele><time>2026-04-05T14:57:24.424Z</time></trkpt><trkpt lat="42.804552" lon="13.1102722"><ele>737.0</ele><time>2026-04-05T14:57:25.424Z</time></trkpt><trkpt lat="42.8044782" lon="13.1101678"><ele>737.0</ele><time>2026-04-05T14:57:26.423Z</time></trkpt><trkpt lat="42.8044101" lon="13.1100447"><ele>737.0</ele><time>2026-04-05T14:57:27.423Z</time></trkpt><trkpt lat="42.8043403" lon="13.1099322"><ele>736.0</ele><time>2026-04-05T14:57:28.423Z</time></trkpt><trkpt lat="42.8042691" lon="13.1098137"><ele>735.0</ele><time>2026-04-05T14:57:29.424Z</time></trkpt><trkpt lat="42.8042002" lon="13.1097014"><ele>734.0</ele><time>2026-04-05T14:57:30.424Z</time></trkpt><trkpt lat="42.8041107" lon="13.1095978"><ele>733.0</ele><time>2026-04-05T14:57:31.423Z</time></trkpt><trkpt lat="42.8040171" lon="13.1094987"><ele>733.0</ele><time>2026-04-05T14:57:32.424Z</time></trkpt><trkpt lat="42.8039116" lon="13.1094073"><ele>733.0</ele><time>2026-04-05T14:57:33.423Z</time></trkpt><trkpt lat="42.8037992" lon="13.109315"><ele>733.0</ele><time>2026-04-05T14:57:34.423Z</time></trkpt><trkpt lat="42.8036884" lon="13.1092289"><ele>733.0</ele><time>2026-04-05T14:57:35.423Z</time></trkpt><trkpt lat="42.8035707" lon="13.1091515"><ele>731.75</ele><time>2026-04-05T14:57:36.424Z</time></trkpt><trkpt lat="42.8034509" lon="13.1090797"><ele>730.5</ele><time>2026-04-05T14:57:37.424Z</time></trkpt><trkpt lat="42.8033239" lon="13.1090167"><ele>729.25</ele><time>2026-04-05T14:57:38.424Z</time></trkpt><trkpt lat="42.8031953" lon="13.108941"><ele>728.0</ele><time>2026-04-05T14:57:39.424Z</time></trkpt><trkpt lat="42.8030574" lon="13.1088793"><ele>727.75</ele><time>2026-04-05T14:57:40.424Z</time></trkpt><trkpt lat="42.802939" lon="13.1087888"><ele>727.5</ele><time>2026-04-05T14:57:41.424Z</time></trkpt><trkpt lat="42.8028221" lon="13.1086698"><ele>727.25</ele><time>2026-04-05T14:57:42.423Z</time></trkpt><trkpt lat="42.8027099" lon="13.1085394"><ele>727.0</ele><time>2026-04-05T14:57:43.423Z</time></trkpt><trkpt lat="42.8026044" lon="13.1084035"><ele>724.25</ele><time>2026-04-05T14:57:44.424Z</time></trkpt><trkpt lat="42.802507" lon="13.1082593"><ele>721.5</ele><time>2026-04-05T14:57:45.423Z</time></trkpt><trkpt lat="42.8024132" lon="13.1081121"><ele>718.75</ele><time>2026-04-05T14:57:46.423Z</time></trkpt><trkpt lat="42.8023244" lon="13.1079645"><ele>716.0</ele><time>2026-04-05T14:57:47.424Z</time></trkpt><trkpt lat="42.8022343" lon="13.1078169"><ele>716.0</ele><time>2026-04-05T14:57:48.424Z</time></trkpt><trkpt lat="42.8021436" lon="13.107668"><ele>716.0</ele><time>2026-04-05T14:57:49.424Z</time></trkpt><trkpt lat="42.8020557" lon="13.1075143"><ele>716.0</ele><time>2026-04-05T14:57:50.423Z</time></trkpt><trkpt lat="42.8019643" lon="13.1073711"><ele>716.0</ele><time>2026-04-05T14:57:51.423Z</time></trkpt><trkpt lat="42.8018759" lon="13.1072338"><ele>714.5</ele><time>2026-04-05T14:57:52.424Z</time></trkpt><trkpt lat="42.8017979" lon="13.1070939"><ele>713.0</ele><time>2026-04-05T14:57:53.423Z</time></trkpt><trkpt lat="42.8017147" lon="13.1069599"><ele>711.5</ele><time>2026-04-05T14:57:54.424Z</time></trkpt><trkpt lat="42.8016346" lon="13.1068264"><ele>710.0</ele><time>2026-04-05T14:57:55.424Z</time></trkpt><trkpt lat="42.8015543" lon="13.106704"><ele>709.25</ele><time>2026-04-05T14:57:56.424Z</time></trkpt><trkpt lat="42.8014737" lon="13.1065746"><ele>708.5</ele><time>2026-04-05T14:57:57.424Z</time></trkpt><trkpt lat="42.8013963" lon="13.106446"><ele>707.75</ele><time>2026-04-05T14:57:58.424Z</time></trkpt><trkpt lat="42.8013248" lon="13.1063263"><ele>707.0</ele><time>2026-04-05T14:57:59.424Z</time></trkpt><trkpt lat="42.8012555" lon="13.1062061"><ele>707.0</ele><time>2026-04-05T14:58:00.424Z</time></trkpt><trkpt lat="42.8011876" lon="13.1060833"><ele>707.0</ele><time>2026-04-05T14:58:01.424Z</time></trkpt><trkpt lat="42.8011197" lon="13.1059644"><ele>707.0</ele><time>2026-04-05T14:58:02.424Z</time></trkpt><trkpt lat="42.8010595" lon="13.1058443"><ele>707.0</ele><time>2026-04-05T14:58:03.423Z</time></trkpt><trkpt lat="42.8010041" lon="13.1057189"><ele>707.0</ele><time>2026-04-05T14:58:04.424Z</time></trkpt><trkpt lat="42.8009479" lon="13.10559"><ele>705.25</ele><time>2026-04-05T14:58:05.424Z</time></trkpt><trkpt lat="42.8009002" lon="13.1054515"><ele>703.5</ele><time>2026-04-05T14:58:06.424Z</time></trkpt><trkpt lat="42.8008451" lon="13.10531"><ele>701.75</ele><time>2026-04-05T14:58:07.424Z</time></trkpt><trkpt lat="42.8007965" lon="13.1051661"><ele>700.0</ele><time>2026-04-05T14:58:08.423Z</time></trkpt><trkpt lat="42.8007473" lon="13.1050238"><ele>699.0</ele><time>2026-04-05T14:58:09.423Z</time></trkpt><trkpt lat="42.8006932" lon="13.1048823"><ele>698.0</ele><time>2026-04-05T14:58:10.424Z</time></trkpt><trkpt lat="42.8006373" lon="13.1047502"><ele>697.0</ele><time>2026-04-05T14:58:11.424Z</time></trkpt><trkpt lat="42.8005886" lon="13.1046157"><ele>696.0</ele><time>2026-04-05T14:58:12.424Z</time></trkpt><trkpt lat="42.8005382" lon="13.104502"><ele>695.0</ele><time>2026-04-05T14:58:13.424Z</time></trkpt><trkpt lat="42.8004889" lon="13.1044013"><ele>695.0</ele><time>2026-04-05T14:58:14.424Z</time></trkpt><trkpt lat="42.8004434" lon="13.1043146"><ele>695.0</ele><time>2026-04-05T14:58:15.424Z</time></trkpt><trkpt lat="42.8003805" lon="13.1042494"><ele>695.0</ele><time>2026-04-05T14:58:16.424Z</time></trkpt><trkpt lat="42.8003121" lon="13.1041877"><ele>695.0</ele><time>2026-04-05T14:58:17.424Z</time></trkpt><trkpt lat="42.8002496" lon="13.1041248"><ele>695.0</ele><time>2026-04-05T14:58:18.424Z</time></trkpt><trkpt lat="42.800181" lon="13.1040561"><ele>695.0</ele><time>2026-04-05T14:58:19.423Z</time></trkpt><trkpt lat="42.8001036" lon="13.1039808"><ele>693.6</ele><time>2026-04-05T14:58:20.424Z</time></trkpt><trkpt lat="42.8000301" lon="13.1038973"><ele>692.2</ele><time>2026-04-05T14:58:21.424Z</time></trkpt><trkpt lat="42.7999605" lon="13.1037865"><ele>690.8</ele><time>2026-04-05T14:58:22.424Z</time></trkpt><trkpt lat="42.7998856" lon="13.1036806"><ele>689.4</ele><time>2026-04-05T14:58:23.424Z</time></trkpt><trkpt lat="42.799813" lon="13.1035788"><ele>688.0</ele><time>2026-04-05T14:58:24.424Z</time></trkpt><trkpt lat="42.7997375" lon="13.1034745"><ele>688.0</ele><time>2026-04-05T14:58:25.424Z</time></trkpt><trkpt lat="42.7996691" lon="13.1033635"><ele>688.0</ele><time>2026-04-05T14:58:26.424Z</time></trkpt><trkpt lat="42.7996018" lon="13.1032568"><ele>688.0</ele><time>2026-04-05T14:58:27.424Z</time></trkpt><trkpt lat="42.7995358" lon="13.1031334"><ele>688.0</ele><time>2026-04-05T14:58:28.424Z</time></trkpt><trkpt lat="42.7994743" lon="13.1030019"><ele>688.0</ele><time>2026-04-05T14:58:29.424Z</time></trkpt><trkpt lat="42.7994089" lon="13.1028582"><ele>687.0</ele><time>2026-04-05T14:58:30.423Z</time></trkpt><trkpt lat="42.799346" lon="13.1027262"><ele>686.0</ele><time>2026-04-05T14:58:31.424Z</time></trkpt><trkpt lat="42.7992752" lon="13.1025948"><ele>685.0</ele><time>2026-04-05T14:58:32.424Z</time></trkpt><trkpt lat="42.7991992" lon="13.1024704"><ele>684.0</ele><time>2026-04-05T14:58:33.424Z</time></trkpt><trkpt lat="42.7991178" lon="13.1023407"><ele>681.0</ele><time>2026-04-05T14:58:34.424Z</time></trkpt><trkpt lat="42.7990344" lon="13.1022064"><ele>678.0</ele><time>2026-04-05T14:58:35.424Z</time></trkpt><trkpt lat="42.7989551" lon="13.1020684"><ele>675.0</ele><time>2026-04-05T14:58:36.424Z</time></trkpt><trkpt lat="42.7988861" lon="13.1019291"><ele>672.0</ele><time>2026-04-05T14:58:37.423Z</time></trkpt><trkpt lat="42.7988169" lon="13.1017886"><ele>672.0</ele><time>2026-04-05T14:58:38.424Z</time></trkpt><trkpt lat="42.7987523" lon="13.1016384"><ele>672.0</ele><time>2026-04-05T14:58:39.423Z</time></trkpt><trkpt lat="42.7986865" lon="13.1014835"><ele>672.0</ele><time>2026-04-05T14:58:40.424Z</time></trkpt><trkpt lat="42.7986155" lon="13.1013406"><ele>672.0</ele><time>2026-04-05T14:58:41.424Z</time></trkpt><trkpt lat="42.7985392" lon="13.1011925"><ele>670.75</ele><time>2026-04-05T14:58:42.424Z</time></trkpt><trkpt lat="42.7984491" lon="13.1010556"><ele>669.5</ele><time>2026-04-05T14:58:43.423Z</time></trkpt><trkpt lat="42.7983523" lon="13.1009192"><ele>668.25</ele><time>2026-04-05T14:58:44.424Z</time></trkpt><trkpt lat="42.7982534" lon="13.100789"><ele>667.0</ele><time>2026-04-05T14:58:45.424Z</time></trkpt><trkpt lat="42.7981571" lon="13.1006497"><ele>665.5</ele><time>2026-04-05T14:58:46.423Z</time></trkpt><trkpt lat="42.79807" lon="13.1005167"><ele>664.0</ele><time>2026-04-05T14:58:47.424Z</time></trkpt><trkpt lat="42.7979829" lon="13.1003715"><ele>662.5</ele><time>2026-04-05T14:58:48.424Z</time></trkpt><trkpt lat="42.7978925" lon="13.1002547"><ele>661.0</ele><time>2026-04-05T14:58:49.424Z</time></trkpt><trkpt lat="42.7978161" lon="13.1001436"><ele>661.0</ele><time>2026-04-05T14:58:50.424Z</time></trkpt><trkpt lat="42.7977383" lon="13.1000506"><ele>661.0</ele><time>2026-04-05T14:58:51.424Z</time></trkpt><trkpt lat="42.7976776" lon="13.0999657"><ele>661.0</ele><time>2026-04-05T14:58:52.424Z</time></trkpt><trkpt lat="42.7976395" lon="13.0998651"><ele>661.0</ele><time>2026-04-05T14:58:53.424Z</time></trkpt><trkpt lat="42.7976275" lon="13.0997622"><ele>661.0</ele><time>2026-04-05T14:58:54.423Z</time></trkpt><trkpt lat="42.7976383" lon="13.0996598"><ele>661.0</ele><time>2026-04-05T14:58:55.423Z</time></trkpt><trkpt lat="42.7976833" lon="13.0995822"><ele>659.8</ele><time>2026-04-05T14:58:56.424Z</time></trkpt><trkpt lat="42.7977496" lon="13.0995386"><ele>658.5999999999999</ele><time>2026-04-05T14:58:57.423Z</time></trkpt><trkpt lat="42.7978452" lon="13.0995453"><ele>657.4</ele><time>2026-04-05T14:58:58.424Z</time></trkpt><trkpt lat="42.7979418" lon="13.0995889"><ele>656.2</ele><time>2026-04-05T14:58:59.424Z</time></trkpt><trkpt lat="42.7980339" lon="13.0996496"><ele>655.0</ele><time>2026-04-05T14:59:00.424Z</time></trkpt><trkpt lat="42.7981431" lon="13.0997493"><ele>655.0</ele><time>2026-04-05T14:59:01.423Z</time></trkpt><trkpt lat="42.7982329" lon="13.099858"><ele>655.0</ele><time>2026-04-05T14:59:02.424Z</time></trkpt><trkpt lat="42.7983168" lon="13.0999793"><ele>655.0</ele><time>2026-04-05T14:59:03.423Z</time></trkpt><trkpt lat="42.7983933" lon="13.1000908"><ele>655.0</ele><time>2026-04-05T14:59:04.424Z</time></trkpt><trkpt lat="42.7984605" lon="13.1001943"><ele>658.0</ele><time>2026-04-05T14:59:05.424Z</time></trkpt><trkpt lat="42.7985195" lon="13.1002715"><ele>661.0</ele><time>2026-04-05T14:59:06.423Z</time></trkpt><trkpt lat="42.7985778" lon="13.1003122"><ele>664.0</ele><time>2026-04-05T14:59:07.424Z</time></trkpt><trkpt lat="42.7986691" lon="13.1002189"><ele>667.0</ele><time>2026-04-05T14:59:09.424Z</time></trkpt><trkpt lat="42.7986381" lon="13.1000523"><ele>670.0</ele><time>2026-04-05T14:59:11.423Z</time></trkpt><trkpt lat="42.7985916" lon="13.099949"><ele>670.25</ele><time>2026-04-05T14:59:12.424Z</time></trkpt><trkpt lat="42.7985224" lon="13.0998449"><ele>670.5</ele><time>2026-04-05T14:59:13.423Z</time></trkpt><trkpt lat="42.7984407" lon="13.099729"><ele>670.75</ele><time>2026-04-05T14:59:14.424Z</time></trkpt><trkpt lat="42.7983611" lon="13.0996046"><ele>671.0</ele><time>2026-04-05T14:59:15.424Z</time></trkpt><trkpt lat="42.7982749" lon="13.0994898"><ele>667.0</ele><time>2026-04-05T14:59:16.424Z</time></trkpt><trkpt lat="42.7981675" lon="13.099389"><ele>663.0</ele><time>2026-04-05T14:59:17.424Z</time></trkpt><trkpt lat="42.7980715" lon="13.0992847"><ele>659.0</ele><time>2026-04-05T14:59:18.423Z</time></trkpt><trkpt lat="42.7979664" lon="13.0991834"><ele>655.0</ele><time>2026-04-05T14:59:19.424Z</time></trkpt><trkpt lat="42.7978603" lon="13.0990955"><ele>653.25</ele><time>2026-04-05T14:59:20.424Z</time></trkpt><trkpt lat="42.7977438" lon="13.0990405"><ele>651.5</ele><time>2026-04-05T14:59:21.424Z</time></trkpt><trkpt lat="42.7976284" lon="13.0990213"><ele>649.75</ele><time>2026-04-05T14:59:22.424Z</time></trkpt><trkpt lat="42.79751" lon="13.099027"><ele>648.0</ele><time>2026-04-05T14:59:23.424Z</time></trkpt><trkpt lat="42.7973939" lon="13.0990658"><ele>648.2</ele><time>2026-04-05T14:59:24.424Z</time></trkpt><trkpt lat="42.7972827" lon="13.0991126"><ele>648.4</ele><time>2026-04-05T14:59:25.424Z</time></trkpt><trkpt lat="42.7971787" lon="13.0991618"><ele>648.6</ele><time>2026-04-05T14:59:26.424Z</time></trkpt><trkpt lat="42.7970792" lon="13.0991834"><ele>648.8000000000001</ele><time>2026-04-05T14:59:27.423Z</time></trkpt><trkpt lat="42.7969859" lon="13.0991793"><ele>649.0</ele><time>2026-04-05T14:59:28.423Z</time></trkpt><trkpt lat="42.796898" lon="13.0991327"><ele>646.8000000000001</ele><time>2026-04-05T14:59:29.424Z</time></trkpt><trkpt lat="42.7968277" lon="13.0990541"><ele>644.6</ele><time>2026-04-05T14:59:30.424Z</time></trkpt><trkpt lat="42.7967807" lon="13.0989472"><ele>642.4</ele><time>2026-04-05T14:59:31.424Z</time></trkpt><trkpt lat="42.7967454" lon="13.0988257"><ele>640.2</ele><time>2026-04-05T14:59:32.424Z</time></trkpt><trkpt lat="42.7967097" lon="13.0986951"><ele>638.0</ele><time>2026-04-05T14:59:33.423Z</time></trkpt><trkpt lat="42.7966477" lon="13.0985832"><ele>638.0</ele><time>2026-04-05T14:59:34.423Z</time></trkpt><trkpt lat="42.7965805" lon="13.0984791"><ele>638.0</ele><time>2026-04-05T14:59:35.423Z</time></trkpt><trkpt lat="42.7965002" lon="13.0983769"><ele>638.0</ele><time>2026-04-05T14:59:36.424Z</time></trkpt><trkpt lat="42.7964228" lon="13.0982708"><ele>638.0</ele><time>2026-04-05T14:59:37.424Z</time></trkpt><trkpt lat="42.7963444" lon="13.0981547"><ele>638.0</ele><time>2026-04-05T14:59:38.424Z</time></trkpt><trkpt lat="42.7962676" lon="13.0980353"><ele>638.0</ele><time>2026-04-05T14:59:39.424Z</time></trkpt><trkpt lat="42.7961846" lon="13.0979287"><ele>638.0</ele><time>2026-04-05T14:59:40.424Z</time></trkpt><trkpt lat="42.7961094" lon="13.0978186"><ele>638.0</ele><time>2026-04-05T14:59:41.423Z</time></trkpt><trkpt lat="42.7960448" lon="13.0977038"><ele>638.0</ele><time>2026-04-05T14:59:42.424Z</time></trkpt><trkpt lat="42.795977" lon="13.0976083"><ele>638.0</ele><time>2026-04-05T14:59:43.424Z</time></trkpt><trkpt lat="42.7959063" lon="13.0975075"><ele>637.6666666666666</ele><time>2026-04-05T14:59:44.424Z</time></trkpt><trkpt lat="42.795834" lon="13.0974413"><ele>637.3333333333333</ele><time>2026-04-05T14:59:45.423Z</time></trkpt><trkpt lat="42.7957579" lon="13.0973754"><ele>637.0</ele><time>2026-04-05T14:59:46.424Z</time></trkpt><trkpt lat="42.7956893" lon="13.0973117"><ele>636.6666666666666</ele><time>2026-04-05T14:59:47.424Z</time></trkpt><trkpt lat="42.7956255" lon="13.0972532"><ele>636.3333333333334</ele><time>2026-04-05T14:59:48.424Z</time></trkpt><trkpt lat="42.795573" lon="13.0972001"><ele>636.0</ele><time>2026-04-05T14:59:49.424Z</time></trkpt><trkpt lat="42.7955" lon="13.0971347"><ele>635.7142857142857</ele><time>2026-04-05T14:59:51.424Z</time></trkpt><trkpt lat="42.7954446" lon="13.0970589"><ele>635.4285714285714</ele><time>2026-04-05T14:59:55.424Z</time></trkpt><trkpt lat="42.795466" lon="13.096977"><ele>635.1428571428571</ele><time>2026-04-05T14:59:57.424Z</time></trkpt><trkpt lat="42.7955299" lon="13.0968536"><ele>634.8571428571429</ele><time>2026-04-05T14:59:59.424Z</time></trkpt><trkpt lat="42.7955672" lon="13.0967825"><ele>634.5714285714286</ele><time>2026-04-05T15:00:00.423Z</time></trkpt><trkpt lat="42.7955984" lon="13.0967071"><ele>634.2857142857143</ele><time>2026-04-05T15:00:01.424Z</time></trkpt><trkpt lat="42.7956271" lon="13.0966298"><ele>634.0</ele><time>2026-04-05T15:00:02.423Z</time></trkpt><trkpt lat="42.7956609" lon="13.0965353"><ele>633.2</ele><time>2026-04-05T15:00:03.423Z</time></trkpt><trkpt lat="42.7956993" lon="13.096442"><ele>632.4</ele><time>2026-04-05T15:00:04.424Z</time></trkpt><trkpt lat="42.7957483" lon="13.096338"><ele>631.6</ele><time>2026-04-05T15:00:05.423Z</time></trkpt><trkpt lat="42.7957998" lon="13.0962198"><ele>630.8</ele><time>2026-04-05T15:00:06.423Z</time></trkpt><trkpt lat="42.7958439" lon="13.0960966"><ele>630.0</ele><time>2026-04-05T15:00:07.424Z</time></trkpt><trkpt lat="42.7958865" lon="13.0959763"><ele>630.0</ele><time>2026-04-05T15:00:08.424Z</time></trkpt><trkpt lat="42.7959226" lon="13.0958516"><ele>630.0</ele><time>2026-04-05T15:00:09.424Z</time></trkpt><trkpt lat="42.795933" lon="13.0957351"><ele>630.0</ele><time>2026-04-05T15:00:10.424Z</time></trkpt><trkpt lat="42.795919" lon="13.0956137"><ele>630.0</ele><time>2026-04-05T15:00:11.424Z</time></trkpt><trkpt lat="42.7958865" lon="13.0954919"><ele>630.0</ele><time>2026-04-05T15:00:12.424Z</time></trkpt><trkpt lat="42.7958429" lon="13.0953614"><ele>628.6</ele><time>2026-04-05T15:00:13.423Z</time></trkpt><trkpt lat="42.7957962" lon="13.0952306"><ele>627.2</ele><time>2026-04-05T15:00:14.423Z</time></trkpt><trkpt lat="42.7957442" lon="13.0951024"><ele>625.8</ele><time>2026-04-05T15:00:15.423Z</time></trkpt><trkpt lat="42.795687" lon="13.0949812"><ele>624.4</ele><time>2026-04-05T15:00:16.424Z</time></trkpt><trkpt lat="42.7956291" lon="13.0948653"><ele>623.0</ele><time>2026-04-05T15:00:17.424Z</time></trkpt><trkpt lat="42.7955691" lon="13.0947527"><ele>621.6</ele><time>2026-04-05T15:00:18.424Z</time></trkpt><trkpt lat="42.7955045" lon="13.0946435"><ele>620.1999999999999</ele><time>2026-04-05T15:00:19.423Z</time></trkpt><trkpt lat="42.795445" lon="13.0945455"><ele>618.8</ele><time>2026-04-05T15:00:20.423Z</time></trkpt><trkpt lat="42.7953894" lon="13.0944356"><ele>617.4</ele><time>2026-04-05T15:00:21.424Z</time></trkpt><trkpt lat="42.7953384" lon="13.0943257"><ele>616.0</ele><time>2026-04-05T15:00:22.424Z</time></trkpt><trkpt lat="42.7952999" lon="13.0942025"><ele>615.6</ele><time>2026-04-05T15:00:23.424Z</time></trkpt><trkpt lat="42.7952632" lon="13.0940836"><ele>615.2</ele><time>2026-04-05T15:00:24.424Z</time></trkpt><trkpt lat="42.7952416" lon="13.0939585"><ele>614.8</ele><time>2026-04-05T15:00:25.423Z</time></trkpt><trkpt lat="42.7952211" lon="13.0938294"><ele>614.4</ele><time>2026-04-05T15:00:26.424Z</time></trkpt><trkpt lat="42.7951993" lon="13.0937057"><ele>614.0</ele><time>2026-04-05T15:00:27.424Z</time></trkpt><trkpt lat="42.7951812" lon="13.0935813"><ele>614.2</ele><time>2026-04-05T15:00:28.423Z</time></trkpt><trkpt lat="42.7951626" lon="13.0934539"><ele>614.4</ele><time>2026-04-05T15:00:29.424Z</time></trkpt><trkpt lat="42.79515" lon="13.0933375"><ele>614.6</ele><time>2026-04-05T15:00:30.424Z</time></trkpt><trkpt lat="42.7951467" lon="13.0932083"><ele>614.8</ele><time>2026-04-05T15:00:31.423Z</time></trkpt><trkpt lat="42.7951385" lon="13.0930808"><ele>615.0</ele><time>2026-04-05T15:00:32.424Z</time></trkpt><trkpt lat="42.7951296" lon="13.0929619"><ele>614.4285714285714</ele><time>2026-04-05T15:00:33.423Z</time></trkpt><trkpt lat="42.7951234" lon="13.0928542"><ele>613.8571428571429</ele><time>2026-04-05T15:00:34.423Z</time></trkpt><trkpt lat="42.7951181" lon="13.0927526"><ele>613.2857142857143</ele><time>2026-04-05T15:00:35.423Z</time></trkpt><trkpt lat="42.7951082" lon="13.0926523"><ele>612.7142857142858</ele><time>2026-04-05T15:00:36.424Z</time></trkpt><trkpt lat="42.7951048" lon="13.092562"><ele>612.1428571428571</ele><time>2026-04-05T15:00:37.424Z</time></trkpt><trkpt lat="42.7951032" lon="13.0924712"><ele>611.5714285714287</ele><time>2026-04-05T15:00:38.424Z</time></trkpt><trkpt lat="42.7951059" lon="13.0923785"><ele>611.0</ele><time>2026-04-05T15:00:39.424Z</time></trkpt><trkpt lat="42.7951055" lon="13.0922288"><ele>610.4</ele><time>2026-04-05T15:00:41.424Z</time></trkpt><trkpt lat="42.7951284" lon="13.0920859"><ele>609.8</ele><time>2026-04-05T15:00:43.423Z</time></trkpt><trkpt lat="42.7951528" lon="13.0920048"><ele>609.1999999999999</ele><time>2026-04-05T15:00:45.424Z</time></trkpt><trkpt lat="42.7952108" lon="13.0919536"><ele>608.6</ele><time>2026-04-05T15:00:48.424Z</time></trkpt><trkpt lat="42.7953073" lon="13.0919145"><ele>608.0</ele><time>2026-04-05T15:00:51.424Z</time></trkpt><trkpt lat="42.7954364" lon="13.0918763"><ele>607.1666666666666</ele><time>2026-04-05T15:00:53.424Z</time></trkpt><trkpt lat="42.7955111" lon="13.0918452"><ele>606.3333333333333</ele><time>2026-04-05T15:00:54.424Z</time></trkpt><trkpt lat="42.7955754" lon="13.0918161"><ele>605.5</ele><time>2026-04-05T15:00:55.424Z</time></trkpt><trkpt lat="42.7956409" lon="13.0917831"><ele>604.6666666666666</ele><time>2026-04-05T15:00:56.424Z</time></trkpt><trkpt lat="42.7956942" lon="13.0917371"><ele>603.8333333333334</ele><time>2026-04-05T15:00:57.424Z</time></trkpt><trkpt lat="42.7957549" lon="13.0916872"><ele>603.0</ele><time>2026-04-05T15:00:58.424Z</time></trkpt><trkpt lat="42.7958292" lon="13.0915508"><ele>602.1428571428572</ele><time>2026-04-05T15:01:00.424Z</time></trkpt><trkpt lat="42.7958581" lon="13.0914625"><ele>601.2857142857142</ele><time>2026-04-05T15:01:01.423Z</time></trkpt><trkpt lat="42.7958845" lon="13.0913779"><ele>600.4285714285714</ele><time>2026-04-05T15:01:02.424Z</time></trkpt><trkpt lat="42.7958885" lon="13.0912789"><ele>599.5714285714287</ele><time>2026-04-05T15:01:03.423Z</time></trkpt><trkpt lat="42.7958833" lon="13.0911739"><ele>598.7142857142858</ele><time>2026-04-05T15:01:04.424Z</time></trkpt><trkpt lat="42.7958624" lon="13.0910728"><ele>597.8571428571429</ele><time>2026-04-05T15:01:05.424Z</time></trkpt><trkpt lat="42.7958261" lon="13.0909701"><ele>597.0</ele><time>2026-04-05T15:01:06.424Z</time></trkpt><trkpt lat="42.7958039" lon="13.0908707"><ele>597.0</ele><time>2026-04-05T15:01:07.423Z</time></trkpt><trkpt lat="42.7957704" lon="13.0907644"><ele>597.0</ele><time>2026-04-05T15:01:08.424Z</time></trkpt><trkpt lat="42.795733" lon="13.0906686"><ele>597.0</ele><time>2026-04-05T15:01:09.424Z</time></trkpt><trkpt lat="42.7957055" lon="13.0905692"><ele>597.0</ele><time>2026-04-05T15:01:10.424Z</time></trkpt><trkpt lat="42.7956775" lon="13.0904741"><ele>597.0</ele><time>2026-04-05T15:01:11.424Z</time></trkpt><trkpt lat="42.7956519" lon="13.0903828"><ele>597.0</ele><time>2026-04-05T15:01:12.424Z</time></trkpt><trkpt lat="42.7956184" lon="13.0902924"><ele>596.6666666666666</ele><time>2026-04-05T15:01:13.424Z</time></trkpt><trkpt lat="42.7955889" lon="13.0902008"><ele>596.3333333333334</ele><time>2026-04-05T15:01:14.424Z</time></trkpt><trkpt lat="42.7955618" lon="13.0900997"><ele>596.0</ele><time>2026-04-05T15:01:15.424Z</time></trkpt><trkpt lat="42.7955381" lon="13.0900065"><ele>595.6666666666667</ele><time>2026-04-05T15:01:16.424Z</time></trkpt><trkpt lat="42.7955095" lon="13.0899101"><ele>595.3333333333334</ele><time>2026-04-05T15:01:17.423Z</time></trkpt><trkpt lat="42.7954766" lon="13.0898073"><ele>595.0</ele><time>2026-04-05T15:01:18.424Z</time></trkpt><trkpt lat="42.7954417" lon="13.0896834"><ele>594.0</ele><time>2026-04-05T15:01:19.424Z</time></trkpt><trkpt lat="42.7954072" lon="13.0895565"><ele>593.0</ele><time>2026-04-05T15:01:20.424Z</time></trkpt><trkpt lat="42.7953654" lon="13.0894358"><ele>592.0</ele><time>2026-04-05T15:01:21.424Z</time></trkpt><trkpt lat="42.7953247" lon="13.0893064"><ele>591.0</ele><time>2026-04-05T15:01:22.424Z</time></trkpt><trkpt lat="42.7952868" lon="13.0891637"><ele>590.0</ele><time>2026-04-05T15:01:23.424Z</time></trkpt><trkpt lat="42.7952445" lon="13.089031"><ele>589.25</ele><time>2026-04-05T15:01:24.423Z</time></trkpt><trkpt lat="42.7951982" lon="13.0888805"><ele>588.5</ele><time>2026-04-05T15:01:25.423Z</time></trkpt><trkpt lat="42.7951572" lon="13.0887341"><ele>587.75</ele><time>2026-04-05T15:01:26.424Z</time></trkpt><trkpt lat="42.7951075" lon="13.0885893"><ele>587.0</ele><time>2026-04-05T15:01:27.424Z</time></trkpt><trkpt lat="42.7950644" lon="13.0884429"><ele>586.8000000000001</ele><time>2026-04-05T15:01:28.424Z</time></trkpt><trkpt lat="42.7950238" lon="13.0883035"><ele>586.6</ele><time>2026-04-05T15:01:29.424Z</time></trkpt><trkpt lat="42.794979" lon="13.0881643"><ele>586.4000000000001</ele><time>2026-04-05T15:01:30.424Z</time></trkpt><trkpt lat="42.7949438" lon="13.0880346"><ele>586.2</ele><time>2026-04-05T15:01:31.424Z</time></trkpt><trkpt lat="42.7949108" lon="13.0879075"><ele>586.0</ele><time>2026-04-05T15:01:32.424Z</time></trkpt><trkpt lat="42.7948751" lon="13.0877868"><ele>585.6</ele><time>2026-04-05T15:01:33.424Z</time></trkpt><trkpt lat="42.7948444" lon="13.0876749"><ele>585.2</ele><time>2026-04-05T15:01:34.424Z</time></trkpt><trkpt lat="42.7948138" lon="13.0875609"><ele>584.8</ele><time>2026-04-05T15:01:35.423Z</time></trkpt><trkpt lat="42.7947757" lon="13.0874328"><ele>584.4</ele><time>2026-04-05T15:01:36.424Z</time></trkpt><trkpt lat="42.7947377" lon="13.0872957"><ele>584.0</ele><time>2026-04-05T15:01:37.424Z</time></trkpt><trkpt lat="42.7947096" lon="13.0871494"><ele>583.0</ele><time>2026-04-05T15:01:38.424Z</time></trkpt><trkpt lat="42.7946833" lon="13.0869953"><ele>582.0</ele><time>2026-04-05T15:01:39.424Z</time></trkpt><trkpt lat="42.7946608" lon="13.086834"><ele>581.0</ele><time>2026-04-05T15:01:40.424Z</time></trkpt><trkpt lat="42.7946512" lon="13.0866554"><ele>580.0</ele><time>2026-04-05T15:01:41.424Z</time></trkpt><trkpt lat="42.7946495" lon="13.0864768"><ele>577.75</ele><time>2026-04-05T15:01:42.423Z</time></trkpt><trkpt lat="42.7946491" lon="13.0862793"><ele>575.5</ele><time>2026-04-05T15:01:43.423Z</time></trkpt><trkpt lat="42.794652" lon="13.0860835"><ele>573.25</ele><time>2026-04-05T15:01:44.424Z</time></trkpt><trkpt lat="42.794677" lon="13.0858771"><ele>571.0</ele><time>2026-04-05T15:01:45.424Z</time></trkpt><trkpt lat="42.7947077" lon="13.0856819"><ele>570.0</ele><time>2026-04-05T15:01:46.424Z</time></trkpt><trkpt lat="42.7947382" lon="13.0854834"><ele>569.0</ele><time>2026-04-05T15:01:47.424Z</time></trkpt><trkpt lat="42.794782" lon="13.085292"><ele>568.0</ele><time>2026-04-05T15:01:48.424Z</time></trkpt><trkpt lat="42.7948337" lon="13.0851117"><ele>567.0</ele><time>2026-04-05T15:01:49.424Z</time></trkpt><trkpt lat="42.794876" lon="13.0849227"><ele>566.75</ele><time>2026-04-05T15:01:50.424Z</time></trkpt><trkpt lat="42.7949247" lon="13.0847492"><ele>566.5</ele><time>2026-04-05T15:01:51.423Z</time></trkpt><trkpt lat="42.794971" lon="13.0845748"><ele>566.25</ele><time>2026-04-05T15:01:52.423Z</time></trkpt><trkpt lat="42.7950157" lon="13.0843949"><ele>566.0</ele><time>2026-04-05T15:01:53.424Z</time></trkpt><trkpt lat="42.7950644" lon="13.084214"><ele>565.75</ele><time>2026-04-05T15:01:54.424Z</time></trkpt><trkpt lat="42.7951116" lon="13.0840344"><ele>565.5</ele><time>2026-04-05T15:01:55.423Z</time></trkpt><trkpt lat="42.7951571" lon="13.0838497"><ele>565.25</ele><time>2026-04-05T15:01:56.424Z</time></trkpt><trkpt lat="42.7951928" lon="13.0836649"><ele>565.0</ele><time>2026-04-05T15:01:57.424Z</time></trkpt><trkpt lat="42.7952405" lon="13.0834859"><ele>565.0</ele><time>2026-04-05T15:01:58.424Z</time></trkpt><trkpt lat="42.7952886" lon="13.0833006"><ele>565.0</ele><time>2026-04-05T15:01:59.423Z</time></trkpt><trkpt lat="42.7953354" lon="13.0831202"><ele>565.0</ele><time>2026-04-05T15:02:00.423Z</time></trkpt><trkpt lat="42.7953821" lon="13.0829379"><ele>565.0</ele><time>2026-04-05T15:02:01.424Z</time></trkpt><trkpt lat="42.7954243" lon="13.0827486"><ele>564.0</ele><time>2026-04-05T15:02:02.423Z</time></trkpt><trkpt lat="42.795459" lon="13.0825545"><ele>563.0</ele><time>2026-04-05T15:02:03.424Z</time></trkpt><trkpt lat="42.7954906" lon="13.0823586"><ele>562.0</ele><time>2026-04-05T15:02:04.424Z</time></trkpt><trkpt lat="42.7955249" lon="13.0821581"><ele>561.0</ele><time>2026-04-05T15:02:05.424Z</time></trkpt><trkpt lat="42.7955474" lon="13.0819584"><ele>561.0</ele><time>2026-04-05T15:02:06.423Z</time></trkpt><trkpt lat="42.7955711" lon="13.0817463"><ele>561.0</ele><time>2026-04-05T15:02:07.424Z</time></trkpt><trkpt lat="42.795589" lon="13.0815272"><ele>561.0</ele><time>2026-04-05T15:02:08.424Z</time></trkpt><trkpt lat="42.7956162" lon="13.0813015"><ele>561.3333333333334</ele><time>2026-04-05T15:02:09.424Z</time></trkpt><trkpt lat="42.7956414" lon="13.0810803"><ele>561.6666666666667</ele><time>2026-04-05T15:02:10.424Z</time></trkpt><trkpt lat="42.7956628" lon="13.0808633"><ele>562.0</ele><time>2026-04-05T15:02:11.424Z</time></trkpt><trkpt lat="42.7956806" lon="13.0806448"><ele>561.3333333333334</ele><time>2026-04-05T15:02:12.423Z</time></trkpt><trkpt lat="42.7957008" lon="13.0804268"><ele>560.6666666666666</ele><time>2026-04-05T15:02:13.424Z</time></trkpt><trkpt lat="42.7957288" lon="13.0802062"><ele>560.0</ele><time>2026-04-05T15:02:14.424Z</time></trkpt><trkpt lat="42.7957522" lon="13.0799852"><ele>560.3333333333333</ele><time>2026-04-05T15:02:15.423Z</time></trkpt><trkpt lat="42.7957753" lon="13.0797595"><ele>560.6666666666666</ele><time>2026-04-05T15:02:16.424Z</time></trkpt><trkpt lat="42.7957964" lon="13.0795276"><ele>561.0</ele><time>2026-04-05T15:02:17.423Z</time></trkpt><trkpt lat="42.7958253" lon="13.0792967"><ele>559.6666666666666</ele><time>2026-04-05T15:02:18.424Z</time></trkpt><trkpt lat="42.7958525" lon="13.0790666"><ele>558.3333333333333</ele><time>2026-04-05T15:02:19.423Z</time></trkpt><trkpt lat="42.7958771" lon="13.0788359"><ele>557.0</ele><time>2026-04-05T15:02:20.424Z</time></trkpt><trkpt lat="42.7959042" lon="13.078602"><ele>557.0</ele><time>2026-04-05T15:02:21.424Z</time></trkpt><trkpt lat="42.79593" lon="13.0783728"><ele>557.0</ele><time>2026-04-05T15:02:22.424Z</time></trkpt><trkpt lat="42.7959519" lon="13.0781522"><ele>557.0</ele><time>2026-04-05T15:02:23.423Z</time></trkpt><trkpt lat="42.7959763" lon="13.0779322"><ele>556.3333333333333</ele><time>2026-04-05T15:02:24.423Z</time></trkpt><trkpt lat="42.7959993" lon="13.0777081"><ele>555.6666666666666</ele><time>2026-04-05T15:02:25.424Z</time></trkpt><trkpt lat="42.796023" lon="13.0774921"><ele>555.0</ele><time>2026-04-05T15:02:26.424Z</time></trkpt><trkpt lat="42.7960459" lon="13.0772776"><ele>559.6666666666666</ele><time>2026-04-05T15:02:27.424Z</time></trkpt><trkpt lat="42.7960629" lon="13.077059"><ele>564.3333333333333</ele><time>2026-04-05T15:02:28.424Z</time></trkpt><trkpt lat="42.7960655" lon="13.0768418"><ele>569.0</ele><time>2026-04-05T15:02:29.423Z</time></trkpt><trkpt lat="42.7960665" lon="13.0766198"><ele>567.6666666666666</ele><time>2026-04-05T15:02:30.424Z</time></trkpt><trkpt lat="42.7960631" lon="13.0763961"><ele>566.3333333333334</ele><time>2026-04-05T15:02:31.424Z</time></trkpt><trkpt lat="42.7960528" lon="13.0761711"><ele>565.0</ele><time>2026-04-05T15:02:32.424Z</time></trkpt><trkpt lat="42.796036" lon="13.0759442"><ele>564.6666666666667</ele><time>2026-04-05T15:02:33.424Z</time></trkpt><trkpt lat="42.7960164" lon="13.0757319"><ele>564.3333333333334</ele><time>2026-04-05T15:02:34.424Z</time></trkpt><trkpt lat="42.7959887" lon="13.0755102"><ele>564.0</ele><time>2026-04-05T15:02:35.424Z</time></trkpt><trkpt lat="42.7959623" lon="13.0752859"><ele>561.6666666666666</ele><time>2026-04-05T15:02:36.424Z</time></trkpt><trkpt lat="42.7959398" lon="13.0750657"><ele>559.3333333333333</ele><time>2026-04-05T15:02:37.424Z</time></trkpt><trkpt lat="42.7959195" lon="13.0748385"><ele>557.0</ele><time>2026-04-05T15:02:38.423Z</time></trkpt><trkpt lat="42.7958928" lon="13.0746146"><ele>557.0</ele><time>2026-04-05T15:02:39.424Z</time></trkpt><trkpt lat="42.7958588" lon="13.074387"><ele>557.0</ele><time>2026-04-05T15:02:40.424Z</time></trkpt><trkpt lat="42.7958342" lon="13.0741565"><ele>557.0</ele><time>2026-04-05T15:02:41.424Z</time></trkpt><trkpt lat="42.795808" lon="13.0739321"><ele>557.3333333333333</ele><time>2026-04-05T15:02:42.424Z</time></trkpt><trkpt lat="42.7957846" lon="13.0737127"><ele>557.6666666666666</ele><time>2026-04-05T15:02:43.424Z</time></trkpt><trkpt lat="42.7957619" lon="13.0734889"><ele>558.0</ele><time>2026-04-05T15:02:44.424Z</time></trkpt><trkpt lat="42.7957367" lon="13.0732638"><ele>559.6666666666666</ele><time>2026-04-05T15:02:45.423Z</time></trkpt><trkpt lat="42.7957073" lon="13.0730453"><ele>561.3333333333333</ele><time>2026-04-05T15:02:46.423Z</time></trkpt><trkpt lat="42.7956847" lon="13.0728176"><ele>563.0</ele><time>2026-04-05T15:02:47.424Z</time></trkpt><trkpt lat="42.795666" lon="13.0725946"><ele>562.3333333333333</ele><time>2026-04-05T15:02:48.424Z</time></trkpt><trkpt lat="42.7956331" lon="13.0723708"><ele>561.6666666666666</ele><time>2026-04-05T15:02:49.424Z</time></trkpt><trkpt lat="42.7956151" lon="13.0721495"><ele>561.0</ele><time>2026-04-05T15:02:50.424Z</time></trkpt><trkpt lat="42.7955956" lon="13.0719169"><ele>561.0</ele><time>2026-04-05T15:02:51.424Z</time></trkpt><trkpt lat="42.7955743" lon="13.0716872"><ele>561.0</ele><time>2026-04-05T15:02:52.423Z</time></trkpt><trkpt lat="42.7955485" lon="13.0714602"><ele>561.0</ele><time>2026-04-05T15:02:53.424Z</time></trkpt><trkpt lat="42.7955251" lon="13.0712332"><ele>560.3333333333334</ele><time>2026-04-05T15:02:54.424Z</time></trkpt><trkpt lat="42.7955013" lon="13.0709976"><ele>559.6666666666667</ele><time>2026-04-05T15:02:55.424Z</time></trkpt><trkpt lat="42.7954749" lon="13.0707675"><ele>559.0</ele><time>2026-04-05T15:02:56.424Z</time></trkpt><trkpt lat="42.7954446" lon="13.0705373"><ele>558.6666666666667</ele><time>2026-04-05T15:02:57.424Z</time></trkpt><trkpt lat="42.795418" lon="13.0703134"><ele>558.3333333333334</ele><time>2026-04-05T15:02:58.424Z</time></trkpt><trkpt lat="42.7953839" lon="13.070091"><ele>558.0</ele><time>2026-04-05T15:02:59.424Z</time></trkpt><trkpt lat="42.7953512" lon="13.0698731"><ele>558.6666666666666</ele><time>2026-04-05T15:03:00.424Z</time></trkpt><trkpt lat="42.7953162" lon="13.069655"><ele>559.3333333333333</ele><time>2026-04-05T15:03:01.424Z</time></trkpt><trkpt lat="42.7952659" lon="13.0694408"><ele>560.0</ele><time>2026-04-05T15:03:02.424Z</time></trkpt><trkpt lat="42.7952061" lon="13.0692381"><ele>559.6666666666666</ele><time>2026-04-05T15:03:03.424Z</time></trkpt><trkpt lat="42.795146" lon="13.069035"><ele>559.3333333333334</ele><time>2026-04-05T15:03:04.424Z</time></trkpt><trkpt lat="42.7950838" lon="13.0688351"><ele>559.0</ele><time>2026-04-05T15:03:05.424Z</time></trkpt><trkpt lat="42.7950076" lon="13.0686428"><ele>559.0</ele><time>2026-04-05T15:03:06.424Z</time></trkpt><trkpt lat="42.7949297" lon="13.0684568"><ele>559.0</ele><time>2026-04-05T15:03:07.424Z</time></trkpt><trkpt lat="42.7948479" lon="13.0682778"><ele>559.0</ele><time>2026-04-05T15:03:08.423Z</time></trkpt><trkpt lat="42.7947633" lon="13.068105"><ele>559.6666666666667</ele><time>2026-04-05T15:03:09.424Z</time></trkpt><trkpt lat="42.7946789" lon="13.0679355"><ele>560.3333333333334</ele><time>2026-04-05T15:03:10.424Z</time></trkpt><trkpt lat="42.794587" lon="13.0677594"><ele>561.0</ele><time>2026-04-05T15:03:11.424Z</time></trkpt><trkpt lat="42.7944878" lon="13.0675931"><ele>561.6666666666666</ele><time>2026-04-05T15:03:12.424Z</time></trkpt><trkpt lat="42.7943812" lon="13.0674178"><ele>562.3333333333333</ele><time>2026-04-05T15:03:13.424Z</time></trkpt><trkpt lat="42.7942848" lon="13.0672376"><ele>563.0</ele><time>2026-04-05T15:03:14.424Z</time></trkpt><trkpt lat="42.7941837" lon="13.0670344"><ele>563.0</ele><time>2026-04-05T15:03:15.423Z</time></trkpt><trkpt lat="42.7940612" lon="13.0668338"><ele>563.0</ele><time>2026-04-05T15:03:16.423Z</time></trkpt><trkpt lat="42.7939402" lon="13.066615"><ele>563.0</ele><time>2026-04-05T15:03:17.424Z</time></trkpt><trkpt lat="42.7938134" lon="13.0663784"><ele>564.6666666666666</ele><time>2026-04-05T15:03:18.423Z</time></trkpt><trkpt lat="42.7936845" lon="13.0661332"><ele>566.3333333333334</ele><time>2026-04-05T15:03:19.424Z</time></trkpt><trkpt lat="42.7935538" lon="13.0658899"><ele>568.0</ele><time>2026-04-05T15:03:20.424Z</time></trkpt><trkpt lat="42.7934182" lon="13.0656354"><ele>568.0</ele><time>2026-04-05T15:03:21.424Z</time></trkpt><trkpt lat="42.7932833" lon="13.0653788"><ele>568.0</ele><time>2026-04-05T15:03:22.424Z</time></trkpt><trkpt lat="42.7931507" lon="13.065128"><ele>570.0</ele><time>2026-04-05T15:03:23.423Z</time></trkpt><trkpt lat="42.7930287" lon="13.0648908"><ele>572.0</ele><time>2026-04-05T15:03:24.424Z</time></trkpt><trkpt lat="42.792909" lon="13.0646584"><ele>574.0</ele><time>2026-04-05T15:03:25.423Z</time></trkpt><trkpt lat="42.7927893" lon="13.0644341"><ele>570.0</ele><time>2026-04-05T15:03:26.424Z</time></trkpt><trkpt lat="42.7926706" lon="13.0642197"><ele>566.0</ele><time>2026-04-05T15:03:27.424Z</time></trkpt><trkpt lat="42.7925518" lon="13.0640163"><ele>562.0</ele><time>2026-04-05T15:03:28.423Z</time></trkpt><trkpt lat="42.7924445" lon="13.0638134"><ele>562.0</ele><time>2026-04-05T15:03:29.423Z</time></trkpt><trkpt lat="42.7923374" lon="13.0636215"><ele>562.0</ele><time>2026-04-05T15:03:30.424Z</time></trkpt><trkpt lat="42.7922358" lon="13.0634291"><ele>562.0</ele><time>2026-04-05T15:03:31.424Z</time></trkpt><trkpt lat="42.792142" lon="13.0632344"><ele>564.0</ele><time>2026-04-05T15:03:32.424Z</time></trkpt><trkpt lat="42.7920531" lon="13.063033"><ele>566.0</ele><time>2026-04-05T15:03:33.424Z</time></trkpt><trkpt lat="42.7919694" lon="13.0628233"><ele>568.0</ele><time>2026-04-05T15:03:34.424Z</time></trkpt><trkpt lat="42.7918848" lon="13.0626084"><ele>563.0</ele><time>2026-04-05T15:03:35.423Z</time></trkpt><trkpt lat="42.7917968" lon="13.0623931"><ele>558.0</ele><time>2026-04-05T15:03:36.423Z</time></trkpt><trkpt lat="42.7917136" lon="13.0621701"><ele>553.0</ele><time>2026-04-05T15:03:37.423Z</time></trkpt><trkpt lat="42.7916305" lon="13.0619464"><ele>553.0</ele><time>2026-04-05T15:03:38.424Z</time></trkpt><trkpt lat="42.7915476" lon="13.0617186"><ele>553.0</ele><time>2026-04-05T15:03:39.423Z</time></trkpt><trkpt lat="42.79146" lon="13.0614904"><ele>553.0</ele><time>2026-04-05T15:03:40.424Z</time></trkpt><trkpt lat="42.7913757" lon="13.061255"><ele>554.0</ele><time>2026-04-05T15:03:41.424Z</time></trkpt><trkpt lat="42.7912907" lon="13.061021"><ele>555.0</ele><time>2026-04-05T15:03:42.424Z</time></trkpt><trkpt lat="42.7912043" lon="13.0607786"><ele>556.0</ele><time>2026-04-05T15:03:43.424Z</time></trkpt><trkpt lat="42.791113" lon="13.0605422"><ele>557.0</ele><time>2026-04-05T15:03:44.424Z</time></trkpt><trkpt lat="42.7910241" lon="13.0603032"><ele>558.0</ele><time>2026-04-05T15:03:45.424Z</time></trkpt><trkpt lat="42.7909282" lon="13.0600596"><ele>559.0</ele><time>2026-04-05T15:03:46.424Z</time></trkpt><trkpt lat="42.7908356" lon="13.0598194"><ele>559.0</ele><time>2026-04-05T15:03:47.424Z</time></trkpt><trkpt lat="42.7907527" lon="13.0595747"><ele>559.0</ele><time>2026-04-05T15:03:48.424Z</time></trkpt><trkpt lat="42.7906558" lon="13.0593344"><ele>559.0</ele><time>2026-04-05T15:03:49.424Z</time></trkpt><trkpt lat="42.7905623" lon="13.0590988"><ele>563.0</ele><time>2026-04-05T15:03:50.424Z</time></trkpt><trkpt lat="42.7904771" lon="13.0588692"><ele>567.0</ele><time>2026-04-05T15:03:51.423Z</time></trkpt><trkpt lat="42.7903967" lon="13.0586462"><ele>571.0</ele><time>2026-04-05T15:03:52.423Z</time></trkpt><trkpt lat="42.790312" lon="13.0584315"><ele>571.6666666666667</ele><time>2026-04-05T15:03:53.424Z</time></trkpt><trkpt lat="42.7902399" lon="13.0582298"><ele>572.3333333333334</ele><time>2026-04-05T15:03:54.424Z</time></trkpt><trkpt lat="42.7901562" lon="13.0580262"><ele>573.0</ele><time>2026-04-05T15:03:55.424Z</time></trkpt><trkpt lat="42.7900856" lon="13.0578231"><ele>564.0</ele><time>2026-04-05T15:03:56.424Z</time></trkpt><trkpt lat="42.7900202" lon="13.0576152"><ele>555.0</ele><time>2026-04-05T15:03:57.424Z</time></trkpt><trkpt lat="42.7899667" lon="13.0574033"><ele>546.0</ele><time>2026-04-05T15:03:58.424Z</time></trkpt><trkpt lat="42.7899339" lon="13.0571849"><ele>545.3333333333334</ele><time>2026-04-05T15:03:59.424Z</time></trkpt><trkpt lat="42.7899094" lon="13.056958"><ele>544.6666666666667</ele><time>2026-04-05T15:04:00.424Z</time></trkpt><trkpt lat="42.7898994" lon="13.0567192"><ele>544.0</ele><time>2026-04-05T15:04:01.423Z</time></trkpt><trkpt lat="42.7898949" lon="13.0564731"><ele>542.3333333333334</ele><time>2026-04-05T15:04:02.423Z</time></trkpt><trkpt lat="42.789902" lon="13.056221"><ele>540.6666666666666</ele><time>2026-04-05T15:04:03.424Z</time></trkpt><trkpt lat="42.7899103" lon="13.055968"><ele>539.0</ele><time>2026-04-05T15:04:04.424Z</time></trkpt><trkpt lat="42.7899216" lon="13.0557243"><ele>539.0</ele><time>2026-04-05T15:04:05.423Z</time></trkpt><trkpt lat="42.7899336" lon="13.0554588"><ele>539.0</ele><time>2026-04-05T15:04:06.424Z</time></trkpt><trkpt lat="42.7899346" lon="13.0551905"><ele>539.0</ele><time>2026-04-05T15:04:07.423Z</time></trkpt><trkpt lat="42.7899327" lon="13.0549199"><ele>538.3333333333333</ele><time>2026-04-05T15:04:08.423Z</time></trkpt><trkpt lat="42.7899362" lon="13.0546452"><ele>537.6666666666666</ele><time>2026-04-05T15:04:09.423Z</time></trkpt><trkpt lat="42.7899409" lon="13.0543834"><ele>537.0</ele><time>2026-04-05T15:04:10.424Z</time></trkpt><trkpt lat="42.789945" lon="13.0541148"><ele>537.0</ele><time>2026-04-05T15:04:11.424Z</time></trkpt><trkpt lat="42.7899505" lon="13.0538556"><ele>537.0</ele><time>2026-04-05T15:04:12.424Z</time></trkpt><trkpt lat="42.7899592" lon="13.0535973"><ele>537.0</ele><time>2026-04-05T15:04:13.424Z</time></trkpt><trkpt lat="42.7899612" lon="13.0533377"><ele>538.0</ele><time>2026-04-05T15:04:14.424Z</time></trkpt><trkpt lat="42.7899683" lon="13.0530826"><ele>539.0</ele><time>2026-04-05T15:04:15.423Z</time></trkpt><trkpt lat="42.789978" lon="13.0528308"><ele>540.0</ele><time>2026-04-05T15:04:16.424Z</time></trkpt><trkpt lat="42.7899771" lon="13.0525733"><ele>540.6666666666666</ele><time>2026-04-05T15:04:17.424Z</time></trkpt><trkpt lat="42.7899766" lon="13.0523184"><ele>541.3333333333333</ele><time>2026-04-05T15:04:18.424Z</time></trkpt><trkpt lat="42.789976" lon="13.0520643"><ele>542.0</ele><time>2026-04-05T15:04:19.424Z</time></trkpt><trkpt lat="42.7899824" lon="13.0518141"><ele>541.0</ele><time>2026-04-05T15:04:20.424Z</time></trkpt><trkpt lat="42.7899849" lon="13.0515617"><ele>540.0</ele><time>2026-04-05T15:04:21.424Z</time></trkpt><trkpt lat="42.7899905" lon="13.0513063"><ele>539.0</ele><time>2026-04-05T15:04:22.423Z</time></trkpt><trkpt lat="42.7899942" lon="13.0510563"><ele>539.0</ele><time>2026-04-05T15:04:23.424Z</time></trkpt><trkpt lat="42.7900046" lon="13.0508029"><ele>539.0</ele><time>2026-04-05T15:04:24.424Z</time></trkpt><trkpt lat="42.7900116" lon="13.0505551"><ele>539.0</ele><time>2026-04-05T15:04:25.424Z</time></trkpt><trkpt lat="42.7900197" lon="13.0503113"><ele>540.0</ele><time>2026-04-05T15:04:26.424Z</time></trkpt><trkpt lat="42.7900296" lon="13.0500646"><ele>541.0</ele><time>2026-04-05T15:04:27.424Z</time></trkpt><trkpt lat="42.790034" lon="13.0498155"><ele>542.0</ele><time>2026-04-05T15:04:28.424Z</time></trkpt><trkpt lat="42.7900331" lon="13.0495774"><ele>542.0</ele><time>2026-04-05T15:04:29.423Z</time></trkpt><trkpt lat="42.7900233" lon="13.0493311"><ele>542.0</ele><time>2026-04-05T15:04:30.424Z</time></trkpt><trkpt lat="42.7900039" lon="13.0490877"><ele>542.0</ele><time>2026-04-05T15:04:31.424Z</time></trkpt><trkpt lat="42.7899703" lon="13.0488435"><ele>542.3333333333333</ele><time>2026-04-05T15:04:32.424Z</time></trkpt><trkpt lat="42.7899186" lon="13.0486025"><ele>542.6666666666666</ele><time>2026-04-05T15:04:33.423Z</time></trkpt><trkpt lat="42.7898483" lon="13.0483666"><ele>543.0</ele><time>2026-04-05T15:04:34.424Z</time></trkpt><trkpt lat="42.7897798" lon="13.0481334"><ele>550.6666666666666</ele><time>2026-04-05T15:04:35.423Z</time></trkpt><trkpt lat="42.7897004" lon="13.0479075"><ele>558.3333333333333</ele><time>2026-04-05T15:04:36.423Z</time></trkpt><trkpt lat="42.7896138" lon="13.0476863"><ele>566.0</ele><time>2026-04-05T15:04:37.424Z</time></trkpt><trkpt lat="42.7895352" lon="13.0474717"><ele>574.3333333333333</ele><time>2026-04-05T15:04:38.424Z</time></trkpt><trkpt lat="42.7894621" lon="13.0472591"><ele>582.6666666666666</ele><time>2026-04-05T15:04:39.424Z</time></trkpt><trkpt lat="42.7893852" lon="13.0470401"><ele>591.0</ele><time>2026-04-05T15:04:40.424Z</time></trkpt><trkpt lat="42.7893054" lon="13.0468222"><ele>575.3333333333334</ele><time>2026-04-05T15:04:41.424Z</time></trkpt><trkpt lat="42.7892341" lon="13.0466075"><ele>559.6666666666667</ele><time>2026-04-05T15:04:42.424Z</time></trkpt><trkpt lat="42.7891703" lon="13.0463835"><ele>544.0</ele><time>2026-04-05T15:04:43.423Z</time></trkpt><trkpt lat="42.7891207" lon="13.0461593"><ele>544.0</ele><time>2026-04-05T15:04:44.424Z</time></trkpt><trkpt lat="42.7890785" lon="13.0459303"><ele>544.0</ele><time>2026-04-05T15:04:45.424Z</time></trkpt><trkpt lat="42.7890502" lon="13.0456886"><ele>544.0</ele><time>2026-04-05T15:04:46.424Z</time></trkpt><trkpt lat="42.7890298" lon="13.0454385"><ele>544.0</ele><time>2026-04-05T15:04:47.424Z</time></trkpt><trkpt lat="42.7890243" lon="13.0451882"><ele>544.0</ele><time>2026-04-05T15:04:48.424Z</time></trkpt><trkpt lat="42.7890324" lon="13.0449414"><ele>544.0</ele><time>2026-04-05T15:04:49.423Z</time></trkpt><trkpt lat="42.7890508" lon="13.0446921"><ele>544.0</ele><time>2026-04-05T15:04:50.423Z</time></trkpt><trkpt lat="42.7890852" lon="13.0444451"><ele>544.0</ele><time>2026-04-05T15:04:51.424Z</time></trkpt><trkpt lat="42.789126" lon="13.0441995"><ele>544.0</ele><time>2026-04-05T15:04:52.424Z</time></trkpt><trkpt lat="42.7891842" lon="13.0439602"><ele>540.3333333333334</ele><time>2026-04-05T15:04:53.424Z</time></trkpt><trkpt lat="42.7892448" lon="13.0437244"><ele>536.6666666666666</ele><time>2026-04-05T15:04:54.424Z</time></trkpt><trkpt lat="42.7893141" lon="13.0434921"><ele>533.0</ele><time>2026-04-05T15:04:55.424Z</time></trkpt><trkpt lat="42.7893836" lon="13.0432591"><ele>544.0</ele><time>2026-04-05T15:04:56.424Z</time></trkpt><trkpt lat="42.7894421" lon="13.0430166"><ele>555.0</ele><time>2026-04-05T15:04:57.424Z</time></trkpt><trkpt lat="42.7895037" lon="13.0427741"><ele>566.0</ele><time>2026-04-05T15:04:58.424Z</time></trkpt><trkpt lat="42.789553" lon="13.0425233"><ele>564.0</ele><time>2026-04-05T15:04:59.424Z</time></trkpt><trkpt lat="42.7895902" lon="13.0422646"><ele>562.0</ele><time>2026-04-05T15:05:00.423Z</time></trkpt><trkpt lat="42.7896094" lon="13.0420029"><ele>560.0</ele><time>2026-04-05T15:05:01.424Z</time></trkpt><trkpt lat="42.7896169" lon="13.0417467"><ele>562.6666666666666</ele><time>2026-04-05T15:05:02.423Z</time></trkpt><trkpt lat="42.789612" lon="13.0414914"><ele>565.3333333333334</ele><time>2026-04-05T15:05:03.424Z</time></trkpt><trkpt lat="42.7895842" lon="13.0412294"><ele>568.0</ele><time>2026-04-05T15:05:04.424Z</time></trkpt><trkpt lat="42.7895403" lon="13.0409639"><ele>570.0</ele><time>2026-04-05T15:05:05.424Z</time></trkpt><trkpt lat="42.7894861" lon="13.040707"><ele>572.0</ele><time>2026-04-05T15:05:06.424Z</time></trkpt><trkpt lat="42.7894297" lon="13.0404589"><ele>574.0</ele><time>2026-04-05T15:05:07.424Z</time></trkpt><trkpt lat="42.7893589" lon="13.0402049"><ele>561.3333333333334</ele><time>2026-04-05T15:05:08.424Z</time></trkpt><trkpt lat="42.7892809" lon="13.0399514"><ele>548.6666666666666</ele><time>2026-04-05T15:05:09.424Z</time></trkpt><trkpt lat="42.7891963" lon="13.0396976"><ele>536.0</ele><time>2026-04-05T15:05:10.424Z</time></trkpt><trkpt lat="42.789118" lon="13.039437"><ele>536.0</ele><time>2026-04-05T15:05:11.424Z</time></trkpt><trkpt lat="42.789039" lon="13.0391779"><ele>536.0</ele><time>2026-04-05T15:05:12.423Z</time></trkpt><trkpt lat="42.7889546" lon="13.0388973"><ele>536.0</ele><time>2026-04-05T15:05:13.423Z</time></trkpt><trkpt lat="42.7888678" lon="13.0386206"><ele>535.6666666666666</ele><time>2026-04-05T15:05:14.424Z</time></trkpt><trkpt lat="42.7887772" lon="13.0383446"><ele>535.3333333333334</ele><time>2026-04-05T15:05:15.423Z</time></trkpt><trkpt lat="42.7886893" lon="13.0380666"><ele>535.0</ele><time>2026-04-05T15:05:16.423Z</time></trkpt><trkpt lat="42.7886037" lon="13.0377905"><ele>535.0</ele><time>2026-04-05T15:05:17.424Z</time></trkpt><trkpt lat="42.7885223" lon="13.0375089"><ele>535.0</ele><time>2026-04-05T15:05:18.424Z</time></trkpt><trkpt lat="42.7884424" lon="13.0372405"><ele>535.0</ele><time>2026-04-05T15:05:19.424Z</time></trkpt><trkpt lat="42.7883582" lon="13.0369667"><ele>537.3333333333334</ele><time>2026-04-05T15:05:20.424Z</time></trkpt><trkpt lat="42.7882767" lon="13.0366927"><ele>539.6666666666666</ele><time>2026-04-05T15:05:21.423Z</time></trkpt><trkpt lat="42.7881909" lon="13.0364232"><ele>542.0</ele><time>2026-04-05T15:05:22.424Z</time></trkpt><trkpt lat="42.7881104" lon="13.0361587"><ele>542.0</ele><time>2026-04-05T15:05:23.423Z</time></trkpt><trkpt lat="42.7880298" lon="13.035897"><ele>542.0</ele><time>2026-04-05T15:05:24.424Z</time></trkpt><trkpt lat="42.7879547" lon="13.0356409"><ele>542.0</ele><time>2026-04-05T15:05:25.423Z</time></trkpt><trkpt lat="42.7878786" lon="13.0353921"><ele>547.6666666666666</ele><time>2026-04-05T15:05:26.424Z</time></trkpt><trkpt lat="42.787807" lon="13.0351538"><ele>553.3333333333334</ele><time>2026-04-05T15:05:27.424Z</time></trkpt><trkpt lat="42.7877378" lon="13.0349101"><ele>559.0</ele><time>2026-04-05T15:05:28.424Z</time></trkpt><trkpt lat="42.7876839" lon="13.0346647"><ele>548.3333333333334</ele><time>2026-04-05T15:05:29.424Z</time></trkpt><trkpt lat="42.7876458" lon="13.0344072"><ele>537.6666666666666</ele><time>2026-04-05T15:05:30.424Z</time></trkpt><trkpt lat="42.7876223" lon="13.0341438"><ele>527.0</ele><time>2026-04-05T15:05:31.424Z</time></trkpt><trkpt lat="42.7876183" lon="13.0338778"><ele>527.0</ele><time>2026-04-05T15:05:32.424Z</time></trkpt><trkpt lat="42.7876257" lon="13.0336115"><ele>527.0</ele><time>2026-04-05T15:05:33.424Z</time></trkpt><trkpt lat="42.7876182" lon="13.0333293"><ele>527.0</ele><time>2026-04-05T15:05:34.424Z</time></trkpt><trkpt lat="42.7876062" lon="13.033052"><ele>528.0</ele><time>2026-04-05T15:05:35.424Z</time></trkpt><trkpt lat="42.7875837" lon="13.0327687"><ele>529.0</ele><time>2026-04-05T15:05:36.424Z</time></trkpt><trkpt lat="42.787554" lon="13.0324832"><ele>530.0</ele><time>2026-04-05T15:05:37.424Z</time></trkpt><trkpt lat="42.7875217" lon="13.0321965"><ele>530.6666666666666</ele><time>2026-04-05T15:05:38.424Z</time></trkpt><trkpt lat="42.7874781" lon="13.0319189"><ele>531.3333333333334</ele><time>2026-04-05T15:05:39.424Z</time></trkpt><trkpt lat="42.7874354" lon="13.031634"><ele>532.0</ele><time>2026-04-05T15:05:40.424Z</time></trkpt><trkpt lat="42.7873896" lon="13.0313542"><ele>533.0</ele><time>2026-04-05T15:05:41.424Z</time></trkpt><trkpt lat="42.7873403" lon="13.0310704"><ele>534.0</ele><time>2026-04-05T15:05:42.424Z</time></trkpt><trkpt lat="42.7872846" lon="13.0307893"><ele>535.0</ele><time>2026-04-05T15:05:43.423Z</time></trkpt><trkpt lat="42.7872317" lon="13.0305112"><ele>539.3333333333334</ele><time>2026-04-05T15:05:44.424Z</time></trkpt><trkpt lat="42.7871801" lon="13.030234"><ele>543.6666666666666</ele><time>2026-04-05T15:05:45.424Z</time></trkpt><trkpt lat="42.7871258" lon="13.0299544"><ele>548.0</ele><time>2026-04-05T15:05:46.424Z</time></trkpt><trkpt lat="42.7870803" lon="13.029675"><ele>549.6666666666666</ele><time>2026-04-05T15:05:47.424Z</time></trkpt><trkpt lat="42.7870211" lon="13.0293988"><ele>551.3333333333334</ele><time>2026-04-05T15:05:48.424Z</time></trkpt><trkpt lat="42.7869601" lon="13.0291237"><ele>553.0</ele><time>2026-04-05T15:05:49.423Z</time></trkpt><trkpt lat="42.786896" lon="13.0288498"><ele>551.3333333333334</ele><time>2026-04-05T15:05:50.424Z</time></trkpt><trkpt lat="42.786833" lon="13.0285797"><ele>549.6666666666666</ele><time>2026-04-05T15:05:51.424Z</time></trkpt><trkpt lat="42.7867636" lon="13.0283081"><ele>548.0</ele><time>2026-04-05T15:05:52.423Z</time></trkpt><trkpt lat="42.7866988" lon="13.0280316"><ele>548.0</ele><time>2026-04-05T15:05:53.424Z</time></trkpt><trkpt lat="42.7866275" lon="13.0277631"><ele>548.0</ele><time>2026-04-05T15:05:54.424Z</time></trkpt><trkpt lat="42.7865582" lon="13.0274945"><ele>548.0</ele><time>2026-04-05T15:05:55.423Z</time></trkpt><trkpt lat="42.7864906" lon="13.0272251"><ele>553.3333333333333</ele><time>2026-04-05T15:05:56.424Z</time></trkpt><trkpt lat="42.7864236" lon="13.0269555"><ele>558.6666666666666</ele><time>2026-04-05T15:05:57.424Z</time></trkpt><trkpt lat="42.7863559" lon="13.0266865"><ele>564.0</ele><time>2026-04-05T15:05:58.424Z</time></trkpt><trkpt lat="42.786287" lon="13.0264185"><ele>564.0</ele><time>2026-04-05T15:05:59.424Z</time></trkpt><trkpt lat="42.78621" lon="13.0261213"><ele>564.0</ele><time>2026-04-05T15:06:00.423Z</time></trkpt><trkpt lat="42.7861325" lon="13.0258255"><ele>565.3333333333334</ele><time>2026-04-05T15:06:01.424Z</time></trkpt><trkpt lat="42.7860536" lon="13.0256516"><ele>566.6666666666667</ele><time>2026-04-05T15:06:02.424Z</time></trkpt><trkpt lat="42.7859817" lon="13.02542"><ele>568.0</ele><time>2026-04-05T15:06:03.424Z</time></trkpt><trkpt lat="42.7859198" lon="13.0252011"><ele>552.3333333333334</ele><time>2026-04-05T15:06:04.424Z</time></trkpt><trkpt lat="42.785867" lon="13.0249874"><ele>536.6666666666666</ele><time>2026-04-05T15:06:05.424Z</time></trkpt><trkpt lat="42.7858293" lon="13.0247705"><ele>521.0</ele><time>2026-04-05T15:06:06.423Z</time></trkpt><trkpt lat="42.7858091" lon="13.0245604"><ele>521.0</ele><time>2026-04-05T15:06:07.424Z</time></trkpt><trkpt lat="42.7857957" lon="13.0243588"><ele>521.0</ele><time>2026-04-05T15:06:08.423Z</time></trkpt><trkpt lat="42.785787" lon="13.0241775"><ele>521.0</ele><time>2026-04-05T15:06:09.423Z</time></trkpt><trkpt lat="42.7857795" lon="13.0240168"><ele>521.0</ele><time>2026-04-05T15:06:10.424Z</time></trkpt><trkpt lat="42.785773" lon="13.0238706"><ele>521.2</ele><time>2026-04-05T15:06:11.424Z</time></trkpt><trkpt lat="42.7857721" lon="13.0237263"><ele>521.4000000000001</ele><time>2026-04-05T15:06:12.424Z</time></trkpt><trkpt lat="42.7857746" lon="13.0235927"><ele>521.6</ele><time>2026-04-05T15:06:13.424Z</time></trkpt><trkpt lat="42.7857767" lon="13.0234685"><ele>521.8000000000001</ele><time>2026-04-05T15:06:14.424Z</time></trkpt><trkpt lat="42.7857798" lon="13.0233435"><ele>522.0</ele><time>2026-04-05T15:06:15.423Z</time></trkpt><trkpt lat="42.7857891" lon="13.0232443"><ele>521.5</ele><time>2026-04-05T15:06:16.424Z</time></trkpt><trkpt lat="42.785793" lon="13.0231419"><ele>521.0</ele><time>2026-04-05T15:06:17.423Z</time></trkpt><trkpt lat="42.7857912" lon="13.0230501"><ele>520.5</ele><time>2026-04-05T15:06:18.423Z</time></trkpt><trkpt lat="42.7857978" lon="13.0229042"><ele>520.0</ele><time>2026-04-05T15:06:20.424Z</time></trkpt><trkpt lat="42.7857993" lon="13.0227789"><ele>519.5</ele><time>2026-04-05T15:06:22.424Z</time></trkpt><trkpt lat="42.7857946" lon="13.0226398"><ele>519.0</ele><time>2026-04-05T15:06:24.424Z</time></trkpt><trkpt lat="42.7857745" lon="13.0224716"><ele>519.0</ele><time>2026-04-05T15:06:26.424Z</time></trkpt><trkpt lat="42.7857698" lon="13.0223695"><ele>519.0</ele><time>2026-04-05T15:06:27.423Z</time></trkpt><trkpt lat="42.7857565" lon="13.0222686"><ele>519.0</ele><time>2026-04-05T15:06:28.424Z</time></trkpt><trkpt lat="42.7857482" lon="13.0221777"><ele>519.0</ele><time>2026-04-05T15:06:29.424Z</time></trkpt><trkpt lat="42.7857367" lon="13.0220772"><ele>519.0</ele><time>2026-04-05T15:06:30.424Z</time></trkpt><trkpt lat="42.7857293" lon="13.0219711"><ele>519.0</ele><time>2026-04-05T15:06:31.424Z</time></trkpt><trkpt lat="42.7857215" lon="13.0218552"><ele>519.0</ele><time>2026-04-05T15:06:32.424Z</time></trkpt><trkpt lat="42.7857034" lon="13.0217449"><ele>519.0</ele><time>2026-04-05T15:06:33.423Z</time></trkpt><trkpt lat="42.7856967" lon="13.0216257"><ele>519.0</ele><time>2026-04-05T15:06:34.424Z</time></trkpt><trkpt lat="42.7856915" lon="13.0215141"><ele>519.0</ele><time>2026-04-05T15:06:35.424Z</time></trkpt><trkpt lat="42.7856919" lon="13.0214005"><ele>519.0</ele><time>2026-04-05T15:06:36.424Z</time></trkpt><trkpt lat="42.7857064" lon="13.0212907"><ele>519.0</ele><time>2026-04-05T15:06:37.424Z</time></trkpt><trkpt lat="42.7857334" lon="13.0211789"><ele>517.0</ele><time>2026-04-05T15:06:38.424Z</time></trkpt><trkpt lat="42.7857746" lon="13.0210692"><ele>515.0</ele><time>2026-04-05T15:06:39.423Z</time></trkpt><trkpt lat="42.7858324" lon="13.0209638"><ele>513.0</ele><time>2026-04-05T15:06:40.423Z</time></trkpt><trkpt lat="42.7859116" lon="13.0208657"><ele>511.0</ele><time>2026-04-05T15:06:41.423Z</time></trkpt><trkpt lat="42.7859885" lon="13.0207651"><ele>509.0</ele><time>2026-04-05T15:06:42.424Z</time></trkpt><trkpt lat="42.7860563" lon="13.0206623"><ele>507.79999999999995</ele><time>2026-04-05T15:06:43.424Z</time></trkpt><trkpt lat="42.7861302" lon="13.0205783"><ele>506.59999999999997</ele><time>2026-04-05T15:06:44.424Z</time></trkpt><trkpt lat="42.786213" lon="13.0205136"><ele>505.4</ele><time>2026-04-05T15:06:45.423Z</time></trkpt><trkpt lat="42.7863126" lon="13.0204809"><ele>504.2</ele><time>2026-04-05T15:06:46.424Z</time></trkpt><trkpt lat="42.7864212" lon="13.0204718"><ele>503.0</ele><time>2026-04-05T15:06:47.424Z</time></trkpt><trkpt lat="42.7865374" lon="13.0204881"><ele>503.0</ele><time>2026-04-05T15:06:48.423Z</time></trkpt><trkpt lat="42.7866603" lon="13.0205168"><ele>503.0</ele><time>2026-04-05T15:06:49.424Z</time></trkpt><trkpt lat="42.7867813" lon="13.0205273"><ele>503.0</ele><time>2026-04-05T15:06:50.424Z</time></trkpt><trkpt lat="42.7869294" lon="13.0205428"><ele>503.0</ele><time>2026-04-05T15:06:51.424Z</time></trkpt><trkpt lat="42.7870785" lon="13.0205627"><ele>502.5</ele><time>2026-04-05T15:06:52.424Z</time></trkpt><trkpt lat="42.787226" lon="13.0205635"><ele>502.0</ele><time>2026-04-05T15:06:53.424Z</time></trkpt><trkpt lat="42.787373" lon="13.020552"><ele>501.5</ele><time>2026-04-05T15:06:54.424Z</time></trkpt><trkpt lat="42.7875238" lon="13.0205502"><ele>501.0</ele><time>2026-04-05T15:06:55.424Z</time></trkpt><trkpt lat="42.7876788" lon="13.0204994"><ele>500.66666666666663</ele><time>2026-04-05T15:06:56.424Z</time></trkpt><trkpt lat="42.7878396" lon="13.0204443"><ele>500.3333333333333</ele><time>2026-04-05T15:06:57.424Z</time></trkpt><trkpt lat="42.7880011" lon="13.0204149"><ele>500.0</ele><time>2026-04-05T15:06:58.424Z</time></trkpt><trkpt lat="42.7881551" lon="13.02038"><ele>500.0</ele><time>2026-04-05T15:06:59.423Z</time></trkpt><trkpt lat="42.7883078" lon="13.0203708"><ele>500.0</ele><time>2026-04-05T15:07:00.423Z</time></trkpt><trkpt lat="42.7884459" lon="13.0203617"><ele>500.0</ele><time>2026-04-05T15:07:01.424Z</time></trkpt><trkpt lat="42.7885821" lon="13.0203322"><ele>500.0</ele><time>2026-04-05T15:07:02.423Z</time></trkpt><trkpt lat="42.7887081" lon="13.0202753"><ele>503.75</ele><time>2026-04-05T15:07:03.423Z</time></trkpt><trkpt lat="42.788823" lon="13.0201734"><ele>507.5</ele><time>2026-04-05T15:07:04.424Z</time></trkpt><trkpt lat="42.7889238" lon="13.020062"><ele>511.25</ele><time>2026-04-05T15:07:05.424Z</time></trkpt><trkpt lat="42.7890179" lon="13.0199424"><ele>515.0</ele><time>2026-04-05T15:07:06.424Z</time></trkpt><trkpt lat="42.7891024" lon="13.0198038"><ele>515.0</ele><time>2026-04-05T15:07:07.423Z</time></trkpt><trkpt lat="42.789174" lon="13.0196449"><ele>515.0</ele><time>2026-04-05T15:07:08.423Z</time></trkpt><trkpt lat="42.7892155" lon="13.0194573"><ele>515.0</ele><time>2026-04-05T15:07:09.424Z</time></trkpt><trkpt lat="42.7892368" lon="13.0192636"><ele>515.0</ele><time>2026-04-05T15:07:10.424Z</time></trkpt><trkpt lat="42.7892463" lon="13.0190397"><ele>514.6666666666666</ele><time>2026-04-05T15:07:11.424Z</time></trkpt><trkpt lat="42.7892337" lon="13.0188077"><ele>514.3333333333334</ele><time>2026-04-05T15:07:12.424Z</time></trkpt><trkpt lat="42.7891978" lon="13.0185766"><ele>514.0</ele><time>2026-04-05T15:07:13.424Z</time></trkpt><trkpt lat="42.7891592" lon="13.0183335"><ele>512.0</ele><time>2026-04-05T15:07:14.423Z</time></trkpt><trkpt lat="42.7891116" lon="13.0180959"><ele>510.0</ele><time>2026-04-05T15:07:15.423Z</time></trkpt><trkpt lat="42.7890635" lon="13.0178784"><ele>508.0</ele><time>2026-04-05T15:07:16.424Z</time></trkpt><trkpt lat="42.789013" lon="13.0176676"><ele>506.0</ele><time>2026-04-05T15:07:17.424Z</time></trkpt><trkpt lat="42.7889775" lon="13.0174698"><ele>504.0</ele><time>2026-04-05T15:07:18.424Z</time></trkpt><trkpt lat="42.7889422" lon="13.0172684"><ele>502.0</ele><time>2026-04-05T15:07:19.424Z</time></trkpt><trkpt lat="42.7889225" lon="13.0170595"><ele>502.0</ele><time>2026-04-05T15:07:20.424Z</time></trkpt><trkpt lat="42.788913" lon="13.0168439"><ele>502.0</ele><time>2026-04-05T15:07:21.424Z</time></trkpt><trkpt lat="42.788923" lon="13.016629"><ele>502.0</ele><time>2026-04-05T15:07:22.423Z</time></trkpt><trkpt lat="42.7889528" lon="13.0164044"><ele>501.0</ele><time>2026-04-05T15:07:23.423Z</time></trkpt><trkpt lat="42.7889961" lon="13.0161793"><ele>500.0</ele><time>2026-04-05T15:07:24.424Z</time></trkpt><trkpt lat="42.7890571" lon="13.0159569"><ele>499.0</ele><time>2026-04-05T15:07:25.424Z</time></trkpt><trkpt lat="42.7891357" lon="13.0157478"><ele>498.33333333333337</ele><time>2026-04-05T15:07:26.424Z</time></trkpt><trkpt lat="42.789215" lon="13.0155528"><ele>497.66666666666663</ele><time>2026-04-05T15:07:27.424Z</time></trkpt><trkpt lat="42.7893215" lon="13.015394"><ele>497.0</ele><time>2026-04-05T15:07:28.424Z</time></trkpt><trkpt lat="42.7894435" lon="13.0152594"><ele>497.0</ele><time>2026-04-05T15:07:29.424Z</time></trkpt><trkpt lat="42.7895762" lon="13.0151399"><ele>497.0</ele><time>2026-04-05T15:07:30.424Z</time></trkpt><trkpt lat="42.7897154" lon="13.0150226"><ele>497.0</ele><time>2026-04-05T15:07:31.423Z</time></trkpt><trkpt lat="42.7898524" lon="13.0149003"><ele>497.3333333333333</ele><time>2026-04-05T15:07:32.423Z</time></trkpt><trkpt lat="42.7899762" lon="13.0147383"><ele>497.66666666666663</ele><time>2026-04-05T15:07:33.424Z</time></trkpt><trkpt lat="42.7901046" lon="13.0145755"><ele>498.0</ele><time>2026-04-05T15:07:34.424Z</time></trkpt><trkpt lat="42.790217" lon="13.0143846"><ele>498.0</ele><time>2026-04-05T15:07:35.424Z</time></trkpt><trkpt lat="42.7903138" lon="13.0141651"><ele>498.0</ele><time>2026-04-05T15:07:36.424Z</time></trkpt><trkpt lat="42.7903835" lon="13.0139231"><ele>498.0</ele><time>2026-04-05T15:07:37.424Z</time></trkpt><trkpt lat="42.7904534" lon="13.0136803"><ele>500.33333333333337</ele><time>2026-04-05T15:07:38.424Z</time></trkpt><trkpt lat="42.7904873" lon="13.0134147"><ele>502.6666666666667</ele><time>2026-04-05T15:07:39.423Z</time></trkpt><trkpt lat="42.7905253" lon="13.0131481"><ele>505.0</ele><time>2026-04-05T15:07:40.423Z</time></trkpt><trkpt lat="42.7905639" lon="13.012881"><ele>506.33333333333337</ele><time>2026-04-05T15:07:41.423Z</time></trkpt><trkpt lat="42.7905979" lon="13.0126088"><ele>507.66666666666663</ele><time>2026-04-05T15:07:42.424Z</time></trkpt><trkpt lat="42.7906375" lon="13.0123328"><ele>509.0</ele><time>2026-04-05T15:07:43.424Z</time></trkpt><trkpt lat="42.7906835" lon="13.0120571"><ele>509.0</ele><time>2026-04-05T15:07:44.424Z</time></trkpt><trkpt lat="42.7907338" lon="13.0117844"><ele>509.0</ele><time>2026-04-05T15:07:45.424Z</time></trkpt><trkpt lat="42.790786" lon="13.0115188"><ele>509.0</ele><time>2026-04-05T15:07:46.423Z</time></trkpt><trkpt lat="42.7908562" lon="13.0112562"><ele>511.66666666666663</ele><time>2026-04-05T15:07:47.424Z</time></trkpt><trkpt lat="42.790934" lon="13.0110055"><ele>514.3333333333334</ele><time>2026-04-05T15:07:48.424Z</time></trkpt><trkpt lat="42.7910199" lon="13.0107616"><ele>517.0</ele><time>2026-04-05T15:07:49.424Z</time></trkpt><trkpt lat="42.7911106" lon="13.0105253"><ele>517.0</ele><time>2026-04-05T15:07:50.424Z</time></trkpt><trkpt lat="42.7912069" lon="13.0102897"><ele>517.0</ele><time>2026-04-05T15:07:51.423Z</time></trkpt><trkpt lat="42.7913085" lon="13.0100511"><ele>517.0</ele><time>2026-04-05T15:07:52.424Z</time></trkpt><trkpt lat="42.7914172" lon="13.0098036"><ele>514.6666666666667</ele><time>2026-04-05T15:07:53.424Z</time></trkpt><trkpt lat="42.7915228" lon="13.0095601"><ele>512.3333333333334</ele><time>2026-04-05T15:07:54.424Z</time></trkpt><trkpt lat="42.7916104" lon="13.0093048"><ele>510.0</ele><time>2026-04-05T15:07:55.424Z</time></trkpt><trkpt lat="42.7916789" lon="13.0090483"><ele>510.0</ele><time>2026-04-05T15:07:56.424Z</time></trkpt><trkpt lat="42.7917305" lon="13.0087961"><ele>510.0</ele><time>2026-04-05T15:07:57.424Z</time></trkpt><trkpt lat="42.7917717" lon="13.0085428"><ele>510.0</ele><time>2026-04-05T15:07:58.424Z</time></trkpt><trkpt lat="42.7917992" lon="13.0082916"><ele>512.0</ele><time>2026-04-05T15:07:59.424Z</time></trkpt><trkpt lat="42.7918208" lon="13.0080406"><ele>514.0</ele><time>2026-04-05T15:08:00.423Z</time></trkpt><trkpt lat="42.7918398" lon="13.0077891"><ele>516.0</ele><time>2026-04-05T15:08:01.424Z</time></trkpt><trkpt lat="42.7918594" lon="13.0075379"><ele>538.6666666666666</ele><time>2026-04-05T15:08:02.423Z</time></trkpt><trkpt lat="42.7918788" lon="13.0072869"><ele>561.3333333333333</ele><time>2026-04-05T15:08:03.423Z</time></trkpt><trkpt lat="42.7918972" lon="13.007036"><ele>584.0</ele><time>2026-04-05T15:08:04.424Z</time></trkpt><trkpt lat="42.7919615" lon="13.0068105"><ele>530.0</ele><time>2026-04-05T15:08:05.424Z</time></trkpt><trkpt lat="42.7922175" lon="13.00353"><ele>531.0</ele><time>2026-04-05T15:08:16.424Z</time></trkpt><trkpt lat="42.7921978" lon="13.0032576"><ele>532.0</ele><time>2026-04-05T15:08:17.423Z</time></trkpt><trkpt lat="42.7921777" lon="13.0029974"><ele>533.0</ele><time>2026-04-05T15:08:18.424Z</time></trkpt><trkpt lat="42.7921449" lon="13.0027299"><ele>544.0</ele><time>2026-04-05T15:08:19.424Z</time></trkpt><trkpt lat="42.7921118" lon="13.0024535"><ele>555.0</ele><time>2026-04-05T15:08:20.424Z</time></trkpt><trkpt lat="42.7920756" lon="13.0021802"><ele>566.0</ele><time>2026-04-05T15:08:21.424Z</time></trkpt><trkpt lat="42.7920411" lon="13.0019052"><ele>584.3333333333333</ele><time>2026-04-05T15:08:22.423Z</time></trkpt><trkpt lat="42.7920119" lon="13.0016456"><ele>602.6666666666666</ele><time>2026-04-05T15:08:23.424Z</time></trkpt><trkpt lat="42.7919777" lon="13.0013832"><ele>621.0</ele><time>2026-04-05T15:08:24.424Z</time></trkpt><trkpt lat="42.7919453" lon="13.0011232"><ele>481.0</ele><time>2026-04-05T15:08:25.423Z</time></trkpt><trkpt lat="42.790982" lon="12.9933245"><ele>481.0</ele><time>2026-04-05T15:08:53.423Z</time></trkpt><trkpt lat="42.7909533" lon="12.9930655"><ele>481.0</ele><time>2026-04-05T15:08:54.423Z</time></trkpt><trkpt lat="42.7909191" lon="12.9928046"><ele>481.0</ele><time>2026-04-05T15:08:55.424Z</time></trkpt><trkpt lat="42.7908891" lon="12.992544"><ele>480.0</ele><time>2026-04-05T15:08:56.424Z</time></trkpt><trkpt lat="42.7908581" lon="12.992278"><ele>479.0</ele><time>2026-04-05T15:08:57.424Z</time></trkpt><trkpt lat="42.7908252" lon="12.9920103"><ele>478.0</ele><time>2026-04-05T15:08:58.423Z</time></trkpt><trkpt lat="42.7907985" lon="12.9917526"><ele>478.33333333333337</ele><time>2026-04-05T15:08:59.424Z</time></trkpt><trkpt lat="42.7907699" lon="12.9914995"><ele>478.66666666666663</ele><time>2026-04-05T15:09:00.424Z</time></trkpt><trkpt lat="42.7907422" lon="12.991261"><ele>479.0</ele><time>2026-04-05T15:09:01.424Z</time></trkpt><trkpt lat="42.7907111" lon="12.9910268"><ele>482.3333333333333</ele><time>2026-04-05T15:09:02.424Z</time></trkpt><trkpt lat="42.790685" lon="12.9908015"><ele>485.66666666666663</ele><time>2026-04-05T15:09:03.424Z</time></trkpt><trkpt lat="42.7906597" lon="12.9905824"><ele>489.0</ele><time>2026-04-05T15:09:04.423Z</time></trkpt><trkpt lat="42.7906327" lon="12.9903591"><ele>489.0</ele><time>2026-04-05T15:09:05.423Z</time></trkpt><trkpt lat="42.790606" lon="12.9901379"><ele>489.0</ele><time>2026-04-05T15:09:06.423Z</time></trkpt><trkpt lat="42.7905779" lon="12.9899146"><ele>489.0</ele><time>2026-04-05T15:09:07.423Z</time></trkpt><trkpt lat="42.7905529" lon="12.9896881"><ele>489.33333333333337</ele><time>2026-04-05T15:09:08.424Z</time></trkpt><trkpt lat="42.7905284" lon="12.9894659"><ele>489.6666666666667</ele><time>2026-04-05T15:09:09.424Z</time></trkpt><trkpt lat="42.7905007" lon="12.9892399"><ele>490.0</ele><time>2026-04-05T15:09:10.424Z</time></trkpt><trkpt lat="42.7904785" lon="12.9890166"><ele>490.0</ele><time>2026-04-05T15:09:11.423Z</time></trkpt><trkpt lat="42.7904565" lon="12.9887922"><ele>490.0</ele><time>2026-04-05T15:09:12.424Z</time></trkpt><trkpt lat="42.7904354" lon="12.9885692"><ele>490.0</ele><time>2026-04-05T15:09:13.423Z</time></trkpt><trkpt lat="42.7904137" lon="12.988347"><ele>488.0</ele><time>2026-04-05T15:09:14.423Z</time></trkpt><trkpt lat="42.7903868" lon="12.9881218"><ele>486.0</ele><time>2026-04-05T15:09:15.424Z</time></trkpt><trkpt lat="42.7903632" lon="12.9878985"><ele>484.0</ele><time>2026-04-05T15:09:16.424Z</time></trkpt><trkpt lat="42.7903348" lon="12.9876867"><ele>488.25</ele><time>2026-04-05T15:09:17.424Z</time></trkpt><trkpt lat="42.7903079" lon="12.9874805"><ele>492.5</ele><time>2026-04-05T15:09:18.423Z</time></trkpt><trkpt lat="42.7902962" lon="12.9872859"><ele>496.75</ele><time>2026-04-05T15:09:19.424Z</time></trkpt><trkpt lat="42.7902973" lon="12.9870878"><ele>501.0</ele><time>2026-04-05T15:09:20.424Z</time></trkpt><trkpt lat="42.7903303" lon="12.9868999"><ele>501.0</ele><time>2026-04-05T15:09:21.424Z</time></trkpt><trkpt lat="42.790373" lon="12.9867075"><ele>501.0</ele><time>2026-04-05T15:09:22.424Z</time></trkpt><trkpt lat="42.7904408" lon="12.9865352"><ele>501.0</ele><time>2026-04-05T15:09:23.424Z</time></trkpt><trkpt lat="42.7905323" lon="12.9863777"><ele>501.0</ele><time>2026-04-05T15:09:24.424Z</time></trkpt><trkpt lat="42.7906364" lon="12.9862303"><ele>501.66666666666663</ele><time>2026-04-05T15:09:25.423Z</time></trkpt><trkpt lat="42.7907374" lon="12.9860745"><ele>502.3333333333333</ele><time>2026-04-05T15:09:26.424Z</time></trkpt><trkpt lat="42.790841" lon="12.9859111"><ele>503.0</ele><time>2026-04-05T15:09:27.424Z</time></trkpt><trkpt lat="42.7909434" lon="12.9857405"><ele>512.6666666666666</ele><time>2026-04-05T15:09:28.423Z</time></trkpt><trkpt lat="42.7910418" lon="12.9855681"><ele>522.3333333333334</ele><time>2026-04-05T15:09:29.424Z</time></trkpt><trkpt lat="42.791121" lon="12.9853892"><ele>532.0</ele><time>2026-04-05T15:09:30.424Z</time></trkpt><trkpt lat="42.7911783" lon="12.9851866"><ele>527.3333333333334</ele><time>2026-04-05T15:09:31.424Z</time></trkpt><trkpt lat="42.791226" lon="12.9849852"><ele>522.6666666666666</ele><time>2026-04-05T15:09:32.423Z</time></trkpt><trkpt lat="42.7912392" lon="12.9847697"><ele>518.0</ele><time>2026-04-05T15:09:33.423Z</time></trkpt><trkpt lat="42.7912293" lon="12.9845652"><ele>518.0</ele><time>2026-04-05T15:09:34.424Z</time></trkpt><trkpt lat="42.7912029" lon="12.9843614"><ele>518.0</ele><time>2026-04-05T15:09:35.423Z</time></trkpt><trkpt lat="42.7911422" lon="12.9841649"><ele>518.0</ele><time>2026-04-05T15:09:36.423Z</time></trkpt><trkpt lat="42.7910646" lon="12.9839752"><ele>508.5</ele><time>2026-04-05T15:09:37.423Z</time></trkpt><trkpt lat="42.7909747" lon="12.983816"><ele>499.0</ele><time>2026-04-05T15:09:38.424Z</time></trkpt><trkpt lat="42.790867" lon="12.9836947"><ele>489.5</ele><time>2026-04-05T15:09:39.424Z</time></trkpt><trkpt lat="42.7907585" lon="12.983599"><ele>480.0</ele><time>2026-04-05T15:09:40.424Z</time></trkpt><trkpt lat="42.790633" lon="12.9835381"><ele>480.0</ele><time>2026-04-05T15:09:41.424Z</time></trkpt><trkpt lat="42.7905158" lon="12.9834881"><ele>480.0</ele><time>2026-04-05T15:09:42.424Z</time></trkpt><trkpt lat="42.7903988" lon="12.9834365"><ele>480.0</ele><time>2026-04-05T15:09:43.424Z</time></trkpt><trkpt lat="42.7903179" lon="12.9833195"><ele>480.0</ele><time>2026-04-05T15:09:44.424Z</time></trkpt><trkpt lat="42.790279" lon="12.9831578"><ele>479.5</ele><time>2026-04-05T15:09:45.424Z</time></trkpt><trkpt lat="42.7902306" lon="12.9830016"><ele>479.0</ele><time>2026-04-05T15:09:46.424Z</time></trkpt><trkpt lat="42.7901968" lon="12.9828203"><ele>478.5</ele><time>2026-04-05T15:09:47.423Z</time></trkpt><trkpt lat="42.7901674" lon="12.9826236"><ele>478.0</ele><time>2026-04-05T15:09:48.424Z</time></trkpt><trkpt lat="42.7901478" lon="12.9824276"><ele>478.0</ele><time>2026-04-05T15:09:49.424Z</time></trkpt><trkpt lat="42.7901329" lon="12.9822285"><ele>478.0</ele><time>2026-04-05T15:09:50.424Z</time></trkpt><trkpt lat="42.790106" lon="12.9820214"><ele>478.0</ele><time>2026-04-05T15:09:51.424Z</time></trkpt><trkpt lat="42.7900796" lon="12.981808"><ele>478.0</ele><time>2026-04-05T15:09:52.424Z</time></trkpt><trkpt lat="42.7900565" lon="12.9815892"><ele>478.0</ele><time>2026-04-05T15:09:53.424Z</time></trkpt><trkpt lat="42.7900228" lon="12.9813722"><ele>478.0</ele><time>2026-04-05T15:09:54.424Z</time></trkpt><trkpt lat="42.7899715" lon="12.9811605"><ele>478.0</ele><time>2026-04-05T15:09:55.424Z</time></trkpt><trkpt lat="42.7899047" lon="12.9809682"><ele>478.0</ele><time>2026-04-05T15:09:56.424Z</time></trkpt><trkpt lat="42.7898237" lon="12.9807834"><ele>478.0</ele><time>2026-04-05T15:09:57.424Z</time></trkpt><trkpt lat="42.789745" lon="12.9806021"><ele>482.0</ele><time>2026-04-05T15:09:58.424Z</time></trkpt><trkpt lat="42.7896789" lon="12.9804088"><ele>486.0</ele><time>2026-04-05T15:09:59.424Z</time></trkpt><trkpt lat="42.7896224" lon="12.9802072"><ele>490.0</ele><time>2026-04-05T15:10:00.424Z</time></trkpt><trkpt lat="42.7895847" lon="12.9799998"><ele>497.33333333333337</ele><time>2026-04-05T15:10:01.424Z</time></trkpt><trkpt lat="42.7895598" lon="12.9797863"><ele>504.66666666666663</ele><time>2026-04-05T15:10:02.424Z</time></trkpt><trkpt lat="42.7895384" lon="12.9795792"><ele>512.0</ele><time>2026-04-05T15:10:03.424Z</time></trkpt><trkpt lat="42.7895193" lon="12.9793648"><ele>514.3333333333333</ele><time>2026-04-05T15:10:04.423Z</time></trkpt><trkpt lat="42.7895008" lon="12.9791435"><ele>516.6666666666666</ele><time>2026-04-05T15:10:05.423Z</time></trkpt><trkpt lat="42.7894791" lon="12.9789296"><ele>519.0</ele><time>2026-04-05T15:10:06.424Z</time></trkpt><trkpt lat="42.7894542" lon="12.9787124"><ele>519.0</ele><time>2026-04-05T15:10:07.424Z</time></trkpt><trkpt lat="42.7894171" lon="12.9785014"><ele>519.0</ele><time>2026-04-05T15:10:08.424Z</time></trkpt><trkpt lat="42.7893728" lon="12.9782997"><ele>519.0</ele><time>2026-04-05T15:10:09.423Z</time></trkpt><trkpt lat="42.7893056" lon="12.9781045"><ele>510.25</ele><time>2026-04-05T15:10:10.424Z</time></trkpt><trkpt lat="42.7892373" lon="12.9779125"><ele>501.5</ele><time>2026-04-05T15:10:11.424Z</time></trkpt><trkpt lat="42.7891769" lon="12.9777273"><ele>492.75</ele><time>2026-04-05T15:10:12.423Z</time></trkpt><trkpt lat="42.7891227" lon="12.9775478"><ele>484.0</ele><time>2026-04-05T15:10:13.423Z</time></trkpt><trkpt lat="42.7890859" lon="12.9773681"><ele>484.0</ele><time>2026-04-05T15:10:14.423Z</time></trkpt><trkpt lat="42.7890774" lon="12.9771764"><ele>484.0</ele><time>2026-04-05T15:10:15.423Z</time></trkpt><trkpt lat="42.7890809" lon="12.9769842"><ele>484.0</ele><time>2026-04-05T15:10:16.424Z</time></trkpt><trkpt lat="42.7891123" lon="12.976781"><ele>484.0</ele><time>2026-04-05T15:10:17.424Z</time></trkpt><trkpt lat="42.7891581" lon="12.9765713"><ele>481.0</ele><time>2026-04-05T15:10:18.424Z</time></trkpt><trkpt lat="42.7892027" lon="12.9763601"><ele>478.0</ele><time>2026-04-05T15:10:19.423Z</time></trkpt><trkpt lat="42.7892493" lon="12.9761478"><ele>475.0</ele><time>2026-04-05T15:10:20.424Z</time></trkpt><trkpt lat="42.7892988" lon="12.9759245"><ele>488.33333333333337</ele><time>2026-04-05T15:10:21.423Z</time></trkpt><trkpt lat="42.7893502" lon="12.9757054"><ele>501.66666666666663</ele><time>2026-04-05T15:10:22.424Z</time></trkpt><trkpt lat="42.7894034" lon="12.9754874"><ele>515.0</ele><time>2026-04-05T15:10:23.423Z</time></trkpt><trkpt lat="42.7894577" lon="12.9752699"><ele>515.0</ele><time>2026-04-05T15:10:24.423Z</time></trkpt><trkpt lat="42.7895048" lon="12.9750692"><ele>515.0</ele><time>2026-04-05T15:10:25.423Z</time></trkpt><trkpt lat="42.789544" lon="12.9748903"><ele>515.0</ele><time>2026-04-05T15:10:26.423Z</time></trkpt><trkpt lat="42.7895699" lon="12.9747311"><ele>515.0</ele><time>2026-04-05T15:10:27.424Z</time></trkpt><trkpt lat="42.7895746" lon="12.9746091"><ele>514.25</ele><time>2026-04-05T15:10:28.424Z</time></trkpt><trkpt lat="42.7895827" lon="12.9744623"><ele>513.5</ele><time>2026-04-05T15:10:29.424Z</time></trkpt><trkpt lat="42.7895863" lon="12.9743042"><ele>512.75</ele><time>2026-04-05T15:10:30.424Z</time></trkpt><trkpt lat="42.7895865" lon="12.9741432"><ele>512.0</ele><time>2026-04-05T15:10:31.424Z</time></trkpt><trkpt lat="42.7895862" lon="12.9739773"><ele>516.0</ele><time>2026-04-05T15:10:32.423Z</time></trkpt><trkpt lat="42.7895833" lon="12.9738146"><ele>520.0</ele><time>2026-04-05T15:10:33.423Z</time></trkpt><trkpt lat="42.7895811" lon="12.9736503"><ele>524.0</ele><time>2026-04-05T15:10:34.424Z</time></trkpt><trkpt lat="42.789582" lon="12.9734431"><ele>528.0</ele><time>2026-04-05T15:10:35.424Z</time></trkpt><trkpt lat="42.7895953" lon="12.9730257"><ele>508.0</ele><time>2026-04-05T15:10:36.424Z</time></trkpt><trkpt lat="42.7896212" lon="12.9723199"><ele>508.0</ele><time>2026-04-05T15:10:37.424Z</time></trkpt><trkpt lat="42.7896182" lon="12.9722242"><ele>507.99999999999994</ele><time>2026-04-05T15:10:39.424Z</time></trkpt><trkpt lat="42.7896676" lon="12.9721156"><ele>507.99999999999994</ele><time>2026-04-05T15:10:40.424Z</time></trkpt><trkpt lat="42.7897427" lon="12.9719715"><ele>508.0</ele><time>2026-04-05T15:10:41.424Z</time></trkpt><trkpt lat="42.7898234" lon="12.9717947"><ele>508.0</ele><time>2026-04-05T15:10:42.424Z</time></trkpt><trkpt lat="42.7899083" lon="12.971622"><ele>511.6666666666667</ele><time>2026-04-05T15:10:43.424Z</time></trkpt><trkpt lat="42.7900066" lon="12.9714503"><ele>515.3333333333334</ele><time>2026-04-05T15:10:44.424Z</time></trkpt><trkpt lat="42.7901131" lon="12.9712919"><ele>519.0</ele><time>2026-04-05T15:10:45.423Z</time></trkpt><trkpt lat="42.7902279" lon="12.9711416"><ele>519.0</ele><time>2026-04-05T15:10:46.424Z</time></trkpt><trkpt lat="42.790347" lon="12.9710039"><ele>519.0</ele><time>2026-04-05T15:10:47.424Z</time></trkpt><trkpt lat="42.7904753" lon="12.9708801"><ele>519.0</ele><time>2026-04-05T15:10:48.424Z</time></trkpt><trkpt lat="42.7906057" lon="12.9707616"><ele>506.33333333333337</ele><time>2026-04-05T15:10:49.424Z</time></trkpt><trkpt lat="42.7907311" lon="12.9706335"><ele>493.6666666666667</ele><time>2026-04-05T15:10:50.424Z</time></trkpt><trkpt lat="42.7908477" lon="12.9704894"><ele>481.0</ele><time>2026-04-05T15:10:51.424Z</time></trkpt><trkpt lat="42.7909589" lon="12.9703312"><ele>486.0</ele><time>2026-04-05T15:10:52.423Z</time></trkpt><trkpt lat="42.7910589" lon="12.970157"><ele>491.0</ele><time>2026-04-05T15:10:53.424Z</time></trkpt><trkpt lat="42.7911498" lon="12.9699722"><ele>496.0</ele><time>2026-04-05T15:10:54.424Z</time></trkpt><trkpt lat="42.7912318" lon="12.9697815"><ele>496.0</ele><time>2026-04-05T15:10:55.423Z</time></trkpt><trkpt lat="42.7913068" lon="12.9695882"><ele>496.0</ele><time>2026-04-05T15:10:56.423Z</time></trkpt><trkpt lat="42.7913721" lon="12.969388"><ele>496.0</ele><time>2026-04-05T15:10:57.424Z</time></trkpt><trkpt lat="42.7914226" lon="12.9691724"><ele>502.0</ele><time>2026-04-05T15:10:58.423Z</time></trkpt><trkpt lat="42.7912218" lon="12.9675095"><ele>502.0</ele><time>2026-04-05T15:11:06.424Z</time></trkpt><trkpt lat="42.791141" lon="12.9673058"><ele>502.0</ele><time>2026-04-05T15:11:07.424Z</time></trkpt><trkpt lat="42.7910972" lon="12.9670657"><ele>502.0</ele><time>2026-04-05T15:11:08.423Z</time></trkpt><trkpt lat="42.7910714" lon="12.9668717"><ele>500.6666666666667</ele><time>2026-04-05T15:11:09.424Z</time></trkpt><trkpt lat="42.7910325" lon="12.9666596"><ele>499.33333333333337</ele><time>2026-04-05T15:11:10.424Z</time></trkpt><trkpt lat="42.7909933" lon="12.9664173"><ele>498.0</ele><time>2026-04-05T15:11:11.423Z</time></trkpt><trkpt lat="42.7909525" lon="12.9661936"><ele>498.0</ele><time>2026-04-05T15:11:12.424Z</time></trkpt><trkpt lat="42.7909052" lon="12.9659741"><ele>498.0</ele><time>2026-04-05T15:11:13.424Z</time></trkpt><trkpt lat="42.7908952" lon="12.9657305"><ele>498.0</ele><time>2026-04-05T15:11:14.424Z</time></trkpt><trkpt lat="42.7908202" lon="12.9654992"><ele>505.0</ele><time>2026-04-05T15:11:15.424Z</time></trkpt><trkpt lat="42.7908069" lon="12.9652542"><ele>512.0</ele><time>2026-04-05T15:11:16.423Z</time></trkpt><trkpt lat="42.7909376" lon="12.965194"><ele>519.0</ele><time>2026-04-05T15:11:17.424Z</time></trkpt><trkpt lat="42.7909775" lon="12.964993"><ele>519.0</ele><time>2026-04-05T15:11:18.423Z</time></trkpt><trkpt lat="42.7909614" lon="12.9647201"><ele>519.0</ele><time>2026-04-05T15:11:19.424Z</time></trkpt><trkpt lat="42.790952" lon="12.9644761"><ele>519.0</ele><time>2026-04-05T15:11:20.423Z</time></trkpt><trkpt lat="42.7909488" lon="12.9641927"><ele>519.0</ele><time>2026-04-05T15:11:21.424Z</time></trkpt><trkpt lat="42.7908927" lon="12.9639612"><ele>519.0</ele><time>2026-04-05T15:11:22.424Z</time></trkpt><trkpt lat="42.7908129" lon="12.9637793"><ele>519.0</ele><time>2026-04-05T15:11:23.423Z</time></trkpt><trkpt lat="42.7907783" lon="12.9635977"><ele>519.0</ele><time>2026-04-05T15:11:24.424Z</time></trkpt><trkpt lat="42.7906619" lon="12.9634143"><ele>519.0</ele><time>2026-04-05T15:11:25.423Z</time></trkpt><trkpt lat="42.7905623" lon="12.963243"><ele>519.0</ele><time>2026-04-05T15:11:26.424Z</time></trkpt><trkpt lat="42.7904672" lon="12.963074"><ele>503.0</ele><time>2026-04-05T15:11:27.424Z</time></trkpt><trkpt lat="42.7904585" lon="12.9628744"><ele>487.0</ele><time>2026-04-05T15:11:28.424Z</time></trkpt><trkpt lat="42.7904853" lon="12.9626617"><ele>471.0</ele><time>2026-04-05T15:11:29.424Z</time></trkpt><trkpt lat="42.790438" lon="12.9624563"><ele>471.0</ele><time>2026-04-05T15:11:30.424Z</time></trkpt><trkpt lat="42.7904281" lon="12.9622876"><ele>471.0</ele><time>2026-04-05T15:11:31.424Z</time></trkpt><trkpt lat="42.7903966" lon="12.9621034"><ele>471.0</ele><time>2026-04-05T15:11:32.424Z</time></trkpt><trkpt lat="42.7904092" lon="12.9619495"><ele>471.0</ele><time>2026-04-05T15:11:33.424Z</time></trkpt><trkpt lat="42.79044" lon="12.9618226"><ele>476.0</ele><time>2026-04-05T15:11:34.424Z</time></trkpt><trkpt lat="42.7904523" lon="12.9616483"><ele>481.0</ele><time>2026-04-05T15:11:35.424Z</time></trkpt><trkpt lat="42.7905048" lon="12.9614904"><ele>486.0</ele><time>2026-04-05T15:11:36.423Z</time></trkpt><trkpt lat="42.7905294" lon="12.9612149"><ele>486.0</ele><time>2026-04-05T15:11:37.424Z</time></trkpt><trkpt lat="42.7905367" lon="12.9610116"><ele>486.0</ele><time>2026-04-05T15:11:38.423Z</time></trkpt><trkpt lat="42.7909951" lon="12.9605244"><ele>472.0</ele><time>2026-04-05T15:11:39.424Z</time></trkpt><trkpt lat="42.7910251" lon="12.9602205"><ele>458.0</ele><time>2026-04-05T15:11:40.424Z</time></trkpt><trkpt lat="42.7909787" lon="12.9599184"><ele>458.0</ele><time>2026-04-05T15:11:41.424Z</time></trkpt><trkpt lat="42.7909815" lon="12.9597488"><ele>458.0</ele><time>2026-04-05T15:11:42.424Z</time></trkpt><trkpt lat="42.7909744" lon="12.9595942"><ele>458.0</ele><time>2026-04-05T15:11:43.424Z</time></trkpt><trkpt lat="42.7909713" lon="12.9594527"><ele>458.0</ele><time>2026-04-05T15:11:44.424Z</time></trkpt><trkpt lat="42.791005" lon="12.9593106"><ele>462.0</ele><time>2026-04-05T15:11:45.424Z</time></trkpt><trkpt lat="42.7910636" lon="12.9591902"><ele>466.0</ele><time>2026-04-05T15:11:46.424Z</time></trkpt><trkpt lat="42.7911446" lon="12.9590813"><ele>470.0</ele><time>2026-04-05T15:11:47.424Z</time></trkpt><trkpt lat="42.7912417" lon="12.9589694"><ele>474.0</ele><time>2026-04-05T15:11:48.424Z</time></trkpt><trkpt lat="42.7913549" lon="12.9588525"><ele>474.0</ele><time>2026-04-05T15:11:49.424Z</time></trkpt><trkpt lat="42.7914768" lon="12.9587226"><ele>474.0</ele><time>2026-04-05T15:11:50.424Z</time></trkpt><trkpt lat="42.7916089" lon="12.9585947"><ele>474.0</ele><time>2026-04-05T15:11:51.424Z</time></trkpt><trkpt lat="42.7917392" lon="12.9584697"><ele>470.0</ele><time>2026-04-05T15:11:52.423Z</time></trkpt><trkpt lat="42.7918775" lon="12.9583544"><ele>466.0</ele><time>2026-04-05T15:11:53.424Z</time></trkpt><trkpt lat="42.7920329" lon="12.9582657"><ele>462.0</ele><time>2026-04-05T15:11:54.424Z</time></trkpt><trkpt lat="42.7922024" lon="12.9581862"><ele>462.0</ele><time>2026-04-05T15:11:55.424Z</time></trkpt><trkpt lat="42.7923827" lon="12.9581124"><ele>462.0</ele><time>2026-04-05T15:11:56.424Z</time></trkpt><trkpt lat="42.7925687" lon="12.9580339"><ele>462.0</ele><time>2026-04-05T15:11:57.424Z</time></trkpt><trkpt lat="42.7927318" lon="12.9579179"><ele>459.66666666666663</ele><time>2026-04-05T15:11:58.424Z</time></trkpt><trkpt lat="42.7928898" lon="12.9577878"><ele>457.3333333333333</ele><time>2026-04-05T15:11:59.424Z</time></trkpt><trkpt lat="42.793053" lon="12.957644"><ele>455.0</ele><time>2026-04-05T15:12:00.424Z</time></trkpt><trkpt lat="42.7932078" lon="12.9574817"><ele>455.0</ele><time>2026-04-05T15:12:01.424Z</time></trkpt><trkpt lat="42.7933586" lon="12.9573129"><ele>455.0</ele><time>2026-04-05T15:12:02.424Z</time></trkpt><trkpt lat="42.7935051" lon="12.9571348"><ele>455.0</ele><time>2026-04-05T15:12:03.424Z</time></trkpt><trkpt lat="42.7936558" lon="12.9569657"><ele>456.0</ele><time>2026-04-05T15:12:04.424Z</time></trkpt><trkpt lat="42.7937992" lon="12.9567875"><ele>457.0</ele><time>2026-04-05T15:12:05.424Z</time></trkpt><trkpt lat="42.7939427" lon="12.9566139"><ele>458.0</ele><time>2026-04-05T15:12:06.424Z</time></trkpt><trkpt lat="42.794088" lon="12.9564486"><ele>458.0</ele><time>2026-04-05T15:12:07.424Z</time></trkpt><trkpt lat="42.7942308" lon="12.9562879"><ele>458.0</ele><time>2026-04-05T15:12:08.424Z</time></trkpt><trkpt lat="42.7943721" lon="12.956128"><ele>458.0</ele><time>2026-04-05T15:12:09.424Z</time></trkpt><trkpt lat="42.7945158" lon="12.9559759"><ele>456.0</ele><time>2026-04-05T15:12:10.424Z</time></trkpt><trkpt lat="42.7946611" lon="12.9558325"><ele>454.0</ele><time>2026-04-05T15:12:11.424Z</time></trkpt><trkpt lat="42.794821" lon="12.9557109"><ele>452.0</ele><time>2026-04-05T15:12:12.424Z</time></trkpt><trkpt lat="42.7949764" lon="12.9555934"><ele>452.0</ele><time>2026-04-05T15:12:13.424Z</time></trkpt><trkpt lat="42.7951313" lon="12.9554806"><ele>452.0</ele><time>2026-04-05T15:12:14.424Z</time></trkpt><trkpt lat="42.7952824" lon="12.9553843"><ele>452.0</ele><time>2026-04-05T15:12:15.424Z</time></trkpt><trkpt lat="42.7954311" lon="12.955305"><ele>449.3333333333333</ele><time>2026-04-05T15:12:16.424Z</time></trkpt><trkpt lat="42.7955668" lon="12.9552058"><ele>446.66666666666663</ele><time>2026-04-05T15:12:17.424Z</time></trkpt><trkpt lat="42.7957067" lon="12.9551161"><ele>444.0</ele><time>2026-04-05T15:12:18.424Z</time></trkpt><trkpt lat="42.795847" lon="12.9550325"><ele>444.0</ele><time>2026-04-05T15:12:19.424Z</time></trkpt><trkpt lat="42.7959834" lon="12.9549481"><ele>444.0</ele><time>2026-04-05T15:12:20.424Z</time></trkpt><trkpt lat="42.7961167" lon="12.9548624"><ele>444.0</ele><time>2026-04-05T15:12:21.424Z</time></trkpt><trkpt lat="42.7962505" lon="12.9547816"><ele>444.0</ele><time>2026-04-05T15:12:22.423Z</time></trkpt><trkpt lat="42.7963763" lon="12.954702"><ele>448.25</ele><time>2026-04-05T15:12:23.424Z</time></trkpt><trkpt lat="42.7965043" lon="12.9546186"><ele>452.5</ele><time>2026-04-05T15:12:24.424Z</time></trkpt><trkpt lat="42.7966299" lon="12.9545378"><ele>456.75</ele><time>2026-04-05T15:12:25.424Z</time></trkpt><trkpt lat="42.7967569" lon="12.9544501"><ele>461.0</ele><time>2026-04-05T15:12:26.423Z</time></trkpt><trkpt lat="42.7968747" lon="12.954341"><ele>461.25</ele><time>2026-04-05T15:12:27.424Z</time></trkpt><trkpt lat="42.796997" lon="12.9542396"><ele>461.5</ele><time>2026-04-05T15:12:28.424Z</time></trkpt><trkpt lat="42.7971206" lon="12.9541314"><ele>461.75</ele><time>2026-04-05T15:12:29.424Z</time></trkpt><trkpt lat="42.7972613" lon="12.9540527"><ele>462.0</ele><time>2026-04-05T15:12:30.424Z</time></trkpt><trkpt lat="42.7973969" lon="12.9539803"><ele>462.0</ele><time>2026-04-05T15:12:31.424Z</time></trkpt><trkpt lat="42.7975466" lon="12.9539153"><ele>462.0</ele><time>2026-04-05T15:12:32.424Z</time></trkpt><trkpt lat="42.7977104" lon="12.9538875"><ele>462.0</ele><time>2026-04-05T15:12:33.424Z</time></trkpt><trkpt lat="42.7978726" lon="12.9538713"><ele>468.33333333333337</ele><time>2026-04-05T15:12:34.424Z</time></trkpt><trkpt lat="42.79804" lon="12.9538688"><ele>474.6666666666667</ele><time>2026-04-05T15:12:35.424Z</time></trkpt><trkpt lat="42.7982146" lon="12.9538468"><ele>481.0</ele><time>2026-04-05T15:12:36.424Z</time></trkpt><trkpt lat="42.7983766" lon="12.9538206"><ele>485.6666666666667</ele><time>2026-04-05T15:12:37.424Z</time></trkpt><trkpt lat="42.7985483" lon="12.953785"><ele>490.33333333333337</ele><time>2026-04-05T15:12:38.424Z</time></trkpt><trkpt lat="42.7987184" lon="12.9537418"><ele>495.0</ele><time>2026-04-05T15:12:39.424Z</time></trkpt><trkpt lat="42.7988867" lon="12.9536943"><ele>495.0</ele><time>2026-04-05T15:12:40.424Z</time></trkpt><trkpt lat="42.7990546" lon="12.9536414"><ele>495.0</ele><time>2026-04-05T15:12:41.424Z</time></trkpt><trkpt lat="42.799216" lon="12.9535875"><ele>495.0</ele><time>2026-04-05T15:12:42.424Z</time></trkpt><trkpt lat="42.7993688" lon="12.9535328"><ele>497.75</ele><time>2026-04-05T15:12:43.424Z</time></trkpt><trkpt lat="42.7995227" lon="12.9534879"><ele>500.5</ele><time>2026-04-05T15:12:44.424Z</time></trkpt><trkpt lat="42.7996599" lon="12.9534438"><ele>503.25</ele><time>2026-04-05T15:12:45.423Z</time></trkpt><trkpt lat="42.7997871" lon="12.9533988"><ele>506.0</ele><time>2026-04-05T15:12:46.423Z</time></trkpt><trkpt lat="42.7999163" lon="12.9533733"><ele>511.75</ele><time>2026-04-05T15:12:47.424Z</time></trkpt><trkpt lat="42.8000521" lon="12.9533656"><ele>517.5</ele><time>2026-04-05T15:12:48.423Z</time></trkpt><trkpt lat="42.800193" lon="12.9533736"><ele>523.25</ele><time>2026-04-05T15:12:49.424Z</time></trkpt><trkpt lat="42.8003201" lon="12.953377"><ele>529.0</ele><time>2026-04-05T15:12:50.424Z</time></trkpt><trkpt lat="42.800451" lon="12.9533473"><ele>511.5</ele><time>2026-04-05T15:12:51.423Z</time></trkpt><trkpt lat="42.8005821" lon="12.9533064"><ele>494.0</ele><time>2026-04-05T15:12:52.423Z</time></trkpt><trkpt lat="42.8007077" lon="12.9532427"><ele>476.5</ele><time>2026-04-05T15:12:53.424Z</time></trkpt><trkpt lat="42.8008319" lon="12.9531715"><ele>459.0</ele><time>2026-04-05T15:12:54.424Z</time></trkpt><trkpt lat="42.8009545" lon="12.9530968"><ele>468.75</ele><time>2026-04-05T15:12:55.424Z</time></trkpt><trkpt lat="42.8010744" lon="12.9530202"><ele>478.5</ele><time>2026-04-05T15:12:56.424Z</time></trkpt><trkpt lat="42.801187" lon="12.9529323"><ele>488.25</ele><time>2026-04-05T15:12:57.424Z</time></trkpt><trkpt lat="42.8013079" lon="12.9528516"><ele>498.0</ele><time>2026-04-05T15:12:58.423Z</time></trkpt><trkpt lat="42.8014312" lon="12.9527616"><ele>498.0</ele><time>2026-04-05T15:12:59.424Z</time></trkpt><trkpt lat="42.8015439" lon="12.9526576"><ele>498.0</ele><time>2026-04-05T15:13:00.424Z</time></trkpt><trkpt lat="42.8016551" lon="12.9525483"><ele>498.0</ele><time>2026-04-05T15:13:01.424Z</time></trkpt><trkpt lat="42.801765" lon="12.9524375"><ele>498.0</ele><time>2026-04-05T15:13:02.424Z</time></trkpt><trkpt lat="42.802876" lon="12.95089"><ele>487.5</ele><time>2026-04-05T15:13:14.423Z</time></trkpt><trkpt lat="42.8029765" lon="12.9507666"><ele>477.0</ele><time>2026-04-05T15:13:15.424Z</time></trkpt><trkpt lat="42.803079" lon="12.9506526"><ele>466.5</ele><time>2026-04-05T15:13:16.424Z</time></trkpt><trkpt lat="42.8031785" lon="12.9505666"><ele>456.0</ele><time>2026-04-05T15:13:17.424Z</time></trkpt><trkpt lat="42.8032671" lon="12.9504678"><ele>456.0</ele><time>2026-04-05T15:13:18.424Z</time></trkpt><trkpt lat="42.8033509" lon="12.9503887"><ele>456.0</ele><time>2026-04-05T15:13:19.424Z</time></trkpt><trkpt lat="42.8034284" lon="12.9503088"><ele>456.0</ele><time>2026-04-05T15:13:20.424Z</time></trkpt><trkpt lat="42.8035126" lon="12.9502339"><ele>456.0</ele><time>2026-04-05T15:13:21.424Z</time></trkpt><trkpt lat="42.8036036" lon="12.9501667"><ele>456.0</ele><time>2026-04-05T15:13:22.424Z</time></trkpt><trkpt lat="42.8037011" lon="12.9501037"><ele>453.0</ele><time>2026-04-05T15:13:23.423Z</time></trkpt><trkpt lat="42.8038077" lon="12.9500529"><ele>450.0</ele><time>2026-04-05T15:13:24.423Z</time></trkpt><trkpt lat="42.8039252" lon="12.9500119"><ele>447.0</ele><time>2026-04-05T15:13:25.424Z</time></trkpt><trkpt lat="42.8040508" lon="12.949979"><ele>444.0</ele><time>2026-04-05T15:13:26.423Z</time></trkpt><trkpt lat="42.8041836" lon="12.9499533"><ele>444.0</ele><time>2026-04-05T15:13:27.424Z</time></trkpt><trkpt lat="42.8043182" lon="12.9499378"><ele>444.0</ele><time>2026-04-05T15:13:28.424Z</time></trkpt><trkpt lat="42.8044519" lon="12.9499355"><ele>444.0</ele><time>2026-04-05T15:13:29.424Z</time></trkpt><trkpt lat="42.804588" lon="12.9499409"><ele>444.0</ele><time>2026-04-05T15:13:30.424Z</time></trkpt><trkpt lat="42.8047255" lon="12.9499462"><ele>445.25</ele><time>2026-04-05T15:13:31.424Z</time></trkpt><trkpt lat="42.8048644" lon="12.9499306"><ele>446.5</ele><time>2026-04-05T15:13:32.423Z</time></trkpt><trkpt lat="42.8050072" lon="12.9498912"><ele>447.75</ele><time>2026-04-05T15:13:33.423Z</time></trkpt><trkpt lat="42.8051313" lon="12.9498254"><ele>449.0</ele><time>2026-04-05T15:13:34.424Z</time></trkpt><trkpt lat="42.8052487" lon="12.9497564"><ele>455.5</ele><time>2026-04-05T15:13:35.424Z</time></trkpt><trkpt lat="42.8053526" lon="12.9496769"><ele>462.0</ele><time>2026-04-05T15:13:36.424Z</time></trkpt><trkpt lat="42.8054635" lon="12.9496026"><ele>468.5</ele><time>2026-04-05T15:13:37.424Z</time></trkpt><trkpt lat="42.8055761" lon="12.9495231"><ele>475.0</ele><time>2026-04-05T15:13:38.424Z</time></trkpt><trkpt lat="42.8056941" lon="12.949442"><ele>475.0</ele><time>2026-04-05T15:13:39.423Z</time></trkpt><trkpt lat="42.8058169" lon="12.9493621"><ele>475.0</ele><time>2026-04-05T15:13:40.423Z</time></trkpt><trkpt lat="42.8059485" lon="12.9492879"><ele>475.0</ele><time>2026-04-05T15:13:41.424Z</time></trkpt><trkpt lat="42.806087" lon="12.9492187"><ele>475.0</ele><time>2026-04-05T15:13:42.423Z</time></trkpt><trkpt lat="42.8062239" lon="12.9491496"><ele>470.0</ele><time>2026-04-05T15:13:43.423Z</time></trkpt><trkpt lat="42.8063624" lon="12.9490885"><ele>465.0</ele><time>2026-04-05T15:13:44.423Z</time></trkpt><trkpt lat="42.8064979" lon="12.9490175"><ele>460.0</ele><time>2026-04-05T15:13:45.423Z</time></trkpt><trkpt lat="42.8066329" lon="12.9489488"><ele>455.0</ele><time>2026-04-05T15:13:46.424Z</time></trkpt><trkpt lat="42.8067739" lon="12.9488791"><ele>464.66666666666663</ele><time>2026-04-05T15:13:47.424Z</time></trkpt><trkpt lat="42.8069152" lon="12.9488039"><ele>474.33333333333337</ele><time>2026-04-05T15:13:48.424Z</time></trkpt><trkpt lat="42.8070582" lon="12.9487324"><ele>484.0</ele><time>2026-04-05T15:13:49.424Z</time></trkpt><trkpt lat="42.8072062" lon="12.9486605"><ele>484.0</ele><time>2026-04-05T15:13:50.424Z</time></trkpt><trkpt lat="42.8073505" lon="12.9485859"><ele>484.0</ele><time>2026-04-05T15:13:51.424Z</time></trkpt><trkpt lat="42.8075011" lon="12.9485243"><ele>484.0</ele><time>2026-04-05T15:13:52.423Z</time></trkpt><trkpt lat="42.8076526" lon="12.9484551"><ele>475.33333333333337</ele><time>2026-04-05T15:13:53.424Z</time></trkpt><trkpt lat="42.8077985" lon="12.9483751"><ele>466.66666666666663</ele><time>2026-04-05T15:13:54.424Z</time></trkpt><trkpt lat="42.8079398" lon="12.9483046"><ele>458.0</ele><time>2026-04-05T15:13:55.424Z</time></trkpt><trkpt lat="42.8080815" lon="12.9482361"><ele>458.0</ele><time>2026-04-05T15:13:56.424Z</time></trkpt><trkpt lat="42.8082151" lon="12.9481675"><ele>458.0</ele><time>2026-04-05T15:13:57.424Z</time></trkpt><trkpt lat="42.8083507" lon="12.9480868"><ele>458.0</ele><time>2026-04-05T15:13:58.424Z</time></trkpt><trkpt lat="42.8084924" lon="12.9480087"><ele>458.0</ele><time>2026-04-05T15:13:59.423Z</time></trkpt><trkpt lat="42.8086342" lon="12.9479368"><ele>468.75</ele><time>2026-04-05T15:14:00.423Z</time></trkpt><trkpt lat="42.808771" lon="12.9478627"><ele>479.5</ele><time>2026-04-05T15:14:01.424Z</time></trkpt><trkpt lat="42.8089087" lon="12.947789"><ele>490.25</ele><time>2026-04-05T15:14:02.424Z</time></trkpt><trkpt lat="42.809043" lon="12.9477113"><ele>501.0</ele><time>2026-04-05T15:14:03.424Z</time></trkpt><trkpt lat="42.8091623" lon="12.9476084"><ele>492.33333333333337</ele><time>2026-04-05T15:14:04.423Z</time></trkpt><trkpt lat="42.8092898" lon="12.947513"><ele>483.6666666666667</ele><time>2026-04-05T15:14:05.424Z</time></trkpt><trkpt lat="42.8094203" lon="12.9473963"><ele>475.0</ele><time>2026-04-05T15:14:06.423Z</time></trkpt><trkpt lat="42.8095398" lon="12.947272"><ele>475.0</ele><time>2026-04-05T15:14:07.424Z</time></trkpt><trkpt lat="42.8096588" lon="12.9471472"><ele>475.0</ele><time>2026-04-05T15:14:08.424Z</time></trkpt><trkpt lat="42.8097756" lon="12.947019"><ele>475.0</ele><time>2026-04-05T15:14:09.424Z</time></trkpt><trkpt lat="42.8098917" lon="12.9468895"><ele>454.0</ele><time>2026-04-05T15:14:10.424Z</time></trkpt><trkpt lat="42.8104326" lon="12.946259"><ele>454.0</ele><time>2026-04-05T15:14:15.423Z</time></trkpt><trkpt lat="42.8105455" lon="12.9461044"><ele>454.0</ele><time>2026-04-05T15:14:16.424Z</time></trkpt><trkpt lat="42.8106713" lon="12.9459535"><ele>454.0</ele><time>2026-04-05T15:14:17.424Z</time></trkpt><trkpt lat="42.8107986" lon="12.9458011"><ele>446.33333333333337</ele><time>2026-04-05T15:14:18.423Z</time></trkpt><trkpt lat="42.8109269" lon="12.9456458"><ele>438.66666666666663</ele><time>2026-04-05T15:14:19.423Z</time></trkpt><trkpt lat="42.8110594" lon="12.9454892"><ele>431.0</ele><time>2026-04-05T15:14:20.424Z</time></trkpt><trkpt lat="42.8111946" lon="12.9453343"><ele>431.0</ele><time>2026-04-05T15:14:21.424Z</time></trkpt><trkpt lat="42.8113327" lon="12.9451781"><ele>431.0</ele><time>2026-04-05T15:14:22.424Z</time></trkpt><trkpt lat="42.8114705" lon="12.9450213"><ele>431.0</ele><time>2026-04-05T15:14:23.423Z</time></trkpt><trkpt lat="42.8116046" lon="12.9448627"><ele>433.66666666666663</ele><time>2026-04-05T15:14:24.424Z</time></trkpt><trkpt lat="42.8117382" lon="12.9447045"><ele>436.33333333333337</ele><time>2026-04-05T15:14:25.424Z</time></trkpt><trkpt lat="42.8118716" lon="12.9445477"><ele>439.0</ele><time>2026-04-05T15:14:26.424Z</time></trkpt><trkpt lat="42.8200925" lon="12.9350167"><ele>423.0</ele><time>2026-04-05T15:15:32.423Z</time></trkpt><trkpt lat="42.8202248" lon="12.9348905"><ele>407.0</ele><time>2026-04-05T15:15:33.424Z</time></trkpt><trkpt lat="42.8203379" lon="12.9347482"><ele>391.0</ele><time>2026-04-05T15:15:34.424Z</time></trkpt><trkpt lat="42.8204521" lon="12.934599"><ele>391.0</ele><time>2026-04-05T15:15:35.423Z</time></trkpt><trkpt lat="42.8205558" lon="12.9344392"><ele>391.0</ele><time>2026-04-05T15:15:36.423Z</time></trkpt><trkpt lat="42.8206581" lon="12.9342688"><ele>391.0</ele><time>2026-04-05T15:15:37.424Z</time></trkpt><trkpt lat="42.8207529" lon="12.9340938"><ele>384.6666666666667</ele><time>2026-04-05T15:15:38.424Z</time></trkpt><trkpt lat="42.8208427" lon="12.9339115"><ele>378.33333333333337</ele><time>2026-04-05T15:15:39.423Z</time></trkpt><trkpt lat="42.8209258" lon="12.9337299"><ele>372.0</ele><time>2026-04-05T15:15:40.424Z</time></trkpt><trkpt lat="42.8209998" lon="12.9335447"><ele>369.0</ele><time>2026-04-05T15:15:41.424Z</time></trkpt><trkpt lat="42.8210677" lon="12.9333506"><ele>366.0</ele><time>2026-04-05T15:15:42.423Z</time></trkpt><trkpt lat="42.8211309" lon="12.9331564"><ele>363.0</ele><time>2026-04-05T15:15:43.424Z</time></trkpt><trkpt lat="42.8211894" lon="12.9329571"><ele>363.0</ele><time>2026-04-05T15:15:44.424Z</time></trkpt><trkpt lat="42.8212378" lon="12.9327574"><ele>363.0</ele><time>2026-04-05T15:15:45.424Z</time></trkpt><trkpt lat="42.8212802" lon="12.932554"><ele>363.0</ele><time>2026-04-05T15:15:46.424Z</time></trkpt><trkpt lat="42.821314" lon="12.9323564"><ele>365.75</ele><time>2026-04-05T15:15:47.424Z</time></trkpt><trkpt lat="42.8213381" lon="12.9321594"><ele>368.5</ele><time>2026-04-05T15:15:48.424Z</time></trkpt><trkpt lat="42.8213621" lon="12.9319687"><ele>371.25</ele><time>2026-04-05T15:15:49.424Z</time></trkpt><trkpt lat="42.8213805" lon="12.9317836"><ele>374.0</ele><time>2026-04-05T15:15:50.424Z</time></trkpt><trkpt lat="42.821393" lon="12.9316057"><ele>376.79999999999995</ele><time>2026-04-05T15:15:51.424Z</time></trkpt><trkpt lat="42.8214072" lon="12.93144"><ele>379.59999999999997</ele><time>2026-04-05T15:15:52.424Z</time></trkpt><trkpt lat="42.8214203" lon="12.9313046"><ele>382.4</ele><time>2026-04-05T15:15:53.423Z</time></trkpt><trkpt lat="42.821444" lon="12.9311844"><ele>385.2</ele><time>2026-04-05T15:15:54.424Z</time></trkpt><trkpt lat="42.8214715" lon="12.9310717"><ele>388.0</ele><time>2026-04-05T15:15:55.424Z</time></trkpt><trkpt lat="42.8215005" lon="12.9309655"><ele>389.33333333333337</ele><time>2026-04-05T15:15:56.424Z</time></trkpt><trkpt lat="42.8215363" lon="12.9308862"><ele>390.6666666666667</ele><time>2026-04-05T15:15:57.424Z</time></trkpt><trkpt lat="42.8216015" lon="12.9307496"><ele>392.0</ele><time>2026-04-05T15:15:59.424Z</time></trkpt><trkpt lat="42.8216352" lon="12.9306529"><ele>393.33333333333337</ele><time>2026-04-05T15:16:01.423Z</time></trkpt><trkpt lat="42.8216571" lon="12.9305506"><ele>394.6666666666667</ele><time>2026-04-05T15:16:04.424Z</time></trkpt><trkpt lat="42.8216304" lon="12.9304433"><ele>396.0</ele><time>2026-04-05T15:16:06.423Z</time></trkpt><trkpt lat="42.8215936" lon="12.930371"><ele>396.0</ele><time>2026-04-05T15:16:07.424Z</time></trkpt><trkpt lat="42.8215461" lon="12.9302925"><ele>396.0</ele><time>2026-04-05T15:16:08.424Z</time></trkpt><trkpt lat="42.821497" lon="12.9302119"><ele>396.0</ele><time>2026-04-05T15:16:09.424Z</time></trkpt><trkpt lat="42.821454" lon="12.9301155"><ele>396.0</ele><time>2026-04-05T15:16:10.423Z</time></trkpt><trkpt lat="42.821412" lon="12.9300105"><ele>396.0</ele><time>2026-04-05T15:16:11.424Z</time></trkpt><trkpt lat="42.8213756" lon="12.9298974"><ele>396.0</ele><time>2026-04-05T15:16:12.424Z</time></trkpt><trkpt lat="42.8213476" lon="12.9297703"><ele>396.6</ele><time>2026-04-05T15:16:13.424Z</time></trkpt><trkpt lat="42.8213302" lon="12.9296316"><ele>397.20000000000005</ele><time>2026-04-05T15:16:14.424Z</time></trkpt><trkpt lat="42.8213207" lon="12.9294948"><ele>397.79999999999995</ele><time>2026-04-05T15:16:15.424Z</time></trkpt><trkpt lat="42.8213083" lon="12.9293629"><ele>398.4</ele><time>2026-04-05T15:16:16.424Z</time></trkpt><trkpt lat="42.821301" lon="12.9292411"><ele>399.0</ele><time>2026-04-05T15:16:17.423Z</time></trkpt><trkpt lat="42.8212924" lon="12.9291222"><ele>399.0</ele><time>2026-04-05T15:16:18.424Z</time></trkpt><trkpt lat="42.8212886" lon="12.929018"><ele>399.0</ele><time>2026-04-05T15:16:19.423Z</time></trkpt><trkpt lat="42.8212821" lon="12.9289205"><ele>399.0</ele><time>2026-04-05T15:16:20.423Z</time></trkpt><trkpt lat="42.8212812" lon="12.9288314"><ele>399.0</ele><time>2026-04-05T15:16:21.424Z</time></trkpt><trkpt lat="42.8212681" lon="12.9286638"><ele>399.0</ele><time>2026-04-05T15:16:23.424Z</time></trkpt><trkpt lat="42.8212856" lon="12.9285367"><ele>399.0</ele><time>2026-04-05T15:16:25.424Z</time></trkpt><trkpt lat="42.8213182" lon="12.9284314"><ele>399.0</ele><time>2026-04-05T15:16:28.424Z</time></trkpt><trkpt lat="42.8212558" lon="12.928396"><ele>399.0</ele><time>2026-04-05T15:16:35.424Z</time></trkpt><trkpt lat="42.8212167" lon="12.9284735"><ele>399.0</ele><time>2026-04-05T15:16:37.424Z</time></trkpt><trkpt lat="42.8212198" lon="12.9286488"><ele>399.0</ele><time>2026-04-05T15:16:39.424Z</time></trkpt><trkpt lat="42.8212227" lon="12.9287619"><ele>399.0</ele><time>2026-04-05T15:16:40.424Z</time></trkpt><trkpt lat="42.8212285" lon="12.9288787"><ele>399.0</ele><time>2026-04-05T15:16:41.424Z</time></trkpt><trkpt lat="42.8212381" lon="12.9290167"><ele>399.0</ele><time>2026-04-05T15:16:42.424Z</time></trkpt><trkpt lat="42.8212469" lon="12.9291712"><ele>399.0</ele><time>2026-04-05T15:16:43.424Z</time></trkpt><trkpt lat="42.8212577" lon="12.9293213"><ele>399.0</ele><time>2026-04-05T15:16:44.424Z</time></trkpt><trkpt lat="42.8212689" lon="12.9294829"><ele>399.0</ele><time>2026-04-05T15:16:45.424Z</time></trkpt><trkpt lat="42.8212852" lon="12.9296489"><ele>399.5</ele><time>2026-04-05T15:16:46.424Z</time></trkpt><trkpt lat="42.82131" lon="12.9298189"><ele>400.0</ele><time>2026-04-05T15:16:47.424Z</time></trkpt><trkpt lat="42.8213457" lon="12.9299795"><ele>400.5</ele><time>2026-04-05T15:16:48.424Z</time></trkpt><trkpt lat="42.8213878" lon="12.9301428"><ele>401.0</ele><time>2026-04-05T15:16:49.424Z</time></trkpt><trkpt lat="42.821463" lon="12.9302879"><ele>400.0</ele><time>2026-04-05T15:16:50.423Z</time></trkpt><trkpt lat="42.8215492" lon="12.9304121"><ele>399.0</ele><time>2026-04-05T15:16:51.424Z</time></trkpt><trkpt lat="42.8216459" lon="12.9305126"><ele>398.0</ele><time>2026-04-05T15:16:52.424Z</time></trkpt><trkpt lat="42.821751" lon="12.9305989"><ele>397.0</ele><time>2026-04-05T15:16:53.423Z</time></trkpt><trkpt lat="42.8218697" lon="12.930654"><ele>397.0</ele><time>2026-04-05T15:16:54.424Z</time></trkpt><trkpt lat="42.8220032" lon="12.9306831"><ele>397.0</ele><time>2026-04-05T15:16:55.424Z</time></trkpt><trkpt lat="42.8221365" lon="12.9306866"><ele>397.0</ele><time>2026-04-05T15:16:56.424Z</time></trkpt><trkpt lat="42.8222738" lon="12.9306613"><ele>397.0</ele><time>2026-04-05T15:16:57.424Z</time></trkpt><trkpt lat="42.82242" lon="12.9306217"><ele>397.0</ele><time>2026-04-05T15:16:58.424Z</time></trkpt><trkpt lat="42.8225725" lon="12.9305896"><ele>397.0</ele><time>2026-04-05T15:16:59.424Z</time></trkpt><trkpt lat="42.8227441" lon="12.9305616"><ele>397.0</ele><time>2026-04-05T15:17:00.423Z</time></trkpt><trkpt lat="42.8229081" lon="12.9305314"><ele>394.6666666666667</ele><time>2026-04-05T15:17:01.423Z</time></trkpt><trkpt lat="42.8230747" lon="12.9305115"><ele>392.33333333333337</ele><time>2026-04-05T15:17:02.423Z</time></trkpt><trkpt lat="42.8232317" lon="12.9304827"><ele>390.0</ele><time>2026-04-05T15:17:03.424Z</time></trkpt><trkpt lat="42.8233877" lon="12.9304294"><ele>385.3333333333333</ele><time>2026-04-05T15:17:04.424Z</time></trkpt><trkpt lat="42.8235344" lon="12.9303672"><ele>380.66666666666663</ele><time>2026-04-05T15:17:05.424Z</time></trkpt><trkpt lat="42.8236726" lon="12.9302796"><ele>376.0</ele><time>2026-04-05T15:17:06.424Z</time></trkpt><trkpt lat="42.8238035" lon="12.9301706"><ele>384.0</ele><time>2026-04-05T15:17:07.424Z</time></trkpt><trkpt lat="42.8239437" lon="12.930026"><ele>392.0</ele><time>2026-04-05T15:17:08.423Z</time></trkpt><trkpt lat="42.824074" lon="12.9298986"><ele>400.0</ele><time>2026-04-05T15:17:09.424Z</time></trkpt><trkpt lat="42.8241977" lon="12.929767"><ele>400.0</ele><time>2026-04-05T15:17:10.424Z</time></trkpt><trkpt lat="42.824312" lon="12.9296511"><ele>400.0</ele><time>2026-04-05T15:17:11.424Z</time></trkpt><trkpt lat="42.8244365" lon="12.9295547"><ele>400.0</ele><time>2026-04-05T15:17:12.424Z</time></trkpt><trkpt lat="42.8245659" lon="12.9294841"><ele>400.0</ele><time>2026-04-05T15:17:13.424Z</time></trkpt><trkpt lat="42.8247078" lon="12.9294375"><ele>397.33333333333337</ele><time>2026-04-05T15:17:14.424Z</time></trkpt><trkpt lat="42.8248589" lon="12.9294109"><ele>394.66666666666663</ele><time>2026-04-05T15:17:15.424Z</time></trkpt><trkpt lat="42.8250145" lon="12.9293942"><ele>392.0</ele><time>2026-04-05T15:17:16.423Z</time></trkpt><trkpt lat="42.8251766" lon="12.9293972"><ele>392.0</ele><time>2026-04-05T15:17:17.423Z</time></trkpt><trkpt lat="42.8253491" lon="12.9294248"><ele>392.0</ele><time>2026-04-05T15:17:18.423Z</time></trkpt><trkpt lat="42.8255272" lon="12.9294653"><ele>392.0</ele><time>2026-04-05T15:17:19.424Z</time></trkpt><trkpt lat="42.8257069" lon="12.9295051"><ele>392.0</ele><time>2026-04-05T15:17:20.424Z</time></trkpt><trkpt lat="42.8258853" lon="12.9295445"><ele>392.0</ele><time>2026-04-05T15:17:21.423Z</time></trkpt><trkpt lat="42.8260546" lon="12.9296101"><ele>392.0</ele><time>2026-04-05T15:17:22.424Z</time></trkpt><trkpt lat="42.826234" lon="12.9296651"><ele>394.3333333333333</ele><time>2026-04-05T15:17:23.423Z</time></trkpt><trkpt lat="42.8264181" lon="12.9297061"><ele>396.66666666666663</ele><time>2026-04-05T15:17:24.424Z</time></trkpt><trkpt lat="42.8266022" lon="12.9297631"><ele>399.0</ele><time>2026-04-05T15:17:25.423Z</time></trkpt><trkpt lat="42.8267876" lon="12.9298166"><ele>410.33333333333337</ele><time>2026-04-05T15:17:26.423Z</time></trkpt><trkpt lat="42.8269688" lon="12.9298757"><ele>421.6666666666667</ele><time>2026-04-05T15:17:27.423Z</time></trkpt><trkpt lat="42.8271424" lon="12.9299493"><ele>433.0</ele><time>2026-04-05T15:17:28.424Z</time></trkpt><trkpt lat="42.8273064" lon="12.930024"><ele>423.6666666666667</ele><time>2026-04-05T15:17:29.424Z</time></trkpt><trkpt lat="42.8274566" lon="12.9301171"><ele>414.33333333333337</ele><time>2026-04-05T15:17:30.424Z</time></trkpt><trkpt lat="42.8275964" lon="12.9302419"><ele>405.0</ele><time>2026-04-05T15:17:31.424Z</time></trkpt><trkpt lat="42.8277285" lon="12.9303815"><ele>405.0</ele><time>2026-04-05T15:17:32.424Z</time></trkpt><trkpt lat="42.8278654" lon="12.9305294"><ele>405.0</ele><time>2026-04-05T15:17:33.424Z</time></trkpt><trkpt lat="42.8279922" lon="12.9306675"><ele>405.0</ele><time>2026-04-05T15:17:34.424Z</time></trkpt><trkpt lat="42.8281113" lon="12.9308001"><ele>406.25</ele><time>2026-04-05T15:17:35.424Z</time></trkpt><trkpt lat="42.8282276" lon="12.9309012"><ele>407.5</ele><time>2026-04-05T15:17:36.424Z</time></trkpt><trkpt lat="42.8283486" lon="12.9309749"><ele>408.75</ele><time>2026-04-05T15:17:37.424Z</time></trkpt><trkpt lat="42.8284598" lon="12.9310624"><ele>410.0</ele><time>2026-04-05T15:17:38.424Z</time></trkpt><trkpt lat="42.8285628" lon="12.9311556"><ele>410.0</ele><time>2026-04-05T15:17:39.423Z</time></trkpt><trkpt lat="42.8286441" lon="12.9312742"><ele>410.0</ele><time>2026-04-05T15:17:40.424Z</time></trkpt><trkpt lat="42.828713" lon="12.9314117"><ele>410.0</ele><time>2026-04-05T15:17:41.423Z</time></trkpt><trkpt lat="42.8287529" lon="12.9315688"><ele>410.0</ele><time>2026-04-05T15:17:42.424Z</time></trkpt><trkpt lat="42.8287783" lon="12.9317298"><ele>414.0</ele><time>2026-04-05T15:17:43.424Z</time></trkpt><trkpt lat="42.8287791" lon="12.9318884"><ele>418.0</ele><time>2026-04-05T15:17:44.424Z</time></trkpt><trkpt lat="42.8287769" lon="12.9320482"><ele>422.0</ele><time>2026-04-05T15:17:45.424Z</time></trkpt><trkpt lat="42.8286893" lon="12.9337882"><ele>429.5</ele><time>2026-04-05T15:17:54.423Z</time></trkpt><trkpt lat="42.828693" lon="12.9339672"><ele>437.0</ele><time>2026-04-05T15:17:55.423Z</time></trkpt><trkpt lat="42.82868" lon="12.9341276"><ele>444.5</ele><time>2026-04-05T15:17:56.424Z</time></trkpt><trkpt lat="42.8286034" lon="12.9342615"><ele>452.0</ele><time>2026-04-05T15:17:57.424Z</time></trkpt><trkpt lat="42.8285309" lon="12.9343989"><ele>445.25</ele><time>2026-04-05T15:17:58.424Z</time></trkpt><trkpt lat="42.8284301" lon="12.9345167"><ele>438.5</ele><time>2026-04-05T15:17:59.424Z</time></trkpt><trkpt lat="42.8283297" lon="12.9346295"><ele>431.75</ele><time>2026-04-05T15:18:00.423Z</time></trkpt><trkpt lat="42.8282268" lon="12.9347354"><ele>425.0</ele><time>2026-04-05T15:18:01.423Z</time></trkpt><trkpt lat="42.8281252" lon="12.9348438"><ele>425.0</ele><time>2026-04-05T15:18:02.424Z</time></trkpt><trkpt lat="42.8280391" lon="12.9349442"><ele>425.0</ele><time>2026-04-05T15:18:03.424Z</time></trkpt><trkpt lat="42.8279922" lon="12.9350497"><ele>425.0</ele><time>2026-04-05T15:18:04.424Z</time></trkpt><trkpt lat="42.8279518" lon="12.9351539"><ele>425.0</ele><time>2026-04-05T15:18:05.424Z</time></trkpt><trkpt lat="42.8279361" lon="12.9352678"><ele>425.0</ele><time>2026-04-05T15:18:06.423Z</time></trkpt><trkpt lat="42.827924" lon="12.9353822"><ele>426.4</ele><time>2026-04-05T15:18:07.424Z</time></trkpt><trkpt lat="42.8279522" lon="12.935493"><ele>427.8</ele><time>2026-04-05T15:18:08.424Z</time></trkpt><trkpt lat="42.8279657" lon="12.935616"><ele>429.20000000000005</ele><time>2026-04-05T15:18:09.424Z</time></trkpt><trkpt lat="42.8279748" lon="12.9357413"><ele>430.6</ele><time>2026-04-05T15:18:10.424Z</time></trkpt><trkpt lat="42.8279736" lon="12.9358625"><ele>432.0</ele><time>2026-04-05T15:18:11.423Z</time></trkpt><trkpt lat="42.82794" lon="12.9359779"><ele>433.40000000000003</ele><time>2026-04-05T15:18:12.423Z</time></trkpt><trkpt lat="42.8278877" lon="12.9360829"><ele>434.80000000000007</ele><time>2026-04-05T15:18:13.424Z</time></trkpt><trkpt lat="42.8278221" lon="12.9361601"><ele>436.2</ele><time>2026-04-05T15:18:14.424Z</time></trkpt><trkpt lat="42.8277441" lon="12.9362376"><ele>437.6</ele><time>2026-04-05T15:18:15.424Z</time></trkpt><trkpt lat="42.8276832" lon="12.9363398"><ele>439.0</ele><time>2026-04-05T15:18:16.424Z</time></trkpt><trkpt lat="42.8276379" lon="12.9364508"><ele>437.2</ele><time>2026-04-05T15:18:17.424Z</time></trkpt><trkpt lat="42.8276035" lon="12.9365691"><ele>435.4</ele><time>2026-04-05T15:18:18.424Z</time></trkpt><trkpt lat="42.8275956" lon="12.936707"><ele>433.6</ele><time>2026-04-05T15:18:19.423Z</time></trkpt><trkpt lat="42.8275974" lon="12.9368579"><ele>431.8</ele><time>2026-04-05T15:18:20.424Z</time></trkpt><trkpt lat="42.8276175" lon="12.9370155"><ele>430.0</ele><time>2026-04-05T15:18:21.424Z</time></trkpt><trkpt lat="42.82765" lon="12.9371711"><ele>430.0</ele><time>2026-04-05T15:18:22.424Z</time></trkpt><trkpt lat="42.8276909" lon="12.9373248"><ele>430.0</ele><time>2026-04-05T15:18:23.424Z</time></trkpt><trkpt lat="42.8277384" lon="12.9374842"><ele>430.0</ele><time>2026-04-05T15:18:24.424Z</time></trkpt><trkpt lat="42.8277648" lon="12.9376396"><ele>430.0</ele><time>2026-04-05T15:18:25.424Z</time></trkpt><trkpt lat="42.8277897" lon="12.9378106"><ele>423.5</ele><time>2026-04-05T15:18:26.424Z</time></trkpt><trkpt lat="42.8278022" lon="12.9379882"><ele>417.0</ele><time>2026-04-05T15:18:27.424Z</time></trkpt><trkpt lat="42.827803" lon="12.9381658"><ele>410.5</ele><time>2026-04-05T15:18:28.424Z</time></trkpt><trkpt lat="42.8278022" lon="12.9383378"><ele>404.0</ele><time>2026-04-05T15:18:29.424Z</time></trkpt><trkpt lat="42.8278133" lon="12.9384865"><ele>404.0</ele><time>2026-04-05T15:18:30.424Z</time></trkpt><trkpt lat="42.8278428" lon="12.9386334"><ele>404.0</ele><time>2026-04-05T15:18:31.424Z</time></trkpt><trkpt lat="42.8278926" lon="12.9387459"><ele>404.0</ele><time>2026-04-05T15:18:32.424Z</time></trkpt><trkpt lat="42.8279931" lon="12.9388414"><ele>404.0</ele><time>2026-04-05T15:18:33.424Z</time></trkpt><trkpt lat="42.8281082" lon="12.9389421"><ele>404.0</ele><time>2026-04-05T15:18:34.423Z</time></trkpt><trkpt lat="42.828223" lon="12.9390523"><ele>404.0</ele><time>2026-04-05T15:18:35.424Z</time></trkpt><trkpt lat="42.8283414" lon="12.9391723"><ele>404.0</ele><time>2026-04-05T15:18:36.424Z</time></trkpt><trkpt lat="42.8284655" lon="12.9392939"><ele>404.0</ele><time>2026-04-05T15:18:37.424Z</time></trkpt><trkpt lat="42.8285625" lon="12.9394371"><ele>404.66666666666663</ele><time>2026-04-05T15:18:38.424Z</time></trkpt><trkpt lat="42.8286802" lon="12.9395679"><ele>405.33333333333337</ele><time>2026-04-05T15:18:39.423Z</time></trkpt><trkpt lat="42.8287892" lon="12.9397071"><ele>406.0</ele><time>2026-04-05T15:18:40.423Z</time></trkpt><trkpt lat="42.828893" lon="12.9398518"><ele>406.0</ele><time>2026-04-05T15:18:41.423Z</time></trkpt><trkpt lat="42.8289588" lon="12.9400276"><ele>406.0</ele><time>2026-04-05T15:18:42.424Z</time></trkpt><trkpt lat="42.8290235" lon="12.9402068"><ele>406.0</ele><time>2026-04-05T15:18:43.424Z</time></trkpt><trkpt lat="42.8290795" lon="12.9403951"><ele>406.0</ele><time>2026-04-05T15:18:44.424Z</time></trkpt><trkpt lat="42.8291304" lon="12.9405814"><ele>411.0</ele><time>2026-04-05T15:18:45.424Z</time></trkpt><trkpt lat="42.829187" lon="12.9407572"><ele>416.0</ele><time>2026-04-05T15:18:46.424Z</time></trkpt><trkpt lat="42.8292275" lon="12.9409449"><ele>421.0</ele><time>2026-04-05T15:18:47.424Z</time></trkpt><trkpt lat="42.8292466" lon="12.941145"><ele>426.0</ele><time>2026-04-05T15:18:48.424Z</time></trkpt><trkpt lat="42.8292494" lon="12.9413481"><ele>427.75</ele><time>2026-04-05T15:18:49.424Z</time></trkpt><trkpt lat="42.8292457" lon="12.9415546"><ele>429.5</ele><time>2026-04-05T15:18:50.424Z</time></trkpt><trkpt lat="42.8292363" lon="12.9417559"><ele>431.25</ele><time>2026-04-05T15:18:51.424Z</time></trkpt><trkpt lat="42.8292282" lon="12.9419443"><ele>433.0</ele><time>2026-04-05T15:18:52.423Z</time></trkpt><trkpt lat="42.8292268" lon="12.9421247"><ele>433.5</ele><time>2026-04-05T15:18:53.424Z</time></trkpt><trkpt lat="42.8292253" lon="12.9422995"><ele>434.0</ele><time>2026-04-05T15:18:54.424Z</time></trkpt><trkpt lat="42.8292412" lon="12.9424752"><ele>434.5</ele><time>2026-04-05T15:18:55.424Z</time></trkpt><trkpt lat="42.8292807" lon="12.942642"><ele>435.0</ele><time>2026-04-05T15:18:56.423Z</time></trkpt><trkpt lat="42.8293492" lon="12.9428005"><ele>433.25</ele><time>2026-04-05T15:18:57.424Z</time></trkpt><trkpt lat="42.8294372" lon="12.9429399"><ele>431.5</ele><time>2026-04-05T15:18:58.424Z</time></trkpt><trkpt lat="42.8295504" lon="12.9430647"><ele>429.75</ele><time>2026-04-05T15:18:59.424Z</time></trkpt><trkpt lat="42.8296815" lon="12.9431765"><ele>428.0</ele><time>2026-04-05T15:19:00.424Z</time></trkpt><trkpt lat="42.8298188" lon="12.943278"><ele>428.0</ele><time>2026-04-05T15:19:01.424Z</time></trkpt><trkpt lat="42.8299512" lon="12.943379"><ele>428.0</ele><time>2026-04-05T15:19:02.424Z</time></trkpt><trkpt lat="42.8300893" lon="12.9434728"><ele>428.0</ele><time>2026-04-05T15:19:03.424Z</time></trkpt><trkpt lat="42.8302305" lon="12.9435537"><ele>431.3333333333333</ele><time>2026-04-05T15:19:04.424Z</time></trkpt><trkpt lat="42.830371" lon="12.9436071"><ele>434.66666666666663</ele><time>2026-04-05T15:19:05.424Z</time></trkpt><trkpt lat="42.8305203" lon="12.9436315"><ele>438.0</ele><time>2026-04-05T15:19:06.424Z</time></trkpt><trkpt lat="42.83068" lon="12.9436219"><ele>438.0</ele><time>2026-04-05T15:19:07.424Z</time></trkpt><trkpt lat="42.8308448" lon="12.9436043"><ele>438.0</ele><time>2026-04-05T15:19:08.424Z</time></trkpt><trkpt lat="42.8310105" lon="12.9435732"><ele>438.0</ele><time>2026-04-05T15:19:09.424Z</time></trkpt><trkpt lat="42.8311812" lon="12.9435406"><ele>438.0</ele><time>2026-04-05T15:19:10.424Z</time></trkpt><trkpt lat="42.8313437" lon="12.9435142"><ele>438.0</ele><time>2026-04-05T15:19:11.424Z</time></trkpt><trkpt lat="42.8315121" lon="12.943501"><ele>438.0</ele><time>2026-04-05T15:19:12.424Z</time></trkpt><trkpt lat="42.831687" lon="12.9435196"><ele>436.33333333333337</ele><time>2026-04-05T15:19:13.424Z</time></trkpt><trkpt lat="42.8318599" lon="12.9435659"><ele>434.6666666666667</ele><time>2026-04-05T15:19:14.423Z</time></trkpt><trkpt lat="42.8320369" lon="12.9436425"><ele>433.0</ele><time>2026-04-05T15:19:15.424Z</time></trkpt><trkpt lat="42.8321964" lon="12.9437332"><ele>433.0</ele><time>2026-04-05T15:19:16.424Z</time></trkpt><trkpt lat="42.8323524" lon="12.9438489"><ele>433.0</ele><time>2026-04-05T15:19:17.423Z</time></trkpt><trkpt lat="42.8325042" lon="12.9439515"><ele>433.0</ele><time>2026-04-05T15:19:18.424Z</time></trkpt><trkpt lat="42.8326564" lon="12.9440348"><ele>432.5</ele><time>2026-04-05T15:19:19.424Z</time></trkpt><trkpt lat="42.832799" lon="12.9440942"><ele>432.0</ele><time>2026-04-05T15:19:20.424Z</time></trkpt><trkpt lat="42.8329428" lon="12.9441427"><ele>431.5</ele><time>2026-04-05T15:19:21.424Z</time></trkpt><trkpt lat="42.8330793" lon="12.9441914"><ele>431.0</ele><time>2026-04-05T15:19:22.423Z</time></trkpt><trkpt lat="42.8331907" lon="12.9442752"><ele>431.0</ele><time>2026-04-05T15:19:23.424Z</time></trkpt><trkpt lat="42.833303" lon="12.9443875"><ele>431.0</ele><time>2026-04-05T15:19:24.424Z</time></trkpt><trkpt lat="42.8333967" lon="12.9445335"><ele>431.0</ele><time>2026-04-05T15:19:25.423Z</time></trkpt><trkpt lat="42.8334922" lon="12.9446972"><ele>431.0</ele><time>2026-04-05T15:19:26.424Z</time></trkpt><trkpt lat="42.8335955" lon="12.9448666"><ele>429.66666666666663</ele><time>2026-04-05T15:19:27.424Z</time></trkpt><trkpt lat="42.8337114" lon="12.9450349"><ele>428.33333333333337</ele><time>2026-04-05T15:19:28.424Z</time></trkpt><trkpt lat="42.8338325" lon="12.9451974"><ele>427.0</ele><time>2026-04-05T15:19:29.424Z</time></trkpt><trkpt lat="42.833965" lon="12.945343"><ele>427.0</ele><time>2026-04-05T15:19:30.424Z</time></trkpt><trkpt lat="42.8341038" lon="12.9454824"><ele>427.0</ele><time>2026-04-05T15:19:31.423Z</time></trkpt><trkpt lat="42.8342596" lon="12.9456151"><ele>427.0</ele><time>2026-04-05T15:19:32.424Z</time></trkpt><trkpt lat="42.8344151" lon="12.9457553"><ele>429.0</ele><time>2026-04-05T15:19:33.423Z</time></trkpt><trkpt lat="42.83458" lon="12.945894"><ele>431.0</ele><time>2026-04-05T15:19:34.424Z</time></trkpt><trkpt lat="42.8347469" lon="12.9460175"><ele>433.0</ele><time>2026-04-05T15:19:35.424Z</time></trkpt><trkpt lat="42.8349127" lon="12.9461406"><ele>433.0</ele><time>2026-04-05T15:19:36.423Z</time></trkpt><trkpt lat="42.8350743" lon="12.9462535"><ele>433.0</ele><time>2026-04-05T15:19:37.424Z</time></trkpt><trkpt lat="42.8352456" lon="12.9463441"><ele>433.0</ele><time>2026-04-05T15:19:38.424Z</time></trkpt><trkpt lat="42.835421" lon="12.9464123"><ele>429.33333333333337</ele><time>2026-04-05T15:19:39.424Z</time></trkpt><trkpt lat="42.835599" lon="12.9464813"><ele>425.66666666666663</ele><time>2026-04-05T15:19:40.424Z</time></trkpt><trkpt lat="42.8357915" lon="12.9465357"><ele>422.0</ele><time>2026-04-05T15:19:41.423Z</time></trkpt><trkpt lat="42.8359824" lon="12.9466014"><ele>417.66666666666663</ele><time>2026-04-05T15:19:42.424Z</time></trkpt><trkpt lat="42.8361815" lon="12.9466626"><ele>413.33333333333337</ele><time>2026-04-05T15:19:43.424Z</time></trkpt><trkpt lat="42.8363862" lon="12.9467257"><ele>409.0</ele><time>2026-04-05T15:19:44.424Z</time></trkpt><trkpt lat="42.8365748" lon="12.9467942"><ele>413.33333333333337</ele><time>2026-04-05T15:19:45.424Z</time></trkpt><trkpt lat="42.8367666" lon="12.9468511"><ele>417.66666666666663</ele><time>2026-04-05T15:19:46.424Z</time></trkpt><trkpt lat="42.8369623" lon="12.9469083"><ele>422.0</ele><time>2026-04-05T15:19:47.424Z</time></trkpt><trkpt lat="42.8371558" lon="12.9469748"><ele>422.0</ele><time>2026-04-05T15:19:48.424Z</time></trkpt><trkpt lat="42.8373395" lon="12.9470422"><ele>422.0</ele><time>2026-04-05T15:19:49.423Z</time></trkpt><trkpt lat="42.8375164" lon="12.9471234"><ele>422.0</ele><time>2026-04-05T15:19:50.424Z</time></trkpt><trkpt lat="42.8376837" lon="12.9472158"><ele>425.66666666666663</ele><time>2026-04-05T15:19:51.424Z</time></trkpt><trkpt lat="42.837846" lon="12.9473312"><ele>429.33333333333337</ele><time>2026-04-05T15:19:52.424Z</time></trkpt><trkpt lat="42.8380118" lon="12.9474559"><ele>433.0</ele><time>2026-04-05T15:19:53.423Z</time></trkpt><trkpt lat="42.8381833" lon="12.9475984"><ele>433.0</ele><time>2026-04-05T15:19:54.424Z</time></trkpt><trkpt lat="42.838348" lon="12.9477366"><ele>433.0</ele><time>2026-04-05T15:19:55.424Z</time></trkpt><trkpt lat="42.8384936" lon="12.9478712"><ele>433.0</ele><time>2026-04-05T15:19:56.423Z</time></trkpt><trkpt lat="42.8386331" lon="12.9480006"><ele>426.0</ele><time>2026-04-05T15:19:57.424Z</time></trkpt><trkpt lat="42.8387693" lon="12.9481417"><ele>419.0</ele><time>2026-04-05T15:19:58.424Z</time></trkpt><trkpt lat="42.838884" lon="12.9483007"><ele>412.0</ele><time>2026-04-05T15:19:59.424Z</time></trkpt><trkpt lat="42.8389814" lon="12.9484661"><ele>412.0</ele><time>2026-04-05T15:20:00.424Z</time></trkpt><trkpt lat="42.8390833" lon="12.948626"><ele>412.0</ele><time>2026-04-05T15:20:01.423Z</time></trkpt><trkpt lat="42.8391888" lon="12.9487724"><ele>412.0</ele><time>2026-04-05T15:20:02.424Z</time></trkpt><trkpt lat="42.8393115" lon="12.9489014"><ele>406.6666666666667</ele><time>2026-04-05T15:20:03.424Z</time></trkpt><trkpt lat="42.8394595" lon="12.9489814"><ele>401.33333333333337</ele><time>2026-04-05T15:20:04.424Z</time></trkpt><trkpt lat="42.8396184" lon="12.9490409"><ele>396.0</ele><time>2026-04-05T15:20:05.424Z</time></trkpt><trkpt lat="42.8397792" lon="12.9491003"><ele>396.0</ele><time>2026-04-05T15:20:06.424Z</time></trkpt><trkpt lat="42.8399275" lon="12.9491665"><ele>396.0</ele><time>2026-04-05T15:20:07.424Z</time></trkpt><trkpt lat="42.8400657" lon="12.9492297"><ele>396.0</ele><time>2026-04-05T15:20:08.424Z</time></trkpt><trkpt lat="42.8401796" lon="12.9493149"><ele>396.0</ele><time>2026-04-05T15:20:09.423Z</time></trkpt><trkpt lat="42.8402683" lon="12.9494111"><ele>403.25</ele><time>2026-04-05T15:20:10.423Z</time></trkpt><trkpt lat="42.840364" lon="12.9495118"><ele>410.5</ele><time>2026-04-05T15:20:11.424Z</time></trkpt><trkpt lat="42.8404014" lon="12.9496741"><ele>417.75</ele><time>2026-04-05T15:20:12.424Z</time></trkpt><trkpt lat="42.840449" lon="12.949824"><ele>425.0</ele><time>2026-04-05T15:20:13.423Z</time></trkpt><trkpt lat="42.8405016" lon="12.9499914"><ele>421.75</ele><time>2026-04-05T15:20:14.424Z</time></trkpt><trkpt lat="42.8405523" lon="12.9501777"><ele>418.5</ele><time>2026-04-05T15:20:15.424Z</time></trkpt><trkpt lat="42.8406108" lon="12.9503645"><ele>415.25</ele><time>2026-04-05T15:20:16.424Z</time></trkpt><trkpt lat="42.8406699" lon="12.9505505"><ele>412.0</ele><time>2026-04-05T15:20:17.424Z</time></trkpt><trkpt lat="42.8407336" lon="12.9507155"><ele>410.0</ele><time>2026-04-05T15:20:18.424Z</time></trkpt><trkpt lat="42.8408088" lon="12.9508745"><ele>408.0</ele><time>2026-04-05T15:20:19.424Z</time></trkpt><trkpt lat="42.8409023" lon="12.9510091"><ele>406.0</ele><time>2026-04-05T15:20:20.424Z</time></trkpt><trkpt lat="42.8410125" lon="12.9511455"><ele>404.0</ele><time>2026-04-05T15:20:21.423Z</time></trkpt><trkpt lat="42.8411404" lon="12.9512594"><ele>409.66666666666663</ele><time>2026-04-05T15:20:22.423Z</time></trkpt><trkpt lat="42.8412661" lon="12.9513687"><ele>415.33333333333337</ele><time>2026-04-05T15:20:23.424Z</time></trkpt><trkpt lat="42.8414179" lon="12.9514642"><ele>421.0</ele><time>2026-04-05T15:20:24.424Z</time></trkpt><trkpt lat="42.8415672" lon="12.9515661"><ele>421.0</ele><time>2026-04-05T15:20:25.424Z</time></trkpt><trkpt lat="42.8417175" lon="12.9516722"><ele>421.0</ele><time>2026-04-05T15:20:26.423Z</time></trkpt><trkpt lat="42.8418557" lon="12.9517759"><ele>421.0</ele><time>2026-04-05T15:20:27.424Z</time></trkpt><trkpt lat="42.8419817" lon="12.951896"><ele>426.33333333333337</ele><time>2026-04-05T15:20:28.424Z</time></trkpt><trkpt lat="42.8420917" lon="12.9520391"><ele>431.66666666666663</ele><time>2026-04-05T15:20:29.424Z</time></trkpt><trkpt lat="42.8421904" lon="12.9522069"><ele>437.0</ele><time>2026-04-05T15:20:30.424Z</time></trkpt><trkpt lat="42.8422839" lon="12.9523894"><ele>431.0</ele><time>2026-04-05T15:20:31.423Z</time></trkpt><trkpt lat="42.8423784" lon="12.9525716"><ele>425.0</ele><time>2026-04-05T15:20:32.423Z</time></trkpt><trkpt lat="42.8424729" lon="12.9527586"><ele>419.0</ele><time>2026-04-05T15:20:33.424Z</time></trkpt><trkpt lat="42.8425668" lon="12.9529593"><ele>426.0</ele><time>2026-04-05T15:20:34.424Z</time></trkpt><trkpt lat="42.8426642" lon="12.9531568"><ele>433.0</ele><time>2026-04-05T15:20:35.424Z</time></trkpt><trkpt lat="42.8427645" lon="12.9533499"><ele>440.0</ele><time>2026-04-05T15:20:36.424Z</time></trkpt><trkpt lat="42.8428571" lon="12.9535401"><ele>440.0</ele><time>2026-04-05T15:20:37.424Z</time></trkpt><trkpt lat="42.8429483" lon="12.9537216"><ele>440.0</ele><time>2026-04-05T15:20:38.424Z</time></trkpt><trkpt lat="42.8430354" lon="12.9539109"><ele>440.0</ele><time>2026-04-05T15:20:39.424Z</time></trkpt><trkpt lat="42.8431321" lon="12.9540902"><ele>433.0</ele><time>2026-04-05T15:20:40.424Z</time></trkpt><trkpt lat="42.8432264" lon="12.9542595"><ele>426.0</ele><time>2026-04-05T15:20:41.424Z</time></trkpt><trkpt lat="42.8433277" lon="12.9544346"><ele>419.0</ele><time>2026-04-05T15:20:42.424Z</time></trkpt><trkpt lat="42.843437" lon="12.954607"><ele>422.3333333333333</ele><time>2026-04-05T15:20:43.424Z</time></trkpt><trkpt lat="42.8435496" lon="12.9547772"><ele>425.66666666666663</ele><time>2026-04-05T15:20:44.424Z</time></trkpt><trkpt lat="42.8436669" lon="12.9549539"><ele>429.0</ele><time>2026-04-05T15:20:45.424Z</time></trkpt><trkpt lat="42.8437852" lon="12.9551323"><ele>429.0</ele><time>2026-04-05T15:20:46.424Z</time></trkpt><trkpt lat="42.8439051" lon="12.9553147"><ele>429.0</ele><time>2026-04-05T15:20:47.424Z</time></trkpt><trkpt lat="42.8440259" lon="12.9555038"><ele>429.0</ele><time>2026-04-05T15:20:48.424Z</time></trkpt><trkpt lat="42.8441485" lon="12.9556893"><ele>429.0</ele><time>2026-04-05T15:20:49.424Z</time></trkpt><trkpt lat="42.8442867" lon="12.9558681"><ele>429.0</ele><time>2026-04-05T15:20:50.423Z</time></trkpt><trkpt lat="42.8444205" lon="12.9560543"><ele>429.0</ele><time>2026-04-05T15:20:51.424Z</time></trkpt><trkpt lat="42.8445574" lon="12.9562516"><ele>426.66666666666663</ele><time>2026-04-05T15:20:52.423Z</time></trkpt><trkpt lat="42.8446974" lon="12.956453"><ele>424.3333333333333</ele><time>2026-04-05T15:20:53.424Z</time></trkpt><trkpt lat="42.8448312" lon="12.9566592"><ele>422.0</ele><time>2026-04-05T15:20:54.424Z</time></trkpt><trkpt lat="42.8449652" lon="12.9568655"><ele>422.0</ele><time>2026-04-05T15:20:55.423Z</time></trkpt><trkpt lat="42.8451014" lon="12.9570706"><ele>422.0</ele><time>2026-04-05T15:20:56.424Z</time></trkpt><trkpt lat="42.8452454" lon="12.9572733"><ele>422.0</ele><time>2026-04-05T15:20:57.424Z</time></trkpt><trkpt lat="42.8453857" lon="12.9574799"><ele>425.3333333333333</ele><time>2026-04-05T15:20:58.424Z</time></trkpt><trkpt lat="42.845524" lon="12.9576847"><ele>428.66666666666663</ele><time>2026-04-05T15:20:59.424Z</time></trkpt><trkpt lat="42.8456582" lon="12.9578886"><ele>432.0</ele><time>2026-04-05T15:21:00.424Z</time></trkpt><trkpt lat="42.8457945" lon="12.9580974"><ele>432.0</ele><time>2026-04-05T15:21:01.424Z</time></trkpt><trkpt lat="42.8459309" lon="12.9583067"><ele>432.0</ele><time>2026-04-05T15:21:02.424Z</time></trkpt><trkpt lat="42.8460611" lon="12.9585217"><ele>432.0</ele><time>2026-04-05T15:21:03.424Z</time></trkpt><trkpt lat="42.8461814" lon="12.9587454"><ele>433.33333333333337</ele><time>2026-04-05T15:21:04.424Z</time></trkpt><trkpt lat="42.8463002" lon="12.9589659"><ele>434.6666666666667</ele><time>2026-04-05T15:21:05.424Z</time></trkpt><trkpt lat="42.8464236" lon="12.9591935"><ele>436.0</ele><time>2026-04-05T15:21:06.424Z</time></trkpt><trkpt lat="42.8465448" lon="12.9594084"><ele>437.6666666666667</ele><time>2026-04-05T15:21:07.424Z</time></trkpt><trkpt lat="42.8466735" lon="12.9596208"><ele>439.33333333333337</ele><time>2026-04-05T15:21:08.424Z</time></trkpt><trkpt lat="42.8468026" lon="12.9598306"><ele>441.0</ele><time>2026-04-05T15:21:09.424Z</time></trkpt><trkpt lat="42.8469229" lon="12.9600432"><ele>441.0</ele><time>2026-04-05T15:21:10.423Z</time></trkpt><trkpt lat="42.8470311" lon="12.9602661"><ele>441.0</ele><time>2026-04-05T15:21:11.424Z</time></trkpt><trkpt lat="42.8471318" lon="12.9604963"><ele>441.0</ele><time>2026-04-05T15:21:12.423Z</time></trkpt><trkpt lat="42.8472299" lon="12.9607384"><ele>435.66666666666663</ele><time>2026-04-05T15:21:13.424Z</time></trkpt><trkpt lat="42.8473267" lon="12.9609775"><ele>430.3333333333333</ele><time>2026-04-05T15:21:14.424Z</time></trkpt><trkpt lat="42.8474247" lon="12.9612145"><ele>425.0</ele><time>2026-04-05T15:21:15.424Z</time></trkpt><trkpt lat="42.8475265" lon="12.9614574"><ele>430.0</ele><time>2026-04-05T15:21:16.424Z</time></trkpt><trkpt lat="42.8476337" lon="12.9616878"><ele>435.0</ele><time>2026-04-05T15:21:17.424Z</time></trkpt><trkpt lat="42.8477498" lon="12.9619072"><ele>440.0</ele><time>2026-04-05T15:21:18.424Z</time></trkpt><trkpt lat="42.8478843" lon="12.962124"><ele>440.0</ele><time>2026-04-05T15:21:19.423Z</time></trkpt><trkpt lat="42.848012" lon="12.9623407"><ele>440.0</ele><time>2026-04-05T15:21:20.423Z</time></trkpt><trkpt lat="42.8481346" lon="12.9625576"><ele>440.0</ele><time>2026-04-05T15:21:21.424Z</time></trkpt><trkpt lat="42.8482618" lon="12.9627789"><ele>436.66666666666663</ele><time>2026-04-05T15:21:22.424Z</time></trkpt><trkpt lat="42.8483927" lon="12.9629847"><ele>433.33333333333337</ele><time>2026-04-05T15:21:23.424Z</time></trkpt><trkpt lat="42.8485304" lon="12.9631862"><ele>430.0</ele><time>2026-04-05T15:21:24.424Z</time></trkpt><trkpt lat="42.8486634" lon="12.9633811"><ele>430.0</ele><time>2026-04-05T15:21:25.424Z</time></trkpt><trkpt lat="42.8488017" lon="12.9635735"><ele>430.0</ele><time>2026-04-05T15:21:26.424Z</time></trkpt><trkpt lat="42.8489379" lon="12.9637705"><ele>430.0</ele><time>2026-04-05T15:21:27.423Z</time></trkpt><trkpt lat="42.8490759" lon="12.9639716"><ele>430.0</ele><time>2026-04-05T15:21:28.424Z</time></trkpt><trkpt lat="42.8492082" lon="12.9641745"><ele>430.0</ele><time>2026-04-05T15:21:29.424Z</time></trkpt><trkpt lat="42.8493502" lon="12.9643723"><ele>430.0</ele><time>2026-04-05T15:21:30.424Z</time></trkpt><trkpt lat="42.8494871" lon="12.9645618"><ele>426.6666666666667</ele><time>2026-04-05T15:21:31.424Z</time></trkpt><trkpt lat="42.8496208" lon="12.9647493"><ele>423.33333333333337</ele><time>2026-04-05T15:21:32.424Z</time></trkpt><trkpt lat="42.8497659" lon="12.9649292"><ele>420.0</ele><time>2026-04-05T15:21:33.424Z</time></trkpt><trkpt lat="42.8499207" lon="12.9650952"><ele>420.0</ele><time>2026-04-05T15:21:34.424Z</time></trkpt><trkpt lat="42.8500793" lon="12.9652463"><ele>420.0</ele><time>2026-04-05T15:21:35.424Z</time></trkpt><trkpt lat="42.8502388" lon="12.9653904"><ele>420.0</ele><time>2026-04-05T15:21:36.423Z</time></trkpt><trkpt lat="42.850386" lon="12.9655397"><ele>423.66666666666663</ele><time>2026-04-05T15:21:37.423Z</time></trkpt><trkpt lat="42.850523" lon="12.9656711"><ele>427.3333333333333</ele><time>2026-04-05T15:21:38.423Z</time></trkpt><trkpt lat="42.8506554" lon="12.9657978"><ele>431.0</ele><time>2026-04-05T15:21:39.424Z</time></trkpt><trkpt lat="42.8507728" lon="12.9659317"><ele>431.0</ele><time>2026-04-05T15:21:40.424Z</time></trkpt><trkpt lat="42.8508724" lon="12.966072"><ele>431.0</ele><time>2026-04-05T15:21:41.424Z</time></trkpt><trkpt lat="42.8509297" lon="12.966224"><ele>431.0</ele><time>2026-04-05T15:21:42.424Z</time></trkpt><trkpt lat="42.8509763" lon="12.9663991"><ele>431.0</ele><time>2026-04-05T15:21:43.424Z</time></trkpt><trkpt lat="42.8510061" lon="12.966581"><ele>431.75</ele><time>2026-04-05T15:21:44.424Z</time></trkpt><trkpt lat="42.8510269" lon="12.9667564"><ele>432.5</ele><time>2026-04-05T15:21:45.423Z</time></trkpt><trkpt lat="42.8510714" lon="12.9669182"><ele>433.25</ele><time>2026-04-05T15:21:46.424Z</time></trkpt><trkpt lat="42.8511386" lon="12.9670734"><ele>434.0</ele><time>2026-04-05T15:21:47.423Z</time></trkpt><trkpt lat="42.8512158" lon="12.9672176"><ele>434.0</ele><time>2026-04-05T15:21:48.424Z</time></trkpt><trkpt lat="42.8513185" lon="12.96734"><ele>434.0</ele><time>2026-04-05T15:21:49.424Z</time></trkpt><trkpt lat="42.8514447" lon="12.9674504"><ele>434.0</ele><time>2026-04-05T15:21:50.424Z</time></trkpt><trkpt lat="42.8515731" lon="12.9675456"><ele>434.0</ele><time>2026-04-05T15:21:51.424Z</time></trkpt><trkpt lat="42.8517224" lon="12.9676295"><ele>432.0</ele><time>2026-04-05T15:21:52.424Z</time></trkpt><trkpt lat="42.8518695" lon="12.9677172"><ele>430.0</ele><time>2026-04-05T15:21:53.424Z</time></trkpt><trkpt lat="42.8520318" lon="12.9678086"><ele>428.0</ele><time>2026-04-05T15:21:54.424Z</time></trkpt><trkpt lat="42.8521974" lon="12.9679008"><ele>428.0</ele><time>2026-04-05T15:21:55.424Z</time></trkpt><trkpt lat="42.8523538" lon="12.967994"><ele>428.0</ele><time>2026-04-05T15:21:56.424Z</time></trkpt><trkpt lat="42.852506" lon="12.9680928"><ele>428.0</ele><time>2026-04-05T15:21:57.423Z</time></trkpt><trkpt lat="42.8526377" lon="12.9682127"><ele>430.3333333333333</ele><time>2026-04-05T15:21:58.424Z</time></trkpt><trkpt lat="42.8527637" lon="12.9683541"><ele>432.66666666666663</ele><time>2026-04-05T15:21:59.424Z</time></trkpt><trkpt lat="42.852879" lon="12.9685087"><ele>435.0</ele><time>2026-04-05T15:22:00.424Z</time></trkpt><trkpt lat="42.8529822" lon="12.9686772"><ele>435.0</ele><time>2026-04-05T15:22:01.423Z</time></trkpt><trkpt lat="42.8530693" lon="12.9688582"><ele>435.0</ele><time>2026-04-05T15:22:02.424Z</time></trkpt><trkpt lat="42.8531444" lon="12.9690318"><ele>435.0</ele><time>2026-04-05T15:22:03.424Z</time></trkpt><trkpt lat="42.8532178" lon="12.9691832"><ele>435.0</ele><time>2026-04-05T15:22:04.424Z</time></trkpt><trkpt lat="42.853305" lon="12.9692972"><ele>433.0</ele><time>2026-04-05T15:22:05.424Z</time></trkpt><trkpt lat="42.8534183" lon="12.9693841"><ele>431.0</ele><time>2026-04-05T15:22:06.423Z</time></trkpt><trkpt lat="42.8535376" lon="12.9694562"><ele>429.0</ele><time>2026-04-05T15:22:07.424Z</time></trkpt><trkpt lat="42.8536758" lon="12.9694941"><ele>427.0</ele><time>2026-04-05T15:22:08.423Z</time></trkpt><trkpt lat="42.8538134" lon="12.9695335"><ele>427.0</ele><time>2026-04-05T15:22:09.423Z</time></trkpt><trkpt lat="42.8539526" lon="12.9695779"><ele>427.0</ele><time>2026-04-05T15:22:10.424Z</time></trkpt><trkpt lat="42.854088" lon="12.9696233"><ele>427.0</ele><time>2026-04-05T15:22:11.424Z</time></trkpt><trkpt lat="42.8542172" lon="12.9697234"><ele>427.0</ele><time>2026-04-05T15:22:12.423Z</time></trkpt><trkpt lat="42.8543583" lon="12.9698437"><ele>430.0</ele><time>2026-04-05T15:22:13.423Z</time></trkpt><trkpt lat="42.8545005" lon="12.9699536"><ele>433.0</ele><time>2026-04-05T15:22:14.424Z</time></trkpt><trkpt lat="42.8546331" lon="12.9700759"><ele>436.0</ele><time>2026-04-05T15:22:15.424Z</time></trkpt><trkpt lat="42.8547576" lon="12.9702082"><ele>436.0</ele><time>2026-04-05T15:22:16.424Z</time></trkpt><trkpt lat="42.8548809" lon="12.970343"><ele>436.0</ele><time>2026-04-05T15:22:17.424Z</time></trkpt><trkpt lat="42.8550103" lon="12.9704884"><ele>436.0</ele><time>2026-04-05T15:22:18.423Z</time></trkpt><trkpt lat="42.8551222" lon="12.9706505"><ele>441.33333333333337</ele><time>2026-04-05T15:22:19.423Z</time></trkpt><trkpt lat="42.8552297" lon="12.9708303"><ele>446.66666666666663</ele><time>2026-04-05T15:22:20.424Z</time></trkpt><trkpt lat="42.855337" lon="12.9710136"><ele>452.0</ele><time>2026-04-05T15:22:21.423Z</time></trkpt><trkpt lat="42.8554384" lon="12.9712025"><ele>452.0</ele><time>2026-04-05T15:22:22.424Z</time></trkpt><trkpt lat="42.8555305" lon="12.9713843"><ele>452.0</ele><time>2026-04-05T15:22:23.424Z</time></trkpt><trkpt lat="42.8556193" lon="12.9715602"><ele>452.0</ele><time>2026-04-05T15:22:24.423Z</time></trkpt><trkpt lat="42.8556985" lon="12.9717228"><ele>446.5</ele><time>2026-04-05T15:22:25.423Z</time></trkpt><trkpt lat="42.85576" lon="12.9718849"><ele>441.0</ele><time>2026-04-05T15:22:26.424Z</time></trkpt><trkpt lat="42.8558226" lon="12.9720422"><ele>435.5</ele><time>2026-04-05T15:22:27.423Z</time></trkpt><trkpt lat="42.8558846" lon="12.9721902"><ele>430.0</ele><time>2026-04-05T15:22:28.423Z</time></trkpt><trkpt lat="42.8559488" lon="12.9723115"><ele>430.0</ele><time>2026-04-05T15:22:29.424Z</time></trkpt><trkpt lat="42.856027" lon="12.9724259"><ele>430.0</ele><time>2026-04-05T15:22:30.424Z</time></trkpt><trkpt lat="42.8561244" lon="12.9724955"><ele>430.0</ele><time>2026-04-05T15:22:31.424Z</time></trkpt><trkpt lat="42.8562548" lon="12.9725328"><ele>430.0</ele><time>2026-04-05T15:22:32.423Z</time></trkpt><trkpt lat="42.8563938" lon="12.9725495"><ele>430.0</ele><time>2026-04-05T15:22:33.424Z</time></trkpt><trkpt lat="42.8565435" lon="12.9725458"><ele>430.0</ele><time>2026-04-05T15:22:34.424Z</time></trkpt><trkpt lat="42.8566866" lon="12.9725701"><ele>430.0</ele><time>2026-04-05T15:22:35.424Z</time></trkpt><trkpt lat="42.8568413" lon="12.9726075"><ele>431.0</ele><time>2026-04-05T15:22:36.424Z</time></trkpt><trkpt lat="42.8569876" lon="12.9726655"><ele>432.0</ele><time>2026-04-05T15:22:37.424Z</time></trkpt><trkpt lat="42.8571237" lon="12.9727319"><ele>433.0</ele><time>2026-04-05T15:22:38.424Z</time></trkpt><trkpt lat="42.8572612" lon="12.9728185"><ele>434.0</ele><time>2026-04-05T15:22:39.424Z</time></trkpt><trkpt lat="42.8573891" lon="12.9729084"><ele>434.0</ele><time>2026-04-05T15:22:40.424Z</time></trkpt><trkpt lat="42.8575173" lon="12.9730209"><ele>434.0</ele><time>2026-04-05T15:22:41.424Z</time></trkpt><trkpt lat="42.8576369" lon="12.9731627"><ele>434.0</ele><time>2026-04-05T15:22:42.424Z</time></trkpt><trkpt lat="42.8577584" lon="12.9733229"><ele>433.3333333333333</ele><time>2026-04-05T15:22:43.424Z</time></trkpt><trkpt lat="42.8578798" lon="12.9734791"><ele>432.66666666666663</ele><time>2026-04-05T15:22:44.424Z</time></trkpt><trkpt lat="42.8580141" lon="12.9736317"><ele>432.0</ele><time>2026-04-05T15:22:45.424Z</time></trkpt><trkpt lat="42.858156" lon="12.9737763"><ele>432.0</ele><time>2026-04-05T15:22:46.424Z</time></trkpt><trkpt lat="42.8582955" lon="12.9739131"><ele>432.0</ele><time>2026-04-05T15:22:47.424Z</time></trkpt><trkpt lat="42.858443" lon="12.9740281"><ele>432.0</ele><time>2026-04-05T15:22:48.423Z</time></trkpt><trkpt lat="42.8585815" lon="12.9741343"><ele>432.75</ele><time>2026-04-05T15:22:49.424Z</time></trkpt><trkpt lat="42.8587231" lon="12.974221"><ele>433.5</ele><time>2026-04-05T15:22:50.424Z</time></trkpt><trkpt lat="42.8588626" lon="12.9742796"><ele>434.25</ele><time>2026-04-05T15:22:51.424Z</time></trkpt><trkpt lat="42.8589971" lon="12.9742968"><ele>435.0</ele><time>2026-04-05T15:22:52.424Z</time></trkpt><trkpt lat="42.8591332" lon="12.9742826"><ele>435.0</ele><time>2026-04-05T15:22:53.424Z</time></trkpt><trkpt lat="42.8592793" lon="12.9742121"><ele>435.0</ele><time>2026-04-05T15:22:54.424Z</time></trkpt><trkpt lat="42.8594095" lon="12.9741367"><ele>435.0</ele><time>2026-04-05T15:22:55.424Z</time></trkpt><trkpt lat="42.8595529" lon="12.9740493"><ele>438.25</ele><time>2026-04-05T15:22:56.424Z</time></trkpt><trkpt lat="42.8596846" lon="12.9739712"><ele>441.5</ele><time>2026-04-05T15:22:57.424Z</time></trkpt><trkpt lat="42.8598108" lon="12.9739018"><ele>444.75</ele><time>2026-04-05T15:22:58.423Z</time></trkpt><trkpt lat="42.8599381" lon="12.9738735"><ele>448.0</ele><time>2026-04-05T15:22:59.424Z</time></trkpt><trkpt lat="42.8600689" lon="12.9738868"><ele>452.75</ele><time>2026-04-05T15:23:00.424Z</time></trkpt><trkpt lat="42.8602023" lon="12.9739232"><ele>457.5</ele><time>2026-04-05T15:23:01.424Z</time></trkpt><trkpt lat="42.8603356" lon="12.9739777"><ele>462.25</ele><time>2026-04-05T15:23:02.424Z</time></trkpt><trkpt lat="42.8604625" lon="12.9740388"><ele>467.0</ele><time>2026-04-05T15:23:03.424Z</time></trkpt><trkpt lat="42.8605835" lon="12.9741096"><ele>462.5</ele><time>2026-04-05T15:23:04.424Z</time></trkpt><trkpt lat="42.8606883" lon="12.9741934"><ele>458.0</ele><time>2026-04-05T15:23:05.423Z</time></trkpt><trkpt lat="42.8607677" lon="12.9743124"><ele>453.5</ele><time>2026-04-05T15:23:06.424Z</time></trkpt><trkpt lat="42.8608458" lon="12.9744478"><ele>449.0</ele><time>2026-04-05T15:23:07.423Z</time></trkpt><trkpt lat="42.860903" lon="12.9746172"><ele>449.0</ele><time>2026-04-05T15:23:08.424Z</time></trkpt><trkpt lat="42.8609492" lon="12.9748187"><ele>449.0</ele><time>2026-04-05T15:23:09.423Z</time></trkpt><trkpt lat="42.8609974" lon="12.9750197"><ele>449.0</ele><time>2026-04-05T15:23:10.424Z</time></trkpt><trkpt lat="42.8610545" lon="12.9752111"><ele>458.0</ele><time>2026-04-05T15:23:11.424Z</time></trkpt><trkpt lat="42.8611157" lon="12.9753966"><ele>467.0</ele><time>2026-04-05T15:23:12.424Z</time></trkpt><trkpt lat="42.8611786" lon="12.9755919"><ele>476.0</ele><time>2026-04-05T15:23:13.424Z</time></trkpt><trkpt lat="42.861241" lon="12.9757809"><ele>471.3333333333333</ele><time>2026-04-05T15:23:14.424Z</time></trkpt><trkpt lat="42.861305" lon="12.9759659"><ele>466.66666666666663</ele><time>2026-04-05T15:23:15.423Z</time></trkpt><trkpt lat="42.8613544" lon="12.9761572"><ele>462.0</ele><time>2026-04-05T15:23:16.424Z</time></trkpt><trkpt lat="42.8613983" lon="12.9763652"><ele>462.0</ele><time>2026-04-05T15:23:17.424Z</time></trkpt><trkpt lat="42.8614111" lon="12.9765824"><ele>462.0</ele><time>2026-04-05T15:23:18.424Z</time></trkpt><trkpt lat="42.8613993" lon="12.9768089"><ele>462.0</ele><time>2026-04-05T15:23:19.424Z</time></trkpt><trkpt lat="42.8613651" lon="12.9770368"><ele>463.33333333333337</ele><time>2026-04-05T15:23:20.423Z</time></trkpt><trkpt lat="42.8613187" lon="12.9772591"><ele>464.6666666666667</ele><time>2026-04-05T15:23:21.423Z</time></trkpt><trkpt lat="42.8612805" lon="12.9774896"><ele>466.0</ele><time>2026-04-05T15:23:22.424Z</time></trkpt><trkpt lat="42.8612494" lon="12.9777255"><ele>466.0</ele><time>2026-04-05T15:23:23.424Z</time></trkpt><trkpt lat="42.8612297" lon="12.9779629"><ele>466.0</ele><time>2026-04-05T15:23:24.424Z</time></trkpt><trkpt lat="42.8612226" lon="12.9782047"><ele>466.0</ele><time>2026-04-05T15:23:25.424Z</time></trkpt><trkpt lat="42.8612133" lon="12.9784515"><ele>471.6666666666667</ele><time>2026-04-05T15:23:26.424Z</time></trkpt><trkpt lat="42.8611901" lon="12.9786914"><ele>477.33333333333337</ele><time>2026-04-05T15:23:27.424Z</time></trkpt><trkpt lat="42.8611627" lon="12.9789239"><ele>483.0</ele><time>2026-04-05T15:23:28.423Z</time></trkpt><trkpt lat="42.861135" lon="12.979149"><ele>481.75</ele><time>2026-04-05T15:23:29.423Z</time></trkpt><trkpt lat="42.8610974" lon="12.9793625"><ele>480.5</ele><time>2026-04-05T15:23:30.424Z</time></trkpt><trkpt lat="42.8610852" lon="12.9795634"><ele>479.25</ele><time>2026-04-05T15:23:31.424Z</time></trkpt><trkpt lat="42.8610887" lon="12.9797515"><ele>478.0</ele><time>2026-04-05T15:23:32.424Z</time></trkpt><trkpt lat="42.8611009" lon="12.9799336"><ele>472.75</ele><time>2026-04-05T15:23:33.424Z</time></trkpt><trkpt lat="42.861143" lon="12.9801068"><ele>467.5</ele><time>2026-04-05T15:23:34.424Z</time></trkpt><trkpt lat="42.8612068" lon="12.9802771"><ele>462.25</ele><time>2026-04-05T15:23:35.423Z</time></trkpt><trkpt lat="42.8612957" lon="12.9804355"><ele>457.0</ele><time>2026-04-05T15:23:36.424Z</time></trkpt><trkpt lat="42.8613969" lon="12.9805951"><ele>457.0</ele><time>2026-04-05T15:23:37.424Z</time></trkpt><trkpt lat="42.8615028" lon="12.9807691"><ele>457.0</ele><time>2026-04-05T15:23:38.424Z</time></trkpt><trkpt lat="42.8616064" lon="12.9809574"><ele>457.0</ele><time>2026-04-05T15:23:39.423Z</time></trkpt><trkpt lat="42.8617027" lon="12.9811517"><ele>454.0</ele><time>2026-04-05T15:23:40.423Z</time></trkpt><trkpt lat="42.8617958" lon="12.9813465"><ele>451.0</ele><time>2026-04-05T15:23:41.424Z</time></trkpt><trkpt lat="42.8618801" lon="12.9815338"><ele>448.0</ele><time>2026-04-05T15:23:42.424Z</time></trkpt><trkpt lat="42.8619665" lon="12.9817058"><ele>448.0</ele><time>2026-04-05T15:23:43.423Z</time></trkpt><trkpt lat="42.8620493" lon="12.9818759"><ele>448.0</ele><time>2026-04-05T15:23:44.424Z</time></trkpt><trkpt lat="42.8621357" lon="12.982028"><ele>448.0</ele><time>2026-04-05T15:23:45.423Z</time></trkpt><trkpt lat="42.8622381" lon="12.9821602"><ele>448.0</ele><time>2026-04-05T15:23:46.424Z</time></trkpt><trkpt lat="42.8623528" lon="12.9822732"><ele>448.0</ele><time>2026-04-05T15:23:47.423Z</time></trkpt><trkpt lat="42.8624776" lon="12.9823746"><ele>448.0</ele><time>2026-04-05T15:23:48.424Z</time></trkpt><trkpt lat="42.862615" lon="12.982464"><ele>448.0</ele><time>2026-04-05T15:23:49.424Z</time></trkpt><trkpt lat="42.8627555" lon="12.9825264"><ele>448.0</ele><time>2026-04-05T15:23:50.424Z</time></trkpt><trkpt lat="42.8629076" lon="12.9825765"><ele>445.33333333333337</ele><time>2026-04-05T15:23:51.424Z</time></trkpt><trkpt lat="42.8630694" lon="12.9826074"><ele>442.66666666666663</ele><time>2026-04-05T15:23:52.424Z</time></trkpt><trkpt lat="42.8632298" lon="12.9826227"><ele>440.0</ele><time>2026-04-05T15:23:53.424Z</time></trkpt><trkpt lat="42.8633958" lon="12.9826351"><ele>441.0</ele><time>2026-04-05T15:23:54.424Z</time></trkpt><trkpt lat="42.8635668" lon="12.9826506"><ele>442.0</ele><time>2026-04-05T15:23:55.423Z</time></trkpt><trkpt lat="42.8637344" lon="12.982687"><ele>443.0</ele><time>2026-04-05T15:23:56.424Z</time></trkpt><trkpt lat="42.8639065" lon="12.9827433"><ele>443.0</ele><time>2026-04-05T15:23:57.424Z</time></trkpt><trkpt lat="42.8640746" lon="12.9828298"><ele>443.0</ele><time>2026-04-05T15:23:58.423Z</time></trkpt><trkpt lat="42.864246" lon="12.9829295"><ele>443.0</ele><time>2026-04-05T15:23:59.423Z</time></trkpt><trkpt lat="42.8644032" lon="12.983045"><ele>443.3333333333333</ele><time>2026-04-05T15:24:00.424Z</time></trkpt><trkpt lat="42.8645623" lon="12.9831722"><ele>443.66666666666663</ele><time>2026-04-05T15:24:01.424Z</time></trkpt><trkpt lat="42.864713" lon="12.983301"><ele>444.0</ele><time>2026-04-05T15:24:02.423Z</time></trkpt><trkpt lat="42.8648695" lon="12.9834332"><ele>444.0</ele><time>2026-04-05T15:24:03.424Z</time></trkpt><trkpt lat="42.8650232" lon="12.9835677"><ele>444.0</ele><time>2026-04-05T15:24:04.423Z</time></trkpt><trkpt lat="42.8651729" lon="12.9836879"><ele>444.0</ele><time>2026-04-05T15:24:05.423Z</time></trkpt><trkpt lat="42.8653186" lon="12.9837969"><ele>443.66666666666663</ele><time>2026-04-05T15:24:06.424Z</time></trkpt><trkpt lat="42.8654731" lon="12.9838622"><ele>443.3333333333333</ele><time>2026-04-05T15:24:07.424Z</time></trkpt><trkpt lat="42.8656353" lon="12.9838964"><ele>443.0</ele><time>2026-04-05T15:24:08.424Z</time></trkpt><trkpt lat="42.8657989" lon="12.9839072"><ele>444.66666666666663</ele><time>2026-04-05T15:24:09.423Z</time></trkpt><trkpt lat="42.8659721" lon="12.983913"><ele>446.33333333333337</ele><time>2026-04-05T15:24:10.424Z</time></trkpt><trkpt lat="42.8661477" lon="12.9839139"><ele>448.0</ele><time>2026-04-05T15:24:11.424Z</time></trkpt><trkpt lat="42.8663317" lon="12.9839176"><ele>448.0</ele><time>2026-04-05T15:24:12.424Z</time></trkpt><trkpt lat="42.8665123" lon="12.9839218"><ele>448.0</ele><time>2026-04-05T15:24:13.424Z</time></trkpt><trkpt lat="42.866695" lon="12.9839143"><ele>448.0</ele><time>2026-04-05T15:24:14.424Z</time></trkpt><trkpt lat="42.8668838" lon="12.983919"><ele>449.33333333333337</ele><time>2026-04-05T15:24:15.424Z</time></trkpt><trkpt lat="42.8670703" lon="12.9839233"><ele>450.66666666666663</ele><time>2026-04-05T15:24:16.424Z</time></trkpt><trkpt lat="42.867257" lon="12.9839672"><ele>452.0</ele><time>2026-04-05T15:24:17.424Z</time></trkpt><trkpt lat="42.8674368" lon="12.9840293"><ele>452.66666666666663</ele><time>2026-04-05T15:24:18.424Z</time></trkpt><trkpt lat="42.8676141" lon="12.9841203"><ele>453.33333333333337</ele><time>2026-04-05T15:24:19.424Z</time></trkpt><trkpt lat="42.8677879" lon="12.984229"><ele>454.0</ele><time>2026-04-05T15:24:20.423Z</time></trkpt><trkpt lat="42.8679614" lon="12.984338"><ele>454.0</ele><time>2026-04-05T15:24:21.424Z</time></trkpt><trkpt lat="42.8681201" lon="12.9844577"><ele>454.0</ele><time>2026-04-05T15:24:22.424Z</time></trkpt><trkpt lat="42.8682567" lon="12.9845971"><ele>454.0</ele><time>2026-04-05T15:24:23.424Z</time></trkpt><trkpt lat="42.8683792" lon="12.9847565"><ele>458.33333333333337</ele><time>2026-04-05T15:24:24.423Z</time></trkpt><trkpt lat="42.8684753" lon="12.9849342"><ele>462.66666666666663</ele><time>2026-04-05T15:24:25.424Z</time></trkpt><trkpt lat="42.8685104" lon="12.9851503"><ele>467.0</ele><time>2026-04-05T15:24:26.424Z</time></trkpt><trkpt lat="42.8685486" lon="12.9853691"><ele>467.0</ele><time>2026-04-05T15:24:27.423Z</time></trkpt><trkpt lat="42.8685883" lon="12.9855789"><ele>467.0</ele><time>2026-04-05T15:24:28.423Z</time></trkpt><trkpt lat="42.8686281" lon="12.9857816"><ele>467.0</ele><time>2026-04-05T15:24:29.424Z</time></trkpt><trkpt lat="42.8687154" lon="12.9859711"><ele>464.66666666666663</ele><time>2026-04-05T15:24:30.424Z</time></trkpt><trkpt lat="42.8687954" lon="12.9861586"><ele>462.33333333333337</ele><time>2026-04-05T15:24:31.424Z</time></trkpt><trkpt lat="42.8689154" lon="12.9863566"><ele>460.0</ele><time>2026-04-05T15:24:32.424Z</time></trkpt><trkpt lat="42.8690252" lon="12.9865548"><ele>455.6666666666667</ele><time>2026-04-05T15:24:33.424Z</time></trkpt><trkpt lat="42.8691433" lon="12.9867616"><ele>451.33333333333337</ele><time>2026-04-05T15:24:34.424Z</time></trkpt><trkpt lat="42.8692538" lon="12.9869551"><ele>447.0</ele><time>2026-04-05T15:24:35.424Z</time></trkpt><trkpt lat="42.869369" lon="12.9871476"><ele>453.0</ele><time>2026-04-05T15:24:36.424Z</time></trkpt><trkpt lat="42.8694722" lon="12.9873611"><ele>459.0</ele><time>2026-04-05T15:24:37.424Z</time></trkpt><trkpt lat="42.8695659" lon="12.9875741"><ele>465.0</ele><time>2026-04-05T15:24:38.424Z</time></trkpt><trkpt lat="42.8696501" lon="12.9877904"><ele>465.0</ele><time>2026-04-05T15:24:39.424Z</time></trkpt><trkpt lat="42.8697074" lon="12.988002"><ele>465.0</ele><time>2026-04-05T15:24:40.424Z</time></trkpt><trkpt lat="42.8697604" lon="12.9882053"><ele>465.0</ele><time>2026-04-05T15:24:41.424Z</time></trkpt><trkpt lat="42.8698085" lon="12.9883891"><ele>467.0</ele><time>2026-04-05T15:24:42.424Z</time></trkpt><trkpt lat="42.8698695" lon="12.9885591"><ele>469.0</ele><time>2026-04-05T15:24:43.424Z</time></trkpt><trkpt lat="42.8699584" lon="12.988712"><ele>471.0</ele><time>2026-04-05T15:24:44.424Z</time></trkpt><trkpt lat="42.8700668" lon="12.9888512"><ele>473.0</ele><time>2026-04-05T15:24:45.424Z</time></trkpt><trkpt lat="42.8701726" lon="12.988985"><ele>473.0</ele><time>2026-04-05T15:24:46.424Z</time></trkpt><trkpt lat="42.8703046" lon="12.9891168"><ele>473.0</ele><time>2026-04-05T15:24:47.424Z</time></trkpt><trkpt lat="42.8704431" lon="12.989247"><ele>473.0</ele><time>2026-04-05T15:24:48.423Z</time></trkpt><trkpt lat="42.8705775" lon="12.9893702"><ele>466.3333333333333</ele><time>2026-04-05T15:24:49.423Z</time></trkpt><trkpt lat="42.8707023" lon="12.9894953"><ele>459.66666666666663</ele><time>2026-04-05T15:24:50.424Z</time></trkpt><trkpt lat="42.8708478" lon="12.9896044"><ele>453.0</ele><time>2026-04-05T15:24:51.423Z</time></trkpt><trkpt lat="42.8709982" lon="12.9896967"><ele>453.0</ele><time>2026-04-05T15:24:52.424Z</time></trkpt><trkpt lat="42.871155" lon="12.9897718"><ele>453.0</ele><time>2026-04-05T15:24:53.424Z</time></trkpt><trkpt lat="42.871327" lon="12.9898263"><ele>453.0</ele><time>2026-04-05T15:24:54.424Z</time></trkpt><trkpt lat="42.8715023" lon="12.9898628"><ele>453.0</ele><time>2026-04-05T15:24:55.424Z</time></trkpt><trkpt lat="42.8716767" lon="12.9898939"><ele>453.0</ele><time>2026-04-05T15:24:56.424Z</time></trkpt><trkpt lat="42.8718619" lon="12.9899157"><ele>453.0</ele><time>2026-04-05T15:24:57.424Z</time></trkpt><trkpt lat="42.8720527" lon="12.9899399"><ele>455.0</ele><time>2026-04-05T15:24:58.424Z</time></trkpt><trkpt lat="42.8722437" lon="12.9899502"><ele>457.0</ele><time>2026-04-05T15:24:59.424Z</time></trkpt><trkpt lat="42.8724313" lon="12.9899534"><ele>459.0</ele><time>2026-04-05T15:25:00.424Z</time></trkpt><trkpt lat="42.8726194" lon="12.9899522"><ele>459.0</ele><time>2026-04-05T15:25:01.424Z</time></trkpt><trkpt lat="42.8728123" lon="12.9899486"><ele>459.0</ele><time>2026-04-05T15:25:02.424Z</time></trkpt><trkpt lat="42.87301" lon="12.9899425"><ele>459.0</ele><time>2026-04-05T15:25:03.423Z</time></trkpt><trkpt lat="42.8732119" lon="12.9899365"><ele>459.0</ele><time>2026-04-05T15:25:04.424Z</time></trkpt><trkpt lat="42.8734169" lon="12.9899351"><ele>459.0</ele><time>2026-04-05T15:25:05.424Z</time></trkpt><trkpt lat="42.8736137" lon="12.9899475"><ele>459.0</ele><time>2026-04-05T15:25:06.424Z</time></trkpt><trkpt lat="42.873812" lon="12.9899556"><ele>458.0</ele><time>2026-04-05T15:25:07.424Z</time></trkpt><trkpt lat="42.8740126" lon="12.9899702"><ele>457.0</ele><time>2026-04-05T15:25:08.424Z</time></trkpt><trkpt lat="42.874209" lon="12.9899758"><ele>456.0</ele><time>2026-04-05T15:25:09.423Z</time></trkpt><trkpt lat="42.8744034" lon="12.9899761"><ele>456.0</ele><time>2026-04-05T15:25:10.423Z</time></trkpt><trkpt lat="42.874598" lon="12.9899913"><ele>456.0</ele><time>2026-04-05T15:25:11.424Z</time></trkpt><trkpt lat="42.874785" lon="12.9900048"><ele>456.0</ele><time>2026-04-05T15:25:12.424Z</time></trkpt><trkpt lat="42.8749804" lon="12.9900082"><ele>453.0</ele><time>2026-04-05T15:25:13.424Z</time></trkpt><trkpt lat="42.8751696" lon="12.9900118"><ele>450.0</ele><time>2026-04-05T15:25:14.423Z</time></trkpt><trkpt lat="42.8753562" lon="12.9900126"><ele>447.0</ele><time>2026-04-05T15:25:15.423Z</time></trkpt><trkpt lat="42.875537" lon="12.990016"><ele>447.0</ele><time>2026-04-05T15:25:16.424Z</time></trkpt><trkpt lat="42.8757192" lon="12.9900166"><ele>447.0</ele><time>2026-04-05T15:25:17.424Z</time></trkpt><trkpt lat="42.8759011" lon="12.9900169"><ele>447.0</ele><time>2026-04-05T15:25:18.424Z</time></trkpt><trkpt lat="42.8760916" lon="12.9900443"><ele>446.66666666666663</ele><time>2026-04-05T15:25:19.423Z</time></trkpt><trkpt lat="42.8762797" lon="12.9900926"><ele>446.3333333333333</ele><time>2026-04-05T15:25:20.423Z</time></trkpt><trkpt lat="42.8764592" lon="12.990143"><ele>446.0</ele><time>2026-04-05T15:25:21.424Z</time></trkpt><trkpt lat="42.876648" lon="12.9902211"><ele>447.66666666666663</ele><time>2026-04-05T15:25:22.424Z</time></trkpt><trkpt lat="42.8768311" lon="12.9902756"><ele>449.33333333333337</ele><time>2026-04-05T15:25:23.424Z</time></trkpt><trkpt lat="42.8770213" lon="12.9903149"><ele>451.0</ele><time>2026-04-05T15:25:24.424Z</time></trkpt><trkpt lat="42.8771968" lon="12.9903689"><ele>451.0</ele><time>2026-04-05T15:25:25.424Z</time></trkpt><trkpt lat="42.8773723" lon="12.9904298"><ele>451.0</ele><time>2026-04-05T15:25:26.424Z</time></trkpt><trkpt lat="42.8775372" lon="12.9904897"><ele>451.0</ele><time>2026-04-05T15:25:27.424Z</time></trkpt><trkpt lat="42.8777036" lon="12.9905521"><ele>451.25</ele><time>2026-04-05T15:25:28.423Z</time></trkpt><trkpt lat="42.8778416" lon="12.9906121"><ele>451.5</ele><time>2026-04-05T15:25:29.424Z</time></trkpt><trkpt lat="42.8779741" lon="12.9906931"><ele>451.75</ele><time>2026-04-05T15:25:30.423Z</time></trkpt><trkpt lat="42.8780994" lon="12.9907616"><ele>452.0</ele><time>2026-04-05T15:25:31.424Z</time></trkpt><trkpt lat="42.8782175" lon="12.9908477"><ele>452.0</ele><time>2026-04-05T15:25:32.424Z</time></trkpt><trkpt lat="42.8783309" lon="12.9909284"><ele>452.0</ele><time>2026-04-05T15:25:33.424Z</time></trkpt><trkpt lat="42.8784348" lon="12.9909992"><ele>452.0</ele><time>2026-04-05T15:25:34.424Z</time></trkpt><trkpt lat="42.8785374" lon="12.9910718"><ele>452.0</ele><time>2026-04-05T15:25:35.423Z</time></trkpt><trkpt lat="42.8786313" lon="12.9911427"><ele>452.0</ele><time>2026-04-05T15:25:36.423Z</time></trkpt><trkpt lat="42.8787397" lon="12.9912068"><ele>452.0</ele><time>2026-04-05T15:25:37.424Z</time></trkpt><trkpt lat="42.8788436" lon="12.9912654"><ele>452.0</ele><time>2026-04-05T15:25:38.424Z</time></trkpt><trkpt lat="42.8789515" lon="12.9913126"><ele>452.0</ele><time>2026-04-05T15:25:39.423Z</time></trkpt><trkpt lat="42.8790635" lon="12.991355"><ele>452.0</ele><time>2026-04-05T15:25:40.424Z</time></trkpt><trkpt lat="42.8791695" lon="12.9913992"><ele>452.00000000000006</ele><time>2026-04-05T15:25:41.423Z</time></trkpt><trkpt lat="42.8792739" lon="12.9914441"><ele>452.00000000000006</ele><time>2026-04-05T15:25:42.423Z</time></trkpt><trkpt lat="42.8793755" lon="12.9914965"><ele>452.0</ele><time>2026-04-05T15:25:43.424Z</time></trkpt><trkpt lat="42.8794831" lon="12.9915499"><ele>452.0</ele><time>2026-04-05T15:25:44.423Z</time></trkpt><trkpt lat="42.879581" lon="12.9916093"><ele>452.75</ele><time>2026-04-05T15:25:45.423Z</time></trkpt><trkpt lat="42.8796875" lon="12.9916708"><ele>453.5</ele><time>2026-04-05T15:25:46.424Z</time></trkpt><trkpt lat="42.879798" lon="12.9917358"><ele>454.25</ele><time>2026-04-05T15:25:47.424Z</time></trkpt><trkpt lat="42.8798996" lon="12.9918025"><ele>455.0</ele><time>2026-04-05T15:25:48.424Z</time></trkpt><trkpt lat="42.8800126" lon="12.9918687"><ele>455.25</ele><time>2026-04-05T15:25:49.424Z</time></trkpt><trkpt lat="42.8801264" lon="12.9919359"><ele>455.5</ele><time>2026-04-05T15:25:50.423Z</time></trkpt><trkpt lat="42.8802402" lon="12.9920152"><ele>455.75</ele><time>2026-04-05T15:25:51.424Z</time></trkpt><trkpt lat="42.8803559" lon="12.9920952"><ele>456.0</ele><time>2026-04-05T15:25:52.424Z</time></trkpt><trkpt lat="42.8804652" lon="12.9921858"><ele>456.0</ele><time>2026-04-05T15:25:53.424Z</time></trkpt><trkpt lat="42.8805827" lon="12.9922795"><ele>456.0</ele><time>2026-04-05T15:25:54.424Z</time></trkpt><trkpt lat="42.8807008" lon="12.9923797"><ele>456.0</ele><time>2026-04-05T15:25:55.424Z</time></trkpt><trkpt lat="42.8808296" lon="12.9924909"><ele>456.0</ele><time>2026-04-05T15:25:56.424Z</time></trkpt><trkpt lat="42.8809572" lon="12.9926016"><ele>456.0</ele><time>2026-04-05T15:25:57.424Z</time></trkpt><trkpt lat="42.8810778" lon="12.9927241"><ele>456.0</ele><time>2026-04-05T15:25:58.423Z</time></trkpt><trkpt lat="42.8812012" lon="12.9928229"><ele>456.0</ele><time>2026-04-05T15:25:59.424Z</time></trkpt><trkpt lat="42.8813264" lon="12.9929426"><ele>456.0</ele><time>2026-04-05T15:26:00.424Z</time></trkpt><trkpt lat="42.8814535" lon="12.9930505"><ele>456.0</ele><time>2026-04-05T15:26:01.424Z</time></trkpt><trkpt lat="42.8815857" lon="12.9931627"><ele>456.0</ele><time>2026-04-05T15:26:02.424Z</time></trkpt><trkpt lat="42.8817158" lon="12.9932751"><ele>456.0</ele><time>2026-04-05T15:26:03.423Z</time></trkpt><trkpt lat="42.8818494" lon="12.9933674"><ele>456.0</ele><time>2026-04-05T15:26:04.424Z</time></trkpt><trkpt lat="42.8820043" lon="12.9934362"><ele>456.0</ele><time>2026-04-05T15:26:05.424Z</time></trkpt><trkpt lat="42.8821613" lon="12.9934864"><ele>456.0</ele><time>2026-04-05T15:26:06.424Z</time></trkpt><trkpt lat="42.8823286" lon="12.9935167"><ele>456.0</ele><time>2026-04-05T15:26:07.424Z</time></trkpt><trkpt lat="42.882498" lon="12.9935491"><ele>456.0</ele><time>2026-04-05T15:26:08.424Z</time></trkpt><trkpt lat="42.8826612" lon="12.9935922"><ele>456.0</ele><time>2026-04-05T15:26:09.424Z</time></trkpt><trkpt lat="42.8828313" lon="12.9936475"><ele>457.66666666666663</ele><time>2026-04-05T15:26:10.424Z</time></trkpt><trkpt lat="42.8829941" lon="12.9937268"><ele>459.3333333333333</ele><time>2026-04-05T15:26:11.424Z</time></trkpt><trkpt lat="42.8831545" lon="12.9938259"><ele>461.0</ele><time>2026-04-05T15:26:12.424Z</time></trkpt><trkpt lat="42.8833084" lon="12.9939407"><ele>463.66666666666663</ele><time>2026-04-05T15:26:13.424Z</time></trkpt><trkpt lat="42.8834634" lon="12.9940697"><ele>466.33333333333337</ele><time>2026-04-05T15:26:14.424Z</time></trkpt><trkpt lat="42.883624" lon="12.9941908"><ele>469.0</ele><time>2026-04-05T15:26:15.424Z</time></trkpt><trkpt lat="42.883784" lon="12.9943047"><ele>467.6666666666667</ele><time>2026-04-05T15:26:16.424Z</time></trkpt><trkpt lat="42.8839506" lon="12.994401"><ele>466.33333333333337</ele><time>2026-04-05T15:26:17.423Z</time></trkpt><trkpt lat="42.8841247" lon="12.9945017"><ele>465.0</ele><time>2026-04-05T15:26:18.424Z</time></trkpt><trkpt lat="42.884304" lon="12.9946071"><ele>465.0</ele><time>2026-04-05T15:26:19.424Z</time></trkpt><trkpt lat="42.8844654" lon="12.9947234"><ele>465.0</ele><time>2026-04-05T15:26:20.423Z</time></trkpt><trkpt lat="42.8846375" lon="12.9948446"><ele>465.0</ele><time>2026-04-05T15:26:21.424Z</time></trkpt><trkpt lat="42.884803" lon="12.9949923"><ele>463.0</ele><time>2026-04-05T15:26:22.424Z</time></trkpt><trkpt lat="42.8849672" lon="12.9951519"><ele>461.0</ele><time>2026-04-05T15:26:23.423Z</time></trkpt><trkpt lat="42.8851327" lon="12.9953127"><ele>459.0</ele><time>2026-04-05T15:26:24.424Z</time></trkpt><trkpt lat="42.8852928" lon="12.9954851"><ele>458.66666666666663</ele><time>2026-04-05T15:26:25.424Z</time></trkpt><trkpt lat="42.8854563" lon="12.9956539"><ele>458.3333333333333</ele><time>2026-04-05T15:26:26.423Z</time></trkpt><trkpt lat="42.8856252" lon="12.9958186"><ele>458.0</ele><time>2026-04-05T15:26:27.424Z</time></trkpt><trkpt lat="42.8857989" lon="12.995991"><ele>460.0</ele><time>2026-04-05T15:26:28.424Z</time></trkpt><trkpt lat="42.8859583" lon="12.9961607"><ele>462.0</ele><time>2026-04-05T15:26:29.424Z</time></trkpt><trkpt lat="42.8861329" lon="12.9963214"><ele>464.0</ele><time>2026-04-05T15:26:30.424Z</time></trkpt><trkpt lat="42.8863161" lon="12.9964652"><ele>464.0</ele><time>2026-04-05T15:26:31.424Z</time></trkpt><trkpt lat="42.8864974" lon="12.9966013"><ele>464.0</ele><time>2026-04-05T15:26:32.424Z</time></trkpt><trkpt lat="42.8866798" lon="12.9967325"><ele>464.0</ele><time>2026-04-05T15:26:33.424Z</time></trkpt><trkpt lat="42.8868637" lon="12.9968678"><ele>463.0</ele><time>2026-04-05T15:26:34.424Z</time></trkpt><trkpt lat="42.887035" lon="12.9970022"><ele>462.0</ele><time>2026-04-05T15:26:35.424Z</time></trkpt><trkpt lat="42.887203" lon="12.9971359"><ele>461.0</ele><time>2026-04-05T15:26:36.424Z</time></trkpt><trkpt lat="42.8873778" lon="12.9972619"><ele>461.0</ele><time>2026-04-05T15:26:37.424Z</time></trkpt><trkpt lat="42.8875462" lon="12.997386"><ele>461.0</ele><time>2026-04-05T15:26:38.424Z</time></trkpt><trkpt lat="42.8877087" lon="12.9975186"><ele>461.0</ele><time>2026-04-05T15:26:39.424Z</time></trkpt><trkpt lat="42.8878641" lon="12.9976689"><ele>462.66666666666663</ele><time>2026-04-05T15:26:40.424Z</time></trkpt><trkpt lat="42.8880207" lon="12.9978289"><ele>464.33333333333337</ele><time>2026-04-05T15:26:41.424Z</time></trkpt><trkpt lat="42.8881623" lon="12.9980166"><ele>466.0</ele><time>2026-04-05T15:26:42.423Z</time></trkpt><trkpt lat="42.8883148" lon="12.9981976"><ele>468.0</ele><time>2026-04-05T15:26:43.424Z</time></trkpt><trkpt lat="42.8884537" lon="12.9983869"><ele>470.0</ele><time>2026-04-05T15:26:44.424Z</time></trkpt><trkpt lat="42.8886076" lon="12.9985687"><ele>472.0</ele><time>2026-04-05T15:26:45.424Z</time></trkpt><trkpt lat="42.8887556" lon="12.9987548"><ele>472.0</ele><time>2026-04-05T15:26:46.424Z</time></trkpt><trkpt lat="42.8889008" lon="12.9989413"><ele>472.0</ele><time>2026-04-05T15:26:47.424Z</time></trkpt><trkpt lat="42.889037" lon="12.9991316"><ele>472.0</ele><time>2026-04-05T15:26:48.423Z</time></trkpt><trkpt lat="42.8891724" lon="12.9993208"><ele>475.6666666666667</ele><time>2026-04-05T15:26:49.424Z</time></trkpt><trkpt lat="42.8892873" lon="12.9995138"><ele>479.33333333333337</ele><time>2026-04-05T15:26:50.424Z</time></trkpt><trkpt lat="42.8893651" lon="12.9997271"><ele>483.0</ele><time>2026-04-05T15:26:51.424Z</time></trkpt><trkpt lat="42.8894408" lon="12.9999542"><ele>483.0</ele><time>2026-04-05T15:26:52.423Z</time></trkpt><trkpt lat="42.8894955" lon="13.0001867"><ele>483.0</ele><time>2026-04-05T15:26:53.424Z</time></trkpt><trkpt lat="42.889543" lon="13.0004206"><ele>483.0</ele><time>2026-04-05T15:26:54.424Z</time></trkpt><trkpt lat="42.8896082" lon="13.0006422"><ele>479.0</ele><time>2026-04-05T15:26:55.423Z</time></trkpt><trkpt lat="42.8896878" lon="13.0008477"><ele>475.0</ele><time>2026-04-05T15:26:56.424Z</time></trkpt><trkpt lat="42.8897887" lon="13.0010324"><ele>471.0</ele><time>2026-04-05T15:26:57.424Z</time></trkpt><trkpt lat="42.8899128" lon="13.0012001"><ele>471.0</ele><time>2026-04-05T15:26:58.424Z</time></trkpt><trkpt lat="42.8900476" lon="13.0013555"><ele>471.0</ele><time>2026-04-05T15:26:59.424Z</time></trkpt><trkpt lat="42.8902038" lon="13.0014818"><ele>471.0</ele><time>2026-04-05T15:27:00.423Z</time></trkpt><trkpt lat="42.8903657" lon="13.0015935"><ele>470.33333333333337</ele><time>2026-04-05T15:27:01.424Z</time></trkpt><trkpt lat="42.8905332" lon="13.0016903"><ele>469.6666666666667</ele><time>2026-04-05T15:27:02.424Z</time></trkpt><trkpt lat="42.890707" lon="13.0017867"><ele>469.0</ele><time>2026-04-05T15:27:03.424Z</time></trkpt><trkpt lat="42.8908772" lon="13.0018715"><ele>473.6666666666667</ele><time>2026-04-05T15:27:04.423Z</time></trkpt><trkpt lat="42.8910404" lon="13.0019547"><ele>478.33333333333337</ele><time>2026-04-05T15:27:05.424Z</time></trkpt><trkpt lat="42.8911914" lon="13.0020472"><ele>483.0</ele><time>2026-04-05T15:27:06.423Z</time></trkpt><trkpt lat="42.8913423" lon="13.002156"><ele>483.0</ele><time>2026-04-05T15:27:07.424Z</time></trkpt><trkpt lat="42.8914786" lon="13.0022869"><ele>483.0</ele><time>2026-04-05T15:27:08.424Z</time></trkpt><trkpt lat="42.8916051" lon="13.0024455"><ele>483.0</ele><time>2026-04-05T15:27:09.423Z</time></trkpt><trkpt lat="42.8917334" lon="13.0026175"><ele>493.33333333333337</ele><time>2026-04-05T15:27:10.424Z</time></trkpt><trkpt lat="42.891844" lon="13.0028055"><ele>503.6666666666667</ele><time>2026-04-05T15:27:11.424Z</time></trkpt><trkpt lat="42.8919333" lon="13.0030098"><ele>514.0</ele><time>2026-04-05T15:27:12.424Z</time></trkpt><trkpt lat="42.8920108" lon="13.0032281"><ele>509.6666666666667</ele><time>2026-04-05T15:27:13.424Z</time></trkpt><trkpt lat="42.8920755" lon="13.0034591"><ele>505.33333333333337</ele><time>2026-04-05T15:27:14.424Z</time></trkpt><trkpt lat="42.8921264" lon="13.0037024"><ele>501.0</ele><time>2026-04-05T15:27:15.424Z</time></trkpt><trkpt lat="42.8921651" lon="13.0039528"><ele>497.66666666666663</ele><time>2026-04-05T15:27:16.423Z</time></trkpt><trkpt lat="42.8922109" lon="13.0042166"><ele>494.3333333333333</ele><time>2026-04-05T15:27:17.424Z</time></trkpt><trkpt lat="42.8922577" lon="13.0044754"><ele>491.0</ele><time>2026-04-05T15:27:18.423Z</time></trkpt><trkpt lat="42.892307" lon="13.0047258"><ele>491.0</ele><time>2026-04-05T15:27:19.423Z</time></trkpt><trkpt lat="42.8923619" lon="13.0049582"><ele>491.0</ele><time>2026-04-05T15:27:20.424Z</time></trkpt><trkpt lat="42.8924244" lon="13.0051731"><ele>491.0</ele><time>2026-04-05T15:27:21.423Z</time></trkpt><trkpt lat="42.8924966" lon="13.005378"><ele>486.66666666666663</ele><time>2026-04-05T15:27:22.424Z</time></trkpt><trkpt lat="42.8925844" lon="13.0055841"><ele>482.33333333333337</ele><time>2026-04-05T15:27:23.423Z</time></trkpt><trkpt lat="42.8926883" lon="13.0057836"><ele>478.0</ele><time>2026-04-05T15:27:24.424Z</time></trkpt><trkpt lat="42.8928084" lon="13.0059707"><ele>487.0</ele><time>2026-04-05T15:27:25.424Z</time></trkpt><trkpt lat="42.8929452" lon="13.0061524"><ele>496.0</ele><time>2026-04-05T15:27:26.424Z</time></trkpt><trkpt lat="42.8930868" lon="13.0063333"><ele>505.0</ele><time>2026-04-05T15:27:27.424Z</time></trkpt><trkpt lat="42.8932192" lon="13.0065194"><ele>507.33333333333337</ele><time>2026-04-05T15:27:28.424Z</time></trkpt><trkpt lat="42.8933642" lon="13.0067089"><ele>509.66666666666663</ele><time>2026-04-05T15:27:29.423Z</time></trkpt><trkpt lat="42.893511" lon="13.0068991"><ele>512.0</ele><time>2026-04-05T15:27:30.423Z</time></trkpt><trkpt lat="42.8936619" lon="13.007085"><ele>512.0</ele><time>2026-04-05T15:27:31.424Z</time></trkpt><trkpt lat="42.8938123" lon="13.0072752"><ele>512.0</ele><time>2026-04-05T15:27:32.423Z</time></trkpt><trkpt lat="42.8939423" lon="13.0074877"><ele>512.0</ele><time>2026-04-05T15:27:33.424Z</time></trkpt><trkpt lat="42.8940626" lon="13.007705"><ele>510.3333333333333</ele><time>2026-04-05T15:27:34.424Z</time></trkpt><trkpt lat="42.8941708" lon="13.0079166"><ele>508.66666666666663</ele><time>2026-04-05T15:27:35.423Z</time></trkpt><trkpt lat="42.8942771" lon="13.0081549"><ele>507.0</ele><time>2026-04-05T15:27:36.424Z</time></trkpt><trkpt lat="42.8943798" lon="13.0083913"><ele>499.0</ele><time>2026-04-05T15:27:37.423Z</time></trkpt><trkpt lat="42.8944825" lon="13.0086199"><ele>491.0</ele><time>2026-04-05T15:27:38.424Z</time></trkpt><trkpt lat="42.894582" lon="13.0088467"><ele>483.0</ele><time>2026-04-05T15:27:39.423Z</time></trkpt><trkpt lat="42.8946734" lon="13.0090581"><ele>480.0</ele><time>2026-04-05T15:27:40.423Z</time></trkpt><trkpt lat="42.8947688" lon="13.0092541"><ele>477.0</ele><time>2026-04-05T15:27:41.424Z</time></trkpt><trkpt lat="42.8948754" lon="13.0094391"><ele>474.0</ele><time>2026-04-05T15:27:42.424Z</time></trkpt><trkpt lat="42.8949859" lon="13.0096122"><ele>475.0</ele><time>2026-04-05T15:27:43.423Z</time></trkpt><trkpt lat="42.8951135" lon="13.0097697"><ele>476.0</ele><time>2026-04-05T15:27:44.424Z</time></trkpt><trkpt lat="42.8952561" lon="13.0099153"><ele>477.0</ele><time>2026-04-05T15:27:45.423Z</time></trkpt><trkpt lat="42.8953953" lon="13.0100628"><ele>475.0</ele><time>2026-04-05T15:27:46.424Z</time></trkpt><trkpt lat="42.8955448" lon="13.0102018"><ele>473.0</ele><time>2026-04-05T15:27:47.424Z</time></trkpt><trkpt lat="42.8957057" lon="13.0103438"><ele>471.0</ele><time>2026-04-05T15:27:48.424Z</time></trkpt><trkpt lat="42.8958628" lon="13.0104843"><ele>473.66666666666663</ele><time>2026-04-05T15:27:49.424Z</time></trkpt><trkpt lat="42.8960166" lon="13.0106257"><ele>476.3333333333333</ele><time>2026-04-05T15:27:50.424Z</time></trkpt><trkpt lat="42.8961664" lon="13.0107625"><ele>479.0</ele><time>2026-04-05T15:27:51.424Z</time></trkpt><trkpt lat="42.8963047" lon="13.0108888"><ele>479.0</ele><time>2026-04-05T15:27:52.424Z</time></trkpt><trkpt lat="42.8964486" lon="13.0109949"><ele>479.0</ele><time>2026-04-05T15:27:53.424Z</time></trkpt><trkpt lat="42.8965932" lon="13.0110917"><ele>479.0</ele><time>2026-04-05T15:27:54.423Z</time></trkpt><trkpt lat="42.8967469" lon="13.0111656"><ele>482.66666666666663</ele><time>2026-04-05T15:27:55.424Z</time></trkpt><trkpt lat="42.8969043" lon="13.0112257"><ele>486.33333333333337</ele><time>2026-04-05T15:27:56.424Z</time></trkpt><trkpt lat="42.8970602" lon="13.0112786"><ele>490.0</ele><time>2026-04-05T15:27:57.423Z</time></trkpt><trkpt lat="42.8972121" lon="13.0113211"><ele>490.0</ele><time>2026-04-05T15:27:58.424Z</time></trkpt><trkpt lat="42.8973456" lon="13.0113423"><ele>490.0</ele><time>2026-04-05T15:27:59.424Z</time></trkpt><trkpt lat="42.8974748" lon="13.0113298"><ele>490.0</ele><time>2026-04-05T15:28:00.424Z</time></trkpt><trkpt lat="42.8976045" lon="13.0112801"><ele>490.0</ele><time>2026-04-05T15:28:01.424Z</time></trkpt><trkpt lat="42.8977394" lon="13.0112065"><ele>487.33333333333337</ele><time>2026-04-05T15:28:02.423Z</time></trkpt><trkpt lat="42.8978752" lon="13.0111262"><ele>484.66666666666663</ele><time>2026-04-05T15:28:03.424Z</time></trkpt><trkpt lat="42.8980203" lon="13.0110373"><ele>482.0</ele><time>2026-04-05T15:28:04.424Z</time></trkpt><trkpt lat="42.8981711" lon="13.0109702"><ele>482.0</ele><time>2026-04-05T15:28:05.424Z</time></trkpt><trkpt lat="42.8983221" lon="13.0109291"><ele>482.0</ele><time>2026-04-05T15:28:06.424Z</time></trkpt><trkpt lat="42.8984833" lon="13.0109171"><ele>482.0</ele><time>2026-04-05T15:28:07.424Z</time></trkpt><trkpt lat="42.8986547" lon="13.0109476"><ele>486.66666666666663</ele><time>2026-04-05T15:28:08.424Z</time></trkpt><trkpt lat="42.8988306" lon="13.0109794"><ele>491.33333333333337</ele><time>2026-04-05T15:28:09.424Z</time></trkpt><trkpt lat="42.8989988" lon="13.01102"><ele>496.0</ele><time>2026-04-05T15:28:10.424Z</time></trkpt><trkpt lat="42.8991683" lon="13.0110546"><ele>509.0</ele><time>2026-04-05T15:28:11.424Z</time></trkpt><trkpt lat="42.8993294" lon="13.0111147"><ele>522.0</ele><time>2026-04-05T15:28:12.424Z</time></trkpt><trkpt lat="42.8994853" lon="13.0112024"><ele>535.0</ele><time>2026-04-05T15:28:13.424Z</time></trkpt><trkpt lat="42.8996307" lon="13.0113093"><ele>535.0</ele><time>2026-04-05T15:28:14.423Z</time></trkpt><trkpt lat="42.8997822" lon="13.011415"><ele>535.0</ele><time>2026-04-05T15:28:15.424Z</time></trkpt><trkpt lat="42.8999374" lon="13.0115302"><ele>535.0</ele><time>2026-04-05T15:28:16.424Z</time></trkpt><trkpt lat="42.9000899" lon="13.0116608"><ele>531.3333333333334</ele><time>2026-04-05T15:28:17.424Z</time></trkpt><trkpt lat="42.9002471" lon="13.011779"><ele>527.6666666666666</ele><time>2026-04-05T15:28:18.424Z</time></trkpt><trkpt lat="42.9003966" lon="13.0118834"><ele>524.0</ele><time>2026-04-05T15:28:19.424Z</time></trkpt><trkpt lat="42.9005361" lon="13.0119961"><ele>524.0</ele><time>2026-04-05T15:28:20.424Z</time></trkpt><trkpt lat="42.9006592" lon="13.0121221"><ele>524.0</ele><time>2026-04-05T15:28:21.423Z</time></trkpt><trkpt lat="42.9007658" lon="13.0122743"><ele>524.0</ele><time>2026-04-05T15:28:22.423Z</time></trkpt><trkpt lat="42.9008591" lon="13.012438"><ele>529.0</ele><time>2026-04-05T15:28:23.424Z</time></trkpt><trkpt lat="42.9009382" lon="13.0126226"><ele>534.0</ele><time>2026-04-05T15:28:24.424Z</time></trkpt><trkpt lat="42.9009968" lon="13.0128391"><ele>539.0</ele><time>2026-04-05T15:28:25.424Z</time></trkpt><trkpt lat="42.9010489" lon="13.0130744"><ele>539.0</ele><time>2026-04-05T15:28:26.423Z</time></trkpt><trkpt lat="42.9011006" lon="13.0133146"><ele>539.0</ele><time>2026-04-05T15:28:27.424Z</time></trkpt><trkpt lat="42.9011544" lon="13.013577"><ele>539.0</ele><time>2026-04-05T15:28:28.423Z</time></trkpt><trkpt lat="42.9011974" lon="13.0138413"><ele>532.3333333333333</ele><time>2026-04-05T15:28:29.424Z</time></trkpt><trkpt lat="42.9012342" lon="13.0140997"><ele>525.6666666666666</ele><time>2026-04-05T15:28:30.424Z</time></trkpt><trkpt lat="42.9012843" lon="13.0143559"><ele>519.0</ele><time>2026-04-05T15:28:31.424Z</time></trkpt><trkpt lat="42.9013341" lon="13.014616"><ele>515.0</ele><time>2026-04-05T15:28:32.423Z</time></trkpt><trkpt lat="42.9013784" lon="13.0148948"><ele>511.0</ele><time>2026-04-05T15:28:33.424Z</time></trkpt><trkpt lat="42.9014121" lon="13.0151628"><ele>507.0</ele><time>2026-04-05T15:28:34.423Z</time></trkpt><trkpt lat="42.9014614" lon="13.0154339"><ele>504.66666666666663</ele><time>2026-04-05T15:28:35.424Z</time></trkpt><trkpt lat="42.9015053" lon="13.0156861"><ele>502.3333333333333</ele><time>2026-04-05T15:28:36.424Z</time></trkpt><trkpt lat="42.9015544" lon="13.0159261"><ele>500.0</ele><time>2026-04-05T15:28:37.423Z</time></trkpt><trkpt lat="42.9016074" lon="13.0161476"><ele>497.66666666666663</ele><time>2026-04-05T15:28:38.424Z</time></trkpt><trkpt lat="42.9016814" lon="13.0163568"><ele>495.33333333333337</ele><time>2026-04-05T15:28:39.424Z</time></trkpt><trkpt lat="42.901776" lon="13.0165507"><ele>493.0</ele><time>2026-04-05T15:28:40.424Z</time></trkpt><trkpt lat="42.9018841" lon="13.0167267"><ele>500.0</ele><time>2026-04-05T15:28:41.424Z</time></trkpt><trkpt lat="42.9020159" lon="13.0168911"><ele>507.0</ele><time>2026-04-05T15:28:42.424Z</time></trkpt><trkpt lat="42.9021621" lon="13.0170476"><ele>514.0</ele><time>2026-04-05T15:28:43.424Z</time></trkpt><trkpt lat="42.9023225" lon="13.0171903"><ele>514.0</ele><time>2026-04-05T15:28:44.424Z</time></trkpt><trkpt lat="42.9024874" lon="13.0173346"><ele>514.0</ele><time>2026-04-05T15:28:45.423Z</time></trkpt><trkpt lat="42.9026596" lon="13.0174784"><ele>514.0</ele><time>2026-04-05T15:28:46.423Z</time></trkpt><trkpt lat="42.9028368" lon="13.0176165"><ele>512.0</ele><time>2026-04-05T15:28:47.424Z</time></trkpt><trkpt lat="42.9030031" lon="13.0177457"><ele>510.0</ele><time>2026-04-05T15:28:48.424Z</time></trkpt><trkpt lat="42.9031668" lon="13.0178704"><ele>508.0</ele><time>2026-04-05T15:28:49.424Z</time></trkpt><trkpt lat="42.903318" lon="13.0179881"><ele>509.33333333333337</ele><time>2026-04-05T15:28:50.424Z</time></trkpt><trkpt lat="42.9034567" lon="13.0181162"><ele>510.66666666666663</ele><time>2026-04-05T15:28:51.424Z</time></trkpt><trkpt lat="42.9035837" lon="13.0182549"><ele>512.0</ele><time>2026-04-05T15:28:52.424Z</time></trkpt><trkpt lat="42.9037126" lon="13.0183918"><ele>512.0</ele><time>2026-04-05T15:28:53.423Z</time></trkpt><trkpt lat="42.9038119" lon="13.0185636"><ele>512.0</ele><time>2026-04-05T15:28:54.423Z</time></trkpt><trkpt lat="42.903899" lon="13.0187536"><ele>512.0</ele><time>2026-04-05T15:28:55.424Z</time></trkpt><trkpt lat="42.9039558" lon="13.0189733"><ele>507.0</ele><time>2026-04-05T15:28:56.424Z</time></trkpt><trkpt lat="42.9040065" lon="13.0191919"><ele>502.0</ele><time>2026-04-05T15:28:57.424Z</time></trkpt><trkpt lat="42.9040345" lon="13.019425"><ele>497.0</ele><time>2026-04-05T15:28:58.423Z</time></trkpt><trkpt lat="42.9040312" lon="13.0196745"><ele>497.0</ele><time>2026-04-05T15:28:59.424Z</time></trkpt><trkpt lat="42.9040182" lon="13.0199207"><ele>497.0</ele><time>2026-04-05T15:29:00.424Z</time></trkpt><trkpt lat="42.9039895" lon="13.0201698"><ele>497.0</ele><time>2026-04-05T15:29:01.424Z</time></trkpt><trkpt lat="42.9039643" lon="13.0204211"><ele>497.66666666666663</ele><time>2026-04-05T15:29:02.424Z</time></trkpt><trkpt lat="42.9039569" lon="13.0206801"><ele>498.33333333333337</ele><time>2026-04-05T15:29:03.424Z</time></trkpt><trkpt lat="42.9039549" lon="13.0209418"><ele>499.0</ele><time>2026-04-05T15:29:04.424Z</time></trkpt><trkpt lat="42.9039789" lon="13.0212097"><ele>499.33333333333337</ele><time>2026-04-05T15:29:05.424Z</time></trkpt><trkpt lat="42.903987" lon="13.0214668"><ele>499.66666666666663</ele><time>2026-04-05T15:29:06.424Z</time></trkpt><trkpt lat="42.9039925" lon="13.0217223"><ele>500.0</ele><time>2026-04-05T15:29:07.424Z</time></trkpt><trkpt lat="42.9039606" lon="13.0219716"><ele>500.0</ele><time>2026-04-05T15:29:08.424Z</time></trkpt><trkpt lat="42.9038942" lon="13.0222097"><ele>500.0</ele><time>2026-04-05T15:29:09.424Z</time></trkpt><trkpt lat="42.9038214" lon="13.0224465"><ele>500.0</ele><time>2026-04-05T15:29:10.423Z</time></trkpt><trkpt lat="42.903741" lon="13.0226929"><ele>500.66666666666663</ele><time>2026-04-05T15:29:11.424Z</time></trkpt><trkpt lat="42.9036513" lon="13.0229335"><ele>501.33333333333337</ele><time>2026-04-05T15:29:12.424Z</time></trkpt><trkpt lat="42.9035629" lon="13.0231788"><ele>502.0</ele><time>2026-04-05T15:29:13.424Z</time></trkpt><trkpt lat="42.9034685" lon="13.0234263"><ele>498.6666666666667</ele><time>2026-04-05T15:29:14.424Z</time></trkpt><trkpt lat="42.9033709" lon="13.0236768"><ele>495.33333333333337</ele><time>2026-04-05T15:29:15.424Z</time></trkpt><trkpt lat="42.9032737" lon="13.0239315"><ele>492.0</ele><time>2026-04-05T15:29:16.424Z</time></trkpt><trkpt lat="42.9031805" lon="13.0241812"><ele>492.0</ele><time>2026-04-05T15:29:17.424Z</time></trkpt><trkpt lat="42.9030623" lon="13.0244214"><ele>492.0</ele><time>2026-04-05T15:29:18.424Z</time></trkpt><trkpt lat="42.902965" lon="13.0246568"><ele>492.0</ele><time>2026-04-05T15:29:19.423Z</time></trkpt><trkpt lat="42.9028746" lon="13.0248637"><ele>491.0</ele><time>2026-04-05T15:29:20.424Z</time></trkpt><trkpt lat="42.9027889" lon="13.0250459"><ele>490.0</ele><time>2026-04-05T15:29:21.424Z</time></trkpt><trkpt lat="42.9027161" lon="13.0252195"><ele>489.0</ele><time>2026-04-05T15:29:22.424Z</time></trkpt><trkpt lat="42.9026359" lon="13.0253674"><ele>488.0</ele><time>2026-04-05T15:29:23.424Z</time></trkpt><trkpt lat="42.902579" lon="13.0255289"><ele>488.0</ele><time>2026-04-05T15:29:24.424Z</time></trkpt><trkpt lat="42.9025595" lon="13.0256844"><ele>488.0</ele><time>2026-04-05T15:29:25.424Z</time></trkpt><trkpt lat="42.9025719" lon="13.0258574"><ele>488.0</ele><time>2026-04-05T15:29:26.424Z</time></trkpt><trkpt lat="42.9026228" lon="13.0260146"><ele>488.0</ele><time>2026-04-05T15:29:27.423Z</time></trkpt><trkpt lat="42.9026985" lon="13.0261672"><ele>498.66666666666663</ele><time>2026-04-05T15:29:28.424Z</time></trkpt><trkpt lat="42.9028078" lon="13.026308"><ele>509.33333333333337</ele><time>2026-04-05T15:29:29.424Z</time></trkpt><trkpt lat="42.9029247" lon="13.0264413"><ele>520.0</ele><time>2026-04-05T15:29:30.424Z</time></trkpt><trkpt lat="42.9030578" lon="13.0265736"><ele>525.3333333333334</ele><time>2026-04-05T15:29:31.424Z</time></trkpt><trkpt lat="42.9031947" lon="13.0267275"><ele>530.6666666666666</ele><time>2026-04-05T15:29:32.424Z</time></trkpt><trkpt lat="42.9033498" lon="13.0268664"><ele>536.0</ele><time>2026-04-05T15:29:33.424Z</time></trkpt><trkpt lat="42.9034985" lon="13.0270118"><ele>536.0</ele><time>2026-04-05T15:29:34.424Z</time></trkpt><trkpt lat="42.903649" lon="13.0271618"><ele>536.0</ele><time>2026-04-05T15:29:35.424Z</time></trkpt><trkpt lat="42.9037996" lon="13.027318"><ele>536.0</ele><time>2026-04-05T15:29:36.424Z</time></trkpt><trkpt lat="42.9039474" lon="13.0274793"><ele>539.0</ele><time>2026-04-05T15:29:37.424Z</time></trkpt><trkpt lat="42.9040823" lon="13.0276682"><ele>542.0</ele><time>2026-04-05T15:29:38.424Z</time></trkpt><trkpt lat="42.9042003" lon="13.027867"><ele>545.0</ele><time>2026-04-05T15:29:39.424Z</time></trkpt><trkpt lat="42.9043091" lon="13.0280642"><ele>545.0</ele><time>2026-04-05T15:29:40.424Z</time></trkpt><trkpt lat="42.9044075" lon="13.0282475"><ele>545.0</ele><time>2026-04-05T15:29:41.424Z</time></trkpt><trkpt lat="42.9045041" lon="13.0284085"><ele>545.0</ele><time>2026-04-05T15:29:42.424Z</time></trkpt><trkpt lat="42.9046122" lon="13.0285398"><ele>537.0</ele><time>2026-04-05T15:29:43.424Z</time></trkpt><trkpt lat="42.904724" lon="13.0286289"><ele>529.0</ele><time>2026-04-05T15:29:44.424Z</time></trkpt><trkpt lat="42.9048786" lon="13.0286812"><ele>521.0</ele><time>2026-04-05T15:29:45.424Z</time></trkpt><trkpt lat="42.9050364" lon="13.0287074"><ele>513.0</ele><time>2026-04-05T15:29:46.424Z</time></trkpt><trkpt lat="42.9051956" lon="13.0287041"><ele>513.0</ele><time>2026-04-05T15:29:47.423Z</time></trkpt><trkpt lat="42.9053747" lon="13.0287146"><ele>513.0</ele><time>2026-04-05T15:29:48.424Z</time></trkpt><trkpt lat="42.9055464" lon="13.0287318"><ele>513.0</ele><time>2026-04-05T15:29:49.424Z</time></trkpt><trkpt lat="42.9057162" lon="13.028757"><ele>513.0</ele><time>2026-04-05T15:29:50.423Z</time></trkpt><trkpt lat="42.9058836" lon="13.0287924"><ele>513.0</ele><time>2026-04-05T15:29:51.424Z</time></trkpt><trkpt lat="42.906045" lon="13.0288618"><ele>513.0</ele><time>2026-04-05T15:29:52.424Z</time></trkpt><trkpt lat="42.9061906" lon="13.0289477"><ele>514.0</ele><time>2026-04-05T15:29:53.424Z</time></trkpt><trkpt lat="42.9063183" lon="13.0290567"><ele>515.0</ele><time>2026-04-05T15:29:54.423Z</time></trkpt><trkpt lat="42.9064333" lon="13.0291961"><ele>516.0</ele><time>2026-04-05T15:29:55.424Z</time></trkpt><trkpt lat="42.9065256" lon="13.0293572"><ele>512.3333333333334</ele><time>2026-04-05T15:29:56.424Z</time></trkpt><trkpt lat="42.9066322" lon="13.0295203"><ele>508.6666666666667</ele><time>2026-04-05T15:29:57.424Z</time></trkpt><trkpt lat="42.9067419" lon="13.0296866"><ele>505.0</ele><time>2026-04-05T15:29:58.424Z</time></trkpt><trkpt lat="42.9068441" lon="13.029857"><ele>505.33333333333337</ele><time>2026-04-05T15:29:59.424Z</time></trkpt><trkpt lat="42.906934" lon="13.0300331"><ele>505.66666666666663</ele><time>2026-04-05T15:30:00.424Z</time></trkpt><trkpt lat="42.9070243" lon="13.0302119"><ele>506.0</ele><time>2026-04-05T15:30:01.424Z</time></trkpt><trkpt lat="42.9071035" lon="13.0304056"><ele>506.0</ele><time>2026-04-05T15:30:02.423Z</time></trkpt><trkpt lat="42.9071625" lon="13.0306145"><ele>506.0</ele><time>2026-04-05T15:30:03.424Z</time></trkpt><trkpt lat="42.9071954" lon="13.0308395"><ele>506.0</ele><time>2026-04-05T15:30:04.423Z</time></trkpt><trkpt lat="42.9072147" lon="13.0310689"><ele>507.66666666666663</ele><time>2026-04-05T15:30:05.424Z</time></trkpt><trkpt lat="42.9072228" lon="13.0313214"><ele>509.33333333333337</ele><time>2026-04-05T15:30:06.423Z</time></trkpt><trkpt lat="42.9072291" lon="13.0315719"><ele>511.0</ele><time>2026-04-05T15:30:07.423Z</time></trkpt><trkpt lat="42.9072278" lon="13.0318126"><ele>511.0</ele><time>2026-04-05T15:30:08.424Z</time></trkpt><trkpt lat="42.9072289" lon="13.0320466"><ele>511.0</ele><time>2026-04-05T15:30:09.424Z</time></trkpt><trkpt lat="42.907234" lon="13.0322713"><ele>511.0</ele><time>2026-04-05T15:30:10.424Z</time></trkpt><trkpt lat="42.9072406" lon="13.0324736"><ele>510.0</ele><time>2026-04-05T15:30:11.424Z</time></trkpt><trkpt lat="42.9072556" lon="13.0326539"><ele>509.0</ele><time>2026-04-05T15:30:12.424Z</time></trkpt><trkpt lat="42.9072973" lon="13.0328161"><ele>508.0</ele><time>2026-04-05T15:30:13.424Z</time></trkpt><trkpt lat="42.9073568" lon="13.0329579"><ele>507.0</ele><time>2026-04-05T15:30:14.424Z</time></trkpt><trkpt lat="42.9074506" lon="13.0330675"><ele>507.0</ele><time>2026-04-05T15:30:15.424Z</time></trkpt><trkpt lat="42.9075587" lon="13.0331571"><ele>507.0</ele><time>2026-04-05T15:30:16.424Z</time></trkpt><trkpt lat="42.9076884" lon="13.033215"><ele>507.0</ele><time>2026-04-05T15:30:17.424Z</time></trkpt><trkpt lat="42.9078588" lon="13.0332798"><ele>507.0</ele><time>2026-04-05T15:30:18.424Z</time></trkpt><trkpt lat="42.9080148" lon="13.0333694"><ele>510.5</ele><time>2026-04-05T15:30:19.424Z</time></trkpt><trkpt lat="42.9081475" lon="13.0334738"><ele>514.0</ele><time>2026-04-05T15:30:20.424Z</time></trkpt><trkpt lat="42.9082657" lon="13.0336126"><ele>517.5</ele><time>2026-04-05T15:30:21.424Z</time></trkpt><trkpt lat="42.9083474" lon="13.033767"><ele>521.0</ele><time>2026-04-05T15:30:22.424Z</time></trkpt><trkpt lat="42.9084153" lon="13.0339411"><ele>526.3333333333333</ele><time>2026-04-05T15:30:23.424Z</time></trkpt><trkpt lat="42.9084599" lon="13.0341279"><ele>531.6666666666666</ele><time>2026-04-05T15:30:24.424Z</time></trkpt><trkpt lat="42.9084998" lon="13.0343321"><ele>537.0</ele><time>2026-04-05T15:30:25.424Z</time></trkpt><trkpt lat="42.9085345" lon="13.0345449"><ele>537.0</ele><time>2026-04-05T15:30:26.424Z</time></trkpt><trkpt lat="42.908567" lon="13.0347573"><ele>537.0</ele><time>2026-04-05T15:30:27.424Z</time></trkpt><trkpt lat="42.9085877" lon="13.0349596"><ele>537.0</ele><time>2026-04-05T15:30:28.424Z</time></trkpt><trkpt lat="42.9085946" lon="13.0351576"><ele>534.5</ele><time>2026-04-05T15:30:29.424Z</time></trkpt><trkpt lat="42.9085678" lon="13.0353483"><ele>532.0</ele><time>2026-04-05T15:30:30.424Z</time></trkpt><trkpt lat="42.9085033" lon="13.0355215"><ele>529.5</ele><time>2026-04-05T15:30:31.424Z</time></trkpt><trkpt lat="42.9084198" lon="13.0356842"><ele>527.0</ele><time>2026-04-05T15:30:32.424Z</time></trkpt><trkpt lat="42.9083296" lon="13.0358476"><ele>519.0</ele><time>2026-04-05T15:30:33.424Z</time></trkpt><trkpt lat="42.9082686" lon="13.0360345"><ele>511.0</ele><time>2026-04-05T15:30:34.424Z</time></trkpt><trkpt lat="42.9082295" lon="13.0362479"><ele>503.0</ele><time>2026-04-05T15:30:35.423Z</time></trkpt><trkpt lat="42.908198" lon="13.0364634"><ele>505.75</ele><time>2026-04-05T15:30:36.424Z</time></trkpt><trkpt lat="42.9081731" lon="13.0366766"><ele>508.5</ele><time>2026-04-05T15:30:37.424Z</time></trkpt><trkpt lat="42.9081505" lon="13.036886"><ele>511.25</ele><time>2026-04-05T15:30:38.424Z</time></trkpt><trkpt lat="42.9081513" lon="13.0370678"><ele>514.0</ele><time>2026-04-05T15:30:39.424Z</time></trkpt><trkpt lat="42.90823" lon="13.0372335"><ele>514.0</ele><time>2026-04-05T15:30:40.424Z</time></trkpt><trkpt lat="42.9083181" lon="13.0373942"><ele>514.0</ele><time>2026-04-05T15:30:41.424Z</time></trkpt><trkpt lat="42.9084179" lon="13.037542"><ele>514.0</ele><time>2026-04-05T15:30:42.423Z</time></trkpt><trkpt lat="42.9085288" lon="13.0377"><ele>528.3333333333334</ele><time>2026-04-05T15:30:43.424Z</time></trkpt><trkpt lat="42.9086629" lon="13.03787"><ele>542.6666666666666</ele><time>2026-04-05T15:30:44.424Z</time></trkpt><trkpt lat="42.9087877" lon="13.0380454"><ele>557.0</ele><time>2026-04-05T15:30:45.424Z</time></trkpt><trkpt lat="42.9089057" lon="13.0382376"><ele>543.0</ele><time>2026-04-05T15:30:46.423Z</time></trkpt><trkpt lat="42.9090189" lon="13.0384255"><ele>529.0</ele><time>2026-04-05T15:30:47.424Z</time></trkpt><trkpt lat="42.90913" lon="13.038604"><ele>515.0</ele><time>2026-04-05T15:30:48.423Z</time></trkpt><trkpt lat="42.9092378" lon="13.0387803"><ele>517.0</ele><time>2026-04-05T15:30:49.424Z</time></trkpt><trkpt lat="42.9093474" lon="13.0389559"><ele>519.0</ele><time>2026-04-05T15:30:50.424Z</time></trkpt><trkpt lat="42.9094608" lon="13.0391314"><ele>521.0</ele><time>2026-04-05T15:30:51.424Z</time></trkpt><trkpt lat="42.9095703" lon="13.039314"><ele>521.0</ele><time>2026-04-05T15:30:52.424Z</time></trkpt><trkpt lat="42.9096794" lon="13.0394951"><ele>521.0</ele><time>2026-04-05T15:30:53.424Z</time></trkpt><trkpt lat="42.9097958" lon="13.0396839"><ele>521.0</ele><time>2026-04-05T15:30:54.423Z</time></trkpt><trkpt lat="42.9099108" lon="13.0398744"><ele>521.3333333333333</ele><time>2026-04-05T15:30:55.423Z</time></trkpt><trkpt lat="42.9100264" lon="13.0400667"><ele>521.6666666666666</ele><time>2026-04-05T15:30:56.424Z</time></trkpt><trkpt lat="42.9101437" lon="13.0402579"><ele>522.0</ele><time>2026-04-05T15:30:57.424Z</time></trkpt><trkpt lat="42.9102674" lon="13.0404462"><ele>522.0</ele><time>2026-04-05T15:30:58.424Z</time></trkpt><trkpt lat="42.9103989" lon="13.040631"><ele>522.0</ele><time>2026-04-05T15:30:59.424Z</time></trkpt><trkpt lat="42.9105327" lon="13.0408082"><ele>522.0</ele><time>2026-04-05T15:31:00.424Z</time></trkpt><trkpt lat="42.910671" lon="13.0409745"><ele>523.0</ele><time>2026-04-05T15:31:01.424Z</time></trkpt><trkpt lat="42.9108247" lon="13.0411332"><ele>524.0</ele><time>2026-04-05T15:31:02.424Z</time></trkpt><trkpt lat="42.9109798" lon="13.0412839"><ele>525.0</ele><time>2026-04-05T15:31:03.423Z</time></trkpt><trkpt lat="42.9111318" lon="13.0414244"><ele>525.0</ele><time>2026-04-05T15:31:04.424Z</time></trkpt><trkpt lat="42.9113022" lon="13.041535"><ele>525.0</ele><time>2026-04-05T15:31:05.423Z</time></trkpt><trkpt lat="42.9114778" lon="13.0416512"><ele>525.0</ele><time>2026-04-05T15:31:06.424Z</time></trkpt><trkpt lat="42.9116536" lon="13.0417602"><ele>521.3333333333334</ele><time>2026-04-05T15:31:07.424Z</time></trkpt><trkpt lat="42.9118159" lon="13.0418565"><ele>517.6666666666667</ele><time>2026-04-05T15:31:08.424Z</time></trkpt><trkpt lat="42.9119755" lon="13.0419488"><ele>514.0</ele><time>2026-04-05T15:31:09.424Z</time></trkpt><trkpt lat="42.9121306" lon="13.0420219"><ele>514.0</ele><time>2026-04-05T15:31:10.423Z</time></trkpt><trkpt lat="42.9122947" lon="13.0420789"><ele>514.0</ele><time>2026-04-05T15:31:11.424Z</time></trkpt><trkpt lat="42.912456" lon="13.042132"><ele>514.0</ele><time>2026-04-05T15:31:12.424Z</time></trkpt><trkpt lat="42.9126391" lon="13.0421652"><ele>516.0</ele><time>2026-04-05T15:31:13.424Z</time></trkpt><trkpt lat="42.9128158" lon="13.0421707"><ele>518.0</ele><time>2026-04-05T15:31:14.423Z</time></trkpt><trkpt lat="42.9129887" lon="13.0421769"><ele>520.0</ele><time>2026-04-05T15:31:15.424Z</time></trkpt><trkpt lat="42.9131618" lon="13.0421733"><ele>520.0</ele><time>2026-04-05T15:31:16.423Z</time></trkpt><trkpt lat="42.9133254" lon="13.0421677"><ele>520.0</ele><time>2026-04-05T15:31:17.424Z</time></trkpt><trkpt lat="42.9134775" lon="13.042189"><ele>520.0</ele><time>2026-04-05T15:31:18.424Z</time></trkpt><trkpt lat="42.9136203" lon="13.042256"><ele>519.75</ele><time>2026-04-05T15:31:19.424Z</time></trkpt><trkpt lat="42.913742" lon="13.042334"><ele>519.5</ele><time>2026-04-05T15:31:20.424Z</time></trkpt><trkpt lat="42.9138469" lon="13.0424542"><ele>519.25</ele><time>2026-04-05T15:31:21.424Z</time></trkpt><trkpt lat="42.9139465" lon="13.0425968"><ele>519.0</ele><time>2026-04-05T15:31:22.424Z</time></trkpt><trkpt lat="42.9140574" lon="13.0427562"><ele>519.0</ele><time>2026-04-05T15:31:23.424Z</time></trkpt><trkpt lat="42.9141734" lon="13.0429268"><ele>519.0</ele><time>2026-04-05T15:31:24.423Z</time></trkpt><trkpt lat="42.9142999" lon="13.0431109"><ele>519.0</ele><time>2026-04-05T15:31:25.424Z</time></trkpt><trkpt lat="42.9144325" lon="13.0433067"><ele>521.0</ele><time>2026-04-05T15:31:26.423Z</time></trkpt><trkpt lat="42.9145654" lon="13.0435046"><ele>523.0</ele><time>2026-04-05T15:31:27.424Z</time></trkpt><trkpt lat="42.9146942" lon="13.0436977"><ele>525.0</ele><time>2026-04-05T15:31:28.424Z</time></trkpt><trkpt lat="42.9148238" lon="13.0438985"><ele>525.0</ele><time>2026-04-05T15:31:29.424Z</time></trkpt><trkpt lat="42.914953" lon="13.0441015"><ele>525.0</ele><time>2026-04-05T15:31:30.424Z</time></trkpt><trkpt lat="42.9150871" lon="13.0443113"><ele>525.0</ele><time>2026-04-05T15:31:31.423Z</time></trkpt><trkpt lat="42.9152167" lon="13.0445234"><ele>526.6666666666666</ele><time>2026-04-05T15:31:32.424Z</time></trkpt><trkpt lat="42.9153454" lon="13.0447252"><ele>528.3333333333333</ele><time>2026-04-05T15:31:33.424Z</time></trkpt><trkpt lat="42.9154655" lon="13.0449197"><ele>530.0</ele><time>2026-04-05T15:31:34.424Z</time></trkpt><trkpt lat="42.9155766" lon="13.0450999"><ele>530.0</ele><time>2026-04-05T15:31:35.424Z</time></trkpt><trkpt lat="42.9156759" lon="13.0452607"><ele>530.0</ele><time>2026-04-05T15:31:36.424Z</time></trkpt><trkpt lat="42.9157451" lon="13.0454325"><ele>530.0</ele><time>2026-04-05T15:31:37.424Z</time></trkpt><trkpt lat="42.9157909" lon="13.0456293"><ele>530.0</ele><time>2026-04-05T15:31:38.424Z</time></trkpt><trkpt lat="42.9158343" lon="13.0458272"><ele>530.0</ele><time>2026-04-05T15:31:39.423Z</time></trkpt><trkpt lat="42.9158836" lon="13.0460409"><ele>530.0</ele><time>2026-04-05T15:31:40.424Z</time></trkpt><trkpt lat="42.9159333" lon="13.0462699"><ele>530.0</ele><time>2026-04-05T15:31:41.424Z</time></trkpt><trkpt lat="42.9159743" lon="13.0465"><ele>533.3333333333333</ele><time>2026-04-05T15:31:42.423Z</time></trkpt><trkpt lat="42.9160105" lon="13.0467219"><ele>536.6666666666666</ele><time>2026-04-05T15:31:43.424Z</time></trkpt><trkpt lat="42.916047" lon="13.0469301"><ele>540.0</ele><time>2026-04-05T15:31:44.424Z</time></trkpt><trkpt lat="42.9161068" lon="13.0471216"><ele>540.0</ele><time>2026-04-05T15:31:45.424Z</time></trkpt><trkpt lat="42.9161694" lon="13.0473076"><ele>540.0</ele><time>2026-04-05T15:31:46.424Z</time></trkpt><trkpt lat="42.9162723" lon="13.0474728"><ele>540.0</ele><time>2026-04-05T15:31:47.424Z</time></trkpt><trkpt lat="42.9163951" lon="13.0476213"><ele>536.3333333333334</ele><time>2026-04-05T15:31:48.423Z</time></trkpt><trkpt lat="42.9165328" lon="13.0477531"><ele>532.6666666666667</ele><time>2026-04-05T15:31:49.424Z</time></trkpt><trkpt lat="42.9166686" lon="13.0478926"><ele>529.0</ele><time>2026-04-05T15:31:50.424Z</time></trkpt><trkpt lat="42.9167876" lon="13.0480606"><ele>530.3333333333334</ele><time>2026-04-05T15:31:51.424Z</time></trkpt><trkpt lat="42.9168952" lon="13.048245"><ele>531.6666666666666</ele><time>2026-04-05T15:31:52.424Z</time></trkpt><trkpt lat="42.9169871" lon="13.0484501"><ele>533.0</ele><time>2026-04-05T15:31:53.424Z</time></trkpt><trkpt lat="42.9170706" lon="13.0486607"><ele>533.0</ele><time>2026-04-05T15:31:54.423Z</time></trkpt><trkpt lat="42.9171538" lon="13.0488807"><ele>533.0</ele><time>2026-04-05T15:31:55.424Z</time></trkpt><trkpt lat="42.9172537" lon="13.0490958"><ele>533.0</ele><time>2026-04-05T15:31:56.423Z</time></trkpt><trkpt lat="42.9173582" lon="13.0492984"><ele>533.6666666666666</ele><time>2026-04-05T15:31:57.424Z</time></trkpt><trkpt lat="42.9174735" lon="13.0494828"><ele>534.3333333333334</ele><time>2026-04-05T15:31:58.423Z</time></trkpt><trkpt lat="42.9175711" lon="13.049648"><ele>535.0</ele><time>2026-04-05T15:31:59.424Z</time></trkpt><trkpt lat="42.9176661" lon="13.0498109"><ele>537.25</ele><time>2026-04-05T15:32:00.424Z</time></trkpt><trkpt lat="42.9177086" lon="13.0499771"><ele>539.5</ele><time>2026-04-05T15:32:01.423Z</time></trkpt><trkpt lat="42.9177391" lon="13.0501655"><ele>541.75</ele><time>2026-04-05T15:32:02.423Z</time></trkpt><trkpt lat="42.9177617" lon="13.0503537"><ele>544.0</ele><time>2026-04-05T15:32:03.424Z</time></trkpt><trkpt lat="42.9177787" lon="13.05056"><ele>544.0</ele><time>2026-04-05T15:32:04.424Z</time></trkpt><trkpt lat="42.917817" lon="13.0507628"><ele>544.0</ele><time>2026-04-05T15:32:05.424Z</time></trkpt><trkpt lat="42.9178816" lon="13.0509589"><ele>544.0</ele><time>2026-04-05T15:32:06.423Z</time></trkpt><trkpt lat="42.9179729" lon="13.05112"><ele>542.3333333333334</ele><time>2026-04-05T15:32:07.424Z</time></trkpt><trkpt lat="42.9180739" lon="13.0512763"><ele>540.6666666666666</ele><time>2026-04-05T15:32:08.424Z</time></trkpt><trkpt lat="42.9182063" lon="13.051408"><ele>539.0</ele><time>2026-04-05T15:32:09.424Z</time></trkpt><trkpt lat="42.9183372" lon="13.0515413"><ele>549.6666666666666</ele><time>2026-04-05T15:32:10.424Z</time></trkpt><trkpt lat="42.918481" lon="13.0516609"><ele>560.3333333333334</ele><time>2026-04-05T15:32:11.424Z</time></trkpt><trkpt lat="42.9186307" lon="13.0517812"><ele>571.0</ele><time>2026-04-05T15:32:12.424Z</time></trkpt><trkpt lat="42.9187682" lon="13.0519177"><ele>571.0</ele><time>2026-04-05T15:32:13.424Z</time></trkpt><trkpt lat="42.9188867" lon="13.0520636"><ele>571.0</ele><time>2026-04-05T15:32:14.424Z</time></trkpt><trkpt lat="42.9190005" lon="13.0522088"><ele>571.0</ele><time>2026-04-05T15:32:15.424Z</time></trkpt><trkpt lat="42.9190837" lon="13.0523128"><ele>571.0</ele><time>2026-04-05T15:32:16.424Z</time></trkpt><trkpt lat="42.9191691" lon="13.0524212"><ele>565.75</ele><time>2026-04-05T15:32:17.424Z</time></trkpt><trkpt lat="42.9192245" lon="13.0525629"><ele>560.5</ele><time>2026-04-05T15:32:18.424Z</time></trkpt><trkpt lat="42.91928" lon="13.0527138"><ele>555.25</ele><time>2026-04-05T15:32:19.423Z</time></trkpt><trkpt lat="42.9193116" lon="13.0528933"><ele>550.0</ele><time>2026-04-05T15:32:20.424Z</time></trkpt><trkpt lat="42.9193336" lon="13.0530834"><ele>562.3333333333334</ele><time>2026-04-05T15:32:21.424Z</time></trkpt><trkpt lat="42.9193787" lon="13.0532851"><ele>574.6666666666666</ele><time>2026-04-05T15:32:22.424Z</time></trkpt><trkpt lat="42.9194056" lon="13.0534945"><ele>587.0</ele><time>2026-04-05T15:32:23.424Z</time></trkpt><trkpt lat="42.9194468" lon="13.0537133"><ele>587.0</ele><time>2026-04-05T15:32:24.424Z</time></trkpt><trkpt lat="42.9194976" lon="13.0539239"><ele>587.0</ele><time>2026-04-05T15:32:25.424Z</time></trkpt><trkpt lat="42.919549" lon="13.054132"><ele>587.0</ele><time>2026-04-05T15:32:26.423Z</time></trkpt><trkpt lat="42.919616" lon="13.0543303"><ele>581.6666666666666</ele><time>2026-04-05T15:32:27.424Z</time></trkpt><trkpt lat="42.9196988" lon="13.0545261"><ele>576.3333333333334</ele><time>2026-04-05T15:32:28.424Z</time></trkpt><trkpt lat="42.9197922" lon="13.0547304"><ele>571.0</ele><time>2026-04-05T15:32:29.424Z</time></trkpt><trkpt lat="42.9198871" lon="13.0549265"><ele>568.3333333333334</ele><time>2026-04-05T15:32:30.424Z</time></trkpt><trkpt lat="42.9199747" lon="13.055101"><ele>565.6666666666666</ele><time>2026-04-05T15:32:31.424Z</time></trkpt><trkpt lat="42.9200758" lon="13.0552788"><ele>563.0</ele><time>2026-04-05T15:32:32.424Z</time></trkpt><trkpt lat="42.920167" lon="13.0554425"><ele>563.0</ele><time>2026-04-05T15:32:33.424Z</time></trkpt><trkpt lat="42.9202664" lon="13.0556133"><ele>563.0</ele><time>2026-04-05T15:32:34.424Z</time></trkpt><trkpt lat="42.9203602" lon="13.0557684"><ele>563.0</ele><time>2026-04-05T15:32:35.424Z</time></trkpt><trkpt lat="42.9204534" lon="13.0559177"><ele>559.25</ele><time>2026-04-05T15:32:36.423Z</time></trkpt><trkpt lat="42.920564" lon="13.0560551"><ele>555.5</ele><time>2026-04-05T15:32:37.424Z</time></trkpt><trkpt lat="42.9206868" lon="13.0561675"><ele>551.75</ele><time>2026-04-05T15:32:38.423Z</time></trkpt><trkpt lat="42.9208247" lon="13.0562498"><ele>548.0</ele><time>2026-04-05T15:32:39.424Z</time></trkpt><trkpt lat="42.9209671" lon="13.0563195"><ele>548.0</ele><time>2026-04-05T15:32:40.424Z</time></trkpt><trkpt lat="42.9211219" lon="13.0563879"><ele>548.0</ele><time>2026-04-05T15:32:41.424Z</time></trkpt><trkpt lat="42.9212635" lon="13.0564554"><ele>548.0</ele><time>2026-04-05T15:32:42.424Z</time></trkpt><trkpt lat="42.921419" lon="13.0565145"><ele>548.0</ele><time>2026-04-05T15:32:43.423Z</time></trkpt><trkpt lat="42.9215721" lon="13.0565813"><ele>548.0</ele><time>2026-04-05T15:32:44.424Z</time></trkpt><trkpt lat="42.9217267" lon="13.0566468"><ele>548.0</ele><time>2026-04-05T15:32:45.424Z</time></trkpt><trkpt lat="42.9218865" lon="13.0567247"><ele>545.6666666666666</ele><time>2026-04-05T15:32:46.424Z</time></trkpt><trkpt lat="42.9220235" lon="13.0568137"><ele>543.3333333333334</ele><time>2026-04-05T15:32:47.424Z</time></trkpt><trkpt lat="42.9221494" lon="13.0569176"><ele>541.0</ele><time>2026-04-05T15:32:48.423Z</time></trkpt><trkpt lat="42.9222956" lon="13.0570651"><ele>541.0</ele><time>2026-04-05T15:32:49.424Z</time></trkpt><trkpt lat="42.9223629" lon="13.0571801"><ele>541.0</ele><time>2026-04-05T15:32:50.424Z</time></trkpt><trkpt lat="42.9224412" lon="13.0573166"><ele>541.0</ele><time>2026-04-05T15:32:51.424Z</time></trkpt><trkpt lat="42.922529" lon="13.0574635"><ele>541.0</ele><time>2026-04-05T15:32:52.424Z</time></trkpt><trkpt lat="42.9226156" lon="13.0576286"><ele>542.75</ele><time>2026-04-05T15:32:53.423Z</time></trkpt><trkpt lat="42.9226894" lon="13.057802"><ele>544.5</ele><time>2026-04-05T15:32:54.424Z</time></trkpt><trkpt lat="42.9227611" lon="13.0579727"><ele>546.25</ele><time>2026-04-05T15:32:55.424Z</time></trkpt><trkpt lat="42.922832" lon="13.0581451"><ele>548.0</ele><time>2026-04-05T15:32:56.424Z</time></trkpt><trkpt lat="42.9229081" lon="13.0583188"><ele>548.0</ele><time>2026-04-05T15:32:57.424Z</time></trkpt><trkpt lat="42.9230068" lon="13.0584735"><ele>548.0</ele><time>2026-04-05T15:32:58.424Z</time></trkpt><trkpt lat="42.923128" lon="13.0586132"><ele>548.0</ele><time>2026-04-05T15:32:59.424Z</time></trkpt><trkpt lat="42.9232457" lon="13.0587534"><ele>548.0</ele><time>2026-04-05T15:33:00.424Z</time></trkpt><trkpt lat="42.9233952" lon="13.0588693"><ele>548.0</ele><time>2026-04-05T15:33:01.424Z</time></trkpt><trkpt lat="42.923535" lon="13.0589936"><ele>548.0</ele><time>2026-04-05T15:33:02.423Z</time></trkpt><trkpt lat="42.9236742" lon="13.0591166"><ele>550.0</ele><time>2026-04-05T15:33:03.423Z</time></trkpt><trkpt lat="42.9238117" lon="13.059242"><ele>552.0</ele><time>2026-04-05T15:33:04.424Z</time></trkpt><trkpt lat="42.9239401" lon="13.0593588"><ele>554.0</ele><time>2026-04-05T15:33:05.424Z</time></trkpt><trkpt lat="42.9240681" lon="13.0594763"><ele>554.0</ele><time>2026-04-05T15:33:06.424Z</time></trkpt><trkpt lat="42.9241971" lon="13.0595736"><ele>554.0</ele><time>2026-04-05T15:33:07.424Z</time></trkpt><trkpt lat="42.9243243" lon="13.0596589"><ele>554.0</ele><time>2026-04-05T15:33:08.424Z</time></trkpt><trkpt lat="42.9244702" lon="13.0597234"><ele>554.0</ele><time>2026-04-05T15:33:09.423Z</time></trkpt><trkpt lat="42.9246136" lon="13.0597863"><ele>557.3333333333333</ele><time>2026-04-05T15:33:10.424Z</time></trkpt><trkpt lat="42.924752" lon="13.0598427"><ele>560.6666666666666</ele><time>2026-04-05T15:33:11.424Z</time></trkpt><trkpt lat="42.9249009" lon="13.0599046"><ele>564.0</ele><time>2026-04-05T15:33:12.424Z</time></trkpt><trkpt lat="42.9250403" lon="13.0599825"><ele>565.3333333333334</ele><time>2026-04-05T15:33:13.423Z</time></trkpt><trkpt lat="42.9251786" lon="13.0600755"><ele>566.6666666666667</ele><time>2026-04-05T15:33:14.423Z</time></trkpt><trkpt lat="42.9253069" lon="13.0601711"><ele>568.0</ele><time>2026-04-05T15:33:15.424Z</time></trkpt><trkpt lat="42.9254387" lon="13.0602772"><ele>568.0</ele><time>2026-04-05T15:33:16.424Z</time></trkpt><trkpt lat="42.9255645" lon="13.0603964"><ele>568.0</ele><time>2026-04-05T15:33:17.424Z</time></trkpt><trkpt lat="42.9256866" lon="13.060529"><ele>568.0</ele><time>2026-04-05T15:33:18.424Z</time></trkpt><trkpt lat="42.9258143" lon="13.0606669"><ele>589.0</ele><time>2026-04-05T15:33:19.424Z</time></trkpt><trkpt lat="42.9259387" lon="13.0608116"><ele>610.0</ele><time>2026-04-05T15:33:20.423Z</time></trkpt><trkpt lat="42.9260706" lon="13.0609476"><ele>631.0</ele><time>2026-04-05T15:33:21.424Z</time></trkpt><trkpt lat="42.9261933" lon="13.0610751"><ele>631.0</ele><time>2026-04-05T15:33:22.424Z</time></trkpt><trkpt lat="42.9263128" lon="13.0612044"><ele>631.0</ele><time>2026-04-05T15:33:23.424Z</time></trkpt><trkpt lat="42.9264323" lon="13.0613327"><ele>631.0</ele><time>2026-04-05T15:33:24.424Z</time></trkpt><trkpt lat="42.926872" lon="13.0624224"><ele>631.0</ele><time>2026-04-05T15:33:35.423Z</time></trkpt><trkpt lat="42.9269401" lon="13.0626197"><ele>631.0</ele><time>2026-04-05T15:33:36.424Z</time></trkpt><trkpt lat="42.9269749" lon="13.0627465"><ele>631.0</ele><time>2026-04-05T15:33:38.423Z</time></trkpt><trkpt lat="42.9270682" lon="13.0629885"><ele>631.0</ele><time>2026-04-05T15:33:39.424Z</time></trkpt><trkpt lat="42.9271708" lon="13.0633123"><ele>631.0</ele><time>2026-04-05T15:33:40.424Z</time></trkpt><trkpt lat="42.9272716" lon="13.0637398"><ele>631.0</ele><time>2026-04-05T15:33:41.424Z</time></trkpt><trkpt lat="42.927405" lon="13.0643483"><ele>631.0</ele><time>2026-04-05T15:33:42.424Z</time></trkpt><trkpt lat="42.9274757" lon="13.0647058"><ele>631.0</ele><time>2026-04-05T15:33:43.423Z</time></trkpt><trkpt lat="42.927523" lon="13.0650222"><ele>631.0</ele><time>2026-04-05T15:33:44.424Z</time></trkpt><trkpt lat="42.927532" lon="13.0652631"><ele>631.0</ele><time>2026-04-05T15:33:45.424Z</time></trkpt><trkpt lat="42.927529" lon="13.0654643"><ele>631.0</ele><time>2026-04-05T15:33:46.424Z</time></trkpt><trkpt lat="42.9275353" lon="13.0656586"><ele>621.0</ele><time>2026-04-05T15:33:47.424Z</time></trkpt><trkpt lat="42.9275546" lon="13.0658426"><ele>611.0</ele><time>2026-04-05T15:33:48.423Z</time></trkpt><trkpt lat="42.9275952" lon="13.0660188"><ele>601.0</ele><time>2026-04-05T15:33:49.424Z</time></trkpt><trkpt lat="42.9276639" lon="13.0661852"><ele>591.0</ele><time>2026-04-05T15:33:50.423Z</time></trkpt><trkpt lat="42.9277603" lon="13.0663396"><ele>596.3333333333334</ele><time>2026-04-05T15:33:51.424Z</time></trkpt><trkpt lat="42.9278702" lon="13.0664798"><ele>601.6666666666667</ele><time>2026-04-05T15:33:52.424Z</time></trkpt><trkpt lat="42.9279849" lon="13.0666112"><ele>607.0</ele><time>2026-04-05T15:33:53.423Z</time></trkpt><trkpt lat="42.9281062" lon="13.0667338"><ele>607.0</ele><time>2026-04-05T15:33:54.424Z</time></trkpt><trkpt lat="42.9282085" lon="13.0668759"><ele>607.0</ele><time>2026-04-05T15:33:55.423Z</time></trkpt><trkpt lat="42.9282982" lon="13.0670461"><ele>607.0</ele><time>2026-04-05T15:33:56.424Z</time></trkpt><trkpt lat="42.928402" lon="13.0672269"><ele>616.3333333333334</ele><time>2026-04-05T15:33:57.424Z</time></trkpt><trkpt lat="42.9285153" lon="13.0674277"><ele>625.6666666666666</ele><time>2026-04-05T15:33:58.423Z</time></trkpt><trkpt lat="42.9286361" lon="13.0676418"><ele>635.0</ele><time>2026-04-05T15:33:59.423Z</time></trkpt><trkpt lat="42.9287699" lon="13.0678683"><ele>635.0</ele><time>2026-04-05T15:34:00.424Z</time></trkpt><trkpt lat="42.928903" lon="13.0680957"><ele>635.0</ele><time>2026-04-05T15:34:01.424Z</time></trkpt><trkpt lat="42.9290391" lon="13.0683161"><ele>635.0</ele><time>2026-04-05T15:34:02.423Z</time></trkpt><trkpt lat="42.9291614" lon="13.0685361"><ele>630.3333333333333</ele><time>2026-04-05T15:34:03.423Z</time></trkpt><trkpt lat="42.9292888" lon="13.0687382"><ele>625.6666666666666</ele><time>2026-04-05T15:34:04.423Z</time></trkpt><trkpt lat="42.929414" lon="13.0689371"><ele>621.0</ele><time>2026-04-05T15:34:05.424Z</time></trkpt><trkpt lat="42.9295269" lon="13.0691261"><ele>621.0</ele><time>2026-04-05T15:34:06.424Z</time></trkpt><trkpt lat="42.9296368" lon="13.0692975"><ele>621.0</ele><time>2026-04-05T15:34:07.424Z</time></trkpt><trkpt lat="42.9297563" lon="13.0694554"><ele>621.0</ele><time>2026-04-05T15:34:08.424Z</time></trkpt><trkpt lat="42.9298884" lon="13.0695826"><ele>621.0</ele><time>2026-04-05T15:34:09.424Z</time></trkpt><trkpt lat="42.9300349" lon="13.0696909"><ele>621.0</ele><time>2026-04-05T15:34:10.424Z</time></trkpt><trkpt lat="42.9301798" lon="13.0697953"><ele>621.0</ele><time>2026-04-05T15:34:11.423Z</time></trkpt><trkpt lat="42.9303179" lon="13.0698995"><ele>622.25</ele><time>2026-04-05T15:34:12.424Z</time></trkpt><trkpt lat="42.9304351" lon="13.0700107"><ele>623.5</ele><time>2026-04-05T15:34:13.424Z</time></trkpt><trkpt lat="42.9305307" lon="13.0701521"><ele>624.75</ele><time>2026-04-05T15:34:14.424Z</time></trkpt><trkpt lat="42.9306093" lon="13.0703146"><ele>626.0</ele><time>2026-04-05T15:34:15.424Z</time></trkpt><trkpt lat="42.9306818" lon="13.070497"><ele>626.0</ele><time>2026-04-05T15:34:16.424Z</time></trkpt><trkpt lat="42.9307509" lon="13.0706996"><ele>626.0</ele><time>2026-04-05T15:34:17.424Z</time></trkpt><trkpt lat="42.9308296" lon="13.0709125"><ele>626.0</ele><time>2026-04-05T15:34:18.424Z</time></trkpt><trkpt lat="42.9309234" lon="13.0711128"><ele>628.3333333333333</ele><time>2026-04-05T15:34:19.423Z</time></trkpt><trkpt lat="42.9310386" lon="13.0713028"><ele>630.6666666666666</ele><time>2026-04-05T15:34:20.424Z</time></trkpt><trkpt lat="42.9311653" lon="13.0715004"><ele>633.0</ele><time>2026-04-05T15:34:21.424Z</time></trkpt><trkpt lat="42.9312967" lon="13.0716926"><ele>627.0</ele><time>2026-04-05T15:34:22.424Z</time></trkpt><trkpt lat="42.931428" lon="13.0718915"><ele>621.0</ele><time>2026-04-05T15:34:23.424Z</time></trkpt><trkpt lat="42.9315599" lon="13.0720849"><ele>615.0</ele><time>2026-04-05T15:34:24.423Z</time></trkpt><trkpt lat="42.9316931" lon="13.0722677"><ele>618.0</ele><time>2026-04-05T15:34:25.424Z</time></trkpt><trkpt lat="42.9318224" lon="13.0724356"><ele>621.0</ele><time>2026-04-05T15:34:26.424Z</time></trkpt><trkpt lat="42.9319528" lon="13.0725824"><ele>624.0</ele><time>2026-04-05T15:34:27.424Z</time></trkpt><trkpt lat="42.9320859" lon="13.0727059"><ele>624.0</ele><time>2026-04-05T15:34:28.424Z</time></trkpt><trkpt lat="42.9322144" lon="13.0728103"><ele>624.0</ele><time>2026-04-05T15:34:29.424Z</time></trkpt><trkpt lat="42.9323428" lon="13.0729043"><ele>624.0</ele><time>2026-04-05T15:34:30.424Z</time></trkpt><trkpt lat="42.9324704" lon="13.0730036"><ele>624.0</ele><time>2026-04-05T15:34:31.424Z</time></trkpt><trkpt lat="42.9325918" lon="13.0731087"><ele>632.75</ele><time>2026-04-05T15:34:32.424Z</time></trkpt><trkpt lat="42.9327051" lon="13.0732219"><ele>641.5</ele><time>2026-04-05T15:34:33.423Z</time></trkpt><trkpt lat="42.9327985" lon="13.0733625"><ele>650.25</ele><time>2026-04-05T15:34:34.423Z</time></trkpt><trkpt lat="42.9328672" lon="13.0735369"><ele>659.0</ele><time>2026-04-05T15:34:35.423Z</time></trkpt><trkpt lat="42.9329304" lon="13.0737293"><ele>659.0</ele><time>2026-04-05T15:34:36.424Z</time></trkpt><trkpt lat="42.9329771" lon="13.0739386"><ele>659.0</ele><time>2026-04-05T15:34:37.424Z</time></trkpt><trkpt lat="42.9330135" lon="13.0741671"><ele>659.0</ele><time>2026-04-05T15:34:38.424Z</time></trkpt><trkpt lat="42.9330466" lon="13.0744141"><ele>658.0</ele><time>2026-04-05T15:34:39.424Z</time></trkpt><trkpt lat="42.9330772" lon="13.074669"><ele>657.0</ele><time>2026-04-05T15:34:40.424Z</time></trkpt><trkpt lat="42.9331082" lon="13.0749263"><ele>656.0</ele><time>2026-04-05T15:34:41.424Z</time></trkpt><trkpt lat="42.9331425" lon="13.0751632"><ele>647.3333333333333</ele><time>2026-04-05T15:34:42.424Z</time></trkpt><trkpt lat="42.9331729" lon="13.0753887"><ele>638.6666666666666</ele><time>2026-04-05T15:34:43.423Z</time></trkpt><trkpt lat="42.9331982" lon="13.0756078"><ele>630.0</ele><time>2026-04-05T15:34:44.424Z</time></trkpt><trkpt lat="42.9332213" lon="13.0758125"><ele>628.5</ele><time>2026-04-05T15:34:45.424Z</time></trkpt><trkpt lat="42.9332483" lon="13.0760036"><ele>627.0</ele><time>2026-04-05T15:34:46.424Z</time></trkpt><trkpt lat="42.9332694" lon="13.0761757"><ele>625.5</ele><time>2026-04-05T15:34:47.424Z</time></trkpt><trkpt lat="42.9332795" lon="13.0763268"><ele>624.0</ele><time>2026-04-05T15:34:48.424Z</time></trkpt><trkpt lat="42.9332845" lon="13.0764706"><ele>624.0</ele><time>2026-04-05T15:34:49.424Z</time></trkpt><trkpt lat="42.9332815" lon="13.0765922"><ele>624.0</ele><time>2026-04-05T15:34:50.424Z</time></trkpt><trkpt lat="42.9332821" lon="13.076713"><ele>624.0</ele><time>2026-04-05T15:34:51.424Z</time></trkpt><trkpt lat="42.9332742" lon="13.0768273"><ele>624.0</ele><time>2026-04-05T15:34:52.424Z</time></trkpt><trkpt lat="42.9332585" lon="13.0769504"><ele>624.0</ele><time>2026-04-05T15:34:53.424Z</time></trkpt><trkpt lat="42.9332403" lon="13.0770706"><ele>624.0</ele><time>2026-04-05T15:34:54.424Z</time></trkpt><trkpt lat="42.9332189" lon="13.0771953"><ele>622.6</ele><time>2026-04-05T15:34:55.424Z</time></trkpt><trkpt lat="42.9331959" lon="13.0773196"><ele>621.2</ele><time>2026-04-05T15:34:56.424Z</time></trkpt><trkpt lat="42.9331585" lon="13.0774486"><ele>619.8000000000001</ele><time>2026-04-05T15:34:57.424Z</time></trkpt><trkpt lat="42.9331296" lon="13.077572"><ele>618.4</ele><time>2026-04-05T15:34:58.423Z</time></trkpt><trkpt lat="42.9331075" lon="13.0776909"><ele>617.0</ele><time>2026-04-05T15:34:59.424Z</time></trkpt><trkpt lat="42.9330788" lon="13.0778134"><ele>615.4</ele><time>2026-04-05T15:35:00.424Z</time></trkpt><trkpt lat="42.9330372" lon="13.0779279"><ele>613.8000000000001</ele><time>2026-04-05T15:35:01.423Z</time></trkpt><trkpt lat="42.9330108" lon="13.0780524"><ele>612.2</ele><time>2026-04-05T15:35:02.424Z</time></trkpt><trkpt lat="42.9329802" lon="13.0781807"><ele>610.6</ele><time>2026-04-05T15:35:03.423Z</time></trkpt><trkpt lat="42.9329508" lon="13.0783191"><ele>609.0</ele><time>2026-04-05T15:35:04.424Z</time></trkpt><trkpt lat="42.9329217" lon="13.0784563"><ele>608.4</ele><time>2026-04-05T15:35:05.424Z</time></trkpt><trkpt lat="42.9328979" lon="13.078592"><ele>607.8</ele><time>2026-04-05T15:35:06.424Z</time></trkpt><trkpt lat="42.9328322" lon="13.0787226"><ele>607.2</ele><time>2026-04-05T15:35:07.424Z</time></trkpt><trkpt lat="42.9327942" lon="13.0788517"><ele>606.6</ele><time>2026-04-05T15:35:08.424Z</time></trkpt><trkpt lat="42.9327625" lon="13.0789917"><ele>606.0</ele><time>2026-04-05T15:35:09.424Z</time></trkpt><trkpt lat="42.9327275" lon="13.0791164"><ele>605.6</ele><time>2026-04-05T15:35:10.424Z</time></trkpt><trkpt lat="42.9327023" lon="13.0792465"><ele>605.2</ele><time>2026-04-05T15:35:11.423Z</time></trkpt><trkpt lat="42.9326723" lon="13.079368"><ele>604.8</ele><time>2026-04-05T15:35:12.424Z</time></trkpt><trkpt lat="42.9326448" lon="13.0795001"><ele>604.4</ele><time>2026-04-05T15:35:13.423Z</time></trkpt><trkpt lat="42.9326105" lon="13.079632"><ele>604.0</ele><time>2026-04-05T15:35:14.424Z</time></trkpt><trkpt lat="42.9325774" lon="13.0797602"><ele>604.2</ele><time>2026-04-05T15:35:15.424Z</time></trkpt><trkpt lat="42.9325489" lon="13.0798937"><ele>604.4</ele><time>2026-04-05T15:35:16.423Z</time></trkpt><trkpt lat="42.9325252" lon="13.0800215"><ele>604.6</ele><time>2026-04-05T15:35:17.424Z</time></trkpt><trkpt lat="42.9324942" lon="13.0801502"><ele>604.8</ele><time>2026-04-05T15:35:18.423Z</time></trkpt><trkpt lat="42.9324646" lon="13.0802734"><ele>605.0</ele><time>2026-04-05T15:35:19.424Z</time></trkpt><trkpt lat="42.9324334" lon="13.0803911"><ele>605.0</ele><time>2026-04-05T15:35:20.423Z</time></trkpt><trkpt lat="42.9324051" lon="13.0805097"><ele>605.0</ele><time>2026-04-05T15:35:21.424Z</time></trkpt><trkpt lat="42.9323803" lon="13.080631"><ele>605.0</ele><time>2026-04-05T15:35:22.424Z</time></trkpt><trkpt lat="42.9323458" lon="13.0807467"><ele>605.0</ele><time>2026-04-05T15:35:23.424Z</time></trkpt><trkpt lat="42.9323231" lon="13.0808733"><ele>605.0</ele><time>2026-04-05T15:35:24.423Z</time></trkpt><trkpt lat="42.9322984" lon="13.0809998"><ele>605.0</ele><time>2026-04-05T15:35:25.424Z</time></trkpt><trkpt lat="42.9322705" lon="13.0811189"><ele>605.0</ele><time>2026-04-05T15:35:26.424Z</time></trkpt><trkpt lat="42.9322449" lon="13.0812379"><ele>605.0</ele><time>2026-04-05T15:35:27.424Z</time></trkpt><trkpt lat="42.9322165" lon="13.0813673"><ele>605.0</ele><time>2026-04-05T15:35:28.424Z</time></trkpt><trkpt lat="42.9321915" lon="13.0814917"><ele>605.0</ele><time>2026-04-05T15:35:29.423Z</time></trkpt><trkpt lat="42.9321681" lon="13.081611"><ele>605.4</ele><time>2026-04-05T15:35:30.423Z</time></trkpt><trkpt lat="42.93214" lon="13.0817286"><ele>605.8</ele><time>2026-04-05T15:35:31.424Z</time></trkpt><trkpt lat="42.9321163" lon="13.0818492"><ele>606.2</ele><time>2026-04-05T15:35:32.423Z</time></trkpt><trkpt lat="42.9320959" lon="13.0819689"><ele>606.6</ele><time>2026-04-05T15:35:33.424Z</time></trkpt><trkpt lat="42.9320642" lon="13.0820911"><ele>607.0</ele><time>2026-04-05T15:35:34.424Z</time></trkpt><trkpt lat="42.9320378" lon="13.0822063"><ele>607.0</ele><time>2026-04-05T15:35:35.424Z</time></trkpt><trkpt lat="42.9320134" lon="13.0823285"><ele>607.0</ele><time>2026-04-05T15:35:36.424Z</time></trkpt><trkpt lat="42.9319877" lon="13.0824442"><ele>607.0</ele><time>2026-04-05T15:35:37.424Z</time></trkpt><trkpt lat="42.9319622" lon="13.0825604"><ele>607.0</ele><time>2026-04-05T15:35:38.424Z</time></trkpt><trkpt lat="42.9319377" lon="13.0826717"><ele>607.0</ele><time>2026-04-05T15:35:39.423Z</time></trkpt><trkpt lat="42.9319123" lon="13.0827705"><ele>607.0</ele><time>2026-04-05T15:35:40.424Z</time></trkpt><trkpt lat="42.931887" lon="13.082871"><ele>607.5</ele><time>2026-04-05T15:35:41.423Z</time></trkpt><trkpt lat="42.9318632" lon="13.0829665"><ele>608.0</ele><time>2026-04-05T15:35:42.424Z</time></trkpt><trkpt lat="42.9318404" lon="13.0830729"><ele>608.5</ele><time>2026-04-05T15:35:43.423Z</time></trkpt><trkpt lat="42.9318146" lon="13.0831859"><ele>609.0</ele><time>2026-04-05T15:35:44.424Z</time></trkpt><trkpt lat="42.9317894" lon="13.0833019"><ele>609.5</ele><time>2026-04-05T15:35:45.424Z</time></trkpt><trkpt lat="42.9317658" lon="13.0834131"><ele>610.0</ele><time>2026-04-05T15:35:46.424Z</time></trkpt><trkpt lat="42.9317268" lon="13.0835247"><ele>610.0</ele><time>2026-04-05T15:35:47.424Z</time></trkpt><trkpt lat="42.9317062" lon="13.0836337"><ele>610.0</ele><time>2026-04-05T15:35:48.424Z</time></trkpt><trkpt lat="42.931682" lon="13.0837407"><ele>610.0</ele><time>2026-04-05T15:35:49.424Z</time></trkpt><trkpt lat="42.9316633" lon="13.0838409"><ele>610.0</ele><time>2026-04-05T15:35:50.423Z</time></trkpt><trkpt lat="42.9316471" lon="13.0839309"><ele>610.0</ele><time>2026-04-05T15:35:51.424Z</time></trkpt><trkpt lat="42.9316542" lon="13.0840164"><ele>610.0</ele><time>2026-04-05T15:35:52.423Z</time></trkpt><trkpt lat="42.9316774" lon="13.0840977"><ele>610.0</ele><time>2026-04-05T15:35:53.423Z</time></trkpt><trkpt lat="42.9317078" lon="13.0841791"><ele>609.6666666666667</ele><time>2026-04-05T15:35:54.424Z</time></trkpt><trkpt lat="42.9317508" lon="13.0842503"><ele>609.3333333333334</ele><time>2026-04-05T15:35:55.423Z</time></trkpt><trkpt lat="42.9318034" lon="13.0843116"><ele>609.0</ele><time>2026-04-05T15:35:56.424Z</time></trkpt><trkpt lat="42.9319078" lon="13.0844045"><ele>608.6666666666666</ele><time>2026-04-05T15:35:58.424Z</time></trkpt><trkpt lat="42.9319626" lon="13.0844535"><ele>608.3333333333333</ele><time>2026-04-05T15:35:59.423Z</time></trkpt><trkpt lat="42.932018" lon="13.0844994"><ele>608.0</ele><time>2026-04-05T15:36:00.423Z</time></trkpt><trkpt lat="42.9321179" lon="13.0845998"><ele>608.0</ele><time>2026-04-05T15:36:02.424Z</time></trkpt><trkpt lat="42.9322045" lon="13.0846712"><ele>608.0</ele><time>2026-04-05T15:36:04.424Z</time></trkpt><trkpt lat="42.9322916" lon="13.0846459"><ele>608.0</ele><time>2026-04-05T15:36:07.424Z</time></trkpt><trkpt lat="42.9323649" lon="13.0845359"><ele>608.0</ele><time>2026-04-05T15:36:09.423Z</time></trkpt><trkpt lat="42.9324039" lon="13.0844594"><ele>608.0</ele><time>2026-04-05T15:36:10.423Z</time></trkpt><trkpt lat="42.9324417" lon="13.0843816"><ele>608.0</ele><time>2026-04-05T15:36:11.423Z</time></trkpt><trkpt lat="42.9324822" lon="13.0843126"><ele>608.0</ele><time>2026-04-05T15:36:12.424Z</time></trkpt><trkpt lat="42.9325173" lon="13.0842394"><ele>608.0</ele><time>2026-04-05T15:36:13.424Z</time></trkpt><trkpt lat="42.9325598" lon="13.0841671"><ele>608.0</ele><time>2026-04-05T15:36:14.424Z</time></trkpt><trkpt lat="42.9326058" lon="13.0840891"><ele>608.0</ele><time>2026-04-05T15:36:15.424Z</time></trkpt><trkpt lat="42.9326564" lon="13.0840054"><ele>608.0</ele><time>2026-04-05T15:36:16.424Z</time></trkpt><trkpt lat="42.9327088" lon="13.083918"><ele>608.0</ele><time>2026-04-05T15:36:17.424Z</time></trkpt><trkpt lat="42.9327619" lon="13.0838288"><ele>609.0</ele><time>2026-04-05T15:36:18.424Z</time></trkpt><trkpt lat="42.9328123" lon="13.0837428"><ele>610.0</ele><time>2026-04-05T15:36:19.423Z</time></trkpt><trkpt lat="42.9328565" lon="13.0836644"><ele>611.0</ele><time>2026-04-05T15:36:20.424Z</time></trkpt><trkpt lat="42.9329267" lon="13.0835468"><ele>612.0</ele><time>2026-04-05T15:36:22.423Z</time></trkpt><trkpt lat="42.9329944" lon="13.0834216"><ele>613.0</ele><time>2026-04-05T15:36:24.423Z</time></trkpt><trkpt lat="42.9330339" lon="13.0833473"><ele>614.0</ele><time>2026-04-05T15:36:25.424Z</time></trkpt><trkpt lat="42.9330793" lon="13.0832689"><ele>613.2</ele><time>2026-04-05T15:36:26.423Z</time></trkpt><trkpt lat="42.9331225" lon="13.0831796"><ele>612.4</ele><time>2026-04-05T15:36:27.424Z</time></trkpt><trkpt lat="42.9331756" lon="13.0830864"><ele>611.6</ele><time>2026-04-05T15:36:28.424Z</time></trkpt><trkpt lat="42.9332334" lon="13.0829861"><ele>610.8</ele><time>2026-04-05T15:36:29.424Z</time></trkpt><trkpt lat="42.9332896" lon="13.0828812"><ele>610.0</ele><time>2026-04-05T15:36:30.423Z</time></trkpt><trkpt lat="42.9333523" lon="13.0827728"><ele>610.2</ele><time>2026-04-05T15:36:31.424Z</time></trkpt><trkpt lat="42.9334104" lon="13.0826608"><ele>610.4</ele><time>2026-04-05T15:36:32.423Z</time></trkpt><trkpt lat="42.9334666" lon="13.0825639"><ele>610.6</ele><time>2026-04-05T15:36:33.424Z</time></trkpt><trkpt lat="42.933523" lon="13.0824691"><ele>610.8</ele><time>2026-04-05T15:36:34.424Z</time></trkpt><trkpt lat="42.9335859" lon="13.0823812"><ele>611.0</ele><time>2026-04-05T15:36:35.424Z</time></trkpt><trkpt lat="42.9336515" lon="13.0823003"><ele>611.0</ele><time>2026-04-05T15:36:36.424Z</time></trkpt><trkpt lat="42.9337255" lon="13.082225"><ele>611.0</ele><time>2026-04-05T15:36:37.423Z</time></trkpt><trkpt lat="42.9338033" lon="13.0821591"><ele>611.0</ele><time>2026-04-05T15:36:38.424Z</time></trkpt><trkpt lat="42.9338962" lon="13.0821084"><ele>611.0</ele><time>2026-04-05T15:36:39.423Z</time></trkpt><trkpt lat="42.9339999" lon="13.0820692"><ele>611.0</ele><time>2026-04-05T15:36:40.424Z</time></trkpt><trkpt lat="42.9341073" lon="13.0820447"><ele>611.0</ele><time>2026-04-05T15:36:41.424Z</time></trkpt><trkpt lat="42.9342298" lon="13.0820448"><ele>611.0</ele><time>2026-04-05T15:36:42.424Z</time></trkpt><trkpt lat="42.9343509" lon="13.0820456"><ele>611.0</ele><time>2026-04-05T15:36:43.424Z</time></trkpt><trkpt lat="42.9344709" lon="13.0820463"><ele>611.0</ele><time>2026-04-05T15:36:44.424Z</time></trkpt><trkpt lat="42.9345954" lon="13.0820517"><ele>611.0</ele><time>2026-04-05T15:36:45.424Z</time></trkpt><trkpt lat="42.9347204" lon="13.082058"><ele>611.0</ele><time>2026-04-05T15:36:46.424Z</time></trkpt><trkpt lat="42.9348447" lon="13.0820623"><ele>611.0</ele><time>2026-04-05T15:36:47.423Z</time></trkpt><trkpt lat="42.9349762" lon="13.0820661"><ele>611.0</ele><time>2026-04-05T15:36:48.424Z</time></trkpt><trkpt lat="42.9350983" lon="13.08207"><ele>611.6</ele><time>2026-04-05T15:36:49.424Z</time></trkpt><trkpt lat="42.9352181" lon="13.0820679"><ele>612.2</ele><time>2026-04-05T15:36:50.424Z</time></trkpt><trkpt lat="42.9353341" lon="13.0820665"><ele>612.8</ele><time>2026-04-05T15:36:51.424Z</time></trkpt><trkpt lat="42.9354387" lon="13.0820696"><ele>613.4</ele><time>2026-04-05T15:36:52.424Z</time></trkpt><trkpt lat="42.9355362" lon="13.0820708"><ele>614.0</ele><time>2026-04-05T15:36:53.423Z</time></trkpt><trkpt lat="42.9356306" lon="13.0820666"><ele>614.0</ele><time>2026-04-05T15:36:54.424Z</time></trkpt><trkpt lat="42.9357229" lon="13.0820665"><ele>614.0</ele><time>2026-04-05T15:36:55.424Z</time></trkpt><trkpt lat="42.9358139" lon="13.0820656"><ele>614.0</ele><time>2026-04-05T15:36:56.423Z</time></trkpt><trkpt lat="42.9359077" lon="13.0820722"><ele>614.0</ele><time>2026-04-05T15:36:57.424Z</time></trkpt><trkpt lat="42.9360072" lon="13.082074"><ele>614.0</ele><time>2026-04-05T15:36:58.424Z</time></trkpt><trkpt lat="42.9361129" lon="13.082068"><ele>614.6</ele><time>2026-04-05T15:36:59.424Z</time></trkpt><trkpt lat="42.9362044" lon="13.082066"><ele>615.2</ele><time>2026-04-05T15:37:00.424Z</time></trkpt><trkpt lat="42.9363083" lon="13.0820587"><ele>615.8000000000001</ele><time>2026-04-05T15:37:01.424Z</time></trkpt><trkpt lat="42.9364069" lon="13.0820574"><ele>616.4</ele><time>2026-04-05T15:37:02.424Z</time></trkpt><trkpt lat="42.9365073" lon="13.0820619"><ele>617.0</ele><time>2026-04-05T15:37:03.423Z</time></trkpt><trkpt lat="42.9366171" lon="13.0820735"><ele>619.25</ele><time>2026-04-05T15:37:04.424Z</time></trkpt><trkpt lat="42.9367329" lon="13.0820736"><ele>621.5</ele><time>2026-04-05T15:37:05.423Z</time></trkpt><trkpt lat="42.9368537" lon="13.0820701"><ele>623.75</ele><time>2026-04-05T15:37:06.423Z</time></trkpt><trkpt lat="42.9369723" lon="13.0820688"><ele>626.0</ele><time>2026-04-05T15:37:07.424Z</time></trkpt><trkpt lat="42.9370999" lon="13.0820773"><ele>626.0</ele><time>2026-04-05T15:37:08.424Z</time></trkpt><trkpt lat="42.9372219" lon="13.0820881"><ele>626.0</ele><time>2026-04-05T15:37:09.424Z</time></trkpt><trkpt lat="42.9373446" lon="13.0821056"><ele>626.0</ele><time>2026-04-05T15:37:10.424Z</time></trkpt><trkpt lat="42.9374669" lon="13.0821193"><ele>626.0</ele><time>2026-04-05T15:37:11.424Z</time></trkpt><trkpt lat="42.9375928" lon="13.0821403"><ele>628.25</ele><time>2026-04-05T15:37:12.423Z</time></trkpt><trkpt lat="42.9377175" lon="13.0821709"><ele>630.5</ele><time>2026-04-05T15:37:13.424Z</time></trkpt><trkpt lat="42.9378469" lon="13.0822053"><ele>632.75</ele><time>2026-04-05T15:37:14.424Z</time></trkpt><trkpt lat="42.9379752" lon="13.082239"><ele>635.0</ele><time>2026-04-05T15:37:15.423Z</time></trkpt><trkpt lat="42.9381082" lon="13.0822625"><ele>635.0</ele><time>2026-04-05T15:37:16.423Z</time></trkpt><trkpt lat="42.93824" lon="13.0822824"><ele>635.0</ele><time>2026-04-05T15:37:17.423Z</time></trkpt><trkpt lat="42.938368" lon="13.0823057"><ele>635.0</ele><time>2026-04-05T15:37:18.423Z</time></trkpt><trkpt lat="42.938482" lon="13.0823395"><ele>635.0</ele><time>2026-04-05T15:37:19.423Z</time></trkpt><trkpt lat="42.9386147" lon="13.0823729"><ele>634.25</ele><time>2026-04-05T15:37:20.424Z</time></trkpt><trkpt lat="42.9387468" lon="13.0823961"><ele>633.5</ele><time>2026-04-05T15:37:21.424Z</time></trkpt><trkpt lat="42.9388821" lon="13.0824338"><ele>632.75</ele><time>2026-04-05T15:37:22.423Z</time></trkpt><trkpt lat="42.9390105" lon="13.082481"><ele>632.0</ele><time>2026-04-05T15:37:23.423Z</time></trkpt><trkpt lat="42.9391419" lon="13.0825224"><ele>632.25</ele><time>2026-04-05T15:37:24.424Z</time></trkpt><trkpt lat="42.9392695" lon="13.0825659"><ele>632.5</ele><time>2026-04-05T15:37:25.424Z</time></trkpt><trkpt lat="42.9393932" lon="13.082613"><ele>632.75</ele><time>2026-04-05T15:37:26.424Z</time></trkpt><trkpt lat="42.9395127" lon="13.0826655"><ele>633.0</ele><time>2026-04-05T15:37:27.424Z</time></trkpt><trkpt lat="42.9396355" lon="13.0827152"><ele>633.0</ele><time>2026-04-05T15:37:28.424Z</time></trkpt><trkpt lat="42.9397576" lon="13.082777"><ele>633.0</ele><time>2026-04-05T15:37:29.424Z</time></trkpt><trkpt lat="42.9398772" lon="13.0828333"><ele>633.0</ele><time>2026-04-05T15:37:30.424Z</time></trkpt><trkpt lat="42.939996" lon="13.0828942"><ele>633.0</ele><time>2026-04-05T15:37:31.423Z</time></trkpt><trkpt lat="42.9401205" lon="13.0829418"><ele>633.5</ele><time>2026-04-05T15:37:32.423Z</time></trkpt><trkpt lat="42.9402485" lon="13.0829927"><ele>634.0</ele><time>2026-04-05T15:37:33.424Z</time></trkpt><trkpt lat="42.9403666" lon="13.0830469"><ele>634.5</ele><time>2026-04-05T15:37:34.424Z</time></trkpt><trkpt lat="42.9404963" lon="13.0830824"><ele>635.0</ele><time>2026-04-05T15:37:35.424Z</time></trkpt><trkpt lat="42.9406277" lon="13.0831167"><ele>635.0</ele><time>2026-04-05T15:37:36.424Z</time></trkpt><trkpt lat="42.9407531" lon="13.0831595"><ele>635.0</ele><time>2026-04-05T15:37:37.424Z</time></trkpt><trkpt lat="42.9408753" lon="13.0832009"><ele>635.0</ele><time>2026-04-05T15:37:38.424Z</time></trkpt><trkpt lat="42.9409991" lon="13.0832411"><ele>635.0</ele><time>2026-04-05T15:37:39.424Z</time></trkpt><trkpt lat="42.9411223" lon="13.0832825"><ele>635.0</ele><time>2026-04-05T15:37:40.424Z</time></trkpt><trkpt lat="42.9412565" lon="13.0833171"><ele>635.0</ele><time>2026-04-05T15:37:41.424Z</time></trkpt><trkpt lat="42.9413901" lon="13.0833404"><ele>635.0</ele><time>2026-04-05T15:37:42.424Z</time></trkpt><trkpt lat="42.9415268" lon="13.0833725"><ele>635.0</ele><time>2026-04-05T15:37:43.424Z</time></trkpt><trkpt lat="42.9416635" lon="13.0834008"><ele>635.5</ele><time>2026-04-05T15:37:44.424Z</time></trkpt><trkpt lat="42.9418019" lon="13.0834293"><ele>636.0</ele><time>2026-04-05T15:37:45.424Z</time></trkpt><trkpt lat="42.9419384" lon="13.0834539"><ele>636.5</ele><time>2026-04-05T15:37:46.424Z</time></trkpt><trkpt lat="42.942077" lon="13.0834744"><ele>637.0</ele><time>2026-04-05T15:37:47.424Z</time></trkpt><trkpt lat="42.9422189" lon="13.0834799"><ele>637.0</ele><time>2026-04-05T15:37:48.423Z</time></trkpt><trkpt lat="42.9423483" lon="13.0834983"><ele>637.0</ele><time>2026-04-05T15:37:49.423Z</time></trkpt><trkpt lat="42.9424868" lon="13.0835013"><ele>637.0</ele><time>2026-04-05T15:37:50.424Z</time></trkpt><trkpt lat="42.9426198" lon="13.0835103"><ele>637.0</ele><time>2026-04-05T15:37:51.424Z</time></trkpt><trkpt lat="42.9427378" lon="13.0835157"><ele>637.0</ele><time>2026-04-05T15:37:52.424Z</time></trkpt><trkpt lat="42.9428486" lon="13.0835127"><ele>637.0</ele><time>2026-04-05T15:37:53.424Z</time></trkpt><trkpt lat="42.9429473" lon="13.0835138"><ele>637.0</ele><time>2026-04-05T15:37:54.424Z</time></trkpt><trkpt lat="42.9430457" lon="13.0835189"><ele>637.0</ele><time>2026-04-05T15:37:55.424Z</time></trkpt><trkpt lat="42.9431335" lon="13.0835161"><ele>637.0</ele><time>2026-04-05T15:37:56.424Z</time></trkpt><trkpt lat="42.9432265" lon="13.0835152"><ele>637.0</ele><time>2026-04-05T15:37:57.424Z</time></trkpt><trkpt lat="42.9433235" lon="13.0835182"><ele>637.0</ele><time>2026-04-05T15:37:58.424Z</time></trkpt><trkpt lat="42.9434367" lon="13.0835095"><ele>637.0</ele><time>2026-04-05T15:37:59.424Z</time></trkpt><trkpt lat="42.9435483" lon="13.0835033"><ele>637.0</ele><time>2026-04-05T15:38:00.424Z</time></trkpt><trkpt lat="42.9436669" lon="13.0834909"><ele>637.0</ele><time>2026-04-05T15:38:01.424Z</time></trkpt><trkpt lat="42.9437972" lon="13.0834896"><ele>637.75</ele><time>2026-04-05T15:38:02.424Z</time></trkpt><trkpt lat="42.9439227" lon="13.0834905"><ele>638.5</ele><time>2026-04-05T15:38:03.424Z</time></trkpt><trkpt lat="42.9440505" lon="13.0834793"><ele>639.25</ele><time>2026-04-05T15:38:04.424Z</time></trkpt><trkpt lat="42.9441794" lon="13.0834651"><ele>640.0</ele><time>2026-04-05T15:38:05.424Z</time></trkpt><trkpt lat="42.9443098" lon="13.0834548"><ele>641.0</ele><time>2026-04-05T15:38:06.424Z</time></trkpt><trkpt lat="42.9444363" lon="13.0834397"><ele>642.0</ele><time>2026-04-05T15:38:07.424Z</time></trkpt><trkpt lat="42.9445681" lon="13.0834222"><ele>643.0</ele><time>2026-04-05T15:38:08.423Z</time></trkpt><trkpt lat="42.9446978" lon="13.0834049"><ele>644.0</ele><time>2026-04-05T15:38:09.423Z</time></trkpt><trkpt lat="42.9448271" lon="13.0833928"><ele>644.0</ele><time>2026-04-05T15:38:10.423Z</time></trkpt><trkpt lat="42.9449586" lon="13.0833785"><ele>644.0</ele><time>2026-04-05T15:38:11.424Z</time></trkpt><trkpt lat="42.9450848" lon="13.083367"><ele>644.0</ele><time>2026-04-05T15:38:12.424Z</time></trkpt><trkpt lat="42.9452107" lon="13.0833534"><ele>644.0</ele><time>2026-04-05T15:38:13.424Z</time></trkpt><trkpt lat="42.9453298" lon="13.0833375"><ele>644.75</ele><time>2026-04-05T15:38:14.424Z</time></trkpt><trkpt lat="42.9454503" lon="13.0833212"><ele>645.5</ele><time>2026-04-05T15:38:15.424Z</time></trkpt><trkpt lat="42.9455663" lon="13.0833143"><ele>646.25</ele><time>2026-04-05T15:38:16.424Z</time></trkpt><trkpt lat="42.9456757" lon="13.083304"><ele>647.0</ele><time>2026-04-05T15:38:17.424Z</time></trkpt><trkpt lat="42.9457928" lon="13.0832889"><ele>647.75</ele><time>2026-04-05T15:38:18.424Z</time></trkpt><trkpt lat="42.9459086" lon="13.0832782"><ele>648.5</ele><time>2026-04-05T15:38:19.424Z</time></trkpt><trkpt lat="42.9460137" lon="13.0832708"><ele>649.25</ele><time>2026-04-05T15:38:20.424Z</time></trkpt><trkpt lat="42.9461294" lon="13.0832718"><ele>650.0</ele><time>2026-04-05T15:38:21.423Z</time></trkpt><trkpt lat="42.9462436" lon="13.0832769"><ele>650.0</ele><time>2026-04-05T15:38:22.423Z</time></trkpt><trkpt lat="42.9463585" lon="13.0833015"><ele>650.0</ele><time>2026-04-05T15:38:23.424Z</time></trkpt><trkpt lat="42.946472" lon="13.0833279"><ele>650.0</ele><time>2026-04-05T15:38:24.424Z</time></trkpt><trkpt lat="42.9465956" lon="13.0833573"><ele>650.0</ele><time>2026-04-05T15:38:25.424Z</time></trkpt><trkpt lat="42.9467196" lon="13.0834035"><ele>650.75</ele><time>2026-04-05T15:38:26.424Z</time></trkpt><trkpt lat="42.9468426" lon="13.0834693"><ele>651.5</ele><time>2026-04-05T15:38:27.423Z</time></trkpt><trkpt lat="42.9469702" lon="13.0835391"><ele>652.25</ele><time>2026-04-05T15:38:28.424Z</time></trkpt><trkpt lat="42.9471105" lon="13.083621"><ele>653.0</ele><time>2026-04-05T15:38:29.424Z</time></trkpt><trkpt lat="42.947248" lon="13.0837131"><ele>653.0</ele><time>2026-04-05T15:38:30.424Z</time></trkpt><trkpt lat="42.9473862" lon="13.083803"><ele>653.0</ele><time>2026-04-05T15:38:31.424Z</time></trkpt><trkpt lat="42.9475231" lon="13.0838811"><ele>653.0</ele><time>2026-04-05T15:38:32.424Z</time></trkpt><trkpt lat="42.9476696" lon="13.0839558"><ele>653.6666666666666</ele><time>2026-04-05T15:38:33.424Z</time></trkpt><trkpt lat="42.9478176" lon="13.0840287"><ele>654.3333333333334</ele><time>2026-04-05T15:38:34.424Z</time></trkpt><trkpt lat="42.947974" lon="13.0840814"><ele>655.0</ele><time>2026-04-05T15:38:35.424Z</time></trkpt><trkpt lat="42.9481327" lon="13.0841028"><ele>658.0</ele><time>2026-04-05T15:38:36.424Z</time></trkpt><trkpt lat="42.9482879" lon="13.0841085"><ele>661.0</ele><time>2026-04-05T15:38:37.424Z</time></trkpt><trkpt lat="42.9484423" lon="13.0840838"><ele>664.0</ele><time>2026-04-05T15:38:38.423Z</time></trkpt><trkpt lat="42.9485879" lon="13.0840496"><ele>664.0</ele><time>2026-04-05T15:38:39.424Z</time></trkpt><trkpt lat="42.9487557" lon="13.0840176"><ele>664.0</ele><time>2026-04-05T15:38:40.424Z</time></trkpt><trkpt lat="42.9489038" lon="13.0839731"><ele>664.0</ele><time>2026-04-05T15:38:41.424Z</time></trkpt><trkpt lat="42.9490409" lon="13.0839155"><ele>664.0</ele><time>2026-04-05T15:38:42.424Z</time></trkpt><trkpt lat="42.9491673" lon="13.0838426"><ele>664.0</ele><time>2026-04-05T15:38:43.424Z</time></trkpt><trkpt lat="42.9492674" lon="13.0837765"><ele>664.0</ele><time>2026-04-05T15:38:44.424Z</time></trkpt><trkpt lat="42.9493636" lon="13.083707"><ele>664.0</ele><time>2026-04-05T15:38:45.424Z</time></trkpt><trkpt lat="42.9494578" lon="13.0836318"><ele>665.75</ele><time>2026-04-05T15:38:46.424Z</time></trkpt><trkpt lat="42.9495664" lon="13.0835707"><ele>667.5</ele><time>2026-04-05T15:38:47.424Z</time></trkpt><trkpt lat="42.9496842" lon="13.0835201"><ele>669.25</ele><time>2026-04-05T15:38:48.424Z</time></trkpt><trkpt lat="42.9498095" lon="13.0834699"><ele>671.0</ele><time>2026-04-05T15:38:49.424Z</time></trkpt><trkpt lat="42.9499427" lon="13.0834385"><ele>673.5</ele><time>2026-04-05T15:38:50.424Z</time></trkpt><trkpt lat="42.9500769" lon="13.0834319"><ele>676.0</ele><time>2026-04-05T15:38:51.423Z</time></trkpt><trkpt lat="42.9502095" lon="13.0834306"><ele>678.5</ele><time>2026-04-05T15:38:52.423Z</time></trkpt><trkpt lat="42.9503468" lon="13.0834022"><ele>681.0</ele><time>2026-04-05T15:38:53.424Z</time></trkpt><trkpt lat="42.9504852" lon="13.0833666"><ele>681.0</ele><time>2026-04-05T15:38:54.424Z</time></trkpt><trkpt lat="42.950629" lon="13.0833396"><ele>681.0</ele><time>2026-04-05T15:38:55.424Z</time></trkpt><trkpt lat="42.9507532" lon="13.0833278"><ele>681.0</ele><time>2026-04-05T15:38:56.424Z</time></trkpt><trkpt lat="42.9508854" lon="13.0833328"><ele>681.0</ele><time>2026-04-05T15:38:57.424Z</time></trkpt><trkpt lat="42.9510089" lon="13.0833388"><ele>682.25</ele><time>2026-04-05T15:38:58.424Z</time></trkpt><trkpt lat="42.9511431" lon="13.0833656"><ele>683.5</ele><time>2026-04-05T15:38:59.424Z</time></trkpt><trkpt lat="42.951274" lon="13.0833954"><ele>684.75</ele><time>2026-04-05T15:39:00.424Z</time></trkpt><trkpt lat="42.9514161" lon="13.0834147"><ele>686.0</ele><time>2026-04-05T15:39:01.424Z</time></trkpt><trkpt lat="42.9515577" lon="13.0834146"><ele>686.0</ele><time>2026-04-05T15:39:02.424Z</time></trkpt><trkpt lat="42.9516833" lon="13.0834021"><ele>686.0</ele><time>2026-04-05T15:39:03.424Z</time></trkpt><trkpt lat="42.9518271" lon="13.0833783"><ele>686.0</ele><time>2026-04-05T15:39:04.423Z</time></trkpt><trkpt lat="42.9519728" lon="13.0833274"><ele>686.0</ele><time>2026-04-05T15:39:05.423Z</time></trkpt><trkpt lat="42.9521198" lon="13.0832834"><ele>686.25</ele><time>2026-04-05T15:39:06.424Z</time></trkpt><trkpt lat="42.9522695" lon="13.0832397"><ele>686.5</ele><time>2026-04-05T15:39:07.424Z</time></trkpt><trkpt lat="42.9524098" lon="13.0831976"><ele>686.75</ele><time>2026-04-05T15:39:08.424Z</time></trkpt><trkpt lat="42.9525525" lon="13.0831631"><ele>687.0</ele><time>2026-04-05T15:39:09.424Z</time></trkpt><trkpt lat="42.9526846" lon="13.0831341"><ele>687.0</ele><time>2026-04-05T15:39:10.424Z</time></trkpt><trkpt lat="42.9528115" lon="13.0831259"><ele>687.0</ele><time>2026-04-05T15:39:11.424Z</time></trkpt><trkpt lat="42.9529363" lon="13.0831335"><ele>687.0</ele><time>2026-04-05T15:39:12.423Z</time></trkpt><trkpt lat="42.9530571" lon="13.083182"><ele>687.0</ele><time>2026-04-05T15:39:13.424Z</time></trkpt><trkpt lat="42.9531798" lon="13.083228"><ele>689.0</ele><time>2026-04-05T15:39:14.424Z</time></trkpt><trkpt lat="42.9533002" lon="13.0832823"><ele>691.0</ele><time>2026-04-05T15:39:15.424Z</time></trkpt><trkpt lat="42.9534141" lon="13.0833386"><ele>693.0</ele><time>2026-04-05T15:39:16.424Z</time></trkpt><trkpt lat="42.9535264" lon="13.0833896"><ele>695.0</ele><time>2026-04-05T15:39:17.423Z</time></trkpt><trkpt lat="42.9536562" lon="13.0834243"><ele>696.0</ele><time>2026-04-05T15:39:18.424Z</time></trkpt><trkpt lat="42.9537829" lon="13.0834314"><ele>697.0</ele><time>2026-04-05T15:39:19.424Z</time></trkpt><trkpt lat="42.9539138" lon="13.083423"><ele>698.0</ele><time>2026-04-05T15:39:20.424Z</time></trkpt><trkpt lat="42.9540308" lon="13.0834095"><ele>699.0</ele><time>2026-04-05T15:39:21.424Z</time></trkpt><trkpt lat="42.9541419" lon="13.0833889"><ele>699.0</ele><time>2026-04-05T15:39:22.423Z</time></trkpt><trkpt lat="42.954246" lon="13.0833762"><ele>699.0</ele><time>2026-04-05T15:39:23.424Z</time></trkpt><trkpt lat="42.9543453" lon="13.0833766"><ele>699.0</ele><time>2026-04-05T15:39:24.424Z</time></trkpt><trkpt lat="42.95443" lon="13.0833995"><ele>699.0</ele><time>2026-04-05T15:39:25.424Z</time></trkpt><trkpt lat="42.9545109" lon="13.0834363"><ele>699.0</ele><time>2026-04-05T15:39:26.424Z</time></trkpt><trkpt lat="42.9545904" lon="13.0835136"><ele>699.0</ele><time>2026-04-05T15:39:27.423Z</time></trkpt><trkpt lat="42.9546565" lon="13.0836233"><ele>699.0</ele><time>2026-04-05T15:39:28.423Z</time></trkpt><trkpt lat="42.9547061" lon="13.0837439"><ele>699.0</ele><time>2026-04-05T15:39:29.424Z</time></trkpt><trkpt lat="42.9547466" lon="13.0838638"><ele>699.0</ele><time>2026-04-05T15:39:30.423Z</time></trkpt><trkpt lat="42.9547785" lon="13.083981"><ele>699.0</ele><time>2026-04-05T15:39:31.423Z</time></trkpt><trkpt lat="42.9548129" lon="13.0841115"><ele>701.6</ele><time>2026-04-05T15:39:32.424Z</time></trkpt><trkpt lat="42.954868" lon="13.0842245"><ele>704.2</ele><time>2026-04-05T15:39:33.424Z</time></trkpt><trkpt lat="42.9549249" lon="13.0843293"><ele>706.8000000000001</ele><time>2026-04-05T15:39:34.423Z</time></trkpt><trkpt lat="42.95499" lon="13.0844312"><ele>709.4000000000001</ele><time>2026-04-05T15:39:35.423Z</time></trkpt><trkpt lat="42.9550518" lon="13.0845409"><ele>712.0</ele><time>2026-04-05T15:39:36.423Z</time></trkpt><trkpt lat="42.955123" lon="13.0846443"><ele>713.8</ele><time>2026-04-05T15:39:37.423Z</time></trkpt><trkpt lat="42.9551944" lon="13.0847469"><ele>715.6</ele><time>2026-04-05T15:39:38.423Z</time></trkpt><trkpt lat="42.9552644" lon="13.0848452"><ele>717.4</ele><time>2026-04-05T15:39:39.424Z</time></trkpt><trkpt lat="42.9553303" lon="13.0849376"><ele>719.1999999999999</ele><time>2026-04-05T15:39:40.424Z</time></trkpt><trkpt lat="42.9553998" lon="13.0850284"><ele>721.0</ele><time>2026-04-05T15:39:41.424Z</time></trkpt><trkpt lat="42.9554633" lon="13.0851103"><ele>721.6666666666667</ele><time>2026-04-05T15:39:42.424Z</time></trkpt><trkpt lat="42.9555378" lon="13.0851669"><ele>722.3333333333334</ele><time>2026-04-05T15:39:43.423Z</time></trkpt><trkpt lat="42.9556217" lon="13.085181"><ele>723.0</ele><time>2026-04-05T15:39:44.423Z</time></trkpt><trkpt lat="42.9557094" lon="13.0851748"><ele>723.6666666666666</ele><time>2026-04-05T15:39:45.424Z</time></trkpt><trkpt lat="42.9558038" lon="13.0851546"><ele>724.3333333333333</ele><time>2026-04-05T15:39:46.424Z</time></trkpt><trkpt lat="42.9558959" lon="13.0851243"><ele>725.0</ele><time>2026-04-05T15:39:47.424Z</time></trkpt><trkpt lat="42.9559853" lon="13.0850919"><ele>728.5</ele><time>2026-04-05T15:39:48.423Z</time></trkpt><trkpt lat="42.9560687" lon="13.0850831"><ele>732.0</ele><time>2026-04-05T15:39:49.424Z</time></trkpt><trkpt lat="42.9561495" lon="13.0850535"><ele>735.5</ele><time>2026-04-05T15:39:50.424Z</time></trkpt><trkpt lat="42.956224" lon="13.0850281"><ele>739.0</ele><time>2026-04-05T15:39:51.424Z</time></trkpt><trkpt lat="42.9562893" lon="13.0849912"><ele>742.5</ele><time>2026-04-05T15:39:52.424Z</time></trkpt><trkpt lat="42.9563305" lon="13.0849249"><ele>746.0</ele><time>2026-04-05T15:39:53.424Z</time></trkpt><trkpt lat="42.9563576" lon="13.084833"><ele>747.0</ele><time>2026-04-05T15:39:54.423Z</time></trkpt><trkpt lat="42.9563424" lon="13.084724"><ele>748.0</ele><time>2026-04-05T15:39:55.424Z</time></trkpt><trkpt lat="42.9563057" lon="13.0846082"><ele>749.0</ele><time>2026-04-05T15:39:56.424Z</time></trkpt><trkpt lat="42.9562487" lon="13.0845044"><ele>750.0</ele><time>2026-04-05T15:39:57.423Z</time></trkpt><trkpt lat="42.956179" lon="13.0844064"><ele>751.0</ele><time>2026-04-05T15:39:58.423Z</time></trkpt><trkpt lat="42.9561056" lon="13.0843176"><ele>751.0</ele><time>2026-04-05T15:39:59.423Z</time></trkpt><trkpt lat="42.9560405" lon="13.0842278"><ele>751.0</ele><time>2026-04-05T15:40:00.424Z</time></trkpt><trkpt lat="42.9559867" lon="13.0841312"><ele>751.0</ele><time>2026-04-05T15:40:01.424Z</time></trkpt><trkpt lat="42.9559458" lon="13.0840262"><ele>751.0</ele><time>2026-04-05T15:40:02.424Z</time></trkpt><trkpt lat="42.955933" lon="13.083913"><ele>751.0</ele><time>2026-04-05T15:40:03.424Z</time></trkpt><trkpt lat="42.955943" lon="13.0837938"><ele>751.0</ele><time>2026-04-05T15:40:04.424Z</time></trkpt><trkpt lat="42.9559589" lon="13.0836716"><ele>749.1999999999999</ele><time>2026-04-05T15:40:05.424Z</time></trkpt><trkpt lat="42.9559924" lon="13.0835552"><ele>747.4</ele><time>2026-04-05T15:40:06.424Z</time></trkpt><trkpt lat="42.9560259" lon="13.0834379"><ele>745.6</ele><time>2026-04-05T15:40:07.424Z</time></trkpt><trkpt lat="42.956066" lon="13.083325"><ele>743.8</ele><time>2026-04-05T15:40:08.424Z</time></trkpt><trkpt lat="42.9561209" lon="13.0832219"><ele>742.0</ele><time>2026-04-05T15:40:09.424Z</time></trkpt><trkpt lat="42.956176" lon="13.0831227"><ele>737.0</ele><time>2026-04-05T15:40:10.424Z</time></trkpt><trkpt lat="42.9562571" lon="13.0830404"><ele>732.0</ele><time>2026-04-05T15:40:11.424Z</time></trkpt><trkpt lat="42.9563464" lon="13.0829649"><ele>727.0</ele><time>2026-04-05T15:40:12.424Z</time></trkpt><trkpt lat="42.9564466" lon="13.0829115"><ele>722.0</ele><time>2026-04-05T15:40:13.424Z</time></trkpt><trkpt lat="42.9565487" lon="13.0828836"><ele>717.0</ele><time>2026-04-05T15:40:14.424Z</time></trkpt><trkpt lat="42.9566414" lon="13.0828909"><ele>718.6</ele><time>2026-04-05T15:40:15.424Z</time></trkpt><trkpt lat="42.9567212" lon="13.0829191"><ele>720.2</ele><time>2026-04-05T15:40:16.424Z</time></trkpt><trkpt lat="42.9567872" lon="13.0829964"><ele>721.8</ele><time>2026-04-05T15:40:17.424Z</time></trkpt><trkpt lat="42.9568501" lon="13.0830835"><ele>723.4</ele><time>2026-04-05T15:40:18.424Z</time></trkpt><trkpt lat="42.9569251" lon="13.0831824"><ele>725.0</ele><time>2026-04-05T15:40:19.424Z</time></trkpt><trkpt lat="42.9570025" lon="13.0832887"><ele>728.0</ele><time>2026-04-05T15:40:20.424Z</time></trkpt><trkpt lat="42.9570806" lon="13.0834063"><ele>731.0</ele><time>2026-04-05T15:40:21.423Z</time></trkpt><trkpt lat="42.9571549" lon="13.0835197"><ele>734.0</ele><time>2026-04-05T15:40:22.424Z</time></trkpt><trkpt lat="42.957226" lon="13.0836155"><ele>737.0</ele><time>2026-04-05T15:40:23.424Z</time></trkpt><trkpt lat="42.9573048" lon="13.0837191"><ele>740.0</ele><time>2026-04-05T15:40:24.424Z</time></trkpt><trkpt lat="42.9573956" lon="13.0838077"><ele>740.0</ele><time>2026-04-05T15:40:25.424Z</time></trkpt><trkpt lat="42.9574931" lon="13.083865"><ele>740.0</ele><time>2026-04-05T15:40:26.423Z</time></trkpt><trkpt lat="42.9575944" lon="13.0839061"><ele>740.0</ele><time>2026-04-05T15:40:27.423Z</time></trkpt><trkpt lat="42.9577003" lon="13.0839179"><ele>740.0</ele><time>2026-04-05T15:40:28.423Z</time></trkpt><trkpt lat="42.9578006" lon="13.0839088"><ele>740.0</ele><time>2026-04-05T15:40:29.424Z</time></trkpt><trkpt lat="42.9579134" lon="13.0838544"><ele>742.25</ele><time>2026-04-05T15:40:30.423Z</time></trkpt><trkpt lat="42.9580311" lon="13.0837688"><ele>744.5</ele><time>2026-04-05T15:40:31.424Z</time></trkpt><trkpt lat="42.958136" lon="13.0836503"><ele>746.75</ele><time>2026-04-05T15:40:32.423Z</time></trkpt><trkpt lat="42.9582318" lon="13.0835162"><ele>749.0</ele><time>2026-04-05T15:40:33.424Z</time></trkpt><trkpt lat="42.9583204" lon="13.0833956"><ele>748.5</ele><time>2026-04-05T15:40:34.423Z</time></trkpt><trkpt lat="42.958402" lon="13.0832816"><ele>748.0</ele><time>2026-04-05T15:40:35.424Z</time></trkpt><trkpt lat="42.9584849" lon="13.0831691"><ele>747.5</ele><time>2026-04-05T15:40:36.423Z</time></trkpt><trkpt lat="42.9585709" lon="13.0830628"><ele>747.0</ele><time>2026-04-05T15:40:37.424Z</time></trkpt><trkpt lat="42.9586653" lon="13.0829631"><ele>747.0</ele><time>2026-04-05T15:40:38.424Z</time></trkpt><trkpt lat="42.958774" lon="13.0828564"><ele>747.0</ele><time>2026-04-05T15:40:39.424Z</time></trkpt><trkpt lat="42.9589024" lon="13.0827427"><ele>747.0</ele><time>2026-04-05T15:40:40.424Z</time></trkpt><trkpt lat="42.9590526" lon="13.0826246"><ele>748.6666666666666</ele><time>2026-04-05T15:40:41.424Z</time></trkpt><trkpt lat="42.9592156" lon="13.0824967"><ele>750.3333333333333</ele><time>2026-04-05T15:40:42.424Z</time></trkpt><trkpt lat="42.9593752" lon="13.0823734"><ele>752.0</ele><time>2026-04-05T15:40:43.424Z</time></trkpt><trkpt lat="42.9595469" lon="13.0822366"><ele>752.0</ele><time>2026-04-05T15:40:44.423Z</time></trkpt><trkpt lat="42.9597252" lon="13.0820978"><ele>752.0</ele><time>2026-04-05T15:40:45.424Z</time></trkpt><trkpt lat="42.9599097" lon="13.0819669"><ele>752.0</ele><time>2026-04-05T15:40:46.423Z</time></trkpt><trkpt lat="42.9600866" lon="13.0818303"><ele>755.6666666666666</ele><time>2026-04-05T15:40:47.423Z</time></trkpt><trkpt lat="42.9602658" lon="13.0816923"><ele>759.3333333333334</ele><time>2026-04-05T15:40:48.424Z</time></trkpt><trkpt lat="42.9604338" lon="13.0815583"><ele>763.0</ele><time>2026-04-05T15:40:49.424Z</time></trkpt><trkpt lat="42.960605" lon="13.0814369"><ele>771.6666666666667</ele><time>2026-04-05T15:40:50.423Z</time></trkpt><trkpt lat="42.9607772" lon="13.081333"><ele>780.3333333333334</ele><time>2026-04-05T15:40:51.424Z</time></trkpt><trkpt lat="42.9609565" lon="13.0812543"><ele>789.0</ele><time>2026-04-05T15:40:52.424Z</time></trkpt><trkpt lat="42.961139" lon="13.0811976"><ele>789.0</ele><time>2026-04-05T15:40:53.424Z</time></trkpt><trkpt lat="42.9613347" lon="13.0811539"><ele>789.0</ele><time>2026-04-05T15:40:54.424Z</time></trkpt><trkpt lat="42.9615386" lon="13.0811231"><ele>789.0</ele><time>2026-04-05T15:40:55.423Z</time></trkpt><trkpt lat="42.9617458" lon="13.0810935"><ele>787.6666666666667</ele><time>2026-04-05T15:40:56.424Z</time></trkpt><trkpt lat="42.9619531" lon="13.0810658"><ele>786.3333333333334</ele><time>2026-04-05T15:40:57.424Z</time></trkpt><trkpt lat="42.9621515" lon="13.081041"><ele>785.0</ele><time>2026-04-05T15:40:58.424Z</time></trkpt><trkpt lat="42.9623507" lon="13.0810284"><ele>787.3333333333334</ele><time>2026-04-05T15:40:59.424Z</time></trkpt><trkpt lat="42.962547" lon="13.0810078"><ele>789.6666666666667</ele><time>2026-04-05T15:41:00.423Z</time></trkpt><trkpt lat="42.9627397" lon="13.0809885"><ele>792.0</ele><time>2026-04-05T15:41:01.424Z</time></trkpt><trkpt lat="42.9629317" lon="13.0809689"><ele>782.0</ele><time>2026-04-05T15:41:02.424Z</time></trkpt><trkpt lat="42.9671855" lon="13.0788958"><ele>782.0</ele><time>2026-04-05T15:41:26.424Z</time></trkpt><trkpt lat="42.967362" lon="13.0787869"><ele>782.0</ele><time>2026-04-05T15:41:27.423Z</time></trkpt><trkpt lat="42.9675406" lon="13.0786865"><ele>782.0</ele><time>2026-04-05T15:41:28.424Z</time></trkpt><trkpt lat="42.9677171" lon="13.0785756"><ele>780.6666666666667</ele><time>2026-04-05T15:41:29.424Z</time></trkpt><trkpt lat="42.967911" lon="13.0784598"><ele>779.3333333333333</ele><time>2026-04-05T15:41:30.424Z</time></trkpt><trkpt lat="42.9681142" lon="13.0783374"><ele>778.0</ele><time>2026-04-05T15:41:31.424Z</time></trkpt><trkpt lat="42.9683264" lon="13.0782099"><ele>772.5</ele><time>2026-04-05T15:41:32.424Z</time></trkpt><trkpt lat="42.9685433" lon="13.07808"><ele>767.0</ele><time>2026-04-05T15:41:33.424Z</time></trkpt><trkpt lat="42.968763" lon="13.0779472"><ele>767.0</ele><time>2026-04-05T15:41:34.424Z</time></trkpt><trkpt lat="42.9689841" lon="13.0778181"><ele>767.0</ele><time>2026-04-05T15:41:35.423Z</time></trkpt><trkpt lat="42.9692044" lon="13.0776886"><ele>763.5</ele><time>2026-04-05T15:41:36.424Z</time></trkpt><trkpt lat="42.9694319" lon="13.0775654"><ele>760.0</ele><time>2026-04-05T15:41:37.424Z</time></trkpt><trkpt lat="42.9696516" lon="13.077435"><ele>758.5</ele><time>2026-04-05T15:41:38.424Z</time></trkpt><trkpt lat="42.9698702" lon="13.0773048"><ele>757.0</ele><time>2026-04-05T15:41:39.423Z</time></trkpt><trkpt lat="42.9700796" lon="13.0771767"><ele>757.0</ele><time>2026-04-05T15:41:40.423Z</time></trkpt><trkpt lat="42.9702825" lon="13.0770519"><ele>757.0</ele><time>2026-04-05T15:41:41.424Z</time></trkpt><trkpt lat="42.9704823" lon="13.0769327"><ele>757.0</ele><time>2026-04-05T15:41:42.423Z</time></trkpt><trkpt lat="42.9706781" lon="13.0768214"><ele>757.3333333333334</ele><time>2026-04-05T15:41:43.423Z</time></trkpt><trkpt lat="42.9708682" lon="13.07671"><ele>757.6666666666666</ele><time>2026-04-05T15:41:44.423Z</time></trkpt><trkpt lat="42.9710572" lon="13.0766187"><ele>758.0</ele><time>2026-04-05T15:41:45.423Z</time></trkpt><trkpt lat="42.9712541" lon="13.0765443"><ele>758.0</ele><time>2026-04-05T15:41:46.423Z</time></trkpt><trkpt lat="42.9714591" lon="13.0764933"><ele>758.0</ele><time>2026-04-05T15:41:47.424Z</time></trkpt><trkpt lat="42.9716779" lon="13.0764792"><ele>758.0</ele><time>2026-04-05T15:41:48.423Z</time></trkpt><trkpt lat="42.9719006" lon="13.0764976"><ele>754.6666666666666</ele><time>2026-04-05T15:41:49.424Z</time></trkpt><trkpt lat="42.9721149" lon="13.0765416"><ele>751.3333333333334</ele><time>2026-04-05T15:41:50.424Z</time></trkpt><trkpt lat="42.9723221" lon="13.0766044"><ele>748.0</ele><time>2026-04-05T15:41:51.424Z</time></trkpt><trkpt lat="42.9725344" lon="13.076697"><ele>738.5</ele><time>2026-04-05T15:41:52.424Z</time></trkpt><trkpt lat="42.9727416" lon="13.076823"><ele>729.0</ele><time>2026-04-05T15:41:53.423Z</time></trkpt><trkpt lat="42.972946" lon="13.0769633"><ele>729.0</ele><time>2026-04-05T15:41:54.424Z</time></trkpt><trkpt lat="42.9731435" lon="13.0771079"><ele>729.0</ele><time>2026-04-05T15:41:55.424Z</time></trkpt><trkpt lat="42.9733341" lon="13.0772448"><ele>729.0</ele><time>2026-04-05T15:41:56.424Z</time></trkpt><trkpt lat="42.9735206" lon="13.0773718"><ele>728.6666666666666</ele><time>2026-04-05T15:41:57.423Z</time></trkpt><trkpt lat="42.9737111" lon="13.0774899"><ele>728.3333333333333</ele><time>2026-04-05T15:41:58.423Z</time></trkpt><trkpt lat="42.9739076" lon="13.0775862"><ele>728.0</ele><time>2026-04-05T15:41:59.424Z</time></trkpt><trkpt lat="42.9741034" lon="13.0776513"><ele>728.3333333333333</ele><time>2026-04-05T15:42:00.424Z</time></trkpt><trkpt lat="42.9743011" lon="13.0776934"><ele>728.6666666666666</ele><time>2026-04-05T15:42:01.423Z</time></trkpt><trkpt lat="42.9745075" lon="13.077706"><ele>729.0</ele><time>2026-04-05T15:42:02.424Z</time></trkpt><trkpt lat="42.9747162" lon="13.0776894"><ele>729.0</ele><time>2026-04-05T15:42:03.424Z</time></trkpt><trkpt lat="42.9749245" lon="13.0776298"><ele>729.0</ele><time>2026-04-05T15:42:04.424Z</time></trkpt><trkpt lat="42.9751366" lon="13.0775437"><ele>729.0</ele><time>2026-04-05T15:42:05.424Z</time></trkpt><trkpt lat="42.9753459" lon="13.0774537"><ele>725.0</ele><time>2026-04-05T15:42:06.424Z</time></trkpt><trkpt lat="42.9755592" lon="13.0773452"><ele>721.0</ele><time>2026-04-05T15:42:07.423Z</time></trkpt><trkpt lat="42.9757738" lon="13.0772324"><ele>715.0</ele><time>2026-04-05T15:42:08.424Z</time></trkpt><trkpt lat="42.9759935" lon="13.077115"><ele>709.0</ele><time>2026-04-05T15:42:09.424Z</time></trkpt><trkpt lat="42.9762146" lon="13.0769985"><ele>709.0</ele><time>2026-04-05T15:42:10.424Z</time></trkpt><trkpt lat="42.9764317" lon="13.0768711"><ele>709.0</ele><time>2026-04-05T15:42:11.423Z</time></trkpt><trkpt lat="42.9766563" lon="13.0767572"><ele>709.0</ele><time>2026-04-05T15:42:12.424Z</time></trkpt><trkpt lat="42.9768772" lon="13.0766255"><ele>709.0</ele><time>2026-04-05T15:42:13.424Z</time></trkpt><trkpt lat="42.9770905" lon="13.0765001"><ele>708.0</ele><time>2026-04-05T15:42:14.424Z</time></trkpt><trkpt lat="42.9772946" lon="13.0763845"><ele>707.0</ele><time>2026-04-05T15:42:15.424Z</time></trkpt><trkpt lat="42.9774915" lon="13.0762682"><ele>706.0</ele><time>2026-04-05T15:42:16.424Z</time></trkpt><trkpt lat="42.9776731" lon="13.076157"><ele>706.0</ele><time>2026-04-05T15:42:17.424Z</time></trkpt><trkpt lat="42.9778612" lon="13.076063"><ele>706.0</ele><time>2026-04-05T15:42:18.424Z</time></trkpt><trkpt lat="42.9780578" lon="13.075993"><ele>706.0</ele><time>2026-04-05T15:42:19.424Z</time></trkpt><trkpt lat="42.9782608" lon="13.0759492"><ele>703.0</ele><time>2026-04-05T15:42:20.424Z</time></trkpt><trkpt lat="42.9784679" lon="13.0759244"><ele>700.0</ele><time>2026-04-05T15:42:21.424Z</time></trkpt><trkpt lat="42.9786759" lon="13.0759331"><ele>697.0</ele><time>2026-04-05T15:42:22.424Z</time></trkpt><trkpt lat="42.978881" lon="13.0759673"><ele>697.0</ele><time>2026-04-05T15:42:23.423Z</time></trkpt><trkpt lat="42.9790927" lon="13.0760335"><ele>697.0</ele><time>2026-04-05T15:42:24.424Z</time></trkpt><trkpt lat="42.9793024" lon="13.0761096"><ele>697.0</ele><time>2026-04-05T15:42:25.424Z</time></trkpt><trkpt lat="42.9795038" lon="13.0761928"><ele>691.0</ele><time>2026-04-05T15:42:26.424Z</time></trkpt><trkpt lat="42.9796901" lon="13.0762762"><ele>685.0</ele><time>2026-04-05T15:42:27.424Z</time></trkpt><trkpt lat="42.9798849" lon="13.0763557"><ele>679.0</ele><time>2026-04-05T15:42:28.424Z</time></trkpt><trkpt lat="42.9800871" lon="13.0764179"><ele>676.0</ele><time>2026-04-05T15:42:29.424Z</time></trkpt><trkpt lat="42.9802776" lon="13.0764587"><ele>673.0</ele><time>2026-04-05T15:42:30.424Z</time></trkpt><trkpt lat="42.9804744" lon="13.0764797"><ele>670.0</ele><time>2026-04-05T15:42:31.424Z</time></trkpt><trkpt lat="42.9806875" lon="13.0764736"><ele>671.6666666666667</ele><time>2026-04-05T15:42:32.423Z</time></trkpt><trkpt lat="42.9809064" lon="13.076442"><ele>673.3333333333334</ele><time>2026-04-05T15:42:33.424Z</time></trkpt><trkpt lat="42.9811308" lon="13.0763812"><ele>675.0</ele><time>2026-04-05T15:42:34.424Z</time></trkpt><trkpt lat="42.9813711" lon="13.0763212"><ele>675.0</ele><time>2026-04-05T15:42:35.424Z</time></trkpt><trkpt lat="42.9816411" lon="13.0762606"><ele>675.0</ele><time>2026-04-05T15:42:36.423Z</time></trkpt><trkpt lat="42.9819116" lon="13.0762181"><ele>674.0</ele><time>2026-04-05T15:42:37.423Z</time></trkpt><trkpt lat="42.9821877" lon="13.0761662"><ele>673.0</ele><time>2026-04-05T15:42:38.424Z</time></trkpt><trkpt lat="42.9824634" lon="13.076109"><ele>674.0</ele><time>2026-04-05T15:42:39.423Z</time></trkpt><trkpt lat="42.9827485" lon="13.0760513"><ele>675.0</ele><time>2026-04-05T15:42:40.424Z</time></trkpt><trkpt lat="42.9830308" lon="13.0759913"><ele>675.0</ele><time>2026-04-05T15:42:41.424Z</time></trkpt><trkpt lat="42.983316" lon="13.0759127"><ele>675.0</ele><time>2026-04-05T15:42:42.423Z</time></trkpt><trkpt lat="42.9835971" lon="13.0758522"><ele>676.0</ele><time>2026-04-05T15:42:43.424Z</time></trkpt><trkpt lat="42.9838809" lon="13.0757924"><ele>677.0</ele><time>2026-04-05T15:42:44.424Z</time></trkpt><trkpt lat="42.9841618" lon="13.0757407"><ele>664.5</ele><time>2026-04-05T15:42:45.423Z</time></trkpt><trkpt lat="42.9844484" lon="13.0756817"><ele>652.0</ele><time>2026-04-05T15:42:46.423Z</time></trkpt><trkpt lat="42.9847281" lon="13.0756279"><ele>652.0</ele><time>2026-04-05T15:42:47.424Z</time></trkpt><trkpt lat="42.9850047" lon="13.0755712"><ele>652.0</ele><time>2026-04-05T15:42:48.424Z</time></trkpt><trkpt lat="42.9852799" lon="13.0755141"><ele>652.5</ele><time>2026-04-05T15:42:49.424Z</time></trkpt><trkpt lat="42.9855425" lon="13.0754625"><ele>653.0</ele><time>2026-04-05T15:42:50.424Z</time></trkpt><trkpt lat="42.9857851" lon="13.0754134"><ele>652.0</ele><time>2026-04-05T15:42:51.423Z</time></trkpt><trkpt lat="42.9860173" lon="13.07535"><ele>651.0</ele><time>2026-04-05T15:42:52.424Z</time></trkpt><trkpt lat="42.9862453" lon="13.0752619"><ele>651.0</ele><time>2026-04-05T15:42:53.424Z</time></trkpt><trkpt lat="42.9864753" lon="13.0751721"><ele>651.0</ele><time>2026-04-05T15:42:54.424Z</time></trkpt><trkpt lat="42.9867064" lon="13.0750558"><ele>644.5</ele><time>2026-04-05T15:42:55.423Z</time></trkpt><trkpt lat="42.9869339" lon="13.0749479"><ele>638.0</ele><time>2026-04-05T15:42:56.423Z</time></trkpt><trkpt lat="42.9871527" lon="13.0748234"><ele>638.0</ele><time>2026-04-05T15:42:57.424Z</time></trkpt><trkpt lat="42.987383" lon="13.0746985"><ele>638.0</ele><time>2026-04-05T15:42:58.423Z</time></trkpt><trkpt lat="42.9876132" lon="13.0745888"><ele>642.5</ele><time>2026-04-05T15:42:59.424Z</time></trkpt><trkpt lat="42.987841" lon="13.0744892"><ele>647.0</ele><time>2026-04-05T15:43:00.423Z</time></trkpt><trkpt lat="42.9880683" lon="13.074389"><ele>647.0</ele><time>2026-04-05T15:43:01.423Z</time></trkpt><trkpt lat="42.9882914" lon="13.0742968"><ele>647.0</ele><time>2026-04-05T15:43:02.424Z</time></trkpt><trkpt lat="42.9885021" lon="13.0741885"><ele>641.6666666666666</ele><time>2026-04-05T15:43:03.424Z</time></trkpt><trkpt lat="42.9887065" lon="13.0740657"><ele>636.3333333333334</ele><time>2026-04-05T15:43:04.424Z</time></trkpt><trkpt lat="42.9889079" lon="13.0739258"><ele>631.0</ele><time>2026-04-05T15:43:05.424Z</time></trkpt><trkpt lat="42.9891098" lon="13.073752"><ele>639.5</ele><time>2026-04-05T15:43:06.424Z</time></trkpt><trkpt lat="42.9893068" lon="13.0735691"><ele>648.0</ele><time>2026-04-05T15:43:07.424Z</time></trkpt><trkpt lat="42.9894949" lon="13.0733793"><ele>640.0</ele><time>2026-04-05T15:43:08.424Z</time></trkpt><trkpt lat="42.9896905" lon="13.0731844"><ele>632.0</ele><time>2026-04-05T15:43:09.424Z</time></trkpt><trkpt lat="42.9898866" lon="13.0729989"><ele>638.5</ele><time>2026-04-05T15:43:10.424Z</time></trkpt><trkpt lat="42.9900824" lon="13.072809"><ele>645.0</ele><time>2026-04-05T15:43:11.423Z</time></trkpt><trkpt lat="42.9902728" lon="13.0726117"><ele>636.5</ele><time>2026-04-05T15:43:12.423Z</time></trkpt><trkpt lat="42.9904582" lon="13.072426"><ele>628.0</ele><time>2026-04-05T15:43:13.424Z</time></trkpt><trkpt lat="42.9906444" lon="13.0722552"><ele>628.0</ele><time>2026-04-05T15:43:14.424Z</time></trkpt><trkpt lat="42.9908313" lon="13.0720829"><ele>628.0</ele><time>2026-04-05T15:43:15.424Z</time></trkpt><trkpt lat="42.9910237" lon="13.0719295"><ele>628.0</ele><time>2026-04-05T15:43:16.424Z</time></trkpt><trkpt lat="42.991225" lon="13.0717862"><ele>630.5</ele><time>2026-04-05T15:43:17.424Z</time></trkpt><trkpt lat="42.9914303" lon="13.0716614"><ele>633.0</ele><time>2026-04-05T15:43:18.424Z</time></trkpt><trkpt lat="42.9916378" lon="13.0715313"><ele>624.5</ele><time>2026-04-05T15:43:19.423Z</time></trkpt><trkpt lat="42.9918506" lon="13.0714028"><ele>616.0</ele><time>2026-04-05T15:43:20.423Z</time></trkpt><trkpt lat="42.9920673" lon="13.0712726"><ele>616.0</ele><time>2026-04-05T15:43:21.424Z</time></trkpt><trkpt lat="42.9922853" lon="13.0711343"><ele>616.0</ele><time>2026-04-05T15:43:22.424Z</time></trkpt><trkpt lat="42.9925073" lon="13.070998"><ele>614.5</ele><time>2026-04-05T15:43:23.424Z</time></trkpt><trkpt lat="42.9927309" lon="13.0708686"><ele>613.0</ele><time>2026-04-05T15:43:24.424Z</time></trkpt><trkpt lat="42.992953" lon="13.0707407"><ele>613.0</ele><time>2026-04-05T15:43:25.423Z</time></trkpt><trkpt lat="42.9931677" lon="13.0706069"><ele>613.0</ele><time>2026-04-05T15:43:26.424Z</time></trkpt><trkpt lat="42.9933806" lon="13.0704679"><ele>617.0</ele><time>2026-04-05T15:43:27.424Z</time></trkpt><trkpt lat="42.9935882" lon="13.0703193"><ele>621.0</ele><time>2026-04-05T15:43:28.424Z</time></trkpt><trkpt lat="42.9937869" lon="13.0701567"><ele>621.0</ele><time>2026-04-05T15:43:29.424Z</time></trkpt><trkpt lat="42.9939751" lon="13.0699837"><ele>621.0</ele><time>2026-04-05T15:43:30.423Z</time></trkpt><trkpt lat="42.9941581" lon="13.0697963"><ele>619.5</ele><time>2026-04-05T15:43:31.424Z</time></trkpt><trkpt lat="42.9943294" lon="13.0695953"><ele>618.0</ele><time>2026-04-05T15:43:32.423Z</time></trkpt><trkpt lat="42.9945029" lon="13.0693891"><ele>618.0</ele><time>2026-04-05T15:43:33.423Z</time></trkpt><trkpt lat="42.9946658" lon="13.0691683"><ele>618.0</ele><time>2026-04-05T15:43:34.423Z</time></trkpt><trkpt lat="42.9948259" lon="13.0689318"><ele>620.5</ele><time>2026-04-05T15:43:35.424Z</time></trkpt><trkpt lat="42.9949711" lon="13.0686898"><ele>623.0</ele><time>2026-04-05T15:43:36.424Z</time></trkpt><trkpt lat="42.9951249" lon="13.0684403"><ele>615.0</ele><time>2026-04-05T15:43:37.424Z</time></trkpt><trkpt lat="42.9952708" lon="13.068199"><ele>607.0</ele><time>2026-04-05T15:43:38.424Z</time></trkpt><trkpt lat="42.9954161" lon="13.0679487"><ele>607.0</ele><time>2026-04-05T15:43:39.423Z</time></trkpt><trkpt lat="42.9955582" lon="13.067706"><ele>607.0</ele><time>2026-04-05T15:43:40.423Z</time></trkpt><trkpt lat="42.9957041" lon="13.0674716"><ele>608.0</ele><time>2026-04-05T15:43:41.424Z</time></trkpt><trkpt lat="42.9958463" lon="13.0672348"><ele>609.0</ele><time>2026-04-05T15:43:42.424Z</time></trkpt><trkpt lat="42.9959916" lon="13.0670019"><ele>610.0</ele><time>2026-04-05T15:43:43.423Z</time></trkpt><trkpt lat="42.996128" lon="13.0667763"><ele>606.6666666666667</ele><time>2026-04-05T15:43:44.423Z</time></trkpt><trkpt lat="42.996261" lon="13.0665541"><ele>603.3333333333334</ele><time>2026-04-05T15:43:45.424Z</time></trkpt><trkpt lat="42.9963816" lon="13.0663202"><ele>600.0</ele><time>2026-04-05T15:43:46.423Z</time></trkpt><trkpt lat="42.996485" lon="13.0660832"><ele>600.0</ele><time>2026-04-05T15:43:47.424Z</time></trkpt><trkpt lat="42.9965819" lon="13.0658509"><ele>600.0</ele><time>2026-04-05T15:43:48.424Z</time></trkpt><trkpt lat="42.9966589" lon="13.0656142"><ele>600.0</ele><time>2026-04-05T15:43:49.424Z</time></trkpt><trkpt lat="42.9967217" lon="13.0653682"><ele>600.3333333333334</ele><time>2026-04-05T15:43:50.424Z</time></trkpt><trkpt lat="42.9967711" lon="13.0651183"><ele>600.6666666666667</ele><time>2026-04-05T15:43:51.424Z</time></trkpt><trkpt lat="42.9968029" lon="13.0648678"><ele>601.0</ele><time>2026-04-05T15:43:52.424Z</time></trkpt><trkpt lat="42.996825" lon="13.0646219"><ele>601.3333333333334</ele><time>2026-04-05T15:43:53.423Z</time></trkpt><trkpt lat="42.9968248" lon="13.0643765"><ele>601.6666666666666</ele><time>2026-04-05T15:43:54.424Z</time></trkpt><trkpt lat="42.9968172" lon="13.0641152"><ele>602.0</ele><time>2026-04-05T15:43:55.424Z</time></trkpt><trkpt lat="42.9967974" lon="13.0638545"><ele>601.0</ele><time>2026-04-05T15:43:56.424Z</time></trkpt><trkpt lat="42.9967754" lon="13.0636052"><ele>600.0</ele><time>2026-04-05T15:43:57.424Z</time></trkpt><trkpt lat="42.9967461" lon="13.0633416"><ele>599.0</ele><time>2026-04-05T15:43:58.424Z</time></trkpt><trkpt lat="42.9967155" lon="13.0630754"><ele>597.0</ele><time>2026-04-05T15:43:59.424Z</time></trkpt><trkpt lat="42.9966875" lon="13.0628066"><ele>595.0</ele><time>2026-04-05T15:44:00.423Z</time></trkpt><trkpt lat="42.9966591" lon="13.0625409"><ele>593.0</ele><time>2026-04-05T15:44:01.424Z</time></trkpt><trkpt lat="42.9966225" lon="13.0622753"><ele>593.0</ele><time>2026-04-05T15:44:02.424Z</time></trkpt><trkpt lat="42.9965894" lon="13.061999"><ele>593.0</ele><time>2026-04-05T15:44:03.424Z</time></trkpt><trkpt lat="42.9965602" lon="13.0617273"><ele>593.0</ele><time>2026-04-05T15:44:04.424Z</time></trkpt><trkpt lat="42.9965339" lon="13.0614566"><ele>592.3333333333333</ele><time>2026-04-05T15:44:05.424Z</time></trkpt><trkpt lat="42.9965165" lon="13.0611843"><ele>591.6666666666666</ele><time>2026-04-05T15:44:06.424Z</time></trkpt><trkpt lat="42.99651" lon="13.0609087"><ele>591.0</ele><time>2026-04-05T15:44:07.423Z</time></trkpt><trkpt lat="42.9965218" lon="13.0606322"><ele>588.6666666666666</ele><time>2026-04-05T15:44:08.423Z</time></trkpt><trkpt lat="42.996545" lon="13.0603578"><ele>586.3333333333333</ele><time>2026-04-05T15:44:09.424Z</time></trkpt><trkpt lat="42.9965902" lon="13.0600885"><ele>584.0</ele><time>2026-04-05T15:44:10.423Z</time></trkpt><trkpt lat="42.9966456" lon="13.0598164"><ele>583.3333333333333</ele><time>2026-04-05T15:44:11.424Z</time></trkpt><trkpt lat="42.9967187" lon="13.0595532"><ele>582.6666666666666</ele><time>2026-04-05T15:44:12.424Z</time></trkpt><trkpt lat="42.9968084" lon="13.0592897"><ele>582.0</ele><time>2026-04-05T15:44:13.424Z</time></trkpt><trkpt lat="42.996914" lon="13.0590277"><ele>581.6666666666666</ele><time>2026-04-05T15:44:14.424Z</time></trkpt><trkpt lat="42.9970154" lon="13.0587594"><ele>581.3333333333333</ele><time>2026-04-05T15:44:15.423Z</time></trkpt><trkpt lat="42.9971178" lon="13.0584864"><ele>581.0</ele><time>2026-04-05T15:44:16.424Z</time></trkpt><trkpt lat="42.997221" lon="13.0582196"><ele>580.6666666666666</ele><time>2026-04-05T15:44:17.424Z</time></trkpt><trkpt lat="42.9973275" lon="13.0579589"><ele>580.3333333333334</ele><time>2026-04-05T15:44:18.424Z</time></trkpt><trkpt lat="42.997428" lon="13.0576992"><ele>580.0</ele><time>2026-04-05T15:44:19.424Z</time></trkpt><trkpt lat="42.9975349" lon="13.0574505"><ele>582.3333333333334</ele><time>2026-04-05T15:44:20.424Z</time></trkpt><trkpt lat="42.9976376" lon="13.0572234"><ele>584.6666666666666</ele><time>2026-04-05T15:44:21.423Z</time></trkpt><trkpt lat="42.9977488" lon="13.0569953"><ele>587.0</ele><time>2026-04-05T15:44:22.424Z</time></trkpt><trkpt lat="42.9978697" lon="13.056778"><ele>584.6666666666666</ele><time>2026-04-05T15:44:23.423Z</time></trkpt><trkpt lat="42.9979951" lon="13.0565675"><ele>582.3333333333334</ele><time>2026-04-05T15:44:24.424Z</time></trkpt><trkpt lat="42.9981211" lon="13.0563583"><ele>580.0</ele><time>2026-04-05T15:44:25.424Z</time></trkpt><trkpt lat="42.998245" lon="13.0561582"><ele>580.6666666666667</ele><time>2026-04-05T15:44:26.424Z</time></trkpt><trkpt lat="42.9983663" lon="13.0559593"><ele>581.3333333333334</ele><time>2026-04-05T15:44:27.423Z</time></trkpt><trkpt lat="42.9984796" lon="13.0557751"><ele>582.0</ele><time>2026-04-05T15:44:28.423Z</time></trkpt><trkpt lat="42.9985907" lon="13.055598"><ele>582.0</ele><time>2026-04-05T15:44:29.424Z</time></trkpt><trkpt lat="42.9986993" lon="13.0554138"><ele>582.0</ele><time>2026-04-05T15:44:30.424Z</time></trkpt><trkpt lat="42.9988051" lon="13.0552335"><ele>582.0</ele><time>2026-04-05T15:44:31.424Z</time></trkpt><trkpt lat="42.998913" lon="13.0550587"><ele>583.0</ele><time>2026-04-05T15:44:32.424Z</time></trkpt><trkpt lat="42.9990188" lon="13.0548757"><ele>584.0</ele><time>2026-04-05T15:44:33.424Z</time></trkpt><trkpt lat="42.9991275" lon="13.0546999"><ele>585.0</ele><time>2026-04-05T15:44:34.424Z</time></trkpt><trkpt lat="42.9992372" lon="13.0545273"><ele>585.0</ele><time>2026-04-05T15:44:35.424Z</time></trkpt><trkpt lat="42.9993435" lon="13.0543465"><ele>585.0</ele><time>2026-04-05T15:44:36.423Z</time></trkpt><trkpt lat="42.9994583" lon="13.0541829"><ele>585.0</ele><time>2026-04-05T15:44:37.424Z</time></trkpt><trkpt lat="42.9995685" lon="13.0540118"><ele>581.3333333333334</ele><time>2026-04-05T15:44:38.424Z</time></trkpt><trkpt lat="42.9996769" lon="13.0538368"><ele>577.6666666666667</ele><time>2026-04-05T15:44:39.423Z</time></trkpt><trkpt lat="42.999791" lon="13.0536639"><ele>574.0</ele><time>2026-04-05T15:44:40.424Z</time></trkpt><trkpt lat="42.9999107" lon="13.0535001"><ele>574.0</ele><time>2026-04-05T15:44:41.424Z</time></trkpt><trkpt lat="43.0000332" lon="13.0533447"><ele>574.0</ele><time>2026-04-05T15:44:42.424Z</time></trkpt><trkpt lat="43.0001687" lon="13.0531971"><ele>574.0</ele><time>2026-04-05T15:44:43.424Z</time></trkpt><trkpt lat="43.0003017" lon="13.0530255"><ele>573.0</ele><time>2026-04-05T15:44:44.424Z</time></trkpt><trkpt lat="43.0004503" lon="13.0528661"><ele>572.0</ele><time>2026-04-05T15:44:45.424Z</time></trkpt><trkpt lat="43.0006011" lon="13.0527077"><ele>571.0</ele><time>2026-04-05T15:44:46.424Z</time></trkpt><trkpt lat="43.0007588" lon="13.0525466"><ele>569.6666666666667</ele><time>2026-04-05T15:44:47.424Z</time></trkpt><trkpt lat="43.0009155" lon="13.0523744"><ele>568.3333333333334</ele><time>2026-04-05T15:44:48.424Z</time></trkpt><trkpt lat="43.0010724" lon="13.0522088"><ele>567.0</ele><time>2026-04-05T15:44:49.423Z</time></trkpt><trkpt lat="43.0012353" lon="13.052046"><ele>567.0</ele><time>2026-04-05T15:44:50.424Z</time></trkpt><trkpt lat="43.0013948" lon="13.0518885"><ele>567.0</ele><time>2026-04-05T15:44:51.424Z</time></trkpt><trkpt lat="43.0015599" lon="13.0517413"><ele>567.0</ele><time>2026-04-05T15:44:52.423Z</time></trkpt><trkpt lat="43.001717" lon="13.0515781"><ele>567.0</ele><time>2026-04-05T15:44:53.423Z</time></trkpt><trkpt lat="43.0018788" lon="13.0514192"><ele>567.0</ele><time>2026-04-05T15:44:54.424Z</time></trkpt><trkpt lat="43.0020437" lon="13.0512678"><ele>567.0</ele><time>2026-04-05T15:44:55.423Z</time></trkpt><trkpt lat="43.0022203" lon="13.0511243"><ele>567.0</ele><time>2026-04-05T15:44:56.423Z</time></trkpt><trkpt lat="43.0023922" lon="13.05098"><ele>567.0</ele><time>2026-04-05T15:44:57.423Z</time></trkpt><trkpt lat="43.0025758" lon="13.0508425"><ele>567.0</ele><time>2026-04-05T15:44:58.424Z</time></trkpt><trkpt lat="43.0027595" lon="13.0506879"><ele>567.0</ele><time>2026-04-05T15:44:59.423Z</time></trkpt><trkpt lat="43.0029455" lon="13.0505475"><ele>567.0</ele><time>2026-04-05T15:45:00.423Z</time></trkpt><trkpt lat="43.0031314" lon="13.0504053"><ele>567.0</ele><time>2026-04-05T15:45:01.424Z</time></trkpt><trkpt lat="43.0033216" lon="13.0502561"><ele>566.6666666666666</ele><time>2026-04-05T15:45:02.424Z</time></trkpt><trkpt lat="43.0035116" lon="13.0501133"><ele>566.3333333333333</ele><time>2026-04-05T15:45:03.424Z</time></trkpt><trkpt lat="43.0036978" lon="13.0499758"><ele>566.0</ele><time>2026-04-05T15:45:04.424Z</time></trkpt><trkpt lat="43.003892" lon="13.0498481"><ele>566.0</ele><time>2026-04-05T15:45:05.424Z</time></trkpt><trkpt lat="43.0040818" lon="13.0497208"><ele>566.0</ele><time>2026-04-05T15:45:06.423Z</time></trkpt><trkpt lat="43.0042849" lon="13.049616"><ele>566.0</ele><time>2026-04-05T15:45:07.424Z</time></trkpt><trkpt lat="43.0044921" lon="13.0495171"><ele>565.6666666666666</ele><time>2026-04-05T15:45:08.424Z</time></trkpt><trkpt lat="43.0046987" lon="13.0494246"><ele>565.3333333333334</ele><time>2026-04-05T15:45:09.423Z</time></trkpt><trkpt lat="43.0049068" lon="13.0493342"><ele>565.0</ele><time>2026-04-05T15:45:10.423Z</time></trkpt><trkpt lat="43.0051169" lon="13.0492492"><ele>565.0</ele><time>2026-04-05T15:45:11.424Z</time></trkpt><trkpt lat="43.0053282" lon="13.0491721"><ele>565.0</ele><time>2026-04-05T15:45:12.424Z</time></trkpt><trkpt lat="43.0055422" lon="13.0490868"><ele>565.0</ele><time>2026-04-05T15:45:13.423Z</time></trkpt><trkpt lat="43.0057541" lon="13.0490022"><ele>563.3333333333334</ele><time>2026-04-05T15:45:14.424Z</time></trkpt><trkpt lat="43.005967" lon="13.0489221"><ele>561.6666666666666</ele><time>2026-04-05T15:45:15.424Z</time></trkpt><trkpt lat="43.0061779" lon="13.0488466"><ele>560.0</ele><time>2026-04-05T15:45:16.424Z</time></trkpt><trkpt lat="43.0063889" lon="13.0487876"><ele>560.0</ele><time>2026-04-05T15:45:17.424Z</time></trkpt><trkpt lat="43.0066138" lon="13.0487487"><ele>560.0</ele><time>2026-04-05T15:45:18.423Z</time></trkpt><trkpt lat="43.0068374" lon="13.0487078"><ele>558.5</ele><time>2026-04-05T15:45:19.423Z</time></trkpt><trkpt lat="43.0070668" lon="13.048688"><ele>557.0</ele><time>2026-04-05T15:45:20.424Z</time></trkpt><trkpt lat="43.0072864" lon="13.048642"><ele>557.3333333333333</ele><time>2026-04-05T15:45:21.424Z</time></trkpt><trkpt lat="43.0074942" lon="13.0485962"><ele>557.6666666666666</ele><time>2026-04-05T15:45:22.424Z</time></trkpt><trkpt lat="43.0077021" lon="13.0485559"><ele>558.0</ele><time>2026-04-05T15:45:23.424Z</time></trkpt><trkpt lat="43.0078998" lon="13.0485202"><ele>558.0</ele><time>2026-04-05T15:45:24.424Z</time></trkpt><trkpt lat="43.0081012" lon="13.0484687"><ele>558.0</ele><time>2026-04-05T15:45:25.424Z</time></trkpt><trkpt lat="43.0082982" lon="13.04841"><ele>558.0</ele><time>2026-04-05T15:45:26.424Z</time></trkpt><trkpt lat="43.0084992" lon="13.0483427"><ele>556.3333333333334</ele><time>2026-04-05T15:45:27.424Z</time></trkpt><trkpt lat="43.0087106" lon="13.0482603"><ele>554.6666666666667</ele><time>2026-04-05T15:45:28.424Z</time></trkpt><trkpt lat="43.008922" lon="13.0481926"><ele>553.0</ele><time>2026-04-05T15:45:29.424Z</time></trkpt><trkpt lat="43.009126" lon="13.0481275"><ele>553.0</ele><time>2026-04-05T15:45:30.424Z</time></trkpt><trkpt lat="43.0093367" lon="13.0480624"><ele>553.0</ele><time>2026-04-05T15:45:31.424Z</time></trkpt><trkpt lat="43.0095317" lon="13.0480019"><ele>553.0</ele><time>2026-04-05T15:45:32.424Z</time></trkpt><trkpt lat="43.0097193" lon="13.0479332"><ele>553.0</ele><time>2026-04-05T15:45:33.423Z</time></trkpt><trkpt lat="43.0098988" lon="13.0478717"><ele>553.0</ele><time>2026-04-05T15:45:34.424Z</time></trkpt><trkpt lat="43.0100653" lon="13.0478098"><ele>553.0</ele><time>2026-04-05T15:45:35.424Z</time></trkpt><trkpt lat="43.0102331" lon="13.0477431"><ele>552.3333333333334</ele><time>2026-04-05T15:45:36.424Z</time></trkpt><trkpt lat="43.0103902" lon="13.0476492"><ele>551.6666666666666</ele><time>2026-04-05T15:45:37.424Z</time></trkpt><trkpt lat="43.0105337" lon="13.0475114"><ele>551.0</ele><time>2026-04-05T15:45:38.424Z</time></trkpt><trkpt lat="43.0106646" lon="13.0473475"><ele>550.3333333333333</ele><time>2026-04-05T15:45:39.423Z</time></trkpt><trkpt lat="43.0107839" lon="13.0471643"><ele>549.6666666666666</ele><time>2026-04-05T15:45:40.424Z</time></trkpt><trkpt lat="43.0109052" lon="13.0469479"><ele>549.0</ele><time>2026-04-05T15:45:41.424Z</time></trkpt><trkpt lat="43.0110328" lon="13.0467348"><ele>551.0</ele><time>2026-04-05T15:45:42.424Z</time></trkpt><trkpt lat="43.0111629" lon="13.0465046"><ele>553.0</ele><time>2026-04-05T15:45:43.423Z</time></trkpt><trkpt lat="43.0112957" lon="13.0462702"><ele>555.0</ele><time>2026-04-05T15:45:44.424Z</time></trkpt><trkpt lat="43.0114318" lon="13.0460449"><ele>555.0</ele><time>2026-04-05T15:45:45.424Z</time></trkpt><trkpt lat="43.011568" lon="13.0458284"><ele>555.0</ele><time>2026-04-05T15:45:46.423Z</time></trkpt><trkpt lat="43.0116755" lon="13.0456439"><ele>555.0</ele><time>2026-04-05T15:45:47.424Z</time></trkpt><trkpt lat="43.0117805" lon="13.0454699"><ele>555.0</ele><time>2026-04-05T15:45:48.424Z</time></trkpt><trkpt lat="43.011888" lon="13.0453189"><ele>555.0</ele><time>2026-04-05T15:45:49.424Z</time></trkpt><trkpt lat="43.0120034" lon="13.0452015"><ele>555.0</ele><time>2026-04-05T15:45:50.424Z</time></trkpt><trkpt lat="43.0121175" lon="13.045098"><ele>555.0</ele><time>2026-04-05T15:45:51.423Z</time></trkpt><trkpt lat="43.0122671" lon="13.0450846"><ele>555.0</ele><time>2026-04-05T15:45:52.423Z</time></trkpt><trkpt lat="43.0124233" lon="13.045095"><ele>555.0</ele><time>2026-04-05T15:45:53.423Z</time></trkpt><trkpt lat="43.0125815" lon="13.0451257"><ele>555.0</ele><time>2026-04-05T15:45:54.423Z</time></trkpt><trkpt lat="43.0127449" lon="13.0451792"><ele>554.6666666666666</ele><time>2026-04-05T15:45:55.424Z</time></trkpt><trkpt lat="43.0129214" lon="13.0452793"><ele>554.3333333333333</ele><time>2026-04-05T15:45:56.424Z</time></trkpt><trkpt lat="43.0130845" lon="13.0453972"><ele>554.0</ele><time>2026-04-05T15:45:57.423Z</time></trkpt><trkpt lat="43.0132411" lon="13.0455231"><ele>554.3333333333333</ele><time>2026-04-05T15:45:58.423Z</time></trkpt><trkpt lat="43.0133817" lon="13.0456766"><ele>554.6666666666666</ele><time>2026-04-05T15:45:59.423Z</time></trkpt><trkpt lat="43.0135065" lon="13.0458761"><ele>555.0</ele><time>2026-04-05T15:46:00.424Z</time></trkpt><trkpt lat="43.0136214" lon="13.0460791"><ele>556.0</ele><time>2026-04-05T15:46:01.424Z</time></trkpt><trkpt lat="43.0137346" lon="13.0462559"><ele>557.0</ele><time>2026-04-05T15:46:02.424Z</time></trkpt><trkpt lat="43.0138576" lon="13.0464017"><ele>558.0</ele><time>2026-04-05T15:46:03.424Z</time></trkpt><trkpt lat="43.0139897" lon="13.0465224"><ele>558.0</ele><time>2026-04-05T15:46:04.423Z</time></trkpt><trkpt lat="43.0141519" lon="13.0465981"><ele>558.0</ele><time>2026-04-05T15:46:05.424Z</time></trkpt><trkpt lat="43.014324" lon="13.0466315"><ele>558.0</ele><time>2026-04-05T15:46:06.423Z</time></trkpt><trkpt lat="43.014503" lon="13.0466308"><ele>554.6666666666666</ele><time>2026-04-05T15:46:07.423Z</time></trkpt><trkpt lat="43.0146723" lon="13.0466166"><ele>551.3333333333333</ele><time>2026-04-05T15:46:08.424Z</time></trkpt><trkpt lat="43.0148284" lon="13.0466054"><ele>548.0</ele><time>2026-04-05T15:46:09.424Z</time></trkpt><trkpt lat="43.0149815" lon="13.0466177"><ele>547.6666666666666</ele><time>2026-04-05T15:46:10.424Z</time></trkpt><trkpt lat="43.0151428" lon="13.0466656"><ele>547.3333333333334</ele><time>2026-04-05T15:46:11.424Z</time></trkpt><trkpt lat="43.0153026" lon="13.0467482"><ele>547.0</ele><time>2026-04-05T15:46:12.424Z</time></trkpt><trkpt lat="43.0154597" lon="13.0468565"><ele>547.0</ele><time>2026-04-05T15:46:13.424Z</time></trkpt><trkpt lat="43.0156007" lon="13.0470067"><ele>547.0</ele><time>2026-04-05T15:46:14.423Z</time></trkpt><trkpt lat="43.015757" lon="13.0471569"><ele>547.0</ele><time>2026-04-05T15:46:15.423Z</time></trkpt><trkpt lat="43.015897" lon="13.0472632"><ele>546.0</ele><time>2026-04-05T15:46:16.424Z</time></trkpt><trkpt lat="43.0160366" lon="13.0473703"><ele>545.0</ele><time>2026-04-05T15:46:17.423Z</time></trkpt><trkpt lat="43.0161857" lon="13.0474662"><ele>544.0</ele><time>2026-04-05T15:46:18.424Z</time></trkpt><trkpt lat="43.0163499" lon="13.0475172"><ele>545.0</ele><time>2026-04-05T15:46:19.423Z</time></trkpt><trkpt lat="43.0165068" lon="13.047533"><ele>546.0</ele><time>2026-04-05T15:46:20.424Z</time></trkpt><trkpt lat="43.0166639" lon="13.0475451"><ele>547.0</ele><time>2026-04-05T15:46:21.424Z</time></trkpt><trkpt lat="43.0168189" lon="13.0475671"><ele>547.0</ele><time>2026-04-05T15:46:22.423Z</time></trkpt><trkpt lat="43.0169548" lon="13.0475573"><ele>547.0</ele><time>2026-04-05T15:46:23.424Z</time></trkpt><trkpt lat="43.0170918" lon="13.0475756"><ele>547.0</ele><time>2026-04-05T15:46:24.424Z</time></trkpt><trkpt lat="43.0172241" lon="13.047668"><ele>547.0</ele><time>2026-04-05T15:46:25.424Z</time></trkpt><trkpt lat="43.0173344" lon="13.0477843"><ele>547.0</ele><time>2026-04-05T15:46:26.423Z</time></trkpt><trkpt lat="43.0174503" lon="13.0479224"><ele>547.0</ele><time>2026-04-05T15:46:27.423Z</time></trkpt><trkpt lat="43.0175634" lon="13.0480529"><ele>547.0</ele><time>2026-04-05T15:46:28.424Z</time></trkpt><trkpt lat="43.017675" lon="13.0481598"><ele>547.0</ele><time>2026-04-05T15:46:29.424Z</time></trkpt><trkpt lat="43.0177827" lon="13.0482268"><ele>545.5</ele><time>2026-04-05T15:46:30.424Z</time></trkpt><trkpt lat="43.0179072" lon="13.0482443"><ele>544.0</ele><time>2026-04-05T15:46:31.424Z</time></trkpt><trkpt lat="43.018042" lon="13.048219"><ele>542.5</ele><time>2026-04-05T15:46:32.423Z</time></trkpt><trkpt lat="43.0181854" lon="13.0481773"><ele>541.0</ele><time>2026-04-05T15:46:33.423Z</time></trkpt><trkpt lat="43.0183591" lon="13.0480798"><ele>538.6666666666667</ele><time>2026-04-05T15:46:34.424Z</time></trkpt><trkpt lat="43.0185135" lon="13.0480075"><ele>536.3333333333334</ele><time>2026-04-05T15:46:35.423Z</time></trkpt><trkpt lat="43.0186741" lon="13.0478926"><ele>534.0</ele><time>2026-04-05T15:46:36.424Z</time></trkpt><trkpt lat="43.0188419" lon="13.0477743"><ele>534.0</ele><time>2026-04-05T15:46:37.423Z</time></trkpt><trkpt lat="43.0190043" lon="13.0476342"><ele>534.0</ele><time>2026-04-05T15:46:38.423Z</time></trkpt><trkpt lat="43.0191413" lon="13.0474345"><ele>534.0</ele><time>2026-04-05T15:46:39.424Z</time></trkpt><trkpt lat="43.0192751" lon="13.0472258"><ele>533.3333333333334</ele><time>2026-04-05T15:46:40.423Z</time></trkpt><trkpt lat="43.0194067" lon="13.0470167"><ele>532.6666666666667</ele><time>2026-04-05T15:46:41.424Z</time></trkpt><trkpt lat="43.0195328" lon="13.0467677"><ele>532.0</ele><time>2026-04-05T15:46:42.423Z</time></trkpt><trkpt lat="43.0196611" lon="13.0465264"><ele>532.6666666666667</ele><time>2026-04-05T15:46:43.423Z</time></trkpt><trkpt lat="43.0197905" lon="13.0462845"><ele>533.3333333333334</ele><time>2026-04-05T15:46:44.424Z</time></trkpt><trkpt lat="43.0199124" lon="13.046039"><ele>534.0</ele><time>2026-04-05T15:46:45.423Z</time></trkpt><trkpt lat="43.020023" lon="13.045818"><ele>533.6666666666666</ele><time>2026-04-05T15:46:46.424Z</time></trkpt><trkpt lat="43.0201388" lon="13.0456023"><ele>533.3333333333333</ele><time>2026-04-05T15:46:47.423Z</time></trkpt><trkpt lat="43.0202389" lon="13.04538"><ele>533.0</ele><time>2026-04-05T15:46:48.424Z</time></trkpt><trkpt lat="43.0203228" lon="13.0451587"><ele>534.0</ele><time>2026-04-05T15:46:49.423Z</time></trkpt><trkpt lat="43.0203854" lon="13.0449232"><ele>535.0</ele><time>2026-04-05T15:46:50.424Z</time></trkpt><trkpt lat="43.0204318" lon="13.0446743"><ele>536.0</ele><time>2026-04-05T15:46:51.424Z</time></trkpt><trkpt lat="43.0204748" lon="13.0444175"><ele>536.0</ele><time>2026-04-05T15:46:52.424Z</time></trkpt><trkpt lat="43.0205024" lon="13.0441755"><ele>536.0</ele><time>2026-04-05T15:46:53.424Z</time></trkpt><trkpt lat="43.0205334" lon="13.0439484"><ele>536.0</ele><time>2026-04-05T15:46:54.424Z</time></trkpt><trkpt lat="43.02057" lon="13.0437414"><ele>540.6666666666666</ele><time>2026-04-05T15:46:55.424Z</time></trkpt><trkpt lat="43.0206245" lon="13.043549"><ele>545.3333333333334</ele><time>2026-04-05T15:46:56.424Z</time></trkpt><trkpt lat="43.0206975" lon="13.0433629"><ele>550.0</ele><time>2026-04-05T15:46:57.424Z</time></trkpt><trkpt lat="43.0208051" lon="13.0431918"><ele>543.3333333333334</ele><time>2026-04-05T15:46:58.424Z</time></trkpt><trkpt lat="43.0209166" lon="13.0430109"><ele>536.6666666666666</ele><time>2026-04-05T15:46:59.423Z</time></trkpt><trkpt lat="43.0210157" lon="13.0428369"><ele>530.0</ele><time>2026-04-05T15:47:00.424Z</time></trkpt><trkpt lat="43.0211032" lon="13.0426634"><ele>530.0</ele><time>2026-04-05T15:47:01.423Z</time></trkpt><trkpt lat="43.0211719" lon="13.042483"><ele>530.0</ele><time>2026-04-05T15:47:02.424Z</time></trkpt><trkpt lat="43.0212074" lon="13.042297"><ele>530.0</ele><time>2026-04-05T15:47:03.423Z</time></trkpt><trkpt lat="43.0212166" lon="13.0420982"><ele>530.0</ele><time>2026-04-05T15:47:04.424Z</time></trkpt><trkpt lat="43.0211956" lon="13.041886"><ele>530.6666666666666</ele><time>2026-04-05T15:47:05.424Z</time></trkpt><trkpt lat="43.0211554" lon="13.0416628"><ele>531.3333333333334</ele><time>2026-04-05T15:47:06.423Z</time></trkpt><trkpt lat="43.0211061" lon="13.0414266"><ele>532.0</ele><time>2026-04-05T15:47:07.424Z</time></trkpt><trkpt lat="43.0210492" lon="13.0411812"><ele>532.0</ele><time>2026-04-05T15:47:08.424Z</time></trkpt><trkpt lat="43.0209961" lon="13.0409446"><ele>532.0</ele><time>2026-04-05T15:47:09.424Z</time></trkpt><trkpt lat="43.0209313" lon="13.0407079"><ele>532.0</ele><time>2026-04-05T15:47:10.423Z</time></trkpt><trkpt lat="43.0208551" lon="13.0404805"><ele>532.6666666666667</ele><time>2026-04-05T15:47:11.424Z</time></trkpt><trkpt lat="43.0207704" lon="13.0402686"><ele>533.3333333333334</ele><time>2026-04-05T15:47:12.424Z</time></trkpt><trkpt lat="43.020679" lon="13.0400658"><ele>534.0</ele><time>2026-04-05T15:47:13.424Z</time></trkpt><trkpt lat="43.02059" lon="13.0398761"><ele>531.25</ele><time>2026-04-05T15:47:14.423Z</time></trkpt><trkpt lat="43.0205125" lon="13.0396935"><ele>528.5</ele><time>2026-04-05T15:47:15.424Z</time></trkpt><trkpt lat="43.0204391" lon="13.0395202"><ele>525.75</ele><time>2026-04-05T15:47:16.424Z</time></trkpt><trkpt lat="43.0203891" lon="13.0393374"><ele>523.0</ele><time>2026-04-05T15:47:17.424Z</time></trkpt><trkpt lat="43.0203598" lon="13.0391456"><ele>523.3333333333334</ele><time>2026-04-05T15:47:18.424Z</time></trkpt><trkpt lat="43.0203588" lon="13.0389379"><ele>523.6666666666666</ele><time>2026-04-05T15:47:19.424Z</time></trkpt><trkpt lat="43.020366" lon="13.0387131"><ele>524.0</ele><time>2026-04-05T15:47:20.424Z</time></trkpt><trkpt lat="43.0203808" lon="13.0384853"><ele>524.0</ele><time>2026-04-05T15:47:21.424Z</time></trkpt><trkpt lat="43.0204013" lon="13.0382602"><ele>524.0</ele><time>2026-04-05T15:47:22.424Z</time></trkpt><trkpt lat="43.0204408" lon="13.0380325"><ele>524.0</ele><time>2026-04-05T15:47:23.424Z</time></trkpt><trkpt lat="43.0204986" lon="13.0378135"><ele>524.0</ele><time>2026-04-05T15:47:24.423Z</time></trkpt><trkpt lat="43.0205724" lon="13.0376064"><ele>524.0</ele><time>2026-04-05T15:47:25.424Z</time></trkpt><trkpt lat="43.0206541" lon="13.0374028"><ele>524.0</ele><time>2026-04-05T15:47:26.424Z</time></trkpt><trkpt lat="43.0207278" lon="13.0372027"><ele>525.0</ele><time>2026-04-05T15:47:27.424Z</time></trkpt><trkpt lat="43.0207754" lon="13.0369873"><ele>526.0</ele><time>2026-04-05T15:47:28.424Z</time></trkpt><trkpt lat="43.0208024" lon="13.0367752"><ele>527.0</ele><time>2026-04-05T15:47:29.424Z</time></trkpt><trkpt lat="43.0207814" lon="13.0365625"><ele>528.25</ele><time>2026-04-05T15:47:30.423Z</time></trkpt><trkpt lat="43.0207777" lon="13.0363604"><ele>529.5</ele><time>2026-04-05T15:47:31.424Z</time></trkpt><trkpt lat="43.0207782" lon="13.0361602"><ele>530.75</ele><time>2026-04-05T15:47:32.424Z</time></trkpt><trkpt lat="43.0208115" lon="13.0359615"><ele>532.0</ele><time>2026-04-05T15:47:33.424Z</time></trkpt><trkpt lat="43.0208704" lon="13.0357681"><ele>527.6666666666667</ele><time>2026-04-05T15:47:34.423Z</time></trkpt><trkpt lat="43.0209468" lon="13.0355746"><ele>523.3333333333334</ele><time>2026-04-05T15:47:35.424Z</time></trkpt><trkpt lat="43.0210668" lon="13.0353578"><ele>519.0</ele><time>2026-04-05T15:47:36.424Z</time></trkpt><trkpt lat="43.0211815" lon="13.0351282"><ele>518.3333333333334</ele><time>2026-04-05T15:47:37.424Z</time></trkpt><trkpt lat="43.0213054" lon="13.034893"><ele>517.6666666666667</ele><time>2026-04-05T15:47:38.424Z</time></trkpt><trkpt lat="43.0214277" lon="13.0346773"><ele>517.0</ele><time>2026-04-05T15:47:39.424Z</time></trkpt><trkpt lat="43.0215557" lon="13.0344571"><ele>517.0</ele><time>2026-04-05T15:47:40.424Z</time></trkpt><trkpt lat="43.0216724" lon="13.0342298"><ele>517.0</ele><time>2026-04-05T15:47:41.423Z</time></trkpt><trkpt lat="43.0217999" lon="13.0340208"><ele>517.0</ele><time>2026-04-05T15:47:42.424Z</time></trkpt><trkpt lat="43.0219271" lon="13.0338197"><ele>524.0</ele><time>2026-04-05T15:47:43.424Z</time></trkpt><trkpt lat="43.0220628" lon="13.0336424"><ele>531.0</ele><time>2026-04-05T15:47:44.423Z</time></trkpt><trkpt lat="43.0222241" lon="13.0335"><ele>538.0</ele><time>2026-04-05T15:47:45.424Z</time></trkpt><trkpt lat="43.0223841" lon="13.0333825"><ele>537.0</ele><time>2026-04-05T15:47:46.424Z</time></trkpt><trkpt lat="43.0225769" lon="13.033327"><ele>536.0</ele><time>2026-04-05T15:47:47.423Z</time></trkpt><trkpt lat="43.0227696" lon="13.0332996"><ele>535.0</ele><time>2026-04-05T15:47:48.424Z</time></trkpt><trkpt lat="43.0229686" lon="13.0332962"><ele>535.0</ele><time>2026-04-05T15:47:49.424Z</time></trkpt><trkpt lat="43.0231633" lon="13.0333146"><ele>535.0</ele><time>2026-04-05T15:47:50.424Z</time></trkpt><trkpt lat="43.0233499" lon="13.0333548"><ele>535.0</ele><time>2026-04-05T15:47:51.423Z</time></trkpt><trkpt lat="43.023532" lon="13.0334161"><ele>534.0</ele><time>2026-04-05T15:47:52.424Z</time></trkpt><trkpt lat="43.0236881" lon="13.0335278"><ele>533.0</ele><time>2026-04-05T15:47:53.424Z</time></trkpt><trkpt lat="43.0238356" lon="13.0336304"><ele>532.0</ele><time>2026-04-05T15:47:54.423Z</time></trkpt><trkpt lat="43.0240019" lon="13.0337306"><ele>532.6666666666667</ele><time>2026-04-05T15:47:55.423Z</time></trkpt><trkpt lat="43.024176" lon="13.0338072"><ele>533.3333333333334</ele><time>2026-04-05T15:47:56.423Z</time></trkpt><trkpt lat="43.0243581" lon="13.0338618"><ele>534.0</ele><time>2026-04-05T15:47:57.424Z</time></trkpt><trkpt lat="43.0245537" lon="13.0338782"><ele>534.0</ele><time>2026-04-05T15:47:58.424Z</time></trkpt><trkpt lat="43.0247432" lon="13.033913"><ele>534.0</ele><time>2026-04-05T15:47:59.424Z</time></trkpt><trkpt lat="43.0249361" lon="13.0339345"><ele>534.0</ele><time>2026-04-05T15:48:00.423Z</time></trkpt><trkpt lat="43.0251333" lon="13.0339967"><ele>530.0</ele><time>2026-04-05T15:48:01.424Z</time></trkpt><trkpt lat="43.0253287" lon="13.0340294"><ele>526.0</ele><time>2026-04-05T15:48:02.423Z</time></trkpt><trkpt lat="43.0255166" lon="13.0340515"><ele>522.0</ele><time>2026-04-05T15:48:03.424Z</time></trkpt><trkpt lat="43.0256877" lon="13.0340822"><ele>519.3333333333334</ele><time>2026-04-05T15:48:04.424Z</time></trkpt><trkpt lat="43.0258484" lon="13.0341532"><ele>516.6666666666667</ele><time>2026-04-05T15:48:05.424Z</time></trkpt><trkpt lat="43.026015" lon="13.034226"><ele>514.0</ele><time>2026-04-05T15:48:06.424Z</time></trkpt><trkpt lat="43.0261879" lon="13.0342765"><ele>514.0</ele><time>2026-04-05T15:48:07.424Z</time></trkpt><trkpt lat="43.0263579" lon="13.0343048"><ele>514.0</ele><time>2026-04-05T15:48:08.423Z</time></trkpt><trkpt lat="43.0265333" lon="13.0342966"><ele>514.0</ele><time>2026-04-05T15:48:09.424Z</time></trkpt><trkpt lat="43.0267174" lon="13.0342782"><ele>516.6666666666667</ele><time>2026-04-05T15:48:10.424Z</time></trkpt><trkpt lat="43.0269089" lon="13.0342626"><ele>519.3333333333334</ele><time>2026-04-05T15:48:11.424Z</time></trkpt><trkpt lat="43.0271012" lon="13.0342791"><ele>522.0</ele><time>2026-04-05T15:48:12.424Z</time></trkpt><trkpt lat="43.0273006" lon="13.0342976"><ele>520.3333333333334</ele><time>2026-04-05T15:48:13.423Z</time></trkpt><trkpt lat="43.0274901" lon="13.0343161"><ele>518.6666666666667</ele><time>2026-04-05T15:48:14.424Z</time></trkpt><trkpt lat="43.0276905" lon="13.0343469"><ele>517.0</ele><time>2026-04-05T15:48:15.424Z</time></trkpt><trkpt lat="43.0278949" lon="13.0343905"><ele>517.0</ele><time>2026-04-05T15:48:16.424Z</time></trkpt><trkpt lat="43.0281062" lon="13.0344279"><ele>517.0</ele><time>2026-04-05T15:48:17.424Z</time></trkpt><trkpt lat="43.028319" lon="13.0344512"><ele>517.0</ele><time>2026-04-05T15:48:18.424Z</time></trkpt><trkpt lat="43.0285332" lon="13.0344732"><ele>517.0</ele><time>2026-04-05T15:48:19.424Z</time></trkpt><trkpt lat="43.0287355" lon="13.0345192"><ele>517.0</ele><time>2026-04-05T15:48:20.424Z</time></trkpt><trkpt lat="43.028945" lon="13.0345411"><ele>517.0</ele><time>2026-04-05T15:48:21.424Z</time></trkpt><trkpt lat="43.0291486" lon="13.0345614"><ele>517.3333333333334</ele><time>2026-04-05T15:48:22.424Z</time></trkpt><trkpt lat="43.029358" lon="13.0345843"><ele>517.6666666666666</ele><time>2026-04-05T15:48:23.424Z</time></trkpt><trkpt lat="43.029562" lon="13.034622"><ele>518.0</ele><time>2026-04-05T15:48:24.424Z</time></trkpt><trkpt lat="43.0297639" lon="13.0346649"><ele>518.0</ele><time>2026-04-05T15:48:25.424Z</time></trkpt><trkpt lat="43.0299725" lon="13.0347195"><ele>518.0</ele><time>2026-04-05T15:48:26.423Z</time></trkpt><trkpt lat="43.0301677" lon="13.0347941"><ele>518.0</ele><time>2026-04-05T15:48:27.424Z</time></trkpt><trkpt lat="43.0303531" lon="13.0348872"><ele>515.3333333333333</ele><time>2026-04-05T15:48:28.424Z</time></trkpt><trkpt lat="43.0305321" lon="13.0349897"><ele>512.6666666666666</ele><time>2026-04-05T15:48:29.424Z</time></trkpt><trkpt lat="43.0307002" lon="13.0351165"><ele>510.0</ele><time>2026-04-05T15:48:30.424Z</time></trkpt><trkpt lat="43.0308629" lon="13.0352663"><ele>510.0</ele><time>2026-04-05T15:48:31.424Z</time></trkpt><trkpt lat="43.0310221" lon="13.0354297"><ele>510.0</ele><time>2026-04-05T15:48:32.424Z</time></trkpt><trkpt lat="43.0311614" lon="13.035615"><ele>510.0</ele><time>2026-04-05T15:48:33.424Z</time></trkpt><trkpt lat="43.0312891" lon="13.0358085"><ele>507.33333333333337</ele><time>2026-04-05T15:48:34.424Z</time></trkpt><trkpt lat="43.0314038" lon="13.0360028"><ele>504.6666666666667</ele><time>2026-04-05T15:48:35.424Z</time></trkpt><trkpt lat="43.0315139" lon="13.0361777"><ele>502.0</ele><time>2026-04-05T15:48:36.423Z</time></trkpt><trkpt lat="43.031616" lon="13.0363392"><ele>501.6666666666667</ele><time>2026-04-05T15:48:37.424Z</time></trkpt><trkpt lat="43.0317457" lon="13.0364634"><ele>501.33333333333337</ele><time>2026-04-05T15:48:38.424Z</time></trkpt><trkpt lat="43.0318896" lon="13.0365639"><ele>501.0</ele><time>2026-04-05T15:48:39.424Z</time></trkpt><trkpt lat="43.0320514" lon="13.0366452"><ele>501.0</ele><time>2026-04-05T15:48:40.423Z</time></trkpt><trkpt lat="43.032225" lon="13.036727"><ele>501.0</ele><time>2026-04-05T15:48:41.424Z</time></trkpt><trkpt lat="43.032413" lon="13.0367897"><ele>501.0</ele><time>2026-04-05T15:48:42.423Z</time></trkpt><trkpt lat="43.032609" lon="13.0368364"><ele>500.66666666666663</ele><time>2026-04-05T15:48:43.424Z</time></trkpt><trkpt lat="43.0328014" lon="13.0368854"><ele>500.3333333333333</ele><time>2026-04-05T15:48:44.424Z</time></trkpt><trkpt lat="43.0329927" lon="13.0369298"><ele>500.0</ele><time>2026-04-05T15:48:45.424Z</time></trkpt><trkpt lat="43.0331806" lon="13.0369726"><ele>501.66666666666663</ele><time>2026-04-05T15:48:46.424Z</time></trkpt><trkpt lat="43.0333661" lon="13.0370215"><ele>503.33333333333337</ele><time>2026-04-05T15:48:47.424Z</time></trkpt><trkpt lat="43.0335526" lon="13.0370696"><ele>505.0</ele><time>2026-04-05T15:48:48.423Z</time></trkpt><trkpt lat="43.0337345" lon="13.0371178"><ele>505.0</ele><time>2026-04-05T15:48:49.423Z</time></trkpt><trkpt lat="43.0339178" lon="13.0371595"><ele>505.0</ele><time>2026-04-05T15:48:50.424Z</time></trkpt><trkpt lat="43.0340912" lon="13.0372023"><ele>505.0</ele><time>2026-04-05T15:48:51.424Z</time></trkpt><trkpt lat="43.0342539" lon="13.0372661"><ele>503.0</ele><time>2026-04-05T15:48:52.424Z</time></trkpt><trkpt lat="43.0344018" lon="13.0373579"><ele>501.0</ele><time>2026-04-05T15:48:53.424Z</time></trkpt><trkpt lat="43.0345345" lon="13.0375003"><ele>499.0</ele><time>2026-04-05T15:48:54.423Z</time></trkpt><trkpt lat="43.0346659" lon="13.0376695"><ele>499.0</ele><time>2026-04-05T15:48:55.424Z</time></trkpt><trkpt lat="43.0347923" lon="13.0378561"><ele>499.0</ele><time>2026-04-05T15:48:56.424Z</time></trkpt><trkpt lat="43.0349225" lon="13.0380516"><ele>499.0</ele><time>2026-04-05T15:48:57.423Z</time></trkpt><trkpt lat="43.0350531" lon="13.0382482"><ele>500.0</ele><time>2026-04-05T15:48:58.424Z</time></trkpt><trkpt lat="43.0351849" lon="13.0384456"><ele>501.0</ele><time>2026-04-05T15:48:59.424Z</time></trkpt><trkpt lat="43.0353089" lon="13.038644"><ele>502.0</ele><time>2026-04-05T15:49:00.424Z</time></trkpt><trkpt lat="43.0354281" lon="13.0388467"><ele>502.0</ele><time>2026-04-05T15:49:01.424Z</time></trkpt><trkpt lat="43.0355428" lon="13.0390528"><ele>502.0</ele><time>2026-04-05T15:49:02.423Z</time></trkpt><trkpt lat="43.0356437" lon="13.0392587"><ele>502.0</ele><time>2026-04-05T15:49:03.424Z</time></trkpt><trkpt lat="43.0357352" lon="13.0394562"><ele>501.0</ele><time>2026-04-05T15:49:04.423Z</time></trkpt><trkpt lat="43.0358222" lon="13.039644"><ele>500.0</ele><time>2026-04-05T15:49:05.423Z</time></trkpt><trkpt lat="43.0359091" lon="13.0398318"><ele>499.0</ele><time>2026-04-05T15:49:06.424Z</time></trkpt><trkpt lat="43.0359835" lon="13.0400104"><ele>498.25</ele><time>2026-04-05T15:49:07.424Z</time></trkpt><trkpt lat="43.0360643" lon="13.0401744"><ele>497.5</ele><time>2026-04-05T15:49:08.424Z</time></trkpt><trkpt lat="43.0361436" lon="13.0403321"><ele>496.75</ele><time>2026-04-05T15:49:09.423Z</time></trkpt><trkpt lat="43.0362164" lon="13.0404891"><ele>496.0</ele><time>2026-04-05T15:49:10.424Z</time></trkpt><trkpt lat="43.0362822" lon="13.040624"><ele>496.0</ele><time>2026-04-05T15:49:11.423Z</time></trkpt><trkpt lat="43.0363507" lon="13.0407647"><ele>496.0</ele><time>2026-04-05T15:49:12.424Z</time></trkpt><trkpt lat="43.0363953" lon="13.040872"><ele>496.0</ele><time>2026-04-05T15:49:13.424Z</time></trkpt><trkpt lat="43.0364479" lon="13.0409748"><ele>496.0</ele><time>2026-04-05T15:49:14.424Z</time></trkpt><trkpt lat="43.0364969" lon="13.0410781"><ele>496.0</ele><time>2026-04-05T15:49:15.424Z</time></trkpt><trkpt lat="43.0365596" lon="13.0411926"><ele>496.25</ele><time>2026-04-05T15:49:16.424Z</time></trkpt><trkpt lat="43.0366216" lon="13.0413056"><ele>496.5</ele><time>2026-04-05T15:49:17.424Z</time></trkpt><trkpt lat="43.0366801" lon="13.0414409"><ele>496.75</ele><time>2026-04-05T15:49:18.424Z</time></trkpt><trkpt lat="43.0367419" lon="13.0415802"><ele>497.0</ele><time>2026-04-05T15:49:19.424Z</time></trkpt><trkpt lat="43.0367963" lon="13.0417353"><ele>495.5</ele><time>2026-04-05T15:49:20.424Z</time></trkpt><trkpt lat="43.0368568" lon="13.0419028"><ele>494.0</ele><time>2026-04-05T15:49:21.424Z</time></trkpt><trkpt lat="43.0369185" lon="13.0420859"><ele>492.5</ele><time>2026-04-05T15:49:22.424Z</time></trkpt><trkpt lat="43.0369938" lon="13.042278"><ele>491.0</ele><time>2026-04-05T15:49:23.423Z</time></trkpt><trkpt lat="43.0370609" lon="13.0424829"><ele>489.3333333333333</ele><time>2026-04-05T15:49:24.424Z</time></trkpt><trkpt lat="43.0371217" lon="13.0426887"><ele>487.66666666666663</ele><time>2026-04-05T15:49:25.424Z</time></trkpt><trkpt lat="43.0371765" lon="13.0428889"><ele>486.0</ele><time>2026-04-05T15:49:26.423Z</time></trkpt><trkpt lat="43.0372337" lon="13.0430871"><ele>486.0</ele><time>2026-04-05T15:49:27.423Z</time></trkpt><trkpt lat="43.0372938" lon="13.0432919"><ele>486.0</ele><time>2026-04-05T15:49:28.424Z</time></trkpt><trkpt lat="43.0373535" lon="13.0435018"><ele>486.0</ele><time>2026-04-05T15:49:29.424Z</time></trkpt><trkpt lat="43.0374107" lon="13.0437048"><ele>485.33333333333337</ele><time>2026-04-05T15:49:30.423Z</time></trkpt><trkpt lat="43.0374682" lon="13.0439004"><ele>484.6666666666667</ele><time>2026-04-05T15:49:31.424Z</time></trkpt><trkpt lat="43.0375274" lon="13.0440915"><ele>484.0</ele><time>2026-04-05T15:49:32.424Z</time></trkpt><trkpt lat="43.0375875" lon="13.0442798"><ele>483.6666666666667</ele><time>2026-04-05T15:49:33.424Z</time></trkpt><trkpt lat="43.0376497" lon="13.0444718"><ele>483.33333333333337</ele><time>2026-04-05T15:49:34.424Z</time></trkpt><trkpt lat="43.0377178" lon="13.0446599"><ele>483.0</ele><time>2026-04-05T15:49:35.424Z</time></trkpt><trkpt lat="43.0377894" lon="13.0448462"><ele>482.33333333333337</ele><time>2026-04-05T15:49:36.424Z</time></trkpt><trkpt lat="43.0378648" lon="13.0450325"><ele>481.6666666666667</ele><time>2026-04-05T15:49:37.423Z</time></trkpt><trkpt lat="43.0379485" lon="13.0452089"><ele>481.0</ele><time>2026-04-05T15:49:38.424Z</time></trkpt><trkpt lat="43.0380423" lon="13.045376"><ele>481.0</ele><time>2026-04-05T15:49:39.424Z</time></trkpt><trkpt lat="43.0381362" lon="13.0455368"><ele>481.0</ele><time>2026-04-05T15:49:40.424Z</time></trkpt><trkpt lat="43.0382388" lon="13.0456919"><ele>481.0</ele><time>2026-04-05T15:49:41.423Z</time></trkpt><trkpt lat="43.0383456" lon="13.0458529"><ele>480.33333333333337</ele><time>2026-04-05T15:49:42.423Z</time></trkpt><trkpt lat="43.0384564" lon="13.0459983"><ele>479.66666666666663</ele><time>2026-04-05T15:49:43.423Z</time></trkpt><trkpt lat="43.0385814" lon="13.0461374"><ele>479.0</ele><time>2026-04-05T15:49:44.423Z</time></trkpt><trkpt lat="43.038702" lon="13.046275"><ele>479.0</ele><time>2026-04-05T15:49:45.423Z</time></trkpt><trkpt lat="43.0388264" lon="13.0464008"><ele>479.0</ele><time>2026-04-05T15:49:46.424Z</time></trkpt><trkpt lat="43.0389543" lon="13.046528"><ele>479.0</ele><time>2026-04-05T15:49:47.424Z</time></trkpt><trkpt lat="43.0390919" lon="13.0466461"><ele>479.66666666666663</ele><time>2026-04-05T15:49:48.423Z</time></trkpt><trkpt lat="43.0392314" lon="13.0467587"><ele>480.33333333333337</ele><time>2026-04-05T15:49:49.424Z</time></trkpt><trkpt lat="43.0393661" lon="13.0468698"><ele>481.0</ele><time>2026-04-05T15:49:50.424Z</time></trkpt><trkpt lat="43.0394945" lon="13.0469837"><ele>481.0</ele><time>2026-04-05T15:49:51.423Z</time></trkpt><trkpt lat="43.0396189" lon="13.0470874"><ele>481.0</ele><time>2026-04-05T15:49:52.424Z</time></trkpt><trkpt lat="43.0397466" lon="13.0471963"><ele>481.0</ele><time>2026-04-05T15:49:53.424Z</time></trkpt><trkpt lat="43.039872" lon="13.0473004"><ele>481.0</ele><time>2026-04-05T15:49:54.424Z</time></trkpt><trkpt lat="43.0399989" lon="13.0473921"><ele>480.25</ele><time>2026-04-05T15:49:55.424Z</time></trkpt><trkpt lat="43.0401227" lon="13.0474877"><ele>479.5</ele><time>2026-04-05T15:49:56.424Z</time></trkpt><trkpt lat="43.0402415" lon="13.0475792"><ele>478.75</ele><time>2026-04-05T15:49:57.424Z</time></trkpt><trkpt lat="43.0403552" lon="13.0476696"><ele>478.0</ele><time>2026-04-05T15:49:58.424Z</time></trkpt><trkpt lat="43.0404637" lon="13.0477555"><ele>478.0</ele><time>2026-04-05T15:49:59.424Z</time></trkpt><trkpt lat="43.0405742" lon="13.0478467"><ele>478.0</ele><time>2026-04-05T15:50:00.424Z</time></trkpt><trkpt lat="43.0406762" lon="13.0479422"><ele>478.0</ele><time>2026-04-05T15:50:01.424Z</time></trkpt><trkpt lat="43.0407875" lon="13.0480355"><ele>478.0</ele><time>2026-04-05T15:50:02.424Z</time></trkpt><trkpt lat="43.0408901" lon="13.04813"><ele>477.59999999999997</ele><time>2026-04-05T15:50:03.424Z</time></trkpt><trkpt lat="43.0409868" lon="13.0482232"><ele>477.19999999999993</ele><time>2026-04-05T15:50:04.424Z</time></trkpt><trkpt lat="43.0410749" lon="13.0483133"><ele>476.8</ele><time>2026-04-05T15:50:05.424Z</time></trkpt><trkpt lat="43.0411578" lon="13.0483857"><ele>476.4</ele><time>2026-04-05T15:50:06.424Z</time></trkpt><trkpt lat="43.0412267" lon="13.0484569"><ele>476.0</ele><time>2026-04-05T15:50:07.424Z</time></trkpt><trkpt lat="43.041298" lon="13.0485257"><ele>475.99999999999994</ele><time>2026-04-05T15:50:08.424Z</time></trkpt><trkpt lat="43.0413643" lon="13.0485861"><ele>476.0</ele><time>2026-04-05T15:50:09.423Z</time></trkpt><trkpt lat="43.0414367" lon="13.0486468"><ele>476.0</ele><time>2026-04-05T15:50:10.423Z</time></trkpt><trkpt lat="43.0415044" lon="13.0487136"><ele>476.0</ele><time>2026-04-05T15:50:11.424Z</time></trkpt><trkpt lat="43.0415755" lon="13.0487813"><ele>475.99999999999994</ele><time>2026-04-05T15:50:12.423Z</time></trkpt><trkpt lat="43.0416526" lon="13.0488645"><ele>476.0</ele><time>2026-04-05T15:50:13.424Z</time></trkpt><trkpt lat="43.0417433" lon="13.0489515"><ele>475.75</ele><time>2026-04-05T15:50:14.424Z</time></trkpt><trkpt lat="43.0418428" lon="13.0490484"><ele>475.5</ele><time>2026-04-05T15:50:15.424Z</time></trkpt><trkpt lat="43.0419375" lon="13.0491417"><ele>475.25</ele><time>2026-04-05T15:50:16.424Z</time></trkpt><trkpt lat="43.0420359" lon="13.0492306"><ele>475.0</ele><time>2026-04-05T15:50:17.423Z</time></trkpt><trkpt lat="43.0421277" lon="13.0493206"><ele>474.25</ele><time>2026-04-05T15:50:18.424Z</time></trkpt><trkpt lat="43.0422248" lon="13.0494095"><ele>473.5</ele><time>2026-04-05T15:50:19.423Z</time></trkpt><trkpt lat="43.0423222" lon="13.0494988"><ele>472.75</ele><time>2026-04-05T15:50:20.424Z</time></trkpt><trkpt lat="43.0424237" lon="13.049587"><ele>472.0</ele><time>2026-04-05T15:50:21.424Z</time></trkpt><trkpt lat="43.0425202" lon="13.0496706"><ele>472.0</ele><time>2026-04-05T15:50:22.424Z</time></trkpt><trkpt lat="43.0426171" lon="13.0497691"><ele>472.0</ele><time>2026-04-05T15:50:23.424Z</time></trkpt><trkpt lat="43.0427147" lon="13.0498669"><ele>472.0</ele><time>2026-04-05T15:50:24.424Z</time></trkpt><trkpt lat="43.0428165" lon="13.0499633"><ele>472.0</ele><time>2026-04-05T15:50:25.424Z</time></trkpt><trkpt lat="43.04292" lon="13.0500469"><ele>471.75</ele><time>2026-04-05T15:50:26.424Z</time></trkpt><trkpt lat="43.0430285" lon="13.0501428"><ele>471.5</ele><time>2026-04-05T15:50:27.424Z</time></trkpt><trkpt lat="43.0431389" lon="13.0502394"><ele>471.25</ele><time>2026-04-05T15:50:28.424Z</time></trkpt><trkpt lat="43.0432539" lon="13.0503355"><ele>471.0</ele><time>2026-04-05T15:50:29.423Z</time></trkpt><trkpt lat="43.0433561" lon="13.0504373"><ele>471.0</ele><time>2026-04-05T15:50:30.423Z</time></trkpt><trkpt lat="43.0434679" lon="13.0505304"><ele>471.0</ele><time>2026-04-05T15:50:31.424Z</time></trkpt><trkpt lat="43.0435735" lon="13.0506227"><ele>471.0</ele><time>2026-04-05T15:50:32.424Z</time></trkpt><trkpt lat="43.0436642" lon="13.05071"><ele>471.0</ele><time>2026-04-05T15:50:33.423Z</time></trkpt><trkpt lat="43.043757" lon="13.0507923"><ele>471.25</ele><time>2026-04-05T15:50:34.424Z</time></trkpt><trkpt lat="43.043856" lon="13.0508704"><ele>471.5</ele><time>2026-04-05T15:50:35.424Z</time></trkpt><trkpt lat="43.0439533" lon="13.0509517"><ele>471.75</ele><time>2026-04-05T15:50:36.424Z</time></trkpt><trkpt lat="43.0440594" lon="13.0510309"><ele>472.0</ele><time>2026-04-05T15:50:37.424Z</time></trkpt><trkpt lat="43.0441634" lon="13.0511181"><ele>472.0</ele><time>2026-04-05T15:50:38.423Z</time></trkpt><trkpt lat="43.0442689" lon="13.0512031"><ele>472.0</ele><time>2026-04-05T15:50:39.424Z</time></trkpt><trkpt lat="43.0443712" lon="13.0512922"><ele>472.0</ele><time>2026-04-05T15:50:40.424Z</time></trkpt><trkpt lat="43.0444689" lon="13.0513734"><ele>472.0</ele><time>2026-04-05T15:50:41.423Z</time></trkpt><trkpt lat="43.0445651" lon="13.0514589"><ele>472.0</ele><time>2026-04-05T15:50:42.423Z</time></trkpt><trkpt lat="43.0446563" lon="13.0515343"><ele>472.00000000000006</ele><time>2026-04-05T15:50:43.424Z</time></trkpt><trkpt lat="43.044751" lon="13.0516107"><ele>472.00000000000006</ele><time>2026-04-05T15:50:44.424Z</time></trkpt><trkpt lat="43.0448407" lon="13.0516915"><ele>472.0</ele><time>2026-04-05T15:50:45.424Z</time></trkpt><trkpt lat="43.0449374" lon="13.0517667"><ele>472.0</ele><time>2026-04-05T15:50:46.423Z</time></trkpt><trkpt lat="43.0450379" lon="13.0518371"><ele>471.0</ele><time>2026-04-05T15:50:47.424Z</time></trkpt><trkpt lat="43.045143" lon="13.0518992"><ele>470.0</ele><time>2026-04-05T15:50:48.423Z</time></trkpt><trkpt lat="43.0452486" lon="13.0519499"><ele>469.0</ele><time>2026-04-05T15:50:49.424Z</time></trkpt><trkpt lat="43.0453553" lon="13.0520029"><ele>468.0</ele><time>2026-04-05T15:50:50.424Z</time></trkpt><trkpt lat="43.0454651" lon="13.0520478"><ele>468.0</ele><time>2026-04-05T15:50:51.424Z</time></trkpt><trkpt lat="43.0455801" lon="13.0520752"><ele>468.0</ele><time>2026-04-05T15:50:52.424Z</time></trkpt><trkpt lat="43.0456958" lon="13.0521026"><ele>468.0</ele><time>2026-04-05T15:50:53.424Z</time></trkpt><trkpt lat="43.0458122" lon="13.0521246"><ele>468.0</ele><time>2026-04-05T15:50:54.424Z</time></trkpt><trkpt lat="43.0459308" lon="13.0521377"><ele>468.25</ele><time>2026-04-05T15:50:55.424Z</time></trkpt><trkpt lat="43.0460505" lon="13.0521359"><ele>468.5</ele><time>2026-04-05T15:50:56.424Z</time></trkpt><trkpt lat="43.0461747" lon="13.0521287"><ele>468.75</ele><time>2026-04-05T15:50:57.424Z</time></trkpt><trkpt lat="43.0462907" lon="13.0521284"><ele>469.0</ele><time>2026-04-05T15:50:58.424Z</time></trkpt><trkpt lat="43.0464178" lon="13.0521281"><ele>469.0</ele><time>2026-04-05T15:50:59.423Z</time></trkpt><trkpt lat="43.0465413" lon="13.0521467"><ele>469.0</ele><time>2026-04-05T15:51:00.424Z</time></trkpt><trkpt lat="43.0466729" lon="13.052166"><ele>469.0</ele><time>2026-04-05T15:51:01.424Z</time></trkpt><trkpt lat="43.0468055" lon="13.0522014"><ele>469.0</ele><time>2026-04-05T15:51:02.424Z</time></trkpt><trkpt lat="43.046937" lon="13.0522427"><ele>469.5</ele><time>2026-04-05T15:51:03.424Z</time></trkpt><trkpt lat="43.0470627" lon="13.0523042"><ele>470.0</ele><time>2026-04-05T15:51:04.424Z</time></trkpt><trkpt lat="43.0471935" lon="13.0523697"><ele>470.5</ele><time>2026-04-05T15:51:05.424Z</time></trkpt><trkpt lat="43.0473166" lon="13.0524376"><ele>471.0</ele><time>2026-04-05T15:51:06.423Z</time></trkpt><trkpt lat="43.0474398" lon="13.0524923"><ele>469.5</ele><time>2026-04-05T15:51:07.423Z</time></trkpt><trkpt lat="43.0475698" lon="13.0525507"><ele>468.0</ele><time>2026-04-05T15:51:08.424Z</time></trkpt><trkpt lat="43.0476965" lon="13.0526106"><ele>466.5</ele><time>2026-04-05T15:51:09.424Z</time></trkpt><trkpt lat="43.0478192" lon="13.0526693"><ele>465.0</ele><time>2026-04-05T15:51:10.424Z</time></trkpt><trkpt lat="43.0479339" lon="13.0527194"><ele>465.0</ele><time>2026-04-05T15:51:11.424Z</time></trkpt><trkpt lat="43.0480407" lon="13.0527814"><ele>465.0</ele><time>2026-04-05T15:51:12.423Z</time></trkpt><trkpt lat="43.0481572" lon="13.0528378"><ele>465.0</ele><time>2026-04-05T15:51:13.423Z</time></trkpt><trkpt lat="43.0482728" lon="13.0528955"><ele>465.0</ele><time>2026-04-05T15:51:14.424Z</time></trkpt><trkpt lat="43.0483887" lon="13.0529482"><ele>465.25</ele><time>2026-04-05T15:51:15.424Z</time></trkpt><trkpt lat="43.0485034" lon="13.0530129"><ele>465.5</ele><time>2026-04-05T15:51:16.423Z</time></trkpt><trkpt lat="43.0486231" lon="13.0530743"><ele>465.75</ele><time>2026-04-05T15:51:17.424Z</time></trkpt><trkpt lat="43.0487435" lon="13.053137"><ele>466.0</ele><time>2026-04-05T15:51:18.424Z</time></trkpt><trkpt lat="43.0488694" lon="13.0532003"><ele>466.0</ele><time>2026-04-05T15:51:19.423Z</time></trkpt><trkpt lat="43.0489925" lon="13.0532693"><ele>466.0</ele><time>2026-04-05T15:51:20.424Z</time></trkpt><trkpt lat="43.049115" lon="13.0533475"><ele>466.0</ele><time>2026-04-05T15:51:21.423Z</time></trkpt><trkpt lat="43.049246" lon="13.053441"><ele>466.0</ele><time>2026-04-05T15:51:22.424Z</time></trkpt><trkpt lat="43.0493829" lon="13.0535258"><ele>465.0</ele><time>2026-04-05T15:51:23.424Z</time></trkpt><trkpt lat="43.0495199" lon="13.0536363"><ele>464.0</ele><time>2026-04-05T15:51:24.424Z</time></trkpt><trkpt lat="43.049659" lon="13.0537587"><ele>463.0</ele><time>2026-04-05T15:51:25.423Z</time></trkpt><trkpt lat="43.049805" lon="13.0538795"><ele>463.0</ele><time>2026-04-05T15:51:26.424Z</time></trkpt><trkpt lat="43.049943" lon="13.0539956"><ele>463.0</ele><time>2026-04-05T15:51:27.424Z</time></trkpt><trkpt lat="43.0500773" lon="13.0541098"><ele>463.0</ele><time>2026-04-05T15:51:28.424Z</time></trkpt><trkpt lat="43.0502059" lon="13.0542216"><ele>462.25</ele><time>2026-04-05T15:51:29.424Z</time></trkpt><trkpt lat="43.0503241" lon="13.0543313"><ele>461.5</ele><time>2026-04-05T15:51:30.423Z</time></trkpt><trkpt lat="43.0504425" lon="13.0544389"><ele>460.75</ele><time>2026-04-05T15:51:31.424Z</time></trkpt><trkpt lat="43.0505571" lon="13.0545476"><ele>460.0</ele><time>2026-04-05T15:51:32.423Z</time></trkpt><trkpt lat="43.0506759" lon="13.0546493"><ele>459.75</ele><time>2026-04-05T15:51:33.423Z</time></trkpt><trkpt lat="43.0507941" lon="13.054761"><ele>459.5</ele><time>2026-04-05T15:51:34.424Z</time></trkpt><trkpt lat="43.0509205" lon="13.0548669"><ele>459.25</ele><time>2026-04-05T15:51:35.423Z</time></trkpt><trkpt lat="43.0510396" lon="13.0549942"><ele>459.0</ele><time>2026-04-05T15:51:36.424Z</time></trkpt><trkpt lat="43.0511659" lon="13.0551089"><ele>458.66666666666663</ele><time>2026-04-05T15:51:37.424Z</time></trkpt><trkpt lat="43.0512951" lon="13.0552247"><ele>458.3333333333333</ele><time>2026-04-05T15:51:38.424Z</time></trkpt><trkpt lat="43.0514281" lon="13.0553324"><ele>458.0</ele><time>2026-04-05T15:51:39.423Z</time></trkpt><trkpt lat="43.0515504" lon="13.0554476"><ele>458.25</ele><time>2026-04-05T15:51:40.424Z</time></trkpt><trkpt lat="43.0516765" lon="13.055557"><ele>458.5</ele><time>2026-04-05T15:51:41.424Z</time></trkpt><trkpt lat="43.051799" lon="13.0556755"><ele>458.75</ele><time>2026-04-05T15:51:42.424Z</time></trkpt><trkpt lat="43.0519172" lon="13.0557931"><ele>459.0</ele><time>2026-04-05T15:51:43.424Z</time></trkpt><trkpt lat="43.0520395" lon="13.0559162"><ele>459.0</ele><time>2026-04-05T15:51:44.423Z</time></trkpt><trkpt lat="43.0521559" lon="13.056054"><ele>459.0</ele><time>2026-04-05T15:51:45.424Z</time></trkpt><trkpt lat="43.0522646" lon="13.0561918"><ele>459.0</ele><time>2026-04-05T15:51:46.424Z</time></trkpt><trkpt lat="43.0523737" lon="13.0563108"><ele>459.0</ele><time>2026-04-05T15:51:47.424Z</time></trkpt><trkpt lat="43.0524725" lon="13.0564312"><ele>459.0</ele><time>2026-04-05T15:51:48.424Z</time></trkpt><trkpt lat="43.0525774" lon="13.0565552"><ele>459.0</ele><time>2026-04-05T15:51:49.424Z</time></trkpt><trkpt lat="43.0526824" lon="13.0566839"><ele>459.0</ele><time>2026-04-05T15:51:50.424Z</time></trkpt><trkpt lat="43.0527841" lon="13.0568071"><ele>459.0</ele><time>2026-04-05T15:51:51.424Z</time></trkpt><trkpt lat="43.0528942" lon="13.0569478"><ele>459.0</ele><time>2026-04-05T15:51:52.424Z</time></trkpt><trkpt lat="43.0530063" lon="13.0570786"><ele>459.0</ele><time>2026-04-05T15:51:53.423Z</time></trkpt><trkpt lat="43.0531198" lon="13.0572176"><ele>459.0</ele><time>2026-04-05T15:51:54.423Z</time></trkpt><trkpt lat="43.0532406" lon="13.0573478"><ele>458.33333333333337</ele><time>2026-04-05T15:51:55.424Z</time></trkpt><trkpt lat="43.0533696" lon="13.0574686"><ele>457.6666666666667</ele><time>2026-04-05T15:51:56.423Z</time></trkpt><trkpt lat="43.0535033" lon="13.0575978"><ele>457.0</ele><time>2026-04-05T15:51:57.424Z</time></trkpt><trkpt lat="43.053638" lon="13.0577236"><ele>457.0</ele><time>2026-04-05T15:51:58.424Z</time></trkpt><trkpt lat="43.0537732" lon="13.0578488"><ele>457.0</ele><time>2026-04-05T15:51:59.424Z</time></trkpt><trkpt lat="43.0539108" lon="13.0579711"><ele>457.0</ele><time>2026-04-05T15:52:00.424Z</time></trkpt><trkpt lat="43.0540514" lon="13.0580801"><ele>457.25</ele><time>2026-04-05T15:52:01.424Z</time></trkpt><trkpt lat="43.0541903" lon="13.0581742"><ele>457.5</ele><time>2026-04-05T15:52:02.423Z</time></trkpt><trkpt lat="43.0543196" lon="13.0582693"><ele>457.75</ele><time>2026-04-05T15:52:03.423Z</time></trkpt><trkpt lat="43.0544424" lon="13.0583544"><ele>458.0</ele><time>2026-04-05T15:52:04.424Z</time></trkpt><trkpt lat="43.0545693" lon="13.0584322"><ele>458.0</ele><time>2026-04-05T15:52:05.424Z</time></trkpt><trkpt lat="43.0546996" lon="13.0585148"><ele>458.0</ele><time>2026-04-05T15:52:06.424Z</time></trkpt><trkpt lat="43.05483" lon="13.0585985"><ele>458.0</ele><time>2026-04-05T15:52:07.424Z</time></trkpt><trkpt lat="43.0549638" lon="13.0586855"><ele>458.0</ele><time>2026-04-05T15:52:08.424Z</time></trkpt><trkpt lat="43.0550942" lon="13.0587779"><ele>459.3333333333333</ele><time>2026-04-05T15:52:09.424Z</time></trkpt><trkpt lat="43.05523" lon="13.0588704"><ele>460.66666666666663</ele><time>2026-04-05T15:52:10.424Z</time></trkpt><trkpt lat="43.055364" lon="13.0589669"><ele>462.0</ele><time>2026-04-05T15:52:11.424Z</time></trkpt><trkpt lat="43.0554939" lon="13.0590639"><ele>461.33333333333337</ele><time>2026-04-05T15:52:12.424Z</time></trkpt><trkpt lat="43.0556265" lon="13.0591608"><ele>460.6666666666667</ele><time>2026-04-05T15:52:13.424Z</time></trkpt><trkpt lat="43.055765" lon="13.0592547"><ele>460.0</ele><time>2026-04-05T15:52:14.424Z</time></trkpt><trkpt lat="43.0558994" lon="13.0593491"><ele>460.0</ele><time>2026-04-05T15:52:15.423Z</time></trkpt><trkpt lat="43.0560377" lon="13.0594464"><ele>460.0</ele><time>2026-04-05T15:52:16.423Z</time></trkpt><trkpt lat="43.0561792" lon="13.0595436"><ele>460.0</ele><time>2026-04-05T15:52:17.424Z</time></trkpt><trkpt lat="43.0563125" lon="13.0596463"><ele>460.0</ele><time>2026-04-05T15:52:18.424Z</time></trkpt><trkpt lat="43.0564478" lon="13.0597463"><ele>460.0</ele><time>2026-04-05T15:52:19.424Z</time></trkpt><trkpt lat="43.0565805" lon="13.0598421"><ele>460.0</ele><time>2026-04-05T15:52:20.423Z</time></trkpt><trkpt lat="43.0567071" lon="13.0599285"><ele>460.0</ele><time>2026-04-05T15:52:21.424Z</time></trkpt><trkpt lat="43.0568394" lon="13.0600245"><ele>458.0</ele><time>2026-04-05T15:52:22.424Z</time></trkpt><trkpt lat="43.0569741" lon="13.0601319"><ele>456.0</ele><time>2026-04-05T15:52:23.423Z</time></trkpt><trkpt lat="43.0571132" lon="13.0602316"><ele>454.0</ele><time>2026-04-05T15:52:24.424Z</time></trkpt><trkpt lat="43.0572522" lon="13.060336"><ele>454.0</ele><time>2026-04-05T15:52:25.424Z</time></trkpt><trkpt lat="43.0573825" lon="13.0604422"><ele>454.0</ele><time>2026-04-05T15:52:26.424Z</time></trkpt><trkpt lat="43.0575172" lon="13.0605394"><ele>454.0</ele><time>2026-04-05T15:52:27.423Z</time></trkpt><trkpt lat="43.0576489" lon="13.0606339"><ele>453.0</ele><time>2026-04-05T15:52:28.424Z</time></trkpt><trkpt lat="43.0577756" lon="13.0607243"><ele>452.0</ele><time>2026-04-05T15:52:29.424Z</time></trkpt><trkpt lat="43.0579061" lon="13.0608189"><ele>451.0</ele><time>2026-04-05T15:52:30.424Z</time></trkpt><trkpt lat="43.0580371" lon="13.0609071"><ele>450.0</ele><time>2026-04-05T15:52:31.424Z</time></trkpt><trkpt lat="43.0581677" lon="13.0609942"><ele>451.0</ele><time>2026-04-05T15:52:32.424Z</time></trkpt><trkpt lat="43.0583051" lon="13.0610794"><ele>452.0</ele><time>2026-04-05T15:52:33.424Z</time></trkpt><trkpt lat="43.0584407" lon="13.0611574"><ele>453.0</ele><time>2026-04-05T15:52:34.424Z</time></trkpt><trkpt lat="43.0585914" lon="13.0612377"><ele>453.0</ele><time>2026-04-05T15:52:35.424Z</time></trkpt><trkpt lat="43.0587509" lon="13.0613088"><ele>453.0</ele><time>2026-04-05T15:52:36.424Z</time></trkpt><trkpt lat="43.0589053" lon="13.0613827"><ele>453.0</ele><time>2026-04-05T15:52:37.424Z</time></trkpt><trkpt lat="43.0590728" lon="13.0614431"><ele>453.66666666666663</ele><time>2026-04-05T15:52:38.424Z</time></trkpt><trkpt lat="43.0592431" lon="13.0614907"><ele>454.3333333333333</ele><time>2026-04-05T15:52:39.423Z</time></trkpt><trkpt lat="43.0594313" lon="13.0615233"><ele>455.0</ele><time>2026-04-05T15:52:40.423Z</time></trkpt><trkpt lat="43.0596124" lon="13.061564"><ele>455.0</ele><time>2026-04-05T15:52:41.424Z</time></trkpt><trkpt lat="43.0598035" lon="13.0615821"><ele>455.0</ele><time>2026-04-05T15:52:42.424Z</time></trkpt><trkpt lat="43.0599772" lon="13.0616046"><ele>455.0</ele><time>2026-04-05T15:52:43.424Z</time></trkpt><trkpt lat="43.0601709" lon="13.0616392"><ele>452.66666666666663</ele><time>2026-04-05T15:52:44.424Z</time></trkpt><trkpt lat="43.060381" lon="13.061676"><ele>450.33333333333337</ele><time>2026-04-05T15:52:45.423Z</time></trkpt><trkpt lat="43.060598" lon="13.0617238"><ele>448.0</ele><time>2026-04-05T15:52:46.423Z</time></trkpt><trkpt lat="43.0608105" lon="13.0617634"><ele>448.0</ele><time>2026-04-05T15:52:47.424Z</time></trkpt><trkpt lat="43.061026" lon="13.0618156"><ele>448.0</ele><time>2026-04-05T15:52:48.423Z</time></trkpt><trkpt lat="43.061248" lon="13.0618641"><ele>448.0</ele><time>2026-04-05T15:52:49.424Z</time></trkpt><trkpt lat="43.061466" lon="13.0619107"><ele>447.6666666666667</ele><time>2026-04-05T15:52:50.423Z</time></trkpt><trkpt lat="43.0616832" lon="13.0619625"><ele>447.33333333333337</ele><time>2026-04-05T15:52:51.424Z</time></trkpt><trkpt lat="43.0618972" lon="13.0620151"><ele>447.0</ele><time>2026-04-05T15:52:52.423Z</time></trkpt><trkpt lat="43.0621111" lon="13.0620593"><ele>447.0</ele><time>2026-04-05T15:52:53.423Z</time></trkpt><trkpt lat="43.0623268" lon="13.0621122"><ele>447.0</ele><time>2026-04-05T15:52:54.424Z</time></trkpt><trkpt lat="43.0625415" lon="13.0621588"><ele>447.0</ele><time>2026-04-05T15:52:55.424Z</time></trkpt><trkpt lat="43.0627562" lon="13.0621927"><ele>446.33333333333337</ele><time>2026-04-05T15:52:56.423Z</time></trkpt><trkpt lat="43.0629703" lon="13.0622161"><ele>445.6666666666667</ele><time>2026-04-05T15:52:57.424Z</time></trkpt><trkpt lat="43.063183" lon="13.0622544"><ele>445.0</ele><time>2026-04-05T15:52:58.424Z</time></trkpt><trkpt lat="43.0633975" lon="13.0622983"><ele>445.0</ele><time>2026-04-05T15:52:59.424Z</time></trkpt><trkpt lat="43.0636093" lon="13.0623514"><ele>445.0</ele><time>2026-04-05T15:53:00.423Z</time></trkpt><trkpt lat="43.0638183" lon="13.0624025"><ele>445.0</ele><time>2026-04-05T15:53:01.424Z</time></trkpt><trkpt lat="43.0640252" lon="13.0624512"><ele>443.6666666666667</ele><time>2026-04-05T15:53:02.424Z</time></trkpt><trkpt lat="43.064231" lon="13.0625"><ele>442.33333333333337</ele><time>2026-04-05T15:53:03.424Z</time></trkpt><trkpt lat="43.0644373" lon="13.062545"><ele>441.0</ele><time>2026-04-05T15:53:04.424Z</time></trkpt><trkpt lat="43.0646395" lon="13.0625962"><ele>441.0</ele><time>2026-04-05T15:53:05.424Z</time></trkpt><trkpt lat="43.0648404" lon="13.0626369"><ele>441.0</ele><time>2026-04-05T15:53:06.424Z</time></trkpt><trkpt lat="43.0650387" lon="13.0626755"><ele>441.0</ele><time>2026-04-05T15:53:07.424Z</time></trkpt><trkpt lat="43.0652436" lon="13.062709"><ele>441.0</ele><time>2026-04-05T15:53:08.424Z</time></trkpt><trkpt lat="43.0654324" lon="13.0627537"><ele>441.0</ele><time>2026-04-05T15:53:09.424Z</time></trkpt><trkpt lat="43.06563" lon="13.0627985"><ele>441.0</ele><time>2026-04-05T15:53:10.424Z</time></trkpt><trkpt lat="43.0658293" lon="13.0628375"><ele>443.0</ele><time>2026-04-05T15:53:11.424Z</time></trkpt><trkpt lat="43.0660298" lon="13.062879"><ele>445.0</ele><time>2026-04-05T15:53:12.424Z</time></trkpt><trkpt lat="43.0662227" lon="13.0629222"><ele>447.0</ele><time>2026-04-05T15:53:13.424Z</time></trkpt><trkpt lat="43.0664077" lon="13.0629637"><ele>447.0</ele><time>2026-04-05T15:53:14.424Z</time></trkpt><trkpt lat="43.0665927" lon="13.063009"><ele>447.0</ele><time>2026-04-05T15:53:15.424Z</time></trkpt><trkpt lat="43.0667729" lon="13.0630508"><ele>447.0</ele><time>2026-04-05T15:53:16.424Z</time></trkpt><trkpt lat="43.0669548" lon="13.0630972"><ele>447.0</ele><time>2026-04-05T15:53:17.424Z</time></trkpt><trkpt lat="43.0671375" lon="13.0631418"><ele>447.0</ele><time>2026-04-05T15:53:18.423Z</time></trkpt><trkpt lat="43.0673174" lon="13.0631746"><ele>447.0</ele><time>2026-04-05T15:53:19.423Z</time></trkpt><trkpt lat="43.0675024" lon="13.063216"><ele>445.0</ele><time>2026-04-05T15:53:20.424Z</time></trkpt><trkpt lat="43.0676879" lon="13.0632584"><ele>443.0</ele><time>2026-04-05T15:53:21.423Z</time></trkpt><trkpt lat="43.0678768" lon="13.0633013"><ele>441.0</ele><time>2026-04-05T15:53:22.424Z</time></trkpt><trkpt lat="43.0680679" lon="13.0633388"><ele>439.0</ele><time>2026-04-05T15:53:23.424Z</time></trkpt><trkpt lat="43.0682611" lon="13.0633751"><ele>437.0</ele><time>2026-04-05T15:53:24.423Z</time></trkpt><trkpt lat="43.068456" lon="13.0634156"><ele>435.0</ele><time>2026-04-05T15:53:25.423Z</time></trkpt><trkpt lat="43.0686475" lon="13.0634522"><ele>434.33333333333337</ele><time>2026-04-05T15:53:26.424Z</time></trkpt><trkpt lat="43.0688417" lon="13.0634898"><ele>433.6666666666667</ele><time>2026-04-05T15:53:27.423Z</time></trkpt><trkpt lat="43.0690412" lon="13.0635254"><ele>433.0</ele><time>2026-04-05T15:53:28.423Z</time></trkpt><trkpt lat="43.0692362" lon="13.063558"><ele>433.0</ele><time>2026-04-05T15:53:29.424Z</time></trkpt><trkpt lat="43.0694368" lon="13.0635904"><ele>433.0</ele><time>2026-04-05T15:53:30.424Z</time></trkpt><trkpt lat="43.0696354" lon="13.0636296"><ele>433.0</ele><time>2026-04-05T15:53:31.424Z</time></trkpt><trkpt lat="43.0698326" lon="13.0636603"><ele>432.0</ele><time>2026-04-05T15:53:32.423Z</time></trkpt><trkpt lat="43.0700389" lon="13.0636887"><ele>431.0</ele><time>2026-04-05T15:53:33.423Z</time></trkpt><trkpt lat="43.0702361" lon="13.0637322"><ele>430.0</ele><time>2026-04-05T15:53:34.423Z</time></trkpt><trkpt lat="43.0704318" lon="13.0637656"><ele>430.0</ele><time>2026-04-05T15:53:35.424Z</time></trkpt><trkpt lat="43.0706316" lon="13.0638031"><ele>430.0</ele><time>2026-04-05T15:53:36.423Z</time></trkpt><trkpt lat="43.0708284" lon="13.0638471"><ele>430.0</ele><time>2026-04-05T15:53:37.423Z</time></trkpt><trkpt lat="43.0710274" lon="13.0638845"><ele>432.33333333333337</ele><time>2026-04-05T15:53:38.424Z</time></trkpt><trkpt lat="43.071227" lon="13.0639183"><ele>434.66666666666663</ele><time>2026-04-05T15:53:39.424Z</time></trkpt><trkpt lat="43.0714235" lon="13.0639536"><ele>437.0</ele><time>2026-04-05T15:53:40.423Z</time></trkpt><trkpt lat="43.0716226" lon="13.0639787"><ele>437.0</ele><time>2026-04-05T15:53:41.423Z</time></trkpt><trkpt lat="43.0718213" lon="13.064006"><ele>437.0</ele><time>2026-04-05T15:53:42.423Z</time></trkpt><trkpt lat="43.0720188" lon="13.0640259"><ele>437.0</ele><time>2026-04-05T15:53:43.424Z</time></trkpt><trkpt lat="43.0722148" lon="13.0640405"><ele>437.0</ele><time>2026-04-05T15:53:44.424Z</time></trkpt><trkpt lat="43.0724061" lon="13.0640534"><ele>437.0</ele><time>2026-04-05T15:53:45.423Z</time></trkpt><trkpt lat="43.0726002" lon="13.0640663"><ele>437.0</ele><time>2026-04-05T15:53:46.424Z</time></trkpt><trkpt lat="43.0727891" lon="13.0640723"><ele>437.66666666666663</ele><time>2026-04-05T15:53:47.424Z</time></trkpt><trkpt lat="43.0729731" lon="13.064079"><ele>438.33333333333337</ele><time>2026-04-05T15:53:48.424Z</time></trkpt><trkpt lat="43.0731524" lon="13.0640843"><ele>439.0</ele><time>2026-04-05T15:53:49.424Z</time></trkpt><trkpt lat="43.0733103" lon="13.0640852"><ele>438.0</ele><time>2026-04-05T15:53:50.424Z</time></trkpt><trkpt lat="43.0734521" lon="13.064076"><ele>437.0</ele><time>2026-04-05T15:53:51.424Z</time></trkpt><trkpt lat="43.0735824" lon="13.0640621"><ele>436.0</ele><time>2026-04-05T15:53:52.423Z</time></trkpt><trkpt lat="43.07369" lon="13.0640362"><ele>435.0</ele><time>2026-04-05T15:53:53.424Z</time></trkpt><trkpt lat="43.0737903" lon="13.0640091"><ele>435.0</ele><time>2026-04-05T15:53:54.424Z</time></trkpt><trkpt lat="43.0738904" lon="13.0640026"><ele>435.0</ele><time>2026-04-05T15:53:55.424Z</time></trkpt><trkpt lat="43.0739932" lon="13.0639975"><ele>435.0</ele><time>2026-04-05T15:53:56.424Z</time></trkpt><trkpt lat="43.0741026" lon="13.0639912"><ele>435.0</ele><time>2026-04-05T15:53:57.423Z</time></trkpt><trkpt lat="43.0742122" lon="13.0639882"><ele>435.0</ele><time>2026-04-05T15:53:58.424Z</time></trkpt><trkpt lat="43.0743296" lon="13.0639938"><ele>433.25</ele><time>2026-04-05T15:53:59.423Z</time></trkpt><trkpt lat="43.0744516" lon="13.0639964"><ele>431.5</ele><time>2026-04-05T15:54:00.423Z</time></trkpt><trkpt lat="43.074568" lon="13.0640002"><ele>429.75</ele><time>2026-04-05T15:54:01.424Z</time></trkpt><trkpt lat="43.0746968" lon="13.0639833"><ele>428.0</ele><time>2026-04-05T15:54:02.424Z</time></trkpt><trkpt lat="43.0748286" lon="13.063968"><ele>428.0</ele><time>2026-04-05T15:54:03.424Z</time></trkpt><trkpt lat="43.0749609" lon="13.0639555"><ele>428.0</ele><time>2026-04-05T15:54:04.424Z</time></trkpt><trkpt lat="43.0750964" lon="13.0639415"><ele>428.0</ele><time>2026-04-05T15:54:05.424Z</time></trkpt><trkpt lat="43.0752266" lon="13.0639428"><ele>428.0</ele><time>2026-04-05T15:54:06.424Z</time></trkpt><trkpt lat="43.0753458" lon="13.0639345"><ele>428.0</ele><time>2026-04-05T15:54:07.423Z</time></trkpt><trkpt lat="43.0754524" lon="13.0639215"><ele>427.99999999999994</ele><time>2026-04-05T15:54:08.424Z</time></trkpt><trkpt lat="43.0755589" lon="13.0639125"><ele>427.99999999999994</ele><time>2026-04-05T15:54:09.424Z</time></trkpt><trkpt lat="43.0756591" lon="13.0638985"><ele>428.0</ele><time>2026-04-05T15:54:11.424Z</time></trkpt><trkpt lat="43.075727" lon="13.0638615"><ele>428.0</ele><time>2026-04-05T15:54:14.424Z</time></trkpt><trkpt lat="43.0757435" lon="13.0637108"><ele>428.0</ele><time>2026-04-05T15:54:16.424Z</time></trkpt><trkpt lat="43.0757352" lon="13.0636016"><ele>427.99999999999994</ele><time>2026-04-05T15:54:17.424Z</time></trkpt><trkpt lat="43.0757226" lon="13.0634734"><ele>427.99999999999994</ele><time>2026-04-05T15:54:18.424Z</time></trkpt><trkpt lat="43.0757088" lon="13.0633498"><ele>428.0</ele><time>2026-04-05T15:54:19.424Z</time></trkpt><trkpt lat="43.0756988" lon="13.0632107"><ele>428.0</ele><time>2026-04-05T15:54:20.424Z</time></trkpt><trkpt lat="43.0756856" lon="13.0630592"><ele>428.25</ele><time>2026-04-05T15:54:21.424Z</time></trkpt><trkpt lat="43.0756719" lon="13.0629072"><ele>428.5</ele><time>2026-04-05T15:54:22.423Z</time></trkpt><trkpt lat="43.0756561" lon="13.0627509"><ele>428.75</ele><time>2026-04-05T15:54:23.424Z</time></trkpt><trkpt lat="43.0756364" lon="13.0626015"><ele>429.0</ele><time>2026-04-05T15:54:24.424Z</time></trkpt><trkpt lat="43.075629" lon="13.0624359"><ele>429.25</ele><time>2026-04-05T15:54:25.423Z</time></trkpt><trkpt lat="43.0756216" lon="13.062278"><ele>429.5</ele><time>2026-04-05T15:54:26.424Z</time></trkpt><trkpt lat="43.0756216" lon="13.062107"><ele>429.75</ele><time>2026-04-05T15:54:27.424Z</time></trkpt><trkpt lat="43.0756279" lon="13.0619334"><ele>430.0</ele><time>2026-04-05T15:54:28.424Z</time></trkpt><trkpt lat="43.0756294" lon="13.0617449"><ele>430.25</ele><time>2026-04-05T15:54:29.424Z</time></trkpt><trkpt lat="43.0756403" lon="13.0615549"><ele>430.5</ele><time>2026-04-05T15:54:30.423Z</time></trkpt><trkpt lat="43.075665" lon="13.0613577"><ele>430.75</ele><time>2026-04-05T15:54:31.424Z</time></trkpt><trkpt lat="43.0756927" lon="13.0611567"><ele>431.0</ele><time>2026-04-05T15:54:32.424Z</time></trkpt><trkpt lat="43.0757265" lon="13.0609547"><ele>431.0</ele><time>2026-04-05T15:54:33.424Z</time></trkpt><trkpt lat="43.0757701" lon="13.0607604"><ele>431.0</ele><time>2026-04-05T15:54:34.424Z</time></trkpt><trkpt lat="43.0758169" lon="13.0605709"><ele>431.0</ele><time>2026-04-05T15:54:35.424Z</time></trkpt><trkpt lat="43.0758646" lon="13.0603722"><ele>431.0</ele><time>2026-04-05T15:54:36.423Z</time></trkpt><trkpt lat="43.0759125" lon="13.0601741"><ele>432.5</ele><time>2026-04-05T15:54:37.424Z</time></trkpt><trkpt lat="43.0759632" lon="13.0599896"><ele>434.0</ele><time>2026-04-05T15:54:38.424Z</time></trkpt><trkpt lat="43.0760147" lon="13.0597909"><ele>435.5</ele><time>2026-04-05T15:54:39.424Z</time></trkpt><trkpt lat="43.0760627" lon="13.0596054"><ele>437.0</ele><time>2026-04-05T15:54:40.423Z</time></trkpt><trkpt lat="43.0761055" lon="13.0594368"><ele>437.0</ele><time>2026-04-05T15:54:41.424Z</time></trkpt><trkpt lat="43.0761517" lon="13.0592662"><ele>437.0</ele><time>2026-04-05T15:54:42.424Z</time></trkpt><trkpt lat="43.0761943" lon="13.0590943"><ele>437.0</ele><time>2026-04-05T15:54:43.423Z</time></trkpt><trkpt lat="43.0762342" lon="13.0589266"><ele>437.0</ele><time>2026-04-05T15:54:44.424Z</time></trkpt><trkpt lat="43.0762795" lon="13.0587678"><ele>436.6</ele><time>2026-04-05T15:54:45.424Z</time></trkpt><trkpt lat="43.076313" lon="13.058612"><ele>436.20000000000005</ele><time>2026-04-05T15:54:46.424Z</time></trkpt><trkpt lat="43.0763481" lon="13.0584529"><ele>435.8</ele><time>2026-04-05T15:54:47.424Z</time></trkpt><trkpt lat="43.0763828" lon="13.0583053"><ele>435.4</ele><time>2026-04-05T15:54:48.424Z</time></trkpt><trkpt lat="43.0764095" lon="13.0581807"><ele>435.0</ele><time>2026-04-05T15:54:49.424Z</time></trkpt><trkpt lat="43.0764367" lon="13.058069"><ele>434.75</ele><time>2026-04-05T15:54:50.424Z</time></trkpt><trkpt lat="43.0764754" lon="13.0579048"><ele>434.5</ele><time>2026-04-05T15:54:52.424Z</time></trkpt><trkpt lat="43.0765111" lon="13.0577729"><ele>434.25</ele><time>2026-04-05T15:54:54.423Z</time></trkpt><trkpt lat="43.076554" lon="13.0575939"><ele>434.0</ele><time>2026-04-05T15:54:56.424Z</time></trkpt><trkpt lat="43.0765878" lon="13.0574868"><ele>434.75</ele><time>2026-04-05T15:54:57.423Z</time></trkpt><trkpt lat="43.0766265" lon="13.0573486"><ele>435.5</ele><time>2026-04-05T15:54:58.424Z</time></trkpt><trkpt lat="43.0766683" lon="13.0572086"><ele>436.25</ele><time>2026-04-05T15:54:59.423Z</time></trkpt><trkpt lat="43.0767007" lon="13.0571"><ele>437.0</ele><time>2026-04-05T15:55:00.423Z</time></trkpt><trkpt lat="43.076766" lon="13.0569142"><ele>437.0</ele><time>2026-04-05T15:55:01.423Z</time></trkpt><trkpt lat="43.076827" lon="13.0567543"><ele>437.0</ele><time>2026-04-05T15:55:02.424Z</time></trkpt><trkpt lat="43.0768858" lon="13.0565377"><ele>437.0</ele><time>2026-04-05T15:55:03.423Z</time></trkpt><trkpt lat="43.0769558" lon="13.0563649"><ele>437.0</ele><time>2026-04-05T15:55:04.423Z</time></trkpt><trkpt lat="43.0770182" lon="13.0562023"><ele>437.0</ele><time>2026-04-05T15:55:05.424Z</time></trkpt><trkpt lat="43.0770988" lon="13.0560388"><ele>437.0</ele><time>2026-04-05T15:55:06.424Z</time></trkpt><trkpt lat="43.0771707" lon="13.0558621"><ele>437.0</ele><time>2026-04-05T15:55:07.423Z</time></trkpt><trkpt lat="43.07725" lon="13.0556776"><ele>437.0</ele><time>2026-04-05T15:55:08.424Z</time></trkpt><trkpt lat="43.0773374" lon="13.055503"><ele>438.0</ele><time>2026-04-05T15:55:09.423Z</time></trkpt><trkpt lat="43.0774379" lon="13.0553385"><ele>439.0</ele><time>2026-04-05T15:55:10.424Z</time></trkpt><trkpt lat="43.0775429" lon="13.0551649"><ele>440.0</ele><time>2026-04-05T15:55:11.424Z</time></trkpt><trkpt lat="43.0776447" lon="13.0549917"><ele>440.0</ele><time>2026-04-05T15:55:12.424Z</time></trkpt><trkpt lat="43.0777476" lon="13.0548255"><ele>440.0</ele><time>2026-04-05T15:55:13.423Z</time></trkpt><trkpt lat="43.0778609" lon="13.0546523"><ele>440.0</ele><time>2026-04-05T15:55:14.424Z</time></trkpt><trkpt lat="43.0779776" lon="13.0544729"><ele>440.0</ele><time>2026-04-05T15:55:15.424Z</time></trkpt><trkpt lat="43.0780937" lon="13.0542871"><ele>440.0</ele><time>2026-04-05T15:55:16.424Z</time></trkpt><trkpt lat="43.0782076" lon="13.0540941"><ele>440.0</ele><time>2026-04-05T15:55:17.423Z</time></trkpt><trkpt lat="43.0783235" lon="13.0539078"><ele>440.3333333333333</ele><time>2026-04-05T15:55:18.424Z</time></trkpt><trkpt lat="43.078436" lon="13.0537243"><ele>440.66666666666663</ele><time>2026-04-05T15:55:19.424Z</time></trkpt><trkpt lat="43.0785545" lon="13.0535439"><ele>441.0</ele><time>2026-04-05T15:55:20.424Z</time></trkpt><trkpt lat="43.0786635" lon="13.0533798"><ele>440.66666666666663</ele><time>2026-04-05T15:55:21.424Z</time></trkpt><trkpt lat="43.078776" lon="13.0532002"><ele>440.3333333333333</ele><time>2026-04-05T15:55:22.424Z</time></trkpt><trkpt lat="43.0788871" lon="13.0530319"><ele>440.0</ele><time>2026-04-05T15:55:23.423Z</time></trkpt><trkpt lat="43.0789926" lon="13.0528411"><ele>441.3333333333333</ele><time>2026-04-05T15:55:24.424Z</time></trkpt><trkpt lat="43.0791067" lon="13.0526626"><ele>442.66666666666663</ele><time>2026-04-05T15:55:25.424Z</time></trkpt><trkpt lat="43.0792111" lon="13.0524726"><ele>444.0</ele><time>2026-04-05T15:55:26.424Z</time></trkpt><trkpt lat="43.0793264" lon="13.0522908"><ele>444.0</ele><time>2026-04-05T15:55:27.423Z</time></trkpt><trkpt lat="43.0794386" lon="13.0521161"><ele>444.0</ele><time>2026-04-05T15:55:28.424Z</time></trkpt><trkpt lat="43.0795483" lon="13.0519422"><ele>444.0</ele><time>2026-04-05T15:55:29.423Z</time></trkpt><trkpt lat="43.0796585" lon="13.0517613"><ele>444.33333333333337</ele><time>2026-04-05T15:55:30.424Z</time></trkpt><trkpt lat="43.0797647" lon="13.0515853"><ele>444.6666666666667</ele><time>2026-04-05T15:55:31.424Z</time></trkpt><trkpt lat="43.0798746" lon="13.0514008"><ele>445.0</ele><time>2026-04-05T15:55:32.424Z</time></trkpt><trkpt lat="43.0799895" lon="13.051213"><ele>445.6666666666667</ele><time>2026-04-05T15:55:33.423Z</time></trkpt><trkpt lat="43.0800979" lon="13.0510321"><ele>446.33333333333337</ele><time>2026-04-05T15:55:34.424Z</time></trkpt><trkpt lat="43.0802025" lon="13.0508613"><ele>447.0</ele><time>2026-04-05T15:55:35.424Z</time></trkpt><trkpt lat="43.080303" lon="13.0506785"><ele>447.0</ele><time>2026-04-05T15:55:36.423Z</time></trkpt><trkpt lat="43.0803907" lon="13.0504946"><ele>447.0</ele><time>2026-04-05T15:55:37.424Z</time></trkpt><trkpt lat="43.0804598" lon="13.0503025"><ele>447.0</ele><time>2026-04-05T15:55:38.424Z</time></trkpt><trkpt lat="43.0805148" lon="13.0501028"><ele>447.0</ele><time>2026-04-05T15:55:39.424Z</time></trkpt><trkpt lat="43.0805567" lon="13.0498936"><ele>447.0</ele><time>2026-04-05T15:55:40.424Z</time></trkpt><trkpt lat="43.0805979" lon="13.049711"><ele>447.0</ele><time>2026-04-05T15:55:41.423Z</time></trkpt><trkpt lat="43.0806308" lon="13.0495268"><ele>447.0</ele><time>2026-04-05T15:55:42.424Z</time></trkpt><trkpt lat="43.0806503" lon="13.0493336"><ele>447.0</ele><time>2026-04-05T15:55:43.423Z</time></trkpt><trkpt lat="43.0806729" lon="13.0491508"><ele>447.0</ele><time>2026-04-05T15:55:44.424Z</time></trkpt><trkpt lat="43.0806958" lon="13.0489658"><ele>447.0</ele><time>2026-04-05T15:55:45.424Z</time></trkpt><trkpt lat="43.0807227" lon="13.0487797"><ele>447.0</ele><time>2026-04-05T15:55:46.424Z</time></trkpt><trkpt lat="43.0807476" lon="13.0486046"><ele>448.0</ele><time>2026-04-05T15:55:47.423Z</time></trkpt><trkpt lat="43.0807679" lon="13.0484261"><ele>449.0</ele><time>2026-04-05T15:55:48.424Z</time></trkpt><trkpt lat="43.0807965" lon="13.048258"><ele>450.0</ele><time>2026-04-05T15:55:49.423Z</time></trkpt><trkpt lat="43.0808214" lon="13.0480949"><ele>451.0</ele><time>2026-04-05T15:55:50.424Z</time></trkpt><trkpt lat="43.0808456" lon="13.0479252"><ele>451.0</ele><time>2026-04-05T15:55:51.424Z</time></trkpt><trkpt lat="43.0808686" lon="13.0477557"><ele>451.0</ele><time>2026-04-05T15:55:52.424Z</time></trkpt><trkpt lat="43.0808742" lon="13.0475662"><ele>451.0</ele><time>2026-04-05T15:55:53.424Z</time></trkpt><trkpt lat="43.0808829" lon="13.0473892"><ele>451.0</ele><time>2026-04-05T15:55:54.424Z</time></trkpt><trkpt lat="43.0808935" lon="13.0472371"><ele>451.0</ele><time>2026-04-05T15:55:55.424Z</time></trkpt><trkpt lat="43.0808881" lon="13.0470527"><ele>451.0</ele><time>2026-04-05T15:55:56.424Z</time></trkpt><trkpt lat="43.0808787" lon="13.0468854"><ele>451.0</ele><time>2026-04-05T15:55:57.423Z</time></trkpt><trkpt lat="43.080869" lon="13.0467084"><ele>451.0</ele><time>2026-04-05T15:55:58.424Z</time></trkpt><trkpt lat="43.0808669" lon="13.0465297"><ele>451.0</ele><time>2026-04-05T15:55:59.424Z</time></trkpt><trkpt lat="43.0808552" lon="13.0463379"><ele>451.0</ele><time>2026-04-05T15:56:00.424Z</time></trkpt><trkpt lat="43.0808501" lon="13.0461572"><ele>451.0</ele><time>2026-04-05T15:56:01.424Z</time></trkpt><trkpt lat="43.0808461" lon="13.0459757"><ele>451.0</ele><time>2026-04-05T15:56:02.423Z</time></trkpt><trkpt lat="43.0808317" lon="13.0457902"><ele>451.5</ele><time>2026-04-05T15:56:03.423Z</time></trkpt><trkpt lat="43.0808286" lon="13.0456045"><ele>452.0</ele><time>2026-04-05T15:56:04.423Z</time></trkpt><trkpt lat="43.0808192" lon="13.0454266"><ele>452.5</ele><time>2026-04-05T15:56:05.423Z</time></trkpt><trkpt lat="43.0808148" lon="13.045243"><ele>453.0</ele><time>2026-04-05T15:56:06.424Z</time></trkpt><trkpt lat="43.0808153" lon="13.0450595"><ele>453.25</ele><time>2026-04-05T15:56:07.424Z</time></trkpt><trkpt lat="43.0808067" lon="13.044876"><ele>453.5</ele><time>2026-04-05T15:56:08.423Z</time></trkpt><trkpt lat="43.0807985" lon="13.0446874"><ele>453.75</ele><time>2026-04-05T15:56:09.424Z</time></trkpt><trkpt lat="43.080786" lon="13.0444984"><ele>454.0</ele><time>2026-04-05T15:56:10.424Z</time></trkpt><trkpt lat="43.0807743" lon="13.0443062"><ele>454.0</ele><time>2026-04-05T15:56:11.424Z</time></trkpt><trkpt lat="43.0807665" lon="13.0441095"><ele>454.0</ele><time>2026-04-05T15:56:12.424Z</time></trkpt><trkpt lat="43.0807604" lon="13.0439224"><ele>454.0</ele><time>2026-04-05T15:56:13.424Z</time></trkpt><trkpt lat="43.0807524" lon="13.0437285"><ele>454.0</ele><time>2026-04-05T15:56:14.423Z</time></trkpt><trkpt lat="43.0807433" lon="13.043539"><ele>455.5</ele><time>2026-04-05T15:56:15.424Z</time></trkpt><trkpt lat="43.080729" lon="13.043347"><ele>457.0</ele><time>2026-04-05T15:56:16.423Z</time></trkpt><trkpt lat="43.080722" lon="13.0431656"><ele>458.5</ele><time>2026-04-05T15:56:17.424Z</time></trkpt><trkpt lat="43.0807173" lon="13.0429789"><ele>460.0</ele><time>2026-04-05T15:56:18.424Z</time></trkpt><trkpt lat="43.0807111" lon="13.0428008"><ele>460.5</ele><time>2026-04-05T15:56:19.423Z</time></trkpt><trkpt lat="43.0807062" lon="13.0426284"><ele>461.0</ele><time>2026-04-05T15:56:20.424Z</time></trkpt><trkpt lat="43.0806995" lon="13.0424673"><ele>461.5</ele><time>2026-04-05T15:56:21.424Z</time></trkpt><trkpt lat="43.0806871" lon="13.0423207"><ele>462.0</ele><time>2026-04-05T15:56:22.424Z</time></trkpt><trkpt lat="43.0806819" lon="13.0421863"><ele>462.5</ele><time>2026-04-05T15:56:23.424Z</time></trkpt><trkpt lat="43.0806802" lon="13.0420609"><ele>463.0</ele><time>2026-04-05T15:56:24.423Z</time></trkpt><trkpt lat="43.0806831" lon="13.0419421"><ele>463.5</ele><time>2026-04-05T15:56:25.424Z</time></trkpt><trkpt lat="43.08068" lon="13.0418213"><ele>464.0</ele><time>2026-04-05T15:56:26.424Z</time></trkpt><trkpt lat="43.0806785" lon="13.0417026"><ele>464.5</ele><time>2026-04-05T15:56:27.424Z</time></trkpt><trkpt lat="43.0806708" lon="13.0415766"><ele>465.0</ele><time>2026-04-05T15:56:28.424Z</time></trkpt><trkpt lat="43.0806632" lon="13.0414449"><ele>465.6</ele><time>2026-04-05T15:56:29.424Z</time></trkpt><trkpt lat="43.0806557" lon="13.0413116"><ele>466.2</ele><time>2026-04-05T15:56:30.423Z</time></trkpt><trkpt lat="43.0806486" lon="13.0411701"><ele>466.79999999999995</ele><time>2026-04-05T15:56:31.424Z</time></trkpt><trkpt lat="43.0806399" lon="13.0410239"><ele>467.4</ele><time>2026-04-05T15:56:32.424Z</time></trkpt><trkpt lat="43.0806309" lon="13.0408704"><ele>468.0</ele><time>2026-04-05T15:56:33.423Z</time></trkpt><trkpt lat="43.0806217" lon="13.0407144"><ele>469.0</ele><time>2026-04-05T15:56:34.424Z</time></trkpt><trkpt lat="43.080616" lon="13.0405598"><ele>470.0</ele><time>2026-04-05T15:56:35.424Z</time></trkpt><trkpt lat="43.0806048" lon="13.0403983"><ele>471.0</ele><time>2026-04-05T15:56:36.424Z</time></trkpt><trkpt lat="43.080599" lon="13.0402336"><ele>472.0</ele><time>2026-04-05T15:56:37.424Z</time></trkpt><trkpt lat="43.0805961" lon="13.0400668"><ele>473.75</ele><time>2026-04-05T15:56:38.424Z</time></trkpt><trkpt lat="43.0805889" lon="13.0398961"><ele>475.5</ele><time>2026-04-05T15:56:39.424Z</time></trkpt><trkpt lat="43.080581" lon="13.0397215"><ele>477.25</ele><time>2026-04-05T15:56:40.423Z</time></trkpt><trkpt lat="43.0805748" lon="13.0395591"><ele>479.0</ele><time>2026-04-05T15:56:41.424Z</time></trkpt><trkpt lat="43.0805622" lon="13.0393905"><ele>479.0</ele><time>2026-04-05T15:56:42.424Z</time></trkpt><trkpt lat="43.080542" lon="13.0392203"><ele>479.0</ele><time>2026-04-05T15:56:43.424Z</time></trkpt><trkpt lat="43.0804967" lon="13.0390632"><ele>479.0</ele><time>2026-04-05T15:56:44.423Z</time></trkpt><trkpt lat="43.080441" lon="13.038903"><ele>479.0</ele><time>2026-04-05T15:56:45.424Z</time></trkpt><trkpt lat="43.080364" lon="13.0387404"><ele>479.25</ele><time>2026-04-05T15:56:46.424Z</time></trkpt><trkpt lat="43.0802886" lon="13.0385797"><ele>479.5</ele><time>2026-04-05T15:56:47.424Z</time></trkpt><trkpt lat="43.080205" lon="13.0384141"><ele>479.75</ele><time>2026-04-05T15:56:48.423Z</time></trkpt><trkpt lat="43.0801286" lon="13.038245"><ele>480.0</ele><time>2026-04-05T15:56:49.424Z</time></trkpt><trkpt lat="43.0800634" lon="13.0380825"><ele>477.5</ele><time>2026-04-05T15:56:50.423Z</time></trkpt><trkpt lat="43.080003" lon="13.0379148"><ele>475.0</ele><time>2026-04-05T15:56:51.424Z</time></trkpt><trkpt lat="43.0799379" lon="13.0377426"><ele>472.5</ele><time>2026-04-05T15:56:52.424Z</time></trkpt><trkpt lat="43.0798728" lon="13.0375652"><ele>470.0</ele><time>2026-04-05T15:56:53.424Z</time></trkpt><trkpt lat="43.0798035" lon="13.0373779"><ele>479.0</ele><time>2026-04-05T15:56:54.424Z</time></trkpt><trkpt lat="43.0797377" lon="13.0371885"><ele>488.0</ele><time>2026-04-05T15:56:55.424Z</time></trkpt><trkpt lat="43.0796667" lon="13.0369952"><ele>497.0</ele><time>2026-04-05T15:56:56.423Z</time></trkpt><trkpt lat="43.079577" lon="13.0368012"><ele>492.0</ele><time>2026-04-05T15:56:57.424Z</time></trkpt><trkpt lat="43.0794934" lon="13.0366164"><ele>487.0</ele><time>2026-04-05T15:56:58.424Z</time></trkpt><trkpt lat="43.0794085" lon="13.0364382"><ele>482.0</ele><time>2026-04-05T15:56:59.424Z</time></trkpt><trkpt lat="43.0793373" lon="13.0362604"><ele>482.0</ele><time>2026-04-05T15:57:00.424Z</time></trkpt><trkpt lat="43.0792872" lon="13.0360895"><ele>482.0</ele><time>2026-04-05T15:57:01.424Z</time></trkpt><trkpt lat="43.0792316" lon="13.0359259"><ele>482.0</ele><time>2026-04-05T15:57:02.424Z</time></trkpt><trkpt lat="43.0791444" lon="13.0357824"><ele>482.0</ele><time>2026-04-05T15:57:03.424Z</time></trkpt><trkpt lat="43.0790435" lon="13.0356627"><ele>482.0</ele><time>2026-04-05T15:57:04.424Z</time></trkpt><trkpt lat="43.0789281" lon="13.035557"><ele>482.0</ele><time>2026-04-05T15:57:05.424Z</time></trkpt><trkpt lat="43.0788021" lon="13.0354502"><ele>482.0</ele><time>2026-04-05T15:57:06.423Z</time></trkpt><trkpt lat="43.0786634" lon="13.0353344"><ele>482.0</ele><time>2026-04-05T15:57:07.423Z</time></trkpt><trkpt lat="43.0785375" lon="13.035213"><ele>482.0</ele><time>2026-04-05T15:57:08.424Z</time></trkpt><trkpt lat="43.0784156" lon="13.0350593"><ele>482.0</ele><time>2026-04-05T15:57:09.424Z</time></trkpt><trkpt lat="43.0782854" lon="13.0349118"><ele>482.0</ele><time>2026-04-05T15:57:10.424Z</time></trkpt><trkpt lat="43.0781507" lon="13.0347832"><ele>480.0</ele><time>2026-04-05T15:57:11.424Z</time></trkpt><trkpt lat="43.0780134" lon="13.0346708"><ele>478.0</ele><time>2026-04-05T15:57:12.424Z</time></trkpt><trkpt lat="43.0778716" lon="13.0345758"><ele>476.0</ele><time>2026-04-05T15:57:13.424Z</time></trkpt><trkpt lat="43.0777263" lon="13.034487"><ele>476.0</ele><time>2026-04-05T15:57:14.423Z</time></trkpt><trkpt lat="43.0775855" lon="13.0344054"><ele>476.0</ele><time>2026-04-05T15:57:15.424Z</time></trkpt><trkpt lat="43.0774511" lon="13.0343243"><ele>476.0</ele><time>2026-04-05T15:57:16.424Z</time></trkpt><trkpt lat="43.0773352" lon="13.0342617"><ele>476.0</ele><time>2026-04-05T15:57:17.424Z</time></trkpt><trkpt lat="43.0772214" lon="13.0341739"><ele>483.25</ele><time>2026-04-05T15:57:18.424Z</time></trkpt><trkpt lat="43.0771223" lon="13.0340588"><ele>490.5</ele><time>2026-04-05T15:57:19.423Z</time></trkpt><trkpt lat="43.0770428" lon="13.0339142"><ele>497.75</ele><time>2026-04-05T15:57:20.424Z</time></trkpt><trkpt lat="43.0769871" lon="13.0337448"><ele>505.0</ele><time>2026-04-05T15:57:21.423Z</time></trkpt><trkpt lat="43.0769538" lon="13.0335712"><ele>505.0</ele><time>2026-04-05T15:57:22.424Z</time></trkpt><trkpt lat="43.0769504" lon="13.0333833"><ele>505.0</ele><time>2026-04-05T15:57:23.424Z</time></trkpt><trkpt lat="43.0769621" lon="13.0331802"><ele>505.0</ele><time>2026-04-05T15:57:24.423Z</time></trkpt><trkpt lat="43.0769826" lon="13.0329752"><ele>505.0</ele><time>2026-04-05T15:57:25.424Z</time></trkpt><trkpt lat="43.0770044" lon="13.0327497"><ele>507.6666666666667</ele><time>2026-04-05T15:57:26.424Z</time></trkpt><trkpt lat="43.0770196" lon="13.0325223"><ele>510.33333333333337</ele><time>2026-04-05T15:57:27.424Z</time></trkpt><trkpt lat="43.0770323" lon="13.0322963"><ele>513.0</ele><time>2026-04-05T15:57:28.424Z</time></trkpt><trkpt lat="43.0770525" lon="13.0320643"><ele>518.0</ele><time>2026-04-05T15:57:29.424Z</time></trkpt><trkpt lat="43.0770675" lon="13.0318174"><ele>523.0</ele><time>2026-04-05T15:57:30.424Z</time></trkpt><trkpt lat="43.0770794" lon="13.0315704"><ele>528.0</ele><time>2026-04-05T15:57:31.424Z</time></trkpt><trkpt lat="43.0770901" lon="13.0313331"><ele>528.3333333333334</ele><time>2026-04-05T15:57:32.424Z</time></trkpt><trkpt lat="43.0771175" lon="13.0311081"><ele>528.6666666666667</ele><time>2026-04-05T15:57:33.424Z</time></trkpt><trkpt lat="43.0771519" lon="13.0308869"><ele>529.0</ele><time>2026-04-05T15:57:34.423Z</time></trkpt><trkpt lat="43.077195" lon="13.0306793"><ele>529.0</ele><time>2026-04-05T15:57:35.424Z</time></trkpt><trkpt lat="43.0772087" lon="13.0304883"><ele>529.0</ele><time>2026-04-05T15:57:36.424Z</time></trkpt><trkpt lat="43.0772297" lon="13.0303118"><ele>529.0</ele><time>2026-04-05T15:57:37.423Z</time></trkpt><trkpt lat="43.0772253" lon="13.0301496"><ele>529.0</ele><time>2026-04-05T15:57:38.424Z</time></trkpt><trkpt lat="43.0772056" lon="13.0300018"><ele>525.25</ele><time>2026-04-05T15:57:39.424Z</time></trkpt><trkpt lat="43.0771787" lon="13.0298515"><ele>521.5</ele><time>2026-04-05T15:57:40.424Z</time></trkpt><trkpt lat="43.0771139" lon="13.0297065"><ele>517.75</ele><time>2026-04-05T15:57:41.424Z</time></trkpt><trkpt lat="43.0770379" lon="13.0295605"><ele>514.0</ele><time>2026-04-05T15:57:42.423Z</time></trkpt><trkpt lat="43.0769581" lon="13.0293996"><ele>514.0</ele><time>2026-04-05T15:57:43.423Z</time></trkpt><trkpt lat="43.0768928" lon="13.0292209"><ele>514.0</ele><time>2026-04-05T15:57:44.423Z</time></trkpt><trkpt lat="43.0768246" lon="13.0290273"><ele>514.0</ele><time>2026-04-05T15:57:45.424Z</time></trkpt><trkpt lat="43.0767565" lon="13.028831"><ele>510.33333333333337</ele><time>2026-04-05T15:57:46.424Z</time></trkpt><trkpt lat="43.0766884" lon="13.0286246"><ele>506.66666666666663</ele><time>2026-04-05T15:57:47.424Z</time></trkpt><trkpt lat="43.0766239" lon="13.0284102"><ele>503.0</ele><time>2026-04-05T15:57:48.423Z</time></trkpt><trkpt lat="43.0765492" lon="13.028207"><ele>511.66666666666663</ele><time>2026-04-05T15:57:49.424Z</time></trkpt><trkpt lat="43.0764675" lon="13.0280002"><ele>520.3333333333334</ele><time>2026-04-05T15:57:50.424Z</time></trkpt><trkpt lat="43.0763776" lon="13.0277884"><ele>529.0</ele><time>2026-04-05T15:57:51.423Z</time></trkpt><trkpt lat="43.0762924" lon="13.027577"><ele>522.6666666666667</ele><time>2026-04-05T15:57:52.424Z</time></trkpt><trkpt lat="43.0761949" lon="13.0273601"><ele>516.3333333333334</ele><time>2026-04-05T15:57:53.423Z</time></trkpt><trkpt lat="43.0760832" lon="13.02715"><ele>510.0</ele><time>2026-04-05T15:57:54.424Z</time></trkpt><trkpt lat="43.0759834" lon="13.0269406"><ele>510.0</ele><time>2026-04-05T15:57:55.424Z</time></trkpt><trkpt lat="43.0758793" lon="13.026737"><ele>510.0</ele><time>2026-04-05T15:57:56.423Z</time></trkpt><trkpt lat="43.0757732" lon="13.0265418"><ele>510.0</ele><time>2026-04-05T15:57:57.423Z</time></trkpt><trkpt lat="43.0756707" lon="13.026365"><ele>510.33333333333337</ele><time>2026-04-05T15:57:58.423Z</time></trkpt><trkpt lat="43.0755525" lon="13.0262064"><ele>510.6666666666667</ele><time>2026-04-05T15:57:59.424Z</time></trkpt><trkpt lat="43.0754173" lon="13.0260648"><ele>511.0</ele><time>2026-04-05T15:58:00.424Z</time></trkpt><trkpt lat="43.0752847" lon="13.0259326"><ele>511.0</ele><time>2026-04-05T15:58:01.424Z</time></trkpt><trkpt lat="43.0751364" lon="13.0258092"><ele>511.0</ele><time>2026-04-05T15:58:02.424Z</time></trkpt><trkpt lat="43.0749756" lon="13.0256992"><ele>511.0</ele><time>2026-04-05T15:58:03.424Z</time></trkpt><trkpt lat="43.074813" lon="13.0255926"><ele>511.0</ele><time>2026-04-05T15:58:04.424Z</time></trkpt><trkpt lat="43.074643" lon="13.0254852"><ele>511.0</ele><time>2026-04-05T15:58:05.424Z</time></trkpt><trkpt lat="43.0744773" lon="13.0253604"><ele>511.0</ele><time>2026-04-05T15:58:06.424Z</time></trkpt><trkpt lat="43.0743074" lon="13.0252215"><ele>511.0</ele><time>2026-04-05T15:58:07.424Z</time></trkpt><trkpt lat="43.0741507" lon="13.0250866"><ele>511.0</ele><time>2026-04-05T15:58:08.424Z</time></trkpt><trkpt lat="43.0739959" lon="13.0249442"><ele>511.0</ele><time>2026-04-05T15:58:09.424Z</time></trkpt><trkpt lat="43.0738416" lon="13.0248055"><ele>511.0</ele><time>2026-04-05T15:58:10.423Z</time></trkpt><trkpt lat="43.0736905" lon="13.0246518"><ele>511.0</ele><time>2026-04-05T15:58:11.424Z</time></trkpt><trkpt lat="43.0735378" lon="13.0245015"><ele>511.0</ele><time>2026-04-05T15:58:12.424Z</time></trkpt><trkpt lat="43.0733907" lon="13.0243432"><ele>518.3333333333334</ele><time>2026-04-05T15:58:13.423Z</time></trkpt><trkpt lat="43.0732575" lon="13.0241746"><ele>525.6666666666666</ele><time>2026-04-05T15:58:14.424Z</time></trkpt><trkpt lat="43.0731392" lon="13.0240078"><ele>533.0</ele><time>2026-04-05T15:58:15.424Z</time></trkpt><trkpt lat="43.0730324" lon="13.0238423"><ele>533.0</ele><time>2026-04-05T15:58:16.424Z</time></trkpt><trkpt lat="43.0729622" lon="13.0236803"><ele>533.0</ele><time>2026-04-05T15:58:17.424Z</time></trkpt><trkpt lat="43.0728998" lon="13.0234912"><ele>533.0</ele><time>2026-04-05T15:58:18.424Z</time></trkpt><trkpt lat="43.0728446" lon="13.023284"><ele>527.6666666666666</ele><time>2026-04-05T15:58:19.423Z</time></trkpt><trkpt lat="43.072787" lon="13.0230772"><ele>522.3333333333334</ele><time>2026-04-05T15:58:20.424Z</time></trkpt><trkpt lat="43.072711" lon="13.0228892"><ele>517.0</ele><time>2026-04-05T15:58:21.424Z</time></trkpt><trkpt lat="43.0726112" lon="13.0227124"><ele>517.0</ele><time>2026-04-05T15:58:22.424Z</time></trkpt><trkpt lat="43.0725057" lon="13.0225487"><ele>517.0</ele><time>2026-04-05T15:58:23.424Z</time></trkpt><trkpt lat="43.0724039" lon="13.0223834"><ele>517.0</ele><time>2026-04-05T15:58:24.424Z</time></trkpt><trkpt lat="43.0723149" lon="13.0222146"><ele>518.25</ele><time>2026-04-05T15:58:25.424Z</time></trkpt><trkpt lat="43.0722369" lon="13.0220431"><ele>519.5</ele><time>2026-04-05T15:58:26.424Z</time></trkpt><trkpt lat="43.0721921" lon="13.0218501"><ele>520.75</ele><time>2026-04-05T15:58:27.424Z</time></trkpt><trkpt lat="43.0721437" lon="13.0216558"><ele>522.0</ele><time>2026-04-05T15:58:28.424Z</time></trkpt><trkpt lat="43.0721138" lon="13.0214604"><ele>522.0</ele><time>2026-04-05T15:58:29.424Z</time></trkpt><trkpt lat="43.0720754" lon="13.0212723"><ele>522.0</ele><time>2026-04-05T15:58:30.424Z</time></trkpt><trkpt lat="43.0720493" lon="13.0210912"><ele>522.0</ele><time>2026-04-05T15:58:31.423Z</time></trkpt><trkpt lat="43.0720088" lon="13.0209311"><ele>522.0</ele><time>2026-04-05T15:58:32.424Z</time></trkpt><trkpt lat="43.071934" lon="13.0207862"><ele>520.0</ele><time>2026-04-05T15:58:33.424Z</time></trkpt><trkpt lat="43.0718388" lon="13.0206638"><ele>518.0</ele><time>2026-04-05T15:58:34.424Z</time></trkpt><trkpt lat="43.0717283" lon="13.0205402"><ele>516.0</ele><time>2026-04-05T15:58:35.423Z</time></trkpt><trkpt lat="43.0716286" lon="13.0203958"><ele>514.0</ele><time>2026-04-05T15:58:36.424Z</time></trkpt><trkpt lat="43.0715388" lon="13.0202219"><ele>518.3333333333334</ele><time>2026-04-05T15:58:37.424Z</time></trkpt><trkpt lat="43.0714434" lon="13.0200309"><ele>522.6666666666666</ele><time>2026-04-05T15:58:38.423Z</time></trkpt><trkpt lat="43.0713551" lon="13.0198333"><ele>527.0</ele><time>2026-04-05T15:58:39.423Z</time></trkpt><trkpt lat="43.0712601" lon="13.0196299"><ele>527.0</ele><time>2026-04-05T15:58:40.424Z</time></trkpt><trkpt lat="43.0711624" lon="13.019415"><ele>527.0</ele><time>2026-04-05T15:58:41.423Z</time></trkpt><trkpt lat="43.0710646" lon="13.019203"><ele>527.0</ele><time>2026-04-05T15:58:42.423Z</time></trkpt><trkpt lat="43.0709674" lon="13.0189863"><ele>522.0</ele><time>2026-04-05T15:58:43.424Z</time></trkpt><trkpt lat="43.0708723" lon="13.0187854"><ele>517.0</ele><time>2026-04-05T15:58:44.424Z</time></trkpt><trkpt lat="43.0707803" lon="13.0185894"><ele>512.0</ele><time>2026-04-05T15:58:45.423Z</time></trkpt><trkpt lat="43.0706624" lon="13.0184351"><ele>519.3333333333333</ele><time>2026-04-05T15:58:46.424Z</time></trkpt><trkpt lat="43.0705473" lon="13.0182845"><ele>526.6666666666666</ele><time>2026-04-05T15:58:47.424Z</time></trkpt><trkpt lat="43.0704427" lon="13.0181355"><ele>534.0</ele><time>2026-04-05T15:58:48.424Z</time></trkpt><trkpt lat="43.0703293" lon="13.017988"><ele>534.0</ele><time>2026-04-05T15:58:49.424Z</time></trkpt><trkpt lat="43.0702379" lon="13.0178434"><ele>534.0</ele><time>2026-04-05T15:58:50.424Z</time></trkpt><trkpt lat="43.070142" lon="13.01768"><ele>534.0</ele><time>2026-04-05T15:58:51.424Z</time></trkpt><trkpt lat="43.0700841" lon="13.0174872"><ele>534.0</ele><time>2026-04-05T15:58:52.424Z</time></trkpt><trkpt lat="43.0700314" lon="13.0172774"><ele>530.0</ele><time>2026-04-05T15:58:53.424Z</time></trkpt><trkpt lat="43.0699841" lon="13.0170642"><ele>526.0</ele><time>2026-04-05T15:58:54.424Z</time></trkpt><trkpt lat="43.0699528" lon="13.0168291"><ele>522.0</ele><time>2026-04-05T15:58:55.424Z</time></trkpt><trkpt lat="43.0699128" lon="13.0166086"><ele>533.6666666666666</ele><time>2026-04-05T15:58:56.423Z</time></trkpt><trkpt lat="43.0698659" lon="13.0163931"><ele>545.3333333333333</ele><time>2026-04-05T15:58:57.423Z</time></trkpt><trkpt lat="43.0698142" lon="13.0161717"><ele>557.0</ele><time>2026-04-05T15:58:58.423Z</time></trkpt><trkpt lat="43.0697506" lon="13.015958"><ele>550.0</ele><time>2026-04-05T15:58:59.423Z</time></trkpt><trkpt lat="43.0696759" lon="13.0157455"><ele>543.0</ele><time>2026-04-05T15:59:00.424Z</time></trkpt><trkpt lat="43.0695971" lon="13.0155344"><ele>536.0</ele><time>2026-04-05T15:59:01.424Z</time></trkpt><trkpt lat="43.0695251" lon="13.0153201"><ele>536.0</ele><time>2026-04-05T15:59:02.424Z</time></trkpt><trkpt lat="43.0694482" lon="13.0151205"><ele>536.0</ele><time>2026-04-05T15:59:03.423Z</time></trkpt><trkpt lat="43.0693839" lon="13.0149212"><ele>536.0</ele><time>2026-04-05T15:59:04.424Z</time></trkpt><trkpt lat="43.0693268" lon="13.014705"><ele>534.3333333333333</ele><time>2026-04-05T15:59:05.424Z</time></trkpt><trkpt lat="43.0692988" lon="13.0144859"><ele>532.6666666666666</ele><time>2026-04-05T15:59:06.423Z</time></trkpt><trkpt lat="43.0692756" lon="13.0142527"><ele>531.0</ele><time>2026-04-05T15:59:07.424Z</time></trkpt><trkpt lat="43.0692657" lon="13.0140103"><ele>529.6666666666666</ele><time>2026-04-05T15:59:08.424Z</time></trkpt><trkpt lat="43.0692521" lon="13.0137632"><ele>528.3333333333333</ele><time>2026-04-05T15:59:09.424Z</time></trkpt><trkpt lat="43.0692513" lon="13.0135161"><ele>527.0</ele><time>2026-04-05T15:59:10.423Z</time></trkpt><trkpt lat="43.0692531" lon="13.0132833"><ele>527.0</ele><time>2026-04-05T15:59:11.424Z</time></trkpt><trkpt lat="43.0692841" lon="13.0130478"><ele>527.0</ele><time>2026-04-05T15:59:12.424Z</time></trkpt><trkpt lat="43.0693384" lon="13.0128258"><ele>527.0</ele><time>2026-04-05T15:59:13.424Z</time></trkpt><trkpt lat="43.0694209" lon="13.0126371"><ele>531.3333333333333</ele><time>2026-04-05T15:59:14.423Z</time></trkpt><trkpt lat="43.0695368" lon="13.0124799"><ele>535.6666666666666</ele><time>2026-04-05T15:59:15.423Z</time></trkpt><trkpt lat="43.0696533" lon="13.0123321"><ele>540.0</ele><time>2026-04-05T15:59:16.424Z</time></trkpt><trkpt lat="43.069773" lon="13.0121946"><ele>540.0</ele><time>2026-04-05T15:59:17.424Z</time></trkpt><trkpt lat="43.0698895" lon="13.0120569"><ele>540.0</ele><time>2026-04-05T15:59:18.424Z</time></trkpt><trkpt lat="43.0700098" lon="13.011923"><ele>540.0</ele><time>2026-04-05T15:59:19.424Z</time></trkpt><trkpt lat="43.07013" lon="13.0117795"><ele>537.6666666666666</ele><time>2026-04-05T15:59:20.424Z</time></trkpt><trkpt lat="43.0702526" lon="13.011622"><ele>535.3333333333333</ele><time>2026-04-05T15:59:21.423Z</time></trkpt><trkpt lat="43.0703812" lon="13.0114755"><ele>533.0</ele><time>2026-04-05T15:59:22.424Z</time></trkpt><trkpt lat="43.070509" lon="13.0113248"><ele>533.0</ele><time>2026-04-05T15:59:23.424Z</time></trkpt><trkpt lat="43.0706325" lon="13.0111635"><ele>533.0</ele><time>2026-04-05T15:59:24.424Z</time></trkpt><trkpt lat="43.0707585" lon="13.0109918"><ele>533.0</ele><time>2026-04-05T15:59:25.424Z</time></trkpt><trkpt lat="43.0708818" lon="13.0108053"><ele>540.6666666666666</ele><time>2026-04-05T15:59:26.424Z</time></trkpt><trkpt lat="43.0710058" lon="13.0106289"><ele>548.3333333333334</ele><time>2026-04-05T15:59:27.424Z</time></trkpt><trkpt lat="43.0711289" lon="13.0104518"><ele>556.0</ele><time>2026-04-05T15:59:28.424Z</time></trkpt><trkpt lat="43.0712606" lon="13.0102835"><ele>556.0</ele><time>2026-04-05T15:59:29.423Z</time></trkpt><trkpt lat="43.0714003" lon="13.0101289"><ele>556.0</ele><time>2026-04-05T15:59:30.424Z</time></trkpt><trkpt lat="43.0715395" lon="13.0099658"><ele>556.0</ele><time>2026-04-05T15:59:31.423Z</time></trkpt><trkpt lat="43.0716703" lon="13.0098105"><ele>554.6666666666667</ele><time>2026-04-05T15:59:32.423Z</time></trkpt><trkpt lat="43.0717658" lon="13.0096244"><ele>553.3333333333334</ele><time>2026-04-05T15:59:33.424Z</time></trkpt><trkpt lat="43.0718521" lon="13.009433"><ele>552.0</ele><time>2026-04-05T15:59:34.424Z</time></trkpt><trkpt lat="43.0719071" lon="13.0092203"><ele>560.3333333333334</ele><time>2026-04-05T15:59:35.424Z</time></trkpt><trkpt lat="43.0719923" lon="13.0090159"><ele>568.6666666666667</ele><time>2026-04-05T15:59:36.424Z</time></trkpt><trkpt lat="43.0720892" lon="13.0088098"><ele>577.0</ele><time>2026-04-05T15:59:37.424Z</time></trkpt><trkpt lat="43.0721988" lon="13.0086167"><ele>577.0</ele><time>2026-04-05T15:59:38.424Z</time></trkpt><trkpt lat="43.0723015" lon="13.0084148"><ele>577.0</ele><time>2026-04-05T15:59:39.424Z</time></trkpt><trkpt lat="43.0724028" lon="13.0082005"><ele>577.0</ele><time>2026-04-05T15:59:40.424Z</time></trkpt><trkpt lat="43.0725043" lon="13.0079839"><ele>575.6666666666667</ele><time>2026-04-05T15:59:41.424Z</time></trkpt><trkpt lat="43.0726131" lon="13.0077602"><ele>574.3333333333334</ele><time>2026-04-05T15:59:42.423Z</time></trkpt><trkpt lat="43.0727169" lon="13.0075298"><ele>573.0</ele><time>2026-04-05T15:59:43.424Z</time></trkpt><trkpt lat="43.0728021" lon="13.0073138"><ele>573.0</ele><time>2026-04-05T15:59:44.424Z</time></trkpt><trkpt lat="43.0729009" lon="13.0070951"><ele>573.0</ele><time>2026-04-05T15:59:45.424Z</time></trkpt><trkpt lat="43.073004" lon="13.0068835"><ele>573.0</ele><time>2026-04-05T15:59:46.424Z</time></trkpt><trkpt lat="43.0731195" lon="13.0066782"><ele>582.0</ele><time>2026-04-05T15:59:47.424Z</time></trkpt><trkpt lat="43.0732347" lon="13.0064782"><ele>591.0</ele><time>2026-04-05T15:59:48.424Z</time></trkpt><trkpt lat="43.0733341" lon="13.0062701"><ele>600.0</ele><time>2026-04-05T15:59:49.423Z</time></trkpt><trkpt lat="43.073412" lon="13.0060599"><ele>586.6666666666666</ele><time>2026-04-05T15:59:50.424Z</time></trkpt><trkpt lat="43.0734677" lon="13.0058479"><ele>573.3333333333333</ele><time>2026-04-05T15:59:51.424Z</time></trkpt><trkpt lat="43.0735283" lon="13.0056507"><ele>560.0</ele><time>2026-04-05T15:59:52.424Z</time></trkpt><trkpt lat="43.0736009" lon="13.0054542"><ele>560.0</ele><time>2026-04-05T15:59:53.424Z</time></trkpt><trkpt lat="43.0736827" lon="13.0052629"><ele>560.0</ele><time>2026-04-05T15:59:54.423Z</time></trkpt><trkpt lat="43.0737854" lon="13.0051024"><ele>560.0</ele><time>2026-04-05T15:59:55.424Z</time></trkpt><trkpt lat="43.0738935" lon="13.0049622"><ele>557.75</ele><time>2026-04-05T15:59:56.423Z</time></trkpt><trkpt lat="43.0740048" lon="13.0048276"><ele>555.5</ele><time>2026-04-05T15:59:57.424Z</time></trkpt><trkpt lat="43.074112" lon="13.0047105"><ele>553.25</ele><time>2026-04-05T15:59:58.424Z</time></trkpt><trkpt lat="43.0742105" lon="13.0045658"><ele>551.0</ele><time>2026-04-05T15:59:59.424Z</time></trkpt><trkpt lat="43.074291" lon="13.0043906"><ele>551.0</ele><time>2026-04-05T16:00:00.423Z</time></trkpt><trkpt lat="43.0743679" lon="13.0042092"><ele>551.0</ele><time>2026-04-05T16:00:01.424Z</time></trkpt><trkpt lat="43.0744457" lon="13.004026"><ele>551.0</ele><time>2026-04-05T16:00:02.424Z</time></trkpt><trkpt lat="43.0745175" lon="13.0038415"><ele>554.25</ele><time>2026-04-05T16:00:03.423Z</time></trkpt><trkpt lat="43.0745886" lon="13.0036524"><ele>557.5</ele><time>2026-04-05T16:00:04.424Z</time></trkpt><trkpt lat="43.0746601" lon="13.0034834"><ele>560.75</ele><time>2026-04-05T16:00:05.423Z</time></trkpt><trkpt lat="43.0747244" lon="13.0033215"><ele>564.0</ele><time>2026-04-05T16:00:06.424Z</time></trkpt><trkpt lat="43.0747734" lon="13.0031762"><ele>564.0</ele><time>2026-04-05T16:00:07.423Z</time></trkpt><trkpt lat="43.0748222" lon="13.0030405"><ele>564.0</ele><time>2026-04-05T16:00:08.424Z</time></trkpt><trkpt lat="43.0748657" lon="13.0029042"><ele>564.0</ele><time>2026-04-05T16:00:09.423Z</time></trkpt><trkpt lat="43.0749071" lon="13.0027824"><ele>564.0</ele><time>2026-04-05T16:00:10.424Z</time></trkpt><trkpt lat="43.0749451" lon="13.0026675"><ele>564.0</ele><time>2026-04-05T16:00:11.424Z</time></trkpt><trkpt lat="43.0749879" lon="13.0025703"><ele>563.6666666666666</ele><time>2026-04-05T16:00:12.424Z</time></trkpt><trkpt lat="43.0750274" lon="13.0024928"><ele>563.3333333333334</ele><time>2026-04-05T16:00:13.424Z</time></trkpt><trkpt lat="43.0750959" lon="13.0023849"><ele>563.0</ele><time>2026-04-05T16:00:15.424Z</time></trkpt><trkpt lat="43.0751616" lon="13.0023078"><ele>562.6666666666667</ele><time>2026-04-05T16:00:18.424Z</time></trkpt><trkpt lat="43.0752135" lon="13.0022572"><ele>562.3333333333334</ele><time>2026-04-05T16:00:29.423Z</time></trkpt><trkpt lat="43.0752607" lon="13.0021442"><ele>562.0</ele><time>2026-04-05T16:00:41.424Z</time></trkpt><trkpt lat="43.0753105" lon="13.0020744"><ele>562.0</ele><time>2026-04-05T16:00:42.424Z</time></trkpt><trkpt lat="43.0753688" lon="13.0019971"><ele>562.0</ele><time>2026-04-05T16:00:43.424Z</time></trkpt><trkpt lat="43.0754289" lon="13.0019128"><ele>562.0</ele><time>2026-04-05T16:00:44.423Z</time></trkpt><trkpt lat="43.0754895" lon="13.0018289"><ele>562.0</ele><time>2026-04-05T16:00:45.424Z</time></trkpt><trkpt lat="43.0755562" lon="13.0017355"><ele>562.0</ele><time>2026-04-05T16:00:46.424Z</time></trkpt><trkpt lat="43.0756251" lon="13.0016382"><ele>562.0</ele><time>2026-04-05T16:00:47.424Z</time></trkpt><trkpt lat="43.0756951" lon="13.0015438"><ele>563.6</ele><time>2026-04-05T16:00:48.424Z</time></trkpt><trkpt lat="43.0757616" lon="13.0014431"><ele>565.2</ele><time>2026-04-05T16:00:49.423Z</time></trkpt><trkpt lat="43.0758249" lon="13.0013318"><ele>566.8</ele><time>2026-04-05T16:00:50.424Z</time></trkpt><trkpt lat="43.0759056" lon="13.0012247"><ele>568.4</ele><time>2026-04-05T16:00:51.424Z</time></trkpt><trkpt lat="43.0759683" lon="13.0011013"><ele>570.0</ele><time>2026-04-05T16:00:52.424Z</time></trkpt><trkpt lat="43.0760203" lon="13.0009653"><ele>567.25</ele><time>2026-04-05T16:00:53.424Z</time></trkpt><trkpt lat="43.0760577" lon="13.0008064"><ele>564.5</ele><time>2026-04-05T16:00:54.423Z</time></trkpt><trkpt lat="43.0760881" lon="13.000628"><ele>561.75</ele><time>2026-04-05T16:00:55.424Z</time></trkpt><trkpt lat="43.0761039" lon="13.0004253"><ele>559.0</ele><time>2026-04-05T16:00:56.424Z</time></trkpt><trkpt lat="43.076103" lon="13.0002209"><ele>559.0</ele><time>2026-04-05T16:00:57.424Z</time></trkpt><trkpt lat="43.0760945" lon="13.00001"><ele>559.0</ele><time>2026-04-05T16:00:58.423Z</time></trkpt><trkpt lat="43.0761085" lon="12.9997997"><ele>559.0</ele><time>2026-04-05T16:00:59.424Z</time></trkpt><trkpt lat="43.0761489" lon="12.9995903"><ele>559.0</ele><time>2026-04-05T16:01:00.423Z</time></trkpt><trkpt lat="43.0761993" lon="12.9993777"><ele>559.0</ele><time>2026-04-05T16:01:01.424Z</time></trkpt><trkpt lat="43.0762526" lon="12.9991545"><ele>559.0</ele><time>2026-04-05T16:01:02.424Z</time></trkpt><trkpt lat="43.0762951" lon="12.9989364"><ele>560.6666666666667</ele><time>2026-04-05T16:01:03.424Z</time></trkpt><trkpt lat="43.0763335" lon="12.9987153"><ele>562.3333333333334</ele><time>2026-04-05T16:01:04.424Z</time></trkpt><trkpt lat="43.0763614" lon="12.9984847"><ele>564.0</ele><time>2026-04-05T16:01:05.424Z</time></trkpt><trkpt lat="43.0763618" lon="12.9982508"><ele>565.3333333333334</ele><time>2026-04-05T16:01:06.424Z</time></trkpt><trkpt lat="43.0763399" lon="12.9980196"><ele>566.6666666666667</ele><time>2026-04-05T16:01:07.424Z</time></trkpt><trkpt lat="43.0763114" lon="12.9977842"><ele>568.0</ele><time>2026-04-05T16:01:08.424Z</time></trkpt><trkpt lat="43.0762796" lon="12.9975456"><ele>569.3333333333334</ele><time>2026-04-05T16:01:09.424Z</time></trkpt><trkpt lat="43.0762606" lon="12.9973107"><ele>570.6666666666666</ele><time>2026-04-05T16:01:10.423Z</time></trkpt><trkpt lat="43.0762517" lon="12.997075"><ele>572.0</ele><time>2026-04-05T16:01:11.424Z</time></trkpt><trkpt lat="43.0762628" lon="12.9968442"><ele>572.6666666666666</ele><time>2026-04-05T16:01:12.424Z</time></trkpt><trkpt lat="43.076277" lon="12.9966119"><ele>573.3333333333334</ele><time>2026-04-05T16:01:13.424Z</time></trkpt><trkpt lat="43.0763038" lon="12.9963796"><ele>574.0</ele><time>2026-04-05T16:01:14.424Z</time></trkpt><trkpt lat="43.0763453" lon="12.9961526"><ele>574.0</ele><time>2026-04-05T16:01:15.424Z</time></trkpt><trkpt lat="43.0764026" lon="12.9959263"><ele>574.0</ele><time>2026-04-05T16:01:16.424Z</time></trkpt><trkpt lat="43.0764663" lon="12.9956994"><ele>574.0</ele><time>2026-04-05T16:01:17.424Z</time></trkpt><trkpt lat="43.0765275" lon="12.9954723"><ele>572.0</ele><time>2026-04-05T16:01:18.424Z</time></trkpt><trkpt lat="43.0766058" lon="12.9952536"><ele>570.0</ele><time>2026-04-05T16:01:19.424Z</time></trkpt><trkpt lat="43.0766713" lon="12.9950443"><ele>568.0</ele><time>2026-04-05T16:01:20.424Z</time></trkpt><trkpt lat="43.0767376" lon="12.9948444"><ele>568.0</ele><time>2026-04-05T16:01:21.424Z</time></trkpt><trkpt lat="43.0767953" lon="12.9946387"><ele>568.0</ele><time>2026-04-05T16:01:22.424Z</time></trkpt><trkpt lat="43.0768248" lon="12.9944391"><ele>568.0</ele><time>2026-04-05T16:01:23.424Z</time></trkpt><trkpt lat="43.0768264" lon="12.9942493"><ele>568.0</ele><time>2026-04-05T16:01:24.424Z</time></trkpt><trkpt lat="43.0768111" lon="12.9940495"><ele>568.6666666666667</ele><time>2026-04-05T16:01:25.423Z</time></trkpt><trkpt lat="43.0767802" lon="12.993841"><ele>569.3333333333334</ele><time>2026-04-05T16:01:26.424Z</time></trkpt><trkpt lat="43.0767359" lon="12.9936333"><ele>570.0</ele><time>2026-04-05T16:01:27.424Z</time></trkpt><trkpt lat="43.0766901" lon="12.9934237"><ele>569.3333333333334</ele><time>2026-04-05T16:01:28.424Z</time></trkpt><trkpt lat="43.076632" lon="12.9932153"><ele>568.6666666666667</ele><time>2026-04-05T16:01:29.423Z</time></trkpt><trkpt lat="43.076573" lon="12.9930135"><ele>568.0</ele><time>2026-04-05T16:01:30.424Z</time></trkpt><trkpt lat="43.0765205" lon="12.9928136"><ele>577.3333333333334</ele><time>2026-04-05T16:01:31.424Z</time></trkpt><trkpt lat="43.0764853" lon="12.9926072"><ele>586.6666666666666</ele><time>2026-04-05T16:01:32.424Z</time></trkpt><trkpt lat="43.0764749" lon="12.9923843"><ele>596.0</ele><time>2026-04-05T16:01:33.424Z</time></trkpt><trkpt lat="43.0764599" lon="12.9921599"><ele>596.3333333333333</ele><time>2026-04-05T16:01:34.424Z</time></trkpt><trkpt lat="43.0764594" lon="12.9919297"><ele>596.6666666666666</ele><time>2026-04-05T16:01:35.424Z</time></trkpt><trkpt lat="43.0764629" lon="12.9917051"><ele>597.0</ele><time>2026-04-05T16:01:36.424Z</time></trkpt><trkpt lat="43.0764631" lon="12.9915025"><ele>597.75</ele><time>2026-04-05T16:01:37.424Z</time></trkpt><trkpt lat="43.0764711" lon="12.9912977"><ele>598.5</ele><time>2026-04-05T16:01:38.424Z</time></trkpt><trkpt lat="43.076493" lon="12.9911145"><ele>599.25</ele><time>2026-04-05T16:01:39.424Z</time></trkpt><trkpt lat="43.0765336" lon="12.990957"><ele>600.0</ele><time>2026-04-05T16:01:40.423Z</time></trkpt><trkpt lat="43.0766012" lon="12.9908385"><ele>592.75</ele><time>2026-04-05T16:01:41.424Z</time></trkpt><trkpt lat="43.0766745" lon="12.9907384"><ele>585.5</ele><time>2026-04-05T16:01:42.424Z</time></trkpt><trkpt lat="43.0767452" lon="12.9906278"><ele>578.25</ele><time>2026-04-05T16:01:43.424Z</time></trkpt><trkpt lat="43.0768" lon="12.9904856"><ele>571.0</ele><time>2026-04-05T16:01:44.423Z</time></trkpt><trkpt lat="43.0768334" lon="12.990322"><ele>571.0</ele><time>2026-04-05T16:01:45.424Z</time></trkpt><trkpt lat="43.0768616" lon="12.9901405"><ele>571.0</ele><time>2026-04-05T16:01:46.424Z</time></trkpt><trkpt lat="43.0768639" lon="12.9899365"><ele>571.0</ele><time>2026-04-05T16:01:47.424Z</time></trkpt><trkpt lat="43.0768672" lon="12.9897244"><ele>571.0</ele><time>2026-04-05T16:01:48.424Z</time></trkpt><trkpt lat="43.0768724" lon="12.989488"><ele>571.6666666666667</ele><time>2026-04-05T16:01:49.424Z</time></trkpt><trkpt lat="43.0768712" lon="12.989251"><ele>572.3333333333334</ele><time>2026-04-05T16:01:50.423Z</time></trkpt><trkpt lat="43.0768831" lon="12.9890197"><ele>573.0</ele><time>2026-04-05T16:01:51.424Z</time></trkpt><trkpt lat="43.0768968" lon="12.9887916"><ele>573.6666666666666</ele><time>2026-04-05T16:01:52.423Z</time></trkpt><trkpt lat="43.0769137" lon="12.9885575"><ele>574.3333333333333</ele><time>2026-04-05T16:01:53.424Z</time></trkpt><trkpt lat="43.0769315" lon="12.9883316"><ele>575.0</ele><time>2026-04-05T16:01:54.424Z</time></trkpt><trkpt lat="43.0769437" lon="12.9881022"><ele>575.0</ele><time>2026-04-05T16:01:55.424Z</time></trkpt><trkpt lat="43.0769618" lon="12.9878736"><ele>575.0</ele><time>2026-04-05T16:01:56.424Z</time></trkpt><trkpt lat="43.0769789" lon="12.9876541"><ele>575.0</ele><time>2026-04-05T16:01:57.424Z</time></trkpt><trkpt lat="43.0770087" lon="12.9874381"><ele>576.6666666666666</ele><time>2026-04-05T16:01:58.424Z</time></trkpt><trkpt lat="43.0770573" lon="12.9872299"><ele>578.3333333333334</ele><time>2026-04-05T16:01:59.424Z</time></trkpt><trkpt lat="43.0771055" lon="12.9870269"><ele>580.0</ele><time>2026-04-05T16:02:00.424Z</time></trkpt><trkpt lat="43.0771592" lon="12.9868252"><ele>581.75</ele><time>2026-04-05T16:02:01.424Z</time></trkpt><trkpt lat="43.0771855" lon="12.9866097"><ele>583.5</ele><time>2026-04-05T16:02:02.424Z</time></trkpt><trkpt lat="43.0771953" lon="12.9864121"><ele>585.25</ele><time>2026-04-05T16:02:03.424Z</time></trkpt><trkpt lat="43.0771908" lon="12.986217"><ele>587.0</ele><time>2026-04-05T16:02:04.424Z</time></trkpt><trkpt lat="43.0771833" lon="12.9860127"><ele>588.3333333333333</ele><time>2026-04-05T16:02:05.424Z</time></trkpt><trkpt lat="43.0771607" lon="12.9858005"><ele>589.6666666666666</ele><time>2026-04-05T16:02:06.423Z</time></trkpt><trkpt lat="43.0771304" lon="12.9855942"><ele>591.0</ele><time>2026-04-05T16:02:07.424Z</time></trkpt><trkpt lat="43.0770793" lon="12.9853969"><ele>591.0</ele><time>2026-04-05T16:02:08.424Z</time></trkpt><trkpt lat="43.0770143" lon="12.9852081"><ele>591.0</ele><time>2026-04-05T16:02:09.423Z</time></trkpt><trkpt lat="43.0769231" lon="12.9850203"><ele>591.0</ele><time>2026-04-05T16:02:10.423Z</time></trkpt><trkpt lat="43.0768239" lon="12.9848449"><ele>591.5</ele><time>2026-04-05T16:02:11.424Z</time></trkpt><trkpt lat="43.0767201" lon="12.9846776"><ele>592.0</ele><time>2026-04-05T16:02:12.424Z</time></trkpt><trkpt lat="43.0766255" lon="12.984531"><ele>592.5</ele><time>2026-04-05T16:02:13.424Z</time></trkpt><trkpt lat="43.0765422" lon="12.9843803"><ele>593.0</ele><time>2026-04-05T16:02:14.424Z</time></trkpt><trkpt lat="43.0764823" lon="12.9842301"><ele>599.25</ele><time>2026-04-05T16:02:15.424Z</time></trkpt><trkpt lat="43.0764327" lon="12.9840765"><ele>605.5</ele><time>2026-04-05T16:02:16.423Z</time></trkpt><trkpt lat="43.07641" lon="12.9839109"><ele>611.75</ele><time>2026-04-05T16:02:17.424Z</time></trkpt><trkpt lat="43.0764119" lon="12.9837462"><ele>618.0</ele><time>2026-04-05T16:02:18.424Z</time></trkpt><trkpt lat="43.0764182" lon="12.9835799"><ele>618.0</ele><time>2026-04-05T16:02:19.424Z</time></trkpt><trkpt lat="43.0764473" lon="12.9834137"><ele>618.0</ele><time>2026-04-05T16:02:20.424Z</time></trkpt><trkpt lat="43.0764809" lon="12.9832328"><ele>618.0</ele><time>2026-04-05T16:02:21.423Z</time></trkpt><trkpt lat="43.0765214" lon="12.9830441"><ele>618.0</ele><time>2026-04-05T16:02:22.424Z</time></trkpt><trkpt lat="43.0765439" lon="12.9828479"><ele>616.0</ele><time>2026-04-05T16:02:23.424Z</time></trkpt><trkpt lat="43.0765557" lon="12.9826497"><ele>614.0</ele><time>2026-04-05T16:02:24.423Z</time></trkpt><trkpt lat="43.0765394" lon="12.9824524"><ele>612.0</ele><time>2026-04-05T16:02:25.423Z</time></trkpt><trkpt lat="43.0765137" lon="12.9822533"><ele>610.0</ele><time>2026-04-05T16:02:26.424Z</time></trkpt><trkpt lat="43.0765121" lon="12.9820685"><ele>607.5</ele><time>2026-04-05T16:02:27.424Z</time></trkpt><trkpt lat="43.0765163" lon="12.9818811"><ele>605.0</ele><time>2026-04-05T16:02:28.424Z</time></trkpt><trkpt lat="43.0765248" lon="12.981702"><ele>602.5</ele><time>2026-04-05T16:02:29.424Z</time></trkpt><trkpt lat="43.0765478" lon="12.981514"><ele>600.0</ele><time>2026-04-05T16:02:30.424Z</time></trkpt><trkpt lat="43.0765658" lon="12.9813241"><ele>599.25</ele><time>2026-04-05T16:02:31.424Z</time></trkpt><trkpt lat="43.0765605" lon="12.981131"><ele>598.5</ele><time>2026-04-05T16:02:32.424Z</time></trkpt><trkpt lat="43.0765352" lon="12.9809378"><ele>597.75</ele><time>2026-04-05T16:02:33.423Z</time></trkpt><trkpt lat="43.0765031" lon="12.980762"><ele>597.0</ele><time>2026-04-05T16:02:34.424Z</time></trkpt><trkpt lat="43.076437" lon="12.980577"><ele>596.3333333333334</ele><time>2026-04-05T16:02:35.424Z</time></trkpt><trkpt lat="43.0763643" lon="12.9803835"><ele>595.6666666666667</ele><time>2026-04-05T16:02:36.423Z</time></trkpt><trkpt lat="43.0762707" lon="12.9801895"><ele>595.0</ele><time>2026-04-05T16:02:37.424Z</time></trkpt><trkpt lat="43.0761625" lon="12.9800406"><ele>594.3333333333334</ele><time>2026-04-05T16:02:38.424Z</time></trkpt><trkpt lat="43.0760532" lon="12.9798762"><ele>593.6666666666666</ele><time>2026-04-05T16:02:39.423Z</time></trkpt><trkpt lat="43.0759471" lon="12.9797314"><ele>593.0</ele><time>2026-04-05T16:02:40.423Z</time></trkpt><trkpt lat="43.0758284" lon="12.9795929"><ele>596.0</ele><time>2026-04-05T16:02:41.424Z</time></trkpt><trkpt lat="43.0757235" lon="12.9794417"><ele>599.0</ele><time>2026-04-05T16:02:42.423Z</time></trkpt><trkpt lat="43.0756285" lon="12.979286"><ele>602.0</ele><time>2026-04-05T16:02:43.423Z</time></trkpt><trkpt lat="43.0755387" lon="12.9791194"><ele>602.0</ele><time>2026-04-05T16:02:44.424Z</time></trkpt><trkpt lat="43.0754482" lon="12.9789582"><ele>602.0</ele><time>2026-04-05T16:02:45.424Z</time></trkpt><trkpt lat="43.0753754" lon="12.9787842"><ele>602.0</ele><time>2026-04-05T16:02:46.423Z</time></trkpt><trkpt lat="43.0752943" lon="12.9786061"><ele>602.0</ele><time>2026-04-05T16:02:47.424Z</time></trkpt><trkpt lat="43.0752246" lon="12.9784265"><ele>600.0</ele><time>2026-04-05T16:02:48.424Z</time></trkpt><trkpt lat="43.0751533" lon="12.9782453"><ele>598.0</ele><time>2026-04-05T16:02:49.423Z</time></trkpt><trkpt lat="43.0750837" lon="12.9780592"><ele>596.0</ele><time>2026-04-05T16:02:50.423Z</time></trkpt><trkpt lat="43.0750125" lon="12.9778714"><ele>596.0</ele><time>2026-04-05T16:02:51.424Z</time></trkpt><trkpt lat="43.0749431" lon="12.9776859"><ele>596.0</ele><time>2026-04-05T16:02:52.424Z</time></trkpt><trkpt lat="43.0748709" lon="12.9775035"><ele>596.0</ele><time>2026-04-05T16:02:53.423Z</time></trkpt><trkpt lat="43.0748016" lon="12.9773285"><ele>596.0</ele><time>2026-04-05T16:02:54.424Z</time></trkpt><trkpt lat="43.0747303" lon="12.9771572"><ele>597.75</ele><time>2026-04-05T16:02:55.423Z</time></trkpt><trkpt lat="43.0746547" lon="12.9769846"><ele>599.5</ele><time>2026-04-05T16:02:56.423Z</time></trkpt><trkpt lat="43.0745837" lon="12.9768099"><ele>601.25</ele><time>2026-04-05T16:02:57.424Z</time></trkpt><trkpt lat="43.0745181" lon="12.9766242"><ele>603.0</ele><time>2026-04-05T16:02:58.423Z</time></trkpt><trkpt lat="43.0744456" lon="12.9764399"><ele>603.0</ele><time>2026-04-05T16:02:59.424Z</time></trkpt><trkpt lat="43.0743838" lon="12.9762418"><ele>603.0</ele><time>2026-04-05T16:03:00.423Z</time></trkpt><trkpt lat="43.0743355" lon="12.9760393"><ele>603.0</ele><time>2026-04-05T16:03:01.424Z</time></trkpt><trkpt lat="43.0742927" lon="12.9758278"><ele>602.0</ele><time>2026-04-05T16:03:02.424Z</time></trkpt><trkpt lat="43.0742554" lon="12.9756168"><ele>601.0</ele><time>2026-04-05T16:03:03.424Z</time></trkpt><trkpt lat="43.0742341" lon="12.9753941"><ele>600.0</ele><time>2026-04-05T16:03:04.424Z</time></trkpt><trkpt lat="43.0742209" lon="12.9751796"><ele>600.3333333333334</ele><time>2026-04-05T16:03:05.424Z</time></trkpt><trkpt lat="43.0742161" lon="12.974954"><ele>600.6666666666667</ele><time>2026-04-05T16:03:06.424Z</time></trkpt><trkpt lat="43.074232" lon="12.9747309"><ele>601.0</ele><time>2026-04-05T16:03:07.424Z</time></trkpt><trkpt lat="43.0742548" lon="12.9745106"><ele>601.0</ele><time>2026-04-05T16:03:08.424Z</time></trkpt><trkpt lat="43.0742981" lon="12.9742976"><ele>601.0</ele><time>2026-04-05T16:03:09.424Z</time></trkpt><trkpt lat="43.0743415" lon="12.974078"><ele>601.0</ele><time>2026-04-05T16:03:10.424Z</time></trkpt><trkpt lat="43.0743968" lon="12.9738544"><ele>601.6666666666667</ele><time>2026-04-05T16:03:11.424Z</time></trkpt><trkpt lat="43.0744574" lon="12.9736322"><ele>602.3333333333334</ele><time>2026-04-05T16:03:12.423Z</time></trkpt><trkpt lat="43.0745265" lon="12.9734069"><ele>603.0</ele><time>2026-04-05T16:03:13.423Z</time></trkpt><trkpt lat="43.0745976" lon="12.9731793"><ele>603.6666666666666</ele><time>2026-04-05T16:03:14.424Z</time></trkpt><trkpt lat="43.0746696" lon="12.9729519"><ele>604.3333333333333</ele><time>2026-04-05T16:03:15.424Z</time></trkpt><trkpt lat="43.0747434" lon="12.9727407"><ele>605.0</ele><time>2026-04-05T16:03:16.424Z</time></trkpt><trkpt lat="43.0748189" lon="12.9725298"><ele>607.0</ele><time>2026-04-05T16:03:17.424Z</time></trkpt><trkpt lat="43.0748855" lon="12.9723443"><ele>609.0</ele><time>2026-04-05T16:03:18.424Z</time></trkpt><trkpt lat="43.0749409" lon="12.972202"><ele>611.0</ele><time>2026-04-05T16:03:19.424Z</time></trkpt><trkpt lat="43.0750017" lon="12.9720578"><ele>613.0</ele><time>2026-04-05T16:03:20.423Z</time></trkpt><trkpt lat="43.0750548" lon="12.9719579"><ele>611.0</ele><time>2026-04-05T16:03:21.423Z</time></trkpt><trkpt lat="43.0751225" lon="12.9718898"><ele>609.0</ele><time>2026-04-05T16:03:22.424Z</time></trkpt><trkpt lat="43.0751969" lon="12.971839"><ele>607.0</ele><time>2026-04-05T16:03:23.424Z</time></trkpt><trkpt lat="43.0752683" lon="12.9717711"><ele>605.0</ele><time>2026-04-05T16:03:24.424Z</time></trkpt><trkpt lat="43.0753177" lon="12.9716976"><ele>603.0</ele><time>2026-04-05T16:03:25.424Z</time></trkpt><trkpt lat="43.0753342" lon="12.971606"><ele>601.0</ele><time>2026-04-05T16:03:26.424Z</time></trkpt><trkpt lat="43.0753288" lon="12.97151"><ele>601.0</ele><time>2026-04-05T16:03:27.424Z</time></trkpt><trkpt lat="43.0753221" lon="12.9714075"><ele>601.0</ele><time>2026-04-05T16:03:28.424Z</time></trkpt><trkpt lat="43.0753286" lon="12.9712848"><ele>601.0</ele><time>2026-04-05T16:03:29.423Z</time></trkpt><trkpt lat="43.0754056" lon="12.9711779"><ele>601.0</ele><time>2026-04-05T16:03:30.424Z</time></trkpt><trkpt lat="43.0754555" lon="12.9710408"><ele>601.0</ele><time>2026-04-05T16:03:31.423Z</time></trkpt><trkpt lat="43.0755267" lon="12.9709078"><ele>600.0</ele><time>2026-04-05T16:03:32.424Z</time></trkpt><trkpt lat="43.0755966" lon="12.9707787"><ele>599.0</ele><time>2026-04-05T16:03:33.424Z</time></trkpt><trkpt lat="43.0756613" lon="12.9706379"><ele>598.0</ele><time>2026-04-05T16:03:34.424Z</time></trkpt><trkpt lat="43.0757302" lon="12.970488"><ele>597.0</ele><time>2026-04-05T16:03:35.424Z</time></trkpt><trkpt lat="43.0758004" lon="12.970324"><ele>597.0</ele><time>2026-04-05T16:03:36.423Z</time></trkpt><trkpt lat="43.0758786" lon="12.9701587"><ele>597.0</ele><time>2026-04-05T16:03:37.424Z</time></trkpt><trkpt lat="43.0759594" lon="12.9699864"><ele>597.0</ele><time>2026-04-05T16:03:38.423Z</time></trkpt><trkpt lat="43.0760453" lon="12.969807"><ele>596.6666666666666</ele><time>2026-04-05T16:03:39.424Z</time></trkpt><trkpt lat="43.0761316" lon="12.9696335"><ele>596.3333333333333</ele><time>2026-04-05T16:03:40.424Z</time></trkpt><trkpt lat="43.076211" lon="12.9694557"><ele>596.0</ele><time>2026-04-05T16:03:41.424Z</time></trkpt><trkpt lat="43.0762961" lon="12.9692757"><ele>597.3333333333333</ele><time>2026-04-05T16:03:42.424Z</time></trkpt><trkpt lat="43.0763815" lon="12.969083"><ele>598.6666666666666</ele><time>2026-04-05T16:03:43.424Z</time></trkpt><trkpt lat="43.0764672" lon="12.9688926"><ele>600.0</ele><time>2026-04-05T16:03:44.424Z</time></trkpt><trkpt lat="43.076564" lon="12.9686859"><ele>602.3333333333334</ele><time>2026-04-05T16:03:45.424Z</time></trkpt><trkpt lat="43.0766587" lon="12.9684957"><ele>604.6666666666667</ele><time>2026-04-05T16:03:46.424Z</time></trkpt><trkpt lat="43.0767401" lon="12.9682893"><ele>607.0</ele><time>2026-04-05T16:03:47.423Z</time></trkpt><trkpt lat="43.0768284" lon="12.9680874"><ele>607.3333333333334</ele><time>2026-04-05T16:03:48.423Z</time></trkpt><trkpt lat="43.0769008" lon="12.9678807"><ele>607.6666666666666</ele><time>2026-04-05T16:03:49.423Z</time></trkpt><trkpt lat="43.0769669" lon="12.9676725"><ele>608.0</ele><time>2026-04-05T16:03:50.424Z</time></trkpt><trkpt lat="43.0770208" lon="12.9674605"><ele>608.0</ele><time>2026-04-05T16:03:51.424Z</time></trkpt><trkpt lat="43.0770649" lon="12.9672391"><ele>608.0</ele><time>2026-04-05T16:03:52.424Z</time></trkpt><trkpt lat="43.0770997" lon="12.9670117"><ele>608.0</ele><time>2026-04-05T16:03:53.423Z</time></trkpt><trkpt lat="43.0771318" lon="12.9667801"><ele>608.3333333333333</ele><time>2026-04-05T16:03:54.424Z</time></trkpt><trkpt lat="43.077167" lon="12.9665409"><ele>608.6666666666666</ele><time>2026-04-05T16:03:55.423Z</time></trkpt><trkpt lat="43.0772017" lon="12.9663015"><ele>609.0</ele><time>2026-04-05T16:03:56.424Z</time></trkpt><trkpt lat="43.0772377" lon="12.9660634"><ele>610.0</ele><time>2026-04-05T16:03:57.424Z</time></trkpt><trkpt lat="43.077273" lon="12.9658327"><ele>611.0</ele><time>2026-04-05T16:03:58.424Z</time></trkpt><trkpt lat="43.0773148" lon="12.965598"><ele>612.0</ele><time>2026-04-05T16:03:59.424Z</time></trkpt><trkpt lat="43.0773589" lon="12.9653685"><ele>612.0</ele><time>2026-04-05T16:04:00.424Z</time></trkpt><trkpt lat="43.0774067" lon="12.9651543"><ele>612.0</ele><time>2026-04-05T16:04:01.424Z</time></trkpt><trkpt lat="43.0774564" lon="12.9649309"><ele>612.0</ele><time>2026-04-05T16:04:02.423Z</time></trkpt><trkpt lat="43.0774902" lon="12.9646994"><ele>613.6666666666666</ele><time>2026-04-05T16:04:03.424Z</time></trkpt><trkpt lat="43.0775232" lon="12.9644865"><ele>615.3333333333333</ele><time>2026-04-05T16:04:04.424Z</time></trkpt><trkpt lat="43.0775462" lon="12.9642778"><ele>617.0</ele><time>2026-04-05T16:04:05.424Z</time></trkpt><trkpt lat="43.07754" lon="12.9640759"><ele>618.0</ele><time>2026-04-05T16:04:06.424Z</time></trkpt><trkpt lat="43.0775194" lon="12.9638716"><ele>619.0</ele><time>2026-04-05T16:04:07.424Z</time></trkpt><trkpt lat="43.0774838" lon="12.9636459"><ele>620.0</ele><time>2026-04-05T16:04:08.424Z</time></trkpt><trkpt lat="43.0774298" lon="12.9634241"><ele>618.6666666666666</ele><time>2026-04-05T16:04:09.424Z</time></trkpt><trkpt lat="43.0773647" lon="12.9631973"><ele>617.3333333333334</ele><time>2026-04-05T16:04:10.424Z</time></trkpt><trkpt lat="43.0772957" lon="12.9629853"><ele>616.0</ele><time>2026-04-05T16:04:11.424Z</time></trkpt><trkpt lat="43.077214" lon="12.9627731"><ele>616.0</ele><time>2026-04-05T16:04:12.423Z</time></trkpt><trkpt lat="43.0771444" lon="12.9625501"><ele>616.0</ele><time>2026-04-05T16:04:13.424Z</time></trkpt><trkpt lat="43.0770947" lon="12.9623232"><ele>616.0</ele><time>2026-04-05T16:04:14.424Z</time></trkpt><trkpt lat="43.077047" lon="12.9621049"><ele>616.0</ele><time>2026-04-05T16:04:15.424Z</time></trkpt><trkpt lat="43.076987" lon="12.9618939"><ele>616.0</ele><time>2026-04-05T16:04:16.424Z</time></trkpt><trkpt lat="43.0769154" lon="12.9616892"><ele>616.0</ele><time>2026-04-05T16:04:17.424Z</time></trkpt><trkpt lat="43.0768339" lon="12.9614793"><ele>616.0</ele><time>2026-04-05T16:04:18.424Z</time></trkpt><trkpt lat="43.0767259" lon="12.9612801"><ele>616.0</ele><time>2026-04-05T16:04:19.423Z</time></trkpt><trkpt lat="43.076621" lon="12.9610892"><ele>616.0</ele><time>2026-04-05T16:04:20.424Z</time></trkpt><trkpt lat="43.0765253" lon="12.9609022"><ele>617.6666666666667</ele><time>2026-04-05T16:04:21.424Z</time></trkpt><trkpt lat="43.0764285" lon="12.9607202"><ele>619.3333333333334</ele><time>2026-04-05T16:04:22.424Z</time></trkpt><trkpt lat="43.0763349" lon="12.9605474"><ele>621.0</ele><time>2026-04-05T16:04:23.424Z</time></trkpt><trkpt lat="43.0762561" lon="12.960374"><ele>621.0</ele><time>2026-04-05T16:04:24.424Z</time></trkpt><trkpt lat="43.0761988" lon="12.9602213"><ele>621.0</ele><time>2026-04-05T16:04:25.424Z</time></trkpt><trkpt lat="43.0761478" lon="12.9600596"><ele>621.0</ele><time>2026-04-05T16:04:26.423Z</time></trkpt><trkpt lat="43.0761068" lon="12.9599088"><ele>621.0</ele><time>2026-04-05T16:04:27.424Z</time></trkpt><trkpt lat="43.076091" lon="12.959759"><ele>622.5</ele><time>2026-04-05T16:04:28.423Z</time></trkpt><trkpt lat="43.0760828" lon="12.9596123"><ele>624.0</ele><time>2026-04-05T16:04:29.424Z</time></trkpt><trkpt lat="43.0760785" lon="12.9594543"><ele>625.5</ele><time>2026-04-05T16:04:30.424Z</time></trkpt><trkpt lat="43.0760879" lon="12.9592952"><ele>627.0</ele><time>2026-04-05T16:04:31.424Z</time></trkpt><trkpt lat="43.076098" lon="12.9591246"><ele>627.75</ele><time>2026-04-05T16:04:32.424Z</time></trkpt><trkpt lat="43.076114" lon="12.9589511"><ele>628.5</ele><time>2026-04-05T16:04:33.424Z</time></trkpt><trkpt lat="43.0761351" lon="12.9587692"><ele>629.25</ele><time>2026-04-05T16:04:34.423Z</time></trkpt><trkpt lat="43.0761535" lon="12.958587"><ele>630.0</ele><time>2026-04-05T16:04:35.423Z</time></trkpt><trkpt lat="43.0761707" lon="12.9584029"><ele>629.75</ele><time>2026-04-05T16:04:36.424Z</time></trkpt><trkpt lat="43.076188" lon="12.9582306"><ele>629.5</ele><time>2026-04-05T16:04:37.424Z</time></trkpt><trkpt lat="43.0761901" lon="12.9580596"><ele>629.25</ele><time>2026-04-05T16:04:38.424Z</time></trkpt><trkpt lat="43.0761642" lon="12.9578892"><ele>629.0</ele><time>2026-04-05T16:04:39.424Z</time></trkpt><trkpt lat="43.0761269" lon="12.9577276"><ele>629.0</ele><time>2026-04-05T16:04:40.423Z</time></trkpt><trkpt lat="43.0760717" lon="12.9575569"><ele>629.0</ele><time>2026-04-05T16:04:41.424Z</time></trkpt><trkpt lat="43.0759912" lon="12.9573945"><ele>629.0</ele><time>2026-04-05T16:04:42.424Z</time></trkpt><trkpt lat="43.075896" lon="12.9572388"><ele>629.0</ele><time>2026-04-05T16:04:43.424Z</time></trkpt><trkpt lat="43.0757916" lon="12.9570804"><ele>629.3333333333333</ele><time>2026-04-05T16:04:44.424Z</time></trkpt><trkpt lat="43.0756745" lon="12.9569215"><ele>629.6666666666666</ele><time>2026-04-05T16:04:45.424Z</time></trkpt><trkpt lat="43.0755568" lon="12.9567496"><ele>630.0</ele><time>2026-04-05T16:04:46.424Z</time></trkpt><trkpt lat="43.0754353" lon="12.9565872"><ele>631.6666666666666</ele><time>2026-04-05T16:04:47.424Z</time></trkpt><trkpt lat="43.0753188" lon="12.9564261"><ele>633.3333333333333</ele><time>2026-04-05T16:04:48.423Z</time></trkpt><trkpt lat="43.0752037" lon="12.9562555"><ele>635.0</ele><time>2026-04-05T16:04:49.424Z</time></trkpt><trkpt lat="43.0750836" lon="12.9560893"><ele>635.0</ele><time>2026-04-05T16:04:50.424Z</time></trkpt><trkpt lat="43.0749633" lon="12.9559233"><ele>635.0</ele><time>2026-04-05T16:04:51.424Z</time></trkpt><trkpt lat="43.0748394" lon="12.9557582"><ele>635.0</ele><time>2026-04-05T16:04:52.424Z</time></trkpt><trkpt lat="43.0747099" lon="12.9556147"><ele>636.3333333333333</ele><time>2026-04-05T16:04:53.424Z</time></trkpt><trkpt lat="43.0745633" lon="12.955492"><ele>637.6666666666666</ele><time>2026-04-05T16:04:54.423Z</time></trkpt><trkpt lat="43.0744222" lon="12.9553669"><ele>639.0</ele><time>2026-04-05T16:04:55.424Z</time></trkpt><trkpt lat="43.0742752" lon="12.95525"><ele>639.0</ele><time>2026-04-05T16:04:56.424Z</time></trkpt><trkpt lat="43.0741363" lon="12.9551342"><ele>639.0</ele><time>2026-04-05T16:04:57.423Z</time></trkpt><trkpt lat="43.0739995" lon="12.9550215"><ele>639.0</ele><time>2026-04-05T16:04:58.424Z</time></trkpt><trkpt lat="43.0738768" lon="12.9549045"><ele>640.6666666666666</ele><time>2026-04-05T16:04:59.424Z</time></trkpt><trkpt lat="43.0737574" lon="12.9547737"><ele>642.3333333333333</ele><time>2026-04-05T16:05:00.423Z</time></trkpt><trkpt lat="43.0736581" lon="12.9546221"><ele>644.0</ele><time>2026-04-05T16:05:01.424Z</time></trkpt><trkpt lat="43.0735628" lon="12.9544431"><ele>644.0</ele><time>2026-04-05T16:05:02.423Z</time></trkpt><trkpt lat="43.0734799" lon="12.9542573"><ele>644.0</ele><time>2026-04-05T16:05:03.424Z</time></trkpt><trkpt lat="43.0733937" lon="12.9540692"><ele>644.0</ele><time>2026-04-05T16:05:04.423Z</time></trkpt><trkpt lat="43.0733039" lon="12.9538833"><ele>643.6666666666666</ele><time>2026-04-05T16:05:05.424Z</time></trkpt><trkpt lat="43.0732159" lon="12.953682"><ele>643.3333333333334</ele><time>2026-04-05T16:05:06.424Z</time></trkpt><trkpt lat="43.073126" lon="12.9534811"><ele>643.0</ele><time>2026-04-05T16:05:07.423Z</time></trkpt><trkpt lat="43.0730311" lon="12.9532729"><ele>644.3333333333334</ele><time>2026-04-05T16:05:08.424Z</time></trkpt><trkpt lat="43.0729353" lon="12.9530696"><ele>645.6666666666666</ele><time>2026-04-05T16:05:09.423Z</time></trkpt><trkpt lat="43.0728437" lon="12.9528658"><ele>647.0</ele><time>2026-04-05T16:05:10.424Z</time></trkpt><trkpt lat="43.0727589" lon="12.952681"><ele>649.6666666666666</ele><time>2026-04-05T16:05:11.424Z</time></trkpt><trkpt lat="43.0726781" lon="12.9525009"><ele>652.3333333333334</ele><time>2026-04-05T16:05:12.424Z</time></trkpt><trkpt lat="43.0726067" lon="12.9523181"><ele>655.0</ele><time>2026-04-05T16:05:13.423Z</time></trkpt><trkpt lat="43.0725611" lon="12.9521186"><ele>655.0</ele><time>2026-04-05T16:05:14.424Z</time></trkpt><trkpt lat="43.0725159" lon="12.9519099"><ele>655.0</ele><time>2026-04-05T16:05:15.424Z</time></trkpt><trkpt lat="43.0725003" lon="12.9516987"><ele>655.0</ele><time>2026-04-05T16:05:16.424Z</time></trkpt><trkpt lat="43.0724815" lon="12.9514849"><ele>658.6666666666667</ele><time>2026-04-05T16:05:17.424Z</time></trkpt><trkpt lat="43.0724701" lon="12.9512541"><ele>662.3333333333334</ele><time>2026-04-05T16:05:18.423Z</time></trkpt><trkpt lat="43.0724634" lon="12.9510324"><ele>666.0</ele><time>2026-04-05T16:05:19.424Z</time></trkpt><trkpt lat="43.0724454" lon="12.9508056"><ele>661.6666666666666</ele><time>2026-04-05T16:05:20.424Z</time></trkpt><trkpt lat="43.0724088" lon="12.9505731"><ele>657.3333333333333</ele><time>2026-04-05T16:05:21.424Z</time></trkpt><trkpt lat="43.0723563" lon="12.9503413"><ele>653.0</ele><time>2026-04-05T16:05:22.424Z</time></trkpt><trkpt lat="43.072296" lon="12.9501118"><ele>654.0</ele><time>2026-04-05T16:05:23.423Z</time></trkpt><trkpt lat="43.0722296" lon="12.9498847"><ele>655.0</ele><time>2026-04-05T16:05:24.423Z</time></trkpt><trkpt lat="43.072145" lon="12.9496771"><ele>656.0</ele><time>2026-04-05T16:05:25.424Z</time></trkpt><trkpt lat="43.0720403" lon="12.949479"><ele>656.0</ele><time>2026-04-05T16:05:26.424Z</time></trkpt><trkpt lat="43.0719227" lon="12.9492844"><ele>656.0</ele><time>2026-04-05T16:05:27.424Z</time></trkpt><trkpt lat="43.0717951" lon="12.9491016"><ele>656.0</ele><time>2026-04-05T16:05:28.424Z</time></trkpt><trkpt lat="43.0716686" lon="12.948929"><ele>657.6666666666666</ele><time>2026-04-05T16:05:29.424Z</time></trkpt><trkpt lat="43.0715441" lon="12.9487594"><ele>659.3333333333334</ele><time>2026-04-05T16:05:30.424Z</time></trkpt><trkpt lat="43.0714133" lon="12.948587"><ele>661.0</ele><time>2026-04-05T16:05:31.424Z</time></trkpt><trkpt lat="43.0712796" lon="12.9484163"><ele>662.6666666666667</ele><time>2026-04-05T16:05:32.424Z</time></trkpt><trkpt lat="43.0711471" lon="12.9482476"><ele>664.3333333333334</ele><time>2026-04-05T16:05:33.423Z</time></trkpt><trkpt lat="43.0710151" lon="12.9480868"><ele>666.0</ele><time>2026-04-05T16:05:34.424Z</time></trkpt><trkpt lat="43.0708928" lon="12.9479372"><ele>664.6666666666666</ele><time>2026-04-05T16:05:35.424Z</time></trkpt><trkpt lat="43.070762" lon="12.9478147"><ele>663.3333333333333</ele><time>2026-04-05T16:05:36.423Z</time></trkpt><trkpt lat="43.070631" lon="12.9477105"><ele>662.0</ele><time>2026-04-05T16:05:37.423Z</time></trkpt><trkpt lat="43.0705026" lon="12.9476248"><ele>662.0</ele><time>2026-04-05T16:05:38.424Z</time></trkpt><trkpt lat="43.0703739" lon="12.9475452"><ele>662.0</ele><time>2026-04-05T16:05:39.424Z</time></trkpt><trkpt lat="43.0702472" lon="12.9474672"><ele>662.0</ele><time>2026-04-05T16:05:40.423Z</time></trkpt><trkpt lat="43.0701257" lon="12.9473983"><ele>662.0</ele><time>2026-04-05T16:05:41.424Z</time></trkpt><trkpt lat="43.0700123" lon="12.9473298"><ele>662.5</ele><time>2026-04-05T16:05:42.424Z</time></trkpt><trkpt lat="43.0699" lon="12.9472571"><ele>663.0</ele><time>2026-04-05T16:05:43.424Z</time></trkpt><trkpt lat="43.0697942" lon="12.9471916"><ele>663.5</ele><time>2026-04-05T16:05:44.424Z</time></trkpt><trkpt lat="43.0696865" lon="12.9471225"><ele>664.0</ele><time>2026-04-05T16:05:45.424Z</time></trkpt><trkpt lat="43.0695727" lon="12.9470632"><ele>664.0</ele><time>2026-04-05T16:05:46.424Z</time></trkpt><trkpt lat="43.0694516" lon="12.9470192"><ele>664.0</ele><time>2026-04-05T16:05:47.424Z</time></trkpt><trkpt lat="43.069327" lon="12.9469895"><ele>664.0</ele><time>2026-04-05T16:05:48.423Z</time></trkpt><trkpt lat="43.0691928" lon="12.9469861"><ele>664.0</ele><time>2026-04-05T16:05:49.423Z</time></trkpt><trkpt lat="43.0690562" lon="12.9469864"><ele>665.25</ele><time>2026-04-05T16:05:50.424Z</time></trkpt><trkpt lat="43.0689097" lon="12.9470053"><ele>666.5</ele><time>2026-04-05T16:05:51.424Z</time></trkpt><trkpt lat="43.0687679" lon="12.9470066"><ele>667.75</ele><time>2026-04-05T16:05:52.424Z</time></trkpt><trkpt lat="43.0686262" lon="12.9469893"><ele>669.0</ele><time>2026-04-05T16:05:53.424Z</time></trkpt><trkpt lat="43.0684962" lon="12.94695"><ele>669.0</ele><time>2026-04-05T16:05:54.424Z</time></trkpt><trkpt lat="43.0683717" lon="12.9469038"><ele>669.0</ele><time>2026-04-05T16:05:55.424Z</time></trkpt><trkpt lat="43.0682482" lon="12.9468386"><ele>669.0</ele><time>2026-04-05T16:05:56.423Z</time></trkpt><trkpt lat="43.0681325" lon="12.9467529"><ele>669.0</ele><time>2026-04-05T16:05:57.424Z</time></trkpt><trkpt lat="43.0680284" lon="12.9466508"><ele>668.75</ele><time>2026-04-05T16:05:58.424Z</time></trkpt><trkpt lat="43.0679397" lon="12.9465148"><ele>668.5</ele><time>2026-04-05T16:05:59.424Z</time></trkpt><trkpt lat="43.0678463" lon="12.9463684"><ele>668.25</ele><time>2026-04-05T16:06:00.424Z</time></trkpt><trkpt lat="43.0677766" lon="12.9462127"><ele>668.0</ele><time>2026-04-05T16:06:01.423Z</time></trkpt><trkpt lat="43.0677177" lon="12.9460382"><ele>669.5</ele><time>2026-04-05T16:06:02.423Z</time></trkpt><trkpt lat="43.0676679" lon="12.9458517"><ele>671.0</ele><time>2026-04-05T16:06:03.424Z</time></trkpt><trkpt lat="43.0676436" lon="12.9456615"><ele>672.5</ele><time>2026-04-05T16:06:04.424Z</time></trkpt><trkpt lat="43.0676241" lon="12.9454833"><ele>674.0</ele><time>2026-04-05T16:06:05.423Z</time></trkpt><trkpt lat="43.0676076" lon="12.9453014"><ele>674.0</ele><time>2026-04-05T16:06:06.424Z</time></trkpt><trkpt lat="43.067581" lon="12.9451185"><ele>674.0</ele><time>2026-04-05T16:06:07.423Z</time></trkpt><trkpt lat="43.0675508" lon="12.9449338"><ele>674.0</ele><time>2026-04-05T16:06:08.424Z</time></trkpt><trkpt lat="43.067496" lon="12.9447525"><ele>674.0</ele><time>2026-04-05T16:06:09.424Z</time></trkpt><trkpt lat="43.0674283" lon="12.9445845"><ele>675.0</ele><time>2026-04-05T16:06:10.424Z</time></trkpt><trkpt lat="43.0673444" lon="12.944417"><ele>676.0</ele><time>2026-04-05T16:06:11.424Z</time></trkpt><trkpt lat="43.0672543" lon="12.9442566"><ele>677.0</ele><time>2026-04-05T16:06:12.424Z</time></trkpt><trkpt lat="43.067166" lon="12.9441073"><ele>678.0</ele><time>2026-04-05T16:06:13.423Z</time></trkpt><trkpt lat="43.0670622" lon="12.9439618"><ele>678.0</ele><time>2026-04-05T16:06:14.423Z</time></trkpt><trkpt lat="43.066949" lon="12.9438338"><ele>678.0</ele><time>2026-04-05T16:06:15.424Z</time></trkpt><trkpt lat="43.0668341" lon="12.9437148"><ele>678.0</ele><time>2026-04-05T16:06:16.423Z</time></trkpt><trkpt lat="43.0667173" lon="12.9436066"><ele>678.0</ele><time>2026-04-05T16:06:17.424Z</time></trkpt><trkpt lat="43.0666191" lon="12.9435159"><ele>679.5999999999999</ele><time>2026-04-05T16:06:18.424Z</time></trkpt><trkpt lat="43.0665157" lon="12.9434337"><ele>681.1999999999999</ele><time>2026-04-05T16:06:19.424Z</time></trkpt><trkpt lat="43.0664152" lon="12.9433599"><ele>682.8</ele><time>2026-04-05T16:06:20.424Z</time></trkpt><trkpt lat="43.06634" lon="12.943293"><ele>684.4</ele><time>2026-04-05T16:06:21.424Z</time></trkpt><trkpt lat="43.066256" lon="12.9432416"><ele>686.0</ele><time>2026-04-05T16:06:22.424Z</time></trkpt><trkpt lat="43.0661825" lon="12.9431727"><ele>686.0</ele><time>2026-04-05T16:06:23.424Z</time></trkpt><trkpt lat="43.06611" lon="12.9431044"><ele>686.0</ele><time>2026-04-05T16:06:24.423Z</time></trkpt><trkpt lat="43.0660489" lon="12.943041"><ele>686.0</ele><time>2026-04-05T16:06:25.424Z</time></trkpt><trkpt lat="43.0659949" lon="12.9429696"><ele>686.0</ele><time>2026-04-05T16:06:26.423Z</time></trkpt><trkpt lat="43.065944" lon="12.9429112"><ele>686.0</ele><time>2026-04-05T16:06:27.424Z</time></trkpt><trkpt lat="43.0659006" lon="12.9428332"><ele>686.0</ele><time>2026-04-05T16:06:28.423Z</time></trkpt><trkpt lat="43.0658599" lon="12.9427508"><ele>686.0</ele><time>2026-04-05T16:06:29.424Z</time></trkpt><trkpt lat="43.0658196" lon="12.9426626"><ele>686.0</ele><time>2026-04-05T16:06:30.424Z</time></trkpt><trkpt lat="43.0657688" lon="12.9425705"><ele>686.0</ele><time>2026-04-05T16:06:31.424Z</time></trkpt><trkpt lat="43.0657276" lon="12.9424628"><ele>686.0</ele><time>2026-04-05T16:06:32.424Z</time></trkpt><trkpt lat="43.0656871" lon="12.9423457"><ele>686.0</ele><time>2026-04-05T16:06:33.424Z</time></trkpt><trkpt lat="43.0656528" lon="12.9422295"><ele>686.0</ele><time>2026-04-05T16:06:34.424Z</time></trkpt><trkpt lat="43.0656455" lon="12.9420942"><ele>687.0</ele><time>2026-04-05T16:06:35.423Z</time></trkpt><trkpt lat="43.0656267" lon="12.9419712"><ele>688.0</ele><time>2026-04-05T16:06:36.424Z</time></trkpt><trkpt lat="43.0656191" lon="12.9418312"><ele>689.0</ele><time>2026-04-05T16:06:37.424Z</time></trkpt><trkpt lat="43.0656199" lon="12.9416792"><ele>690.0</ele><time>2026-04-05T16:06:38.424Z</time></trkpt><trkpt lat="43.0656283" lon="12.9415208"><ele>691.0</ele><time>2026-04-05T16:06:39.424Z</time></trkpt><trkpt lat="43.065649" lon="12.9413426"><ele>691.0</ele><time>2026-04-05T16:06:40.423Z</time></trkpt><trkpt lat="43.0656783" lon="12.9411636"><ele>691.0</ele><time>2026-04-05T16:06:41.424Z</time></trkpt><trkpt lat="43.0657147" lon="12.9409866"><ele>691.0</ele><time>2026-04-05T16:06:42.424Z</time></trkpt><trkpt lat="43.0657485" lon="12.9408096"><ele>691.0</ele><time>2026-04-05T16:06:43.424Z</time></trkpt><trkpt lat="43.0657907" lon="12.9406369"><ele>694.0</ele><time>2026-04-05T16:06:44.423Z</time></trkpt><trkpt lat="43.0658418" lon="12.940466"><ele>697.0</ele><time>2026-04-05T16:06:45.424Z</time></trkpt><trkpt lat="43.0658856" lon="12.940288"><ele>700.0</ele><time>2026-04-05T16:06:46.424Z</time></trkpt><trkpt lat="43.0659339" lon="12.9400992"><ele>703.0</ele><time>2026-04-05T16:06:47.424Z</time></trkpt><trkpt lat="43.0659881" lon="12.9399152"><ele>703.75</ele><time>2026-04-05T16:06:48.424Z</time></trkpt><trkpt lat="43.0660362" lon="12.9397368"><ele>704.5</ele><time>2026-04-05T16:06:49.423Z</time></trkpt><trkpt lat="43.0660901" lon="12.9395593"><ele>705.25</ele><time>2026-04-05T16:06:50.424Z</time></trkpt><trkpt lat="43.0661557" lon="12.9394089"><ele>706.0</ele><time>2026-04-05T16:06:51.423Z</time></trkpt><trkpt lat="43.0662185" lon="12.9392771"><ele>707.5999999999999</ele><time>2026-04-05T16:06:52.424Z</time></trkpt><trkpt lat="43.0662775" lon="12.9391627"><ele>709.2</ele><time>2026-04-05T16:06:53.424Z</time></trkpt><trkpt lat="43.0663155" lon="12.939048"><ele>710.8</ele><time>2026-04-05T16:06:54.424Z</time></trkpt><trkpt lat="43.0663382" lon="12.9389339"><ele>712.4000000000001</ele><time>2026-04-05T16:06:55.423Z</time></trkpt><trkpt lat="43.0663346" lon="12.9388194"><ele>714.0</ele><time>2026-04-05T16:06:56.424Z</time></trkpt><trkpt lat="43.0662267" lon="12.938757"><ele>714.0</ele><time>2026-04-05T16:06:57.424Z</time></trkpt><trkpt lat="43.0661522" lon="12.9387366"><ele>714.0</ele><time>2026-04-05T16:06:58.423Z</time></trkpt><trkpt lat="43.0660592" lon="12.9387577"><ele>714.0</ele><time>2026-04-05T16:06:59.423Z</time></trkpt><trkpt lat="43.0659646" lon="12.9388088"><ele>714.0</ele><time>2026-04-05T16:07:00.424Z</time></trkpt><trkpt lat="43.0658718" lon="12.9388874"><ele>714.0</ele><time>2026-04-05T16:07:01.424Z</time></trkpt><trkpt lat="43.0657634" lon="12.939007"><ele>718.6666666666666</ele><time>2026-04-05T16:07:02.424Z</time></trkpt><trkpt lat="43.0656502" lon="12.9391396"><ele>723.3333333333333</ele><time>2026-04-05T16:07:03.424Z</time></trkpt><trkpt lat="43.0655468" lon="12.9392954"><ele>728.0</ele><time>2026-04-05T16:07:04.424Z</time></trkpt><trkpt lat="43.0654485" lon="12.9394618"><ele>728.0</ele><time>2026-04-05T16:07:05.424Z</time></trkpt><trkpt lat="43.0653539" lon="12.9396313"><ele>728.0</ele><time>2026-04-05T16:07:06.424Z</time></trkpt><trkpt lat="43.065265" lon="12.9398205"><ele>728.0</ele><time>2026-04-05T16:07:07.424Z</time></trkpt><trkpt lat="43.0651939" lon="12.9400027"><ele>722.25</ele><time>2026-04-05T16:07:08.424Z</time></trkpt><trkpt lat="43.0651204" lon="12.9401767"><ele>716.5</ele><time>2026-04-05T16:07:09.424Z</time></trkpt><trkpt lat="43.0650819" lon="12.9403287"><ele>710.75</ele><time>2026-04-05T16:07:10.424Z</time></trkpt><trkpt lat="43.0650294" lon="12.9404693"><ele>705.0</ele><time>2026-04-05T16:07:11.423Z</time></trkpt><trkpt lat="43.0649742" lon="12.9405981"><ele>706.0</ele><time>2026-04-05T16:07:12.423Z</time></trkpt><trkpt lat="43.064903" lon="12.9407049"><ele>707.0</ele><time>2026-04-05T16:07:13.424Z</time></trkpt><trkpt lat="43.0648197" lon="12.9407701"><ele>708.0</ele><time>2026-04-05T16:07:14.424Z</time></trkpt><trkpt lat="43.0647188" lon="12.9407879"><ele>709.0</ele><time>2026-04-05T16:07:15.424Z</time></trkpt><trkpt lat="43.0646249" lon="12.9407618"><ele>710.0</ele><time>2026-04-05T16:07:16.424Z</time></trkpt><trkpt lat="43.0645353" lon="12.9407035"><ele>710.0</ele><time>2026-04-05T16:07:17.424Z</time></trkpt><trkpt lat="43.0644529" lon="12.9406151"><ele>710.0</ele><time>2026-04-05T16:07:18.424Z</time></trkpt><trkpt lat="43.0643834" lon="12.9405144"><ele>710.0</ele><time>2026-04-05T16:07:19.424Z</time></trkpt><trkpt lat="43.064332" lon="12.9403919"><ele>710.0</ele><time>2026-04-05T16:07:20.424Z</time></trkpt><trkpt lat="43.064292" lon="12.9402323"><ele>710.0</ele><time>2026-04-05T16:07:21.423Z</time></trkpt><trkpt lat="43.0642596" lon="12.9400737"><ele>710.25</ele><time>2026-04-05T16:07:22.424Z</time></trkpt><trkpt lat="43.0642249" lon="12.9399047"><ele>710.5</ele><time>2026-04-05T16:07:23.424Z</time></trkpt><trkpt lat="43.0641659" lon="12.9397501"><ele>710.75</ele><time>2026-04-05T16:07:24.424Z</time></trkpt><trkpt lat="43.0641077" lon="12.9395919"><ele>711.0</ele><time>2026-04-05T16:07:25.424Z</time></trkpt><trkpt lat="43.0639859" lon="12.9394782"><ele>711.0</ele><time>2026-04-05T16:07:26.424Z</time></trkpt><trkpt lat="43.0638636" lon="12.9393651"><ele>711.0</ele><time>2026-04-05T16:07:27.424Z</time></trkpt><trkpt lat="43.0637287" lon="12.939258"><ele>711.0</ele><time>2026-04-05T16:07:28.424Z</time></trkpt><trkpt lat="43.0635988" lon="12.9391652"><ele>712.3333333333334</ele><time>2026-04-05T16:07:29.424Z</time></trkpt><trkpt lat="43.0634695" lon="12.9390692"><ele>713.6666666666667</ele><time>2026-04-05T16:07:30.424Z</time></trkpt><trkpt lat="43.0633304" lon="12.9389639"><ele>715.0</ele><time>2026-04-05T16:07:31.424Z</time></trkpt><trkpt lat="43.0631885" lon="12.9388648"><ele>715.0</ele><time>2026-04-05T16:07:32.423Z</time></trkpt><trkpt lat="43.0630471" lon="12.938763"><ele>715.0</ele><time>2026-04-05T16:07:33.424Z</time></trkpt><trkpt lat="43.0629188" lon="12.9386327"><ele>715.0</ele><time>2026-04-05T16:07:34.424Z</time></trkpt><trkpt lat="43.0627939" lon="12.9385015"><ele>716.3333333333334</ele><time>2026-04-05T16:07:35.423Z</time></trkpt><trkpt lat="43.0626772" lon="12.9383489"><ele>717.6666666666666</ele><time>2026-04-05T16:07:36.424Z</time></trkpt><trkpt lat="43.0625606" lon="12.9381882"><ele>719.0</ele><time>2026-04-05T16:07:37.424Z</time></trkpt><trkpt lat="43.0624435" lon="12.9380299"><ele>719.0</ele><time>2026-04-05T16:07:38.424Z</time></trkpt><trkpt lat="43.0623208" lon="12.9378757"><ele>719.0</ele><time>2026-04-05T16:07:39.424Z</time></trkpt><trkpt lat="43.0621815" lon="12.937735"><ele>719.0</ele><time>2026-04-05T16:07:40.424Z</time></trkpt><trkpt lat="43.0620429" lon="12.9376013"><ele>724.3333333333333</ele><time>2026-04-05T16:07:41.423Z</time></trkpt><trkpt lat="43.0619007" lon="12.9374754"><ele>729.6666666666666</ele><time>2026-04-05T16:07:42.424Z</time></trkpt><trkpt lat="43.061756" lon="12.9373527"><ele>735.0</ele><time>2026-04-05T16:07:43.424Z</time></trkpt><trkpt lat="43.0616015" lon="12.9372454"><ele>735.0</ele><time>2026-04-05T16:07:44.424Z</time></trkpt><trkpt lat="43.0614423" lon="12.9371444"><ele>735.0</ele><time>2026-04-05T16:07:45.424Z</time></trkpt><trkpt lat="43.0612882" lon="12.937065"><ele>735.0</ele><time>2026-04-05T16:07:46.424Z</time></trkpt><trkpt lat="43.061143" lon="12.9370014"><ele>735.0</ele><time>2026-04-05T16:07:47.424Z</time></trkpt><trkpt lat="43.0610097" lon="12.9369433"><ele>735.0</ele><time>2026-04-05T16:07:48.424Z</time></trkpt><trkpt lat="43.0608824" lon="12.9368944"><ele>735.0</ele><time>2026-04-05T16:07:49.423Z</time></trkpt><trkpt lat="43.0607565" lon="12.9368452"><ele>735.0</ele><time>2026-04-05T16:07:50.424Z</time></trkpt><trkpt lat="43.0606283" lon="12.9367921"><ele>737.25</ele><time>2026-04-05T16:07:51.424Z</time></trkpt><trkpt lat="43.0605035" lon="12.9367129"><ele>739.5</ele><time>2026-04-05T16:07:52.424Z</time></trkpt><trkpt lat="43.0603848" lon="12.9366016"><ele>741.75</ele><time>2026-04-05T16:07:53.423Z</time></trkpt><trkpt lat="43.0602762" lon="12.93648"><ele>744.0</ele><time>2026-04-05T16:07:54.424Z</time></trkpt><trkpt lat="43.0601732" lon="12.9363495"><ele>744.0</ele><time>2026-04-05T16:07:55.424Z</time></trkpt><trkpt lat="43.0600786" lon="12.9361849"><ele>744.0</ele><time>2026-04-05T16:07:56.423Z</time></trkpt><trkpt lat="43.0599765" lon="12.9360122"><ele>744.0</ele><time>2026-04-05T16:07:57.423Z</time></trkpt><trkpt lat="43.0598833" lon="12.9358219"><ele>742.0</ele><time>2026-04-05T16:07:58.424Z</time></trkpt><trkpt lat="43.0597827" lon="12.9356225"><ele>740.0</ele><time>2026-04-05T16:07:59.424Z</time></trkpt><trkpt lat="43.0596825" lon="12.9354194"><ele>738.0</ele><time>2026-04-05T16:08:00.424Z</time></trkpt><trkpt lat="43.0595648" lon="12.9352269"><ele>743.0</ele><time>2026-04-05T16:08:01.423Z</time></trkpt><trkpt lat="43.0594296" lon="12.9350357"><ele>748.0</ele><time>2026-04-05T16:08:02.424Z</time></trkpt><trkpt lat="43.0592861" lon="12.9348345"><ele>753.0</ele><time>2026-04-05T16:08:03.424Z</time></trkpt><trkpt lat="43.0591401" lon="12.9346455"><ele>753.0</ele><time>2026-04-05T16:08:04.424Z</time></trkpt><trkpt lat="43.0589905" lon="12.9344572"><ele>753.0</ele><time>2026-04-05T16:08:05.424Z</time></trkpt><trkpt lat="43.0588376" lon="12.9342678"><ele>753.0</ele><time>2026-04-05T16:08:06.424Z</time></trkpt><trkpt lat="43.0586805" lon="12.9340865"><ele>753.0</ele><time>2026-04-05T16:08:07.424Z</time></trkpt><trkpt lat="43.0585321" lon="12.9339013"><ele>753.0</ele><time>2026-04-05T16:08:08.424Z</time></trkpt><trkpt lat="43.058375" lon="12.933717"><ele>753.0</ele><time>2026-04-05T16:08:09.423Z</time></trkpt><trkpt lat="43.0582228" lon="12.9335229"><ele>752.3333333333334</ele><time>2026-04-05T16:08:10.424Z</time></trkpt><trkpt lat="43.058072" lon="12.9333435"><ele>751.6666666666667</ele><time>2026-04-05T16:08:11.424Z</time></trkpt><trkpt lat="43.0579249" lon="12.933163"><ele>751.0</ele><time>2026-04-05T16:08:12.423Z</time></trkpt><trkpt lat="43.0577907" lon="12.9329848"><ele>751.0</ele><time>2026-04-05T16:08:13.424Z</time></trkpt><trkpt lat="43.0576543" lon="12.9328141"><ele>751.0</ele><time>2026-04-05T16:08:14.424Z</time></trkpt><trkpt lat="43.0575185" lon="12.9326461"><ele>751.0</ele><time>2026-04-05T16:08:15.424Z</time></trkpt><trkpt lat="43.0573765" lon="12.9324856"><ele>753.0</ele><time>2026-04-05T16:08:16.424Z</time></trkpt><trkpt lat="43.0572347" lon="12.9323281"><ele>755.0</ele><time>2026-04-05T16:08:17.423Z</time></trkpt><trkpt lat="43.0570914" lon="12.9321627"><ele>757.0</ele><time>2026-04-05T16:08:18.423Z</time></trkpt><trkpt lat="43.0569431" lon="12.9320041"><ele>757.0</ele><time>2026-04-05T16:08:19.424Z</time></trkpt><trkpt lat="43.056797" lon="12.9318683"><ele>757.0</ele><time>2026-04-05T16:08:20.424Z</time></trkpt><trkpt lat="43.0566536" lon="12.9317361"><ele>757.0</ele><time>2026-04-05T16:08:21.424Z</time></trkpt><trkpt lat="43.0565055" lon="12.9316132"><ele>759.3333333333334</ele><time>2026-04-05T16:08:22.424Z</time></trkpt><trkpt lat="43.0563604" lon="12.9314851"><ele>761.6666666666666</ele><time>2026-04-05T16:08:23.423Z</time></trkpt><trkpt lat="43.0562204" lon="12.9313547"><ele>764.0</ele><time>2026-04-05T16:08:24.424Z</time></trkpt><trkpt lat="43.0560728" lon="12.9312136"><ele>764.0</ele><time>2026-04-05T16:08:25.424Z</time></trkpt><trkpt lat="43.0559358" lon="12.9310681"><ele>764.0</ele><time>2026-04-05T16:08:26.424Z</time></trkpt><trkpt lat="43.0558001" lon="12.9309042"><ele>764.0</ele><time>2026-04-05T16:08:27.423Z</time></trkpt><trkpt lat="43.055672" lon="12.9307372"><ele>766.3333333333333</ele><time>2026-04-05T16:08:28.423Z</time></trkpt><trkpt lat="43.0555446" lon="12.9305616"><ele>768.6666666666666</ele><time>2026-04-05T16:08:29.423Z</time></trkpt><trkpt lat="43.0554241" lon="12.9303868"><ele>771.0</ele><time>2026-04-05T16:08:30.424Z</time></trkpt><trkpt lat="43.0553018" lon="12.9302023"><ele>771.0</ele><time>2026-04-05T16:08:31.424Z</time></trkpt><trkpt lat="43.0551829" lon="12.9300077"><ele>771.0</ele><time>2026-04-05T16:08:32.424Z</time></trkpt><trkpt lat="43.055068" lon="12.9298179"><ele>771.0</ele><time>2026-04-05T16:08:33.424Z</time></trkpt><trkpt lat="43.0549489" lon="12.9296251"><ele>769.6666666666666</ele><time>2026-04-05T16:08:34.424Z</time></trkpt><trkpt lat="43.0548266" lon="12.9294341"><ele>768.3333333333333</ele><time>2026-04-05T16:08:35.423Z</time></trkpt><trkpt lat="43.0547046" lon="12.9292425"><ele>767.0</ele><time>2026-04-05T16:08:36.424Z</time></trkpt><trkpt lat="43.054579" lon="12.9290438"><ele>766.3333333333333</ele><time>2026-04-05T16:08:37.424Z</time></trkpt><trkpt lat="43.0544571" lon="12.9288401"><ele>765.6666666666666</ele><time>2026-04-05T16:08:38.424Z</time></trkpt><trkpt lat="43.0543358" lon="12.9286385"><ele>765.0</ele><time>2026-04-05T16:08:39.424Z</time></trkpt><trkpt lat="43.0542137" lon="12.9284236"><ele>762.6666666666666</ele><time>2026-04-05T16:08:40.423Z</time></trkpt><trkpt lat="43.0540959" lon="12.9282158"><ele>760.3333333333333</ele><time>2026-04-05T16:08:41.424Z</time></trkpt><trkpt lat="43.0539741" lon="12.9280065"><ele>758.0</ele><time>2026-04-05T16:08:42.423Z</time></trkpt><trkpt lat="43.0538615" lon="12.9277983"><ele>758.0</ele><time>2026-04-05T16:08:43.424Z</time></trkpt><trkpt lat="43.053756" lon="12.9275812"><ele>758.0</ele><time>2026-04-05T16:08:44.424Z</time></trkpt><trkpt lat="43.0536538" lon="12.9273776"><ele>758.0</ele><time>2026-04-05T16:08:45.423Z</time></trkpt><trkpt lat="43.0535502" lon="12.9271716"><ele>758.6666666666666</ele><time>2026-04-05T16:08:46.424Z</time></trkpt><trkpt lat="43.0534549" lon="12.9269563"><ele>759.3333333333334</ele><time>2026-04-05T16:08:47.424Z</time></trkpt><trkpt lat="43.0533615" lon="12.9267355"><ele>760.0</ele><time>2026-04-05T16:08:48.423Z</time></trkpt><trkpt lat="43.0532655" lon="12.9265124"><ele>758.3333333333334</ele><time>2026-04-05T16:08:49.424Z</time></trkpt><trkpt lat="43.0531715" lon="12.9262891"><ele>756.6666666666666</ele><time>2026-04-05T16:08:50.423Z</time></trkpt><trkpt lat="43.0530793" lon="12.9260535"><ele>755.0</ele><time>2026-04-05T16:08:51.424Z</time></trkpt><trkpt lat="43.0529918" lon="12.9258182"><ele>755.0</ele><time>2026-04-05T16:08:52.424Z</time></trkpt><trkpt lat="43.0529039" lon="12.9255797"><ele>755.0</ele><time>2026-04-05T16:08:53.424Z</time></trkpt><trkpt lat="43.0528285" lon="12.925341"><ele>755.0</ele><time>2026-04-05T16:08:54.424Z</time></trkpt><trkpt lat="43.0527733" lon="12.9250939"><ele>754.3333333333333</ele><time>2026-04-05T16:08:55.424Z</time></trkpt><trkpt lat="43.0527321" lon="12.9248474"><ele>753.6666666666666</ele><time>2026-04-05T16:08:56.424Z</time></trkpt><trkpt lat="43.0526997" lon="12.9246091"><ele>753.0</ele><time>2026-04-05T16:08:57.424Z</time></trkpt><trkpt lat="43.0526696" lon="12.9243551"><ele>753.6666666666666</ele><time>2026-04-05T16:08:58.424Z</time></trkpt><trkpt lat="43.0526464" lon="12.9241133"><ele>754.3333333333333</ele><time>2026-04-05T16:08:59.423Z</time></trkpt><trkpt lat="43.0526186" lon="12.9238786"><ele>755.0</ele><time>2026-04-05T16:09:00.424Z</time></trkpt><trkpt lat="43.0526016" lon="12.9236607"><ele>755.0</ele><time>2026-04-05T16:09:01.424Z</time></trkpt><trkpt lat="43.0525954" lon="12.9234398"><ele>755.0</ele><time>2026-04-05T16:09:02.424Z</time></trkpt><trkpt lat="43.0525984" lon="12.9232158"><ele>755.0</ele><time>2026-04-05T16:09:03.424Z</time></trkpt><trkpt lat="43.0526244" lon="12.9230033"><ele>756.5</ele><time>2026-04-05T16:09:04.424Z</time></trkpt><trkpt lat="43.0526593" lon="12.9227897"><ele>758.0</ele><time>2026-04-05T16:09:05.424Z</time></trkpt><trkpt lat="43.0526942" lon="12.9225927"><ele>759.5</ele><time>2026-04-05T16:09:06.424Z</time></trkpt><trkpt lat="43.052728" lon="12.9224085"><ele>761.0</ele><time>2026-04-05T16:09:07.424Z</time></trkpt><trkpt lat="43.0527548" lon="12.9222325"><ele>761.0</ele><time>2026-04-05T16:09:08.423Z</time></trkpt><trkpt lat="43.0527635" lon="12.9220697"><ele>761.0</ele><time>2026-04-05T16:09:09.424Z</time></trkpt><trkpt lat="43.0527639" lon="12.9219009"><ele>761.0</ele><time>2026-04-05T16:09:10.424Z</time></trkpt><trkpt lat="43.0527579" lon="12.9217379"><ele>761.0</ele><time>2026-04-05T16:09:11.424Z</time></trkpt><trkpt lat="43.0527351" lon="12.9215679"><ele>760.75</ele><time>2026-04-05T16:09:12.424Z</time></trkpt><trkpt lat="43.05272" lon="12.9213915"><ele>760.5</ele><time>2026-04-05T16:09:13.424Z</time></trkpt><trkpt lat="43.0527015" lon="12.9212087"><ele>760.25</ele><time>2026-04-05T16:09:14.424Z</time></trkpt><trkpt lat="43.0526878" lon="12.9210264"><ele>760.0</ele><time>2026-04-05T16:09:15.423Z</time></trkpt><trkpt lat="43.0526729" lon="12.9208306"><ele>759.0</ele><time>2026-04-05T16:09:16.424Z</time></trkpt><trkpt lat="43.052656" lon="12.9206242"><ele>758.0</ele><time>2026-04-05T16:09:17.424Z</time></trkpt><trkpt lat="43.052646" lon="12.9204168"><ele>757.0</ele><time>2026-04-05T16:09:18.424Z</time></trkpt><trkpt lat="43.0526329" lon="12.920207"><ele>756.0</ele><time>2026-04-05T16:09:19.424Z</time></trkpt><trkpt lat="43.0526195" lon="12.9199898"><ele>755.0</ele><time>2026-04-05T16:09:20.423Z</time></trkpt><trkpt lat="43.0525963" lon="12.9197707"><ele>754.0</ele><time>2026-04-05T16:09:21.423Z</time></trkpt><trkpt lat="43.0525538" lon="12.9195377"><ele>754.0</ele><time>2026-04-05T16:09:22.424Z</time></trkpt><trkpt lat="43.0524993" lon="12.9192958"><ele>754.0</ele><time>2026-04-05T16:09:23.423Z</time></trkpt><trkpt lat="43.0524405" lon="12.9190491"><ele>754.0</ele><time>2026-04-05T16:09:24.424Z</time></trkpt><trkpt lat="43.0523759" lon="12.9188095"><ele>753.3333333333334</ele><time>2026-04-05T16:09:25.424Z</time></trkpt><trkpt lat="43.052309" lon="12.9185722"><ele>752.6666666666666</ele><time>2026-04-05T16:09:26.424Z</time></trkpt><trkpt lat="43.0522428" lon="12.9183357"><ele>752.0</ele><time>2026-04-05T16:09:27.424Z</time></trkpt><trkpt lat="43.0521741" lon="12.9180949"><ele>752.0</ele><time>2026-04-05T16:09:28.423Z</time></trkpt><trkpt lat="43.052105" lon="12.9178569"><ele>752.0</ele><time>2026-04-05T16:09:29.424Z</time></trkpt><trkpt lat="43.0520321" lon="12.9176144"><ele>752.0</ele><time>2026-04-05T16:09:30.424Z</time></trkpt><trkpt lat="43.0519593" lon="12.9173776"><ele>752.3333333333333</ele><time>2026-04-05T16:09:31.424Z</time></trkpt><trkpt lat="43.0518906" lon="12.9171411"><ele>752.6666666666666</ele><time>2026-04-05T16:09:32.424Z</time></trkpt><trkpt lat="43.0518195" lon="12.9169039"><ele>753.0</ele><time>2026-04-05T16:09:33.423Z</time></trkpt><trkpt lat="43.0517496" lon="12.9166641"><ele>753.0</ele><time>2026-04-05T16:09:34.424Z</time></trkpt><trkpt lat="43.0516777" lon="12.9164297"><ele>753.0</ele><time>2026-04-05T16:09:35.424Z</time></trkpt><trkpt lat="43.0516044" lon="12.9161982"><ele>753.0</ele><time>2026-04-05T16:09:36.424Z</time></trkpt><trkpt lat="43.0515334" lon="12.9159635"><ele>752.3333333333334</ele><time>2026-04-05T16:09:37.424Z</time></trkpt><trkpt lat="43.0514596" lon="12.9157397"><ele>751.6666666666667</ele><time>2026-04-05T16:09:38.424Z</time></trkpt><trkpt lat="43.0513743" lon="12.9155088"><ele>751.0</ele><time>2026-04-05T16:09:39.424Z</time></trkpt><trkpt lat="43.0512909" lon="12.9152838"><ele>751.3333333333334</ele><time>2026-04-05T16:09:40.424Z</time></trkpt><trkpt lat="43.0512025" lon="12.9150625"><ele>751.6666666666666</ele><time>2026-04-05T16:09:41.424Z</time></trkpt><trkpt lat="43.0511073" lon="12.9148453"><ele>752.0</ele><time>2026-04-05T16:09:42.424Z</time></trkpt><trkpt lat="43.0510182" lon="12.9146261"><ele>752.0</ele><time>2026-04-05T16:09:43.423Z</time></trkpt><trkpt lat="43.0509309" lon="12.9144054"><ele>752.0</ele><time>2026-04-05T16:09:44.423Z</time></trkpt><trkpt lat="43.050852" lon="12.9141755"><ele>752.0</ele><time>2026-04-05T16:09:45.424Z</time></trkpt><trkpt lat="43.0507803" lon="12.9139467"><ele>751.6666666666666</ele><time>2026-04-05T16:09:46.424Z</time></trkpt><trkpt lat="43.0507153" lon="12.9137091"><ele>751.3333333333334</ele><time>2026-04-05T16:09:47.424Z</time></trkpt><trkpt lat="43.0506541" lon="12.9134719"><ele>751.0</ele><time>2026-04-05T16:09:48.424Z</time></trkpt><trkpt lat="43.0505905" lon="12.9132246"><ele>751.0</ele><time>2026-04-05T16:09:49.424Z</time></trkpt><trkpt lat="43.050524" lon="12.9129893"><ele>751.0</ele><time>2026-04-05T16:09:50.424Z</time></trkpt><trkpt lat="43.0504598" lon="12.9127604"><ele>751.0</ele><time>2026-04-05T16:09:51.424Z</time></trkpt><trkpt lat="43.0503922" lon="12.9125308"><ele>752.0</ele><time>2026-04-05T16:09:52.424Z</time></trkpt><trkpt lat="43.0503223" lon="12.9123038"><ele>753.0</ele><time>2026-04-05T16:09:53.423Z</time></trkpt><trkpt lat="43.0502402" lon="12.9120826"><ele>754.0</ele><time>2026-04-05T16:09:54.424Z</time></trkpt><trkpt lat="43.0501556" lon="12.9118698"><ele>754.3333333333334</ele><time>2026-04-05T16:09:55.424Z</time></trkpt><trkpt lat="43.050057" lon="12.9116652"><ele>754.6666666666666</ele><time>2026-04-05T16:09:56.424Z</time></trkpt><trkpt lat="43.0499499" lon="12.9114633"><ele>755.0</ele><time>2026-04-05T16:09:57.424Z</time></trkpt><trkpt lat="43.0498306" lon="12.9112729"><ele>754.3333333333333</ele><time>2026-04-05T16:09:58.423Z</time></trkpt><trkpt lat="43.0497141" lon="12.9110823"><ele>753.6666666666666</ele><time>2026-04-05T16:09:59.424Z</time></trkpt><trkpt lat="43.0495989" lon="12.9108923"><ele>753.0</ele><time>2026-04-05T16:10:00.424Z</time></trkpt><trkpt lat="43.049486" lon="12.910696"><ele>753.0</ele><time>2026-04-05T16:10:01.424Z</time></trkpt><trkpt lat="43.0493717" lon="12.9105061"><ele>753.0</ele><time>2026-04-05T16:10:02.424Z</time></trkpt><trkpt lat="43.04926" lon="12.9103089"><ele>753.0</ele><time>2026-04-05T16:10:03.424Z</time></trkpt><trkpt lat="43.0491462" lon="12.9101127"><ele>752.6666666666666</ele><time>2026-04-05T16:10:04.424Z</time></trkpt><trkpt lat="43.0490328" lon="12.9099195"><ele>752.3333333333333</ele><time>2026-04-05T16:10:05.424Z</time></trkpt><trkpt lat="43.0489179" lon="12.9097276"><ele>752.0</ele><time>2026-04-05T16:10:06.424Z</time></trkpt><trkpt lat="43.0488117" lon="12.9095356"><ele>752.0</ele><time>2026-04-05T16:10:07.423Z</time></trkpt><trkpt lat="43.0487012" lon="12.9093372"><ele>752.0</ele><time>2026-04-05T16:10:08.424Z</time></trkpt><trkpt lat="43.0485911" lon="12.909131"><ele>752.0</ele><time>2026-04-05T16:10:09.424Z</time></trkpt><trkpt lat="43.0484888" lon="12.9089269"><ele>752.0</ele><time>2026-04-05T16:10:10.423Z</time></trkpt><trkpt lat="43.0483889" lon="12.9087178"><ele>752.0</ele><time>2026-04-05T16:10:11.423Z</time></trkpt><trkpt lat="43.0482858" lon="12.9085074"><ele>752.0</ele><time>2026-04-05T16:10:12.424Z</time></trkpt><trkpt lat="43.0481912" lon="12.9082973"><ele>752.0</ele><time>2026-04-05T16:10:13.424Z</time></trkpt><trkpt lat="43.0480918" lon="12.908084"><ele>752.0</ele><time>2026-04-05T16:10:14.424Z</time></trkpt><trkpt lat="43.0480007" lon="12.9078712"><ele>752.0</ele><time>2026-04-05T16:10:15.423Z</time></trkpt><trkpt lat="43.0479099" lon="12.907646"><ele>752.6666666666666</ele><time>2026-04-05T16:10:16.423Z</time></trkpt><trkpt lat="43.0478226" lon="12.9074274"><ele>753.3333333333334</ele><time>2026-04-05T16:10:17.424Z</time></trkpt><trkpt lat="43.0477384" lon="12.90721"><ele>754.0</ele><time>2026-04-05T16:10:18.424Z</time></trkpt><trkpt lat="43.0476521" lon="12.9069927"><ele>754.0</ele><time>2026-04-05T16:10:19.423Z</time></trkpt><trkpt lat="43.0475684" lon="12.906774"><ele>754.0</ele><time>2026-04-05T16:10:20.424Z</time></trkpt><trkpt lat="43.0474777" lon="12.9065488"><ele>754.0</ele><time>2026-04-05T16:10:21.423Z</time></trkpt><trkpt lat="43.047385" lon="12.9063204"><ele>753.3333333333334</ele><time>2026-04-05T16:10:22.424Z</time></trkpt><trkpt lat="43.0472933" lon="12.9060983"><ele>752.6666666666666</ele><time>2026-04-05T16:10:23.424Z</time></trkpt><trkpt lat="43.047198" lon="12.9058646"><ele>752.0</ele><time>2026-04-05T16:10:24.424Z</time></trkpt><trkpt lat="43.0471068" lon="12.905625"><ele>752.0</ele><time>2026-04-05T16:10:25.424Z</time></trkpt><trkpt lat="43.0470202" lon="12.9053809"><ele>752.0</ele><time>2026-04-05T16:10:26.424Z</time></trkpt><trkpt lat="43.0469433" lon="12.905132"><ele>752.0</ele><time>2026-04-05T16:10:27.424Z</time></trkpt><trkpt lat="43.0468658" lon="12.904873"><ele>752.0</ele><time>2026-04-05T16:10:28.424Z</time></trkpt><trkpt lat="43.0468026" lon="12.9046129"><ele>752.0</ele><time>2026-04-05T16:10:29.424Z</time></trkpt><trkpt lat="43.0467367" lon="12.9043542"><ele>752.0</ele><time>2026-04-05T16:10:30.423Z</time></trkpt><trkpt lat="43.0466651" lon="12.9040889"><ele>752.0</ele><time>2026-04-05T16:10:31.423Z</time></trkpt><trkpt lat="43.046603" lon="12.9038252"><ele>752.0</ele><time>2026-04-05T16:10:32.424Z</time></trkpt><trkpt lat="43.0465365" lon="12.9035635"><ele>752.0</ele><time>2026-04-05T16:10:33.424Z</time></trkpt><trkpt lat="43.0464754" lon="12.9032955"><ele>751.6666666666666</ele><time>2026-04-05T16:10:34.423Z</time></trkpt><trkpt lat="43.046412" lon="12.9030242"><ele>751.3333333333334</ele><time>2026-04-05T16:10:35.424Z</time></trkpt><trkpt lat="43.0463509" lon="12.9027607"><ele>751.0</ele><time>2026-04-05T16:10:36.424Z</time></trkpt><trkpt lat="43.0462904" lon="12.902501"><ele>751.0</ele><time>2026-04-05T16:10:37.424Z</time></trkpt><trkpt lat="43.0462293" lon="12.9022323"><ele>751.0</ele><time>2026-04-05T16:10:38.424Z</time></trkpt><trkpt lat="43.0461775" lon="12.9019727"><ele>751.0</ele><time>2026-04-05T16:10:39.423Z</time></trkpt><trkpt lat="43.0461344" lon="12.9017111"><ele>751.0</ele><time>2026-04-05T16:10:40.424Z</time></trkpt><trkpt lat="43.046098" lon="12.9014504"><ele>751.0</ele><time>2026-04-05T16:10:41.423Z</time></trkpt><trkpt lat="43.0460672" lon="12.9011945"><ele>751.0</ele><time>2026-04-05T16:10:42.424Z</time></trkpt><trkpt lat="43.0460364" lon="12.9009286"><ele>751.6666666666667</ele><time>2026-04-05T16:10:43.423Z</time></trkpt><trkpt lat="43.0460009" lon="12.9006679"><ele>752.3333333333334</ele><time>2026-04-05T16:10:44.424Z</time></trkpt><trkpt lat="43.0459636" lon="12.9004086"><ele>753.0</ele><time>2026-04-05T16:10:45.424Z</time></trkpt><trkpt lat="43.0459205" lon="12.9001476"><ele>752.6666666666666</ele><time>2026-04-05T16:10:46.424Z</time></trkpt><trkpt lat="43.0458713" lon="12.8998906"><ele>752.3333333333333</ele><time>2026-04-05T16:10:47.423Z</time></trkpt><trkpt lat="43.0458136" lon="12.8996428"><ele>752.0</ele><time>2026-04-05T16:10:48.424Z</time></trkpt><trkpt lat="43.0457387" lon="12.8994004"><ele>752.0</ele><time>2026-04-05T16:10:49.424Z</time></trkpt><trkpt lat="43.0456549" lon="12.8991689"><ele>752.0</ele><time>2026-04-05T16:10:50.423Z</time></trkpt><trkpt lat="43.0455507" lon="12.8989623"><ele>752.0</ele><time>2026-04-05T16:10:51.424Z</time></trkpt><trkpt lat="43.0454276" lon="12.8987655"><ele>752.0</ele><time>2026-04-05T16:10:52.424Z</time></trkpt><trkpt lat="43.0452982" lon="12.8985894"><ele>752.0</ele><time>2026-04-05T16:10:53.423Z</time></trkpt><trkpt lat="43.0451576" lon="12.898431"><ele>752.0</ele><time>2026-04-05T16:10:54.424Z</time></trkpt><trkpt lat="43.0450105" lon="12.8982858"><ele>755.3333333333333</ele><time>2026-04-05T16:10:55.424Z</time></trkpt><trkpt lat="43.0448462" lon="12.8981549"><ele>758.6666666666666</ele><time>2026-04-05T16:10:56.424Z</time></trkpt><trkpt lat="43.0446764" lon="12.8980665"><ele>762.0</ele><time>2026-04-05T16:10:57.423Z</time></trkpt><trkpt lat="43.0445031" lon="12.8980082"><ele>762.0</ele><time>2026-04-05T16:10:58.424Z</time></trkpt><trkpt lat="43.0443198" lon="12.8979692"><ele>762.0</ele><time>2026-04-05T16:10:59.424Z</time></trkpt><trkpt lat="43.0441328" lon="12.8979424"><ele>762.0</ele><time>2026-04-05T16:11:00.424Z</time></trkpt><trkpt lat="43.0439441" lon="12.8979183"><ele>760.3333333333334</ele><time>2026-04-05T16:11:01.424Z</time></trkpt><trkpt lat="43.0437491" lon="12.8978964"><ele>758.6666666666667</ele><time>2026-04-05T16:11:02.424Z</time></trkpt><trkpt lat="43.0435559" lon="12.8978772"><ele>757.0</ele><time>2026-04-05T16:11:03.424Z</time></trkpt><trkpt lat="43.0433597" lon="12.8978728"><ele>757.3333333333334</ele><time>2026-04-05T16:11:04.423Z</time></trkpt><trkpt lat="43.0431595" lon="12.8978717"><ele>757.6666666666666</ele><time>2026-04-05T16:11:05.424Z</time></trkpt><trkpt lat="43.0429666" lon="12.8978798"><ele>758.0</ele><time>2026-04-05T16:11:06.424Z</time></trkpt><trkpt lat="43.0427758" lon="12.8978902"><ele>758.0</ele><time>2026-04-05T16:11:07.424Z</time></trkpt><trkpt lat="43.0425798" lon="12.8979153"><ele>758.0</ele><time>2026-04-05T16:11:08.424Z</time></trkpt><trkpt lat="43.0423921" lon="12.8979383"><ele>758.0</ele><time>2026-04-05T16:11:09.423Z</time></trkpt><trkpt lat="43.0422032" lon="12.8979493"><ele>756.6666666666666</ele><time>2026-04-05T16:11:10.424Z</time></trkpt><trkpt lat="43.0420141" lon="12.8979639"><ele>755.3333333333334</ele><time>2026-04-05T16:11:11.424Z</time></trkpt><trkpt lat="43.0418278" lon="12.8979756"><ele>754.0</ele><time>2026-04-05T16:11:12.423Z</time></trkpt><trkpt lat="43.0416374" lon="12.897983"><ele>754.0</ele><time>2026-04-05T16:11:13.424Z</time></trkpt><trkpt lat="43.0414539" lon="12.8979868"><ele>754.0</ele><time>2026-04-05T16:11:14.424Z</time></trkpt><trkpt lat="43.041258" lon="12.8979911"><ele>754.0</ele><time>2026-04-05T16:11:15.423Z</time></trkpt><trkpt lat="43.0410675" lon="12.8979977"><ele>754.0</ele><time>2026-04-05T16:11:16.423Z</time></trkpt><trkpt lat="43.0408812" lon="12.8980022"><ele>754.0</ele><time>2026-04-05T16:11:17.424Z</time></trkpt><trkpt lat="43.0406962" lon="12.8980031"><ele>754.0</ele><time>2026-04-05T16:11:18.423Z</time></trkpt><trkpt lat="43.0405064" lon="12.8979944"><ele>754.0</ele><time>2026-04-05T16:11:19.423Z</time></trkpt><trkpt lat="43.0403299" lon="12.8979716"><ele>754.0</ele><time>2026-04-05T16:11:20.424Z</time></trkpt><trkpt lat="43.040147" lon="12.8979276"><ele>754.0</ele><time>2026-04-05T16:11:21.424Z</time></trkpt><trkpt lat="43.039966" lon="12.8978808"><ele>754.6666666666667</ele><time>2026-04-05T16:11:22.424Z</time></trkpt><trkpt lat="43.0397841" lon="12.8978293"><ele>755.3333333333334</ele><time>2026-04-05T16:11:23.424Z</time></trkpt><trkpt lat="43.0396038" lon="12.8977721"><ele>756.0</ele><time>2026-04-05T16:11:24.423Z</time></trkpt><trkpt lat="43.0394202" lon="12.897714"><ele>756.0</ele><time>2026-04-05T16:11:25.423Z</time></trkpt><trkpt lat="43.0392363" lon="12.8976518"><ele>756.0</ele><time>2026-04-05T16:11:26.424Z</time></trkpt><trkpt lat="43.0390512" lon="12.8975883"><ele>756.0</ele><time>2026-04-05T16:11:27.424Z</time></trkpt><trkpt lat="43.0388696" lon="12.8975235"><ele>757.0</ele><time>2026-04-05T16:11:28.424Z</time></trkpt><trkpt lat="43.0386886" lon="12.8974567"><ele>758.0</ele><time>2026-04-05T16:11:29.424Z</time></trkpt><trkpt lat="43.0385109" lon="12.8973654"><ele>759.0</ele><time>2026-04-05T16:11:30.424Z</time></trkpt><trkpt lat="43.0383312" lon="12.8972795"><ele>758.0</ele><time>2026-04-05T16:11:31.424Z</time></trkpt><trkpt lat="43.0381529" lon="12.8971953"><ele>757.0</ele><time>2026-04-05T16:11:32.424Z</time></trkpt><trkpt lat="43.0379808" lon="12.8971117"><ele>756.0</ele><time>2026-04-05T16:11:33.423Z</time></trkpt><trkpt lat="43.0378157" lon="12.8970279"><ele>756.0</ele><time>2026-04-05T16:11:34.424Z</time></trkpt><trkpt lat="43.0376542" lon="12.8969322"><ele>756.0</ele><time>2026-04-05T16:11:35.424Z</time></trkpt><trkpt lat="43.0374952" lon="12.8968454"><ele>756.0</ele><time>2026-04-05T16:11:36.424Z</time></trkpt><trkpt lat="43.0373399" lon="12.8967669"><ele>756.6666666666666</ele><time>2026-04-05T16:11:37.424Z</time></trkpt><trkpt lat="43.0371896" lon="12.8966832"><ele>757.3333333333333</ele><time>2026-04-05T16:11:38.423Z</time></trkpt><trkpt lat="43.0370476" lon="12.8966074"><ele>758.0</ele><time>2026-04-05T16:11:39.424Z</time></trkpt><trkpt lat="43.0368984" lon="12.8965297"><ele>758.0</ele><time>2026-04-05T16:11:40.424Z</time></trkpt><trkpt lat="43.036756" lon="12.8964513"><ele>758.0</ele><time>2026-04-05T16:11:41.424Z</time></trkpt><trkpt lat="43.0366187" lon="12.8963596"><ele>758.0</ele><time>2026-04-05T16:11:42.424Z</time></trkpt><trkpt lat="43.0364799" lon="12.8962799"><ele>758.25</ele><time>2026-04-05T16:11:43.424Z</time></trkpt><trkpt lat="43.0363526" lon="12.8962021"><ele>758.5</ele><time>2026-04-05T16:11:44.424Z</time></trkpt><trkpt lat="43.0362321" lon="12.8961233"><ele>758.75</ele><time>2026-04-05T16:11:45.424Z</time></trkpt><trkpt lat="43.0361072" lon="12.8960499"><ele>759.0</ele><time>2026-04-05T16:11:46.424Z</time></trkpt><trkpt lat="43.0359757" lon="12.8959746"><ele>758.75</ele><time>2026-04-05T16:11:47.423Z</time></trkpt><trkpt lat="43.0358585" lon="12.8959029"><ele>758.5</ele><time>2026-04-05T16:11:48.423Z</time></trkpt><trkpt lat="43.0357294" lon="12.895832"><ele>758.25</ele><time>2026-04-05T16:11:49.424Z</time></trkpt><trkpt lat="43.0356002" lon="12.8957557"><ele>758.0</ele><time>2026-04-05T16:11:50.424Z</time></trkpt><trkpt lat="43.035478" lon="12.8956843"><ele>758.5</ele><time>2026-04-05T16:11:51.424Z</time></trkpt><trkpt lat="43.0353511" lon="12.8956181"><ele>759.0</ele><time>2026-04-05T16:11:52.423Z</time></trkpt><trkpt lat="43.0352255" lon="12.8955489"><ele>759.5</ele><time>2026-04-05T16:11:53.423Z</time></trkpt><trkpt lat="43.0351041" lon="12.8954721"><ele>760.0</ele><time>2026-04-05T16:11:54.424Z</time></trkpt><trkpt lat="43.0349747" lon="12.8954002"><ele>759.25</ele><time>2026-04-05T16:11:55.424Z</time></trkpt><trkpt lat="43.03485" lon="12.8953273"><ele>758.5</ele><time>2026-04-05T16:11:56.424Z</time></trkpt><trkpt lat="43.0347235" lon="12.8952541"><ele>757.75</ele><time>2026-04-05T16:11:57.423Z</time></trkpt><trkpt lat="43.0345996" lon="12.8951845"><ele>757.0</ele><time>2026-04-05T16:11:58.424Z</time></trkpt><trkpt lat="43.0344671" lon="12.8951065"><ele>757.25</ele><time>2026-04-05T16:11:59.423Z</time></trkpt><trkpt lat="43.0343394" lon="12.8950359"><ele>757.5</ele><time>2026-04-05T16:12:00.424Z</time></trkpt><trkpt lat="43.0342082" lon="12.8949691"><ele>757.75</ele><time>2026-04-05T16:12:01.424Z</time></trkpt><trkpt lat="43.0340804" lon="12.8948906"><ele>758.0</ele><time>2026-04-05T16:12:02.424Z</time></trkpt><trkpt lat="43.0339504" lon="12.894816"><ele>758.0</ele><time>2026-04-05T16:12:03.424Z</time></trkpt><trkpt lat="43.0338212" lon="12.8947372"><ele>758.0</ele><time>2026-04-05T16:12:04.424Z</time></trkpt><trkpt lat="43.0336911" lon="12.8946583"><ele>758.0</ele><time>2026-04-05T16:12:05.424Z</time></trkpt><trkpt lat="43.0335642" lon="12.8945835"><ele>758.0</ele><time>2026-04-05T16:12:06.424Z</time></trkpt><trkpt lat="43.0334389" lon="12.8945018"><ele>758.0</ele><time>2026-04-05T16:12:07.424Z</time></trkpt><trkpt lat="43.0333104" lon="12.894422"><ele>758.0</ele><time>2026-04-05T16:12:08.424Z</time></trkpt><trkpt lat="43.0331819" lon="12.8943446"><ele>758.0</ele><time>2026-04-05T16:12:09.424Z</time></trkpt><trkpt lat="43.0330538" lon="12.894272"><ele>758.0</ele><time>2026-04-05T16:12:10.424Z</time></trkpt><trkpt lat="43.0329297" lon="12.8942072"><ele>758.0</ele><time>2026-04-05T16:12:11.424Z</time></trkpt><trkpt lat="43.0328066" lon="12.8941409"><ele>758.0</ele><time>2026-04-05T16:12:12.423Z</time></trkpt><trkpt lat="43.0326863" lon="12.8940634"><ele>758.0</ele><time>2026-04-05T16:12:13.424Z</time></trkpt><trkpt lat="43.0325611" lon="12.8939968"><ele>758.0</ele><time>2026-04-05T16:12:14.423Z</time></trkpt><trkpt lat="43.0324406" lon="12.893928"><ele>758.0</ele><time>2026-04-05T16:12:15.424Z</time></trkpt><trkpt lat="43.0323232" lon="12.8938603"><ele>758.0</ele><time>2026-04-05T16:12:16.423Z</time></trkpt><trkpt lat="43.0321982" lon="12.8937886"><ele>758.0</ele><time>2026-04-05T16:12:17.424Z</time></trkpt><trkpt lat="43.0320727" lon="12.8937148"><ele>758.0</ele><time>2026-04-05T16:12:18.424Z</time></trkpt><trkpt lat="43.0319636" lon="12.8936362"><ele>758.0</ele><time>2026-04-05T16:12:19.424Z</time></trkpt><trkpt lat="43.0318488" lon="12.8935469"><ele>758.0</ele><time>2026-04-05T16:12:20.424Z</time></trkpt><trkpt lat="43.0317288" lon="12.8934495"><ele>758.0</ele><time>2026-04-05T16:12:21.424Z</time></trkpt><trkpt lat="43.0316232" lon="12.8933722"><ele>758.0</ele><time>2026-04-05T16:12:22.424Z</time></trkpt><trkpt lat="43.0315176" lon="12.8932861"><ele>758.75</ele><time>2026-04-05T16:12:23.424Z</time></trkpt><trkpt lat="43.0314207" lon="12.8931895"><ele>759.5</ele><time>2026-04-05T16:12:24.424Z</time></trkpt><trkpt lat="43.0313111" lon="12.8931091"><ele>760.25</ele><time>2026-04-05T16:12:25.424Z</time></trkpt><trkpt lat="43.0312031" lon="12.8930187"><ele>761.0</ele><time>2026-04-05T16:12:26.423Z</time></trkpt><trkpt lat="43.0310866" lon="12.892936"><ele>761.0</ele><time>2026-04-05T16:12:27.424Z</time></trkpt><trkpt lat="43.030976" lon="12.8928559"><ele>761.0</ele><time>2026-04-05T16:12:28.423Z</time></trkpt><trkpt lat="43.0308591" lon="12.8927634"><ele>761.0</ele><time>2026-04-05T16:12:29.424Z</time></trkpt><trkpt lat="43.0307435" lon="12.8926618"><ele>761.0</ele><time>2026-04-05T16:12:30.424Z</time></trkpt><trkpt lat="43.030625" lon="12.8925598"><ele>761.0</ele><time>2026-04-05T16:12:31.424Z</time></trkpt><trkpt lat="43.0304985" lon="12.8924575"><ele>761.0</ele><time>2026-04-05T16:12:32.424Z</time></trkpt><trkpt lat="43.0303821" lon="12.8923554"><ele>761.0</ele><time>2026-04-05T16:12:33.423Z</time></trkpt><trkpt lat="43.0302472" lon="12.892265"><ele>761.0</ele><time>2026-04-05T16:12:34.424Z</time></trkpt><trkpt lat="43.0301315" lon="12.8921674"><ele>761.0</ele><time>2026-04-05T16:12:35.424Z</time></trkpt><trkpt lat="43.030014" lon="12.8920718"><ele>761.0</ele><time>2026-04-05T16:12:36.424Z</time></trkpt><trkpt lat="43.0299032" lon="12.891984"><ele>761.0</ele><time>2026-04-05T16:12:37.424Z</time></trkpt><trkpt lat="43.0297879" lon="12.8919127"><ele>761.0</ele><time>2026-04-05T16:12:38.424Z</time></trkpt><trkpt lat="43.029673" lon="12.8918387"><ele>760.75</ele><time>2026-04-05T16:12:39.424Z</time></trkpt><trkpt lat="43.0295532" lon="12.8917797"><ele>760.5</ele><time>2026-04-05T16:12:40.424Z</time></trkpt><trkpt lat="43.0294356" lon="12.8917101"><ele>760.25</ele><time>2026-04-05T16:12:41.423Z</time></trkpt><trkpt lat="43.0293117" lon="12.8916496"><ele>760.0</ele><time>2026-04-05T16:12:42.424Z</time></trkpt><trkpt lat="43.0291885" lon="12.8915911"><ele>761.0</ele><time>2026-04-05T16:12:43.424Z</time></trkpt><trkpt lat="43.0290671" lon="12.8915309"><ele>762.0</ele><time>2026-04-05T16:12:44.424Z</time></trkpt><trkpt lat="43.0289541" lon="12.8914739"><ele>763.0</ele><time>2026-04-05T16:12:45.423Z</time></trkpt><trkpt lat="43.0288427" lon="12.8914218"><ele>764.0</ele><time>2026-04-05T16:12:46.424Z</time></trkpt><trkpt lat="43.0287348" lon="12.8913714"><ele>764.0</ele><time>2026-04-05T16:12:47.424Z</time></trkpt><trkpt lat="43.02864" lon="12.8913318"><ele>764.0</ele><time>2026-04-05T16:12:48.424Z</time></trkpt><trkpt lat="43.028544" lon="12.8912855"><ele>764.0</ele><time>2026-04-05T16:12:49.423Z</time></trkpt><trkpt lat="43.0284457" lon="12.8912384"><ele>764.0</ele><time>2026-04-05T16:12:50.424Z</time></trkpt><trkpt lat="43.028355" lon="12.8911856"><ele>764.0</ele><time>2026-04-05T16:12:51.424Z</time></trkpt><trkpt lat="43.0282484" lon="12.891133"><ele>764.4000000000001</ele><time>2026-04-05T16:12:52.424Z</time></trkpt><trkpt lat="43.0281441" lon="12.891078"><ele>764.8</ele><time>2026-04-05T16:12:53.424Z</time></trkpt><trkpt lat="43.0280516" lon="12.8910126"><ele>765.2</ele><time>2026-04-05T16:12:54.424Z</time></trkpt><trkpt lat="43.0279575" lon="12.8909298"><ele>765.5999999999999</ele><time>2026-04-05T16:12:55.424Z</time></trkpt><trkpt lat="43.0278822" lon="12.8908102"><ele>766.0</ele><time>2026-04-05T16:12:56.423Z</time></trkpt><trkpt lat="43.0278188" lon="12.8906813"><ele>766.0</ele><time>2026-04-05T16:12:57.423Z</time></trkpt><trkpt lat="43.0277781" lon="12.8905362"><ele>766.0</ele><time>2026-04-05T16:12:58.424Z</time></trkpt><trkpt lat="43.0277529" lon="12.8903794"><ele>766.0</ele><time>2026-04-05T16:12:59.424Z</time></trkpt><trkpt lat="43.027734" lon="12.8902224"><ele>766.0</ele><time>2026-04-05T16:13:00.424Z</time></trkpt><trkpt lat="43.0277185" lon="12.8900761"><ele>764.75</ele><time>2026-04-05T16:13:01.423Z</time></trkpt><trkpt lat="43.0276978" lon="12.8899092"><ele>763.5</ele><time>2026-04-05T16:13:02.424Z</time></trkpt><trkpt lat="43.0276462" lon="12.8897541"><ele>762.25</ele><time>2026-04-05T16:13:03.424Z</time></trkpt><trkpt lat="43.0276045" lon="12.8895921"><ele>761.0</ele><time>2026-04-05T16:13:04.424Z</time></trkpt><trkpt lat="43.0275496" lon="12.8894314"><ele>761.0</ele><time>2026-04-05T16:13:05.424Z</time></trkpt><trkpt lat="43.0274921" lon="12.8892789"><ele>761.0</ele><time>2026-04-05T16:13:06.424Z</time></trkpt><trkpt lat="43.0274293" lon="12.8891147"><ele>761.0</ele><time>2026-04-05T16:13:07.424Z</time></trkpt><trkpt lat="43.027364" lon="12.8889477"><ele>761.0</ele><time>2026-04-05T16:13:08.424Z</time></trkpt><trkpt lat="43.0272905" lon="12.8887833"><ele>760.75</ele><time>2026-04-05T16:13:09.424Z</time></trkpt><trkpt lat="43.0272018" lon="12.8886379"><ele>760.5</ele><time>2026-04-05T16:13:10.424Z</time></trkpt><trkpt lat="43.0271076" lon="12.8885079"><ele>760.25</ele><time>2026-04-05T16:13:11.424Z</time></trkpt><trkpt lat="43.0270199" lon="12.8883749"><ele>760.0</ele><time>2026-04-05T16:13:12.424Z</time></trkpt><trkpt lat="43.0269369" lon="12.8882378"><ele>760.5</ele><time>2026-04-05T16:13:13.424Z</time></trkpt><trkpt lat="43.0268627" lon="12.8880921"><ele>761.0</ele><time>2026-04-05T16:13:14.424Z</time></trkpt><trkpt lat="43.0267825" lon="12.8879488"><ele>761.5</ele><time>2026-04-05T16:13:15.424Z</time></trkpt><trkpt lat="43.0267152" lon="12.8877969"><ele>762.0</ele><time>2026-04-05T16:13:16.424Z</time></trkpt><trkpt lat="43.0266524" lon="12.8876368"><ele>761.75</ele><time>2026-04-05T16:13:17.424Z</time></trkpt><trkpt lat="43.0265938" lon="12.8874751"><ele>761.5</ele><time>2026-04-05T16:13:18.424Z</time></trkpt><trkpt lat="43.0265336" lon="12.887296"><ele>761.25</ele><time>2026-04-05T16:13:19.423Z</time></trkpt><trkpt lat="43.0264792" lon="12.8871089"><ele>761.0</ele><time>2026-04-05T16:13:20.424Z</time></trkpt><trkpt lat="43.0264227" lon="12.8869305"><ele>761.25</ele><time>2026-04-05T16:13:21.424Z</time></trkpt><trkpt lat="43.0263557" lon="12.8867602"><ele>761.5</ele><time>2026-04-05T16:13:22.424Z</time></trkpt><trkpt lat="43.0262855" lon="12.8865947"><ele>761.75</ele><time>2026-04-05T16:13:23.424Z</time></trkpt><trkpt lat="43.0262038" lon="12.8864334"><ele>762.0</ele><time>2026-04-05T16:13:24.424Z</time></trkpt><trkpt lat="43.0261138" lon="12.8862705"><ele>762.0</ele><time>2026-04-05T16:13:25.424Z</time></trkpt><trkpt lat="43.0260218" lon="12.8860993"><ele>762.0</ele><time>2026-04-05T16:13:26.423Z</time></trkpt><trkpt lat="43.0259421" lon="12.8859134"><ele>762.0</ele><time>2026-04-05T16:13:27.424Z</time></trkpt><trkpt lat="43.0258625" lon="12.8857137"><ele>761.0</ele><time>2026-04-05T16:13:28.424Z</time></trkpt><trkpt lat="43.0257956" lon="12.8855018"><ele>760.0</ele><time>2026-04-05T16:13:29.423Z</time></trkpt><trkpt lat="43.0257288" lon="12.8852972"><ele>759.0</ele><time>2026-04-05T16:13:30.423Z</time></trkpt><trkpt lat="43.0256712" lon="12.8850939"><ele>758.5</ele><time>2026-04-05T16:13:31.424Z</time></trkpt><trkpt lat="43.0256107" lon="12.8849029"><ele>758.0</ele><time>2026-04-05T16:13:32.424Z</time></trkpt><trkpt lat="43.0255513" lon="12.8847345"><ele>757.5</ele><time>2026-04-05T16:13:33.423Z</time></trkpt><trkpt lat="43.0254899" lon="12.8845793"><ele>757.0</ele><time>2026-04-05T16:13:34.424Z</time></trkpt><trkpt lat="43.0253964" lon="12.8844533"><ele>757.0</ele><time>2026-04-05T16:13:35.424Z</time></trkpt><trkpt lat="43.0252864" lon="12.8843622"><ele>757.0</ele><time>2026-04-05T16:13:36.424Z</time></trkpt><trkpt lat="43.0251714" lon="12.8842967"><ele>757.0</ele><time>2026-04-05T16:13:37.424Z</time></trkpt><trkpt lat="43.0250426" lon="12.8842838"><ele>757.0</ele><time>2026-04-05T16:13:38.424Z</time></trkpt><trkpt lat="43.0249145" lon="12.8842914"><ele>758.75</ele><time>2026-04-05T16:13:39.424Z</time></trkpt><trkpt lat="43.0247864" lon="12.8843232"><ele>760.5</ele><time>2026-04-05T16:13:40.424Z</time></trkpt><trkpt lat="43.0246657" lon="12.8843416"><ele>762.25</ele><time>2026-04-05T16:13:41.424Z</time></trkpt><trkpt lat="43.0245537" lon="12.8843387"><ele>764.0</ele><time>2026-04-05T16:13:42.424Z</time></trkpt><trkpt lat="43.0244602" lon="12.8843098"><ele>763.8000000000001</ele><time>2026-04-05T16:13:43.424Z</time></trkpt><trkpt lat="43.0243883" lon="12.88424"><ele>763.6</ele><time>2026-04-05T16:13:44.424Z</time></trkpt><trkpt lat="43.0243389" lon="12.884129"><ele>763.4</ele><time>2026-04-05T16:13:45.424Z</time></trkpt><trkpt lat="43.0243013" lon="12.8839974"><ele>763.2</ele><time>2026-04-05T16:13:46.424Z</time></trkpt><trkpt lat="43.0242771" lon="12.8838452"><ele>763.0</ele><time>2026-04-05T16:13:47.424Z</time></trkpt><trkpt lat="43.0242699" lon="12.8836805"><ele>763.0</ele><time>2026-04-05T16:13:48.424Z</time></trkpt><trkpt lat="43.0242705" lon="12.8835031"><ele>763.0</ele><time>2026-04-05T16:13:49.424Z</time></trkpt><trkpt lat="43.0242717" lon="12.8833233"><ele>763.0</ele><time>2026-04-05T16:13:50.424Z</time></trkpt><trkpt lat="43.0242787" lon="12.883139"><ele>763.0</ele><time>2026-04-05T16:13:51.424Z</time></trkpt><trkpt lat="43.0242777" lon="12.8829627"><ele>763.25</ele><time>2026-04-05T16:13:52.424Z</time></trkpt><trkpt lat="43.0242421" lon="12.8827913"><ele>763.5</ele><time>2026-04-05T16:13:53.424Z</time></trkpt><trkpt lat="43.0241932" lon="12.8826316"><ele>763.75</ele><time>2026-04-05T16:13:54.424Z</time></trkpt><trkpt lat="43.024134" lon="12.8824705"><ele>764.0</ele><time>2026-04-05T16:13:55.424Z</time></trkpt><trkpt lat="43.0240522" lon="12.882325"><ele>765.5</ele><time>2026-04-05T16:13:56.424Z</time></trkpt><trkpt lat="43.023961" lon="12.8822074"><ele>767.0</ele><time>2026-04-05T16:13:57.424Z</time></trkpt><trkpt lat="43.0238516" lon="12.8821124"><ele>768.5</ele><time>2026-04-05T16:13:58.424Z</time></trkpt><trkpt lat="43.0237176" lon="12.8820498"><ele>770.0</ele><time>2026-04-05T16:13:59.424Z</time></trkpt><trkpt lat="43.0235788" lon="12.8820128"><ele>770.0</ele><time>2026-04-05T16:14:00.424Z</time></trkpt><trkpt lat="43.0234346" lon="12.881999"><ele>770.0</ele><time>2026-04-05T16:14:01.424Z</time></trkpt><trkpt lat="43.0232732" lon="12.8820067"><ele>770.0</ele><time>2026-04-05T16:14:02.424Z</time></trkpt><trkpt lat="43.0231115" lon="12.8820218"><ele>771.0</ele><time>2026-04-05T16:14:03.424Z</time></trkpt><trkpt lat="43.0229564" lon="12.8820479"><ele>772.0</ele><time>2026-04-05T16:14:04.423Z</time></trkpt><trkpt lat="43.0227977" lon="12.8820496"><ele>773.0</ele><time>2026-04-05T16:14:05.423Z</time></trkpt><trkpt lat="43.02264" lon="12.8820194"><ele>773.0</ele><time>2026-04-05T16:14:06.424Z</time></trkpt><trkpt lat="43.0224834" lon="12.8819553"><ele>773.0</ele><time>2026-04-05T16:14:07.423Z</time></trkpt><trkpt lat="43.0223397" lon="12.8818652"><ele>773.0</ele><time>2026-04-05T16:14:08.424Z</time></trkpt><trkpt lat="43.0221794" lon="12.8817621"><ele>770.0</ele><time>2026-04-05T16:14:09.424Z</time></trkpt><trkpt lat="43.0220137" lon="12.8816557"><ele>767.0</ele><time>2026-04-05T16:14:10.424Z</time></trkpt><trkpt lat="43.0218549" lon="12.8815418"><ele>764.0</ele><time>2026-04-05T16:14:11.423Z</time></trkpt><trkpt lat="43.0216908" lon="12.8814248"><ele>766.6666666666666</ele><time>2026-04-05T16:14:12.424Z</time></trkpt><trkpt lat="43.0215166" lon="12.8813024"><ele>769.3333333333333</ele><time>2026-04-05T16:14:13.424Z</time></trkpt><trkpt lat="43.0213422" lon="12.8811749"><ele>772.0</ele><time>2026-04-05T16:14:14.423Z</time></trkpt><trkpt lat="43.0211698" lon="12.8810505"><ele>770.3333333333333</ele><time>2026-04-05T16:14:15.424Z</time></trkpt><trkpt lat="43.0210055" lon="12.8809233"><ele>768.6666666666666</ele><time>2026-04-05T16:14:16.424Z</time></trkpt><trkpt lat="43.0208544" lon="12.8807748"><ele>767.0</ele><time>2026-04-05T16:14:17.423Z</time></trkpt><trkpt lat="43.020716" lon="12.8806016"><ele>767.0</ele><time>2026-04-05T16:14:18.423Z</time></trkpt><trkpt lat="43.0205851" lon="12.8804209"><ele>767.0</ele><time>2026-04-05T16:14:19.423Z</time></trkpt><trkpt lat="43.0204969" lon="12.8802227"><ele>767.0</ele><time>2026-04-05T16:14:20.424Z</time></trkpt><trkpt lat="43.0204055" lon="12.8800483"><ele>766.0</ele><time>2026-04-05T16:14:21.423Z</time></trkpt><trkpt lat="43.0203078" lon="12.8798745"><ele>765.0</ele><time>2026-04-05T16:14:22.423Z</time></trkpt><trkpt lat="43.0201791" lon="12.8797529"><ele>764.0</ele><time>2026-04-05T16:14:23.423Z</time></trkpt><trkpt lat="43.0200388" lon="12.8796457"><ele>768.0</ele><time>2026-04-05T16:14:24.424Z</time></trkpt><trkpt lat="43.0198813" lon="12.8795281"><ele>772.0</ele><time>2026-04-05T16:14:25.424Z</time></trkpt><trkpt lat="43.0197145" lon="12.8794162"><ele>776.0</ele><time>2026-04-05T16:14:26.424Z</time></trkpt><trkpt lat="43.0195374" lon="12.8793051"><ele>772.3333333333334</ele><time>2026-04-05T16:14:27.424Z</time></trkpt><trkpt lat="43.019367" lon="12.8791918"><ele>768.6666666666667</ele><time>2026-04-05T16:14:28.423Z</time></trkpt><trkpt lat="43.0191901" lon="12.879085"><ele>765.0</ele><time>2026-04-05T16:14:29.423Z</time></trkpt><trkpt lat="43.0190173" lon="12.8789717"><ele>765.0</ele><time>2026-04-05T16:14:30.424Z</time></trkpt><trkpt lat="43.0188265" lon="12.8788797"><ele>765.0</ele><time>2026-04-05T16:14:31.424Z</time></trkpt><trkpt lat="43.0186347" lon="12.8788004"><ele>765.0</ele><time>2026-04-05T16:14:32.424Z</time></trkpt><trkpt lat="43.0184452" lon="12.8787154"><ele>764.6666666666666</ele><time>2026-04-05T16:14:33.423Z</time></trkpt><trkpt lat="43.0182579" lon="12.878597"><ele>764.3333333333333</ele><time>2026-04-05T16:14:34.424Z</time></trkpt><trkpt lat="43.0180876" lon="12.8784623"><ele>764.0</ele><time>2026-04-05T16:14:35.424Z</time></trkpt><trkpt lat="43.01792" lon="12.8783127"><ele>763.6666666666666</ele><time>2026-04-05T16:14:36.423Z</time></trkpt><trkpt lat="43.0177574" lon="12.8781643"><ele>763.3333333333334</ele><time>2026-04-05T16:14:37.424Z</time></trkpt><trkpt lat="43.0175933" lon="12.8780118"><ele>763.0</ele><time>2026-04-05T16:14:38.424Z</time></trkpt><trkpt lat="43.0174336" lon="12.8778616"><ele>763.0</ele><time>2026-04-05T16:14:39.424Z</time></trkpt><trkpt lat="43.0172732" lon="12.8776984"><ele>763.0</ele><time>2026-04-05T16:14:40.423Z</time></trkpt><trkpt lat="43.0171161" lon="12.8775427"><ele>763.0</ele><time>2026-04-05T16:14:41.424Z</time></trkpt><trkpt lat="43.0169653" lon="12.8773905"><ele>762.0</ele><time>2026-04-05T16:14:42.423Z</time></trkpt><trkpt lat="43.0168217" lon="12.8772385"><ele>761.0</ele><time>2026-04-05T16:14:43.424Z</time></trkpt><trkpt lat="43.0166758" lon="12.8770785"><ele>760.0</ele><time>2026-04-05T16:14:44.424Z</time></trkpt><trkpt lat="43.0165284" lon="12.8769122"><ele>760.0</ele><time>2026-04-05T16:14:45.424Z</time></trkpt><trkpt lat="43.0163837" lon="12.876754"><ele>760.0</ele><time>2026-04-05T16:14:46.424Z</time></trkpt><trkpt lat="43.016238" lon="12.8766008"><ele>760.0</ele><time>2026-04-05T16:14:47.424Z</time></trkpt><trkpt lat="43.0160918" lon="12.8764508"><ele>760.0</ele><time>2026-04-05T16:14:48.423Z</time></trkpt><trkpt lat="43.0159402" lon="12.8763009"><ele>760.0</ele><time>2026-04-05T16:14:49.423Z</time></trkpt><trkpt lat="43.0157971" lon="12.8761519"><ele>760.0</ele><time>2026-04-05T16:14:50.423Z</time></trkpt><trkpt lat="43.0156486" lon="12.875996"><ele>760.0</ele><time>2026-04-05T16:14:51.424Z</time></trkpt><trkpt lat="43.0154998" lon="12.8758364"><ele>760.0</ele><time>2026-04-05T16:14:52.424Z</time></trkpt><trkpt lat="43.0153574" lon="12.8756819"><ele>760.0</ele><time>2026-04-05T16:14:53.424Z</time></trkpt><trkpt lat="43.0152095" lon="12.8755187"><ele>760.0</ele><time>2026-04-05T16:14:54.424Z</time></trkpt><trkpt lat="43.0150612" lon="12.8753616"><ele>760.0</ele><time>2026-04-05T16:14:55.424Z</time></trkpt><trkpt lat="43.0149127" lon="12.8752027"><ele>760.0</ele><time>2026-04-05T16:14:56.423Z</time></trkpt><trkpt lat="43.0147686" lon="12.8750363"><ele>761.6666666666667</ele><time>2026-04-05T16:14:57.424Z</time></trkpt><trkpt lat="43.0146185" lon="12.8748737"><ele>763.3333333333334</ele><time>2026-04-05T16:14:58.424Z</time></trkpt><trkpt lat="43.0144656" lon="12.8747079"><ele>765.0</ele><time>2026-04-05T16:14:59.424Z</time></trkpt><trkpt lat="43.0143127" lon="12.8745469"><ele>765.0</ele><time>2026-04-05T16:15:00.424Z</time></trkpt><trkpt lat="43.0141594" lon="12.8743922"><ele>765.0</ele><time>2026-04-05T16:15:01.424Z</time></trkpt><trkpt lat="43.0140119" lon="12.8742235"><ele>765.0</ele><time>2026-04-05T16:15:02.423Z</time></trkpt><trkpt lat="43.0138589" lon="12.8740719"><ele>764.3333333333334</ele><time>2026-04-05T16:15:03.424Z</time></trkpt><trkpt lat="43.0137009" lon="12.8739149"><ele>763.6666666666667</ele><time>2026-04-05T16:15:04.424Z</time></trkpt><trkpt lat="43.0135517" lon="12.8737561"><ele>763.0</ele><time>2026-04-05T16:15:05.424Z</time></trkpt><trkpt lat="43.0133961" lon="12.8735948"><ele>763.6666666666667</ele><time>2026-04-05T16:15:06.424Z</time></trkpt><trkpt lat="43.0132445" lon="12.8734369"><ele>764.3333333333334</ele><time>2026-04-05T16:15:07.424Z</time></trkpt><trkpt lat="43.0130903" lon="12.8732733"><ele>765.0</ele><time>2026-04-05T16:15:08.424Z</time></trkpt><trkpt lat="43.0129316" lon="12.8731125"><ele>765.0</ele><time>2026-04-05T16:15:09.424Z</time></trkpt><trkpt lat="43.0127785" lon="12.8729555"><ele>765.0</ele><time>2026-04-05T16:15:10.424Z</time></trkpt><trkpt lat="43.0126303" lon="12.8727813"><ele>765.0</ele><time>2026-04-05T16:15:11.424Z</time></trkpt><trkpt lat="43.0124824" lon="12.8726142"><ele>765.0</ele><time>2026-04-05T16:15:12.424Z</time></trkpt><trkpt lat="43.0123354" lon="12.8724417"><ele>765.0</ele><time>2026-04-05T16:15:13.423Z</time></trkpt><trkpt lat="43.0121803" lon="12.8722739"><ele>765.0</ele><time>2026-04-05T16:15:14.424Z</time></trkpt><trkpt lat="43.0120256" lon="12.8721115"><ele>765.0</ele><time>2026-04-05T16:15:15.424Z</time></trkpt><trkpt lat="43.01187" lon="12.8719581"><ele>765.0</ele><time>2026-04-05T16:15:16.424Z</time></trkpt><trkpt lat="43.0117174" lon="12.8718059"><ele>765.0</ele><time>2026-04-05T16:15:17.424Z</time></trkpt><trkpt lat="43.0115715" lon="12.8716549"><ele>765.6666666666666</ele><time>2026-04-05T16:15:18.424Z</time></trkpt><trkpt lat="43.0114374" lon="12.8715132"><ele>766.3333333333333</ele><time>2026-04-05T16:15:19.424Z</time></trkpt><trkpt lat="43.0113132" lon="12.8713799"><ele>767.0</ele><time>2026-04-05T16:15:20.423Z</time></trkpt><trkpt lat="43.0111927" lon="12.8712564"><ele>767.0</ele><time>2026-04-05T16:15:21.424Z</time></trkpt><trkpt lat="43.0110796" lon="12.8711373"><ele>767.0</ele><time>2026-04-05T16:15:22.424Z</time></trkpt><trkpt lat="43.0109689" lon="12.8710229"><ele>767.0</ele><time>2026-04-05T16:15:23.423Z</time></trkpt><trkpt lat="43.0108717" lon="12.8709132"><ele>767.0</ele><time>2026-04-05T16:15:24.424Z</time></trkpt><trkpt lat="43.0107743" lon="12.8708187"><ele>767.5</ele><time>2026-04-05T16:15:25.424Z</time></trkpt><trkpt lat="43.0106766" lon="12.8707251"><ele>768.0</ele><time>2026-04-05T16:15:26.424Z</time></trkpt><trkpt lat="43.0105839" lon="12.8706353"><ele>768.5</ele><time>2026-04-05T16:15:27.423Z</time></trkpt><trkpt lat="43.010499" lon="12.87053"><ele>769.0</ele><time>2026-04-05T16:15:28.423Z</time></trkpt><trkpt lat="43.0104122" lon="12.8704407"><ele>769.0</ele><time>2026-04-05T16:15:29.423Z</time></trkpt><trkpt lat="43.0103278" lon="12.8703519"><ele>769.0</ele><time>2026-04-05T16:15:30.423Z</time></trkpt><trkpt lat="43.010244" lon="12.8702624"><ele>769.0</ele><time>2026-04-05T16:15:31.423Z</time></trkpt><trkpt lat="43.0101586" lon="12.8701701"><ele>769.0</ele><time>2026-04-05T16:15:32.424Z</time></trkpt><trkpt lat="43.0100671" lon="12.8700838"><ele>769.0</ele><time>2026-04-05T16:15:33.424Z</time></trkpt><trkpt lat="43.0099795" lon="12.8699926"><ele>770.0</ele><time>2026-04-05T16:15:34.424Z</time></trkpt><trkpt lat="43.0098861" lon="12.8698985"><ele>771.0</ele><time>2026-04-05T16:15:35.424Z</time></trkpt><trkpt lat="43.0098011" lon="12.8697974"><ele>772.0</ele><time>2026-04-05T16:15:36.424Z</time></trkpt><trkpt lat="43.0097056" lon="12.8696987"><ele>773.0</ele><time>2026-04-05T16:15:37.424Z</time></trkpt><trkpt lat="43.0096106" lon="12.8695995"><ele>773.0</ele><time>2026-04-05T16:15:38.424Z</time></trkpt><trkpt lat="43.0095148" lon="12.8695026"><ele>773.0</ele><time>2026-04-05T16:15:39.424Z</time></trkpt><trkpt lat="43.0094209" lon="12.8694031"><ele>773.0</ele><time>2026-04-05T16:15:40.423Z</time></trkpt><trkpt lat="43.0093235" lon="12.8693006"><ele>773.0</ele><time>2026-04-05T16:15:41.424Z</time></trkpt><trkpt lat="43.0092147" lon="12.8691957"><ele>774.0</ele><time>2026-04-05T16:15:42.424Z</time></trkpt><trkpt lat="43.0091017" lon="12.8690732"><ele>775.0</ele><time>2026-04-05T16:15:43.423Z</time></trkpt><trkpt lat="43.0089752" lon="12.8689383"><ele>776.0</ele><time>2026-04-05T16:15:44.423Z</time></trkpt><trkpt lat="43.0088466" lon="12.8688146"><ele>776.0</ele><time>2026-04-05T16:15:45.424Z</time></trkpt><trkpt lat="43.0087283" lon="12.8686972"><ele>776.0</ele><time>2026-04-05T16:15:46.424Z</time></trkpt><trkpt lat="43.0086035" lon="12.8685818"><ele>776.0</ele><time>2026-04-05T16:15:47.424Z</time></trkpt><trkpt lat="43.0084698" lon="12.8684569"><ele>776.3333333333334</ele><time>2026-04-05T16:15:48.424Z</time></trkpt><trkpt lat="43.0083409" lon="12.8683366"><ele>776.6666666666667</ele><time>2026-04-05T16:15:49.424Z</time></trkpt><trkpt lat="43.0082018" lon="12.868202"><ele>777.0</ele><time>2026-04-05T16:15:50.424Z</time></trkpt><trkpt lat="43.0080549" lon="12.8680609"><ele>778.0</ele><time>2026-04-05T16:15:51.424Z</time></trkpt><trkpt lat="43.0079112" lon="12.8679175"><ele>779.0</ele><time>2026-04-05T16:15:52.424Z</time></trkpt><trkpt lat="43.0077612" lon="12.8677694"><ele>780.0</ele><time>2026-04-05T16:15:53.424Z</time></trkpt><trkpt lat="43.0076193" lon="12.8676227"><ele>781.3333333333333</ele><time>2026-04-05T16:15:54.423Z</time></trkpt><trkpt lat="43.007479" lon="12.8674803"><ele>782.6666666666666</ele><time>2026-04-05T16:15:55.424Z</time></trkpt><trkpt lat="43.0073455" lon="12.8673371"><ele>784.0</ele><time>2026-04-05T16:15:56.424Z</time></trkpt><trkpt lat="43.0072082" lon="12.8671945"><ele>784.0</ele><time>2026-04-05T16:15:57.424Z</time></trkpt><trkpt lat="43.0070681" lon="12.8670431"><ele>784.0</ele><time>2026-04-05T16:15:58.424Z</time></trkpt><trkpt lat="43.0069291" lon="12.8668984"><ele>784.0</ele><time>2026-04-05T16:15:59.423Z</time></trkpt><trkpt lat="43.006786" lon="12.8667505"><ele>785.6666666666666</ele><time>2026-04-05T16:16:00.424Z</time></trkpt><trkpt lat="43.0066429" lon="12.8666028"><ele>787.3333333333333</ele><time>2026-04-05T16:16:01.424Z</time></trkpt><trkpt lat="43.0064951" lon="12.8664672"><ele>789.0</ele><time>2026-04-05T16:16:02.424Z</time></trkpt><trkpt lat="43.006341" lon="12.8663446"><ele>789.0</ele><time>2026-04-05T16:16:03.423Z</time></trkpt><trkpt lat="43.0061769" lon="12.866247"><ele>789.0</ele><time>2026-04-05T16:16:04.424Z</time></trkpt><trkpt lat="43.0060101" lon="12.8661601"><ele>789.0</ele><time>2026-04-05T16:16:05.423Z</time></trkpt><trkpt lat="43.0058455" lon="12.8660784"><ele>789.3333333333333</ele><time>2026-04-05T16:16:06.424Z</time></trkpt><trkpt lat="43.005686" lon="12.866002"><ele>789.6666666666666</ele><time>2026-04-05T16:16:07.423Z</time></trkpt><trkpt lat="43.005533" lon="12.8659165"><ele>790.0</ele><time>2026-04-05T16:16:08.423Z</time></trkpt><trkpt lat="43.0053827" lon="12.8658159"><ele>790.6666666666666</ele><time>2026-04-05T16:16:09.424Z</time></trkpt><trkpt lat="43.0052369" lon="12.8657024"><ele>791.3333333333333</ele><time>2026-04-05T16:16:10.423Z</time></trkpt><trkpt lat="43.0050982" lon="12.865571"><ele>792.0</ele><time>2026-04-05T16:16:11.424Z</time></trkpt><trkpt lat="43.0049606" lon="12.8654377"><ele>792.0</ele><time>2026-04-05T16:16:12.424Z</time></trkpt><trkpt lat="43.004824" lon="12.8652989"><ele>792.0</ele><time>2026-04-05T16:16:13.424Z</time></trkpt><trkpt lat="43.004686" lon="12.8651641"><ele>792.0</ele><time>2026-04-05T16:16:14.424Z</time></trkpt><trkpt lat="43.0045593" lon="12.8650165"><ele>794.0</ele><time>2026-04-05T16:16:15.423Z</time></trkpt><trkpt lat="43.0044432" lon="12.8648646"><ele>796.0</ele><time>2026-04-05T16:16:16.423Z</time></trkpt><trkpt lat="43.0043285" lon="12.8647015"><ele>798.0</ele><time>2026-04-05T16:16:17.424Z</time></trkpt><trkpt lat="43.0042261" lon="12.8645292"><ele>798.3333333333333</ele><time>2026-04-05T16:16:18.423Z</time></trkpt><trkpt lat="43.0041228" lon="12.864347"><ele>798.6666666666666</ele><time>2026-04-05T16:16:19.424Z</time></trkpt><trkpt lat="43.0040183" lon="12.8641685"><ele>799.0</ele><time>2026-04-05T16:16:20.423Z</time></trkpt><trkpt lat="43.003919" lon="12.8639833"><ele>799.0</ele><time>2026-04-05T16:16:21.424Z</time></trkpt><trkpt lat="43.0038181" lon="12.8637987"><ele>799.0</ele><time>2026-04-05T16:16:22.424Z</time></trkpt><trkpt lat="43.0037202" lon="12.8636231"><ele>799.0</ele><time>2026-04-05T16:16:23.423Z</time></trkpt><trkpt lat="43.0036301" lon="12.8634558"><ele>801.3333333333333</ele><time>2026-04-05T16:16:24.424Z</time></trkpt><trkpt lat="43.0035516" lon="12.8632714"><ele>803.6666666666667</ele><time>2026-04-05T16:16:25.424Z</time></trkpt><trkpt lat="43.0034825" lon="12.8630784"><ele>806.0</ele><time>2026-04-05T16:16:26.423Z</time></trkpt><trkpt lat="43.0034486" lon="12.8628722"><ele>806.0</ele><time>2026-04-05T16:16:27.424Z</time></trkpt><trkpt lat="43.0034448" lon="12.862653"><ele>806.0</ele><time>2026-04-05T16:16:28.424Z</time></trkpt><trkpt lat="43.0034741" lon="12.8624216"><ele>806.0</ele><time>2026-04-05T16:16:29.423Z</time></trkpt><trkpt lat="43.0035209" lon="12.8621901"><ele>807.6666666666667</ele><time>2026-04-05T16:16:30.423Z</time></trkpt><trkpt lat="43.0035684" lon="12.8619605"><ele>809.3333333333333</ele><time>2026-04-05T16:16:31.423Z</time></trkpt><trkpt lat="43.0036036" lon="12.8617279"><ele>811.0</ele><time>2026-04-05T16:16:32.424Z</time></trkpt><trkpt lat="43.0036447" lon="12.8615034"><ele>813.0</ele><time>2026-04-05T16:16:33.424Z</time></trkpt><trkpt lat="43.0036644" lon="12.8612798"><ele>815.0</ele><time>2026-04-05T16:16:34.423Z</time></trkpt><trkpt lat="43.0036523" lon="12.861067"><ele>817.0</ele><time>2026-04-05T16:16:35.424Z</time></trkpt><trkpt lat="43.003634" lon="12.8608562"><ele>819.3333333333333</ele><time>2026-04-05T16:16:36.424Z</time></trkpt><trkpt lat="43.0035879" lon="12.8606419"><ele>821.6666666666667</ele><time>2026-04-05T16:16:37.424Z</time></trkpt><trkpt lat="43.003526" lon="12.8604319"><ele>824.0</ele><time>2026-04-05T16:16:38.424Z</time></trkpt><trkpt lat="43.003452" lon="12.8602198"><ele>825.0</ele><time>2026-04-05T16:16:39.424Z</time></trkpt><trkpt lat="43.0033712" lon="12.8600016"><ele>826.0</ele><time>2026-04-05T16:16:40.424Z</time></trkpt><trkpt lat="43.0032734" lon="12.859778"><ele>827.0</ele><time>2026-04-05T16:16:41.424Z</time></trkpt><trkpt lat="43.003177" lon="12.8595478"><ele>827.6666666666667</ele><time>2026-04-05T16:16:42.423Z</time></trkpt><trkpt lat="43.0030815" lon="12.85932"><ele>828.3333333333333</ele><time>2026-04-05T16:16:43.424Z</time></trkpt><trkpt lat="43.0029902" lon="12.8590901"><ele>829.0</ele><time>2026-04-05T16:16:44.423Z</time></trkpt><trkpt lat="43.0028883" lon="12.8588605"><ele>829.0</ele><time>2026-04-05T16:16:45.424Z</time></trkpt><trkpt lat="43.0027916" lon="12.8586323"><ele>829.0</ele><time>2026-04-05T16:16:46.424Z</time></trkpt><trkpt lat="43.0026878" lon="12.8583991"><ele>829.0</ele><time>2026-04-05T16:16:47.424Z</time></trkpt><trkpt lat="43.0025704" lon="12.8581754"><ele>830.0</ele><time>2026-04-05T16:16:48.423Z</time></trkpt><trkpt lat="43.0024485" lon="12.857953"><ele>831.0</ele><time>2026-04-05T16:16:49.424Z</time></trkpt><trkpt lat="43.0023155" lon="12.8577207"><ele>832.0</ele><time>2026-04-05T16:16:50.423Z</time></trkpt><trkpt lat="43.002174" lon="12.8574953"><ele>829.3333333333333</ele><time>2026-04-05T16:16:51.424Z</time></trkpt><trkpt lat="43.0020357" lon="12.8572736"><ele>826.6666666666667</ele><time>2026-04-05T16:16:52.424Z</time></trkpt><trkpt lat="43.0018973" lon="12.8570511"><ele>824.0</ele><time>2026-04-05T16:16:53.423Z</time></trkpt><trkpt lat="43.0017605" lon="12.8568306"><ele>823.0</ele><time>2026-04-05T16:16:54.424Z</time></trkpt><trkpt lat="43.0016226" lon="12.8566179"><ele>822.0</ele><time>2026-04-05T16:16:55.424Z</time></trkpt><trkpt lat="43.0014864" lon="12.8564046"><ele>821.0</ele><time>2026-04-05T16:16:56.423Z</time></trkpt><trkpt lat="43.0013449" lon="12.8561921"><ele>821.0</ele><time>2026-04-05T16:16:57.424Z</time></trkpt><trkpt lat="43.0012083" lon="12.85598"><ele>821.0</ele><time>2026-04-05T16:16:58.424Z</time></trkpt><trkpt lat="43.0010771" lon="12.8557704"><ele>821.0</ele><time>2026-04-05T16:16:59.424Z</time></trkpt><trkpt lat="43.0009458" lon="12.8555665"><ele>821.6666666666667</ele><time>2026-04-05T16:17:00.424Z</time></trkpt><trkpt lat="43.0008163" lon="12.8553692"><ele>822.3333333333333</ele><time>2026-04-05T16:17:01.424Z</time></trkpt><trkpt lat="43.0006939" lon="12.8551806"><ele>823.0</ele><time>2026-04-05T16:17:02.424Z</time></trkpt><trkpt lat="43.0005733" lon="12.8549873"><ele>821.3333333333333</ele><time>2026-04-05T16:17:03.424Z</time></trkpt><trkpt lat="43.0004493" lon="12.854807"><ele>819.6666666666667</ele><time>2026-04-05T16:17:04.424Z</time></trkpt><trkpt lat="43.000316" lon="12.8546334"><ele>818.0</ele><time>2026-04-05T16:17:05.424Z</time></trkpt><trkpt lat="43.0001763" lon="12.8544727"><ele>818.0</ele><time>2026-04-05T16:17:06.424Z</time></trkpt><trkpt lat="43.0000412" lon="12.8543192"><ele>818.0</ele><time>2026-04-05T16:17:07.424Z</time></trkpt><trkpt lat="42.9999117" lon="12.8541695"><ele>818.0</ele><time>2026-04-05T16:17:08.423Z</time></trkpt><trkpt lat="42.9997837" lon="12.8540204"><ele>814.3333333333334</ele><time>2026-04-05T16:17:09.424Z</time></trkpt><trkpt lat="42.9996703" lon="12.8538499"><ele>810.6666666666667</ele><time>2026-04-05T16:17:10.423Z</time></trkpt><trkpt lat="42.9995632" lon="12.8536716"><ele>807.0</ele><time>2026-04-05T16:17:11.424Z</time></trkpt><trkpt lat="42.9994695" lon="12.8534718"><ele>804.6666666666667</ele><time>2026-04-05T16:17:12.424Z</time></trkpt><trkpt lat="42.999392" lon="12.8532581"><ele>802.3333333333334</ele><time>2026-04-05T16:17:13.424Z</time></trkpt><trkpt lat="42.9993222" lon="12.8530403"><ele>800.0</ele><time>2026-04-05T16:17:14.424Z</time></trkpt><trkpt lat="42.9992638" lon="12.8528149"><ele>800.0</ele><time>2026-04-05T16:17:15.424Z</time></trkpt><trkpt lat="42.9992065" lon="12.8525749"><ele>800.0</ele><time>2026-04-05T16:17:16.424Z</time></trkpt><trkpt lat="42.9991563" lon="12.8523318"><ele>800.0</ele><time>2026-04-05T16:17:17.423Z</time></trkpt><trkpt lat="42.9991004" lon="12.8520829"><ele>800.6666666666667</ele><time>2026-04-05T16:17:18.424Z</time></trkpt><trkpt lat="42.9990453" lon="12.8518352"><ele>801.3333333333333</ele><time>2026-04-05T16:17:19.424Z</time></trkpt><trkpt lat="42.9989948" lon="12.8515825"><ele>802.0</ele><time>2026-04-05T16:17:20.423Z</time></trkpt><trkpt lat="42.9989394" lon="12.8513261"><ele>802.0</ele><time>2026-04-05T16:17:21.424Z</time></trkpt><trkpt lat="42.9988853" lon="12.8510688"><ele>802.0</ele><time>2026-04-05T16:17:22.424Z</time></trkpt><trkpt lat="42.9988348" lon="12.8508117"><ele>802.0</ele><time>2026-04-05T16:17:23.423Z</time></trkpt><trkpt lat="42.9987838" lon="12.8505627"><ele>802.3333333333333</ele><time>2026-04-05T16:17:24.423Z</time></trkpt><trkpt lat="42.9987262" lon="12.8503122"><ele>802.6666666666667</ele><time>2026-04-05T16:17:25.423Z</time></trkpt><trkpt lat="42.9986753" lon="12.8500668"><ele>803.0</ele><time>2026-04-05T16:17:26.423Z</time></trkpt><trkpt lat="42.998626" lon="12.8498167"><ele>802.3333333333334</ele><time>2026-04-05T16:17:27.424Z</time></trkpt><trkpt lat="42.9985748" lon="12.8495684"><ele>801.6666666666667</ele><time>2026-04-05T16:17:28.424Z</time></trkpt><trkpt lat="42.9985249" lon="12.8493277"><ele>801.0</ele><time>2026-04-05T16:17:29.424Z</time></trkpt><trkpt lat="42.9984752" lon="12.8490882"><ele>801.0</ele><time>2026-04-05T16:17:30.424Z</time></trkpt><trkpt lat="42.9984182" lon="12.8488419"><ele>801.0</ele><time>2026-04-05T16:17:31.423Z</time></trkpt><trkpt lat="42.9983678" lon="12.8486091"><ele>801.0</ele><time>2026-04-05T16:17:32.423Z</time></trkpt><trkpt lat="42.9983141" lon="12.8483725"><ele>801.6666666666667</ele><time>2026-04-05T16:17:33.424Z</time></trkpt><trkpt lat="42.9982632" lon="12.8481412"><ele>802.3333333333334</ele><time>2026-04-05T16:17:34.424Z</time></trkpt><trkpt lat="42.9982236" lon="12.8479168"><ele>803.0</ele><time>2026-04-05T16:17:35.424Z</time></trkpt><trkpt lat="42.9981703" lon="12.8476997"><ele>803.75</ele><time>2026-04-05T16:17:36.424Z</time></trkpt><trkpt lat="42.9981306" lon="12.8474934"><ele>804.5</ele><time>2026-04-05T16:17:37.423Z</time></trkpt><trkpt lat="42.9980886" lon="12.8472986"><ele>805.25</ele><time>2026-04-05T16:17:38.424Z</time></trkpt><trkpt lat="42.99804" lon="12.8471236"><ele>806.0</ele><time>2026-04-05T16:17:39.423Z</time></trkpt><trkpt lat="42.9979713" lon="12.8469716"><ele>806.0</ele><time>2026-04-05T16:17:40.424Z</time></trkpt><trkpt lat="42.9978707" lon="12.8468333"><ele>806.0</ele><time>2026-04-05T16:17:41.424Z</time></trkpt><trkpt lat="42.9977557" lon="12.8467283"><ele>806.0</ele><time>2026-04-05T16:17:42.424Z</time></trkpt><trkpt lat="42.9976261" lon="12.8466591"><ele>806.0</ele><time>2026-04-05T16:17:43.424Z</time></trkpt><trkpt lat="42.9974768" lon="12.8466242"><ele>806.3333333333334</ele><time>2026-04-05T16:17:44.423Z</time></trkpt><trkpt lat="42.9973103" lon="12.8466268"><ele>806.6666666666667</ele><time>2026-04-05T16:17:45.424Z</time></trkpt><trkpt lat="42.997138" lon="12.8466406"><ele>807.0</ele><time>2026-04-05T16:17:46.424Z</time></trkpt><trkpt lat="42.9969659" lon="12.8466515"><ele>807.0</ele><time>2026-04-05T16:17:47.424Z</time></trkpt><trkpt lat="42.9967979" lon="12.8466649"><ele>807.0</ele><time>2026-04-05T16:17:48.424Z</time></trkpt><trkpt lat="42.996633" lon="12.8466838"><ele>807.0</ele><time>2026-04-05T16:17:49.424Z</time></trkpt><trkpt lat="42.9964757" lon="12.8466927"><ele>806.5</ele><time>2026-04-05T16:17:50.424Z</time></trkpt><trkpt lat="42.9963283" lon="12.8466952"><ele>806.0</ele><time>2026-04-05T16:17:51.424Z</time></trkpt><trkpt lat="42.9961864" lon="12.8466858"><ele>805.5</ele><time>2026-04-05T16:17:52.424Z</time></trkpt><trkpt lat="42.9960476" lon="12.8466504"><ele>805.0</ele><time>2026-04-05T16:17:53.423Z</time></trkpt><trkpt lat="42.9959223" lon="12.8465534"><ele>800.6666666666666</ele><time>2026-04-05T16:17:54.423Z</time></trkpt><trkpt lat="42.9957946" lon="12.8464297"><ele>796.3333333333333</ele><time>2026-04-05T16:17:55.424Z</time></trkpt><trkpt lat="42.9956787" lon="12.8462721"><ele>792.0</ele><time>2026-04-05T16:17:56.424Z</time></trkpt><trkpt lat="42.9955621" lon="12.8461096"><ele>797.3333333333333</ele><time>2026-04-05T16:17:57.424Z</time></trkpt><trkpt lat="42.9954484" lon="12.8459412"><ele>802.6666666666666</ele><time>2026-04-05T16:17:58.423Z</time></trkpt><trkpt lat="42.9953394" lon="12.8457816"><ele>808.0</ele><time>2026-04-05T16:17:59.424Z</time></trkpt><trkpt lat="42.9952498" lon="12.8455898"><ele>808.0</ele><time>2026-04-05T16:18:00.424Z</time></trkpt><trkpt lat="42.9951789" lon="12.8453788"><ele>808.0</ele><time>2026-04-05T16:18:01.424Z</time></trkpt><trkpt lat="42.9951102" lon="12.8451649"><ele>808.0</ele><time>2026-04-05T16:18:02.423Z</time></trkpt><trkpt lat="42.9950326" lon="12.8449643"><ele>802.3333333333333</ele><time>2026-04-05T16:18:03.423Z</time></trkpt><trkpt lat="42.9949464" lon="12.8447774"><ele>796.6666666666667</ele><time>2026-04-05T16:18:04.423Z</time></trkpt><trkpt lat="42.9948476" lon="12.8446144"><ele>791.0</ele><time>2026-04-05T16:18:05.424Z</time></trkpt><trkpt lat="42.9947468" lon="12.8444685"><ele>791.0</ele><time>2026-04-05T16:18:06.424Z</time></trkpt><trkpt lat="42.9946507" lon="12.8443189"><ele>791.0</ele><time>2026-04-05T16:18:07.424Z</time></trkpt><trkpt lat="42.9946199" lon="12.8441488"><ele>791.0</ele><time>2026-04-05T16:18:08.424Z</time></trkpt><trkpt lat="42.9946018" lon="12.8439615"><ele>791.0</ele><time>2026-04-05T16:18:09.424Z</time></trkpt><trkpt lat="42.9946184" lon="12.8437726"><ele>793.75</ele><time>2026-04-05T16:18:10.424Z</time></trkpt><trkpt lat="42.9946665" lon="12.8435877"><ele>796.5</ele><time>2026-04-05T16:18:11.423Z</time></trkpt><trkpt lat="42.994719" lon="12.8434032"><ele>799.25</ele><time>2026-04-05T16:18:12.424Z</time></trkpt><trkpt lat="42.9947654" lon="12.8432297"><ele>802.0</ele><time>2026-04-05T16:18:13.424Z</time></trkpt><trkpt lat="42.9947838" lon="12.8430428"><ele>802.0</ele><time>2026-04-05T16:18:14.424Z</time></trkpt><trkpt lat="42.9947862" lon="12.8428503"><ele>802.0</ele><time>2026-04-05T16:18:15.423Z</time></trkpt><trkpt lat="42.9947802" lon="12.8426431"><ele>802.0</ele><time>2026-04-05T16:18:16.423Z</time></trkpt><trkpt lat="42.9947639" lon="12.8424412"><ele>802.0</ele><time>2026-04-05T16:18:17.424Z</time></trkpt><trkpt lat="42.9947496" lon="12.8422381"><ele>802.25</ele><time>2026-04-05T16:18:18.423Z</time></trkpt><trkpt lat="42.9947384" lon="12.8420532"><ele>802.5</ele><time>2026-04-05T16:18:19.424Z</time></trkpt><trkpt lat="42.994721" lon="12.8418632"><ele>802.75</ele><time>2026-04-05T16:18:20.424Z</time></trkpt><trkpt lat="42.9947026" lon="12.8416872"><ele>803.0</ele><time>2026-04-05T16:18:21.424Z</time></trkpt><trkpt lat="42.9946854" lon="12.8415276"><ele>803.0</ele><time>2026-04-05T16:18:22.424Z</time></trkpt><trkpt lat="42.9946653" lon="12.8413904"><ele>803.0</ele><time>2026-04-05T16:18:23.424Z</time></trkpt><trkpt lat="42.9946258" lon="12.8412796"><ele>803.0</ele><time>2026-04-05T16:18:24.423Z</time></trkpt><trkpt lat="42.9945573" lon="12.8411941"><ele>803.0</ele><time>2026-04-05T16:18:25.424Z</time></trkpt><trkpt lat="42.9944663" lon="12.841149"><ele>803.0</ele><time>2026-04-05T16:18:26.423Z</time></trkpt><trkpt lat="42.9943642" lon="12.8411394"><ele>803.0</ele><time>2026-04-05T16:18:27.424Z</time></trkpt><trkpt lat="42.9942633" lon="12.8411941"><ele>803.0</ele><time>2026-04-05T16:18:28.424Z</time></trkpt><trkpt lat="42.9941635" lon="12.8412991"><ele>803.0</ele><time>2026-04-05T16:18:29.424Z</time></trkpt><trkpt lat="42.9940662" lon="12.8414366"><ele>803.0</ele><time>2026-04-05T16:18:30.424Z</time></trkpt><trkpt lat="42.9939779" lon="12.8415907"><ele>798.5</ele><time>2026-04-05T16:18:31.424Z</time></trkpt><trkpt lat="42.9938864" lon="12.8417451"><ele>794.0</ele><time>2026-04-05T16:18:32.424Z</time></trkpt><trkpt lat="42.9937973" lon="12.8418944"><ele>789.5</ele><time>2026-04-05T16:18:33.423Z</time></trkpt><trkpt lat="42.9937102" lon="12.8420189"><ele>785.0</ele><time>2026-04-05T16:18:34.424Z</time></trkpt><trkpt lat="42.9936067" lon="12.8421348"><ele>781.5</ele><time>2026-04-05T16:18:35.424Z</time></trkpt><trkpt lat="42.9935031" lon="12.8422459"><ele>778.0</ele><time>2026-04-05T16:18:36.424Z</time></trkpt><trkpt lat="42.9934037" lon="12.842342"><ele>774.5</ele><time>2026-04-05T16:18:37.423Z</time></trkpt><trkpt lat="42.9932954" lon="12.8424311"><ele>771.0</ele><time>2026-04-05T16:18:38.424Z</time></trkpt><trkpt lat="42.9931969" lon="12.8424924"><ele>771.0</ele><time>2026-04-05T16:18:39.424Z</time></trkpt><trkpt lat="42.9930928" lon="12.8425298"><ele>771.0</ele><time>2026-04-05T16:18:40.424Z</time></trkpt><trkpt lat="42.992987" lon="12.8425315"><ele>771.0</ele><time>2026-04-05T16:18:41.424Z</time></trkpt><trkpt lat="42.9928766" lon="12.8424893"><ele>771.0</ele><time>2026-04-05T16:18:42.423Z</time></trkpt><trkpt lat="42.9927732" lon="12.8424027"><ele>771.0</ele><time>2026-04-05T16:18:43.424Z</time></trkpt><trkpt lat="42.9926782" lon="12.842279"><ele>771.0</ele><time>2026-04-05T16:18:44.424Z</time></trkpt><trkpt lat="42.9925753" lon="12.8421522"><ele>771.0</ele><time>2026-04-05T16:18:45.424Z</time></trkpt><trkpt lat="42.992457" lon="12.8420281"><ele>771.0</ele><time>2026-04-05T16:18:46.424Z</time></trkpt><trkpt lat="42.9923339" lon="12.8419214"><ele>771.0</ele><time>2026-04-05T16:18:47.424Z</time></trkpt><trkpt lat="42.9922112" lon="12.8418262"><ele>773.75</ele><time>2026-04-05T16:18:48.424Z</time></trkpt><trkpt lat="42.9920918" lon="12.8417408"><ele>776.5</ele><time>2026-04-05T16:18:49.424Z</time></trkpt><trkpt lat="42.9919826" lon="12.8416757"><ele>779.25</ele><time>2026-04-05T16:18:50.423Z</time></trkpt><trkpt lat="42.9918761" lon="12.8416306"><ele>782.0</ele><time>2026-04-05T16:18:51.424Z</time></trkpt><trkpt lat="42.9917773" lon="12.8416099"><ele>782.0</ele><time>2026-04-05T16:18:52.424Z</time></trkpt><trkpt lat="42.9916763" lon="12.8416419"><ele>782.0</ele><time>2026-04-05T16:18:53.424Z</time></trkpt><trkpt lat="42.9915879" lon="12.8417116"><ele>782.0</ele><time>2026-04-05T16:18:54.424Z</time></trkpt><trkpt lat="42.9915174" lon="12.8418348"><ele>782.0</ele><time>2026-04-05T16:18:55.423Z</time></trkpt><trkpt lat="42.991466" lon="12.8419817"><ele>782.0</ele><time>2026-04-05T16:18:56.423Z</time></trkpt><trkpt lat="42.9914349" lon="12.8421516"><ele>773.3333333333334</ele><time>2026-04-05T16:18:57.424Z</time></trkpt><trkpt lat="42.9914017" lon="12.842347"><ele>764.6666666666667</ele><time>2026-04-05T16:18:58.424Z</time></trkpt><trkpt lat="42.9913621" lon="12.8425648"><ele>756.0</ele><time>2026-04-05T16:18:59.424Z</time></trkpt><trkpt lat="42.9913199" lon="12.8427857"><ele>750.6666666666666</ele><time>2026-04-05T16:19:00.424Z</time></trkpt><trkpt lat="42.9912638" lon="12.8430721"><ele>745.3333333333333</ele><time>2026-04-05T16:19:01.424Z</time></trkpt><trkpt lat="42.9912156" lon="12.8433299"><ele>740.0</ele><time>2026-04-05T16:19:02.424Z</time></trkpt><trkpt lat="42.9911661" lon="12.8435965"><ele>734.0</ele><time>2026-04-05T16:19:03.424Z</time></trkpt><trkpt lat="42.991134" lon="12.8438534"><ele>728.0</ele><time>2026-04-05T16:19:04.424Z</time></trkpt><trkpt lat="42.9911186" lon="12.8440973"><ele>722.0</ele><time>2026-04-05T16:19:05.424Z</time></trkpt><trkpt lat="42.9911035" lon="12.8443479"><ele>718.6666666666666</ele><time>2026-04-05T16:19:06.424Z</time></trkpt><trkpt lat="42.9910773" lon="12.8445827"><ele>715.3333333333334</ele><time>2026-04-05T16:19:07.423Z</time></trkpt><trkpt lat="42.9910415" lon="12.8447981"><ele>712.0</ele><time>2026-04-05T16:19:08.423Z</time></trkpt><trkpt lat="42.9910005" lon="12.8449941"><ele>708.0</ele><time>2026-04-05T16:19:09.424Z</time></trkpt><trkpt lat="42.9909502" lon="12.8451648"><ele>704.0</ele><time>2026-04-05T16:19:10.424Z</time></trkpt><trkpt lat="42.9908906" lon="12.8453075"><ele>700.0</ele><time>2026-04-05T16:19:11.424Z</time></trkpt><trkpt lat="42.990814" lon="12.845412"><ele>696.0</ele><time>2026-04-05T16:19:12.424Z</time></trkpt><trkpt lat="42.9907284" lon="12.8454819"><ele>706.25</ele><time>2026-04-05T16:19:13.423Z</time></trkpt><trkpt lat="42.9906246" lon="12.845511"><ele>716.5</ele><time>2026-04-05T16:19:14.424Z</time></trkpt><trkpt lat="42.9905074" lon="12.845489"><ele>726.75</ele><time>2026-04-05T16:19:15.424Z</time></trkpt><trkpt lat="42.9903793" lon="12.8454281"><ele>737.0</ele><time>2026-04-05T16:19:16.424Z</time></trkpt><trkpt lat="42.9902471" lon="12.8453319"><ele>737.0</ele><time>2026-04-05T16:19:17.424Z</time></trkpt><trkpt lat="42.9901155" lon="12.8452347"><ele>737.0</ele><time>2026-04-05T16:19:18.424Z</time></trkpt><trkpt lat="42.9899924" lon="12.8451594"><ele>737.0</ele><time>2026-04-05T16:19:19.424Z</time></trkpt><trkpt lat="42.9898781" lon="12.8451087"><ele>737.0</ele><time>2026-04-05T16:19:20.424Z</time></trkpt><trkpt lat="42.9897859" lon="12.8450904"><ele>738.0</ele><time>2026-04-05T16:19:21.424Z</time></trkpt><trkpt lat="42.9897009" lon="12.8451457"><ele>739.0</ele><time>2026-04-05T16:19:22.423Z</time></trkpt><trkpt lat="42.9896253" lon="12.8452112"><ele>740.0</ele><time>2026-04-05T16:19:23.424Z</time></trkpt><trkpt lat="42.9896176" lon="12.8453637"><ele>741.0</ele><time>2026-04-05T16:19:24.424Z</time></trkpt><trkpt lat="42.9896126" lon="12.8455339"><ele>742.0</ele><time>2026-04-05T16:19:25.424Z</time></trkpt><trkpt lat="42.9896236" lon="12.8457277"><ele>742.0</ele><time>2026-04-05T16:19:26.424Z</time></trkpt><trkpt lat="42.9896412" lon="12.845935"><ele>742.0</ele><time>2026-04-05T16:19:27.423Z</time></trkpt><trkpt lat="42.9896543" lon="12.8461556"><ele>742.0</ele><time>2026-04-05T16:19:28.423Z</time></trkpt><trkpt lat="42.9896738" lon="12.8463693"><ele>738.3333333333334</ele><time>2026-04-05T16:19:29.424Z</time></trkpt><trkpt lat="42.9896887" lon="12.8465856"><ele>734.6666666666666</ele><time>2026-04-05T16:19:30.424Z</time></trkpt><trkpt lat="42.989719" lon="12.8467904"><ele>731.0</ele><time>2026-04-05T16:19:31.424Z</time></trkpt><trkpt lat="42.9897678" lon="12.8469833"><ele>731.0</ele><time>2026-04-05T16:19:32.423Z</time></trkpt><trkpt lat="42.9898276" lon="12.8471672"><ele>731.0</ele><time>2026-04-05T16:19:33.424Z</time></trkpt><trkpt lat="42.9898862" lon="12.8473426"><ele>731.0</ele><time>2026-04-05T16:19:34.423Z</time></trkpt><trkpt lat="42.9899558" lon="12.8475019"><ele>731.0</ele><time>2026-04-05T16:19:35.424Z</time></trkpt><trkpt lat="42.990008" lon="12.8476446"><ele>728.1999999999999</ele><time>2026-04-05T16:19:36.424Z</time></trkpt><trkpt lat="42.9900334" lon="12.8477798"><ele>725.4</ele><time>2026-04-05T16:19:37.424Z</time></trkpt><trkpt lat="42.9900192" lon="12.8478988"><ele>722.6</ele><time>2026-04-05T16:19:38.424Z</time></trkpt><trkpt lat="42.9899643" lon="12.8480016"><ele>719.8</ele><time>2026-04-05T16:19:39.424Z</time></trkpt><trkpt lat="42.9898817" lon="12.8480732"><ele>717.0</ele><time>2026-04-05T16:19:40.423Z</time></trkpt><trkpt lat="42.9897797" lon="12.848148"><ele>717.0</ele><time>2026-04-05T16:19:41.424Z</time></trkpt><trkpt lat="42.9896387" lon="12.8481776"><ele>717.0</ele><time>2026-04-05T16:19:42.424Z</time></trkpt><trkpt lat="42.989481" lon="12.8482194"><ele>717.0</ele><time>2026-04-05T16:19:43.424Z</time></trkpt><trkpt lat="42.9893135" lon="12.8482437"><ele>719.6666666666666</ele><time>2026-04-05T16:19:44.424Z</time></trkpt><trkpt lat="42.9891392" lon="12.8482536"><ele>722.3333333333333</ele><time>2026-04-05T16:19:45.424Z</time></trkpt><trkpt lat="42.9889616" lon="12.8482512"><ele>725.0</ele><time>2026-04-05T16:19:46.424Z</time></trkpt><trkpt lat="42.9887668" lon="12.8482409"><ele>725.0</ele><time>2026-04-05T16:19:47.423Z</time></trkpt><trkpt lat="42.9885709" lon="12.8482341"><ele>725.0</ele><time>2026-04-05T16:19:48.423Z</time></trkpt><trkpt lat="42.9883849" lon="12.848241"><ele>725.0</ele><time>2026-04-05T16:19:49.424Z</time></trkpt><trkpt lat="42.9882054" lon="12.8482669"><ele>724.3333333333333</ele><time>2026-04-05T16:19:50.424Z</time></trkpt><trkpt lat="42.988039" lon="12.8483096"><ele>723.6666666666666</ele><time>2026-04-05T16:19:51.424Z</time></trkpt><trkpt lat="42.9878762" lon="12.8483802"><ele>723.0</ele><time>2026-04-05T16:19:52.424Z</time></trkpt><trkpt lat="42.9877172" lon="12.8484398"><ele>723.6666666666666</ele><time>2026-04-05T16:19:53.424Z</time></trkpt><trkpt lat="42.9875722" lon="12.8484649"><ele>724.3333333333333</ele><time>2026-04-05T16:19:54.424Z</time></trkpt><trkpt lat="42.9874209" lon="12.8484507"><ele>725.0</ele><time>2026-04-05T16:19:55.424Z</time></trkpt><trkpt lat="42.9872614" lon="12.8484251"><ele>725.0</ele><time>2026-04-05T16:19:56.424Z</time></trkpt><trkpt lat="42.9870933" lon="12.8483762"><ele>725.0</ele><time>2026-04-05T16:19:57.424Z</time></trkpt><trkpt lat="42.986922" lon="12.848332"><ele>725.0</ele><time>2026-04-05T16:19:58.424Z</time></trkpt><trkpt lat="42.9867457" lon="12.8483041"><ele>721.3333333333333</ele><time>2026-04-05T16:19:59.424Z</time></trkpt><trkpt lat="42.9865623" lon="12.8482989"><ele>717.6666666666666</ele><time>2026-04-05T16:20:00.423Z</time></trkpt><trkpt lat="42.9863797" lon="12.8482983"><ele>714.0</ele><time>2026-04-05T16:20:01.424Z</time></trkpt><trkpt lat="42.9862023" lon="12.8483048"><ele>714.0</ele><time>2026-04-05T16:20:02.424Z</time></trkpt><trkpt lat="42.9860274" lon="12.8483248"><ele>714.0</ele><time>2026-04-05T16:20:03.424Z</time></trkpt><trkpt lat="42.9858574" lon="12.8483461"><ele>714.0</ele><time>2026-04-05T16:20:04.424Z</time></trkpt><trkpt lat="42.9856939" lon="12.8483313"><ele>713.3333333333334</ele><time>2026-04-05T16:20:05.424Z</time></trkpt><trkpt lat="42.9855227" lon="12.8483094"><ele>712.6666666666667</ele><time>2026-04-05T16:20:06.424Z</time></trkpt><trkpt lat="42.9853498" lon="12.8482628"><ele>712.0</ele><time>2026-04-05T16:20:07.424Z</time></trkpt><trkpt lat="42.9851757" lon="12.848167"><ele>706.3333333333334</ele><time>2026-04-05T16:20:08.424Z</time></trkpt><trkpt lat="42.9849916" lon="12.8480935"><ele>700.6666666666666</ele><time>2026-04-05T16:20:09.423Z</time></trkpt><trkpt lat="42.9848071" lon="12.8480145"><ele>695.0</ele><time>2026-04-05T16:20:10.423Z</time></trkpt><trkpt lat="42.9846241" lon="12.8479146"><ele>695.0</ele><time>2026-04-05T16:20:11.424Z</time></trkpt><trkpt lat="42.9844376" lon="12.8478199"><ele>695.0</ele><time>2026-04-05T16:20:12.424Z</time></trkpt><trkpt lat="42.9842509" lon="12.847713"><ele>695.0</ele><time>2026-04-05T16:20:13.424Z</time></trkpt><trkpt lat="42.9840666" lon="12.8475909"><ele>698.6666666666666</ele><time>2026-04-05T16:20:14.424Z</time></trkpt><trkpt lat="42.9838858" lon="12.8474536"><ele>702.3333333333334</ele><time>2026-04-05T16:20:15.424Z</time></trkpt><trkpt lat="42.9837047" lon="12.8473122"><ele>706.0</ele><time>2026-04-05T16:20:16.424Z</time></trkpt><trkpt lat="42.9835285" lon="12.847169"><ele>706.3333333333334</ele><time>2026-04-05T16:20:17.424Z</time></trkpt><trkpt lat="42.9833464" lon="12.847014"><ele>706.6666666666666</ele><time>2026-04-05T16:20:18.423Z</time></trkpt><trkpt lat="42.9831683" lon="12.846868"><ele>707.0</ele><time>2026-04-05T16:20:19.423Z</time></trkpt><trkpt lat="42.982989" lon="12.8467231"><ele>707.0</ele><time>2026-04-05T16:20:20.424Z</time></trkpt><trkpt lat="42.9828059" lon="12.8465856"><ele>707.0</ele><time>2026-04-05T16:20:21.424Z</time></trkpt><trkpt lat="42.982627" lon="12.8464358"><ele>707.0</ele><time>2026-04-05T16:20:22.424Z</time></trkpt><trkpt lat="42.9824519" lon="12.8462899"><ele>707.0</ele><time>2026-04-05T16:20:23.424Z</time></trkpt><trkpt lat="42.9822748" lon="12.8461307"><ele>707.0</ele><time>2026-04-05T16:20:24.424Z</time></trkpt><trkpt lat="42.9820973" lon="12.8459802"><ele>707.0</ele><time>2026-04-05T16:20:25.424Z</time></trkpt><trkpt lat="42.9819177" lon="12.845834"><ele>707.0</ele><time>2026-04-05T16:20:26.424Z</time></trkpt><trkpt lat="42.9817436" lon="12.8456786"><ele>707.0</ele><time>2026-04-05T16:20:27.424Z</time></trkpt><trkpt lat="42.9815735" lon="12.8455211"><ele>707.0</ele><time>2026-04-05T16:20:28.424Z</time></trkpt><trkpt lat="42.9814076" lon="12.8453474"><ele>707.0</ele><time>2026-04-05T16:20:29.423Z</time></trkpt><trkpt lat="42.9812352" lon="12.8451704"><ele>707.0</ele><time>2026-04-05T16:20:30.424Z</time></trkpt><trkpt lat="42.9810746" lon="12.84499"><ele>707.0</ele><time>2026-04-05T16:20:31.423Z</time></trkpt><trkpt lat="42.9809156" lon="12.844805"><ele>694.6666666666666</ele><time>2026-04-05T16:20:32.424Z</time></trkpt><trkpt lat="42.9807558" lon="12.8446194"><ele>682.3333333333334</ele><time>2026-04-05T16:20:33.423Z</time></trkpt><trkpt lat="42.9806024" lon="12.8444679"><ele>670.0</ele><time>2026-04-05T16:20:34.424Z</time></trkpt><trkpt lat="42.9804471" lon="12.8443099"><ele>668.0</ele><time>2026-04-05T16:20:35.424Z</time></trkpt><trkpt lat="42.9802774" lon="12.8441797"><ele>666.0</ele><time>2026-04-05T16:20:36.424Z</time></trkpt><trkpt lat="42.9801062" lon="12.844052"><ele>664.0</ele><time>2026-04-05T16:20:37.424Z</time></trkpt><trkpt lat="42.9799365" lon="12.8439188"><ele>664.0</ele><time>2026-04-05T16:20:38.424Z</time></trkpt><trkpt lat="42.9797715" lon="12.8437999"><ele>664.0</ele><time>2026-04-05T16:20:39.424Z</time></trkpt><trkpt lat="42.9796149" lon="12.843689"><ele>664.0</ele><time>2026-04-05T16:20:40.423Z</time></trkpt><trkpt lat="42.979466" lon="12.8435813"><ele>664.0</ele><time>2026-04-05T16:20:41.423Z</time></trkpt><trkpt lat="42.9793367" lon="12.8434782"><ele>664.0</ele><time>2026-04-05T16:20:42.423Z</time></trkpt><trkpt lat="42.9792126" lon="12.8433704"><ele>664.0</ele><time>2026-04-05T16:20:43.424Z</time></trkpt><trkpt lat="42.9790899" lon="12.8432595"><ele>664.0</ele><time>2026-04-05T16:20:44.423Z</time></trkpt><trkpt lat="42.978974" lon="12.8431383"><ele>663.0</ele><time>2026-04-05T16:20:45.424Z</time></trkpt><trkpt lat="42.978863" lon="12.8430106"><ele>662.0</ele><time>2026-04-05T16:20:46.424Z</time></trkpt><trkpt lat="42.9787548" lon="12.8429012"><ele>661.0</ele><time>2026-04-05T16:20:47.424Z</time></trkpt><trkpt lat="42.9786562" lon="12.8427809"><ele>660.0</ele><time>2026-04-05T16:20:48.423Z</time></trkpt><trkpt lat="42.9785616" lon="12.8426803"><ele>658.0</ele><time>2026-04-05T16:20:49.424Z</time></trkpt><trkpt lat="42.9784765" lon="12.8425903"><ele>656.0</ele><time>2026-04-05T16:20:50.424Z</time></trkpt><trkpt lat="42.9783893" lon="12.8425461"><ele>654.0</ele><time>2026-04-05T16:20:51.424Z</time></trkpt><trkpt lat="42.9782957" lon="12.8425346"><ele>652.0</ele><time>2026-04-05T16:20:52.423Z</time></trkpt><trkpt lat="42.9782178" lon="12.8425719"><ele>650.0</ele><time>2026-04-05T16:20:53.423Z</time></trkpt><trkpt lat="42.9781529" lon="12.842664"><ele>648.8</ele><time>2026-04-05T16:20:54.424Z</time></trkpt><trkpt lat="42.9781136" lon="12.842772"><ele>647.6</ele><time>2026-04-05T16:20:55.424Z</time></trkpt><trkpt lat="42.9780908" lon="12.8428861"><ele>646.4000000000001</ele><time>2026-04-05T16:20:56.424Z</time></trkpt><trkpt lat="42.9781045" lon="12.8429948"><ele>645.2</ele><time>2026-04-05T16:20:57.423Z</time></trkpt><trkpt lat="42.9782007" lon="12.8430821"><ele>644.0</ele><time>2026-04-05T16:20:58.423Z</time></trkpt><trkpt lat="42.9782811" lon="12.8431766"><ele>641.75</ele><time>2026-04-05T16:20:59.424Z</time></trkpt><trkpt lat="42.9784067" lon="12.8432673"><ele>639.5</ele><time>2026-04-05T16:21:00.424Z</time></trkpt><trkpt lat="42.9785435" lon="12.8433586"><ele>637.25</ele><time>2026-04-05T16:21:01.424Z</time></trkpt><trkpt lat="42.9786807" lon="12.8434556"><ele>635.0</ele><time>2026-04-05T16:21:02.423Z</time></trkpt><trkpt lat="42.9788239" lon="12.8435574"><ele>635.0</ele><time>2026-04-05T16:21:03.424Z</time></trkpt><trkpt lat="42.9789561" lon="12.8436501"><ele>635.0</ele><time>2026-04-05T16:21:04.423Z</time></trkpt><trkpt lat="42.9791065" lon="12.84376"><ele>635.0</ele><time>2026-04-05T16:21:05.423Z</time></trkpt><trkpt lat="42.9792686" lon="12.8438737"><ele>644.6666666666666</ele><time>2026-04-05T16:21:06.424Z</time></trkpt><trkpt lat="42.97943" lon="12.8439925"><ele>654.3333333333334</ele><time>2026-04-05T16:21:07.424Z</time></trkpt><trkpt lat="42.9795813" lon="12.8441257"><ele>664.0</ele><time>2026-04-05T16:21:08.423Z</time></trkpt><trkpt lat="42.9797351" lon="12.844262"><ele>666.0</ele><time>2026-04-05T16:21:09.424Z</time></trkpt><trkpt lat="42.9798939" lon="12.8443867"><ele>668.0</ele><time>2026-04-05T16:21:10.424Z</time></trkpt><trkpt lat="42.9800499" lon="12.8445305"><ele>670.0</ele><time>2026-04-05T16:21:11.423Z</time></trkpt><trkpt lat="42.980207" lon="12.8447109"><ele>670.0</ele><time>2026-04-05T16:21:12.424Z</time></trkpt><trkpt lat="42.9803549" lon="12.8448831"><ele>670.0</ele><time>2026-04-05T16:21:13.423Z</time></trkpt><trkpt lat="42.9805057" lon="12.8450737"><ele>670.0</ele><time>2026-04-05T16:21:14.424Z</time></trkpt><trkpt lat="42.9806501" lon="12.8452559"><ele>669.6666666666667</ele><time>2026-04-05T16:21:15.424Z</time></trkpt><trkpt lat="42.9808009" lon="12.8454426"><ele>669.3333333333334</ele><time>2026-04-05T16:21:16.424Z</time></trkpt><trkpt lat="42.9809514" lon="12.8456367"><ele>669.0</ele><time>2026-04-05T16:21:17.424Z</time></trkpt><trkpt lat="42.9811027" lon="12.8458181"><ele>658.3333333333334</ele><time>2026-04-05T16:21:18.423Z</time></trkpt><trkpt lat="42.9812539" lon="12.8460098"><ele>647.6666666666667</ele><time>2026-04-05T16:21:19.423Z</time></trkpt><trkpt lat="42.9814047" lon="12.8461958"><ele>637.0</ele><time>2026-04-05T16:21:20.424Z</time></trkpt><trkpt lat="42.9815552" lon="12.8463834"><ele>636.3333333333334</ele><time>2026-04-05T16:21:21.424Z</time></trkpt><trkpt lat="42.9817036" lon="12.8465582"><ele>635.6666666666666</ele><time>2026-04-05T16:21:22.424Z</time></trkpt><trkpt lat="42.9818516" lon="12.8467323"><ele>635.0</ele><time>2026-04-05T16:21:23.424Z</time></trkpt><trkpt lat="42.982001" lon="12.846902"><ele>635.0</ele><time>2026-04-05T16:21:24.423Z</time></trkpt><trkpt lat="42.9821491" lon="12.8470774"><ele>635.0</ele><time>2026-04-05T16:21:25.424Z</time></trkpt><trkpt lat="42.9822923" lon="12.8472586"><ele>635.0</ele><time>2026-04-05T16:21:26.424Z</time></trkpt><trkpt lat="42.9824296" lon="12.8474409"><ele>636.6666666666666</ele><time>2026-04-05T16:21:27.423Z</time></trkpt><trkpt lat="42.9825725" lon="12.8476268"><ele>638.3333333333334</ele><time>2026-04-05T16:21:28.424Z</time></trkpt><trkpt lat="42.9827126" lon="12.847817"><ele>640.0</ele><time>2026-04-05T16:21:29.424Z</time></trkpt><trkpt lat="42.9828543" lon="12.8480054"><ele>640.0</ele><time>2026-04-05T16:21:30.424Z</time></trkpt><trkpt lat="42.9829984" lon="12.848195"><ele>640.0</ele><time>2026-04-05T16:21:31.424Z</time></trkpt><trkpt lat="42.9831416" lon="12.84838"><ele>640.0</ele><time>2026-04-05T16:21:32.424Z</time></trkpt><trkpt lat="42.9832846" lon="12.8485663"><ele>639.0</ele><time>2026-04-05T16:21:33.424Z</time></trkpt><trkpt lat="42.9834235" lon="12.8487526"><ele>638.0</ele><time>2026-04-05T16:21:34.424Z</time></trkpt><trkpt lat="42.9835561" lon="12.8489294"><ele>637.0</ele><time>2026-04-05T16:21:35.424Z</time></trkpt><trkpt lat="42.9836973" lon="12.8490963"><ele>637.0</ele><time>2026-04-05T16:21:36.423Z</time></trkpt><trkpt lat="42.9838442" lon="12.8492345"><ele>637.0</ele><time>2026-04-05T16:21:37.424Z</time></trkpt><trkpt lat="42.9839882" lon="12.8493589"><ele>637.0</ele><time>2026-04-05T16:21:38.423Z</time></trkpt><trkpt lat="42.9841328" lon="12.8494744"><ele>633.75</ele><time>2026-04-05T16:21:39.423Z</time></trkpt><trkpt lat="42.9842805" lon="12.8495783"><ele>630.5</ele><time>2026-04-05T16:21:40.424Z</time></trkpt><trkpt lat="42.9844007" lon="12.8496697"><ele>627.25</ele><time>2026-04-05T16:21:41.424Z</time></trkpt><trkpt lat="42.9845182" lon="12.849751"><ele>624.0</ele><time>2026-04-05T16:21:42.424Z</time></trkpt><trkpt lat="42.9846248" lon="12.8498257"><ele>624.0</ele><time>2026-04-05T16:21:43.424Z</time></trkpt><trkpt lat="42.9846944" lon="12.8498913"><ele>624.0</ele><time>2026-04-05T16:21:44.424Z</time></trkpt><trkpt lat="42.9847514" lon="12.8499842"><ele>624.0</ele><time>2026-04-05T16:21:45.424Z</time></trkpt><trkpt lat="42.9847799" lon="12.8500773"><ele>624.0</ele><time>2026-04-05T16:21:46.424Z</time></trkpt><trkpt lat="42.9847755" lon="12.8501767"><ele>624.0</ele><time>2026-04-05T16:21:47.424Z</time></trkpt><trkpt lat="42.9847375" lon="12.8502626"><ele>624.0</ele><time>2026-04-05T16:21:48.423Z</time></trkpt><trkpt lat="42.9846736" lon="12.850333"><ele>622.0</ele><time>2026-04-05T16:21:49.423Z</time></trkpt><trkpt lat="42.9845809" lon="12.8503651"><ele>620.0</ele><time>2026-04-05T16:21:50.424Z</time></trkpt><trkpt lat="42.9844849" lon="12.8503399"><ele>618.0</ele><time>2026-04-05T16:21:51.424Z</time></trkpt><trkpt lat="42.9843867" lon="12.8502719"><ele>616.0</ele><time>2026-04-05T16:21:52.424Z</time></trkpt><trkpt lat="42.9842756" lon="12.85018"><ele>614.0</ele><time>2026-04-05T16:21:53.423Z</time></trkpt><trkpt lat="42.9841462" lon="12.8500597"><ele>614.0</ele><time>2026-04-05T16:21:54.424Z</time></trkpt><trkpt lat="42.9840156" lon="12.8499228"><ele>614.0</ele><time>2026-04-05T16:21:55.424Z</time></trkpt><trkpt lat="42.9838785" lon="12.8497809"><ele>614.0</ele><time>2026-04-05T16:21:56.423Z</time></trkpt><trkpt lat="42.983735" lon="12.8496317"><ele>614.0</ele><time>2026-04-05T16:21:57.424Z</time></trkpt><trkpt lat="42.9835843" lon="12.8494765"><ele>614.0</ele><time>2026-04-05T16:21:58.423Z</time></trkpt><trkpt lat="42.9834294" lon="12.8493222"><ele>614.0</ele><time>2026-04-05T16:21:59.423Z</time></trkpt><trkpt lat="42.9832724" lon="12.84916"><ele>613.6666666666666</ele><time>2026-04-05T16:22:00.423Z</time></trkpt><trkpt lat="42.9831132" lon="12.8489957"><ele>613.3333333333334</ele><time>2026-04-05T16:22:01.424Z</time></trkpt><trkpt lat="42.9829557" lon="12.8488474"><ele>613.0</ele><time>2026-04-05T16:22:02.423Z</time></trkpt><trkpt lat="42.9828064" lon="12.8486954"><ele>613.0</ele><time>2026-04-05T16:22:03.424Z</time></trkpt><trkpt lat="42.9826559" lon="12.8485556"><ele>613.0</ele><time>2026-04-05T16:22:04.424Z</time></trkpt><trkpt lat="42.9825074" lon="12.8484231"><ele>613.0</ele><time>2026-04-05T16:22:05.424Z</time></trkpt><trkpt lat="42.9823596" lon="12.848296"><ele>611.3333333333334</ele><time>2026-04-05T16:22:06.424Z</time></trkpt><trkpt lat="42.9822053" lon="12.8481807"><ele>609.6666666666666</ele><time>2026-04-05T16:22:07.424Z</time></trkpt><trkpt lat="42.9820541" lon="12.8480678"><ele>608.0</ele><time>2026-04-05T16:22:08.424Z</time></trkpt><trkpt lat="42.9818855" lon="12.8479961"><ele>608.0</ele><time>2026-04-05T16:22:09.424Z</time></trkpt><trkpt lat="42.9817041" lon="12.8479587"><ele>608.0</ele><time>2026-04-05T16:22:10.424Z</time></trkpt><trkpt lat="42.9815246" lon="12.8479293"><ele>608.0</ele><time>2026-04-05T16:22:11.423Z</time></trkpt><trkpt lat="42.9813485" lon="12.8479135"><ele>606.0</ele><time>2026-04-05T16:22:12.424Z</time></trkpt><trkpt lat="42.9811737" lon="12.8478975"><ele>604.0</ele><time>2026-04-05T16:22:13.424Z</time></trkpt><trkpt lat="42.9810072" lon="12.8478836"><ele>602.0</ele><time>2026-04-05T16:22:14.424Z</time></trkpt><trkpt lat="42.9808444" lon="12.8478499"><ele>602.0</ele><time>2026-04-05T16:22:15.424Z</time></trkpt><trkpt lat="42.9806794" lon="12.8477879"><ele>602.0</ele><time>2026-04-05T16:22:16.423Z</time></trkpt><trkpt lat="42.980522" lon="12.8477061"><ele>602.0</ele><time>2026-04-05T16:22:17.424Z</time></trkpt><trkpt lat="42.9803597" lon="12.8476163"><ele>601.3333333333333</ele><time>2026-04-05T16:22:18.424Z</time></trkpt><trkpt lat="42.9802113" lon="12.8474961"><ele>600.6666666666666</ele><time>2026-04-05T16:22:19.423Z</time></trkpt><trkpt lat="42.9800724" lon="12.8473495"><ele>600.0</ele><time>2026-04-05T16:22:20.424Z</time></trkpt><trkpt lat="42.9799372" lon="12.8471916"><ele>600.0</ele><time>2026-04-05T16:22:21.423Z</time></trkpt><trkpt lat="42.979823" lon="12.847022"><ele>600.0</ele><time>2026-04-05T16:22:22.423Z</time></trkpt><trkpt lat="42.9797213" lon="12.8468422"><ele>600.0</ele><time>2026-04-05T16:22:23.424Z</time></trkpt><trkpt lat="42.9796345" lon="12.8466545"><ele>596.0</ele><time>2026-04-05T16:22:24.424Z</time></trkpt><trkpt lat="42.9795475" lon="12.8464645"><ele>592.0</ele><time>2026-04-05T16:22:25.424Z</time></trkpt><trkpt lat="42.9794906" lon="12.8462486"><ele>588.0</ele><time>2026-04-05T16:22:26.424Z</time></trkpt><trkpt lat="42.9794236" lon="12.8460228"><ele>590.6666666666666</ele><time>2026-04-05T16:22:27.423Z</time></trkpt><trkpt lat="42.9793976" lon="12.8457707"><ele>593.3333333333333</ele><time>2026-04-05T16:22:28.424Z</time></trkpt><trkpt lat="42.979381" lon="12.8455387"><ele>596.0</ele><time>2026-04-05T16:22:29.424Z</time></trkpt><trkpt lat="42.9793739" lon="12.8452999"><ele>606.3333333333333</ele><time>2026-04-05T16:22:30.424Z</time></trkpt><trkpt lat="42.9793826" lon="12.8450591"><ele>616.6666666666666</ele><time>2026-04-05T16:22:31.424Z</time></trkpt><trkpt lat="42.9793986" lon="12.8448226"><ele>627.0</ele><time>2026-04-05T16:22:32.423Z</time></trkpt><trkpt lat="42.9794163" lon="12.8445864"><ele>583.0</ele><time>2026-04-05T16:22:33.423Z</time></trkpt><trkpt lat="42.9767256" lon="12.8451955"><ele>595.0</ele><time>2026-04-05T16:22:44.9Z</time></trkpt><trkpt lat="42.9801106" lon="12.8353722"><ele>594.0</ele><time>2026-04-05T16:23:05.424Z</time></trkpt><trkpt lat="42.9801385" lon="12.8350891"><ele>593.0</ele><time>2026-04-05T16:23:06.424Z</time></trkpt><trkpt lat="42.9801492" lon="12.8348"><ele>592.0</ele><time>2026-04-05T16:23:07.424Z</time></trkpt><trkpt lat="42.9801557" lon="12.8345135"><ele>591.0</ele><time>2026-04-05T16:23:08.423Z</time></trkpt><trkpt lat="42.9801422" lon="12.8342134"><ele>590.0</ele><time>2026-04-05T16:23:09.424Z</time></trkpt><trkpt lat="42.9801254" lon="12.8339278"><ele>589.0</ele><time>2026-04-05T16:23:10.423Z</time></trkpt><trkpt lat="42.9801141" lon="12.8336409"><ele>592.0</ele><time>2026-04-05T16:23:11.424Z</time></trkpt><trkpt lat="42.9801062" lon="12.8333536"><ele>595.0</ele><time>2026-04-05T16:23:12.424Z</time></trkpt><trkpt lat="42.9800984" lon="12.8330784"><ele>598.0</ele><time>2026-04-05T16:23:13.423Z</time></trkpt><trkpt lat="42.9800846" lon="12.8328082"><ele>596.3333333333334</ele><time>2026-04-05T16:23:14.423Z</time></trkpt><trkpt lat="42.9800719" lon="12.8325467"><ele>594.6666666666666</ele><time>2026-04-05T16:23:15.424Z</time></trkpt><trkpt lat="42.9800635" lon="12.8322886"><ele>593.0</ele><time>2026-04-05T16:23:16.424Z</time></trkpt><trkpt lat="42.9800696" lon="12.8320465"><ele>587.6666666666666</ele><time>2026-04-05T16:23:17.424Z</time></trkpt><trkpt lat="42.9800946" lon="12.8318041"><ele>582.3333333333334</ele><time>2026-04-05T16:23:18.424Z</time></trkpt><trkpt lat="42.9801315" lon="12.831552"><ele>577.0</ele><time>2026-04-05T16:23:19.424Z</time></trkpt><trkpt lat="42.9801805" lon="12.8312993"><ele>577.0</ele><time>2026-04-05T16:23:20.424Z</time></trkpt><trkpt lat="42.9802392" lon="12.8310497"><ele>577.0</ele><time>2026-04-05T16:23:21.424Z</time></trkpt><trkpt lat="42.980299" lon="12.8308033"><ele>577.0</ele><time>2026-04-05T16:23:22.424Z</time></trkpt><trkpt lat="42.9803509" lon="12.8305686"><ele>571.3333333333334</ele><time>2026-04-05T16:23:23.424Z</time></trkpt><trkpt lat="42.9804009" lon="12.8303397"><ele>565.6666666666666</ele><time>2026-04-05T16:23:24.424Z</time></trkpt><trkpt lat="42.9804396" lon="12.8301103"><ele>560.0</ele><time>2026-04-05T16:23:25.424Z</time></trkpt><trkpt lat="42.9804709" lon="12.8298781"><ele>556.3333333333333</ele><time>2026-04-05T16:23:26.424Z</time></trkpt><trkpt lat="42.9804832" lon="12.8296447"><ele>552.6666666666666</ele><time>2026-04-05T16:23:27.423Z</time></trkpt><trkpt lat="42.9804706" lon="12.8294103"><ele>549.0</ele><time>2026-04-05T16:23:28.424Z</time></trkpt><trkpt lat="42.9804436" lon="12.8291802"><ele>548.3333333333334</ele><time>2026-04-05T16:23:29.423Z</time></trkpt><trkpt lat="42.9804042" lon="12.8289472"><ele>547.6666666666667</ele><time>2026-04-05T16:23:30.424Z</time></trkpt><trkpt lat="42.9803395" lon="12.82872"><ele>547.0</ele><time>2026-04-05T16:23:31.424Z</time></trkpt><trkpt lat="42.9802633" lon="12.828497"><ele>546.6666666666667</ele><time>2026-04-05T16:23:32.423Z</time></trkpt><trkpt lat="42.9801589" lon="12.8282817"><ele>546.3333333333334</ele><time>2026-04-05T16:23:33.424Z</time></trkpt><trkpt lat="42.9800465" lon="12.8280866"><ele>546.0</ele><time>2026-04-05T16:23:34.423Z</time></trkpt><trkpt lat="42.9799001" lon="12.8279165"><ele>545.0</ele><time>2026-04-05T16:23:35.424Z</time></trkpt><trkpt lat="42.9797481" lon="12.8277578"><ele>544.0</ele><time>2026-04-05T16:23:36.424Z</time></trkpt><trkpt lat="42.9795856" lon="12.8276239"><ele>543.0</ele><time>2026-04-05T16:23:37.424Z</time></trkpt><trkpt lat="42.979399" lon="12.8275071"><ele>543.0</ele><time>2026-04-05T16:23:38.424Z</time></trkpt><trkpt lat="42.9792089" lon="12.8274083"><ele>543.0</ele><time>2026-04-05T16:23:39.424Z</time></trkpt><trkpt lat="42.9790039" lon="12.8273057"><ele>543.0</ele><time>2026-04-05T16:23:40.424Z</time></trkpt><trkpt lat="42.9788074" lon="12.8272044"><ele>544.6666666666666</ele><time>2026-04-05T16:23:41.423Z</time></trkpt><trkpt lat="42.9786113" lon="12.8271039"><ele>546.3333333333333</ele><time>2026-04-05T16:23:42.423Z</time></trkpt><trkpt lat="42.9784173" lon="12.8270035"><ele>548.0</ele><time>2026-04-05T16:23:43.424Z</time></trkpt><trkpt lat="42.9782348" lon="12.8268959"><ele>546.0</ele><time>2026-04-05T16:23:44.423Z</time></trkpt><trkpt lat="42.9780606" lon="12.8267672"><ele>544.0</ele><time>2026-04-05T16:23:45.424Z</time></trkpt><trkpt lat="42.9778885" lon="12.8266312"><ele>542.0</ele><time>2026-04-05T16:23:46.424Z</time></trkpt><trkpt lat="42.9777261" lon="12.8264677"><ele>542.0</ele><time>2026-04-05T16:23:47.424Z</time></trkpt><trkpt lat="42.9775774" lon="12.8262801"><ele>542.0</ele><time>2026-04-05T16:23:48.424Z</time></trkpt><trkpt lat="42.977434" lon="12.8260905"><ele>542.0</ele><time>2026-04-05T16:23:49.423Z</time></trkpt><trkpt lat="42.9773086" lon="12.8258798"><ele>542.0</ele><time>2026-04-05T16:23:50.424Z</time></trkpt><trkpt lat="42.9772092" lon="12.8256402"><ele>542.0</ele><time>2026-04-05T16:23:51.424Z</time></trkpt><trkpt lat="42.9771268" lon="12.8253917"><ele>542.0</ele><time>2026-04-05T16:23:52.424Z</time></trkpt><trkpt lat="42.9770602" lon="12.8251286"><ele>542.0</ele><time>2026-04-05T16:23:53.424Z</time></trkpt><trkpt lat="42.9770035" lon="12.8248706"><ele>542.0</ele><time>2026-04-05T16:23:54.424Z</time></trkpt><trkpt lat="42.9769536" lon="12.8246067"><ele>542.0</ele><time>2026-04-05T16:23:55.423Z</time></trkpt><trkpt lat="42.9769148" lon="12.8243402"><ele>543.3333333333333</ele><time>2026-04-05T16:23:56.424Z</time></trkpt><trkpt lat="42.9768764" lon="12.8240767"><ele>544.6666666666666</ele><time>2026-04-05T16:23:57.423Z</time></trkpt><trkpt lat="42.9768416" lon="12.8238067"><ele>546.0</ele><time>2026-04-05T16:23:58.424Z</time></trkpt><trkpt lat="42.9767936" lon="12.8235494"><ele>547.3333333333334</ele><time>2026-04-05T16:23:59.424Z</time></trkpt><trkpt lat="42.9767436" lon="12.8232955"><ele>548.6666666666667</ele><time>2026-04-05T16:24:00.424Z</time></trkpt><trkpt lat="42.9766858" lon="12.8230495"><ele>550.0</ele><time>2026-04-05T16:24:01.424Z</time></trkpt><trkpt lat="42.9766076" lon="12.8228112"><ele>546.3333333333334</ele><time>2026-04-05T16:24:02.424Z</time></trkpt><trkpt lat="42.9765157" lon="12.8225735"><ele>542.6666666666666</ele><time>2026-04-05T16:24:03.424Z</time></trkpt><trkpt lat="42.9764129" lon="12.8223404"><ele>539.0</ele><time>2026-04-05T16:24:04.423Z</time></trkpt><trkpt lat="42.9762956" lon="12.8221145"><ele>539.0</ele><time>2026-04-05T16:24:05.424Z</time></trkpt><trkpt lat="42.976179" lon="12.8218886"><ele>539.0</ele><time>2026-04-05T16:24:06.424Z</time></trkpt><trkpt lat="42.9760573" lon="12.8216606"><ele>539.0</ele><time>2026-04-05T16:24:07.423Z</time></trkpt><trkpt lat="42.9759312" lon="12.821422"><ele>538.3333333333333</ele><time>2026-04-05T16:24:08.424Z</time></trkpt><trkpt lat="42.9758074" lon="12.8211911"><ele>537.6666666666666</ele><time>2026-04-05T16:24:09.424Z</time></trkpt><trkpt lat="42.9756827" lon="12.820953"><ele>537.0</ele><time>2026-04-05T16:24:10.424Z</time></trkpt><trkpt lat="42.9755605" lon="12.8207195"><ele>539.0</ele><time>2026-04-05T16:24:11.424Z</time></trkpt><trkpt lat="42.9754333" lon="12.8204873"><ele>541.0</ele><time>2026-04-05T16:24:12.424Z</time></trkpt><trkpt lat="42.9753077" lon="12.8202531"><ele>543.0</ele><time>2026-04-05T16:24:13.423Z</time></trkpt><trkpt lat="42.9751784" lon="12.8200238"><ele>543.0</ele><time>2026-04-05T16:24:14.423Z</time></trkpt><trkpt lat="42.9750539" lon="12.8197899"><ele>543.0</ele><time>2026-04-05T16:24:15.423Z</time></trkpt><trkpt lat="42.974927" lon="12.8195572"><ele>543.0</ele><time>2026-04-05T16:24:16.424Z</time></trkpt><trkpt lat="42.9748006" lon="12.8193229"><ele>545.6666666666666</ele><time>2026-04-05T16:24:17.423Z</time></trkpt><trkpt lat="42.9746863" lon="12.8190887"><ele>548.3333333333333</ele><time>2026-04-05T16:24:18.424Z</time></trkpt><trkpt lat="42.9745878" lon="12.8188657"><ele>551.0</ele><time>2026-04-05T16:24:19.424Z</time></trkpt><trkpt lat="42.9744895" lon="12.8186565"><ele>554.0</ele><time>2026-04-05T16:24:20.424Z</time></trkpt><trkpt lat="42.9743988" lon="12.8184408"><ele>557.0</ele><time>2026-04-05T16:24:21.424Z</time></trkpt><trkpt lat="42.9743213" lon="12.8182138"><ele>560.0</ele><time>2026-04-05T16:24:22.424Z</time></trkpt><trkpt lat="42.9742444" lon="12.8179757"><ele>553.6666666666666</ele><time>2026-04-05T16:24:23.424Z</time></trkpt><trkpt lat="42.9741684" lon="12.8177282"><ele>547.3333333333334</ele><time>2026-04-05T16:24:24.424Z</time></trkpt><trkpt lat="42.9741128" lon="12.8174903"><ele>541.0</ele><time>2026-04-05T16:24:25.424Z</time></trkpt><trkpt lat="42.974055" lon="12.8172632"><ele>541.0</ele><time>2026-04-05T16:24:26.424Z</time></trkpt><trkpt lat="42.9739995" lon="12.8170376"><ele>541.0</ele><time>2026-04-05T16:24:27.424Z</time></trkpt><trkpt lat="42.9739432" lon="12.8168071"><ele>541.0</ele><time>2026-04-05T16:24:28.423Z</time></trkpt><trkpt lat="42.9738937" lon="12.8165982"><ele>544.0</ele><time>2026-04-05T16:24:29.423Z</time></trkpt><trkpt lat="42.9738465" lon="12.8163961"><ele>547.0</ele><time>2026-04-05T16:24:30.423Z</time></trkpt><trkpt lat="42.9737983" lon="12.8161858"><ele>550.0</ele><time>2026-04-05T16:24:31.424Z</time></trkpt><trkpt lat="42.9737552" lon="12.8159614"><ele>550.6666666666667</ele><time>2026-04-05T16:24:32.424Z</time></trkpt><trkpt lat="42.9737235" lon="12.8157453"><ele>551.3333333333334</ele><time>2026-04-05T16:24:33.424Z</time></trkpt><trkpt lat="42.9737013" lon="12.8155262"><ele>552.0</ele><time>2026-04-05T16:24:34.424Z</time></trkpt><trkpt lat="42.9736797" lon="12.8153181"><ele>552.0</ele><time>2026-04-05T16:24:35.423Z</time></trkpt><trkpt lat="42.9736552" lon="12.8151084"><ele>552.0</ele><time>2026-04-05T16:24:36.424Z</time></trkpt><trkpt lat="42.9736229" lon="12.8149118"><ele>552.0</ele><time>2026-04-05T16:24:37.424Z</time></trkpt><trkpt lat="42.9735848" lon="12.8147122"><ele>552.0</ele><time>2026-04-05T16:24:38.424Z</time></trkpt><trkpt lat="42.9735301" lon="12.8144933"><ele>552.0</ele><time>2026-04-05T16:24:39.423Z</time></trkpt><trkpt lat="42.9734693" lon="12.8142841"><ele>552.0</ele><time>2026-04-05T16:24:40.424Z</time></trkpt><trkpt lat="42.973408" lon="12.8140708"><ele>546.6666666666666</ele><time>2026-04-05T16:24:41.424Z</time></trkpt><trkpt lat="42.9733429" lon="12.8138597"><ele>541.3333333333333</ele><time>2026-04-05T16:24:42.424Z</time></trkpt><trkpt lat="42.9732777" lon="12.813662"><ele>536.0</ele><time>2026-04-05T16:24:43.424Z</time></trkpt><trkpt lat="42.9732238" lon="12.8134758"><ele>536.0</ele><time>2026-04-05T16:24:44.423Z</time></trkpt><trkpt lat="42.9731801" lon="12.8132905"><ele>536.0</ele><time>2026-04-05T16:24:45.423Z</time></trkpt><trkpt lat="42.9731489" lon="12.8130901"><ele>536.0</ele><time>2026-04-05T16:24:46.424Z</time></trkpt><trkpt lat="42.9731236" lon="12.8128876"><ele>536.0</ele><time>2026-04-05T16:24:47.424Z</time></trkpt><trkpt lat="42.9731043" lon="12.8126749"><ele>536.0</ele><time>2026-04-05T16:24:48.424Z</time></trkpt><trkpt lat="42.9731005" lon="12.8124501"><ele>536.0</ele><time>2026-04-05T16:24:49.423Z</time></trkpt><trkpt lat="42.9730984" lon="12.8122363"><ele>536.0</ele><time>2026-04-05T16:24:50.423Z</time></trkpt><trkpt lat="42.973091" lon="12.812022"><ele>536.25</ele><time>2026-04-05T16:24:51.424Z</time></trkpt><trkpt lat="42.9730968" lon="12.8118155"><ele>536.5</ele><time>2026-04-05T16:24:52.424Z</time></trkpt><trkpt lat="42.9730923" lon="12.8116097"><ele>536.75</ele><time>2026-04-05T16:24:53.424Z</time></trkpt><trkpt lat="42.9730942" lon="12.811428"><ele>537.0</ele><time>2026-04-05T16:24:54.424Z</time></trkpt><trkpt lat="42.9730877" lon="12.8112466"><ele>537.0</ele><time>2026-04-05T16:24:55.424Z</time></trkpt><trkpt lat="42.9730739" lon="12.811057"><ele>537.0</ele><time>2026-04-05T16:24:56.424Z</time></trkpt><trkpt lat="42.9730542" lon="12.8108776"><ele>537.0</ele><time>2026-04-05T16:24:57.424Z</time></trkpt><trkpt lat="42.9730163" lon="12.8107094"><ele>537.0</ele><time>2026-04-05T16:24:58.424Z</time></trkpt><trkpt lat="42.9729599" lon="12.8105407"><ele>538.75</ele><time>2026-04-05T16:24:59.423Z</time></trkpt><trkpt lat="42.9729002" lon="12.8103958"><ele>540.5</ele><time>2026-04-05T16:25:00.423Z</time></trkpt><trkpt lat="42.9728362" lon="12.8102552"><ele>542.25</ele><time>2026-04-05T16:25:01.424Z</time></trkpt><trkpt lat="42.9727701" lon="12.8101232"><ele>544.0</ele><time>2026-04-05T16:25:02.423Z</time></trkpt><trkpt lat="42.9726949" lon="12.8099979"><ele>545.8</ele><time>2026-04-05T16:25:03.424Z</time></trkpt><trkpt lat="42.9726233" lon="12.8098903"><ele>547.5999999999999</ele><time>2026-04-05T16:25:04.424Z</time></trkpt><trkpt lat="42.9725453" lon="12.8097869"><ele>549.4</ele><time>2026-04-05T16:25:05.423Z</time></trkpt><trkpt lat="42.9724683" lon="12.8096756"><ele>551.1999999999999</ele><time>2026-04-05T16:25:06.424Z</time></trkpt><trkpt lat="42.9723974" lon="12.8095734"><ele>553.0</ele><time>2026-04-05T16:25:07.424Z</time></trkpt><trkpt lat="42.9723323" lon="12.809482"><ele>549.5</ele><time>2026-04-05T16:25:08.424Z</time></trkpt><trkpt lat="42.9722931" lon="12.8093952"><ele>546.0</ele><time>2026-04-05T16:25:09.424Z</time></trkpt><trkpt lat="42.972269" lon="12.8092932"><ele>542.5</ele><time>2026-04-05T16:25:10.424Z</time></trkpt><trkpt lat="42.9722543" lon="12.8091848"><ele>539.0</ele><time>2026-04-05T16:25:11.424Z</time></trkpt><trkpt lat="42.9722627" lon="12.8090671"><ele>535.5</ele><time>2026-04-05T16:25:12.424Z</time></trkpt><trkpt lat="42.9722961" lon="12.808948"><ele>532.0</ele><time>2026-04-05T16:25:13.424Z</time></trkpt><trkpt lat="42.9723244" lon="12.808844"><ele>532.0</ele><time>2026-04-05T16:25:14.423Z</time></trkpt><trkpt lat="42.9723623" lon="12.8087242"><ele>532.0</ele><time>2026-04-05T16:25:15.424Z</time></trkpt><trkpt lat="42.9724084" lon="12.8085883"><ele>532.0</ele><time>2026-04-05T16:25:16.424Z</time></trkpt><trkpt lat="42.9724554" lon="12.8084505"><ele>532.0</ele><time>2026-04-05T16:25:17.424Z</time></trkpt><trkpt lat="42.9725105" lon="12.8083109"><ele>532.0</ele><time>2026-04-05T16:25:18.424Z</time></trkpt><trkpt lat="42.9725693" lon="12.808167"><ele>531.0</ele><time>2026-04-05T16:25:19.423Z</time></trkpt><trkpt lat="42.9726302" lon="12.8080119"><ele>530.0</ele><time>2026-04-05T16:25:20.424Z</time></trkpt><trkpt lat="42.9726918" lon="12.8078695"><ele>529.0</ele><time>2026-04-05T16:25:21.424Z</time></trkpt><trkpt lat="42.9727644" lon="12.8077185"><ele>528.0</ele><time>2026-04-05T16:25:22.424Z</time></trkpt><trkpt lat="42.9728451" lon="12.8075579"><ele>528.0</ele><time>2026-04-05T16:25:23.424Z</time></trkpt><trkpt lat="42.9729407" lon="12.8073938"><ele>528.0</ele><time>2026-04-05T16:25:24.424Z</time></trkpt><trkpt lat="42.9730418" lon="12.8072303"><ele>528.0</ele><time>2026-04-05T16:25:25.424Z</time></trkpt><trkpt lat="42.9731485" lon="12.807084"><ele>528.0</ele><time>2026-04-05T16:25:26.423Z</time></trkpt><trkpt lat="42.9732517" lon="12.806928"><ele>528.0</ele><time>2026-04-05T16:25:27.424Z</time></trkpt><trkpt lat="42.9733515" lon="12.8067721"><ele>528.0</ele><time>2026-04-05T16:25:28.424Z</time></trkpt><trkpt lat="42.9734604" lon="12.8066232"><ele>528.75</ele><time>2026-04-05T16:25:29.424Z</time></trkpt><trkpt lat="42.9735642" lon="12.8064866"><ele>529.5</ele><time>2026-04-05T16:25:30.424Z</time></trkpt><trkpt lat="42.9736773" lon="12.806354"><ele>530.25</ele><time>2026-04-05T16:25:31.424Z</time></trkpt><trkpt lat="42.9737872" lon="12.806237"><ele>531.0</ele><time>2026-04-05T16:25:32.423Z</time></trkpt><trkpt lat="42.9739017" lon="12.8061292"><ele>531.0</ele><time>2026-04-05T16:25:33.424Z</time></trkpt><trkpt lat="42.974023" lon="12.8060379"><ele>531.0</ele><time>2026-04-05T16:25:34.424Z</time></trkpt><trkpt lat="42.9741448" lon="12.8059507"><ele>531.0</ele><time>2026-04-05T16:25:35.424Z</time></trkpt><trkpt lat="42.9742759" lon="12.8058694"><ele>531.0</ele><time>2026-04-05T16:25:36.424Z</time></trkpt><trkpt lat="42.9744089" lon="12.8057947"><ele>529.25</ele><time>2026-04-05T16:25:37.424Z</time></trkpt><trkpt lat="42.9745435" lon="12.8057203"><ele>527.5</ele><time>2026-04-05T16:25:38.424Z</time></trkpt><trkpt lat="42.9746727" lon="12.8056535"><ele>525.75</ele><time>2026-04-05T16:25:39.424Z</time></trkpt><trkpt lat="42.9748026" lon="12.8055832"><ele>524.0</ele><time>2026-04-05T16:25:40.424Z</time></trkpt><trkpt lat="42.9749236" lon="12.8054916"><ele>527.0</ele><time>2026-04-05T16:25:41.424Z</time></trkpt><trkpt lat="42.9750403" lon="12.8053912"><ele>530.0</ele><time>2026-04-05T16:25:42.424Z</time></trkpt><trkpt lat="42.9751472" lon="12.8052766"><ele>533.0</ele><time>2026-04-05T16:25:43.424Z</time></trkpt><trkpt lat="42.9752512" lon="12.8051574"><ele>536.0</ele><time>2026-04-05T16:25:44.423Z</time></trkpt><trkpt lat="42.9753493" lon="12.8050179"><ele>536.0</ele><time>2026-04-05T16:25:45.423Z</time></trkpt><trkpt lat="42.9754416" lon="12.8048657"><ele>536.0</ele><time>2026-04-05T16:25:46.423Z</time></trkpt><trkpt lat="42.9755296" lon="12.8046846"><ele>536.0</ele><time>2026-04-05T16:25:47.424Z</time></trkpt><trkpt lat="42.9756301" lon="12.8044668"><ele>531.3333333333333</ele><time>2026-04-05T16:25:48.424Z</time></trkpt><trkpt lat="42.9757305" lon="12.804255"><ele>526.6666666666666</ele><time>2026-04-05T16:25:49.424Z</time></trkpt><trkpt lat="42.9758304" lon="12.8040552"><ele>522.0</ele><time>2026-04-05T16:25:50.424Z</time></trkpt><trkpt lat="42.9759228" lon="12.8038663"><ele>527.6666666666666</ele><time>2026-04-05T16:25:51.423Z</time></trkpt><trkpt lat="42.9760075" lon="12.8036705"><ele>533.3333333333333</ele><time>2026-04-05T16:25:52.423Z</time></trkpt><trkpt lat="42.9760971" lon="12.803449"><ele>539.0</ele><time>2026-04-05T16:25:53.423Z</time></trkpt><trkpt lat="42.9762039" lon="12.8032095"><ele>539.0</ele><time>2026-04-05T16:25:54.424Z</time></trkpt><trkpt lat="42.9763265" lon="12.8029501"><ele>539.0</ele><time>2026-04-05T16:25:55.424Z</time></trkpt><trkpt lat="42.9764505" lon="12.8026866"><ele>544.0</ele><time>2026-04-05T16:25:56.424Z</time></trkpt><trkpt lat="42.9765811" lon="12.8024178"><ele>549.0</ele><time>2026-04-05T16:25:57.424Z</time></trkpt><trkpt lat="42.976711" lon="12.8021377"><ele>549.0</ele><time>2026-04-05T16:25:58.423Z</time></trkpt><trkpt lat="42.9768422" lon="12.8018534"><ele>549.0</ele><time>2026-04-05T16:25:59.424Z</time></trkpt><trkpt lat="42.9769727" lon="12.8015734"><ele>537.0</ele><time>2026-04-05T16:26:00.424Z</time></trkpt><trkpt lat="42.9770979" lon="12.8013007"><ele>525.0</ele><time>2026-04-05T16:26:01.424Z</time></trkpt><trkpt lat="42.977225" lon="12.8010266"><ele>519.0</ele><time>2026-04-05T16:26:02.423Z</time></trkpt><trkpt lat="42.9773521" lon="12.8007556"><ele>513.0</ele><time>2026-04-05T16:26:03.424Z</time></trkpt><trkpt lat="42.9774728" lon="12.8004829"><ele>513.6666666666666</ele><time>2026-04-05T16:26:04.424Z</time></trkpt><trkpt lat="42.9775871" lon="12.8002139"><ele>514.3333333333333</ele><time>2026-04-05T16:26:05.424Z</time></trkpt><trkpt lat="42.9776967" lon="12.7999642"><ele>515.0</ele><time>2026-04-05T16:26:06.424Z</time></trkpt><trkpt lat="42.9777994" lon="12.7997221"><ele>515.0</ele><time>2026-04-05T16:26:07.424Z</time></trkpt><trkpt lat="42.9779061" lon="12.7994976"><ele>515.0</ele><time>2026-04-05T16:26:08.424Z</time></trkpt><trkpt lat="42.9780007" lon="12.799271"><ele>515.0</ele><time>2026-04-05T16:26:09.424Z</time></trkpt><trkpt lat="42.9780932" lon="12.799041"><ele>512.0</ele><time>2026-04-05T16:26:10.424Z</time></trkpt><trkpt lat="42.9781834" lon="12.798806"><ele>509.0</ele><time>2026-04-05T16:26:11.424Z</time></trkpt><trkpt lat="42.978266" lon="12.7985587"><ele>506.0</ele><time>2026-04-05T16:26:12.424Z</time></trkpt><trkpt lat="42.9783385" lon="12.7982985"><ele>511.0</ele><time>2026-04-05T16:26:13.424Z</time></trkpt><trkpt lat="42.9783926" lon="12.7980373"><ele>516.0</ele><time>2026-04-05T16:26:14.424Z</time></trkpt><trkpt lat="42.9784459" lon="12.7977478"><ele>521.0</ele><time>2026-04-05T16:26:15.424Z</time></trkpt><trkpt lat="42.9784935" lon="12.797473"><ele>523.6666666666666</ele><time>2026-04-05T16:26:16.424Z</time></trkpt><trkpt lat="42.9785405" lon="12.7971992"><ele>526.3333333333334</ele><time>2026-04-05T16:26:17.423Z</time></trkpt><trkpt lat="42.9785887" lon="12.7969342"><ele>529.0</ele><time>2026-04-05T16:26:18.424Z</time></trkpt><trkpt lat="42.97863" lon="12.7966824"><ele>532.0</ele><time>2026-04-05T16:26:19.424Z</time></trkpt><trkpt lat="42.978663" lon="12.7964443"><ele>535.0</ele><time>2026-04-05T16:26:20.424Z</time></trkpt><trkpt lat="42.9786858" lon="12.796223"><ele>538.0</ele><time>2026-04-05T16:26:21.424Z</time></trkpt><trkpt lat="42.9787151" lon="12.7960124"><ele>535.6666666666667</ele><time>2026-04-05T16:26:22.424Z</time></trkpt><trkpt lat="42.9787509" lon="12.7958151"><ele>533.3333333333334</ele><time>2026-04-05T16:26:23.424Z</time></trkpt><trkpt lat="42.9787853" lon="12.7956069"><ele>531.0</ele><time>2026-04-05T16:26:24.424Z</time></trkpt><trkpt lat="42.9788128" lon="12.7954083"><ele>531.0</ele><time>2026-04-05T16:26:25.423Z</time></trkpt><trkpt lat="42.9788216" lon="12.7952033"><ele>531.0</ele><time>2026-04-05T16:26:26.424Z</time></trkpt><trkpt lat="42.9788133" lon="12.7950009"><ele>531.0</ele><time>2026-04-05T16:26:27.424Z</time></trkpt><trkpt lat="42.9787968" lon="12.7947899"><ele>530.6666666666666</ele><time>2026-04-05T16:26:28.423Z</time></trkpt><trkpt lat="42.9787722" lon="12.7945849"><ele>530.3333333333333</ele><time>2026-04-05T16:26:29.423Z</time></trkpt><trkpt lat="42.9787393" lon="12.7943797"><ele>530.0</ele><time>2026-04-05T16:26:30.424Z</time></trkpt><trkpt lat="42.9786947" lon="12.7941902"><ele>532.25</ele><time>2026-04-05T16:26:31.423Z</time></trkpt><trkpt lat="42.9786431" lon="12.7940195"><ele>534.5</ele><time>2026-04-05T16:26:32.424Z</time></trkpt><trkpt lat="42.9785724" lon="12.7938628"><ele>536.75</ele><time>2026-04-05T16:26:33.424Z</time></trkpt><trkpt lat="42.9784949" lon="12.7937216"><ele>539.0</ele><time>2026-04-05T16:26:34.423Z</time></trkpt><trkpt lat="42.9784169" lon="12.7935953"><ele>532.0</ele><time>2026-04-05T16:26:35.424Z</time></trkpt><trkpt lat="42.9783398" lon="12.7934579"><ele>525.0</ele><time>2026-04-05T16:26:36.424Z</time></trkpt><trkpt lat="42.9782799" lon="12.7933136"><ele>518.0</ele><time>2026-04-05T16:26:37.423Z</time></trkpt><trkpt lat="42.9782432" lon="12.7931482"><ele>511.0</ele><time>2026-04-05T16:26:38.424Z</time></trkpt><trkpt lat="42.9782277" lon="12.7929872"><ele>511.0</ele><time>2026-04-05T16:26:39.424Z</time></trkpt><trkpt lat="42.9782335" lon="12.7928236"><ele>511.0</ele><time>2026-04-05T16:26:40.424Z</time></trkpt><trkpt lat="42.9782945" lon="12.7926622"><ele>511.0</ele><time>2026-04-05T16:26:41.424Z</time></trkpt><trkpt lat="42.9783633" lon="12.7924829"><ele>511.0</ele><time>2026-04-05T16:26:42.423Z</time></trkpt><trkpt lat="42.9784385" lon="12.7923028"><ele>511.6666666666667</ele><time>2026-04-05T16:26:43.423Z</time></trkpt><trkpt lat="42.9785301" lon="12.7921017"><ele>512.3333333333334</ele><time>2026-04-05T16:26:44.423Z</time></trkpt><trkpt lat="42.9786434" lon="12.7918938"><ele>513.0</ele><time>2026-04-05T16:26:45.424Z</time></trkpt><trkpt lat="42.9787701" lon="12.7916751"><ele>513.0</ele><time>2026-04-05T16:26:46.424Z</time></trkpt><trkpt lat="42.9789102" lon="12.7914549"><ele>513.0</ele><time>2026-04-05T16:26:47.424Z</time></trkpt><trkpt lat="42.9790353" lon="12.7912405"><ele>513.0</ele><time>2026-04-05T16:26:48.424Z</time></trkpt><trkpt lat="42.9791576" lon="12.7910265"><ele>523.6666666666666</ele><time>2026-04-05T16:26:49.424Z</time></trkpt><trkpt lat="42.9792832" lon="12.7908194"><ele>534.3333333333333</ele><time>2026-04-05T16:26:50.424Z</time></trkpt><trkpt lat="42.9794054" lon="12.7906021"><ele>545.0</ele><time>2026-04-05T16:26:51.424Z</time></trkpt><trkpt lat="42.9795217" lon="12.7903856"><ele>545.0</ele><time>2026-04-05T16:26:52.424Z</time></trkpt><trkpt lat="42.9796336" lon="12.79018"><ele>545.0</ele><time>2026-04-05T16:26:53.423Z</time></trkpt><trkpt lat="42.9797386" lon="12.7899683"><ele>545.0</ele><time>2026-04-05T16:26:54.423Z</time></trkpt><trkpt lat="42.9798393" lon="12.7897563"><ele>545.6666666666666</ele><time>2026-04-05T16:26:55.424Z</time></trkpt><trkpt lat="42.9799191" lon="12.7895325"><ele>546.3333333333334</ele><time>2026-04-05T16:26:56.424Z</time></trkpt><trkpt lat="42.9799993" lon="12.7892914"><ele>547.0</ele><time>2026-04-05T16:26:57.423Z</time></trkpt><trkpt lat="42.9800759" lon="12.7890595"><ele>547.0</ele><time>2026-04-05T16:26:58.423Z</time></trkpt><trkpt lat="42.980155" lon="12.7888283"><ele>547.0</ele><time>2026-04-05T16:26:59.424Z</time></trkpt><trkpt lat="42.9802281" lon="12.7886064"><ele>547.0</ele><time>2026-04-05T16:27:00.424Z</time></trkpt><trkpt lat="42.9803023" lon="12.7883825"><ele>539.0</ele><time>2026-04-05T16:27:01.424Z</time></trkpt><trkpt lat="42.9804017" lon="12.7881733"><ele>531.0</ele><time>2026-04-05T16:27:02.424Z</time></trkpt><trkpt lat="42.9805029" lon="12.7879806"><ele>523.0</ele><time>2026-04-05T16:27:03.424Z</time></trkpt><trkpt lat="42.9806054" lon="12.787782"><ele>526.0</ele><time>2026-04-05T16:27:04.423Z</time></trkpt><trkpt lat="42.9807024" lon="12.7875868"><ele>529.0</ele><time>2026-04-05T16:27:05.424Z</time></trkpt><trkpt lat="42.980798" lon="12.7873994"><ele>532.0</ele><time>2026-04-05T16:27:06.423Z</time></trkpt><trkpt lat="42.9808817" lon="12.7872114"><ele>532.0</ele><time>2026-04-05T16:27:07.424Z</time></trkpt><trkpt lat="42.9809579" lon="12.7870307"><ele>532.0</ele><time>2026-04-05T16:27:08.423Z</time></trkpt><trkpt lat="42.9810171" lon="12.786842"><ele>532.0</ele><time>2026-04-05T16:27:09.424Z</time></trkpt><trkpt lat="42.98107" lon="12.7866717"><ele>532.0</ele><time>2026-04-05T16:27:10.424Z</time></trkpt><trkpt lat="42.9811077" lon="12.7864981"><ele>526.25</ele><time>2026-04-05T16:27:11.424Z</time></trkpt><trkpt lat="42.9811341" lon="12.7863403"><ele>520.5</ele><time>2026-04-05T16:27:12.424Z</time></trkpt><trkpt lat="42.9811488" lon="12.7861828"><ele>514.75</ele><time>2026-04-05T16:27:13.424Z</time></trkpt><trkpt lat="42.9811569" lon="12.7860182"><ele>509.0</ele><time>2026-04-05T16:27:14.423Z</time></trkpt><trkpt lat="42.9811716" lon="12.7858545"><ele>507.25</ele><time>2026-04-05T16:27:15.423Z</time></trkpt><trkpt lat="42.9811773" lon="12.7856813"><ele>505.5</ele><time>2026-04-05T16:27:16.423Z</time></trkpt><trkpt lat="42.9811706" lon="12.7855085"><ele>503.75</ele><time>2026-04-05T16:27:17.423Z</time></trkpt><trkpt lat="42.9811618" lon="12.7853424"><ele>502.0</ele><time>2026-04-05T16:27:18.424Z</time></trkpt><trkpt lat="42.9811397" lon="12.7851909"><ele>501.25</ele><time>2026-04-05T16:27:19.424Z</time></trkpt><trkpt lat="42.9811006" lon="12.7850427"><ele>500.5</ele><time>2026-04-05T16:27:20.424Z</time></trkpt><trkpt lat="42.9810342" lon="12.7848962"><ele>499.75</ele><time>2026-04-05T16:27:21.423Z</time></trkpt><trkpt lat="42.9809664" lon="12.7847586"><ele>499.0</ele><time>2026-04-05T16:27:22.424Z</time></trkpt><trkpt lat="42.9808866" lon="12.7846201"><ele>498.0</ele><time>2026-04-05T16:27:23.424Z</time></trkpt><trkpt lat="42.9807803" lon="12.7844861"><ele>497.0</ele><time>2026-04-05T16:27:24.423Z</time></trkpt><trkpt lat="42.9806707" lon="12.7843516"><ele>496.0</ele><time>2026-04-05T16:27:25.424Z</time></trkpt><trkpt lat="42.9805444" lon="12.7842164"><ele>495.6666666666667</ele><time>2026-04-05T16:27:26.424Z</time></trkpt><trkpt lat="42.9804115" lon="12.7840788"><ele>495.33333333333337</ele><time>2026-04-05T16:27:27.424Z</time></trkpt><trkpt lat="42.9802681" lon="12.7839349"><ele>495.0</ele><time>2026-04-05T16:27:28.423Z</time></trkpt><trkpt lat="42.980125" lon="12.7837987"><ele>495.0</ele><time>2026-04-05T16:27:29.424Z</time></trkpt><trkpt lat="42.9799989" lon="12.7836644"><ele>495.0</ele><time>2026-04-05T16:27:30.424Z</time></trkpt><trkpt lat="42.979891" lon="12.7835304"><ele>495.0</ele><time>2026-04-05T16:27:31.424Z</time></trkpt><trkpt lat="42.9798029" lon="12.7833922"><ele>495.0</ele><time>2026-04-05T16:27:32.424Z</time></trkpt><trkpt lat="42.9797297" lon="12.7832413"><ele>494.5</ele><time>2026-04-05T16:27:33.424Z</time></trkpt><trkpt lat="42.9796705" lon="12.7830728"><ele>494.0</ele><time>2026-04-05T16:27:34.424Z</time></trkpt><trkpt lat="42.9796442" lon="12.7828869"><ele>493.5</ele><time>2026-04-05T16:27:35.423Z</time></trkpt><trkpt lat="42.9796227" lon="12.7826808"><ele>493.0</ele><time>2026-04-05T16:27:36.423Z</time></trkpt><trkpt lat="42.9796079" lon="12.782477"><ele>493.0</ele><time>2026-04-05T16:27:37.424Z</time></trkpt><trkpt lat="42.9796024" lon="12.7822624"><ele>493.0</ele><time>2026-04-05T16:27:38.423Z</time></trkpt><trkpt lat="42.9796276" lon="12.7820454"><ele>493.0</ele><time>2026-04-05T16:27:39.424Z</time></trkpt><trkpt lat="42.9796671" lon="12.7818286"><ele>494.0</ele><time>2026-04-05T16:27:40.424Z</time></trkpt><trkpt lat="42.9797146" lon="12.7816026"><ele>495.0</ele><time>2026-04-05T16:27:41.424Z</time></trkpt><trkpt lat="42.9797684" lon="12.7813711"><ele>496.0</ele><time>2026-04-05T16:27:42.424Z</time></trkpt><trkpt lat="42.9798349" lon="12.7811543"><ele>497.0</ele><time>2026-04-05T16:27:43.424Z</time></trkpt><trkpt lat="42.9799091" lon="12.7809548"><ele>498.0</ele><time>2026-04-05T16:27:44.424Z</time></trkpt><trkpt lat="42.9799927" lon="12.780771"><ele>499.0</ele><time>2026-04-05T16:27:45.424Z</time></trkpt><trkpt lat="42.9800827" lon="12.780602"><ele>497.0</ele><time>2026-04-05T16:27:46.424Z</time></trkpt><trkpt lat="42.980196" lon="12.7804669"><ele>495.0</ele><time>2026-04-05T16:27:47.424Z</time></trkpt><trkpt lat="42.9802976" lon="12.7803446"><ele>493.0</ele><time>2026-04-05T16:27:48.423Z</time></trkpt><trkpt lat="42.9804047" lon="12.7802102"><ele>491.0</ele><time>2026-04-05T16:27:49.424Z</time></trkpt><trkpt lat="42.9805016" lon="12.7800375"><ele>491.0</ele><time>2026-04-05T16:27:50.424Z</time></trkpt><trkpt lat="42.9805887" lon="12.779851"><ele>491.0</ele><time>2026-04-05T16:27:51.424Z</time></trkpt><trkpt lat="42.9806813" lon="12.7796524"><ele>491.0</ele><time>2026-04-05T16:27:52.424Z</time></trkpt><trkpt lat="42.9807578" lon="12.7794358"><ele>491.66666666666663</ele><time>2026-04-05T16:27:53.424Z</time></trkpt><trkpt lat="42.9808417" lon="12.7792233"><ele>492.33333333333337</ele><time>2026-04-05T16:27:54.424Z</time></trkpt><trkpt lat="42.980917" lon="12.7790157"><ele>493.0</ele><time>2026-04-05T16:27:55.424Z</time></trkpt><trkpt lat="42.9809886" lon="12.7788089"><ele>491.33333333333337</ele><time>2026-04-05T16:27:56.424Z</time></trkpt><trkpt lat="42.9810541" lon="12.7786064"><ele>489.66666666666663</ele><time>2026-04-05T16:27:57.424Z</time></trkpt><trkpt lat="42.9811056" lon="12.7783946"><ele>488.0</ele><time>2026-04-05T16:27:58.424Z</time></trkpt><trkpt lat="42.9811408" lon="12.7781771"><ele>488.0</ele><time>2026-04-05T16:27:59.424Z</time></trkpt><trkpt lat="42.981157" lon="12.7779597"><ele>488.0</ele><time>2026-04-05T16:28:00.424Z</time></trkpt><trkpt lat="42.9811707" lon="12.7777294"><ele>488.0</ele><time>2026-04-05T16:28:01.423Z</time></trkpt><trkpt lat="42.9811811" lon="12.7774883"><ele>488.0</ele><time>2026-04-05T16:28:02.424Z</time></trkpt><trkpt lat="42.9811978" lon="12.7772419"><ele>488.0</ele><time>2026-04-05T16:28:03.424Z</time></trkpt><trkpt lat="42.9812169" lon="12.7770015"><ele>488.0</ele><time>2026-04-05T16:28:04.423Z</time></trkpt><trkpt lat="42.9812581" lon="12.776763"><ele>488.0</ele><time>2026-04-05T16:28:05.424Z</time></trkpt><trkpt lat="42.9813033" lon="12.7765279"><ele>488.0</ele><time>2026-04-05T16:28:06.423Z</time></trkpt><trkpt lat="42.9813619" lon="12.7763304"><ele>488.0</ele><time>2026-04-05T16:28:07.424Z</time></trkpt><trkpt lat="42.9814055" lon="12.7761335"><ele>488.25</ele><time>2026-04-05T16:28:08.423Z</time></trkpt><trkpt lat="42.9814432" lon="12.7759407"><ele>488.5</ele><time>2026-04-05T16:28:09.424Z</time></trkpt><trkpt lat="42.9814286" lon="12.7757375"><ele>488.75</ele><time>2026-04-05T16:28:10.424Z</time></trkpt><trkpt lat="42.9814139" lon="12.7755357"><ele>489.0</ele><time>2026-04-05T16:28:11.423Z</time></trkpt><trkpt lat="42.9813887" lon="12.7753366"><ele>487.33333333333337</ele><time>2026-04-05T16:28:12.424Z</time></trkpt><trkpt lat="42.9813446" lon="12.7751361"><ele>485.6666666666667</ele><time>2026-04-05T16:28:13.424Z</time></trkpt><trkpt lat="42.9812792" lon="12.7749386"><ele>484.0</ele><time>2026-04-05T16:28:14.423Z</time></trkpt><trkpt lat="42.9812104" lon="12.7747635"><ele>484.0</ele><time>2026-04-05T16:28:15.424Z</time></trkpt><trkpt lat="42.9811399" lon="12.7745899"><ele>484.0</ele><time>2026-04-05T16:28:16.424Z</time></trkpt><trkpt lat="42.9810654" lon="12.7744297"><ele>484.0</ele><time>2026-04-05T16:28:17.424Z</time></trkpt><trkpt lat="42.9809402" lon="12.7743095"><ele>484.0</ele><time>2026-04-05T16:28:18.424Z</time></trkpt><trkpt lat="42.9808088" lon="12.7741895"><ele>484.6666666666667</ele><time>2026-04-05T16:28:19.423Z</time></trkpt><trkpt lat="42.9806744" lon="12.7740523"><ele>485.33333333333337</ele><time>2026-04-05T16:28:20.424Z</time></trkpt><trkpt lat="42.9805267" lon="12.7739174"><ele>486.0</ele><time>2026-04-05T16:28:21.424Z</time></trkpt><trkpt lat="42.980375" lon="12.7737762"><ele>486.0</ele><time>2026-04-05T16:28:22.424Z</time></trkpt><trkpt lat="42.9802229" lon="12.7736416"><ele>486.0</ele><time>2026-04-05T16:28:23.424Z</time></trkpt><trkpt lat="42.9800754" lon="12.7735023"><ele>486.0</ele><time>2026-04-05T16:28:24.423Z</time></trkpt><trkpt lat="42.9799405" lon="12.7733649"><ele>486.66666666666663</ele><time>2026-04-05T16:28:25.424Z</time></trkpt><trkpt lat="42.9798139" lon="12.7732137"><ele>487.3333333333333</ele><time>2026-04-05T16:28:26.423Z</time></trkpt><trkpt lat="42.9797125" lon="12.7730664"><ele>488.0</ele><time>2026-04-05T16:28:27.424Z</time></trkpt><trkpt lat="42.9796284" lon="12.7729208"><ele>488.0</ele><time>2026-04-05T16:28:28.424Z</time></trkpt><trkpt lat="42.9795564" lon="12.7727626"><ele>488.0</ele><time>2026-04-05T16:28:29.423Z</time></trkpt><trkpt lat="42.9795652" lon="12.7725936"><ele>488.0</ele><time>2026-04-05T16:28:30.424Z</time></trkpt><trkpt lat="42.9795779" lon="12.7724469"><ele>488.0</ele><time>2026-04-05T16:28:31.424Z</time></trkpt><trkpt lat="42.9796272" lon="12.7723129"><ele>484.0</ele><time>2026-04-05T16:28:32.424Z</time></trkpt><trkpt lat="42.9796905" lon="12.7721778"><ele>480.0</ele><time>2026-04-05T16:28:33.423Z</time></trkpt><trkpt lat="42.979745" lon="12.7720243"><ele>476.0</ele><time>2026-04-05T16:28:34.424Z</time></trkpt><trkpt lat="42.9797951" lon="12.7718553"><ele>472.0</ele><time>2026-04-05T16:28:35.424Z</time></trkpt><trkpt lat="42.9798374" lon="12.7716835"><ele>471.75</ele><time>2026-04-05T16:28:36.423Z</time></trkpt><trkpt lat="42.9798629" lon="12.7715241"><ele>471.5</ele><time>2026-04-05T16:28:37.424Z</time></trkpt><trkpt lat="42.9798622" lon="12.7713664"><ele>471.25</ele><time>2026-04-05T16:28:38.424Z</time></trkpt><trkpt lat="42.9798214" lon="12.7712115"><ele>471.0</ele><time>2026-04-05T16:28:39.424Z</time></trkpt><trkpt lat="42.9797644" lon="12.7710509"><ele>469.75</ele><time>2026-04-05T16:28:40.424Z</time></trkpt><trkpt lat="42.9796963" lon="12.7708953"><ele>468.5</ele><time>2026-04-05T16:28:41.423Z</time></trkpt><trkpt lat="42.9796196" lon="12.7707527"><ele>467.25</ele><time>2026-04-05T16:28:42.424Z</time></trkpt><trkpt lat="42.9795409" lon="12.7706109"><ele>466.0</ele><time>2026-04-05T16:28:43.424Z</time></trkpt><trkpt lat="42.979462" lon="12.7704764"><ele>466.0</ele><time>2026-04-05T16:28:44.423Z</time></trkpt><trkpt lat="42.9793816" lon="12.7703529"><ele>466.0</ele><time>2026-04-05T16:28:45.424Z</time></trkpt><trkpt lat="42.9793059" lon="12.7702366"><ele>466.0</ele><time>2026-04-05T16:28:46.424Z</time></trkpt><trkpt lat="42.9792337" lon="12.7701175"><ele>466.0</ele><time>2026-04-05T16:28:47.424Z</time></trkpt><trkpt lat="42.9791586" lon="12.7700078"><ele>470.25</ele><time>2026-04-05T16:28:48.424Z</time></trkpt><trkpt lat="42.979085" lon="12.7698999"><ele>474.5</ele><time>2026-04-05T16:28:49.424Z</time></trkpt><trkpt lat="42.9790132" lon="12.7697817"><ele>478.75</ele><time>2026-04-05T16:28:50.424Z</time></trkpt><trkpt lat="42.9789401" lon="12.7696602"><ele>483.0</ele><time>2026-04-05T16:28:51.424Z</time></trkpt><trkpt lat="42.9788631" lon="12.7695368"><ele>483.0</ele><time>2026-04-05T16:28:52.424Z</time></trkpt><trkpt lat="42.978772" lon="12.7694213"><ele>483.0</ele><time>2026-04-05T16:28:53.424Z</time></trkpt><trkpt lat="42.978674" lon="12.769306"><ele>483.0</ele><time>2026-04-05T16:28:54.424Z</time></trkpt><trkpt lat="42.9785773" lon="12.7691688"><ele>483.0</ele><time>2026-04-05T16:28:55.424Z</time></trkpt><trkpt lat="42.9784892" lon="12.7690201"><ele>484.0</ele><time>2026-04-05T16:28:56.423Z</time></trkpt><trkpt lat="42.9784177" lon="12.7688565"><ele>485.0</ele><time>2026-04-05T16:28:57.423Z</time></trkpt><trkpt lat="42.9783518" lon="12.7686946"><ele>486.0</ele><time>2026-04-05T16:28:58.423Z</time></trkpt><trkpt lat="42.9782834" lon="12.7685345"><ele>487.0</ele><time>2026-04-05T16:28:59.424Z</time></trkpt><trkpt lat="42.9782128" lon="12.768392"><ele>480.5</ele><time>2026-04-05T16:29:00.424Z</time></trkpt><trkpt lat="42.9781002" lon="12.7682766"><ele>474.0</ele><time>2026-04-05T16:29:01.424Z</time></trkpt><trkpt lat="42.9779698" lon="12.7681821"><ele>467.5</ele><time>2026-04-05T16:29:02.424Z</time></trkpt><trkpt lat="42.9778296" lon="12.7681106"><ele>461.0</ele><time>2026-04-05T16:29:03.424Z</time></trkpt><trkpt lat="42.977687" lon="12.7680433"><ele>461.0</ele><time>2026-04-05T16:29:04.424Z</time></trkpt><trkpt lat="42.9775433" lon="12.7679737"><ele>461.0</ele><time>2026-04-05T16:29:05.424Z</time></trkpt><trkpt lat="42.977394" lon="12.7678966"><ele>461.0</ele><time>2026-04-05T16:29:06.424Z</time></trkpt><trkpt lat="42.9772587" lon="12.7678267"><ele>459.8</ele><time>2026-04-05T16:29:07.423Z</time></trkpt><trkpt lat="42.9771354" lon="12.7677559"><ele>458.6</ele><time>2026-04-05T16:29:08.424Z</time></trkpt><trkpt lat="42.9770208" lon="12.7676905"><ele>457.4</ele><time>2026-04-05T16:29:09.423Z</time></trkpt><trkpt lat="42.9769289" lon="12.7676173"><ele>456.2</ele><time>2026-04-05T16:29:10.424Z</time></trkpt><trkpt lat="42.9768798" lon="12.7675226"><ele>455.0</ele><time>2026-04-05T16:29:11.424Z</time></trkpt><trkpt lat="42.976847" lon="12.7673957"><ele>455.0</ele><time>2026-04-05T16:29:12.424Z</time></trkpt><trkpt lat="42.9768419" lon="12.7672434"><ele>455.0</ele><time>2026-04-05T16:29:13.424Z</time></trkpt><trkpt lat="42.9768552" lon="12.7670695"><ele>455.0</ele><time>2026-04-05T16:29:14.424Z</time></trkpt><trkpt lat="42.9768725" lon="12.7668982"><ele>455.0</ele><time>2026-04-05T16:29:15.424Z</time></trkpt><trkpt lat="42.9769036" lon="12.7667401"><ele>454.5</ele><time>2026-04-05T16:29:16.423Z</time></trkpt><trkpt lat="42.9769521" lon="12.7666"><ele>454.0</ele><time>2026-04-05T16:29:17.424Z</time></trkpt><trkpt lat="42.9770303" lon="12.7664793"><ele>453.5</ele><time>2026-04-05T16:29:18.424Z</time></trkpt><trkpt lat="42.9771303" lon="12.7663575"><ele>453.0</ele><time>2026-04-05T16:29:19.424Z</time></trkpt><trkpt lat="42.9772395" lon="12.7662299"><ele>453.0</ele><time>2026-04-05T16:29:20.424Z</time></trkpt><trkpt lat="42.9773575" lon="12.7660974"><ele>453.0</ele><time>2026-04-05T16:29:21.424Z</time></trkpt><trkpt lat="42.977473" lon="12.7659626"><ele>453.0</ele><time>2026-04-05T16:29:22.424Z</time></trkpt><trkpt lat="42.9775919" lon="12.7658258"><ele>450.66666666666663</ele><time>2026-04-05T16:29:23.424Z</time></trkpt><trkpt lat="42.9777201" lon="12.7657025"><ele>448.3333333333333</ele><time>2026-04-05T16:29:24.424Z</time></trkpt><trkpt lat="42.9778603" lon="12.7655932"><ele>446.0</ele><time>2026-04-05T16:29:25.424Z</time></trkpt><trkpt lat="42.9780132" lon="12.7654908"><ele>446.0</ele><time>2026-04-05T16:29:26.423Z</time></trkpt><trkpt lat="42.9781719" lon="12.7654059"><ele>446.0</ele><time>2026-04-05T16:29:27.424Z</time></trkpt><trkpt lat="42.9783386" lon="12.7653346"><ele>446.0</ele><time>2026-04-05T16:29:28.423Z</time></trkpt><trkpt lat="42.9785002" lon="12.765271"><ele>451.66666666666663</ele><time>2026-04-05T16:29:29.424Z</time></trkpt><trkpt lat="42.9786575" lon="12.7652136"><ele>457.33333333333337</ele><time>2026-04-05T16:29:30.423Z</time></trkpt><trkpt lat="42.9788058" lon="12.7651559"><ele>463.0</ele><time>2026-04-05T16:29:31.424Z</time></trkpt><trkpt lat="42.9789373" lon="12.7651121"><ele>463.0</ele><time>2026-04-05T16:29:32.424Z</time></trkpt><trkpt lat="42.9790504" lon="12.7650601"><ele>463.0</ele><time>2026-04-05T16:29:33.423Z</time></trkpt><trkpt lat="42.979159" lon="12.7649771"><ele>463.0</ele><time>2026-04-05T16:29:34.424Z</time></trkpt><trkpt lat="42.9792483" lon="12.7648757"><ele>463.0</ele><time>2026-04-05T16:29:35.424Z</time></trkpt><trkpt lat="42.9793281" lon="12.7647531"><ele>454.5</ele><time>2026-04-05T16:29:36.423Z</time></trkpt><trkpt lat="42.9793586" lon="12.7645846"><ele>446.0</ele><time>2026-04-05T16:29:37.424Z</time></trkpt><trkpt lat="42.9793641" lon="12.7643983"><ele>437.5</ele><time>2026-04-05T16:29:38.424Z</time></trkpt><trkpt lat="42.9793496" lon="12.7642042"><ele>429.0</ele><time>2026-04-05T16:29:39.424Z</time></trkpt><trkpt lat="42.9793115" lon="12.7639933"><ele>429.0</ele><time>2026-04-05T16:29:40.424Z</time></trkpt><trkpt lat="42.9792592" lon="12.7637724"><ele>429.0</ele><time>2026-04-05T16:29:41.424Z</time></trkpt><trkpt lat="42.9792047" lon="12.7635389"><ele>429.0</ele><time>2026-04-05T16:29:42.423Z</time></trkpt><trkpt lat="42.9791458" lon="12.7632995"><ele>439.0</ele><time>2026-04-05T16:29:43.424Z</time></trkpt><trkpt lat="42.9790885" lon="12.7630322"><ele>449.0</ele><time>2026-04-05T16:29:44.423Z</time></trkpt><trkpt lat="42.9790438" lon="12.7627751"><ele>459.0</ele><time>2026-04-05T16:29:45.424Z</time></trkpt><trkpt lat="42.9790169" lon="12.7625255"><ele>459.0</ele><time>2026-04-05T16:29:46.424Z</time></trkpt><trkpt lat="42.9789949" lon="12.7622686"><ele>459.0</ele><time>2026-04-05T16:29:47.424Z</time></trkpt><trkpt lat="42.9789714" lon="12.7620107"><ele>459.0</ele><time>2026-04-05T16:29:48.424Z</time></trkpt><trkpt lat="42.9789547" lon="12.7617448"><ele>456.66666666666663</ele><time>2026-04-05T16:29:49.423Z</time></trkpt><trkpt lat="42.9789469" lon="12.7614761"><ele>454.3333333333333</ele><time>2026-04-05T16:29:50.424Z</time></trkpt><trkpt lat="42.9789239" lon="12.7612038"><ele>452.0</ele><time>2026-04-05T16:29:51.424Z</time></trkpt><trkpt lat="42.9788977" lon="12.7609301"><ele>449.0</ele><time>2026-04-05T16:29:52.424Z</time></trkpt><trkpt lat="42.9788832" lon="12.7606533"><ele>446.0</ele><time>2026-04-05T16:29:53.424Z</time></trkpt><trkpt lat="42.9788753" lon="12.7603908"><ele>443.0</ele><time>2026-04-05T16:29:54.423Z</time></trkpt><trkpt lat="42.9788626" lon="12.7601428"><ele>440.3333333333333</ele><time>2026-04-05T16:29:55.424Z</time></trkpt><trkpt lat="42.9788453" lon="12.7598968"><ele>437.66666666666663</ele><time>2026-04-05T16:29:56.424Z</time></trkpt><trkpt lat="42.9788258" lon="12.7596676"><ele>435.0</ele><time>2026-04-05T16:29:57.424Z</time></trkpt><trkpt lat="42.9787972" lon="12.7594545"><ele>433.33333333333337</ele><time>2026-04-05T16:29:58.423Z</time></trkpt><trkpt lat="42.9787526" lon="12.7592467"><ele>431.6666666666667</ele><time>2026-04-05T16:29:59.424Z</time></trkpt><trkpt lat="42.9786904" lon="12.7590546"><ele>430.0</ele><time>2026-04-05T16:30:00.424Z</time></trkpt><trkpt lat="42.9786117" lon="12.7588628"><ele>430.0</ele><time>2026-04-05T16:30:01.423Z</time></trkpt><trkpt lat="42.9785274" lon="12.7586735"><ele>430.0</ele><time>2026-04-05T16:30:02.424Z</time></trkpt><trkpt lat="42.9784281" lon="12.7584803"><ele>430.0</ele><time>2026-04-05T16:30:03.424Z</time></trkpt><trkpt lat="42.9783272" lon="12.7582888"><ele>440.6666666666667</ele><time>2026-04-05T16:30:04.424Z</time></trkpt><trkpt lat="42.9782159" lon="12.7580942"><ele>451.33333333333337</ele><time>2026-04-05T16:30:05.424Z</time></trkpt><trkpt lat="42.9780807" lon="12.7579084"><ele>462.0</ele><time>2026-04-05T16:30:06.424Z</time></trkpt><trkpt lat="42.9779549" lon="12.7577151"><ele>456.66666666666663</ele><time>2026-04-05T16:30:07.424Z</time></trkpt><trkpt lat="42.9778274" lon="12.7575177"><ele>451.3333333333333</ele><time>2026-04-05T16:30:08.424Z</time></trkpt><trkpt lat="42.977682" lon="12.7573179"><ele>446.0</ele><time>2026-04-05T16:30:09.424Z</time></trkpt><trkpt lat="42.9775447" lon="12.757124"><ele>448.3333333333333</ele><time>2026-04-05T16:30:10.424Z</time></trkpt><trkpt lat="42.9774179" lon="12.7569277"><ele>450.66666666666663</ele><time>2026-04-05T16:30:11.424Z</time></trkpt><trkpt lat="42.9772946" lon="12.7567388"><ele>453.0</ele><time>2026-04-05T16:30:12.424Z</time></trkpt><trkpt lat="42.9771656" lon="12.7565521"><ele>453.0</ele><time>2026-04-05T16:30:13.424Z</time></trkpt><trkpt lat="42.9770305" lon="12.7563864"><ele>453.0</ele><time>2026-04-05T16:30:14.424Z</time></trkpt><trkpt lat="42.9768878" lon="12.7562272"><ele>453.0</ele><time>2026-04-05T16:30:15.424Z</time></trkpt><trkpt lat="42.9767454" lon="12.7560792"><ele>453.0</ele><time>2026-04-05T16:30:16.423Z</time></trkpt><trkpt lat="42.9765969" lon="12.7559337"><ele>453.0</ele><time>2026-04-05T16:30:17.424Z</time></trkpt><trkpt lat="42.9764274" lon="12.7557971"><ele>453.0</ele><time>2026-04-05T16:30:18.424Z</time></trkpt><trkpt lat="42.976252" lon="12.7556683"><ele>453.0</ele><time>2026-04-05T16:30:19.424Z</time></trkpt><trkpt lat="42.9760766" lon="12.7555407"><ele>453.0</ele><time>2026-04-05T16:30:20.424Z</time></trkpt><trkpt lat="42.9758985" lon="12.7554287"><ele>453.0</ele><time>2026-04-05T16:30:21.424Z</time></trkpt><trkpt lat="42.9757267" lon="12.7553253"><ele>450.66666666666663</ele><time>2026-04-05T16:30:22.424Z</time></trkpt><trkpt lat="42.9755497" lon="12.7552291"><ele>448.3333333333333</ele><time>2026-04-05T16:30:23.423Z</time></trkpt><trkpt lat="42.9753644" lon="12.7551547"><ele>446.0</ele><time>2026-04-05T16:30:24.424Z</time></trkpt><trkpt lat="42.9751865" lon="12.7551036"><ele>449.66666666666663</ele><time>2026-04-05T16:30:25.424Z</time></trkpt><trkpt lat="42.9750143" lon="12.7550694"><ele>453.33333333333337</ele><time>2026-04-05T16:30:26.424Z</time></trkpt><trkpt lat="42.9748506" lon="12.755043"><ele>457.0</ele><time>2026-04-05T16:30:27.424Z</time></trkpt><trkpt lat="42.9746927" lon="12.755036"><ele>457.0</ele><time>2026-04-05T16:30:28.423Z</time></trkpt><trkpt lat="42.974539" lon="12.7550496"><ele>457.0</ele><time>2026-04-05T16:30:29.423Z</time></trkpt><trkpt lat="42.974372" lon="12.7551078"><ele>457.0</ele><time>2026-04-05T16:30:30.423Z</time></trkpt><trkpt lat="42.9742035" lon="12.7551868"><ele>465.33333333333337</ele><time>2026-04-05T16:30:31.424Z</time></trkpt><trkpt lat="42.9740346" lon="12.7552769"><ele>473.66666666666663</ele><time>2026-04-05T16:30:32.424Z</time></trkpt><trkpt lat="42.9738719" lon="12.7553625"><ele>482.0</ele><time>2026-04-05T16:30:33.424Z</time></trkpt><trkpt lat="42.973711" lon="12.7554466"><ele>482.0</ele><time>2026-04-05T16:30:34.423Z</time></trkpt><trkpt lat="42.9735503" lon="12.755515"><ele>482.0</ele><time>2026-04-05T16:30:35.423Z</time></trkpt><trkpt lat="42.9734029" lon="12.7555673"><ele>482.0</ele><time>2026-04-05T16:30:36.423Z</time></trkpt><trkpt lat="42.9732705" lon="12.7555932"><ele>478.0</ele><time>2026-04-05T16:30:37.423Z</time></trkpt><trkpt lat="42.9731363" lon="12.755607"><ele>474.0</ele><time>2026-04-05T16:30:38.424Z</time></trkpt><trkpt lat="42.9730157" lon="12.7555856"><ele>470.0</ele><time>2026-04-05T16:30:39.424Z</time></trkpt><trkpt lat="42.9729113" lon="12.7555313"><ele>466.0</ele><time>2026-04-05T16:30:40.423Z</time></trkpt><trkpt lat="42.9728242" lon="12.7554371"><ele>466.0</ele><time>2026-04-05T16:30:41.424Z</time></trkpt><trkpt lat="42.9727513" lon="12.755282"><ele>466.0</ele><time>2026-04-05T16:30:42.424Z</time></trkpt><trkpt lat="42.9726946" lon="12.7551282"><ele>466.0</ele><time>2026-04-05T16:30:43.423Z</time></trkpt><trkpt lat="42.9726566" lon="12.7549489"><ele>466.0</ele><time>2026-04-05T16:30:44.424Z</time></trkpt><trkpt lat="42.9726317" lon="12.7547527"><ele>455.6666666666667</ele><time>2026-04-05T16:30:45.424Z</time></trkpt><trkpt lat="42.9726089" lon="12.7545566"><ele>445.33333333333337</ele><time>2026-04-05T16:30:46.424Z</time></trkpt><trkpt lat="42.9726129" lon="12.7543365"><ele>435.0</ele><time>2026-04-05T16:30:47.423Z</time></trkpt><trkpt lat="42.9726255" lon="12.7541169"><ele>428.66666666666663</ele><time>2026-04-05T16:30:48.424Z</time></trkpt><trkpt lat="42.9726354" lon="12.7538941"><ele>422.3333333333333</ele><time>2026-04-05T16:30:49.424Z</time></trkpt><trkpt lat="42.9726389" lon="12.7536828"><ele>416.0</ele><time>2026-04-05T16:30:50.424Z</time></trkpt><trkpt lat="42.9726229" lon="12.7534774"><ele>412.3333333333333</ele><time>2026-04-05T16:30:51.423Z</time></trkpt><trkpt lat="42.97259" lon="12.7532596"><ele>408.66666666666663</ele><time>2026-04-05T16:30:52.424Z</time></trkpt><trkpt lat="42.9725499" lon="12.7530498"><ele>405.0</ele><time>2026-04-05T16:30:53.423Z</time></trkpt><trkpt lat="42.9724822" lon="12.7528273"><ele>414.66666666666663</ele><time>2026-04-05T16:30:54.424Z</time></trkpt><trkpt lat="42.9724065" lon="12.7526107"><ele>424.3333333333333</ele><time>2026-04-05T16:30:55.424Z</time></trkpt><trkpt lat="42.9723097" lon="12.7523922"><ele>434.0</ele><time>2026-04-05T16:30:56.424Z</time></trkpt><trkpt lat="42.9722212" lon="12.752181"><ele>434.0</ele><time>2026-04-05T16:30:57.424Z</time></trkpt><trkpt lat="42.9721194" lon="12.7519543"><ele>434.0</ele><time>2026-04-05T16:30:58.424Z</time></trkpt><trkpt lat="42.9720225" lon="12.7517212"><ele>434.0</ele><time>2026-04-05T16:30:59.424Z</time></trkpt><trkpt lat="42.9719251" lon="12.7514955"><ele>430.66666666666663</ele><time>2026-04-05T16:31:00.423Z</time></trkpt><trkpt lat="42.9718279" lon="12.7512853"><ele>427.33333333333337</ele><time>2026-04-05T16:31:01.424Z</time></trkpt><trkpt lat="42.9717376" lon="12.751087"><ele>424.0</ele><time>2026-04-05T16:31:02.424Z</time></trkpt><trkpt lat="42.9716587" lon="12.7509114"><ele>424.0</ele><time>2026-04-05T16:31:03.423Z</time></trkpt><trkpt lat="42.9715749" lon="12.750749"><ele>424.0</ele><time>2026-04-05T16:31:04.424Z</time></trkpt><trkpt lat="42.9714821" lon="12.7505955"><ele>424.0</ele><time>2026-04-05T16:31:05.424Z</time></trkpt><trkpt lat="42.9713638" lon="12.7504621"><ele>424.0</ele><time>2026-04-05T16:31:06.423Z</time></trkpt><trkpt lat="42.9712329" lon="12.7503503"><ele>424.0</ele><time>2026-04-05T16:31:07.424Z</time></trkpt><trkpt lat="42.9710942" lon="12.7502567"><ele>424.0</ele><time>2026-04-05T16:31:08.424Z</time></trkpt><trkpt lat="42.9709682" lon="12.7501748"><ele>424.0</ele><time>2026-04-05T16:31:09.423Z</time></trkpt><trkpt lat="42.9708576" lon="12.7500717"><ele>424.0</ele><time>2026-04-05T16:31:10.424Z</time></trkpt><trkpt lat="42.9707536" lon="12.749954"><ele>424.6666666666667</ele><time>2026-04-05T16:31:11.424Z</time></trkpt><trkpt lat="42.9706688" lon="12.7497946"><ele>425.33333333333337</ele><time>2026-04-05T16:31:12.424Z</time></trkpt><trkpt lat="42.9705816" lon="12.7496369"><ele>426.0</ele><time>2026-04-05T16:31:13.424Z</time></trkpt><trkpt lat="42.9704838" lon="12.7494513"><ele>420.66666666666663</ele><time>2026-04-05T16:31:14.424Z</time></trkpt><trkpt lat="42.9703882" lon="12.7492763"><ele>415.3333333333333</ele><time>2026-04-05T16:31:15.424Z</time></trkpt><trkpt lat="42.9703095" lon="12.7490963"><ele>410.0</ele><time>2026-04-05T16:31:16.424Z</time></trkpt><trkpt lat="42.9702397" lon="12.7489068"><ele>410.0</ele><time>2026-04-05T16:31:17.424Z</time></trkpt><trkpt lat="42.9701686" lon="12.7486973"><ele>410.0</ele><time>2026-04-05T16:31:18.424Z</time></trkpt><trkpt lat="42.9701222" lon="12.7484929"><ele>410.0</ele><time>2026-04-05T16:31:19.423Z</time></trkpt><trkpt lat="42.9700883" lon="12.748309"><ele>408.25</ele><time>2026-04-05T16:31:20.423Z</time></trkpt><trkpt lat="42.9700563" lon="12.7481524"><ele>406.5</ele><time>2026-04-05T16:31:21.423Z</time></trkpt><trkpt lat="42.9700022" lon="12.748023"><ele>404.75</ele><time>2026-04-05T16:31:22.424Z</time></trkpt><trkpt lat="42.9699299" lon="12.7479193"><ele>403.0</ele><time>2026-04-05T16:31:23.424Z</time></trkpt><trkpt lat="42.9698146" lon="12.7478608"><ele>404.0</ele><time>2026-04-05T16:31:24.424Z</time></trkpt><trkpt lat="42.9696771" lon="12.7478102"><ele>405.0</ele><time>2026-04-05T16:31:25.424Z</time></trkpt><trkpt lat="42.9695291" lon="12.7477388"><ele>406.0</ele><time>2026-04-05T16:31:26.424Z</time></trkpt><trkpt lat="42.9693785" lon="12.7476496"><ele>406.0</ele><time>2026-04-05T16:31:27.424Z</time></trkpt><trkpt lat="42.96922" lon="12.7475331"><ele>406.0</ele><time>2026-04-05T16:31:28.424Z</time></trkpt><trkpt lat="42.9690691" lon="12.7474167"><ele>406.0</ele><time>2026-04-05T16:31:29.424Z</time></trkpt><trkpt lat="42.9689336" lon="12.7472824"><ele>403.33333333333337</ele><time>2026-04-05T16:31:30.424Z</time></trkpt><trkpt lat="42.9687982" lon="12.7471558"><ele>400.66666666666663</ele><time>2026-04-05T16:31:31.424Z</time></trkpt><trkpt lat="42.9686618" lon="12.7470249"><ele>398.0</ele><time>2026-04-05T16:31:32.424Z</time></trkpt><trkpt lat="42.9685352" lon="12.7468491"><ele>398.0</ele><time>2026-04-05T16:31:33.423Z</time></trkpt><trkpt lat="42.9684095" lon="12.7466842"><ele>398.0</ele><time>2026-04-05T16:31:34.423Z</time></trkpt><trkpt lat="42.9682945" lon="12.7465028"><ele>398.0</ele><time>2026-04-05T16:31:35.423Z</time></trkpt><trkpt lat="42.9681689" lon="12.7463182"><ele>397.66666666666663</ele><time>2026-04-05T16:31:36.424Z</time></trkpt><trkpt lat="42.9680427" lon="12.7461274"><ele>397.33333333333337</ele><time>2026-04-05T16:31:37.424Z</time></trkpt><trkpt lat="42.9679051" lon="12.7459662"><ele>397.0</ele><time>2026-04-05T16:31:38.424Z</time></trkpt><trkpt lat="42.967751" lon="12.7458077"><ele>397.0</ele><time>2026-04-05T16:31:39.424Z</time></trkpt><trkpt lat="42.9675897" lon="12.745666"><ele>397.0</ele><time>2026-04-05T16:31:40.424Z</time></trkpt><trkpt lat="42.9674227" lon="12.7455462"><ele>397.0</ele><time>2026-04-05T16:31:41.424Z</time></trkpt><trkpt lat="42.9672655" lon="12.7454274"><ele>395.6666666666667</ele><time>2026-04-05T16:31:42.424Z</time></trkpt><trkpt lat="42.9671056" lon="12.7453154"><ele>394.33333333333337</ele><time>2026-04-05T16:31:43.424Z</time></trkpt><trkpt lat="42.9669326" lon="12.7452217"><ele>393.0</ele><time>2026-04-05T16:31:44.424Z</time></trkpt><trkpt lat="42.9667589" lon="12.7451417"><ele>394.33333333333337</ele><time>2026-04-05T16:31:45.424Z</time></trkpt><trkpt lat="42.9665738" lon="12.7450825"><ele>395.6666666666667</ele><time>2026-04-05T16:31:46.424Z</time></trkpt><trkpt lat="42.9664017" lon="12.7450206"><ele>397.0</ele><time>2026-04-05T16:31:47.424Z</time></trkpt><trkpt lat="42.9662425" lon="12.744969"><ele>397.0</ele><time>2026-04-05T16:31:48.424Z</time></trkpt><trkpt lat="42.9660965" lon="12.7449205"><ele>397.0</ele><time>2026-04-05T16:31:49.424Z</time></trkpt><trkpt lat="42.9659647" lon="12.7448876"><ele>397.0</ele><time>2026-04-05T16:31:50.423Z</time></trkpt><trkpt lat="42.9658395" lon="12.7448859"><ele>397.0</ele><time>2026-04-05T16:31:51.423Z</time></trkpt><trkpt lat="42.965721" lon="12.7449037"><ele>396.5</ele><time>2026-04-05T16:31:52.424Z</time></trkpt><trkpt lat="42.9656065" lon="12.7449837"><ele>396.0</ele><time>2026-04-05T16:31:53.424Z</time></trkpt><trkpt lat="42.9655096" lon="12.7450899"><ele>395.5</ele><time>2026-04-05T16:31:54.424Z</time></trkpt><trkpt lat="42.9654292" lon="12.7452058"><ele>395.0</ele><time>2026-04-05T16:31:55.424Z</time></trkpt><trkpt lat="42.9653771" lon="12.7453376"><ele>398.25</ele><time>2026-04-05T16:31:56.423Z</time></trkpt><trkpt lat="42.9653439" lon="12.7454932"><ele>401.5</ele><time>2026-04-05T16:31:57.424Z</time></trkpt><trkpt lat="42.9653411" lon="12.7456933"><ele>404.75</ele><time>2026-04-05T16:31:58.424Z</time></trkpt><trkpt lat="42.965352" lon="12.7459139"><ele>408.0</ele><time>2026-04-05T16:31:59.424Z</time></trkpt><trkpt lat="42.9653623" lon="12.7461276"><ele>409.66666666666663</ele><time>2026-04-05T16:32:00.424Z</time></trkpt><trkpt lat="42.9653704" lon="12.7463511"><ele>411.3333333333333</ele><time>2026-04-05T16:32:01.424Z</time></trkpt><trkpt lat="42.9653845" lon="12.7465715"><ele>413.0</ele><time>2026-04-05T16:32:02.424Z</time></trkpt><trkpt lat="42.9653918" lon="12.7468005"><ele>412.3333333333333</ele><time>2026-04-05T16:32:03.424Z</time></trkpt><trkpt lat="42.965405" lon="12.7470073"><ele>411.66666666666663</ele><time>2026-04-05T16:32:04.424Z</time></trkpt><trkpt lat="42.9654128" lon="12.7472212"><ele>411.0</ele><time>2026-04-05T16:32:05.424Z</time></trkpt><trkpt lat="42.965415" lon="12.7474267"><ele>411.0</ele><time>2026-04-05T16:32:06.424Z</time></trkpt><trkpt lat="42.9654031" lon="12.7476214"><ele>411.0</ele><time>2026-04-05T16:32:07.423Z</time></trkpt><trkpt lat="42.9653974" lon="12.7477896"><ele>411.0</ele><time>2026-04-05T16:32:08.423Z</time></trkpt><trkpt lat="42.9653866" lon="12.7479244"><ele>411.0</ele><time>2026-04-05T16:32:09.424Z</time></trkpt><trkpt lat="42.9653457" lon="12.7480231"><ele>411.0</ele><time>2026-04-05T16:32:10.424Z</time></trkpt><trkpt lat="42.9653007" lon="12.7481063"><ele>410.8</ele><time>2026-04-05T16:32:11.424Z</time></trkpt><trkpt lat="42.9652246" lon="12.7481638"><ele>410.6</ele><time>2026-04-05T16:32:12.424Z</time></trkpt><trkpt lat="42.9651395" lon="12.7481743"><ele>410.4</ele><time>2026-04-05T16:32:13.424Z</time></trkpt><trkpt lat="42.9650644" lon="12.7481264"><ele>410.2</ele><time>2026-04-05T16:32:14.424Z</time></trkpt><trkpt lat="42.9649921" lon="12.7480412"><ele>410.0</ele><time>2026-04-05T16:32:15.424Z</time></trkpt><trkpt lat="42.9649224" lon="12.7479432"><ele>407.5</ele><time>2026-04-05T16:32:16.423Z</time></trkpt><trkpt lat="42.9649042" lon="12.7477922"><ele>405.0</ele><time>2026-04-05T16:32:17.424Z</time></trkpt><trkpt lat="42.964867" lon="12.7476304"><ele>402.5</ele><time>2026-04-05T16:32:18.424Z</time></trkpt><trkpt lat="42.9648203" lon="12.7474583"><ele>400.0</ele><time>2026-04-05T16:32:19.424Z</time></trkpt><trkpt lat="42.9647665" lon="12.7472807"><ele>397.33333333333337</ele><time>2026-04-05T16:32:20.424Z</time></trkpt><trkpt lat="42.9647021" lon="12.7470884"><ele>394.66666666666663</ele><time>2026-04-05T16:32:21.423Z</time></trkpt><trkpt lat="42.9646263" lon="12.7468823"><ele>392.0</ele><time>2026-04-05T16:32:22.424Z</time></trkpt><trkpt lat="42.9645548" lon="12.7466882"><ele>391.3333333333333</ele><time>2026-04-05T16:32:23.424Z</time></trkpt><trkpt lat="42.9644721" lon="12.7464972"><ele>390.66666666666663</ele><time>2026-04-05T16:32:24.424Z</time></trkpt><trkpt lat="42.964384" lon="12.7463089"><ele>390.0</ele><time>2026-04-05T16:32:25.424Z</time></trkpt><trkpt lat="42.9642853" lon="12.7461364"><ele>389.0</ele><time>2026-04-05T16:32:26.423Z</time></trkpt><trkpt lat="42.9641908" lon="12.7459857"><ele>388.0</ele><time>2026-04-05T16:32:27.424Z</time></trkpt><trkpt lat="42.9640843" lon="12.7458551"><ele>387.0</ele><time>2026-04-05T16:32:28.423Z</time></trkpt><trkpt lat="42.9639668" lon="12.7457431"><ele>386.0</ele><time>2026-04-05T16:32:29.423Z</time></trkpt><trkpt lat="42.9638465" lon="12.7456581"><ele>386.0</ele><time>2026-04-05T16:32:30.424Z</time></trkpt><trkpt lat="42.9637199" lon="12.745596"><ele>386.0</ele><time>2026-04-05T16:32:31.424Z</time></trkpt><trkpt lat="42.9635913" lon="12.7456125"><ele>386.0</ele><time>2026-04-05T16:32:32.424Z</time></trkpt><trkpt lat="42.9634635" lon="12.7456494"><ele>386.0</ele><time>2026-04-05T16:32:33.424Z</time></trkpt><trkpt lat="42.9633395" lon="12.7457181"><ele>386.75</ele><time>2026-04-05T16:32:34.423Z</time></trkpt><trkpt lat="42.9632285" lon="12.7457916"><ele>387.5</ele><time>2026-04-05T16:32:35.424Z</time></trkpt><trkpt lat="42.963109" lon="12.7458318"><ele>388.25</ele><time>2026-04-05T16:32:36.424Z</time></trkpt><trkpt lat="42.962992" lon="12.7458052"><ele>389.0</ele><time>2026-04-05T16:32:37.424Z</time></trkpt><trkpt lat="42.9628906" lon="12.7457456"><ele>389.0</ele><time>2026-04-05T16:32:38.424Z</time></trkpt><trkpt lat="42.9627957" lon="12.7456359"><ele>389.0</ele><time>2026-04-05T16:32:39.424Z</time></trkpt><trkpt lat="42.9627105" lon="12.7455097"><ele>389.0</ele><time>2026-04-05T16:32:40.423Z</time></trkpt><trkpt lat="42.9626264" lon="12.745354"><ele>389.0</ele><time>2026-04-05T16:32:41.424Z</time></trkpt><trkpt lat="42.9625438" lon="12.7451806"><ele>389.0</ele><time>2026-04-05T16:32:42.424Z</time></trkpt><trkpt lat="42.9624617" lon="12.7450044"><ele>389.0</ele><time>2026-04-05T16:32:43.424Z</time></trkpt><trkpt lat="42.9623737" lon="12.7448432"><ele>389.0</ele><time>2026-04-05T16:32:44.424Z</time></trkpt><trkpt lat="42.9622719" lon="12.7447179"><ele>389.0</ele><time>2026-04-05T16:32:45.424Z</time></trkpt><trkpt lat="42.9621963" lon="12.7445903"><ele>389.0</ele><time>2026-04-05T16:32:46.424Z</time></trkpt><trkpt lat="42.9620951" lon="12.7445109"><ele>389.0</ele><time>2026-04-05T16:32:47.424Z</time></trkpt><trkpt lat="42.9620066" lon="12.7444322"><ele>389.0</ele><time>2026-04-05T16:32:48.424Z</time></trkpt><trkpt lat="42.9619194" lon="12.7443364"><ele>389.0</ele><time>2026-04-05T16:32:49.424Z</time></trkpt><trkpt lat="42.9618535" lon="12.7442247"><ele>389.0</ele><time>2026-04-05T16:32:50.424Z</time></trkpt><trkpt lat="42.9618247" lon="12.7441102"><ele>386.79999999999995</ele><time>2026-04-05T16:32:51.424Z</time></trkpt><trkpt lat="42.9618286" lon="12.7439951"><ele>384.59999999999997</ele><time>2026-04-05T16:32:52.424Z</time></trkpt><trkpt lat="42.9618747" lon="12.743885"><ele>382.4</ele><time>2026-04-05T16:32:53.423Z</time></trkpt><trkpt lat="42.9619491" lon="12.7438024"><ele>380.2</ele><time>2026-04-05T16:32:54.423Z</time></trkpt><trkpt lat="42.9620512" lon="12.7437595"><ele>378.0</ele><time>2026-04-05T16:32:55.424Z</time></trkpt><trkpt lat="42.9621707" lon="12.7437601"><ele>378.0</ele><time>2026-04-05T16:32:56.424Z</time></trkpt><trkpt lat="42.9623038" lon="12.7437855"><ele>378.0</ele><time>2026-04-05T16:32:57.424Z</time></trkpt><trkpt lat="42.9624419" lon="12.7438141"><ele>378.0</ele><time>2026-04-05T16:32:58.424Z</time></trkpt><trkpt lat="42.9625772" lon="12.743842"><ele>378.0</ele><time>2026-04-05T16:32:59.424Z</time></trkpt><trkpt lat="42.9627041" lon="12.7438681"><ele>375.4</ele><time>2026-04-05T16:33:00.424Z</time></trkpt><trkpt lat="42.9628248" lon="12.7438601"><ele>372.79999999999995</ele><time>2026-04-05T16:33:01.424Z</time></trkpt><trkpt lat="42.9629255" lon="12.7438153"><ele>370.2</ele><time>2026-04-05T16:33:02.424Z</time></trkpt><trkpt lat="42.9629987" lon="12.7437138"><ele>367.6</ele><time>2026-04-05T16:33:03.424Z</time></trkpt><trkpt lat="42.9630383" lon="12.7435827"><ele>365.0</ele><time>2026-04-05T16:33:04.423Z</time></trkpt><trkpt lat="42.963031" lon="12.7434334"><ele>365.0</ele><time>2026-04-05T16:33:05.424Z</time></trkpt><trkpt lat="42.9629925" lon="12.743279"><ele>365.0</ele><time>2026-04-05T16:33:06.424Z</time></trkpt><trkpt lat="42.9629244" lon="12.7431088"><ele>365.0</ele><time>2026-04-05T16:33:07.424Z</time></trkpt><trkpt lat="42.9628342" lon="12.7429243"><ele>365.0</ele><time>2026-04-05T16:33:08.423Z</time></trkpt><trkpt lat="42.9627469" lon="12.7427331"><ele>363.0</ele><time>2026-04-05T16:33:09.424Z</time></trkpt><trkpt lat="42.9626581" lon="12.7425421"><ele>361.0</ele><time>2026-04-05T16:33:10.424Z</time></trkpt><trkpt lat="42.9625653" lon="12.7423458"><ele>359.0</ele><time>2026-04-05T16:33:11.424Z</time></trkpt><trkpt lat="42.9624676" lon="12.7421381"><ele>362.33333333333337</ele><time>2026-04-05T16:33:12.424Z</time></trkpt><trkpt lat="42.9623696" lon="12.741923"><ele>365.6666666666667</ele><time>2026-04-05T16:33:13.424Z</time></trkpt><trkpt lat="42.9622814" lon="12.7417118"><ele>369.0</ele><time>2026-04-05T16:33:14.423Z</time></trkpt><trkpt lat="42.962196" lon="12.7415052"><ele>369.0</ele><time>2026-04-05T16:33:15.424Z</time></trkpt><trkpt lat="42.9621096" lon="12.7413105"><ele>369.0</ele><time>2026-04-05T16:33:16.423Z</time></trkpt><trkpt lat="42.9620219" lon="12.7411157"><ele>369.0</ele><time>2026-04-05T16:33:17.424Z</time></trkpt><trkpt lat="42.9619397" lon="12.7409314"><ele>367.0</ele><time>2026-04-05T16:33:18.424Z</time></trkpt><trkpt lat="42.961876" lon="12.7407638"><ele>365.0</ele><time>2026-04-05T16:33:19.424Z</time></trkpt><trkpt lat="42.961841" lon="12.7405984"><ele>363.0</ele><time>2026-04-05T16:33:20.424Z</time></trkpt><trkpt lat="42.9618353" lon="12.7404132"><ele>361.0</ele><time>2026-04-05T16:33:21.424Z</time></trkpt><trkpt lat="42.9618505" lon="12.7402346"><ele>360.25</ele><time>2026-04-05T16:33:22.424Z</time></trkpt><trkpt lat="42.9618673" lon="12.7400616"><ele>359.5</ele><time>2026-04-05T16:33:23.423Z</time></trkpt><trkpt lat="42.9618797" lon="12.7398994"><ele>358.75</ele><time>2026-04-05T16:33:24.424Z</time></trkpt><trkpt lat="42.9618599" lon="12.7397406"><ele>358.0</ele><time>2026-04-05T16:33:25.424Z</time></trkpt><trkpt lat="42.9618141" lon="12.7395931"><ele>358.0</ele><time>2026-04-05T16:33:26.424Z</time></trkpt><trkpt lat="42.9617616" lon="12.7394569"><ele>358.0</ele><time>2026-04-05T16:33:27.423Z</time></trkpt><trkpt lat="42.96168" lon="12.7392966"><ele>358.0</ele><time>2026-04-05T16:33:28.424Z</time></trkpt><trkpt lat="42.9615825" lon="12.7391433"><ele>358.0</ele><time>2026-04-05T16:33:29.424Z</time></trkpt><trkpt lat="42.9614829" lon="12.7389944"><ele>358.0</ele><time>2026-04-05T16:33:30.424Z</time></trkpt><trkpt lat="42.96137" lon="12.7388353"><ele>358.0</ele><time>2026-04-05T16:33:31.424Z</time></trkpt><trkpt lat="42.9612653" lon="12.7386647"><ele>358.0</ele><time>2026-04-05T16:33:32.424Z</time></trkpt><trkpt lat="42.9611614" lon="12.7384894"><ele>358.0</ele><time>2026-04-05T16:33:33.423Z</time></trkpt><trkpt lat="42.9610739" lon="12.7383258"><ele>358.0</ele><time>2026-04-05T16:33:34.423Z</time></trkpt><trkpt lat="42.9610099" lon="12.7381455"><ele>358.0</ele><time>2026-04-05T16:33:35.423Z</time></trkpt><trkpt lat="42.9609601" lon="12.7379852"><ele>358.0</ele><time>2026-04-05T16:33:36.424Z</time></trkpt><trkpt lat="42.9609124" lon="12.7378203"><ele>360.25</ele><time>2026-04-05T16:33:37.424Z</time></trkpt><trkpt lat="42.9608499" lon="12.7376847"><ele>362.5</ele><time>2026-04-05T16:33:38.424Z</time></trkpt><trkpt lat="42.9607882" lon="12.7375443"><ele>364.75</ele><time>2026-04-05T16:33:39.424Z</time></trkpt><trkpt lat="42.9607147" lon="12.7374242"><ele>367.0</ele><time>2026-04-05T16:33:40.423Z</time></trkpt><trkpt lat="42.9606109" lon="12.7373418"><ele>367.0</ele><time>2026-04-05T16:33:41.423Z</time></trkpt><trkpt lat="42.9604986" lon="12.7372511"><ele>367.0</ele><time>2026-04-05T16:33:42.424Z</time></trkpt><trkpt lat="42.9603839" lon="12.7371635"><ele>367.0</ele><time>2026-04-05T16:33:43.424Z</time></trkpt><trkpt lat="42.9602748" lon="12.7370875"><ele>367.0</ele><time>2026-04-05T16:33:44.424Z</time></trkpt><trkpt lat="42.9601658" lon="12.737035"><ele>367.0</ele><time>2026-04-05T16:33:45.424Z</time></trkpt><trkpt lat="42.9600541" lon="12.7370024"><ele>367.0</ele><time>2026-04-05T16:33:46.423Z</time></trkpt><trkpt lat="42.959942" lon="12.7370076"><ele>367.0</ele><time>2026-04-05T16:33:47.424Z</time></trkpt><trkpt lat="42.9598328" lon="12.7370484"><ele>367.0</ele><time>2026-04-05T16:33:48.424Z</time></trkpt><trkpt lat="42.9597319" lon="12.7371142"><ele>366.75</ele><time>2026-04-05T16:33:49.424Z</time></trkpt><trkpt lat="42.9596249" lon="12.7372043"><ele>366.5</ele><time>2026-04-05T16:33:50.424Z</time></trkpt><trkpt lat="42.9595323" lon="12.7372809"><ele>366.25</ele><time>2026-04-05T16:33:51.424Z</time></trkpt><trkpt lat="42.9594111" lon="12.7372987"><ele>366.0</ele><time>2026-04-05T16:33:52.424Z</time></trkpt><trkpt lat="42.9592964" lon="12.7373109"><ele>365.0</ele><time>2026-04-05T16:33:53.424Z</time></trkpt><trkpt lat="42.9591736" lon="12.7373125"><ele>364.0</ele><time>2026-04-05T16:33:54.424Z</time></trkpt><trkpt lat="42.9590485" lon="12.7372961"><ele>363.0</ele><time>2026-04-05T16:33:55.424Z</time></trkpt><trkpt lat="42.9589188" lon="12.7372858"><ele>362.0</ele><time>2026-04-05T16:33:56.424Z</time></trkpt><trkpt lat="42.9587843" lon="12.7372186"><ele>362.0</ele><time>2026-04-05T16:33:57.424Z</time></trkpt><trkpt lat="42.9586444" lon="12.7371287"><ele>362.0</ele><time>2026-04-05T16:33:58.424Z</time></trkpt><trkpt lat="42.9584924" lon="12.7370251"><ele>362.0</ele><time>2026-04-05T16:33:59.424Z</time></trkpt><trkpt lat="42.9583498" lon="12.736904"><ele>357.6666666666667</ele><time>2026-04-05T16:34:00.423Z</time></trkpt><trkpt lat="42.9582008" lon="12.7367833"><ele>353.3333333333333</ele><time>2026-04-05T16:34:01.424Z</time></trkpt><trkpt lat="42.9580568" lon="12.7366774"><ele>349.0</ele><time>2026-04-05T16:34:02.423Z</time></trkpt><trkpt lat="42.957921" lon="12.7365754"><ele>349.0</ele><time>2026-04-05T16:34:03.423Z</time></trkpt><trkpt lat="42.9577878" lon="12.7364817"><ele>349.0</ele><time>2026-04-05T16:34:04.423Z</time></trkpt><trkpt lat="42.9576595" lon="12.7363984"><ele>349.0</ele><time>2026-04-05T16:34:05.424Z</time></trkpt><trkpt lat="42.9575311" lon="12.7363491"><ele>349.0</ele><time>2026-04-05T16:34:06.423Z</time></trkpt><trkpt lat="42.957396" lon="12.7363128"><ele>349.75</ele><time>2026-04-05T16:34:07.424Z</time></trkpt><trkpt lat="42.9572591" lon="12.7363145"><ele>350.5</ele><time>2026-04-05T16:34:08.423Z</time></trkpt><trkpt lat="42.9571248" lon="12.7363368"><ele>351.25</ele><time>2026-04-05T16:34:09.424Z</time></trkpt><trkpt lat="42.9569996" lon="12.7363588"><ele>352.0</ele><time>2026-04-05T16:34:10.423Z</time></trkpt><trkpt lat="42.9568792" lon="12.7363867"><ele>352.0</ele><time>2026-04-05T16:34:11.424Z</time></trkpt><trkpt lat="42.9567793" lon="12.7364123"><ele>352.0</ele><time>2026-04-05T16:34:12.424Z</time></trkpt><trkpt lat="42.9566897" lon="12.7364257"><ele>352.0</ele><time>2026-04-05T16:34:13.424Z</time></trkpt><trkpt lat="42.9566021" lon="12.7364191"><ele>352.0</ele><time>2026-04-05T16:34:14.424Z</time></trkpt><trkpt lat="42.9565285" lon="12.7363708"><ele>352.0</ele><time>2026-04-05T16:34:15.424Z</time></trkpt><trkpt lat="42.9564789" lon="12.7362627"><ele>351.5</ele><time>2026-04-05T16:34:16.424Z</time></trkpt><trkpt lat="42.9564241" lon="12.7361511"><ele>351.0</ele><time>2026-04-05T16:34:17.424Z</time></trkpt><trkpt lat="42.9564231" lon="12.7360079"><ele>350.5</ele><time>2026-04-05T16:34:18.424Z</time></trkpt><trkpt lat="42.9564367" lon="12.7358442"><ele>350.0</ele><time>2026-04-05T16:34:19.424Z</time></trkpt><trkpt lat="42.9564538" lon="12.7356716"><ele>347.75</ele><time>2026-04-05T16:34:20.423Z</time></trkpt><trkpt lat="42.956473" lon="12.7355009"><ele>345.5</ele><time>2026-04-05T16:34:21.423Z</time></trkpt><trkpt lat="42.9564946" lon="12.7353212"><ele>343.25</ele><time>2026-04-05T16:34:22.424Z</time></trkpt><trkpt lat="42.9565052" lon="12.7351626"><ele>341.0</ele><time>2026-04-05T16:34:23.423Z</time></trkpt><trkpt lat="42.9564856" lon="12.7350249"><ele>339.20000000000005</ele><time>2026-04-05T16:34:24.424Z</time></trkpt><trkpt lat="42.9564357" lon="12.7348936"><ele>337.40000000000003</ele><time>2026-04-05T16:34:25.423Z</time></trkpt><trkpt lat="42.9563709" lon="12.7347853"><ele>335.6</ele><time>2026-04-05T16:34:26.423Z</time></trkpt><trkpt lat="42.9562705" lon="12.7347111"><ele>333.8</ele><time>2026-04-05T16:34:27.423Z</time></trkpt><trkpt lat="42.9561586" lon="12.7346607"><ele>332.0</ele><time>2026-04-05T16:34:28.424Z</time></trkpt><trkpt lat="42.9560258" lon="12.7346146"><ele>332.0</ele><time>2026-04-05T16:34:29.423Z</time></trkpt><trkpt lat="42.955898" lon="12.7345815"><ele>332.0</ele><time>2026-04-05T16:34:30.423Z</time></trkpt><trkpt lat="42.955779" lon="12.7345212"><ele>332.0</ele><time>2026-04-05T16:34:31.424Z</time></trkpt><trkpt lat="42.9556491" lon="12.7344752"><ele>332.0</ele><time>2026-04-05T16:34:32.424Z</time></trkpt><trkpt lat="42.9555334" lon="12.7344244"><ele>331.0</ele><time>2026-04-05T16:34:33.424Z</time></trkpt><trkpt lat="42.9554318" lon="12.7343446"><ele>330.0</ele><time>2026-04-05T16:34:34.424Z</time></trkpt><trkpt lat="42.9553511" lon="12.7342373"><ele>329.0</ele><time>2026-04-05T16:34:35.424Z</time></trkpt><trkpt lat="42.9552776" lon="12.7341209"><ele>328.0</ele><time>2026-04-05T16:34:36.424Z</time></trkpt><trkpt lat="42.9552275" lon="12.7339586"><ele>328.0</ele><time>2026-04-05T16:34:37.424Z</time></trkpt><trkpt lat="42.9552045" lon="12.7337845"><ele>328.0</ele><time>2026-04-05T16:34:38.424Z</time></trkpt><trkpt lat="42.9551837" lon="12.7335962"><ele>328.0</ele><time>2026-04-05T16:34:39.423Z</time></trkpt><trkpt lat="42.9551854" lon="12.7333945"><ele>328.0</ele><time>2026-04-05T16:34:40.424Z</time></trkpt><trkpt lat="42.9551719" lon="12.73321"><ele>325.0</ele><time>2026-04-05T16:34:41.424Z</time></trkpt><trkpt lat="42.955157" lon="12.7330254"><ele>322.0</ele><time>2026-04-05T16:34:42.424Z</time></trkpt><trkpt lat="42.9551423" lon="12.7328435"><ele>319.0</ele><time>2026-04-05T16:34:43.424Z</time></trkpt><trkpt lat="42.9551031" lon="12.7326711"><ele>316.0</ele><time>2026-04-05T16:34:44.423Z</time></trkpt><trkpt lat="42.9550637" lon="12.7325683"><ele>315.5</ele><time>2026-04-05T16:34:45.424Z</time></trkpt><trkpt lat="42.9549917" lon="12.7324479"><ele>315.0</ele><time>2026-04-05T16:34:46.423Z</time></trkpt><trkpt lat="42.9548954" lon="12.7323564"><ele>314.5</ele><time>2026-04-05T16:34:47.423Z</time></trkpt><trkpt lat="42.9547879" lon="12.732276"><ele>314.0</ele><time>2026-04-05T16:34:48.423Z</time></trkpt><trkpt lat="42.9546765" lon="12.732195"><ele>314.0</ele><time>2026-04-05T16:34:49.424Z</time></trkpt><trkpt lat="42.9545796" lon="12.732093"><ele>314.0</ele><time>2026-04-05T16:34:50.424Z</time></trkpt><trkpt lat="42.9545025" lon="12.7319765"><ele>314.0</ele><time>2026-04-05T16:34:51.424Z</time></trkpt><trkpt lat="42.9544509" lon="12.7318474"><ele>314.0</ele><time>2026-04-05T16:34:52.424Z</time></trkpt><trkpt lat="42.9544234" lon="12.7317024"><ele>313.25</ele><time>2026-04-05T16:34:53.424Z</time></trkpt><trkpt lat="42.9544219" lon="12.7315517"><ele>312.5</ele><time>2026-04-05T16:34:54.423Z</time></trkpt><trkpt lat="42.9544447" lon="12.7313899"><ele>311.75</ele><time>2026-04-05T16:34:55.424Z</time></trkpt><trkpt lat="42.954472" lon="12.731221"><ele>311.0</ele><time>2026-04-05T16:34:56.423Z</time></trkpt><trkpt lat="42.9545011" lon="12.7310534"><ele>310.75</ele><time>2026-04-05T16:34:57.424Z</time></trkpt><trkpt lat="42.9545324" lon="12.7308691"><ele>310.5</ele><time>2026-04-05T16:34:58.424Z</time></trkpt><trkpt lat="42.9545799" lon="12.7307027"><ele>310.25</ele><time>2026-04-05T16:34:59.424Z</time></trkpt><trkpt lat="42.9546454" lon="12.7305422"><ele>310.0</ele><time>2026-04-05T16:35:00.424Z</time></trkpt><trkpt lat="42.954727" lon="12.7303875"><ele>310.0</ele><time>2026-04-05T16:35:01.424Z</time></trkpt><trkpt lat="42.9548212" lon="12.7302341"><ele>310.0</ele><time>2026-04-05T16:35:02.424Z</time></trkpt><trkpt lat="42.9549123" lon="12.7300781"><ele>310.0</ele><time>2026-04-05T16:35:03.424Z</time></trkpt><trkpt lat="42.9549981" lon="12.7299087"><ele>310.0</ele><time>2026-04-05T16:35:04.424Z</time></trkpt><trkpt lat="42.9550722" lon="12.7297202"><ele>310.75</ele><time>2026-04-05T16:35:05.424Z</time></trkpt><trkpt lat="42.9551385" lon="12.7295378"><ele>311.5</ele><time>2026-04-05T16:35:06.423Z</time></trkpt><trkpt lat="42.9552032" lon="12.7293484"><ele>312.25</ele><time>2026-04-05T16:35:07.424Z</time></trkpt><trkpt lat="42.9552437" lon="12.7291597"><ele>313.0</ele><time>2026-04-05T16:35:08.424Z</time></trkpt><trkpt lat="42.9552706" lon="12.7289595"><ele>313.0</ele><time>2026-04-05T16:35:09.423Z</time></trkpt><trkpt lat="42.9552814" lon="12.7287672"><ele>313.0</ele><time>2026-04-05T16:35:10.424Z</time></trkpt><trkpt lat="42.9552803" lon="12.7285722"><ele>313.0</ele><time>2026-04-05T16:35:11.424Z</time></trkpt><trkpt lat="42.955287" lon="12.7283888"><ele>313.0</ele><time>2026-04-05T16:35:12.424Z</time></trkpt><trkpt lat="42.9552978" lon="12.7282064"><ele>310.0</ele><time>2026-04-05T16:35:13.424Z</time></trkpt><trkpt lat="42.9553152" lon="12.7280327"><ele>307.0</ele><time>2026-04-05T16:35:14.424Z</time></trkpt><trkpt lat="42.9553629" lon="12.7278731"><ele>304.0</ele><time>2026-04-05T16:35:15.424Z</time></trkpt><trkpt lat="42.9554298" lon="12.7277326"><ele>301.0</ele><time>2026-04-05T16:35:16.424Z</time></trkpt><trkpt lat="42.9555309" lon="12.7275968"><ele>302.0</ele><time>2026-04-05T16:35:17.423Z</time></trkpt><trkpt lat="42.9556404" lon="12.7274552"><ele>303.0</ele><time>2026-04-05T16:35:18.423Z</time></trkpt><trkpt lat="42.9557513" lon="12.7273194"><ele>304.0</ele><time>2026-04-05T16:35:19.423Z</time></trkpt><trkpt lat="42.9558609" lon="12.7271897"><ele>305.0</ele><time>2026-04-05T16:35:20.424Z</time></trkpt><trkpt lat="42.9559742" lon="12.7270464"><ele>305.0</ele><time>2026-04-05T16:35:21.424Z</time></trkpt><trkpt lat="42.9560859" lon="12.7269093"><ele>305.0</ele><time>2026-04-05T16:35:22.424Z</time></trkpt><trkpt lat="42.9561932" lon="12.7267685"><ele>305.0</ele><time>2026-04-05T16:35:23.423Z</time></trkpt><trkpt lat="42.9563083" lon="12.726629"><ele>303.25</ele><time>2026-04-05T16:35:24.424Z</time></trkpt><trkpt lat="42.9563998" lon="12.7264831"><ele>301.5</ele><time>2026-04-05T16:35:25.423Z</time></trkpt><trkpt lat="42.9565007" lon="12.7263539"><ele>299.75</ele><time>2026-04-05T16:35:26.424Z</time></trkpt><trkpt lat="42.956593" lon="12.7262129"><ele>298.0</ele><time>2026-04-05T16:35:27.424Z</time></trkpt><trkpt lat="42.9566661" lon="12.7260655"><ele>297.6</ele><time>2026-04-05T16:35:28.424Z</time></trkpt><trkpt lat="42.9567054" lon="12.7259208"><ele>297.20000000000005</ele><time>2026-04-05T16:35:29.424Z</time></trkpt><trkpt lat="42.9567365" lon="12.7257761"><ele>296.8</ele><time>2026-04-05T16:35:30.423Z</time></trkpt><trkpt lat="42.9567069" lon="12.7256235"><ele>296.40000000000003</ele><time>2026-04-05T16:35:31.424Z</time></trkpt><trkpt lat="42.9566777" lon="12.7254826"><ele>296.0</ele><time>2026-04-05T16:35:32.424Z</time></trkpt><trkpt lat="42.9566389" lon="12.7253328"><ele>292.75</ele><time>2026-04-05T16:35:33.424Z</time></trkpt><trkpt lat="42.9565926" lon="12.7251908"><ele>289.5</ele><time>2026-04-05T16:35:34.424Z</time></trkpt><trkpt lat="42.9565477" lon="12.7250358"><ele>286.25</ele><time>2026-04-05T16:35:35.424Z</time></trkpt><trkpt lat="42.9565088" lon="12.7248859"><ele>283.0</ele><time>2026-04-05T16:35:36.423Z</time></trkpt><trkpt lat="42.9564673" lon="12.7247315"><ele>283.0</ele><time>2026-04-05T16:35:37.424Z</time></trkpt><trkpt lat="42.9564226" lon="12.7245826"><ele>283.0</ele><time>2026-04-05T16:35:38.424Z</time></trkpt><trkpt lat="42.9563871" lon="12.7244421"><ele>283.0</ele><time>2026-04-05T16:35:39.423Z</time></trkpt><trkpt lat="42.9563494" lon="12.7243155"><ele>283.0</ele><time>2026-04-05T16:35:40.424Z</time></trkpt><trkpt lat="42.9563106" lon="12.7241899"><ele>283.0</ele><time>2026-04-05T16:35:41.424Z</time></trkpt><trkpt lat="42.9562731" lon="12.7240622"><ele>282.4</ele><time>2026-04-05T16:35:42.424Z</time></trkpt><trkpt lat="42.9562396" lon="12.7239348"><ele>281.8</ele><time>2026-04-05T16:35:43.424Z</time></trkpt><trkpt lat="42.9561959" lon="12.7237964"><ele>281.2</ele><time>2026-04-05T16:35:44.424Z</time></trkpt><trkpt lat="42.9561583" lon="12.7236608"><ele>280.6</ele><time>2026-04-05T16:35:45.424Z</time></trkpt><trkpt lat="42.9561231" lon="12.7235195"><ele>280.0</ele><time>2026-04-05T16:35:46.423Z</time></trkpt><trkpt lat="42.956085" lon="12.7233742"><ele>278.8</ele><time>2026-04-05T16:35:47.424Z</time></trkpt><trkpt lat="42.956048" lon="12.7232422"><ele>277.6</ele><time>2026-04-05T16:35:48.424Z</time></trkpt><trkpt lat="42.9560141" lon="12.7231053"><ele>276.4</ele><time>2026-04-05T16:35:49.423Z</time></trkpt><trkpt lat="42.9559898" lon="12.7229816"><ele>275.2</ele><time>2026-04-05T16:35:50.423Z</time></trkpt><trkpt lat="42.9559853" lon="12.7228574"><ele>274.0</ele><time>2026-04-05T16:35:51.424Z</time></trkpt><trkpt lat="42.9560017" lon="12.7227341"><ele>273.4</ele><time>2026-04-05T16:35:52.424Z</time></trkpt><trkpt lat="42.9560392" lon="12.7226299"><ele>272.79999999999995</ele><time>2026-04-05T16:35:53.424Z</time></trkpt><trkpt lat="42.9561081" lon="12.7225274"><ele>272.20000000000005</ele><time>2026-04-05T16:35:54.423Z</time></trkpt><trkpt lat="42.9561907" lon="12.7224546"><ele>271.6</ele><time>2026-04-05T16:35:55.424Z</time></trkpt><trkpt lat="42.9562892" lon="12.7224073"><ele>271.0</ele><time>2026-04-05T16:35:56.424Z</time></trkpt><trkpt lat="42.9564042" lon="12.7223811"><ele>271.0</ele><time>2026-04-05T16:35:57.424Z</time></trkpt><trkpt lat="42.9565316" lon="12.7223748"><ele>271.0</ele><time>2026-04-05T16:35:58.424Z</time></trkpt><trkpt lat="42.9566808" lon="12.7223562"><ele>271.0</ele><time>2026-04-05T16:35:59.424Z</time></trkpt><trkpt lat="42.956837" lon="12.7223485"><ele>271.0</ele><time>2026-04-05T16:36:00.424Z</time></trkpt><trkpt lat="42.9570019" lon="12.7223359"><ele>270.66666666666663</ele><time>2026-04-05T16:36:01.424Z</time></trkpt><trkpt lat="42.9571626" lon="12.7223169"><ele>270.3333333333333</ele><time>2026-04-05T16:36:02.423Z</time></trkpt><trkpt lat="42.9573103" lon="12.7222938"><ele>270.0</ele><time>2026-04-05T16:36:03.424Z</time></trkpt><trkpt lat="42.9574564" lon="12.7222782"><ele>270.0</ele><time>2026-04-05T16:36:04.423Z</time></trkpt><trkpt lat="42.9575977" lon="12.7222634"><ele>270.0</ele><time>2026-04-05T16:36:05.423Z</time></trkpt><trkpt lat="42.9577273" lon="12.722259"><ele>270.0</ele><time>2026-04-05T16:36:06.424Z</time></trkpt><trkpt lat="42.9578519" lon="12.7222404"><ele>270.0</ele><time>2026-04-05T16:36:07.424Z</time></trkpt><trkpt lat="42.9579722" lon="12.7222219"><ele>270.0</ele><time>2026-04-05T16:36:08.424Z</time></trkpt><trkpt lat="42.9580889" lon="12.7221979"><ele>270.0</ele><time>2026-04-05T16:36:09.424Z</time></trkpt><trkpt lat="42.9582088" lon="12.7221621"><ele>270.0</ele><time>2026-04-05T16:36:10.423Z</time></trkpt><trkpt lat="42.9583226" lon="12.7221325"><ele>270.0</ele><time>2026-04-05T16:36:11.424Z</time></trkpt><trkpt lat="42.9584329" lon="12.7220975"><ele>270.2</ele><time>2026-04-05T16:36:12.424Z</time></trkpt><trkpt lat="42.9585375" lon="12.7220605"><ele>270.4</ele><time>2026-04-05T16:36:13.424Z</time></trkpt><trkpt lat="42.9586416" lon="12.7220233"><ele>270.6</ele><time>2026-04-05T16:36:14.424Z</time></trkpt><trkpt lat="42.9587497" lon="12.7219847"><ele>270.8</ele><time>2026-04-05T16:36:15.424Z</time></trkpt><trkpt lat="42.9588622" lon="12.7219416"><ele>271.0</ele><time>2026-04-05T16:36:16.424Z</time></trkpt><trkpt lat="42.9589778" lon="12.7219038"><ele>269.5</ele><time>2026-04-05T16:36:17.424Z</time></trkpt><trkpt lat="42.9590973" lon="12.7218682"><ele>268.0</ele><time>2026-04-05T16:36:18.424Z</time></trkpt><trkpt lat="42.9592229" lon="12.7218254"><ele>266.5</ele><time>2026-04-05T16:36:19.424Z</time></trkpt><trkpt lat="42.9593478" lon="12.721787"><ele>265.0</ele><time>2026-04-05T16:36:20.423Z</time></trkpt><trkpt lat="42.9594669" lon="12.7217446"><ele>264.75</ele><time>2026-04-05T16:36:21.424Z</time></trkpt><trkpt lat="42.9595949" lon="12.7216983"><ele>264.5</ele><time>2026-04-05T16:36:22.424Z</time></trkpt><trkpt lat="42.9597305" lon="12.7216565"><ele>264.25</ele><time>2026-04-05T16:36:23.424Z</time></trkpt><trkpt lat="42.9598721" lon="12.721614"><ele>264.0</ele><time>2026-04-05T16:36:24.423Z</time></trkpt><trkpt lat="42.9600207" lon="12.721571"><ele>262.3333333333333</ele><time>2026-04-05T16:36:25.424Z</time></trkpt><trkpt lat="42.9601785" lon="12.7215178"><ele>260.66666666666663</ele><time>2026-04-05T16:36:26.424Z</time></trkpt><trkpt lat="42.9603344" lon="12.721476"><ele>259.0</ele><time>2026-04-05T16:36:27.423Z</time></trkpt><trkpt lat="42.9604922" lon="12.7214344"><ele>259.0</ele><time>2026-04-05T16:36:28.424Z</time></trkpt><trkpt lat="42.9606569" lon="12.7213927"><ele>259.0</ele><time>2026-04-05T16:36:29.424Z</time></trkpt><trkpt lat="42.960821" lon="12.7213526"><ele>259.0</ele><time>2026-04-05T16:36:30.424Z</time></trkpt><trkpt lat="42.9609683" lon="12.7213206"><ele>257.25</ele><time>2026-04-05T16:36:31.424Z</time></trkpt><trkpt lat="42.9611184" lon="12.7212863"><ele>255.5</ele><time>2026-04-05T16:36:32.423Z</time></trkpt><trkpt lat="42.9612513" lon="12.7212513"><ele>253.75</ele><time>2026-04-05T16:36:33.424Z</time></trkpt><trkpt lat="42.9613914" lon="12.7212187"><ele>252.0</ele><time>2026-04-05T16:36:34.424Z</time></trkpt><trkpt lat="42.9615389" lon="12.7211693"><ele>252.0</ele><time>2026-04-05T16:36:35.424Z</time></trkpt><trkpt lat="42.9616805" lon="12.7211234"><ele>252.0</ele><time>2026-04-05T16:36:36.424Z</time></trkpt><trkpt lat="42.9618376" lon="12.7210734"><ele>252.0</ele><time>2026-04-05T16:36:37.424Z</time></trkpt><trkpt lat="42.9619932" lon="12.721022"><ele>250.66666666666669</ele><time>2026-04-05T16:36:38.424Z</time></trkpt><trkpt lat="42.9621559" lon="12.720964"><ele>249.33333333333334</ele><time>2026-04-05T16:36:39.423Z</time></trkpt><trkpt lat="42.9623118" lon="12.7209029"><ele>248.0</ele><time>2026-04-05T16:36:40.424Z</time></trkpt><trkpt lat="42.9624782" lon="12.7208441"><ele>248.0</ele><time>2026-04-05T16:36:41.424Z</time></trkpt><trkpt lat="42.9626431" lon="12.720781"><ele>248.0</ele><time>2026-04-05T16:36:42.424Z</time></trkpt><trkpt lat="42.9628114" lon="12.7207143"><ele>248.0</ele><time>2026-04-05T16:36:43.424Z</time></trkpt><trkpt lat="42.9629756" lon="12.7206473"><ele>248.0</ele><time>2026-04-05T16:36:44.424Z</time></trkpt><trkpt lat="42.9631431" lon="12.7205865"><ele>248.0</ele><time>2026-04-05T16:36:45.424Z</time></trkpt><trkpt lat="42.96331" lon="12.720511"><ele>248.0</ele><time>2026-04-05T16:36:46.424Z</time></trkpt><trkpt lat="42.9634657" lon="12.7204398"><ele>248.0</ele><time>2026-04-05T16:36:47.424Z</time></trkpt><trkpt lat="42.9636173" lon="12.7203631"><ele>248.0</ele><time>2026-04-05T16:36:48.424Z</time></trkpt><trkpt lat="42.9637573" lon="12.7202923"><ele>248.0</ele><time>2026-04-05T16:36:49.424Z</time></trkpt><trkpt lat="42.9638998" lon="12.7202187"><ele>248.0</ele><time>2026-04-05T16:36:50.423Z</time></trkpt><trkpt lat="42.9640479" lon="12.7201401"><ele>248.0</ele><time>2026-04-05T16:36:51.424Z</time></trkpt><trkpt lat="42.9642024" lon="12.7200708"><ele>248.0</ele><time>2026-04-05T16:36:52.423Z</time></trkpt><trkpt lat="42.9643652" lon="12.7199927"><ele>247.66666666666669</ele><time>2026-04-05T16:36:53.424Z</time></trkpt><trkpt lat="42.9645272" lon="12.7199145"><ele>247.33333333333331</ele><time>2026-04-05T16:36:54.424Z</time></trkpt><trkpt lat="42.9647009" lon="12.7198472"><ele>247.0</ele><time>2026-04-05T16:36:55.424Z</time></trkpt><trkpt lat="42.9648724" lon="12.7197651"><ele>246.33333333333331</ele><time>2026-04-05T16:36:56.424Z</time></trkpt><trkpt lat="42.9650576" lon="12.7196812"><ele>245.66666666666669</ele><time>2026-04-05T16:36:57.424Z</time></trkpt><trkpt lat="42.9652477" lon="12.7195953"><ele>245.0</ele><time>2026-04-05T16:36:58.424Z</time></trkpt><trkpt lat="42.9654368" lon="12.7194897"><ele>245.0</ele><time>2026-04-05T16:36:59.424Z</time></trkpt><trkpt lat="42.9656364" lon="12.719387"><ele>245.0</ele><time>2026-04-05T16:37:00.424Z</time></trkpt><trkpt lat="42.9658455" lon="12.7192832"><ele>245.0</ele><time>2026-04-05T16:37:01.424Z</time></trkpt><trkpt lat="42.9660596" lon="12.7191795"><ele>246.0</ele><time>2026-04-05T16:37:02.424Z</time></trkpt><trkpt lat="42.9662754" lon="12.7190697"><ele>247.0</ele><time>2026-04-05T16:37:03.424Z</time></trkpt><trkpt lat="42.9664884" lon="12.7189563"><ele>246.0</ele><time>2026-04-05T16:37:04.424Z</time></trkpt><trkpt lat="42.9667065" lon="12.7188514"><ele>245.0</ele><time>2026-04-05T16:37:05.424Z</time></trkpt><trkpt lat="42.9669215" lon="12.7187505"><ele>245.0</ele><time>2026-04-05T16:37:06.423Z</time></trkpt><trkpt lat="42.9671342" lon="12.7186504"><ele>245.0</ele><time>2026-04-05T16:37:07.424Z</time></trkpt><trkpt lat="42.9673492" lon="12.7185544"><ele>244.5</ele><time>2026-04-05T16:37:08.424Z</time></trkpt><trkpt lat="42.9675657" lon="12.7184658"><ele>244.0</ele><time>2026-04-05T16:37:09.424Z</time></trkpt><trkpt lat="42.9677772" lon="12.7183646"><ele>244.0</ele><time>2026-04-05T16:37:10.424Z</time></trkpt><trkpt lat="42.9679892" lon="12.7182577"><ele>244.0</ele><time>2026-04-05T16:37:11.423Z</time></trkpt><trkpt lat="42.9681997" lon="12.7181576"><ele>244.0</ele><time>2026-04-05T16:37:12.423Z</time></trkpt><trkpt lat="42.9684119" lon="12.718058"><ele>243.66666666666666</ele><time>2026-04-05T16:37:13.423Z</time></trkpt><trkpt lat="42.9686203" lon="12.7179557"><ele>243.33333333333331</ele><time>2026-04-05T16:37:14.424Z</time></trkpt><trkpt lat="42.9688308" lon="12.7178646"><ele>243.0</ele><time>2026-04-05T16:37:15.424Z</time></trkpt><trkpt lat="42.9690376" lon="12.7177676"><ele>244.0</ele><time>2026-04-05T16:37:16.423Z</time></trkpt><trkpt lat="42.969249" lon="12.7176701"><ele>245.0</ele><time>2026-04-05T16:37:17.424Z</time></trkpt><trkpt lat="42.9694552" lon="12.7175752"><ele>246.0</ele><time>2026-04-05T16:37:18.424Z</time></trkpt><trkpt lat="42.9696625" lon="12.7174821"><ele>246.0</ele><time>2026-04-05T16:37:19.424Z</time></trkpt><trkpt lat="42.9698704" lon="12.7173853"><ele>246.0</ele><time>2026-04-05T16:37:20.424Z</time></trkpt><trkpt lat="42.9700652" lon="12.7173013"><ele>246.0</ele><time>2026-04-05T16:37:21.424Z</time></trkpt><trkpt lat="42.9702557" lon="12.7172086"><ele>245.33333333333331</ele><time>2026-04-05T16:37:22.424Z</time></trkpt><trkpt lat="42.9704441" lon="12.7171333"><ele>244.66666666666666</ele><time>2026-04-05T16:37:23.424Z</time></trkpt><trkpt lat="42.9706246" lon="12.7170546"><ele>244.0</ele><time>2026-04-05T16:37:24.424Z</time></trkpt><trkpt lat="42.9708004" lon="12.7169713"><ele>244.0</ele><time>2026-04-05T16:37:25.424Z</time></trkpt><trkpt lat="42.9709714" lon="12.7168811"><ele>244.0</ele><time>2026-04-05T16:37:26.424Z</time></trkpt><trkpt lat="42.97115" lon="12.7167921"><ele>244.0</ele><time>2026-04-05T16:37:27.424Z</time></trkpt><trkpt lat="42.9713207" lon="12.716717"><ele>244.0</ele><time>2026-04-05T16:37:28.423Z</time></trkpt><trkpt lat="42.9714692" lon="12.7166424"><ele>244.0</ele><time>2026-04-05T16:37:29.423Z</time></trkpt><trkpt lat="42.9716097" lon="12.7165732"><ele>244.0</ele><time>2026-04-05T16:37:30.424Z</time></trkpt><trkpt lat="42.9717349" lon="12.716508"><ele>244.0</ele><time>2026-04-05T16:37:31.424Z</time></trkpt><trkpt lat="42.9718603" lon="12.7164657"><ele>244.0</ele><time>2026-04-05T16:37:32.424Z</time></trkpt><trkpt lat="42.9719838" lon="12.7164413"><ele>244.0</ele><time>2026-04-05T16:37:33.424Z</time></trkpt><trkpt lat="42.9721001" lon="12.7164458"><ele>244.0</ele><time>2026-04-05T16:37:34.424Z</time></trkpt><trkpt lat="42.9722108" lon="12.7164798"><ele>244.0</ele><time>2026-04-05T16:37:35.424Z</time></trkpt><trkpt lat="42.9723198" lon="12.7165311"><ele>244.0</ele><time>2026-04-05T16:37:36.424Z</time></trkpt><trkpt lat="42.9724308" lon="12.7166006"><ele>244.0</ele><time>2026-04-05T16:37:37.424Z</time></trkpt><trkpt lat="42.9725346" lon="12.7166985"><ele>244.0</ele><time>2026-04-05T16:37:38.424Z</time></trkpt><trkpt lat="42.9726386" lon="12.7167996"><ele>244.0</ele><time>2026-04-05T16:37:39.423Z</time></trkpt><trkpt lat="42.9727479" lon="12.7169045"><ele>244.25</ele><time>2026-04-05T16:37:40.423Z</time></trkpt><trkpt lat="42.9728541" lon="12.7170087"><ele>244.5</ele><time>2026-04-05T16:37:41.424Z</time></trkpt><trkpt lat="42.9729523" lon="12.7171067"><ele>244.75</ele><time>2026-04-05T16:37:42.424Z</time></trkpt><trkpt lat="42.9730463" lon="12.7171905"><ele>245.0</ele><time>2026-04-05T16:37:43.424Z</time></trkpt><trkpt lat="42.9731498" lon="12.717256"><ele>245.0</ele><time>2026-04-05T16:37:44.423Z</time></trkpt><trkpt lat="42.9732534" lon="12.7173008"><ele>245.0</ele><time>2026-04-05T16:37:45.424Z</time></trkpt><trkpt lat="42.9733698" lon="12.7173211"><ele>245.0</ele><time>2026-04-05T16:37:46.423Z</time></trkpt><trkpt lat="42.9734915" lon="12.7172966"><ele>245.0</ele><time>2026-04-05T16:37:47.424Z</time></trkpt><trkpt lat="42.9736047" lon="12.7172312"><ele>245.75</ele><time>2026-04-05T16:37:48.423Z</time></trkpt><trkpt lat="42.9737032" lon="12.717137"><ele>246.5</ele><time>2026-04-05T16:37:49.424Z</time></trkpt><trkpt lat="42.9737952" lon="12.7170229"><ele>247.25</ele><time>2026-04-05T16:37:50.424Z</time></trkpt><trkpt lat="42.9738725" lon="12.7168884"><ele>248.0</ele><time>2026-04-05T16:37:51.424Z</time></trkpt><trkpt lat="42.9739316" lon="12.7167229"><ele>248.0</ele><time>2026-04-05T16:37:52.424Z</time></trkpt><trkpt lat="42.9739667" lon="12.7165462"><ele>248.0</ele><time>2026-04-05T16:37:53.424Z</time></trkpt><trkpt lat="42.9739706" lon="12.7163606"><ele>248.0</ele><time>2026-04-05T16:37:54.424Z</time></trkpt><trkpt lat="42.973971" lon="12.7161794"><ele>248.0</ele><time>2026-04-05T16:37:55.424Z</time></trkpt><trkpt lat="42.9739676" lon="12.7159875"><ele>247.75</ele><time>2026-04-05T16:37:56.423Z</time></trkpt><trkpt lat="42.9739687" lon="12.7157988"><ele>247.5</ele><time>2026-04-05T16:37:57.424Z</time></trkpt><trkpt lat="42.9739712" lon="12.7156138"><ele>247.25</ele><time>2026-04-05T16:37:58.424Z</time></trkpt><trkpt lat="42.973973" lon="12.7154254"><ele>247.0</ele><time>2026-04-05T16:37:59.424Z</time></trkpt><trkpt lat="42.9739578" lon="12.7151927"><ele>246.75</ele><time>2026-04-05T16:38:00.424Z</time></trkpt><trkpt lat="42.9739523" lon="12.7150043"><ele>246.5</ele><time>2026-04-05T16:38:01.423Z</time></trkpt><trkpt lat="42.9739345" lon="12.714821"><ele>246.25</ele><time>2026-04-05T16:38:02.424Z</time></trkpt><trkpt lat="42.9739124" lon="12.7146357"><ele>246.0</ele><time>2026-04-05T16:38:03.424Z</time></trkpt><trkpt lat="42.9738989" lon="12.714457"><ele>245.75</ele><time>2026-04-05T16:38:04.424Z</time></trkpt><trkpt lat="42.9738724" lon="12.714277"><ele>245.5</ele><time>2026-04-05T16:38:05.423Z</time></trkpt><trkpt lat="42.973847" lon="12.7141081"><ele>245.25</ele><time>2026-04-05T16:38:06.424Z</time></trkpt><trkpt lat="42.9738213" lon="12.7139436"><ele>245.0</ele><time>2026-04-05T16:38:07.423Z</time></trkpt><trkpt lat="42.9738007" lon="12.7137858"><ele>245.0</ele><time>2026-04-05T16:38:08.424Z</time></trkpt><trkpt lat="42.9737787" lon="12.7136167"><ele>245.0</ele><time>2026-04-05T16:38:09.424Z</time></trkpt><trkpt lat="42.9737527" lon="12.7134366"><ele>245.0</ele><time>2026-04-05T16:38:10.423Z</time></trkpt><trkpt lat="42.9737207" lon="12.7132421"><ele>245.0</ele><time>2026-04-05T16:38:11.424Z</time></trkpt><trkpt lat="42.9736906" lon="12.7130363"><ele>245.66666666666669</ele><time>2026-04-05T16:38:12.423Z</time></trkpt><trkpt lat="42.9736658" lon="12.7128245"><ele>246.33333333333331</ele><time>2026-04-05T16:38:13.423Z</time></trkpt><trkpt lat="42.9736308" lon="12.7125869"><ele>247.0</ele><time>2026-04-05T16:38:14.423Z</time></trkpt><trkpt lat="42.9735973" lon="12.7123611"><ele>247.0</ele><time>2026-04-05T16:38:15.424Z</time></trkpt><trkpt lat="42.9735635" lon="12.712108"><ele>247.0</ele><time>2026-04-05T16:38:16.424Z</time></trkpt><trkpt lat="42.9735251" lon="12.7118558"><ele>247.0</ele><time>2026-04-05T16:38:17.424Z</time></trkpt><trkpt lat="42.973482" lon="12.7115917"><ele>247.66666666666666</ele><time>2026-04-05T16:38:18.424Z</time></trkpt><trkpt lat="42.9734439" lon="12.7113305"><ele>248.33333333333331</ele><time>2026-04-05T16:38:19.424Z</time></trkpt><trkpt lat="42.9733956" lon="12.7110631"><ele>249.0</ele><time>2026-04-05T16:38:20.424Z</time></trkpt><trkpt lat="42.9733463" lon="12.7108032"><ele>248.33333333333331</ele><time>2026-04-05T16:38:21.423Z</time></trkpt><trkpt lat="42.9733013" lon="12.7105382"><ele>247.66666666666666</ele><time>2026-04-05T16:38:22.424Z</time></trkpt><trkpt lat="42.9732599" lon="12.7102688"><ele>247.0</ele><time>2026-04-05T16:38:23.424Z</time></trkpt><trkpt lat="42.9732213" lon="12.7100118"><ele>247.0</ele><time>2026-04-05T16:38:24.424Z</time></trkpt><trkpt lat="42.9731809" lon="12.7097533"><ele>247.0</ele><time>2026-04-05T16:38:25.424Z</time></trkpt><trkpt lat="42.9731304" lon="12.7094893"><ele>247.0</ele><time>2026-04-05T16:38:26.424Z</time></trkpt><trkpt lat="42.973083" lon="12.7092292"><ele>247.0</ele><time>2026-04-05T16:38:27.424Z</time></trkpt><trkpt lat="42.9730297" lon="12.7089656"><ele>247.0</ele><time>2026-04-05T16:38:28.423Z</time></trkpt><trkpt lat="42.9729704" lon="12.7087035"><ele>247.0</ele><time>2026-04-05T16:38:29.424Z</time></trkpt><trkpt lat="42.9729109" lon="12.708422"><ele>246.0</ele><time>2026-04-05T16:38:30.424Z</time></trkpt><trkpt lat="42.9728346" lon="12.708136"><ele>245.0</ele><time>2026-04-05T16:38:31.424Z</time></trkpt><trkpt lat="42.9727547" lon="12.7078461"><ele>244.0</ele><time>2026-04-05T16:38:32.423Z</time></trkpt><trkpt lat="42.9726651" lon="12.7075598"><ele>243.5</ele><time>2026-04-05T16:38:33.424Z</time></trkpt><trkpt lat="42.9725693" lon="12.7072783"><ele>243.0</ele><time>2026-04-05T16:38:34.423Z</time></trkpt><trkpt lat="42.9724656" lon="12.7069976"><ele>242.0</ele><time>2026-04-05T16:38:35.424Z</time></trkpt><trkpt lat="42.9723571" lon="12.7067108"><ele>241.0</ele><time>2026-04-05T16:38:36.424Z</time></trkpt><trkpt lat="42.9722411" lon="12.7064286"><ele>241.0</ele><time>2026-04-05T16:38:37.423Z</time></trkpt><trkpt lat="42.9721232" lon="12.7061539"><ele>241.0</ele><time>2026-04-05T16:38:38.424Z</time></trkpt><trkpt lat="42.9720038" lon="12.7058797"><ele>244.5</ele><time>2026-04-05T16:38:39.424Z</time></trkpt><trkpt lat="42.9718913" lon="12.7056124"><ele>248.0</ele><time>2026-04-05T16:38:40.424Z</time></trkpt><trkpt lat="42.9717764" lon="12.7053437"><ele>247.33333333333334</ele><time>2026-04-05T16:38:41.423Z</time></trkpt><trkpt lat="42.9716624" lon="12.7050739"><ele>246.66666666666669</ele><time>2026-04-05T16:38:42.423Z</time></trkpt><trkpt lat="42.9715494" lon="12.7048186"><ele>246.0</ele><time>2026-04-05T16:38:43.423Z</time></trkpt><trkpt lat="42.9714303" lon="12.704552"><ele>246.5</ele><time>2026-04-05T16:38:44.424Z</time></trkpt><trkpt lat="42.9713013" lon="12.7042649"><ele>247.0</ele><time>2026-04-05T16:38:45.424Z</time></trkpt><trkpt lat="42.9711861" lon="12.7039976"><ele>247.0</ele><time>2026-04-05T16:38:46.424Z</time></trkpt><trkpt lat="42.9710698" lon="12.7037314"><ele>247.0</ele><time>2026-04-05T16:38:47.424Z</time></trkpt><trkpt lat="42.9709538" lon="12.7034577"><ele>245.0</ele><time>2026-04-05T16:38:48.424Z</time></trkpt><trkpt lat="42.9708352" lon="12.7031829"><ele>243.0</ele><time>2026-04-05T16:38:49.424Z</time></trkpt><trkpt lat="42.9707235" lon="12.7029143"><ele>241.5</ele><time>2026-04-05T16:38:50.424Z</time></trkpt><trkpt lat="42.9706082" lon="12.7026512"><ele>240.0</ele><time>2026-04-05T16:38:51.423Z</time></trkpt><trkpt lat="42.9705043" lon="12.7023718"><ele>240.0</ele><time>2026-04-05T16:38:52.424Z</time></trkpt><trkpt lat="42.9704132" lon="12.7020922"><ele>240.0</ele><time>2026-04-05T16:38:53.424Z</time></trkpt><trkpt lat="42.9703496" lon="12.7017979"><ele>240.0</ele><time>2026-04-05T16:38:54.424Z</time></trkpt><trkpt lat="42.9703036" lon="12.7015029"><ele>238.5</ele><time>2026-04-05T16:38:55.424Z</time></trkpt><trkpt lat="42.9702596" lon="12.7012015"><ele>237.0</ele><time>2026-04-05T16:38:56.424Z</time></trkpt><trkpt lat="42.9702327" lon="12.7008965"><ele>237.0</ele><time>2026-04-05T16:38:57.423Z</time></trkpt><trkpt lat="42.9702168" lon="12.7005903"><ele>237.0</ele><time>2026-04-05T16:38:58.424Z</time></trkpt><trkpt lat="42.9702181" lon="12.7002827"><ele>237.0</ele><time>2026-04-05T16:38:59.424Z</time></trkpt><trkpt lat="42.9702397" lon="12.6999826"><ele>237.0</ele><time>2026-04-05T16:39:00.424Z</time></trkpt><trkpt lat="42.9702881" lon="12.6996841"><ele>237.0</ele><time>2026-04-05T16:39:01.424Z</time></trkpt><trkpt lat="42.9703506" lon="12.6993865"><ele>237.5</ele><time>2026-04-05T16:39:02.424Z</time></trkpt><trkpt lat="42.9704274" lon="12.6990984"><ele>238.0</ele><time>2026-04-05T16:39:03.424Z</time></trkpt><trkpt lat="42.9705195" lon="12.69881"><ele>237.0</ele><time>2026-04-05T16:39:04.424Z</time></trkpt><trkpt lat="42.9706185" lon="12.6985281"><ele>236.0</ele><time>2026-04-05T16:39:05.424Z</time></trkpt><trkpt lat="42.9707197" lon="12.6982477"><ele>236.0</ele><time>2026-04-05T16:39:06.424Z</time></trkpt><trkpt lat="42.9708294" lon="12.697961"><ele>236.0</ele><time>2026-04-05T16:39:07.424Z</time></trkpt><trkpt lat="42.9709405" lon="12.6976647"><ele>236.0</ele><time>2026-04-05T16:39:08.424Z</time></trkpt><trkpt lat="42.9710456" lon="12.6973655"><ele>236.0</ele><time>2026-04-05T16:39:09.424Z</time></trkpt><trkpt lat="42.9711533" lon="12.697062"><ele>236.5</ele><time>2026-04-05T16:39:10.424Z</time></trkpt><trkpt lat="42.9712624" lon="12.696754"><ele>237.0</ele><time>2026-04-05T16:39:11.424Z</time></trkpt><trkpt lat="42.9713663" lon="12.6964427"><ele>237.0</ele><time>2026-04-05T16:39:12.424Z</time></trkpt><trkpt lat="42.9714705" lon="12.6961402"><ele>237.0</ele><time>2026-04-05T16:39:13.424Z</time></trkpt><trkpt lat="42.971576" lon="12.6958288"><ele>235.0</ele><time>2026-04-05T16:39:14.423Z</time></trkpt><trkpt lat="42.9716878" lon="12.6955153"><ele>233.0</ele><time>2026-04-05T16:39:15.424Z</time></trkpt><trkpt lat="42.9717929" lon="12.6952103"><ele>233.0</ele><time>2026-04-05T16:39:16.424Z</time></trkpt><trkpt lat="42.9719053" lon="12.694908"><ele>233.0</ele><time>2026-04-05T16:39:17.424Z</time></trkpt><trkpt lat="42.9720188" lon="12.6946007"><ele>233.5</ele><time>2026-04-05T16:39:18.423Z</time></trkpt><trkpt lat="42.9721286" lon="12.6942927"><ele>234.0</ele><time>2026-04-05T16:39:19.424Z</time></trkpt><trkpt lat="42.9722341" lon="12.6939808"><ele>234.0</ele><time>2026-04-05T16:39:20.424Z</time></trkpt><trkpt lat="42.9723414" lon="12.693668"><ele>234.0</ele><time>2026-04-05T16:39:21.423Z</time></trkpt><trkpt lat="42.9724509" lon="12.6933639"><ele>234.0</ele><time>2026-04-05T16:39:22.424Z</time></trkpt><trkpt lat="42.9725651" lon="12.6930544"><ele>234.0</ele><time>2026-04-05T16:39:23.424Z</time></trkpt><trkpt lat="42.9726809" lon="12.6927468"><ele>234.0</ele><time>2026-04-05T16:39:24.424Z</time></trkpt><trkpt lat="42.9727923" lon="12.6924342"><ele>234.0</ele><time>2026-04-05T16:39:25.424Z</time></trkpt><trkpt lat="42.9729251" lon="12.6921404"><ele>234.0</ele><time>2026-04-05T16:39:26.424Z</time></trkpt><trkpt lat="42.9730557" lon="12.6918372"><ele>234.0</ele><time>2026-04-05T16:39:27.424Z</time></trkpt><trkpt lat="42.9731876" lon="12.6915371"><ele>234.0</ele><time>2026-04-05T16:39:28.424Z</time></trkpt><trkpt lat="42.9733284" lon="12.6912406"><ele>234.0</ele><time>2026-04-05T16:39:29.424Z</time></trkpt><trkpt lat="42.9734692" lon="12.690943"><ele>236.0</ele><time>2026-04-05T16:39:30.424Z</time></trkpt><trkpt lat="42.9736092" lon="12.6906493"><ele>238.0</ele><time>2026-04-05T16:39:31.424Z</time></trkpt><trkpt lat="42.9737507" lon="12.690348"><ele>236.5</ele><time>2026-04-05T16:39:32.423Z</time></trkpt><trkpt lat="42.9738893" lon="12.6900551"><ele>235.0</ele><time>2026-04-05T16:39:33.424Z</time></trkpt><trkpt lat="42.9740297" lon="12.6897558"><ele>235.0</ele><time>2026-04-05T16:39:34.424Z</time></trkpt><trkpt lat="42.9741754" lon="12.6894596"><ele>235.0</ele><time>2026-04-05T16:39:35.423Z</time></trkpt><trkpt lat="42.9743116" lon="12.6891709"><ele>233.5</ele><time>2026-04-05T16:39:36.423Z</time></trkpt><trkpt lat="42.9744498" lon="12.6888744"><ele>232.0</ele><time>2026-04-05T16:39:37.424Z</time></trkpt><trkpt lat="42.9745893" lon="12.6885823"><ele>231.0</ele><time>2026-04-05T16:39:38.424Z</time></trkpt><trkpt lat="42.9747276" lon="12.6882881"><ele>230.0</ele><time>2026-04-05T16:39:39.424Z</time></trkpt><trkpt lat="42.9748686" lon="12.6879894"><ele>229.5</ele><time>2026-04-05T16:39:40.424Z</time></trkpt><trkpt lat="42.9750045" lon="12.6876914"><ele>229.0</ele><time>2026-04-05T16:39:41.424Z</time></trkpt><trkpt lat="42.9751413" lon="12.6874015"><ele>228.5</ele><time>2026-04-05T16:39:42.423Z</time></trkpt><trkpt lat="42.9752788" lon="12.6871145"><ele>228.0</ele><time>2026-04-05T16:39:43.423Z</time></trkpt><trkpt lat="42.9754113" lon="12.6868341"><ele>227.0</ele><time>2026-04-05T16:39:44.423Z</time></trkpt><trkpt lat="42.9755451" lon="12.6865462"><ele>226.0</ele><time>2026-04-05T16:39:45.424Z</time></trkpt><trkpt lat="42.9756768" lon="12.6862584"><ele>226.0</ele><time>2026-04-05T16:39:46.424Z</time></trkpt><trkpt lat="42.9758142" lon="12.6859654"><ele>226.0</ele><time>2026-04-05T16:39:47.424Z</time></trkpt><trkpt lat="42.9759472" lon="12.6856764"><ele>227.0</ele><time>2026-04-05T16:39:48.424Z</time></trkpt><trkpt lat="42.9760798" lon="12.6853922"><ele>228.0</ele><time>2026-04-05T16:39:49.424Z</time></trkpt><trkpt lat="42.9762083" lon="12.6850982"><ele>228.0</ele><time>2026-04-05T16:39:50.424Z</time></trkpt><trkpt lat="42.9763459" lon="12.6848055"><ele>228.0</ele><time>2026-04-05T16:39:51.424Z</time></trkpt><trkpt lat="42.976482" lon="12.6845214"><ele>227.0</ele><time>2026-04-05T16:39:52.424Z</time></trkpt><trkpt lat="42.9766116" lon="12.6842224"><ele>226.0</ele><time>2026-04-05T16:39:53.423Z</time></trkpt><trkpt lat="42.9767449" lon="12.6839307"><ele>226.0</ele><time>2026-04-05T16:39:54.424Z</time></trkpt><trkpt lat="42.9768814" lon="12.6836432"><ele>226.0</ele><time>2026-04-05T16:39:55.424Z</time></trkpt><trkpt lat="42.9770117" lon="12.6833536"><ele>226.5</ele><time>2026-04-05T16:39:56.424Z</time></trkpt><trkpt lat="42.9771437" lon="12.6830685"><ele>227.0</ele><time>2026-04-05T16:39:57.424Z</time></trkpt><trkpt lat="42.9772813" lon="12.6827736"><ele>226.0</ele><time>2026-04-05T16:39:58.424Z</time></trkpt><trkpt lat="42.9774098" lon="12.6824811"><ele>225.0</ele><time>2026-04-05T16:39:59.423Z</time></trkpt><trkpt lat="42.97754" lon="12.6821846"><ele>224.5</ele><time>2026-04-05T16:40:00.424Z</time></trkpt><trkpt lat="42.9776743" lon="12.681889"><ele>224.0</ele><time>2026-04-05T16:40:01.424Z</time></trkpt><trkpt lat="42.9778107" lon="12.681588"><ele>224.0</ele><time>2026-04-05T16:40:02.424Z</time></trkpt><trkpt lat="42.9779435" lon="12.6812999"><ele>224.0</ele><time>2026-04-05T16:40:03.423Z</time></trkpt><trkpt lat="42.9780751" lon="12.6810049"><ele>223.5</ele><time>2026-04-05T16:40:04.424Z</time></trkpt><trkpt lat="42.9782118" lon="12.6807072"><ele>223.0</ele><time>2026-04-05T16:40:05.424Z</time></trkpt><trkpt lat="42.9783552" lon="12.6804171"><ele>224.0</ele><time>2026-04-05T16:40:06.424Z</time></trkpt><trkpt lat="42.9784956" lon="12.6801279"><ele>225.0</ele><time>2026-04-05T16:40:07.424Z</time></trkpt><trkpt lat="42.9786381" lon="12.6798389"><ele>225.0</ele><time>2026-04-05T16:40:08.423Z</time></trkpt><trkpt lat="42.9787729" lon="12.6795538"><ele>225.0</ele><time>2026-04-05T16:40:09.424Z</time></trkpt><trkpt lat="42.9789109" lon="12.6792734"><ele>223.5</ele><time>2026-04-05T16:40:10.424Z</time></trkpt><trkpt lat="42.9790523" lon="12.6789906"><ele>222.0</ele><time>2026-04-05T16:40:11.423Z</time></trkpt><trkpt lat="42.9791916" lon="12.6787133"><ele>222.5</ele><time>2026-04-05T16:40:12.424Z</time></trkpt><trkpt lat="42.9793293" lon="12.6784258"><ele>223.0</ele><time>2026-04-05T16:40:13.424Z</time></trkpt><trkpt lat="42.9794675" lon="12.678143"><ele>223.0</ele><time>2026-04-05T16:40:14.423Z</time></trkpt><trkpt lat="42.9796179" lon="12.6778742"><ele>223.0</ele><time>2026-04-05T16:40:15.424Z</time></trkpt><trkpt lat="42.9797712" lon="12.6776069"><ele>223.5</ele><time>2026-04-05T16:40:16.424Z</time></trkpt><trkpt lat="42.9799268" lon="12.6773446"><ele>224.0</ele><time>2026-04-05T16:40:17.424Z</time></trkpt><trkpt lat="42.9800979" lon="12.6770945"><ele>223.5</ele><time>2026-04-05T16:40:18.424Z</time></trkpt><trkpt lat="42.9802633" lon="12.6768555"><ele>223.0</ele><time>2026-04-05T16:40:19.424Z</time></trkpt><trkpt lat="42.98043" lon="12.6766029"><ele>223.0</ele><time>2026-04-05T16:40:20.423Z</time></trkpt><trkpt lat="42.9806075" lon="12.6763597"><ele>223.0</ele><time>2026-04-05T16:40:21.423Z</time></trkpt><trkpt lat="42.9807867" lon="12.6761283"><ele>222.5</ele><time>2026-04-05T16:40:22.424Z</time></trkpt><trkpt lat="42.9809558" lon="12.6758863"><ele>222.0</ele><time>2026-04-05T16:40:23.424Z</time></trkpt><trkpt lat="42.9811316" lon="12.6756502"><ele>222.0</ele><time>2026-04-05T16:40:24.423Z</time></trkpt><trkpt lat="42.98131" lon="12.6754182"><ele>222.0</ele><time>2026-04-05T16:40:25.424Z</time></trkpt><trkpt lat="42.9814876" lon="12.6751919"><ele>221.5</ele><time>2026-04-05T16:40:26.424Z</time></trkpt><trkpt lat="42.9816617" lon="12.6749532"><ele>221.0</ele><time>2026-04-05T16:40:27.423Z</time></trkpt><trkpt lat="42.9818377" lon="12.6747231"><ele>221.0</ele><time>2026-04-05T16:40:28.424Z</time></trkpt><trkpt lat="42.9820147" lon="12.6744812"><ele>221.0</ele><time>2026-04-05T16:40:29.423Z</time></trkpt><trkpt lat="42.9821942" lon="12.6742455"><ele>221.0</ele><time>2026-04-05T16:40:30.424Z</time></trkpt><trkpt lat="42.9823721" lon="12.6740052"><ele>221.0</ele><time>2026-04-05T16:40:31.424Z</time></trkpt><trkpt lat="42.9825507" lon="12.6737674"><ele>223.0</ele><time>2026-04-05T16:40:32.424Z</time></trkpt><trkpt lat="42.9827267" lon="12.6735352"><ele>225.0</ele><time>2026-04-05T16:40:33.424Z</time></trkpt><trkpt lat="42.9829049" lon="12.6733013"><ele>225.0</ele><time>2026-04-05T16:40:34.423Z</time></trkpt><trkpt lat="42.9830831" lon="12.6730673"><ele>225.0</ele><time>2026-04-05T16:40:35.423Z</time></trkpt><trkpt lat="42.9832633" lon="12.6728263"><ele>224.5</ele><time>2026-04-05T16:40:36.424Z</time></trkpt><trkpt lat="42.9834451" lon="12.6725852"><ele>224.0</ele><time>2026-04-05T16:40:37.424Z</time></trkpt><trkpt lat="42.9836284" lon="12.6723457"><ele>224.0</ele><time>2026-04-05T16:40:38.424Z</time></trkpt><trkpt lat="42.98381" lon="12.6720982"><ele>224.0</ele><time>2026-04-05T16:40:39.424Z</time></trkpt><trkpt lat="42.9839938" lon="12.6718584"><ele>223.5</ele><time>2026-04-05T16:40:40.423Z</time></trkpt><trkpt lat="42.9841763" lon="12.6716145"><ele>223.0</ele><time>2026-04-05T16:40:41.424Z</time></trkpt><trkpt lat="42.9843533" lon="12.6713639"><ele>223.0</ele><time>2026-04-05T16:40:42.424Z</time></trkpt><trkpt lat="42.9845404" lon="12.671114"><ele>223.0</ele><time>2026-04-05T16:40:43.423Z</time></trkpt><trkpt lat="42.9847264" lon="12.6708748"><ele>223.0</ele><time>2026-04-05T16:40:44.424Z</time></trkpt><trkpt lat="42.9849066" lon="12.6706291"><ele>223.0</ele><time>2026-04-05T16:40:45.423Z</time></trkpt><trkpt lat="42.9850842" lon="12.6703804"><ele>224.0</ele><time>2026-04-05T16:40:46.424Z</time></trkpt><trkpt lat="42.9852633" lon="12.6701312"><ele>225.0</ele><time>2026-04-05T16:40:47.423Z</time></trkpt><trkpt lat="42.985443" lon="12.669895"><ele>225.0</ele><time>2026-04-05T16:40:48.424Z</time></trkpt><trkpt lat="42.9856275" lon="12.6696559"><ele>225.0</ele><time>2026-04-05T16:40:49.424Z</time></trkpt><trkpt lat="42.985811" lon="12.6694186"><ele>224.5</ele><time>2026-04-05T16:40:50.424Z</time></trkpt><trkpt lat="42.9859977" lon="12.6691835"><ele>224.0</ele><time>2026-04-05T16:40:51.424Z</time></trkpt><trkpt lat="42.9861793" lon="12.6689411"><ele>224.0</ele><time>2026-04-05T16:40:52.423Z</time></trkpt><trkpt lat="42.9863611" lon="12.6687074"><ele>224.0</ele><time>2026-04-05T16:40:53.424Z</time></trkpt><trkpt lat="42.9865376" lon="12.6684689"><ele>222.5</ele><time>2026-04-05T16:40:54.423Z</time></trkpt><trkpt lat="42.9867135" lon="12.6682351"><ele>221.0</ele><time>2026-04-05T16:40:55.424Z</time></trkpt><trkpt lat="42.9868898" lon="12.6680032"><ele>221.0</ele><time>2026-04-05T16:40:56.424Z</time></trkpt><trkpt lat="42.9870676" lon="12.6677778"><ele>221.0</ele><time>2026-04-05T16:40:57.424Z</time></trkpt><trkpt lat="42.9872523" lon="12.6675627"><ele>221.0</ele><time>2026-04-05T16:40:58.424Z</time></trkpt><trkpt lat="42.9874491" lon="12.6673654"><ele>221.0</ele><time>2026-04-05T16:40:59.424Z</time></trkpt><trkpt lat="42.9876495" lon="12.6671818"><ele>220.0</ele><time>2026-04-05T16:41:00.423Z</time></trkpt><trkpt lat="42.9878555" lon="12.6670185"><ele>219.0</ele><time>2026-04-05T16:41:01.424Z</time></trkpt><trkpt lat="42.9880653" lon="12.6668584"><ele>218.0</ele><time>2026-04-05T16:41:02.424Z</time></trkpt><trkpt lat="42.9882833" lon="12.6667097"><ele>217.0</ele><time>2026-04-05T16:41:03.423Z</time></trkpt><trkpt lat="42.9885054" lon="12.666568"><ele>216.0</ele><time>2026-04-05T16:41:04.423Z</time></trkpt><trkpt lat="42.988728" lon="12.6664362"><ele>215.0</ele><time>2026-04-05T16:41:05.424Z</time></trkpt><trkpt lat="42.9889478" lon="12.666303"><ele>215.0</ele><time>2026-04-05T16:41:06.424Z</time></trkpt><trkpt lat="42.9891729" lon="12.6661698"><ele>215.0</ele><time>2026-04-05T16:41:07.423Z</time></trkpt><trkpt lat="42.9893993" lon="12.6660388"><ele>215.0</ele><time>2026-04-05T16:41:08.424Z</time></trkpt><trkpt lat="42.9896249" lon="12.6659076"><ele>215.0</ele><time>2026-04-05T16:41:09.424Z</time></trkpt><trkpt lat="42.9898479" lon="12.6657675"><ele>215.0</ele><time>2026-04-05T16:41:10.424Z</time></trkpt><trkpt lat="42.990081" lon="12.6656379"><ele>215.0</ele><time>2026-04-05T16:41:11.424Z</time></trkpt><trkpt lat="42.9903117" lon="12.6654998"><ele>215.0</ele><time>2026-04-05T16:41:12.424Z</time></trkpt><trkpt lat="42.9905404" lon="12.6653681"><ele>215.0</ele><time>2026-04-05T16:41:13.424Z</time></trkpt><trkpt lat="42.9907758" lon="12.6652306"><ele>214.0</ele><time>2026-04-05T16:41:14.424Z</time></trkpt><trkpt lat="42.9910036" lon="12.6650943"><ele>213.0</ele><time>2026-04-05T16:41:15.424Z</time></trkpt><trkpt lat="42.9912369" lon="12.6649559"><ele>213.0</ele><time>2026-04-05T16:41:16.424Z</time></trkpt><trkpt lat="42.9914719" lon="12.664824"><ele>213.0</ele><time>2026-04-05T16:41:17.424Z</time></trkpt><trkpt lat="42.9917055" lon="12.6646883"><ele>212.0</ele><time>2026-04-05T16:41:18.423Z</time></trkpt><trkpt lat="42.9919419" lon="12.664547"><ele>211.0</ele><time>2026-04-05T16:41:19.424Z</time></trkpt><trkpt lat="42.9921754" lon="12.6644079"><ele>211.0</ele><time>2026-04-05T16:41:20.423Z</time></trkpt><trkpt lat="42.9924044" lon="12.6642804"><ele>211.0</ele><time>2026-04-05T16:41:21.424Z</time></trkpt><trkpt lat="42.9926176" lon="12.6641622"><ele>210.66666666666666</ele><time>2026-04-05T16:41:22.424Z</time></trkpt><trkpt lat="42.9928224" lon="12.6640384"><ele>210.33333333333331</ele><time>2026-04-05T16:41:23.424Z</time></trkpt><trkpt lat="42.9930285" lon="12.6639221"><ele>210.0</ele><time>2026-04-05T16:41:24.424Z</time></trkpt><trkpt lat="42.9932347" lon="12.6638064"><ele>210.0</ele><time>2026-04-05T16:41:25.424Z</time></trkpt><trkpt lat="42.9934451" lon="12.6636799"><ele>210.0</ele><time>2026-04-05T16:41:26.424Z</time></trkpt><trkpt lat="42.9936534" lon="12.6635497"><ele>209.5</ele><time>2026-04-05T16:41:27.424Z</time></trkpt><trkpt lat="42.9938717" lon="12.6634149"><ele>209.0</ele><time>2026-04-05T16:41:28.423Z</time></trkpt><trkpt lat="42.9940884" lon="12.6632838"><ele>209.0</ele><time>2026-04-05T16:41:29.423Z</time></trkpt><trkpt lat="42.9943203" lon="12.6631645"><ele>209.0</ele><time>2026-04-05T16:41:30.424Z</time></trkpt><trkpt lat="42.9945467" lon="12.6630294"><ele>209.0</ele><time>2026-04-05T16:41:31.423Z</time></trkpt><trkpt lat="42.9947746" lon="12.6628977"><ele>209.0</ele><time>2026-04-05T16:41:32.424Z</time></trkpt><trkpt lat="42.9950015" lon="12.6627692"><ele>209.0</ele><time>2026-04-05T16:41:33.423Z</time></trkpt><trkpt lat="42.9952245" lon="12.6626367"><ele>209.0</ele><time>2026-04-05T16:41:34.424Z</time></trkpt><trkpt lat="42.9954562" lon="12.6625108"><ele>209.0</ele><time>2026-04-05T16:41:35.423Z</time></trkpt><trkpt lat="42.995687" lon="12.6623967"><ele>209.0</ele><time>2026-04-05T16:41:36.424Z</time></trkpt><trkpt lat="42.9959249" lon="12.6622959"><ele>208.5</ele><time>2026-04-05T16:41:37.424Z</time></trkpt><trkpt lat="42.9961636" lon="12.662208"><ele>208.0</ele><time>2026-04-05T16:41:38.424Z</time></trkpt><trkpt lat="42.9964104" lon="12.6621345"><ele>208.0</ele><time>2026-04-05T16:41:39.424Z</time></trkpt><trkpt lat="42.9966564" lon="12.6620726"><ele>208.0</ele><time>2026-04-05T16:41:40.424Z</time></trkpt><trkpt lat="42.996904" lon="12.6620175"><ele>208.0</ele><time>2026-04-05T16:41:41.423Z</time></trkpt><trkpt lat="42.9971557" lon="12.661974"><ele>208.0</ele><time>2026-04-05T16:41:42.424Z</time></trkpt><trkpt lat="42.9974045" lon="12.6619225"><ele>209.0</ele><time>2026-04-05T16:41:43.424Z</time></trkpt><trkpt lat="42.9976501" lon="12.6618708"><ele>210.0</ele><time>2026-04-05T16:41:44.424Z</time></trkpt><trkpt lat="42.9979002" lon="12.6618068"><ele>210.0</ele><time>2026-04-05T16:41:45.423Z</time></trkpt><trkpt lat="42.9981481" lon="12.6617412"><ele>210.0</ele><time>2026-04-05T16:41:46.424Z</time></trkpt><trkpt lat="42.9983881" lon="12.661686"><ele>209.5</ele><time>2026-04-05T16:41:47.424Z</time></trkpt><trkpt lat="42.9986297" lon="12.6616382"><ele>209.0</ele><time>2026-04-05T16:41:48.424Z</time></trkpt><trkpt lat="42.9988788" lon="12.6615801"><ele>209.0</ele><time>2026-04-05T16:41:49.424Z</time></trkpt><trkpt lat="42.9991199" lon="12.6615266"><ele>209.0</ele><time>2026-04-05T16:41:50.424Z</time></trkpt><trkpt lat="42.9993688" lon="12.6614751"><ele>209.0</ele><time>2026-04-05T16:41:51.423Z</time></trkpt><trkpt lat="42.9996092" lon="12.6614133"><ele>209.0</ele><time>2026-04-05T16:41:52.424Z</time></trkpt><trkpt lat="42.9998692" lon="12.6613609"><ele>209.0</ele><time>2026-04-05T16:41:53.424Z</time></trkpt><trkpt lat="43.0001182" lon="12.6613011"><ele>209.0</ele><time>2026-04-05T16:41:54.424Z</time></trkpt><trkpt lat="43.0003658" lon="12.6612354"><ele>209.0</ele><time>2026-04-05T16:41:55.423Z</time></trkpt><trkpt lat="43.0006175" lon="12.6611734"><ele>209.0</ele><time>2026-04-05T16:41:56.424Z</time></trkpt><trkpt lat="43.0008764" lon="12.6611187"><ele>208.5</ele><time>2026-04-05T16:41:57.424Z</time></trkpt><trkpt lat="43.0011363" lon="12.6610617"><ele>208.0</ele><time>2026-04-05T16:41:58.423Z</time></trkpt><trkpt lat="43.0013851" lon="12.6610058"><ele>208.0</ele><time>2026-04-05T16:41:59.424Z</time></trkpt><trkpt lat="43.0016349" lon="12.6609434"><ele>208.0</ele><time>2026-04-05T16:42:00.424Z</time></trkpt><trkpt lat="43.0018794" lon="12.6608838"><ele>206.5</ele><time>2026-04-05T16:42:01.423Z</time></trkpt><trkpt lat="43.0021322" lon="12.6608256"><ele>205.0</ele><time>2026-04-05T16:42:02.423Z</time></trkpt><trkpt lat="43.0023789" lon="12.6607556"><ele>205.0</ele><time>2026-04-05T16:42:03.423Z</time></trkpt><trkpt lat="43.0026251" lon="12.6606922"><ele>205.0</ele><time>2026-04-05T16:42:04.423Z</time></trkpt><trkpt lat="43.0028767" lon="12.6606182"><ele>205.0</ele><time>2026-04-05T16:42:05.423Z</time></trkpt><trkpt lat="43.0031254" lon="12.6605386"><ele>205.0</ele><time>2026-04-05T16:42:06.424Z</time></trkpt><trkpt lat="43.0033717" lon="12.6604565"><ele>206.5</ele><time>2026-04-05T16:42:07.424Z</time></trkpt><trkpt lat="43.0036157" lon="12.660374"><ele>208.0</ele><time>2026-04-05T16:42:08.424Z</time></trkpt><trkpt lat="43.0038605" lon="12.6602777"><ele>206.0</ele><time>2026-04-05T16:42:09.424Z</time></trkpt><trkpt lat="43.004106" lon="12.6601712"><ele>204.0</ele><time>2026-04-05T16:42:10.423Z</time></trkpt><trkpt lat="43.0043469" lon="12.6600549"><ele>204.0</ele><time>2026-04-05T16:42:11.423Z</time></trkpt><trkpt lat="43.0045836" lon="12.6599237"><ele>204.0</ele><time>2026-04-05T16:42:12.424Z</time></trkpt><trkpt lat="43.0048233" lon="12.6597976"><ele>207.0</ele><time>2026-04-05T16:42:13.424Z</time></trkpt><trkpt lat="43.0050557" lon="12.6596567"><ele>210.0</ele><time>2026-04-05T16:42:14.424Z</time></trkpt><trkpt lat="43.0052877" lon="12.6595072"><ele>208.0</ele><time>2026-04-05T16:42:15.424Z</time></trkpt><trkpt lat="43.0055202" lon="12.6593461"><ele>206.0</ele><time>2026-04-05T16:42:16.424Z</time></trkpt><trkpt lat="43.0057446" lon="12.6591747"><ele>207.0</ele><time>2026-04-05T16:42:17.424Z</time></trkpt><trkpt lat="43.0059696" lon="12.6589958"><ele>208.0</ele><time>2026-04-05T16:42:18.423Z</time></trkpt><trkpt lat="43.0061918" lon="12.6588244"><ele>208.0</ele><time>2026-04-05T16:42:19.424Z</time></trkpt><trkpt lat="43.0064104" lon="12.6586439"><ele>208.0</ele><time>2026-04-05T16:42:20.424Z</time></trkpt><trkpt lat="43.0066355" lon="12.6584562"><ele>207.5</ele><time>2026-04-05T16:42:21.423Z</time></trkpt><trkpt lat="43.0068607" lon="12.6582663"><ele>207.0</ele><time>2026-04-05T16:42:22.424Z</time></trkpt><trkpt lat="43.0070634" lon="12.6580894"><ele>207.0</ele><time>2026-04-05T16:42:23.424Z</time></trkpt><trkpt lat="43.0072898" lon="12.6579001"><ele>207.0</ele><time>2026-04-05T16:42:24.424Z</time></trkpt><trkpt lat="43.0075188" lon="12.657705"><ele>205.0</ele><time>2026-04-05T16:42:25.424Z</time></trkpt><trkpt lat="43.007742" lon="12.6575037"><ele>203.0</ele><time>2026-04-05T16:42:26.424Z</time></trkpt><trkpt lat="43.0079674" lon="12.6573101"><ele>203.0</ele><time>2026-04-05T16:42:27.424Z</time></trkpt><trkpt lat="43.0081805" lon="12.6571056"><ele>203.0</ele><time>2026-04-05T16:42:28.424Z</time></trkpt><trkpt lat="43.0084043" lon="12.6569144"><ele>203.0</ele><time>2026-04-05T16:42:29.424Z</time></trkpt><trkpt lat="43.0086252" lon="12.6567155"><ele>203.0</ele><time>2026-04-05T16:42:30.423Z</time></trkpt><trkpt lat="43.008849" lon="12.6565146"><ele>203.0</ele><time>2026-04-05T16:42:31.424Z</time></trkpt><trkpt lat="43.0090704" lon="12.6563215"><ele>203.0</ele><time>2026-04-05T16:42:32.424Z</time></trkpt><trkpt lat="43.00929" lon="12.6561288"><ele>202.5</ele><time>2026-04-05T16:42:33.423Z</time></trkpt><trkpt lat="43.0095143" lon="12.6559439"><ele>202.0</ele><time>2026-04-05T16:42:34.423Z</time></trkpt><trkpt lat="43.0097413" lon="12.6557537"><ele>202.0</ele><time>2026-04-05T16:42:35.424Z</time></trkpt><trkpt lat="43.0099637" lon="12.6555595"><ele>202.0</ele><time>2026-04-05T16:42:36.424Z</time></trkpt><trkpt lat="43.0101848" lon="12.6553645"><ele>201.5</ele><time>2026-04-05T16:42:37.424Z</time></trkpt><trkpt lat="43.0104053" lon="12.6551673"><ele>201.0</ele><time>2026-04-05T16:42:38.424Z</time></trkpt><trkpt lat="43.0106219" lon="12.654962"><ele>201.0</ele><time>2026-04-05T16:42:39.424Z</time></trkpt><trkpt lat="43.0108372" lon="12.6547588"><ele>201.0</ele><time>2026-04-05T16:42:40.424Z</time></trkpt><trkpt lat="43.0110631" lon="12.6545683"><ele>201.0</ele><time>2026-04-05T16:42:41.424Z</time></trkpt><trkpt lat="43.0112825" lon="12.6543764"><ele>201.0</ele><time>2026-04-05T16:42:42.424Z</time></trkpt><trkpt lat="43.0115031" lon="12.654177"><ele>201.5</ele><time>2026-04-05T16:42:43.423Z</time></trkpt><trkpt lat="43.0117217" lon="12.6539786"><ele>202.0</ele><time>2026-04-05T16:42:44.424Z</time></trkpt><trkpt lat="43.011946" lon="12.6537801"><ele>202.0</ele><time>2026-04-05T16:42:45.424Z</time></trkpt><trkpt lat="43.0121598" lon="12.6535837"><ele>202.0</ele><time>2026-04-05T16:42:46.424Z</time></trkpt><trkpt lat="43.0123792" lon="12.6533916"><ele>201.5</ele><time>2026-04-05T16:42:47.424Z</time></trkpt><trkpt lat="43.0125986" lon="12.6531978"><ele>201.0</ele><time>2026-04-05T16:42:48.423Z</time></trkpt><trkpt lat="43.0128164" lon="12.6530009"><ele>201.0</ele><time>2026-04-05T16:42:49.424Z</time></trkpt><trkpt lat="43.0130257" lon="12.6527961"><ele>201.0</ele><time>2026-04-05T16:42:50.423Z</time></trkpt><trkpt lat="43.0132355" lon="12.6525862"><ele>201.0</ele><time>2026-04-05T16:42:51.423Z</time></trkpt><trkpt lat="43.013447" lon="12.652387"><ele>201.0</ele><time>2026-04-05T16:42:52.424Z</time></trkpt><trkpt lat="43.0136482" lon="12.652167"><ele>200.5</ele><time>2026-04-05T16:42:53.424Z</time></trkpt><trkpt lat="43.0138438" lon="12.651937"><ele>200.0</ele><time>2026-04-05T16:42:54.423Z</time></trkpt><trkpt lat="43.0140408" lon="12.651697"><ele>201.5</ele><time>2026-04-05T16:42:55.424Z</time></trkpt><trkpt lat="43.0142401" lon="12.6514679"><ele>203.0</ele><time>2026-04-05T16:42:56.423Z</time></trkpt><trkpt lat="43.0144358" lon="12.6512262"><ele>202.5</ele><time>2026-04-05T16:42:57.424Z</time></trkpt><trkpt lat="43.014624" lon="12.6509823"><ele>202.0</ele><time>2026-04-05T16:42:58.423Z</time></trkpt><trkpt lat="43.01481" lon="12.6507358"><ele>203.0</ele><time>2026-04-05T16:42:59.424Z</time></trkpt><trkpt lat="43.0149914" lon="12.650481"><ele>204.0</ele><time>2026-04-05T16:43:00.424Z</time></trkpt><trkpt lat="43.0151789" lon="12.6502323"><ele>204.0</ele><time>2026-04-05T16:43:01.424Z</time></trkpt><trkpt lat="43.0153594" lon="12.6499853"><ele>204.0</ele><time>2026-04-05T16:43:02.423Z</time></trkpt><trkpt lat="43.0155438" lon="12.6497293"><ele>204.0</ele><time>2026-04-05T16:43:03.424Z</time></trkpt><trkpt lat="43.0157247" lon="12.6494776"><ele>204.0</ele><time>2026-04-05T16:43:04.424Z</time></trkpt><trkpt lat="43.0159049" lon="12.6492251"><ele>205.5</ele><time>2026-04-05T16:43:05.423Z</time></trkpt><trkpt lat="43.016083" lon="12.6489723"><ele>207.0</ele><time>2026-04-05T16:43:06.424Z</time></trkpt><trkpt lat="43.0162659" lon="12.6487171"><ele>207.0</ele><time>2026-04-05T16:43:07.424Z</time></trkpt><trkpt lat="43.0164472" lon="12.6484664"><ele>207.0</ele><time>2026-04-05T16:43:08.423Z</time></trkpt><trkpt lat="43.0166313" lon="12.6482057"><ele>207.0</ele><time>2026-04-05T16:43:09.423Z</time></trkpt><trkpt lat="43.0168088" lon="12.6479535"><ele>207.0</ele><time>2026-04-05T16:43:10.423Z</time></trkpt><trkpt lat="43.0169872" lon="12.6476984"><ele>207.0</ele><time>2026-04-05T16:43:11.424Z</time></trkpt><trkpt lat="43.0171661" lon="12.6474366"><ele>207.0</ele><time>2026-04-05T16:43:12.424Z</time></trkpt><trkpt lat="43.0173499" lon="12.6471865"><ele>208.0</ele><time>2026-04-05T16:43:13.423Z</time></trkpt><trkpt lat="43.0175302" lon="12.6469301"><ele>209.0</ele><time>2026-04-05T16:43:14.424Z</time></trkpt><trkpt lat="43.017714" lon="12.6466743"><ele>209.0</ele><time>2026-04-05T16:43:15.423Z</time></trkpt><trkpt lat="43.0178955" lon="12.6464188"><ele>209.0</ele><time>2026-04-05T16:43:16.424Z</time></trkpt><trkpt lat="43.0180779" lon="12.6461593"><ele>208.5</ele><time>2026-04-05T16:43:17.424Z</time></trkpt><trkpt lat="43.0182632" lon="12.6459018"><ele>208.0</ele><time>2026-04-05T16:43:18.423Z</time></trkpt><trkpt lat="43.0184507" lon="12.6456564"><ele>208.5</ele><time>2026-04-05T16:43:19.424Z</time></trkpt><trkpt lat="43.0186382" lon="12.6454177"><ele>209.0</ele><time>2026-04-05T16:43:20.424Z</time></trkpt><trkpt lat="43.018821" lon="12.6451637"><ele>209.0</ele><time>2026-04-05T16:43:21.424Z</time></trkpt><trkpt lat="43.0190068" lon="12.6449237"><ele>209.0</ele><time>2026-04-05T16:43:22.424Z</time></trkpt><trkpt lat="43.0191941" lon="12.6446844"><ele>209.0</ele><time>2026-04-05T16:43:23.423Z</time></trkpt><trkpt lat="43.0193832" lon="12.644454"><ele>209.0</ele><time>2026-04-05T16:43:24.424Z</time></trkpt><trkpt lat="43.0195627" lon="12.6442115"><ele>209.0</ele><time>2026-04-05T16:43:25.423Z</time></trkpt><trkpt lat="43.0197442" lon="12.6439706"><ele>209.0</ele><time>2026-04-05T16:43:26.424Z</time></trkpt><trkpt lat="43.0199241" lon="12.6437257"><ele>210.0</ele><time>2026-04-05T16:43:27.423Z</time></trkpt><trkpt lat="43.0201067" lon="12.6434769"><ele>211.0</ele><time>2026-04-05T16:43:28.424Z</time></trkpt><trkpt lat="43.0202873" lon="12.6432313"><ele>211.0</ele><time>2026-04-05T16:43:29.424Z</time></trkpt><trkpt lat="43.0204669" lon="12.6429821"><ele>211.0</ele><time>2026-04-05T16:43:30.424Z</time></trkpt><trkpt lat="43.0206466" lon="12.6427318"><ele>210.5</ele><time>2026-04-05T16:43:31.423Z</time></trkpt><trkpt lat="43.020829" lon="12.6424827"><ele>210.0</ele><time>2026-04-05T16:43:32.424Z</time></trkpt><trkpt lat="43.0210142" lon="12.6422354"><ele>210.0</ele><time>2026-04-05T16:43:33.424Z</time></trkpt><trkpt lat="43.0212082" lon="12.6419961"><ele>210.0</ele><time>2026-04-05T16:43:34.423Z</time></trkpt><trkpt lat="43.0214086" lon="12.6417609"><ele>209.5</ele><time>2026-04-05T16:43:35.423Z</time></trkpt><trkpt lat="43.0216086" lon="12.6415338"><ele>209.0</ele><time>2026-04-05T16:43:36.424Z</time></trkpt><trkpt lat="43.0218076" lon="12.6413163"><ele>206.5</ele><time>2026-04-05T16:43:37.424Z</time></trkpt><trkpt lat="43.0220218" lon="12.6411124"><ele>204.0</ele><time>2026-04-05T16:43:38.423Z</time></trkpt><trkpt lat="43.0222293" lon="12.6409016"><ele>204.0</ele><time>2026-04-05T16:43:39.423Z</time></trkpt><trkpt lat="43.0224419" lon="12.6407092"><ele>204.0</ele><time>2026-04-05T16:43:40.424Z</time></trkpt><trkpt lat="43.0226535" lon="12.6405129"><ele>204.5</ele><time>2026-04-05T16:43:41.423Z</time></trkpt><trkpt lat="43.022864" lon="12.6403178"><ele>205.0</ele><time>2026-04-05T16:43:42.423Z</time></trkpt><trkpt lat="43.023062" lon="12.6401359"><ele>204.33333333333331</ele><time>2026-04-05T16:43:43.424Z</time></trkpt><trkpt lat="43.0232493" lon="12.6399704"><ele>203.66666666666669</ele><time>2026-04-05T16:43:44.424Z</time></trkpt><trkpt lat="43.0234255" lon="12.6398143"><ele>203.0</ele><time>2026-04-05T16:43:45.424Z</time></trkpt><trkpt lat="43.0235996" lon="12.6396538"><ele>202.66666666666669</ele><time>2026-04-05T16:43:46.424Z</time></trkpt><trkpt lat="43.0237803" lon="12.6394883"><ele>202.33333333333331</ele><time>2026-04-05T16:43:47.423Z</time></trkpt><trkpt lat="43.0239619" lon="12.6393096"><ele>202.0</ele><time>2026-04-05T16:43:48.423Z</time></trkpt><trkpt lat="43.0241518" lon="12.6391157"><ele>202.0</ele><time>2026-04-05T16:43:49.423Z</time></trkpt><trkpt lat="43.0243521" lon="12.6389353"><ele>202.0</ele><time>2026-04-05T16:43:50.423Z</time></trkpt><trkpt lat="43.0245575" lon="12.6387382"><ele>200.0</ele><time>2026-04-05T16:43:51.424Z</time></trkpt><trkpt lat="43.0247651" lon="12.6385414"><ele>198.0</ele><time>2026-04-05T16:43:52.423Z</time></trkpt><trkpt lat="43.0249746" lon="12.6383474"><ele>199.0</ele><time>2026-04-05T16:43:53.424Z</time></trkpt><trkpt lat="43.0251844" lon="12.6381514"><ele>200.0</ele><time>2026-04-05T16:43:54.424Z</time></trkpt><trkpt lat="43.0253974" lon="12.6379617"><ele>197.5</ele><time>2026-04-05T16:43:55.424Z</time></trkpt><trkpt lat="43.0256019" lon="12.6377599"><ele>195.0</ele><time>2026-04-05T16:43:56.424Z</time></trkpt><trkpt lat="43.0258109" lon="12.6375626"><ele>196.0</ele><time>2026-04-05T16:43:57.423Z</time></trkpt><trkpt lat="43.0260231" lon="12.6373695"><ele>197.0</ele><time>2026-04-05T16:43:58.424Z</time></trkpt><trkpt lat="43.0262352" lon="12.6371747"><ele>197.0</ele><time>2026-04-05T16:43:59.424Z</time></trkpt><trkpt lat="43.0264552" lon="12.6369849"><ele>197.0</ele><time>2026-04-05T16:44:00.424Z</time></trkpt><trkpt lat="43.0266606" lon="12.636801"><ele>198.5</ele><time>2026-04-05T16:44:01.424Z</time></trkpt><trkpt lat="43.0268636" lon="12.6366103"><ele>200.0</ele><time>2026-04-05T16:44:02.424Z</time></trkpt><trkpt lat="43.0270658" lon="12.6364139"><ele>200.0</ele><time>2026-04-05T16:44:03.424Z</time></trkpt><trkpt lat="43.0272693" lon="12.6362233"><ele>200.0</ele><time>2026-04-05T16:44:04.423Z</time></trkpt><trkpt lat="43.0274779" lon="12.6360356"><ele>199.5</ele><time>2026-04-05T16:44:05.424Z</time></trkpt><trkpt lat="43.0276835" lon="12.6358506"><ele>199.0</ele><time>2026-04-05T16:44:06.423Z</time></trkpt><trkpt lat="43.0278815" lon="12.6356545"><ele>199.0</ele><time>2026-04-05T16:44:07.424Z</time></trkpt><trkpt lat="43.0280829" lon="12.6354652"><ele>199.0</ele><time>2026-04-05T16:44:08.423Z</time></trkpt><trkpt lat="43.0282766" lon="12.6352732"><ele>200.0</ele><time>2026-04-05T16:44:09.423Z</time></trkpt><trkpt lat="43.0284764" lon="12.6350953"><ele>201.0</ele><time>2026-04-05T16:44:10.424Z</time></trkpt><trkpt lat="43.0286729" lon="12.6349075"><ele>201.0</ele><time>2026-04-05T16:44:11.424Z</time></trkpt><trkpt lat="43.0288688" lon="12.6347212"><ele>201.0</ele><time>2026-04-05T16:44:12.424Z</time></trkpt><trkpt lat="43.0290662" lon="12.6345424"><ele>202.0</ele><time>2026-04-05T16:44:13.424Z</time></trkpt><trkpt lat="43.0292674" lon="12.6343577"><ele>203.0</ele><time>2026-04-05T16:44:14.423Z</time></trkpt><trkpt lat="43.0294648" lon="12.6341742"><ele>203.0</ele><time>2026-04-05T16:44:15.424Z</time></trkpt><trkpt lat="43.0296636" lon="12.6339999"><ele>203.0</ele><time>2026-04-05T16:44:16.423Z</time></trkpt><trkpt lat="43.0298668" lon="12.6338354"><ele>203.0</ele><time>2026-04-05T16:44:17.424Z</time></trkpt><trkpt lat="43.0300685" lon="12.6336534"><ele>203.0</ele><time>2026-04-05T16:44:18.424Z</time></trkpt><trkpt lat="43.0302608" lon="12.6334862"><ele>203.0</ele><time>2026-04-05T16:44:19.424Z</time></trkpt><trkpt lat="43.0304554" lon="12.6333051"><ele>203.0</ele><time>2026-04-05T16:44:20.424Z</time></trkpt><trkpt lat="43.0306532" lon="12.6331138"><ele>203.5</ele><time>2026-04-05T16:44:21.424Z</time></trkpt><trkpt lat="43.0308479" lon="12.6329352"><ele>204.0</ele><time>2026-04-05T16:44:22.424Z</time></trkpt><trkpt lat="43.0310419" lon="12.6327583"><ele>204.0</ele><time>2026-04-05T16:44:23.424Z</time></trkpt><trkpt lat="43.0312365" lon="12.6325791"><ele>204.0</ele><time>2026-04-05T16:44:24.424Z</time></trkpt><trkpt lat="43.03143" lon="12.6324008"><ele>204.0</ele><time>2026-04-05T16:44:25.424Z</time></trkpt><trkpt lat="43.0316233" lon="12.6322229"><ele>204.0</ele><time>2026-04-05T16:44:26.424Z</time></trkpt><trkpt lat="43.0318139" lon="12.6320445"><ele>203.5</ele><time>2026-04-05T16:44:27.424Z</time></trkpt><trkpt lat="43.0320093" lon="12.6318658"><ele>203.0</ele><time>2026-04-05T16:44:28.424Z</time></trkpt><trkpt lat="43.0322054" lon="12.6316927"><ele>203.0</ele><time>2026-04-05T16:44:29.424Z</time></trkpt><trkpt lat="43.0324012" lon="12.6315162"><ele>203.0</ele><time>2026-04-05T16:44:30.424Z</time></trkpt><trkpt lat="43.032597" lon="12.6313343"><ele>203.5</ele><time>2026-04-05T16:44:31.424Z</time></trkpt><trkpt lat="43.0327962" lon="12.6311572"><ele>204.0</ele><time>2026-04-05T16:44:32.423Z</time></trkpt><trkpt lat="43.0329957" lon="12.6309764"><ele>204.0</ele><time>2026-04-05T16:44:33.424Z</time></trkpt><trkpt lat="43.0331967" lon="12.6307929"><ele>204.0</ele><time>2026-04-05T16:44:34.424Z</time></trkpt><trkpt lat="43.0333956" lon="12.6306098"><ele>205.0</ele><time>2026-04-05T16:44:35.424Z</time></trkpt><trkpt lat="43.0335968" lon="12.6304239"><ele>206.0</ele><time>2026-04-05T16:44:36.423Z</time></trkpt><trkpt lat="43.0337992" lon="12.630234"><ele>206.0</ele><time>2026-04-05T16:44:37.423Z</time></trkpt><trkpt lat="43.0340017" lon="12.6300459"><ele>206.0</ele><time>2026-04-05T16:44:38.424Z</time></trkpt><trkpt lat="43.0342029" lon="12.6298551"><ele>207.0</ele><time>2026-04-05T16:44:39.424Z</time></trkpt><trkpt lat="43.0344007" lon="12.6296602"><ele>208.0</ele><time>2026-04-05T16:44:40.424Z</time></trkpt><trkpt lat="43.0345972" lon="12.6294568"><ele>208.0</ele><time>2026-04-05T16:44:41.424Z</time></trkpt><trkpt lat="43.0347826" lon="12.6292407"><ele>208.0</ele><time>2026-04-05T16:44:42.424Z</time></trkpt><trkpt lat="43.0349647" lon="12.6290117"><ele>208.0</ele><time>2026-04-05T16:44:43.424Z</time></trkpt><trkpt lat="43.0351389" lon="12.6287745"><ele>208.0</ele><time>2026-04-05T16:44:44.424Z</time></trkpt><trkpt lat="43.0353043" lon="12.6285216"><ele>208.0</ele><time>2026-04-05T16:44:45.424Z</time></trkpt><trkpt lat="43.0354643" lon="12.6282582"><ele>208.0</ele><time>2026-04-05T16:44:46.423Z</time></trkpt><trkpt lat="43.035617" lon="12.6279993"><ele>208.0</ele><time>2026-04-05T16:44:47.424Z</time></trkpt><trkpt lat="43.0357579" lon="12.6277317"><ele>208.0</ele><time>2026-04-05T16:44:48.424Z</time></trkpt><trkpt lat="43.0358898" lon="12.6274473"><ele>209.0</ele><time>2026-04-05T16:44:49.424Z</time></trkpt><trkpt lat="43.036025" lon="12.6271622"><ele>210.0</ele><time>2026-04-05T16:44:50.423Z</time></trkpt><trkpt lat="43.0361487" lon="12.626875"><ele>210.0</ele><time>2026-04-05T16:44:51.424Z</time></trkpt><trkpt lat="43.0362838" lon="12.6265889"><ele>210.0</ele><time>2026-04-05T16:44:52.424Z</time></trkpt><trkpt lat="43.0364171" lon="12.6263042"><ele>211.0</ele><time>2026-04-05T16:44:53.423Z</time></trkpt><trkpt lat="43.036556" lon="12.6260141"><ele>212.0</ele><time>2026-04-05T16:44:54.424Z</time></trkpt><trkpt lat="43.0366907" lon="12.6257348"><ele>212.0</ele><time>2026-04-05T16:44:55.424Z</time></trkpt><trkpt lat="43.0368266" lon="12.6254414"><ele>212.0</ele><time>2026-04-05T16:44:56.423Z</time></trkpt><trkpt lat="43.0369619" lon="12.6251467"><ele>210.0</ele><time>2026-04-05T16:44:57.423Z</time></trkpt><trkpt lat="43.0370967" lon="12.6248581"><ele>208.0</ele><time>2026-04-05T16:44:58.424Z</time></trkpt><trkpt lat="43.0372308" lon="12.6245635"><ele>207.5</ele><time>2026-04-05T16:44:59.424Z</time></trkpt><trkpt lat="43.0373731" lon="12.6242635"><ele>207.0</ele><time>2026-04-05T16:45:00.424Z</time></trkpt><trkpt lat="43.0375159" lon="12.6239581"><ele>208.0</ele><time>2026-04-05T16:45:01.424Z</time></trkpt><trkpt lat="43.0376486" lon="12.6236539"><ele>209.0</ele><time>2026-04-05T16:45:02.423Z</time></trkpt><trkpt lat="43.0377855" lon="12.6233527"><ele>209.0</ele><time>2026-04-05T16:45:03.424Z</time></trkpt><trkpt lat="43.0379294" lon="12.6230509"><ele>209.0</ele><time>2026-04-05T16:45:04.424Z</time></trkpt><trkpt lat="43.0380698" lon="12.622752"><ele>209.5</ele><time>2026-04-05T16:45:05.424Z</time></trkpt><trkpt lat="43.0382131" lon="12.6224487"><ele>210.0</ele><time>2026-04-05T16:45:06.424Z</time></trkpt><trkpt lat="43.0383588" lon="12.6221483"><ele>208.5</ele><time>2026-04-05T16:45:07.424Z</time></trkpt><trkpt lat="43.0385047" lon="12.6218437"><ele>207.0</ele><time>2026-04-05T16:45:08.424Z</time></trkpt><trkpt lat="43.0386521" lon="12.6215409"><ele>207.0</ele><time>2026-04-05T16:45:09.424Z</time></trkpt><trkpt lat="43.0387979" lon="12.6212366"><ele>207.0</ele><time>2026-04-05T16:45:10.423Z</time></trkpt><trkpt lat="43.0389432" lon="12.6209306"><ele>206.5</ele><time>2026-04-05T16:45:11.424Z</time></trkpt><trkpt lat="43.0390861" lon="12.6206288"><ele>206.0</ele><time>2026-04-05T16:45:12.424Z</time></trkpt><trkpt lat="43.0392298" lon="12.6203222"><ele>206.5</ele><time>2026-04-05T16:45:13.423Z</time></trkpt><trkpt lat="43.0393726" lon="12.6200166"><ele>207.0</ele><time>2026-04-05T16:45:14.424Z</time></trkpt><trkpt lat="43.0395155" lon="12.6197098"><ele>205.5</ele><time>2026-04-05T16:45:15.423Z</time></trkpt><trkpt lat="43.0396569" lon="12.6194027"><ele>204.0</ele><time>2026-04-05T16:45:16.424Z</time></trkpt><trkpt lat="43.0398" lon="12.619094"><ele>204.0</ele><time>2026-04-05T16:45:17.424Z</time></trkpt><trkpt lat="43.0399441" lon="12.6187933"><ele>204.0</ele><time>2026-04-05T16:45:18.423Z</time></trkpt><trkpt lat="43.0400886" lon="12.6184927"><ele>205.5</ele><time>2026-04-05T16:45:19.423Z</time></trkpt><trkpt lat="43.0402397" lon="12.618191"><ele>207.0</ele><time>2026-04-05T16:45:20.424Z</time></trkpt><trkpt lat="43.0403911" lon="12.6178904"><ele>206.0</ele><time>2026-04-05T16:45:21.424Z</time></trkpt><trkpt lat="43.0405365" lon="12.6175932"><ele>205.0</ele><time>2026-04-05T16:45:22.424Z</time></trkpt><trkpt lat="43.0406841" lon="12.6172861"><ele>205.0</ele><time>2026-04-05T16:45:23.424Z</time></trkpt><trkpt lat="43.0408249" lon="12.6169853"><ele>205.0</ele><time>2026-04-05T16:45:24.423Z</time></trkpt><trkpt lat="43.0409723" lon="12.6166788"><ele>205.0</ele><time>2026-04-05T16:45:25.424Z</time></trkpt><trkpt lat="43.0411208" lon="12.6163807"><ele>205.0</ele><time>2026-04-05T16:45:26.423Z</time></trkpt><trkpt lat="43.0412653" lon="12.616086"><ele>205.5</ele><time>2026-04-05T16:45:27.423Z</time></trkpt><trkpt lat="43.0414079" lon="12.615787"><ele>206.0</ele><time>2026-04-05T16:45:28.423Z</time></trkpt><trkpt lat="43.0415546" lon="12.6154968"><ele>205.5</ele><time>2026-04-05T16:45:29.423Z</time></trkpt><trkpt lat="43.0416901" lon="12.6151991"><ele>205.0</ele><time>2026-04-05T16:45:30.424Z</time></trkpt><trkpt lat="43.0418315" lon="12.6148995"><ele>205.0</ele><time>2026-04-05T16:45:31.424Z</time></trkpt><trkpt lat="43.0419745" lon="12.6145972"><ele>205.0</ele><time>2026-04-05T16:45:32.424Z</time></trkpt><trkpt lat="43.0421175" lon="12.614292"><ele>204.5</ele><time>2026-04-05T16:45:33.424Z</time></trkpt><trkpt lat="43.0422618" lon="12.6139948"><ele>204.0</ele><time>2026-04-05T16:45:34.423Z</time></trkpt><trkpt lat="43.0424098" lon="12.6136953"><ele>205.5</ele><time>2026-04-05T16:45:35.423Z</time></trkpt><trkpt lat="43.0425418" lon="12.6133822"><ele>207.0</ele><time>2026-04-05T16:45:36.424Z</time></trkpt><trkpt lat="43.0426884" lon="12.6130813"><ele>206.5</ele><time>2026-04-05T16:45:37.424Z</time></trkpt><trkpt lat="43.0428341" lon="12.6127773"><ele>206.0</ele><time>2026-04-05T16:45:38.423Z</time></trkpt><trkpt lat="43.0429777" lon="12.6124689"><ele>206.0</ele><time>2026-04-05T16:45:39.423Z</time></trkpt><trkpt lat="43.0431329" lon="12.6121678"><ele>206.0</ele><time>2026-04-05T16:45:40.423Z</time></trkpt><trkpt lat="43.0432855" lon="12.6118714"><ele>208.0</ele><time>2026-04-05T16:45:41.423Z</time></trkpt><trkpt lat="43.0434332" lon="12.6115683"><ele>210.0</ele><time>2026-04-05T16:45:42.424Z</time></trkpt><trkpt lat="43.0435824" lon="12.6112742"><ele>210.0</ele><time>2026-04-05T16:45:43.424Z</time></trkpt><trkpt lat="43.0437252" lon="12.6109693"><ele>210.0</ele><time>2026-04-05T16:45:44.424Z</time></trkpt><trkpt lat="43.0438701" lon="12.6106591"><ele>210.0</ele><time>2026-04-05T16:45:45.424Z</time></trkpt><trkpt lat="43.0440185" lon="12.610364"><ele>210.0</ele><time>2026-04-05T16:45:46.424Z</time></trkpt><trkpt lat="43.0441637" lon="12.6100609"><ele>210.0</ele><time>2026-04-05T16:45:47.424Z</time></trkpt><trkpt lat="43.0443087" lon="12.6097455"><ele>210.0</ele><time>2026-04-05T16:45:48.424Z</time></trkpt><trkpt lat="43.0444516" lon="12.6094334"><ele>210.5</ele><time>2026-04-05T16:45:49.423Z</time></trkpt><trkpt lat="43.0445919" lon="12.609128"><ele>211.0</ele><time>2026-04-05T16:45:50.424Z</time></trkpt><trkpt lat="43.0447328" lon="12.6088253"><ele>211.0</ele><time>2026-04-05T16:45:51.424Z</time></trkpt><trkpt lat="43.0448766" lon="12.6085191"><ele>211.0</ele><time>2026-04-05T16:45:52.423Z</time></trkpt><trkpt lat="43.0450156" lon="12.6082276"><ele>211.5</ele><time>2026-04-05T16:45:53.423Z</time></trkpt><trkpt lat="43.0451594" lon="12.6079323"><ele>212.0</ele><time>2026-04-05T16:45:54.424Z</time></trkpt><trkpt lat="43.045297" lon="12.6076323"><ele>212.0</ele><time>2026-04-05T16:45:55.424Z</time></trkpt><trkpt lat="43.0454403" lon="12.6073354"><ele>212.0</ele><time>2026-04-05T16:45:56.424Z</time></trkpt><trkpt lat="43.0455728" lon="12.6070419"><ele>212.0</ele><time>2026-04-05T16:45:57.423Z</time></trkpt><trkpt lat="43.0457042" lon="12.6067505"><ele>212.0</ele><time>2026-04-05T16:45:58.423Z</time></trkpt><trkpt lat="43.0458427" lon="12.6064565"><ele>212.5</ele><time>2026-04-05T16:45:59.423Z</time></trkpt><trkpt lat="43.0459808" lon="12.6061579"><ele>213.0</ele><time>2026-04-05T16:46:00.424Z</time></trkpt><trkpt lat="43.0461165" lon="12.6058589"><ele>213.0</ele><time>2026-04-05T16:46:01.424Z</time></trkpt><trkpt lat="43.0462488" lon="12.6055606"><ele>213.0</ele><time>2026-04-05T16:46:02.424Z</time></trkpt><trkpt lat="43.0463845" lon="12.6052677"><ele>213.5</ele><time>2026-04-05T16:46:03.424Z</time></trkpt><trkpt lat="43.0465205" lon="12.6049728"><ele>214.0</ele><time>2026-04-05T16:46:04.424Z</time></trkpt><trkpt lat="43.0466587" lon="12.6046824"><ele>214.0</ele><time>2026-04-05T16:46:05.424Z</time></trkpt><trkpt lat="43.046787" lon="12.6043895"><ele>214.0</ele><time>2026-04-05T16:46:06.424Z</time></trkpt><trkpt lat="43.0469265" lon="12.6040959"><ele>214.0</ele><time>2026-04-05T16:46:07.424Z</time></trkpt><trkpt lat="43.0470702" lon="12.6038093"><ele>214.0</ele><time>2026-04-05T16:46:08.424Z</time></trkpt><trkpt lat="43.04721" lon="12.603519"><ele>213.0</ele><time>2026-04-05T16:46:09.424Z</time></trkpt><trkpt lat="43.0473467" lon="12.6032345"><ele>212.0</ele><time>2026-04-05T16:46:10.424Z</time></trkpt><trkpt lat="43.0474863" lon="12.6029403"><ele>211.5</ele><time>2026-04-05T16:46:11.424Z</time></trkpt><trkpt lat="43.0476205" lon="12.6026574"><ele>211.0</ele><time>2026-04-05T16:46:12.424Z</time></trkpt><trkpt lat="43.0477509" lon="12.6023707"><ele>211.0</ele><time>2026-04-05T16:46:13.423Z</time></trkpt><trkpt lat="43.0478775" lon="12.6020781"><ele>211.0</ele><time>2026-04-05T16:46:14.424Z</time></trkpt><trkpt lat="43.0479885" lon="12.6017828"><ele>212.0</ele><time>2026-04-05T16:46:15.424Z</time></trkpt><trkpt lat="43.0480991" lon="12.6014802"><ele>213.0</ele><time>2026-04-05T16:46:16.424Z</time></trkpt><trkpt lat="43.0481918" lon="12.601166"><ele>213.0</ele><time>2026-04-05T16:46:17.424Z</time></trkpt><trkpt lat="43.0482903" lon="12.6008573"><ele>213.0</ele><time>2026-04-05T16:46:18.424Z</time></trkpt><trkpt lat="43.0483813" lon="12.6005473"><ele>215.0</ele><time>2026-04-05T16:46:19.424Z</time></trkpt><trkpt lat="43.0484596" lon="12.6002249"><ele>217.0</ele><time>2026-04-05T16:46:20.423Z</time></trkpt><trkpt lat="43.0485428" lon="12.5999058"><ele>217.0</ele><time>2026-04-05T16:46:21.424Z</time></trkpt><trkpt lat="43.0486139" lon="12.599586"><ele>217.0</ele><time>2026-04-05T16:46:22.424Z</time></trkpt><trkpt lat="43.0486922" lon="12.5992628"><ele>217.0</ele><time>2026-04-05T16:46:23.424Z</time></trkpt><trkpt lat="43.0487745" lon="12.5989468"><ele>217.0</ele><time>2026-04-05T16:46:24.424Z</time></trkpt><trkpt lat="43.0488472" lon="12.5986271"><ele>215.5</ele><time>2026-04-05T16:46:25.424Z</time></trkpt><trkpt lat="43.0489167" lon="12.5983122"><ele>214.0</ele><time>2026-04-05T16:46:26.424Z</time></trkpt><trkpt lat="43.0489933" lon="12.5980006"><ele>214.5</ele><time>2026-04-05T16:46:27.423Z</time></trkpt><trkpt lat="43.0490699" lon="12.5976827"><ele>215.0</ele><time>2026-04-05T16:46:28.424Z</time></trkpt><trkpt lat="43.0491488" lon="12.5973643"><ele>216.0</ele><time>2026-04-05T16:46:29.424Z</time></trkpt><trkpt lat="43.0492151" lon="12.5970546"><ele>217.0</ele><time>2026-04-05T16:46:30.424Z</time></trkpt><trkpt lat="43.0492926" lon="12.5967451"><ele>217.5</ele><time>2026-04-05T16:46:31.423Z</time></trkpt><trkpt lat="43.049371" lon="12.5964267"><ele>218.0</ele><time>2026-04-05T16:46:32.423Z</time></trkpt><trkpt lat="43.0494429" lon="12.5961274"><ele>217.0</ele><time>2026-04-05T16:46:33.424Z</time></trkpt><trkpt lat="43.049519" lon="12.5958162"><ele>216.0</ele><time>2026-04-05T16:46:34.424Z</time></trkpt><trkpt lat="43.0495953" lon="12.5955015"><ele>216.5</ele><time>2026-04-05T16:46:35.424Z</time></trkpt><trkpt lat="43.0496793" lon="12.5951874"><ele>217.0</ele><time>2026-04-05T16:46:36.423Z</time></trkpt><trkpt lat="43.0497524" lon="12.5948669"><ele>217.0</ele><time>2026-04-05T16:46:37.424Z</time></trkpt><trkpt lat="43.0498292" lon="12.5945495"><ele>217.0</ele><time>2026-04-05T16:46:38.423Z</time></trkpt><trkpt lat="43.0499054" lon="12.5942185"><ele>217.0</ele><time>2026-04-05T16:46:39.423Z</time></trkpt><trkpt lat="43.0499863" lon="12.5939006"><ele>217.0</ele><time>2026-04-05T16:46:40.424Z</time></trkpt><trkpt lat="43.0500635" lon="12.593584"><ele>217.0</ele><time>2026-04-05T16:46:41.424Z</time></trkpt><trkpt lat="43.0501414" lon="12.5932577"><ele>217.0</ele><time>2026-04-05T16:46:42.424Z</time></trkpt><trkpt lat="43.0502184" lon="12.5929289"><ele>216.0</ele><time>2026-04-05T16:46:43.424Z</time></trkpt><trkpt lat="43.0503027" lon="12.5926023"><ele>215.0</ele><time>2026-04-05T16:46:44.423Z</time></trkpt><trkpt lat="43.050378" lon="12.5922757"><ele>214.0</ele><time>2026-04-05T16:46:45.423Z</time></trkpt><trkpt lat="43.0504602" lon="12.5919456"><ele>213.0</ele><time>2026-04-05T16:46:46.424Z</time></trkpt><trkpt lat="43.0505419" lon="12.5916123"><ele>213.0</ele><time>2026-04-05T16:46:47.423Z</time></trkpt><trkpt lat="43.0506235" lon="12.5912788"><ele>213.0</ele><time>2026-04-05T16:46:48.424Z</time></trkpt><trkpt lat="43.0507061" lon="12.5909433"><ele>214.0</ele><time>2026-04-05T16:46:49.423Z</time></trkpt><trkpt lat="43.0507866" lon="12.5906077"><ele>215.0</ele><time>2026-04-05T16:46:50.424Z</time></trkpt><trkpt lat="43.0508658" lon="12.5902761"><ele>215.0</ele><time>2026-04-05T16:46:51.424Z</time></trkpt><trkpt lat="43.0509449" lon="12.589947"><ele>215.0</ele><time>2026-04-05T16:46:52.423Z</time></trkpt><trkpt lat="43.0510247" lon="12.5896162"><ele>213.5</ele><time>2026-04-05T16:46:53.424Z</time></trkpt><trkpt lat="43.0510981" lon="12.5892848"><ele>212.0</ele><time>2026-04-05T16:46:54.424Z</time></trkpt><trkpt lat="43.0511789" lon="12.5889552"><ele>211.5</ele><time>2026-04-05T16:46:55.423Z</time></trkpt><trkpt lat="43.051262" lon="12.5886228"><ele>211.0</ele><time>2026-04-05T16:46:56.424Z</time></trkpt><trkpt lat="43.0513421" lon="12.5882975"><ele>211.0</ele><time>2026-04-05T16:46:57.423Z</time></trkpt><trkpt lat="43.0514129" lon="12.5879578"><ele>211.0</ele><time>2026-04-05T16:46:58.424Z</time></trkpt><trkpt lat="43.0514993" lon="12.5876322"><ele>211.0</ele><time>2026-04-05T16:46:59.423Z</time></trkpt><trkpt lat="43.0515782" lon="12.5873152"><ele>211.0</ele><time>2026-04-05T16:47:00.423Z</time></trkpt><trkpt lat="43.0516535" lon="12.5869832"><ele>212.0</ele><time>2026-04-05T16:47:01.423Z</time></trkpt><trkpt lat="43.0517277" lon="12.5866505"><ele>213.0</ele><time>2026-04-05T16:47:02.424Z</time></trkpt><trkpt lat="43.0518035" lon="12.5863182"><ele>214.0</ele><time>2026-04-05T16:47:03.423Z</time></trkpt><trkpt lat="43.0518819" lon="12.5859869"><ele>215.0</ele><time>2026-04-05T16:47:04.424Z</time></trkpt><trkpt lat="43.0519606" lon="12.5856593"><ele>214.5</ele><time>2026-04-05T16:47:05.423Z</time></trkpt><trkpt lat="43.0520417" lon="12.5853295"><ele>214.0</ele><time>2026-04-05T16:47:06.423Z</time></trkpt><trkpt lat="43.052124" lon="12.5849975"><ele>214.0</ele><time>2026-04-05T16:47:07.424Z</time></trkpt><trkpt lat="43.052207" lon="12.5846639"><ele>214.0</ele><time>2026-04-05T16:47:08.424Z</time></trkpt><trkpt lat="43.0522888" lon="12.5843431"><ele>213.0</ele><time>2026-04-05T16:47:09.423Z</time></trkpt><trkpt lat="43.0523689" lon="12.5840063"><ele>212.0</ele><time>2026-04-05T16:47:10.424Z</time></trkpt><trkpt lat="43.0524456" lon="12.5836808"><ele>212.0</ele><time>2026-04-05T16:47:11.424Z</time></trkpt><trkpt lat="43.0525213" lon="12.5833386"><ele>212.0</ele><time>2026-04-05T16:47:12.424Z</time></trkpt><trkpt lat="43.0526017" lon="12.5830028"><ele>212.5</ele><time>2026-04-05T16:47:13.423Z</time></trkpt><trkpt lat="43.0526812" lon="12.5826751"><ele>213.0</ele><time>2026-04-05T16:47:14.424Z</time></trkpt><trkpt lat="43.0527619" lon="12.5823404"><ele>213.0</ele><time>2026-04-05T16:47:15.424Z</time></trkpt><trkpt lat="43.0528359" lon="12.5820053"><ele>213.0</ele><time>2026-04-05T16:47:16.424Z</time></trkpt><trkpt lat="43.0529068" lon="12.581668"><ele>213.0</ele><time>2026-04-05T16:47:17.423Z</time></trkpt><trkpt lat="43.0529656" lon="12.5813176"><ele>213.0</ele><time>2026-04-05T16:47:18.424Z</time></trkpt><trkpt lat="43.0530171" lon="12.5809769"><ele>211.5</ele><time>2026-04-05T16:47:19.424Z</time></trkpt><trkpt lat="43.0530514" lon="12.5806346"><ele>210.0</ele><time>2026-04-05T16:47:20.423Z</time></trkpt><trkpt lat="43.0530733" lon="12.5802912"><ele>210.0</ele><time>2026-04-05T16:47:21.424Z</time></trkpt><trkpt lat="43.0530775" lon="12.5799463"><ele>210.0</ele><time>2026-04-05T16:47:22.424Z</time></trkpt><trkpt lat="43.0530774" lon="12.5795953"><ele>210.5</ele><time>2026-04-05T16:47:23.423Z</time></trkpt><trkpt lat="43.053057" lon="12.5792489"><ele>211.0</ele><time>2026-04-05T16:47:24.424Z</time></trkpt><trkpt lat="43.0530418" lon="12.5788972"><ele>210.5</ele><time>2026-04-05T16:47:25.423Z</time></trkpt><trkpt lat="43.053023" lon="12.578548"><ele>210.0</ele><time>2026-04-05T16:47:26.424Z</time></trkpt><trkpt lat="43.0530078" lon="12.5781986"><ele>209.5</ele><time>2026-04-05T16:47:27.424Z</time></trkpt><trkpt lat="43.0529963" lon="12.5778437"><ele>209.0</ele><time>2026-04-05T16:47:28.423Z</time></trkpt><trkpt lat="43.0529786" lon="12.5774893"><ele>209.0</ele><time>2026-04-05T16:47:29.424Z</time></trkpt><trkpt lat="43.0529709" lon="12.5771365"><ele>209.0</ele><time>2026-04-05T16:47:30.424Z</time></trkpt><trkpt lat="43.0529502" lon="12.5767819"><ele>209.0</ele><time>2026-04-05T16:47:31.423Z</time></trkpt><trkpt lat="43.0529378" lon="12.5764261"><ele>209.0</ele><time>2026-04-05T16:47:32.424Z</time></trkpt><trkpt lat="43.0529252" lon="12.5760702"><ele>209.0</ele><time>2026-04-05T16:47:33.424Z</time></trkpt><trkpt lat="43.052909" lon="12.575717"><ele>209.0</ele><time>2026-04-05T16:47:34.424Z</time></trkpt><trkpt lat="43.0528916" lon="12.5753594"><ele>208.5</ele><time>2026-04-05T16:47:35.423Z</time></trkpt><trkpt lat="43.0528749" lon="12.5750051"><ele>208.0</ele><time>2026-04-05T16:47:36.424Z</time></trkpt><trkpt lat="43.0528565" lon="12.5746496"><ele>208.5</ele><time>2026-04-05T16:47:37.423Z</time></trkpt><trkpt lat="43.0528345" lon="12.5742915"><ele>209.0</ele><time>2026-04-05T16:47:38.424Z</time></trkpt><trkpt lat="43.0528165" lon="12.5739281"><ele>209.0</ele><time>2026-04-05T16:47:39.424Z</time></trkpt><trkpt lat="43.0528053" lon="12.573569"><ele>209.0</ele><time>2026-04-05T16:47:40.423Z</time></trkpt><trkpt lat="43.0527932" lon="12.5732095"><ele>208.5</ele><time>2026-04-05T16:47:41.424Z</time></trkpt><trkpt lat="43.0527812" lon="12.5728489"><ele>208.0</ele><time>2026-04-05T16:47:42.424Z</time></trkpt><trkpt lat="43.0527615" lon="12.5724856"><ele>208.0</ele><time>2026-04-05T16:47:43.423Z</time></trkpt><trkpt lat="43.0527469" lon="12.5721284"><ele>208.0</ele><time>2026-04-05T16:47:44.424Z</time></trkpt><trkpt lat="43.052737" lon="12.5717674"><ele>207.0</ele><time>2026-04-05T16:47:45.423Z</time></trkpt><trkpt lat="43.0527359" lon="12.5714016"><ele>206.0</ele><time>2026-04-05T16:47:46.423Z</time></trkpt><trkpt lat="43.0527588" lon="12.5710416"><ele>205.5</ele><time>2026-04-05T16:47:47.423Z</time></trkpt><trkpt lat="43.0527863" lon="12.5706846"><ele>205.0</ele><time>2026-04-05T16:47:48.423Z</time></trkpt><trkpt lat="43.0528252" lon="12.5703198"><ele>205.0</ele><time>2026-04-05T16:47:49.424Z</time></trkpt><trkpt lat="43.0528863" lon="12.5699731"><ele>205.0</ele><time>2026-04-05T16:47:50.424Z</time></trkpt><trkpt lat="43.0529662" lon="12.5696279"><ele>205.0</ele><time>2026-04-05T16:47:51.424Z</time></trkpt><trkpt lat="43.0530525" lon="12.5692924"><ele>205.0</ele><time>2026-04-05T16:47:52.423Z</time></trkpt><trkpt lat="43.0531657" lon="12.5689713"><ele>205.5</ele><time>2026-04-05T16:47:53.424Z</time></trkpt><trkpt lat="43.0532787" lon="12.5686509"><ele>206.0</ele><time>2026-04-05T16:47:54.424Z</time></trkpt><trkpt lat="43.0534042" lon="12.5683369"><ele>206.0</ele><time>2026-04-05T16:47:55.424Z</time></trkpt><trkpt lat="43.0535328" lon="12.5680334"><ele>206.0</ele><time>2026-04-05T16:47:56.423Z</time></trkpt><trkpt lat="43.0536572" lon="12.5677307"><ele>205.5</ele><time>2026-04-05T16:47:57.424Z</time></trkpt><trkpt lat="43.0537878" lon="12.5674318"><ele>205.0</ele><time>2026-04-05T16:47:58.424Z</time></trkpt><trkpt lat="43.0539152" lon="12.5671374"><ele>204.5</ele><time>2026-04-05T16:47:59.424Z</time></trkpt><trkpt lat="43.0540391" lon="12.5668421"><ele>204.0</ele><time>2026-04-05T16:48:00.424Z</time></trkpt><trkpt lat="43.0541616" lon="12.5665419"><ele>203.5</ele><time>2026-04-05T16:48:01.423Z</time></trkpt><trkpt lat="43.054287" lon="12.5662466"><ele>203.0</ele><time>2026-04-05T16:48:02.423Z</time></trkpt><trkpt lat="43.0544125" lon="12.565946"><ele>204.0</ele><time>2026-04-05T16:48:03.424Z</time></trkpt><trkpt lat="43.054534" lon="12.5656382"><ele>205.0</ele><time>2026-04-05T16:48:04.423Z</time></trkpt><trkpt lat="43.0546583" lon="12.5653404"><ele>205.0</ele><time>2026-04-05T16:48:05.424Z</time></trkpt><trkpt lat="43.0547838" lon="12.565054"><ele>205.0</ele><time>2026-04-05T16:48:06.424Z</time></trkpt><trkpt lat="43.0549118" lon="12.5647504"><ele>204.5</ele><time>2026-04-05T16:48:07.424Z</time></trkpt><trkpt lat="43.0550349" lon="12.5644493"><ele>204.0</ele><time>2026-04-05T16:48:08.424Z</time></trkpt><trkpt lat="43.0551622" lon="12.5641426"><ele>204.0</ele><time>2026-04-05T16:48:09.424Z</time></trkpt><trkpt lat="43.0552938" lon="12.563837"><ele>204.0</ele><time>2026-04-05T16:48:10.423Z</time></trkpt><trkpt lat="43.0554179" lon="12.5635293"><ele>204.0</ele><time>2026-04-05T16:48:11.423Z</time></trkpt><trkpt lat="43.0555494" lon="12.563221"><ele>204.0</ele><time>2026-04-05T16:48:12.423Z</time></trkpt><trkpt lat="43.0556847" lon="12.5629055"><ele>203.0</ele><time>2026-04-05T16:48:13.424Z</time></trkpt><trkpt lat="43.0558137" lon="12.5625826"><ele>202.0</ele><time>2026-04-05T16:48:14.424Z</time></trkpt><trkpt lat="43.055946" lon="12.5622694"><ele>202.5</ele><time>2026-04-05T16:48:15.424Z</time></trkpt><trkpt lat="43.0560762" lon="12.5619591"><ele>203.0</ele><time>2026-04-05T16:48:16.424Z</time></trkpt><trkpt lat="43.0562128" lon="12.561643"><ele>203.0</ele><time>2026-04-05T16:48:17.423Z</time></trkpt><trkpt lat="43.0563446" lon="12.5613345"><ele>203.0</ele><time>2026-04-05T16:48:18.423Z</time></trkpt><trkpt lat="43.056476" lon="12.5610277"><ele>203.0</ele><time>2026-04-05T16:48:19.424Z</time></trkpt><trkpt lat="43.0566089" lon="12.5607141"><ele>203.0</ele><time>2026-04-05T16:48:20.424Z</time></trkpt><trkpt lat="43.0567393" lon="12.560401"><ele>203.5</ele><time>2026-04-05T16:48:21.424Z</time></trkpt><trkpt lat="43.0568691" lon="12.5600915"><ele>204.0</ele><time>2026-04-05T16:48:22.423Z</time></trkpt><trkpt lat="43.0570028" lon="12.5597873"><ele>203.0</ele><time>2026-04-05T16:48:23.423Z</time></trkpt><trkpt lat="43.0571306" lon="12.5594815"><ele>202.0</ele><time>2026-04-05T16:48:24.424Z</time></trkpt><trkpt lat="43.057248" lon="12.5591638"><ele>202.0</ele><time>2026-04-05T16:48:25.424Z</time></trkpt><trkpt lat="43.0573703" lon="12.558847"><ele>202.0</ele><time>2026-04-05T16:48:26.424Z</time></trkpt><trkpt lat="43.0574881" lon="12.5585297"><ele>202.0</ele><time>2026-04-05T16:48:27.423Z</time></trkpt><trkpt lat="43.0576069" lon="12.5582128"><ele>202.0</ele><time>2026-04-05T16:48:28.423Z</time></trkpt><trkpt lat="43.0577221" lon="12.5578988"><ele>202.0</ele><time>2026-04-05T16:48:29.424Z</time></trkpt><trkpt lat="43.0578388" lon="12.5575906"><ele>202.0</ele><time>2026-04-05T16:48:30.424Z</time></trkpt><trkpt lat="43.0579543" lon="12.5572822"><ele>201.5</ele><time>2026-04-05T16:48:31.424Z</time></trkpt><trkpt lat="43.0580732" lon="12.5569685"><ele>201.0</ele><time>2026-04-05T16:48:32.424Z</time></trkpt><trkpt lat="43.0581847" lon="12.5566519"><ele>201.0</ele><time>2026-04-05T16:48:33.424Z</time></trkpt><trkpt lat="43.0582943" lon="12.5563382"><ele>201.0</ele><time>2026-04-05T16:48:34.423Z</time></trkpt><trkpt lat="43.0584101" lon="12.5560163"><ele>201.0</ele><time>2026-04-05T16:48:35.424Z</time></trkpt><trkpt lat="43.0585206" lon="12.5556998"><ele>201.0</ele><time>2026-04-05T16:48:36.424Z</time></trkpt><trkpt lat="43.0586367" lon="12.5553939"><ele>200.5</ele><time>2026-04-05T16:48:37.424Z</time></trkpt><trkpt lat="43.0587552" lon="12.5550858"><ele>200.0</ele><time>2026-04-05T16:48:38.424Z</time></trkpt><trkpt lat="43.0588719" lon="12.5547762"><ele>199.5</ele><time>2026-04-05T16:48:39.424Z</time></trkpt><trkpt lat="43.0589923" lon="12.5544683"><ele>199.0</ele><time>2026-04-05T16:48:40.424Z</time></trkpt><trkpt lat="43.0591128" lon="12.5541524"><ele>199.5</ele><time>2026-04-05T16:48:41.424Z</time></trkpt><trkpt lat="43.0592299" lon="12.5538433"><ele>200.0</ele><time>2026-04-05T16:48:42.424Z</time></trkpt><trkpt lat="43.0593493" lon="12.5535309"><ele>199.0</ele><time>2026-04-05T16:48:43.424Z</time></trkpt><trkpt lat="43.0594711" lon="12.5532214"><ele>198.0</ele><time>2026-04-05T16:48:44.423Z</time></trkpt><trkpt lat="43.0595924" lon="12.5529164"><ele>198.0</ele><time>2026-04-05T16:48:45.424Z</time></trkpt><trkpt lat="43.059712" lon="12.5526025"><ele>198.0</ele><time>2026-04-05T16:48:46.424Z</time></trkpt><trkpt lat="43.0598342" lon="12.5522847"><ele>198.5</ele><time>2026-04-05T16:48:47.424Z</time></trkpt><trkpt lat="43.0599536" lon="12.5519704"><ele>199.0</ele><time>2026-04-05T16:48:48.423Z</time></trkpt><trkpt lat="43.0600788" lon="12.5516492"><ele>199.0</ele><time>2026-04-05T16:48:49.424Z</time></trkpt><trkpt lat="43.0601973" lon="12.5513264"><ele>199.0</ele><time>2026-04-05T16:48:50.423Z</time></trkpt><trkpt lat="43.0603138" lon="12.5510058"><ele>198.0</ele><time>2026-04-05T16:48:51.424Z</time></trkpt><trkpt lat="43.0604488" lon="12.5506857"><ele>197.0</ele><time>2026-04-05T16:48:52.424Z</time></trkpt><trkpt lat="43.0605797" lon="12.5503684"><ele>196.5</ele><time>2026-04-05T16:48:53.423Z</time></trkpt><trkpt lat="43.0607032" lon="12.5500542"><ele>196.0</ele><time>2026-04-05T16:48:54.424Z</time></trkpt><trkpt lat="43.0608316" lon="12.5497341"><ele>198.0</ele><time>2026-04-05T16:48:55.423Z</time></trkpt><trkpt lat="43.0609539" lon="12.5494231"><ele>200.0</ele><time>2026-04-05T16:48:56.424Z</time></trkpt><trkpt lat="43.0610851" lon="12.549114"><ele>200.0</ele><time>2026-04-05T16:48:57.424Z</time></trkpt><trkpt lat="43.0612139" lon="12.5488046"><ele>200.0</ele><time>2026-04-05T16:48:58.424Z</time></trkpt><trkpt lat="43.0613478" lon="12.5485028"><ele>198.5</ele><time>2026-04-05T16:48:59.424Z</time></trkpt><trkpt lat="43.0614792" lon="12.5481942"><ele>197.0</ele><time>2026-04-05T16:49:00.424Z</time></trkpt><trkpt lat="43.061616" lon="12.5478935"><ele>195.5</ele><time>2026-04-05T16:49:01.424Z</time></trkpt><trkpt lat="43.061757" lon="12.5475962"><ele>194.0</ele><time>2026-04-05T16:49:02.424Z</time></trkpt><trkpt lat="43.0618923" lon="12.5472943"><ele>192.0</ele><time>2026-04-05T16:49:03.424Z</time></trkpt><trkpt lat="43.0620318" lon="12.5469879"><ele>190.0</ele><time>2026-04-05T16:49:04.423Z</time></trkpt><trkpt lat="43.0621688" lon="12.5466855"><ele>190.0</ele><time>2026-04-05T16:49:05.424Z</time></trkpt><trkpt lat="43.0623112" lon="12.5463913"><ele>190.0</ele><time>2026-04-05T16:49:06.424Z</time></trkpt><trkpt lat="43.0624504" lon="12.5460899"><ele>191.5</ele><time>2026-04-05T16:49:07.424Z</time></trkpt><trkpt lat="43.0625763" lon="12.5457792"><ele>193.0</ele><time>2026-04-05T16:49:08.423Z</time></trkpt><trkpt lat="43.0627069" lon="12.5454782"><ele>193.0</ele><time>2026-04-05T16:49:09.423Z</time></trkpt><trkpt lat="43.0628418" lon="12.5451702"><ele>193.0</ele><time>2026-04-05T16:49:10.423Z</time></trkpt><trkpt lat="43.062978" lon="12.5448714"><ele>193.0</ele><time>2026-04-05T16:49:11.424Z</time></trkpt><trkpt lat="43.0631152" lon="12.5445648"><ele>193.0</ele><time>2026-04-05T16:49:12.423Z</time></trkpt><trkpt lat="43.0632493" lon="12.5442625"><ele>191.5</ele><time>2026-04-05T16:49:13.424Z</time></trkpt><trkpt lat="43.0633843" lon="12.5439535"><ele>190.0</ele><time>2026-04-05T16:49:14.424Z</time></trkpt><trkpt lat="43.0635207" lon="12.543653"><ele>190.0</ele><time>2026-04-05T16:49:15.423Z</time></trkpt><trkpt lat="43.0636572" lon="12.5433539"><ele>190.0</ele><time>2026-04-05T16:49:16.424Z</time></trkpt><trkpt lat="43.0637948" lon="12.5430506"><ele>189.5</ele><time>2026-04-05T16:49:17.423Z</time></trkpt><trkpt lat="43.0639376" lon="12.5427531"><ele>189.0</ele><time>2026-04-05T16:49:18.423Z</time></trkpt><trkpt lat="43.0640699" lon="12.5424473"><ele>191.0</ele><time>2026-04-05T16:49:19.424Z</time></trkpt><trkpt lat="43.064204" lon="12.5421457"><ele>193.0</ele><time>2026-04-05T16:49:20.423Z</time></trkpt><trkpt lat="43.0643468" lon="12.5418497"><ele>193.0</ele><time>2026-04-05T16:49:21.423Z</time></trkpt><trkpt lat="43.0644865" lon="12.5415458"><ele>193.0</ele><time>2026-04-05T16:49:22.424Z</time></trkpt><trkpt lat="43.0646287" lon="12.541237"><ele>194.0</ele><time>2026-04-05T16:49:23.424Z</time></trkpt><trkpt lat="43.0647704" lon="12.5409365"><ele>195.0</ele><time>2026-04-05T16:49:24.424Z</time></trkpt><trkpt lat="43.0649078" lon="12.540625"><ele>195.0</ele><time>2026-04-05T16:49:25.424Z</time></trkpt><trkpt lat="43.0650479" lon="12.5403229"><ele>195.0</ele><time>2026-04-05T16:49:26.424Z</time></trkpt><trkpt lat="43.0651868" lon="12.5400226"><ele>195.0</ele><time>2026-04-05T16:49:27.424Z</time></trkpt><trkpt lat="43.0653247" lon="12.5397165"><ele>195.0</ele><time>2026-04-05T16:49:28.424Z</time></trkpt><trkpt lat="43.0654675" lon="12.5394076"><ele>194.0</ele><time>2026-04-05T16:49:29.424Z</time></trkpt><trkpt lat="43.0656026" lon="12.5390978"><ele>193.0</ele><time>2026-04-05T16:49:30.423Z</time></trkpt><trkpt lat="43.0657304" lon="12.5387869"><ele>194.5</ele><time>2026-04-05T16:49:31.424Z</time></trkpt><trkpt lat="43.0658611" lon="12.5384702"><ele>196.0</ele><time>2026-04-05T16:49:32.423Z</time></trkpt><trkpt lat="43.0659914" lon="12.5381593"><ele>195.5</ele><time>2026-04-05T16:49:33.424Z</time></trkpt><trkpt lat="43.066125" lon="12.5378466"><ele>195.0</ele><time>2026-04-05T16:49:34.424Z</time></trkpt><trkpt lat="43.0662633" lon="12.5375322"><ele>195.0</ele><time>2026-04-05T16:49:35.423Z</time></trkpt><trkpt lat="43.066405" lon="12.5372314"><ele>195.0</ele><time>2026-04-05T16:49:36.424Z</time></trkpt><trkpt lat="43.0665477" lon="12.5369248"><ele>196.0</ele><time>2026-04-05T16:49:37.424Z</time></trkpt><trkpt lat="43.0666861" lon="12.5366205"><ele>197.0</ele><time>2026-04-05T16:49:38.424Z</time></trkpt><trkpt lat="43.0668294" lon="12.5362997"><ele>196.5</ele><time>2026-04-05T16:49:39.423Z</time></trkpt><trkpt lat="43.0669685" lon="12.5359925"><ele>196.0</ele><time>2026-04-05T16:49:40.424Z</time></trkpt><trkpt lat="43.0671117" lon="12.5356772"><ele>196.5</ele><time>2026-04-05T16:49:41.423Z</time></trkpt><trkpt lat="43.0672504" lon="12.5353694"><ele>197.0</ele><time>2026-04-05T16:49:42.424Z</time></trkpt><trkpt lat="43.0673912" lon="12.5350521"><ele>197.5</ele><time>2026-04-05T16:49:43.423Z</time></trkpt><trkpt lat="43.0675343" lon="12.5347369"><ele>198.0</ele><time>2026-04-05T16:49:44.423Z</time></trkpt><trkpt lat="43.0676776" lon="12.5344335"><ele>198.5</ele><time>2026-04-05T16:49:45.423Z</time></trkpt><trkpt lat="43.0678129" lon="12.5341285"><ele>199.0</ele><time>2026-04-05T16:49:46.423Z</time></trkpt><trkpt lat="43.0679468" lon="12.5338182"><ele>199.0</ele><time>2026-04-05T16:49:47.424Z</time></trkpt><trkpt lat="43.0680819" lon="12.5334971"><ele>199.0</ele><time>2026-04-05T16:49:48.424Z</time></trkpt><trkpt lat="43.0682266" lon="12.5331881"><ele>197.0</ele><time>2026-04-05T16:49:49.423Z</time></trkpt><trkpt lat="43.0683619" lon="12.5328867"><ele>195.0</ele><time>2026-04-05T16:49:50.424Z</time></trkpt><trkpt lat="43.0684975" lon="12.5325793"><ele>195.0</ele><time>2026-04-05T16:49:51.424Z</time></trkpt><trkpt lat="43.0686402" lon="12.5322821"><ele>195.0</ele><time>2026-04-05T16:49:52.424Z</time></trkpt><trkpt lat="43.0687754" lon="12.5319769"><ele>196.0</ele><time>2026-04-05T16:49:53.423Z</time></trkpt><trkpt lat="43.0689153" lon="12.5316677"><ele>197.0</ele><time>2026-04-05T16:49:54.424Z</time></trkpt><trkpt lat="43.069056" lon="12.5313535"><ele>197.0</ele><time>2026-04-05T16:49:55.424Z</time></trkpt><trkpt lat="43.0691976" lon="12.5310512"><ele>197.0</ele><time>2026-04-05T16:49:56.423Z</time></trkpt><trkpt lat="43.0693399" lon="12.5307365"><ele>197.0</ele><time>2026-04-05T16:49:57.423Z</time></trkpt><trkpt lat="43.0694757" lon="12.5304206"><ele>197.0</ele><time>2026-04-05T16:49:58.424Z</time></trkpt><trkpt lat="43.0696183" lon="12.5301114"><ele>197.0</ele><time>2026-04-05T16:49:59.424Z</time></trkpt><trkpt lat="43.0697601" lon="12.5298011"><ele>197.0</ele><time>2026-04-05T16:50:00.424Z</time></trkpt><trkpt lat="43.0699009" lon="12.5294967"><ele>198.0</ele><time>2026-04-05T16:50:01.424Z</time></trkpt><trkpt lat="43.0700414" lon="12.5291804"><ele>199.0</ele><time>2026-04-05T16:50:02.424Z</time></trkpt><trkpt lat="43.0701755" lon="12.5288734"><ele>198.5</ele><time>2026-04-05T16:50:03.424Z</time></trkpt><trkpt lat="43.0703189" lon="12.5285655"><ele>198.0</ele><time>2026-04-05T16:50:04.423Z</time></trkpt><trkpt lat="43.0704571" lon="12.5282478"><ele>198.0</ele><time>2026-04-05T16:50:05.424Z</time></trkpt><trkpt lat="43.070596" lon="12.5279321"><ele>198.0</ele><time>2026-04-05T16:50:06.423Z</time></trkpt><trkpt lat="43.0707382" lon="12.5276255"><ele>197.0</ele><time>2026-04-05T16:50:07.424Z</time></trkpt><trkpt lat="43.0708749" lon="12.5273116"><ele>196.0</ele><time>2026-04-05T16:50:08.424Z</time></trkpt><trkpt lat="43.0710095" lon="12.5269962"><ele>196.0</ele><time>2026-04-05T16:50:09.424Z</time></trkpt><trkpt lat="43.0711358" lon="12.5266773"><ele>196.0</ele><time>2026-04-05T16:50:10.423Z</time></trkpt><trkpt lat="43.0712552" lon="12.5263561"><ele>195.5</ele><time>2026-04-05T16:50:11.424Z</time></trkpt><trkpt lat="43.0713614" lon="12.5260317"><ele>195.0</ele><time>2026-04-05T16:50:12.424Z</time></trkpt><trkpt lat="43.0714604" lon="12.525697"><ele>196.0</ele><time>2026-04-05T16:50:13.424Z</time></trkpt><trkpt lat="43.0715522" lon="12.5253579"><ele>197.0</ele><time>2026-04-05T16:50:14.424Z</time></trkpt><trkpt lat="43.0716413" lon="12.5250185"><ele>197.5</ele><time>2026-04-05T16:50:15.424Z</time></trkpt><trkpt lat="43.0717105" lon="12.5246803"><ele>198.0</ele><time>2026-04-05T16:50:16.423Z</time></trkpt><trkpt lat="43.0717772" lon="12.5243385"><ele>198.0</ele><time>2026-04-05T16:50:17.424Z</time></trkpt><trkpt lat="43.0718446" lon="12.5239975"><ele>198.0</ele><time>2026-04-05T16:50:18.424Z</time></trkpt><trkpt lat="43.0719064" lon="12.5236532"><ele>198.0</ele><time>2026-04-05T16:50:19.423Z</time></trkpt><trkpt lat="43.0719754" lon="12.5233065"><ele>198.0</ele><time>2026-04-05T16:50:20.423Z</time></trkpt><trkpt lat="43.0720413" lon="12.5229631"><ele>197.0</ele><time>2026-04-05T16:50:21.424Z</time></trkpt><trkpt lat="43.0721034" lon="12.5226277"><ele>196.0</ele><time>2026-04-05T16:50:22.423Z</time></trkpt><trkpt lat="43.0721694" lon="12.5222869"><ele>195.0</ele><time>2026-04-05T16:50:23.424Z</time></trkpt><trkpt lat="43.072226" lon="12.5219374"><ele>194.0</ele><time>2026-04-05T16:50:24.424Z</time></trkpt><trkpt lat="43.0722883" lon="12.5215994"><ele>194.0</ele><time>2026-04-05T16:50:25.424Z</time></trkpt><trkpt lat="43.0723597" lon="12.521258"><ele>194.0</ele><time>2026-04-05T16:50:26.423Z</time></trkpt><trkpt lat="43.0724234" lon="12.5209142"><ele>196.0</ele><time>2026-04-05T16:50:27.424Z</time></trkpt><trkpt lat="43.072479" lon="12.5205687"><ele>198.0</ele><time>2026-04-05T16:50:28.424Z</time></trkpt><trkpt lat="43.0725359" lon="12.5202185"><ele>198.0</ele><time>2026-04-05T16:50:29.424Z</time></trkpt><trkpt lat="43.0726003" lon="12.5198728"><ele>198.0</ele><time>2026-04-05T16:50:30.424Z</time></trkpt><trkpt lat="43.0726661" lon="12.5195233"><ele>197.5</ele><time>2026-04-05T16:50:31.424Z</time></trkpt><trkpt lat="43.0727308" lon="12.5191807"><ele>197.0</ele><time>2026-04-05T16:50:32.424Z</time></trkpt><trkpt lat="43.0727958" lon="12.5188402"><ele>197.0</ele><time>2026-04-05T16:50:33.424Z</time></trkpt><trkpt lat="43.0728587" lon="12.5185041"><ele>197.0</ele><time>2026-04-05T16:50:34.423Z</time></trkpt><trkpt lat="43.0729258" lon="12.5181583"><ele>196.5</ele><time>2026-04-05T16:50:35.423Z</time></trkpt><trkpt lat="43.0729848" lon="12.5178023"><ele>196.0</ele><time>2026-04-05T16:50:36.423Z</time></trkpt><trkpt lat="43.0730428" lon="12.5174527"><ele>196.0</ele><time>2026-04-05T16:50:37.423Z</time></trkpt><trkpt lat="43.07311" lon="12.5171083"><ele>196.0</ele><time>2026-04-05T16:50:38.424Z</time></trkpt><trkpt lat="43.0731719" lon="12.5167598"><ele>195.5</ele><time>2026-04-05T16:50:39.424Z</time></trkpt><trkpt lat="43.0732381" lon="12.5164154"><ele>195.0</ele><time>2026-04-05T16:50:40.424Z</time></trkpt><trkpt lat="43.0733066" lon="12.5160675"><ele>196.0</ele><time>2026-04-05T16:50:41.424Z</time></trkpt><trkpt lat="43.0733751" lon="12.5157166"><ele>197.0</ele><time>2026-04-05T16:50:42.424Z</time></trkpt><trkpt lat="43.0734402" lon="12.5153671"><ele>197.0</ele><time>2026-04-05T16:50:43.424Z</time></trkpt><trkpt lat="43.0735072" lon="12.5150212"><ele>197.0</ele><time>2026-04-05T16:50:44.424Z</time></trkpt><trkpt lat="43.0735744" lon="12.5146811"><ele>196.0</ele><time>2026-04-05T16:50:45.423Z</time></trkpt><trkpt lat="43.0736349" lon="12.5143548"><ele>195.0</ele><time>2026-04-05T16:50:46.424Z</time></trkpt><trkpt lat="43.0736948" lon="12.514046"><ele>195.0</ele><time>2026-04-05T16:50:47.424Z</time></trkpt><trkpt lat="43.0737564" lon="12.5137578"><ele>195.0</ele><time>2026-04-05T16:50:48.424Z</time></trkpt><trkpt lat="43.0738132" lon="12.5134805"><ele>195.0</ele><time>2026-04-05T16:50:49.424Z</time></trkpt><trkpt lat="43.0738668" lon="12.5132183"><ele>194.66666666666669</ele><time>2026-04-05T16:50:50.424Z</time></trkpt><trkpt lat="43.0739126" lon="12.5129871"><ele>194.33333333333334</ele><time>2026-04-05T16:50:51.424Z</time></trkpt><trkpt lat="43.0739573" lon="12.5127695"><ele>194.0</ele><time>2026-04-05T16:50:52.424Z</time></trkpt><trkpt lat="43.0739951" lon="12.512564"><ele>194.0</ele><time>2026-04-05T16:50:53.424Z</time></trkpt><trkpt lat="43.074037" lon="12.5123745"><ele>194.0</ele><time>2026-04-05T16:50:54.424Z</time></trkpt><trkpt lat="43.0741029" lon="12.512213"><ele>194.0</ele><time>2026-04-05T16:50:55.423Z</time></trkpt><trkpt lat="43.0741778" lon="12.5120782"><ele>194.0</ele><time>2026-04-05T16:50:56.423Z</time></trkpt><trkpt lat="43.0742554" lon="12.5119502"><ele>194.75</ele><time>2026-04-05T16:50:57.424Z</time></trkpt><trkpt lat="43.0743492" lon="12.5118536"><ele>195.5</ele><time>2026-04-05T16:50:58.423Z</time></trkpt><trkpt lat="43.0744592" lon="12.5117815"><ele>196.25</ele><time>2026-04-05T16:50:59.424Z</time></trkpt><trkpt lat="43.0745757" lon="12.511763"><ele>197.0</ele><time>2026-04-05T16:51:00.423Z</time></trkpt><trkpt lat="43.0747023" lon="12.5117682"><ele>197.0</ele><time>2026-04-05T16:51:01.423Z</time></trkpt><trkpt lat="43.0748176" lon="12.511834"><ele>197.0</ele><time>2026-04-05T16:51:02.424Z</time></trkpt><trkpt lat="43.074919" lon="12.511918"><ele>197.0</ele><time>2026-04-05T16:51:03.424Z</time></trkpt><trkpt lat="43.0750106" lon="12.5120466"><ele>197.0</ele><time>2026-04-05T16:51:04.424Z</time></trkpt><trkpt lat="43.0750814" lon="12.5122107"><ele>197.0</ele><time>2026-04-05T16:51:05.424Z</time></trkpt><trkpt lat="43.0751238" lon="12.5123881"><ele>197.0</ele><time>2026-04-05T16:51:06.424Z</time></trkpt><trkpt lat="43.0751405" lon="12.512562"><ele>197.0</ele><time>2026-04-05T16:51:07.423Z</time></trkpt><trkpt lat="43.0751305" lon="12.5127263"><ele>197.0</ele><time>2026-04-05T16:51:08.424Z</time></trkpt><trkpt lat="43.0750892" lon="12.5128767"><ele>196.6</ele><time>2026-04-05T16:51:09.424Z</time></trkpt><trkpt lat="43.0750356" lon="12.5130092"><ele>196.2</ele><time>2026-04-05T16:51:10.424Z</time></trkpt><trkpt lat="43.0749845" lon="12.5131264"><ele>195.8</ele><time>2026-04-05T16:51:11.424Z</time></trkpt><trkpt lat="43.0749443" lon="12.5132281"><ele>195.4</ele><time>2026-04-05T16:51:12.423Z</time></trkpt><trkpt lat="43.074929" lon="12.5133695"><ele>195.0</ele><time>2026-04-05T16:51:14.424Z</time></trkpt><trkpt lat="43.074938" lon="12.5134665"><ele>195.0</ele><time>2026-04-05T16:51:16.423Z</time></trkpt><trkpt lat="43.0749906" lon="12.5135625"><ele>195.0</ele><time>2026-04-05T16:51:18.424Z</time></trkpt><trkpt lat="43.0750695" lon="12.5136134"><ele>195.0</ele><time>2026-04-05T16:51:19.424Z</time></trkpt><trkpt lat="43.0751526" lon="12.5136468"><ele>195.0</ele><time>2026-04-05T16:51:20.423Z</time></trkpt><trkpt lat="43.0752376" lon="12.513672"><ele>195.0</ele><time>2026-04-05T16:51:21.424Z</time></trkpt><trkpt lat="43.0753359" lon="12.5137076"><ele>195.25</ele><time>2026-04-05T16:51:22.424Z</time></trkpt><trkpt lat="43.0754409" lon="12.5137453"><ele>195.5</ele><time>2026-04-05T16:51:23.424Z</time></trkpt><trkpt lat="43.0755577" lon="12.5137936"><ele>195.75</ele><time>2026-04-05T16:51:24.423Z</time></trkpt><trkpt lat="43.075685" lon="12.5138495"><ele>196.0</ele><time>2026-04-05T16:51:25.424Z</time></trkpt><trkpt lat="43.0758162" lon="12.5139051"><ele>196.0</ele><time>2026-04-05T16:51:26.424Z</time></trkpt><trkpt lat="43.0759509" lon="12.5139576"><ele>196.0</ele><time>2026-04-05T16:51:27.424Z</time></trkpt><trkpt lat="43.0760991" lon="12.5140074"><ele>196.0</ele><time>2026-04-05T16:51:28.424Z</time></trkpt><trkpt lat="43.0762455" lon="12.5140571"><ele>196.0</ele><time>2026-04-05T16:51:29.424Z</time></trkpt><trkpt lat="43.0763952" lon="12.5141037"><ele>196.0</ele><time>2026-04-05T16:51:30.424Z</time></trkpt><trkpt lat="43.076554" lon="12.5141359"><ele>196.0</ele><time>2026-04-05T16:51:31.424Z</time></trkpt><trkpt lat="43.0767215" lon="12.5141533"><ele>196.0</ele><time>2026-04-05T16:51:32.424Z</time></trkpt><trkpt lat="43.0768924" lon="12.5141684"><ele>196.33333333333331</ele><time>2026-04-05T16:51:33.423Z</time></trkpt><trkpt lat="43.077065" lon="12.5141818"><ele>196.66666666666669</ele><time>2026-04-05T16:51:34.423Z</time></trkpt><trkpt lat="43.0772364" lon="12.514191"><ele>197.0</ele><time>2026-04-05T16:51:35.423Z</time></trkpt><trkpt lat="43.0774106" lon="12.5142022"><ele>197.33333333333334</ele><time>2026-04-05T16:51:36.423Z</time></trkpt><trkpt lat="43.0775755" lon="12.5142014"><ele>197.66666666666669</ele><time>2026-04-05T16:51:37.424Z</time></trkpt><trkpt lat="43.0777267" lon="12.5142041"><ele>198.0</ele><time>2026-04-05T16:51:38.424Z</time></trkpt><trkpt lat="43.0778731" lon="12.514213"><ele>198.0</ele><time>2026-04-05T16:51:39.424Z</time></trkpt><trkpt lat="43.0780107" lon="12.514215"><ele>198.0</ele><time>2026-04-05T16:51:40.423Z</time></trkpt><trkpt lat="43.0781204" lon="12.5142325"><ele>198.0</ele><time>2026-04-05T16:51:41.424Z</time></trkpt><trkpt lat="43.0782211" lon="12.5142873"><ele>198.0</ele><time>2026-04-05T16:51:42.423Z</time></trkpt><trkpt lat="43.0783061" lon="12.5143649"><ele>198.0</ele><time>2026-04-05T16:51:43.424Z</time></trkpt><trkpt lat="43.0783888" lon="12.5144676"><ele>198.0</ele><time>2026-04-05T16:51:44.424Z</time></trkpt><trkpt lat="43.0784799" lon="12.5145636"><ele>198.0</ele><time>2026-04-05T16:51:45.424Z</time></trkpt><trkpt lat="43.0785795" lon="12.5146171"><ele>198.0</ele><time>2026-04-05T16:51:46.423Z</time></trkpt><trkpt lat="43.0786821" lon="12.5146217"><ele>198.0</ele><time>2026-04-05T16:51:47.423Z</time></trkpt><trkpt lat="43.0787796" lon="12.5145873"><ele>198.0</ele><time>2026-04-05T16:51:48.424Z</time></trkpt><trkpt lat="43.0788606" lon="12.5144995"><ele>198.0</ele><time>2026-04-05T16:51:49.424Z</time></trkpt><trkpt lat="43.0789118" lon="12.5143794"><ele>198.0</ele><time>2026-04-05T16:51:50.424Z</time></trkpt><trkpt lat="43.0789323" lon="12.5142281"><ele>198.0</ele><time>2026-04-05T16:51:51.423Z</time></trkpt><trkpt lat="43.0789055" lon="12.5140672"><ele>198.0</ele><time>2026-04-05T16:51:52.424Z</time></trkpt><trkpt lat="43.0788584" lon="12.5139435"><ele>198.0</ele><time>2026-04-05T16:51:53.424Z</time></trkpt><trkpt lat="43.0787943" lon="12.5138041"><ele>198.0</ele><time>2026-04-05T16:51:54.423Z</time></trkpt><trkpt lat="43.0787417" lon="12.5136535"><ele>198.0</ele><time>2026-04-05T16:51:55.423Z</time></trkpt><trkpt lat="43.0787183" lon="12.5134739"><ele>198.0</ele><time>2026-04-05T16:51:56.424Z</time></trkpt><trkpt lat="43.0787049" lon="12.5132821"><ele>197.66666666666669</ele><time>2026-04-05T16:51:57.423Z</time></trkpt><trkpt lat="43.0787075" lon="12.5130631"><ele>197.33333333333334</ele><time>2026-04-05T16:51:58.423Z</time></trkpt><trkpt lat="43.0787172" lon="12.5128339"><ele>197.0</ele><time>2026-04-05T16:51:59.423Z</time></trkpt><trkpt lat="43.0787229" lon="12.5126148"><ele>197.0</ele><time>2026-04-05T16:52:00.424Z</time></trkpt><trkpt lat="43.0787315" lon="12.5123939"><ele>197.0</ele><time>2026-04-05T16:52:01.423Z</time></trkpt><trkpt lat="43.0787399" lon="12.5121801"><ele>197.0</ele><time>2026-04-05T16:52:02.424Z</time></trkpt><trkpt lat="43.0787594" lon="12.5119431"><ele>197.0</ele><time>2026-04-05T16:52:03.423Z</time></trkpt><trkpt lat="43.0787722" lon="12.5117102"><ele>197.0</ele><time>2026-04-05T16:52:04.423Z</time></trkpt><trkpt lat="43.0787841" lon="12.5114866"><ele>197.0</ele><time>2026-04-05T16:52:05.424Z</time></trkpt><trkpt lat="43.0788009" lon="12.5112749"><ele>196.66666666666669</ele><time>2026-04-05T16:52:06.423Z</time></trkpt><trkpt lat="43.0788132" lon="12.5110649"><ele>196.33333333333331</ele><time>2026-04-05T16:52:07.423Z</time></trkpt><trkpt lat="43.0788282" lon="12.5108622"><ele>196.0</ele><time>2026-04-05T16:52:08.424Z</time></trkpt><trkpt lat="43.0788299" lon="12.5106599"><ele>196.0</ele><time>2026-04-05T16:52:09.424Z</time></trkpt><trkpt lat="43.0788348" lon="12.5104924"><ele>196.0</ele><time>2026-04-05T16:52:10.423Z</time></trkpt><trkpt lat="43.0788287" lon="12.5103329"><ele>196.0</ele><time>2026-04-05T16:52:11.424Z</time></trkpt><trkpt lat="43.0788072" lon="12.5101903"><ele>196.0</ele><time>2026-04-05T16:52:12.424Z</time></trkpt><trkpt lat="43.0787672" lon="12.510062"><ele>196.0</ele><time>2026-04-05T16:52:13.424Z</time></trkpt><trkpt lat="43.0787336" lon="12.5099378"><ele>196.0</ele><time>2026-04-05T16:52:14.423Z</time></trkpt><trkpt lat="43.0787106" lon="12.5098006"><ele>196.0</ele><time>2026-04-05T16:52:15.424Z</time></trkpt><trkpt lat="43.0787128" lon="12.5096656"><ele>196.0</ele><time>2026-04-05T16:52:16.424Z</time></trkpt><trkpt lat="43.0787279" lon="12.5095167"><ele>196.0</ele><time>2026-04-05T16:52:17.424Z</time></trkpt><trkpt lat="43.0787518" lon="12.5093739"><ele>196.0</ele><time>2026-04-05T16:52:18.424Z</time></trkpt><trkpt lat="43.0788057" lon="12.5092207"><ele>196.0</ele><time>2026-04-05T16:52:19.424Z</time></trkpt><trkpt lat="43.0788601" lon="12.5090692"><ele>196.0</ele><time>2026-04-05T16:52:20.424Z</time></trkpt><trkpt lat="43.078906" lon="12.5088853"><ele>196.0</ele><time>2026-04-05T16:52:21.423Z</time></trkpt><trkpt lat="43.0789423" lon="12.5087073"><ele>196.0</ele><time>2026-04-05T16:52:22.423Z</time></trkpt><trkpt lat="43.0789519" lon="12.5085297"><ele>196.25</ele><time>2026-04-05T16:52:23.424Z</time></trkpt><trkpt lat="43.0789638" lon="12.5083574"><ele>196.5</ele><time>2026-04-05T16:52:24.424Z</time></trkpt><trkpt lat="43.0789738" lon="12.5081789"><ele>196.75</ele><time>2026-04-05T16:52:25.424Z</time></trkpt><trkpt lat="43.0789822" lon="12.508001"><ele>197.0</ele><time>2026-04-05T16:52:26.424Z</time></trkpt><trkpt lat="43.0789912" lon="12.5078213"><ele>197.0</ele><time>2026-04-05T16:52:27.424Z</time></trkpt><trkpt lat="43.0789984" lon="12.5076487"><ele>197.0</ele><time>2026-04-05T16:52:28.424Z</time></trkpt><trkpt lat="43.0790094" lon="12.50747"><ele>197.0</ele><time>2026-04-05T16:52:29.424Z</time></trkpt><trkpt lat="43.0790205" lon="12.5072954"><ele>197.0</ele><time>2026-04-05T16:52:30.424Z</time></trkpt><trkpt lat="43.0790238" lon="12.5071238"><ele>197.0</ele><time>2026-04-05T16:52:31.423Z</time></trkpt><trkpt lat="43.0790325" lon="12.5069481"><ele>197.0</ele><time>2026-04-05T16:52:32.424Z</time></trkpt><trkpt lat="43.0790419" lon="12.5067626"><ele>197.0</ele><time>2026-04-05T16:52:33.424Z</time></trkpt><trkpt lat="43.0790505" lon="12.5065803"><ele>197.0</ele><time>2026-04-05T16:52:34.424Z</time></trkpt><trkpt lat="43.0790579" lon="12.5064049"><ele>197.0</ele><time>2026-04-05T16:52:35.424Z</time></trkpt><trkpt lat="43.0790723" lon="12.5062165"><ele>197.0</ele><time>2026-04-05T16:52:36.424Z</time></trkpt><trkpt lat="43.0790824" lon="12.5060234"><ele>197.0</ele><time>2026-04-05T16:52:37.423Z</time></trkpt><trkpt lat="43.0790941" lon="12.5058398"><ele>197.0</ele><time>2026-04-05T16:52:38.424Z</time></trkpt><trkpt lat="43.0791013" lon="12.5056623"><ele>197.0</ele><time>2026-04-05T16:52:39.423Z</time></trkpt><trkpt lat="43.0791119" lon="12.5054761"><ele>197.0</ele><time>2026-04-05T16:52:40.424Z</time></trkpt><trkpt lat="43.0791174" lon="12.5052887"><ele>197.0</ele><time>2026-04-05T16:52:41.424Z</time></trkpt><trkpt lat="43.0791233" lon="12.5051055"><ele>197.0</ele><time>2026-04-05T16:52:42.424Z</time></trkpt><trkpt lat="43.0791243" lon="12.5049153"><ele>197.75</ele><time>2026-04-05T16:52:43.423Z</time></trkpt><trkpt lat="43.0791103" lon="12.5047399"><ele>198.5</ele><time>2026-04-05T16:52:44.423Z</time></trkpt><trkpt lat="43.0790875" lon="12.5045599"><ele>199.25</ele><time>2026-04-05T16:52:45.424Z</time></trkpt><trkpt lat="43.0790601" lon="12.5043834"><ele>200.0</ele><time>2026-04-05T16:52:46.424Z</time></trkpt><trkpt lat="43.0790206" lon="12.5042134"><ele>200.0</ele><time>2026-04-05T16:52:47.423Z</time></trkpt><trkpt lat="43.0789822" lon="12.5040294"><ele>200.0</ele><time>2026-04-05T16:52:48.424Z</time></trkpt><trkpt lat="43.0789433" lon="12.5038585"><ele>200.0</ele><time>2026-04-05T16:52:49.424Z</time></trkpt><trkpt lat="43.0789073" lon="12.503692"><ele>200.0</ele><time>2026-04-05T16:52:50.424Z</time></trkpt><trkpt lat="43.0788874" lon="12.5035157"><ele>199.75</ele><time>2026-04-05T16:52:51.424Z</time></trkpt><trkpt lat="43.0788782" lon="12.5033381"><ele>199.5</ele><time>2026-04-05T16:52:52.424Z</time></trkpt><trkpt lat="43.0788956" lon="12.5031621"><ele>199.25</ele><time>2026-04-05T16:52:53.423Z</time></trkpt><trkpt lat="43.0789263" lon="12.5029912"><ele>199.0</ele><time>2026-04-05T16:52:54.424Z</time></trkpt><trkpt lat="43.0789696" lon="12.5028175"><ele>199.0</ele><time>2026-04-05T16:52:55.424Z</time></trkpt><trkpt lat="43.0790419" lon="12.5026615"><ele>199.0</ele><time>2026-04-05T16:52:56.424Z</time></trkpt><trkpt lat="43.0791218" lon="12.5025166"><ele>199.0</ele><time>2026-04-05T16:52:57.424Z</time></trkpt><trkpt lat="43.0792018" lon="12.5023691"><ele>199.0</ele><time>2026-04-05T16:52:58.424Z</time></trkpt><trkpt lat="43.0792869" lon="12.5022264"><ele>199.0</ele><time>2026-04-05T16:52:59.424Z</time></trkpt><trkpt lat="43.0793645" lon="12.5021048"><ele>199.0</ele><time>2026-04-05T16:53:00.424Z</time></trkpt><trkpt lat="43.0794305" lon="12.5019957"><ele>199.0</ele><time>2026-04-05T16:53:01.424Z</time></trkpt><trkpt lat="43.0794942" lon="12.5019003"><ele>199.0</ele><time>2026-04-05T16:53:02.423Z</time></trkpt><trkpt lat="43.0795545" lon="12.5018146"><ele>199.0</ele><time>2026-04-05T16:53:03.424Z</time></trkpt><trkpt lat="43.079603" lon="12.50173"><ele>198.83333333333331</ele><time>2026-04-05T16:53:04.424Z</time></trkpt><trkpt lat="43.0796568" lon="12.5016503"><ele>198.66666666666666</ele><time>2026-04-05T16:53:05.423Z</time></trkpt><trkpt lat="43.0797094" lon="12.5015771"><ele>198.5</ele><time>2026-04-05T16:53:06.424Z</time></trkpt><trkpt lat="43.0797482" lon="12.5014799"><ele>198.33333333333331</ele><time>2026-04-05T16:53:07.424Z</time></trkpt><trkpt lat="43.0797945" lon="12.501377"><ele>198.16666666666666</ele><time>2026-04-05T16:53:08.424Z</time></trkpt><trkpt lat="43.0798306" lon="12.5012654"><ele>198.0</ele><time>2026-04-05T16:53:09.424Z</time></trkpt><trkpt lat="43.0798629" lon="12.5011406"><ele>198.0</ele><time>2026-04-05T16:53:10.423Z</time></trkpt><trkpt lat="43.0798889" lon="12.5010207"><ele>198.0</ele><time>2026-04-05T16:53:11.423Z</time></trkpt><trkpt lat="43.0799189" lon="12.5008904"><ele>198.0</ele><time>2026-04-05T16:53:12.424Z</time></trkpt><trkpt lat="43.079951" lon="12.5007537"><ele>199.0</ele><time>2026-04-05T16:53:13.424Z</time></trkpt></trkseg></trk></gpx>